<?xml version='1.0' encoding='UTF-8'?><gpx version="1.1" creator="JPX - https://github.com/jenetics/jpx" xmlns="http://www.topografix.com/GPX/1/1"><trk><trkseg><trkpt lat="38.6690821001109" lon="16.406965310177902"><ele>523.0</ele><time>2026-04-06T08:51:09.001Z</time></trkpt><trkpt lat="38.66907382046859" lon="16.40685915691023"><ele>523.0</ele><time>2026-04-06T08:51:10.001Z</time></trkpt><trkpt lat="38.66905016305402" lon="16.406771947794976"><ele>523.0</ele><time>2026-04-06T08:51:12.001Z</time></trkpt><trkpt lat="38.66911824788258" lon="16.406701854300522"><ele>523.0</ele><time>2026-04-06T08:51:13.001Z</time></trkpt><trkpt lat="38.6691856531355" lon="16.406695484404565"><ele>523.0</ele><time>2026-04-06T08:51:14.001Z</time></trkpt><trkpt lat="38.6693073249735" lon="16.406657768054494"><ele>523.0</ele><time>2026-04-06T08:51:16.001Z</time></trkpt><trkpt lat="38.66937975062752" lon="16.40661971642304"><ele>522.1428571428571</ele><time>2026-04-06T08:51:17.001Z</time></trkpt><trkpt lat="38.6694544869386" lon="16.40662060707516"><ele>521.2857142857142</ele><time>2026-04-06T08:51:18.001Z</time></trkpt><trkpt lat="38.669524810502324" lon="16.406584203612532"><ele>520.4285714285714</ele><time>2026-04-06T08:51:19.001Z</time></trkpt><trkpt lat="38.66959850837106" lon="16.40659183254889"><ele>519.5714285714286</ele><time>2026-04-06T08:51:20.001Z</time></trkpt><trkpt lat="38.66966106390971" lon="16.406625033975303"><ele>518.7142857142858</ele><time>2026-04-06T08:51:21.001Z</time></trkpt><trkpt lat="38.6697326663222" lon="16.40664259961129"><ele>517.8571428571429</ele><time>2026-04-06T08:51:22.001Z</time></trkpt><trkpt lat="38.66980294619788" lon="16.406636358697817"><ele>517.0</ele><time>2026-04-06T08:51:23.001Z</time></trkpt><trkpt lat="38.66988435869598" lon="16.40665033796632"><ele>517.0</ele><time>2026-04-06T08:51:24.001Z</time></trkpt><trkpt lat="38.66997478080124" lon="16.406639899812426"><ele>517.0</ele><time>2026-04-06T08:51:25.001Z</time></trkpt><trkpt lat="38.67006834678444" lon="16.406619597680084"><ele>517.0</ele><time>2026-04-06T08:51:26.001Z</time></trkpt><trkpt lat="38.67016634774179" lon="16.40658854230709"><ele>517.0</ele><time>2026-04-06T08:51:27.001Z</time></trkpt><trkpt lat="38.67027045159842" lon="16.406536568767798"><ele>517.0</ele><time>2026-04-06T08:51:28.001Z</time></trkpt><trkpt lat="38.670374654613035" lon="16.40649241329426"><ele>516.4</ele><time>2026-04-06T08:51:29.001Z</time></trkpt><trkpt lat="38.670486222072036" lon="16.40645316007166"><ele>515.8000000000001</ele><time>2026-04-06T08:51:30.001Z</time></trkpt><trkpt lat="38.67059382039596" lon="16.406412327775705"><ele>515.2</ele><time>2026-04-06T08:51:31.001Z</time></trkpt><trkpt lat="38.670700764419166" lon="16.40638944573217"><ele>514.6</ele><time>2026-04-06T08:51:32.001Z</time></trkpt><trkpt lat="38.670789264759485" lon="16.40635149909798"><ele>514.0</ele><time>2026-04-06T08:51:33.001Z</time></trkpt><trkpt lat="38.67086958771492" lon="16.406310356042535"><ele>515.5</ele><time>2026-04-06T08:51:34.001Z</time></trkpt><trkpt lat="38.67092985428258" lon="16.406257142861048"><ele>517.0</ele><time>2026-04-06T08:51:35.001Z</time></trkpt><trkpt lat="38.67103721625126" lon="16.406209489619858"><ele>518.5</ele><time>2026-04-06T08:51:37.001Z</time></trkpt><trkpt lat="38.67110469551639" lon="16.406212705798275"><ele>520.0</ele><time>2026-04-06T08:51:41.001Z</time></trkpt><trkpt lat="38.67106667086222" lon="16.40593958731197"><ele>520.0</ele><time>2026-04-06T08:51:46.001Z</time></trkpt><trkpt lat="38.67108918975514" lon="16.405841442800124"><ele>520.0</ele><time>2026-04-06T08:51:48.001Z</time></trkpt><trkpt lat="38.671034400267665" lon="16.40568781733646"><ele>520.0</ele><time>2026-04-06T08:51:50.001Z</time></trkpt><trkpt lat="38.67098281854416" lon="16.40560086585141"><ele>520.0</ele><time>2026-04-06T08:51:51.001Z</time></trkpt><trkpt lat="38.670926720831005" lon="16.405501050274598"><ele>520.0</ele><time>2026-04-06T08:51:52.001Z</time></trkpt><trkpt lat="38.67086396977566" lon="16.40539652394418"><ele>521.8</ele><time>2026-04-06T08:51:53.001Z</time></trkpt><trkpt lat="38.670789725814224" lon="16.4053035388005"><ele>523.6</ele><time>2026-04-06T08:51:54.001Z</time></trkpt><trkpt lat="38.670689625534266" lon="16.405229058645936"><ele>525.4</ele><time>2026-04-06T08:51:55.001Z</time></trkpt><trkpt lat="38.67061013673412" lon="16.405172616738174"><ele>527.2</ele><time>2026-04-06T08:51:56.001Z</time></trkpt><trkpt lat="38.67052072145303" lon="16.405115512669983"><ele>529.0</ele><time>2026-04-06T08:51:57.002Z</time></trkpt><trkpt lat="38.670427459982555" lon="16.405055381899786"><ele>529.0</ele><time>2026-04-06T08:51:58.002Z</time></trkpt><trkpt lat="38.670334178215725" lon="16.404978737920818"><ele>529.0</ele><time>2026-04-06T08:51:59.002Z</time></trkpt><trkpt lat="38.67024491842355" lon="16.404887336641806"><ele>529.0</ele><time>2026-04-06T08:52:00.002Z</time></trkpt><trkpt lat="38.670154994665445" lon="16.404798355408584"><ele>529.0</ele><time>2026-04-06T08:52:01.002Z</time></trkpt><trkpt lat="38.67007541932866" lon="16.404721746341647"><ele>529.0</ele><time>2026-04-06T08:52:02.002Z</time></trkpt><trkpt lat="38.66997673762841" lon="16.40466040267233"><ele>529.75</ele><time>2026-04-06T08:52:03.002Z</time></trkpt><trkpt lat="38.66987492105938" lon="16.40463280158103"><ele>530.5</ele><time>2026-04-06T08:52:04.002Z</time></trkpt><trkpt lat="38.66976507114438" lon="16.4046506575106"><ele>531.25</ele><time>2026-04-06T08:52:05.002Z</time></trkpt><trkpt lat="38.66965484940102" lon="16.404699473820088"><ele>532.0</ele><time>2026-04-06T08:52:06.002Z</time></trkpt><trkpt lat="38.66953955586548" lon="16.404758940247927"><ele>530.5</ele><time>2026-04-06T08:52:07.002Z</time></trkpt><trkpt lat="38.669441781799414" lon="16.404854719531084"><ele>529.0</ele><time>2026-04-06T08:52:08.002Z</time></trkpt><trkpt lat="38.669370172353204" lon="16.404986888846167"><ele>527.5</ele><time>2026-04-06T08:52:09.002Z</time></trkpt><trkpt lat="38.66928752528281" lon="16.405091443850203"><ele>526.0</ele><time>2026-04-06T08:52:10.002Z</time></trkpt><trkpt lat="38.66920737891599" lon="16.405185117565374"><ele>526.0</ele><time>2026-04-06T08:52:11.002Z</time></trkpt><trkpt lat="38.66912624177261" lon="16.405265704347393"><ele>526.0</ele><time>2026-04-06T08:52:12.002Z</time></trkpt><trkpt lat="38.66903213289147" lon="16.405325182509664"><ele>526.0</ele><time>2026-04-06T08:52:13.002Z</time></trkpt><trkpt lat="38.66894033938768" lon="16.40535084082068"><ele>526.0</ele><time>2026-04-06T08:52:14.002Z</time></trkpt><trkpt lat="38.66884543995209" lon="16.405332104223714"><ele>526.0</ele><time>2026-04-06T08:52:15.002Z</time></trkpt><trkpt lat="38.66874515983359" lon="16.40527591297811"><ele>526.0</ele><time>2026-04-06T08:52:16.002Z</time></trkpt><trkpt lat="38.66864247451441" lon="16.40517535557306"><ele>526.0</ele><time>2026-04-06T08:52:17.002Z</time></trkpt><trkpt lat="38.668542773742" lon="16.40506357815005"><ele>526.0</ele><time>2026-04-06T08:52:18.002Z</time></trkpt><trkpt lat="38.66844649298869" lon="16.404925690010153"><ele>526.0</ele><time>2026-04-06T08:52:19.002Z</time></trkpt><trkpt lat="38.66833674316364" lon="16.404783872110183"><ele>526.0</ele><time>2026-04-06T08:52:20.002Z</time></trkpt><trkpt lat="38.6682276445862" lon="16.404638883554135"><ele>526.0</ele><time>2026-04-06T08:52:21.002Z</time></trkpt><trkpt lat="38.66811958280901" lon="16.404482574589814"><ele>526.0</ele><time>2026-04-06T08:52:22.002Z</time></trkpt><trkpt lat="38.668013636211164" lon="16.404311004553833"><ele>526.0</ele><time>2026-04-06T08:52:23.002Z</time></trkpt><trkpt lat="38.66791353327437" lon="16.40413389474548"><ele>526.0</ele><time>2026-04-06T08:52:24.002Z</time></trkpt><trkpt lat="38.66780435860683" lon="16.403940297862082"><ele>526.0</ele><time>2026-04-06T08:52:25.002Z</time></trkpt><trkpt lat="38.667705399429394" lon="16.4037524938311"><ele>525.0</ele><time>2026-04-06T08:52:26.002Z</time></trkpt><trkpt lat="38.66760173545668" lon="16.403563612897663"><ele>524.0</ele><time>2026-04-06T08:52:27.002Z</time></trkpt><trkpt lat="38.667465039721336" lon="16.403355839366718"><ele>523.0</ele><time>2026-04-06T08:52:28.002Z</time></trkpt><trkpt lat="38.667349684981495" lon="16.403164274272676"><ele>523.3333333333334</ele><time>2026-04-06T08:52:29.002Z</time></trkpt><trkpt lat="38.66721851927014" lon="16.40298254846969"><ele>523.6666666666666</ele><time>2026-04-06T08:52:30.002Z</time></trkpt><trkpt lat="38.6670740513005" lon="16.402822470847582"><ele>524.0</ele><time>2026-04-06T08:52:31.002Z</time></trkpt><trkpt lat="38.66693524069113" lon="16.40268453739395"><ele>524.0</ele><time>2026-04-06T08:52:32.002Z</time></trkpt><trkpt lat="38.6668072577999" lon="16.402556980972296"><ele>524.0</ele><time>2026-04-06T08:52:33.002Z</time></trkpt><trkpt lat="38.666694540235625" lon="16.402431220598157"><ele>524.0</ele><time>2026-04-06T08:52:34.002Z</time></trkpt><trkpt lat="38.666599498973945" lon="16.40230270677328"><ele>524.0</ele><time>2026-04-06T08:52:35.002Z</time></trkpt><trkpt lat="38.666529581863315" lon="16.402170070170232"><ele>524.0</ele><time>2026-04-06T08:52:36.002Z</time></trkpt><trkpt lat="38.666493797739456" lon="16.40203263525528"><ele>524.0</ele><time>2026-04-06T08:52:37.002Z</time></trkpt><trkpt lat="38.66647863150168" lon="16.401880134537883"><ele>524.0</ele><time>2026-04-06T08:52:38.002Z</time></trkpt><trkpt lat="38.66648521500037" lon="16.401716121301394"><ele>526.5</ele><time>2026-04-06T08:52:39.002Z</time></trkpt><trkpt lat="38.6665147910796" lon="16.401540577602336"><ele>529.0</ele><time>2026-04-06T08:52:40.002Z</time></trkpt><trkpt lat="38.66656037076582" lon="16.40137405038561"><ele>531.5</ele><time>2026-04-06T08:52:41.002Z</time></trkpt><trkpt lat="38.666622824529185" lon="16.40122966148287"><ele>534.0</ele><time>2026-04-06T08:52:42.002Z</time></trkpt><trkpt lat="38.66663071500964" lon="16.401067808896457"><ele>534.25</ele><time>2026-04-06T08:52:43.002Z</time></trkpt><trkpt lat="38.666617373576265" lon="16.400916083836687"><ele>534.5</ele><time>2026-04-06T08:52:44.002Z</time></trkpt><trkpt lat="38.66657070968123" lon="16.400777895959788"><ele>534.75</ele><time>2026-04-06T08:52:45.002Z</time></trkpt><trkpt lat="38.66650162674723" lon="16.400633810296753"><ele>535.0</ele><time>2026-04-06T08:52:46.001Z</time></trkpt><trkpt lat="38.666437159261534" lon="16.400474627384448"><ele>535.6666666666667</ele><time>2026-04-06T08:52:47.001Z</time></trkpt><trkpt lat="38.66635740596085" lon="16.40031343016893"><ele>536.3333333333334</ele><time>2026-04-06T08:52:48.001Z</time></trkpt><trkpt lat="38.666279944261014" lon="16.400156028917408"><ele>537.0</ele><time>2026-04-06T08:52:49.001Z</time></trkpt><trkpt lat="38.66619890035449" lon="16.399981672782122"><ele>537.0</ele><time>2026-04-06T08:52:50.001Z</time></trkpt><trkpt lat="38.66613378600334" lon="16.39980927165519"><ele>537.0</ele><time>2026-04-06T08:52:51.001Z</time></trkpt><trkpt lat="38.66607344782874" lon="16.39961808093192"><ele>537.0</ele><time>2026-04-06T08:52:52.001Z</time></trkpt><trkpt lat="38.665995694189206" lon="16.399445670432616"><ele>533.0</ele><time>2026-04-06T08:52:53.001Z</time></trkpt><trkpt lat="38.6659184558597" lon="16.39927081145738"><ele>529.0</ele><time>2026-04-06T08:52:54.001Z</time></trkpt><trkpt lat="38.66581428034521" lon="16.399110956234416"><ele>525.0</ele><time>2026-04-06T08:52:55.001Z</time></trkpt><trkpt lat="38.665696763119804" lon="16.398975432711953"><ele>525.0</ele><time>2026-04-06T08:52:56.001Z</time></trkpt><trkpt lat="38.665578999124925" lon="16.398840857205055"><ele>525.0</ele><time>2026-04-06T08:52:57.001Z</time></trkpt><trkpt lat="38.66546252225457" lon="16.398699664146537"><ele>525.0</ele><time>2026-04-06T08:52:58.001Z</time></trkpt><trkpt lat="38.6653483613594" lon="16.39856262740283"><ele>523.5</ele><time>2026-04-06T08:52:59.001Z</time></trkpt><trkpt lat="38.66524777283131" lon="16.398436622327488"><ele>522.0</ele><time>2026-04-06T08:53:00.001Z</time></trkpt><trkpt lat="38.66516413626312" lon="16.39831868023824"><ele>520.5</ele><time>2026-04-06T08:53:01.001Z</time></trkpt><trkpt lat="38.66509656530485" lon="16.398191593433896"><ele>519.0</ele><time>2026-04-06T08:53:02.001Z</time></trkpt><trkpt lat="38.66506192012406" lon="16.398057440698814"><ele>519.5</ele><time>2026-04-06T08:53:03.001Z</time></trkpt><trkpt lat="38.665045998100105" lon="16.397912444109632"><ele>520.0</ele><time>2026-04-06T08:53:04.001Z</time></trkpt><trkpt lat="38.66505330662252" lon="16.397753803375128"><ele>520.5</ele><time>2026-04-06T08:53:05.001Z</time></trkpt><trkpt lat="38.66505827056483" lon="16.39758521560476"><ele>521.0</ele><time>2026-04-06T08:53:06.001Z</time></trkpt><trkpt lat="38.66506045631338" lon="16.397449392342327"><ele>521.0</ele><time>2026-04-06T08:53:07.001Z</time></trkpt><trkpt lat="38.665062589493154" lon="16.397341216416727"><ele>521.0</ele><time>2026-04-06T08:53:08.001Z</time></trkpt><trkpt lat="38.665071231193544" lon="16.39725909161972"><ele>521.0</ele><time>2026-04-06T08:53:09.001Z</time></trkpt><trkpt lat="38.665063707917454" lon="16.39715101706471"><ele>521.0</ele><time>2026-04-06T08:53:11.001Z</time></trkpt><trkpt lat="38.66491549621215" lon="16.397136637065447"><ele>521.0</ele><time>2026-04-06T08:53:12.001Z</time></trkpt><trkpt lat="38.66483292506706" lon="16.397159969219075"><ele>521.0</ele><time>2026-04-06T08:53:13.001Z</time></trkpt><trkpt lat="38.66474968142808" lon="16.397181202830485"><ele>521.0</ele><time>2026-04-06T08:53:14.001Z</time></trkpt><trkpt lat="38.66464407550415" lon="16.397203064661078"><ele>521.0</ele><time>2026-04-06T08:53:15.001Z</time></trkpt><trkpt lat="38.66453996092227" lon="16.397209403443796"><ele>521.0</ele><time>2026-04-06T08:53:16.001Z</time></trkpt><trkpt lat="38.66442919812628" lon="16.397227420897163"><ele>521.0</ele><time>2026-04-06T08:53:17.001Z</time></trkpt><trkpt lat="38.66432057018569" lon="16.397242472887914"><ele>520.5</ele><time>2026-04-06T08:53:18.001Z</time></trkpt><trkpt lat="38.6642120271687" lon="16.39724338505158"><ele>520.0</ele><time>2026-04-06T08:53:19.001Z</time></trkpt><trkpt lat="38.66410146142178" lon="16.397213072449244"><ele>519.5</ele><time>2026-04-06T08:53:20.001Z</time></trkpt><trkpt lat="38.663988509454285" lon="16.397139949236937"><ele>519.0</ele><time>2026-04-06T08:53:21.001Z</time></trkpt><trkpt lat="38.663886336843206" lon="16.39703133637273"><ele>519.0</ele><time>2026-04-06T08:53:22.001Z</time></trkpt><trkpt lat="38.66379366858822" lon="16.39690692936141"><ele>519.0</ele><time>2026-04-06T08:53:23.001Z</time></trkpt><trkpt lat="38.66371817026363" lon="16.396754391766304"><ele>519.0</ele><time>2026-04-06T08:53:24.001Z</time></trkpt><trkpt lat="38.6636400993976" lon="16.396588752619294"><ele>519.0</ele><time>2026-04-06T08:53:25.001Z</time></trkpt><trkpt lat="38.66355893966147" lon="16.396424631185603"><ele>519.0</ele><time>2026-04-06T08:53:26.001Z</time></trkpt><trkpt lat="38.663469777647926" lon="16.396260035584156"><ele>519.0</ele><time>2026-04-06T08:53:27.001Z</time></trkpt><trkpt lat="38.663364599584725" lon="16.396106710024725"><ele>519.0</ele><time>2026-04-06T08:53:28.001Z</time></trkpt><trkpt lat="38.66324200226483" lon="16.395969590972737"><ele>519.0</ele><time>2026-04-06T08:53:29.001Z</time></trkpt><trkpt lat="38.66310772296123" lon="16.395845326850292"><ele>519.0</ele><time>2026-04-06T08:53:30.001Z</time></trkpt><trkpt lat="38.66297005880952" lon="16.3957174944593"><ele>519.0</ele><time>2026-04-06T08:53:31.001Z</time></trkpt><trkpt lat="38.662833146860585" lon="16.39558835770767"><ele>521.6666666666666</ele><time>2026-04-06T08:53:32.001Z</time></trkpt><trkpt lat="38.66269185491021" lon="16.395459939025255"><ele>524.3333333333333</ele><time>2026-04-06T08:53:33.001Z</time></trkpt><trkpt lat="38.66255019215598" lon="16.39533108273911"><ele>527.0</ele><time>2026-04-06T08:53:34.001Z</time></trkpt><trkpt lat="38.66239999978386" lon="16.39522682121882"><ele>527.0</ele><time>2026-04-06T08:53:35.001Z</time></trkpt><trkpt lat="38.662248431800414" lon="16.39514505432268"><ele>527.0</ele><time>2026-04-06T08:53:36.001Z</time></trkpt><trkpt lat="38.66210792323901" lon="16.395040621461103"><ele>527.0</ele><time>2026-04-06T08:53:37.001Z</time></trkpt><trkpt lat="38.66199387108097" lon="16.39490379899691"><ele>532.0</ele><time>2026-04-06T08:53:38.001Z</time></trkpt><trkpt lat="38.66192258087578" lon="16.39474619252689"><ele>537.0</ele><time>2026-04-06T08:53:39.001Z</time></trkpt><trkpt lat="38.66188307874392" lon="16.394570256844737"><ele>542.0</ele><time>2026-04-06T08:53:40.001Z</time></trkpt><trkpt lat="38.66186320526581" lon="16.394383379454418"><ele>547.0</ele><time>2026-04-06T08:53:41.001Z</time></trkpt><trkpt lat="38.66184068307132" lon="16.394195195615488"><ele>547.0</ele><time>2026-04-06T08:53:42.001Z</time></trkpt><trkpt lat="38.661808024862644" lon="16.394012918580344"><ele>547.0</ele><time>2026-04-06T08:53:43.001Z</time></trkpt><trkpt lat="38.661773818836416" lon="16.39382944524138"><ele>547.0</ele><time>2026-04-06T08:53:44.001Z</time></trkpt><trkpt lat="38.66170635548619" lon="16.39365694912475"><ele>547.0</ele><time>2026-04-06T08:53:45.001Z</time></trkpt><trkpt lat="38.661602623288665" lon="16.393493679017844"><ele>546.6666666666667</ele><time>2026-04-06T08:53:46.001Z</time></trkpt><trkpt lat="38.66149597767347" lon="16.393343639088858"><ele>546.3333333333334</ele><time>2026-04-06T08:53:47.001Z</time></trkpt><trkpt lat="38.66145169440821" lon="16.393139723346447"><ele>546.0</ele><time>2026-04-06T08:53:48.001Z</time></trkpt><trkpt lat="38.661382930858124" lon="16.392950214991647"><ele>546.0</ele><time>2026-04-06T08:53:49.001Z</time></trkpt><trkpt lat="38.66130346695944" lon="16.392777511799896"><ele>546.0</ele><time>2026-04-06T08:53:50.001Z</time></trkpt><trkpt lat="38.66122729449409" lon="16.39262405692156"><ele>546.0</ele><time>2026-04-06T08:53:51.001Z</time></trkpt><trkpt lat="38.66114893837719" lon="16.39248065137959"><ele>546.0</ele><time>2026-04-06T08:53:52.001Z</time></trkpt><trkpt lat="38.66104905138039" lon="16.392348884718526"><ele>545.6666666666666</ele><time>2026-04-06T08:53:53.001Z</time></trkpt><trkpt lat="38.66091924359358" lon="16.392241146489898"><ele>545.3333333333333</ele><time>2026-04-06T08:53:54.001Z</time></trkpt><trkpt lat="38.66078450809005" lon="16.392135524522484"><ele>545.0</ele><time>2026-04-06T08:53:55.001Z</time></trkpt><trkpt lat="38.66064362898948" lon="16.392025353156125"><ele>545.0</ele><time>2026-04-06T08:53:56.001Z</time></trkpt><trkpt lat="38.66049088889849" lon="16.391929364470702"><ele>545.0</ele><time>2026-04-06T08:53:57.001Z</time></trkpt><trkpt lat="38.66034686284675" lon="16.39181802371138"><ele>545.0</ele><time>2026-04-06T08:53:58.001Z</time></trkpt><trkpt lat="38.660207206633565" lon="16.39170682652468"><ele>546.5</ele><time>2026-04-06T08:53:59.001Z</time></trkpt><trkpt lat="38.66007346789076" lon="16.39159768416053"><ele>548.0</ele><time>2026-04-06T08:54:00.001Z</time></trkpt><trkpt lat="38.6599487045171" lon="16.391504451261632"><ele>549.5</ele><time>2026-04-06T08:54:01.001Z</time></trkpt><trkpt lat="38.65982338165571" lon="16.391438593491145"><ele>551.0</ele><time>2026-04-06T08:54:02.001Z</time></trkpt><trkpt lat="38.65968497577154" lon="16.391400573469745"><ele>551.0</ele><time>2026-04-06T08:54:03.001Z</time></trkpt><trkpt lat="38.65954393934085" lon="16.391470023201073"><ele>551.0</ele><time>2026-04-06T08:54:04.001Z</time></trkpt><trkpt lat="38.65941212642805" lon="16.39155933302259"><ele>551.0</ele><time>2026-04-06T08:54:05.001Z</time></trkpt><trkpt lat="38.659280521591405" lon="16.391662911983104"><ele>550.75</ele><time>2026-04-06T08:54:06.001Z</time></trkpt><trkpt lat="38.65916005401317" lon="16.39175812379088"><ele>550.5</ele><time>2026-04-06T08:54:07.001Z</time></trkpt><trkpt lat="38.659033800146815" lon="16.391817792314317"><ele>550.25</ele><time>2026-04-06T08:54:08.001Z</time></trkpt><trkpt lat="38.65890376158141" lon="16.391827203340807"><ele>550.0</ele><time>2026-04-06T08:54:09.001Z</time></trkpt><trkpt lat="38.65876784855339" lon="16.391767271370213"><ele>549.6666666666667</ele><time>2026-04-06T08:54:10.001Z</time></trkpt><trkpt lat="38.65861646379302" lon="16.391724749411896"><ele>549.3333333333334</ele><time>2026-04-06T08:54:11.001Z</time></trkpt><trkpt lat="38.65846380598766" lon="16.39165861619252"><ele>549.0</ele><time>2026-04-06T08:54:12.001Z</time></trkpt><trkpt lat="38.6583216768338" lon="16.391552258235123"><ele>549.0</ele><time>2026-04-06T08:54:13.001Z</time></trkpt><trkpt lat="38.65816550982472" lon="16.391451480061146"><ele>549.0</ele><time>2026-04-06T08:54:14.001Z</time></trkpt><trkpt lat="38.65802934095326" lon="16.391308005833135"><ele>549.0</ele><time>2026-04-06T08:54:15.001Z</time></trkpt><trkpt lat="38.65790863090663" lon="16.39116219198133"><ele>551.0</ele><time>2026-04-06T08:54:16.001Z</time></trkpt><trkpt lat="38.65778870674143" lon="16.391022210665472"><ele>553.0</ele><time>2026-04-06T08:54:17.001Z</time></trkpt><trkpt lat="38.657680735556454" lon="16.39090242041877"><ele>555.0</ele><time>2026-04-06T08:54:18.001Z</time></trkpt><trkpt lat="38.657591990039634" lon="16.390780294435466"><ele>557.0</ele><time>2026-04-06T08:54:19.002Z</time></trkpt><trkpt lat="38.657504116582956" lon="16.39068055021707"><ele>558.0</ele><time>2026-04-06T08:54:20.002Z</time></trkpt><trkpt lat="38.657412051879184" lon="16.390586075294504"><ele>559.0</ele><time>2026-04-06T08:54:21.002Z</time></trkpt><trkpt lat="38.6572887345743" lon="16.39047875991299"><ele>560.0</ele><time>2026-04-06T08:54:22.002Z</time></trkpt><trkpt lat="38.65707040582279" lon="16.39038456898941"><ele>559.3333333333333</ele><time>2026-04-06T08:54:23.002Z</time></trkpt><trkpt lat="38.65689447934997" lon="16.390394657795877"><ele>558.6666666666666</ele><time>2026-04-06T08:54:24.002Z</time></trkpt><trkpt lat="38.65674188123147" lon="16.3904143600746"><ele>558.0</ele><time>2026-04-06T08:54:25.002Z</time></trkpt><trkpt lat="38.6565765866715" lon="16.390452162759697"><ele>558.0</ele><time>2026-04-06T08:54:26.002Z</time></trkpt><trkpt lat="38.65643455825026" lon="16.390468457809295"><ele>558.0</ele><time>2026-04-06T08:54:27.002Z</time></trkpt><trkpt lat="38.65630633881079" lon="16.390468396654047"><ele>558.0</ele><time>2026-04-06T08:54:28.002Z</time></trkpt><trkpt lat="38.656192782978444" lon="16.39041483088017"><ele>558.0</ele><time>2026-04-06T08:54:29.002Z</time></trkpt><trkpt lat="38.65609851787132" lon="16.390349727631797"><ele>558.5</ele><time>2026-04-06T08:54:30.002Z</time></trkpt><trkpt lat="38.65607458328558" lon="16.39020270779662"><ele>559.0</ele><time>2026-04-06T08:54:31.002Z</time></trkpt><trkpt lat="38.656002680951836" lon="16.39005220381035"><ele>559.5</ele><time>2026-04-06T08:54:32.002Z</time></trkpt><trkpt lat="38.65592114867494" lon="16.38987958540065"><ele>560.0</ele><time>2026-04-06T08:54:33.002Z</time></trkpt><trkpt lat="38.65583486823704" lon="16.389698528860897"><ele>559.6666666666666</ele><time>2026-04-06T08:54:34.002Z</time></trkpt><trkpt lat="38.65574139361596" lon="16.389502375610085"><ele>559.3333333333334</ele><time>2026-04-06T08:54:35.002Z</time></trkpt><trkpt lat="38.65564493269842" lon="16.38929965465718"><ele>559.0</ele><time>2026-04-06T08:54:36.002Z</time></trkpt><trkpt lat="38.65553481470478" lon="16.389105820912484"><ele>559.0</ele><time>2026-04-06T08:54:37.002Z</time></trkpt><trkpt lat="38.65543913949883" lon="16.388902591805987"><ele>559.0</ele><time>2026-04-06T08:54:38.002Z</time></trkpt><trkpt lat="38.65535379117314" lon="16.388709484026215"><ele>559.0</ele><time>2026-04-06T08:54:39.002Z</time></trkpt><trkpt lat="38.65527260837596" lon="16.388525053779194"><ele>560.0</ele><time>2026-04-06T08:54:40.002Z</time></trkpt><trkpt lat="38.65519223638003" lon="16.388346089749263"><ele>561.0</ele><time>2026-04-06T08:54:41.002Z</time></trkpt><trkpt lat="38.65509854754263" lon="16.388187378790608"><ele>562.0</ele><time>2026-04-06T08:54:42.002Z</time></trkpt><trkpt lat="38.654979218763756" lon="16.388057900291752"><ele>562.6666666666667</ele><time>2026-04-06T08:54:43.002Z</time></trkpt><trkpt lat="38.654827215196924" lon="16.387948909208333"><ele>563.3333333333334</ele><time>2026-04-06T08:54:44.002Z</time></trkpt><trkpt lat="38.6546686138576" lon="16.38784338369816"><ele>564.0</ele><time>2026-04-06T08:54:45.002Z</time></trkpt><trkpt lat="38.654490387561886" lon="16.387761405040084"><ele>563.3333333333334</ele><time>2026-04-06T08:54:46.002Z</time></trkpt><trkpt lat="38.65433787068533" lon="16.38764856716723"><ele>562.6666666666667</ele><time>2026-04-06T08:54:47.002Z</time></trkpt><trkpt lat="38.65421420404436" lon="16.38750848616782"><ele>562.0</ele><time>2026-04-06T08:54:48.002Z</time></trkpt><trkpt lat="38.65413036189218" lon="16.38735492876025"><ele>563.0</ele><time>2026-04-06T08:54:49.002Z</time></trkpt><trkpt lat="38.65404620891816" lon="16.387173707323797"><ele>564.0</ele><time>2026-04-06T08:54:50.002Z</time></trkpt><trkpt lat="38.65390906756325" lon="16.38698017537979"><ele>565.0</ele><time>2026-04-06T08:54:51.002Z</time></trkpt><trkpt lat="38.65381181164061" lon="16.386836329247064"><ele>565.0</ele><time>2026-04-06T08:54:52.001Z</time></trkpt><trkpt lat="38.653721463583686" lon="16.386693196373876"><ele>565.0</ele><time>2026-04-06T08:54:53.001Z</time></trkpt><trkpt lat="38.6536392154085" lon="16.386566193614083"><ele>565.0</ele><time>2026-04-06T08:54:54.001Z</time></trkpt><trkpt lat="38.65355588922366" lon="16.386459149914664"><ele>565.0</ele><time>2026-04-06T08:54:55.001Z</time></trkpt><trkpt lat="38.653439185129784" lon="16.38638343451039"><ele>565.5</ele><time>2026-04-06T08:54:56.001Z</time></trkpt><trkpt lat="38.6532789773649" lon="16.386395497071124"><ele>566.0</ele><time>2026-04-06T08:54:57.001Z</time></trkpt><trkpt lat="38.65315110045103" lon="16.386397771445395"><ele>566.5</ele><time>2026-04-06T08:54:58.001Z</time></trkpt><trkpt lat="38.65301883891196" lon="16.386445939937694"><ele>567.0</ele><time>2026-04-06T08:54:59.001Z</time></trkpt><trkpt lat="38.6528880284987" lon="16.386450497991664"><ele>568.75</ele><time>2026-04-06T08:55:00.001Z</time></trkpt><trkpt lat="38.65275526576786" lon="16.38645810231577"><ele>570.5</ele><time>2026-04-06T08:55:01.001Z</time></trkpt><trkpt lat="38.652623523568764" lon="16.386458084168343"><ele>572.25</ele><time>2026-04-06T08:55:02.001Z</time></trkpt><trkpt lat="38.65251470711365" lon="16.38647534279341"><ele>574.0</ele><time>2026-04-06T08:55:03.001Z</time></trkpt><trkpt lat="38.652419014324586" lon="16.38653050605652"><ele>574.0</ele><time>2026-04-06T08:55:04.001Z</time></trkpt><trkpt lat="38.65235461289343" lon="16.386629914074675"><ele>574.0</ele><time>2026-04-06T08:55:05.001Z</time></trkpt><trkpt lat="38.652311481641675" lon="16.386768165523975"><ele>574.0</ele><time>2026-04-06T08:55:06.001Z</time></trkpt><trkpt lat="38.652285263069025" lon="16.386923529610204"><ele>574.0</ele><time>2026-04-06T08:55:07.001Z</time></trkpt><trkpt lat="38.65226190184119" lon="16.387075049055966"><ele>573.25</ele><time>2026-04-06T08:55:08.001Z</time></trkpt><trkpt lat="38.6522041454075" lon="16.387256160962167"><ele>572.5</ele><time>2026-04-06T08:55:09.001Z</time></trkpt><trkpt lat="38.65213282728055" lon="16.387413131266786"><ele>571.75</ele><time>2026-04-06T08:55:10.001Z</time></trkpt><trkpt lat="38.652062426499185" lon="16.38756548490762"><ele>571.0</ele><time>2026-04-06T08:55:11.001Z</time></trkpt><trkpt lat="38.651971605859025" lon="16.387679941038158"><ele>573.75</ele><time>2026-04-06T08:55:12.001Z</time></trkpt><trkpt lat="38.651873912971745" lon="16.38772701639447"><ele>576.5</ele><time>2026-04-06T08:55:13.001Z</time></trkpt><trkpt lat="38.65176837762139" lon="16.387728795774105"><ele>579.25</ele><time>2026-04-06T08:55:14.001Z</time></trkpt><trkpt lat="38.651648488807396" lon="16.387701399583875"><ele>582.0</ele><time>2026-04-06T08:55:15.001Z</time></trkpt><trkpt lat="38.65152568475748" lon="16.387688124114103"><ele>582.0</ele><time>2026-04-06T08:55:16.001Z</time></trkpt><trkpt lat="38.65139364000984" lon="16.38767546288962"><ele>582.0</ele><time>2026-04-06T08:55:17.001Z</time></trkpt><trkpt lat="38.65125240206183" lon="16.387673037686127"><ele>582.0</ele><time>2026-04-06T08:55:18.001Z</time></trkpt><trkpt lat="38.65111273350909" lon="16.387674938073065"><ele>582.0</ele><time>2026-04-06T08:55:19.001Z</time></trkpt><trkpt lat="38.65096666218055" lon="16.38768249412322"><ele>583.5</ele><time>2026-04-06T08:55:20.001Z</time></trkpt><trkpt lat="38.650828618766106" lon="16.387661914706786"><ele>585.0</ele><time>2026-04-06T08:55:21.001Z</time></trkpt><trkpt lat="38.6507224579551" lon="16.387622713678784"><ele>586.5</ele><time>2026-04-06T08:55:22.001Z</time></trkpt><trkpt lat="38.65060424997209" lon="16.387664442140796"><ele>588.0</ele><time>2026-04-06T08:55:23.001Z</time></trkpt><trkpt lat="38.650497567694906" lon="16.387730568740167"><ele>588.0</ele><time>2026-04-06T08:55:24.001Z</time></trkpt><trkpt lat="38.65038603222111" lon="16.38782953113199"><ele>588.0</ele><time>2026-04-06T08:55:25.001Z</time></trkpt><trkpt lat="38.65031163679839" lon="16.387969658595072"><ele>588.0</ele><time>2026-04-06T08:55:26.001Z</time></trkpt><trkpt lat="38.65025261123478" lon="16.38815309243891"><ele>588.0</ele><time>2026-04-06T08:55:27.001Z</time></trkpt><trkpt lat="38.65019015811623" lon="16.38832400475914"><ele>590.5</ele><time>2026-04-06T08:55:28.001Z</time></trkpt><trkpt lat="38.65012259274302" lon="16.38846801237911"><ele>593.0</ele><time>2026-04-06T08:55:29.001Z</time></trkpt><trkpt lat="38.65001377739298" lon="16.38858583878457"><ele>595.5</ele><time>2026-04-06T08:55:30.001Z</time></trkpt><trkpt lat="38.64989053361159" lon="16.38862758355209"><ele>598.0</ele><time>2026-04-06T08:55:31.001Z</time></trkpt><trkpt lat="38.64974967203899" lon="16.388649541642838"><ele>598.0</ele><time>2026-04-06T08:55:32.001Z</time></trkpt><trkpt lat="38.649608465779366" lon="16.388658474769464"><ele>598.0</ele><time>2026-04-06T08:55:33.001Z</time></trkpt><trkpt lat="38.64946327735845" lon="16.388626268713193"><ele>598.0</ele><time>2026-04-06T08:55:34.001Z</time></trkpt><trkpt lat="38.64932111700968" lon="16.388561691830862"><ele>598.0</ele><time>2026-04-06T08:55:35.001Z</time></trkpt><trkpt lat="38.64917783298562" lon="16.38847462848134"><ele>598.75</ele><time>2026-04-06T08:55:36.001Z</time></trkpt><trkpt lat="38.64904699464197" lon="16.388379226601003"><ele>599.5</ele><time>2026-04-06T08:55:37.001Z</time></trkpt><trkpt lat="38.64893007738076" lon="16.388289474081372"><ele>600.25</ele><time>2026-04-06T08:55:38.001Z</time></trkpt><trkpt lat="38.64882368894904" lon="16.388167973121938"><ele>601.0</ele><time>2026-04-06T08:55:39.001Z</time></trkpt><trkpt lat="38.64872378149904" lon="16.38802211537079"><ele>603.3333333333334</ele><time>2026-04-06T08:55:40.001Z</time></trkpt><trkpt lat="38.64864147594342" lon="16.387837425426127"><ele>605.6666666666666</ele><time>2026-04-06T08:55:41.001Z</time></trkpt><trkpt lat="38.648562963092324" lon="16.3876475628306"><ele>608.0</ele><time>2026-04-06T08:55:42.001Z</time></trkpt><trkpt lat="38.64849056132829" lon="16.387455000331215"><ele>603.6666666666666</ele><time>2026-04-06T08:55:43.001Z</time></trkpt><trkpt lat="38.64840895109245" lon="16.387293108835646"><ele>599.3333333333334</ele><time>2026-04-06T08:55:44.001Z</time></trkpt><trkpt lat="38.648320554127956" lon="16.38712964383059"><ele>595.0</ele><time>2026-04-06T08:55:45.001Z</time></trkpt><trkpt lat="38.64820041813369" lon="16.38696333498636"><ele>595.0</ele><time>2026-04-06T08:55:46.001Z</time></trkpt><trkpt lat="38.64807231766587" lon="16.386807385710423"><ele>595.0</ele><time>2026-04-06T08:55:47.001Z</time></trkpt><trkpt lat="38.64794656279545" lon="16.386670082953604"><ele>595.0</ele><time>2026-04-06T08:55:48.001Z</time></trkpt><trkpt lat="38.64783094134268" lon="16.386534915387255"><ele>590.25</ele><time>2026-04-06T08:55:49.001Z</time></trkpt><trkpt lat="38.64772444239675" lon="16.38639424942396"><ele>585.5</ele><time>2026-04-06T08:55:50.001Z</time></trkpt><trkpt lat="38.64765725809132" lon="16.386235860631867"><ele>580.75</ele><time>2026-04-06T08:55:51.001Z</time></trkpt><trkpt lat="38.64759259699534" lon="16.386085703612363"><ele>576.0</ele><time>2026-04-06T08:55:52.001Z</time></trkpt><trkpt lat="38.64755483068906" lon="16.385946936098613"><ele>576.0</ele><time>2026-04-06T08:55:53.001Z</time></trkpt><trkpt lat="38.64754930437633" lon="16.385794054515163"><ele>576.0</ele><time>2026-04-06T08:55:54.001Z</time></trkpt><trkpt lat="38.6475572967577" lon="16.385609477455812"><ele>576.0</ele><time>2026-04-06T08:55:55.001Z</time></trkpt><trkpt lat="38.647539052512855" lon="16.38539110936627"><ele>576.0</ele><time>2026-04-06T08:55:56.001Z</time></trkpt><trkpt lat="38.64748654202647" lon="16.385237531678282"><ele>577.3333333333334</ele><time>2026-04-06T08:55:57.001Z</time></trkpt><trkpt lat="38.64742465836939" lon="16.385039017616013"><ele>578.6666666666667</ele><time>2026-04-06T08:55:58.001Z</time></trkpt><trkpt lat="38.647333233003955" lon="16.38485189707845"><ele>580.0</ele><time>2026-04-06T08:55:59.001Z</time></trkpt><trkpt lat="38.6472475293444" lon="16.384673475551185"><ele>580.0</ele><time>2026-04-06T08:56:00.001Z</time></trkpt><trkpt lat="38.64716158007015" lon="16.384512640424695"><ele>580.0</ele><time>2026-04-06T08:56:01.001Z</time></trkpt><trkpt lat="38.64708281524266" lon="16.384363483644197"><ele>580.0</ele><time>2026-04-06T08:56:02.001Z</time></trkpt><trkpt lat="38.64704686220213" lon="16.3841917906887"><ele>580.0</ele><time>2026-04-06T08:56:03.001Z</time></trkpt><trkpt lat="38.64702708849744" lon="16.384024199979184"><ele>580.0</ele><time>2026-04-06T08:56:04.001Z</time></trkpt><trkpt lat="38.6470167739874" lon="16.383846882393613"><ele>580.0</ele><time>2026-04-06T08:56:05.001Z</time></trkpt><trkpt lat="38.64701422743021" lon="16.383669877912276"><ele>580.0</ele><time>2026-04-06T08:56:06.001Z</time></trkpt><trkpt lat="38.6469969213723" lon="16.383497474658384"><ele>580.0</ele><time>2026-04-06T08:56:07.001Z</time></trkpt><trkpt lat="38.64698568824213" lon="16.383336253554397"><ele>579.25</ele><time>2026-04-06T08:56:08.001Z</time></trkpt><trkpt lat="38.64696344224724" lon="16.3831838251859"><ele>578.5</ele><time>2026-04-06T08:56:09.001Z</time></trkpt><trkpt lat="38.64691374693976" lon="16.383042767240166"><ele>577.75</ele><time>2026-04-06T08:56:10.001Z</time></trkpt><trkpt lat="38.646842603515545" lon="16.382917162552236"><ele>577.0</ele><time>2026-04-06T08:56:11.001Z</time></trkpt><trkpt lat="38.64676599399803" lon="16.382806341796726"><ele>575.1666666666667</ele><time>2026-04-06T08:56:12.001Z</time></trkpt><trkpt lat="38.64670036230183" lon="16.382710624575736"><ele>573.3333333333334</ele><time>2026-04-06T08:56:13.001Z</time></trkpt><trkpt lat="38.64664336423581" lon="16.382617368133975"><ele>571.5</ele><time>2026-04-06T08:56:14.001Z</time></trkpt><trkpt lat="38.64660022022097" lon="16.38253749052992"><ele>569.6666666666666</ele><time>2026-04-06T08:56:15.001Z</time></trkpt><trkpt lat="38.64655331701484" lon="16.382460764303445"><ele>567.8333333333333</ele><time>2026-04-06T08:56:17.001Z</time></trkpt><trkpt lat="38.64650014928589" lon="16.382408658719353"><ele>566.0</ele><time>2026-04-06T08:56:21.001Z</time></trkpt><trkpt lat="38.646442436763" lon="16.382364311545064"><ele>566.0</ele><time>2026-04-06T08:56:25.001Z</time></trkpt><trkpt lat="38.64647862659468" lon="16.38222795717325"><ele>566.0</ele><time>2026-04-06T08:56:27.001Z</time></trkpt><trkpt lat="38.646512474932116" lon="16.382139871320977"><ele>566.0</ele><time>2026-04-06T08:56:28.001Z</time></trkpt><trkpt lat="38.6465389730412" lon="16.38204320587761"><ele>566.0</ele><time>2026-04-06T08:56:29.001Z</time></trkpt><trkpt lat="38.64655136050556" lon="16.38193905281542"><ele>566.0</ele><time>2026-04-06T08:56:30.001Z</time></trkpt><trkpt lat="38.646562300665146" lon="16.38181727440673"><ele>566.0</ele><time>2026-04-06T08:56:31.001Z</time></trkpt><trkpt lat="38.64657814642742" lon="16.381693613472812"><ele>565.6</ele><time>2026-04-06T08:56:32.001Z</time></trkpt><trkpt lat="38.64659529583794" lon="16.381561599244456"><ele>565.2</ele><time>2026-04-06T08:56:33.001Z</time></trkpt><trkpt lat="38.646613756050286" lon="16.381434528465903"><ele>564.8</ele><time>2026-04-06T08:56:34.001Z</time></trkpt><trkpt lat="38.64663404993771" lon="16.38130533229261"><ele>564.4</ele><time>2026-04-06T08:56:35.001Z</time></trkpt><trkpt lat="38.64665090131121" lon="16.381182576085568"><ele>564.0</ele><time>2026-04-06T08:56:36.001Z</time></trkpt><trkpt lat="38.64667069862274" lon="16.38104523741421"><ele>563.0</ele><time>2026-04-06T08:56:37.001Z</time></trkpt><trkpt lat="38.646685690046596" lon="16.380919339733598"><ele>562.0</ele><time>2026-04-06T08:56:38.001Z</time></trkpt><trkpt lat="38.64668790667235" lon="16.380786960645327"><ele>561.0</ele><time>2026-04-06T08:56:39.002Z</time></trkpt><trkpt lat="38.64671342104798" lon="16.380655316894682"><ele>560.0</ele><time>2026-04-06T08:56:40.002Z</time></trkpt><trkpt lat="38.64673950605218" lon="16.380515517429167"><ele>559.0</ele><time>2026-04-06T08:56:41.002Z</time></trkpt><trkpt lat="38.64677280681641" lon="16.38037557174296"><ele>557.2</ele><time>2026-04-06T08:56:42.002Z</time></trkpt><trkpt lat="38.64681127607338" lon="16.3802509662433"><ele>555.4</ele><time>2026-04-06T08:56:43.002Z</time></trkpt><trkpt lat="38.64683741157939" lon="16.380167073279445"><ele>553.6</ele><time>2026-04-06T08:56:44.002Z</time></trkpt><trkpt lat="38.646870785300564" lon="16.38006593580549"><ele>551.8</ele><time>2026-04-06T08:56:45.002Z</time></trkpt><trkpt lat="38.646981474674405" lon="16.380023072439375"><ele>550.0</ele><time>2026-04-06T08:56:46.002Z</time></trkpt><trkpt lat="38.64705145571378" lon="16.379936933609134"><ele>549.4</ele><time>2026-04-06T08:56:47.002Z</time></trkpt><trkpt lat="38.64711681270486" lon="16.379846631633765"><ele>548.8</ele><time>2026-04-06T08:56:48.002Z</time></trkpt><trkpt lat="38.647160843924844" lon="16.379731035220864"><ele>548.2</ele><time>2026-04-06T08:56:49.002Z</time></trkpt><trkpt lat="38.647195516454666" lon="16.3796004085417"><ele>547.6</ele><time>2026-04-06T08:56:50.002Z</time></trkpt><trkpt lat="38.647232123231355" lon="16.379459367216935"><ele>547.0</ele><time>2026-04-06T08:56:51.002Z</time></trkpt><trkpt lat="38.64727611099234" lon="16.37932401802507"><ele>545.8000000000001</ele><time>2026-04-06T08:56:52.002Z</time></trkpt><trkpt lat="38.64731599953003" lon="16.379187427372614"><ele>544.6</ele><time>2026-04-06T08:56:53.002Z</time></trkpt><trkpt lat="38.64732281303243" lon="16.379036817772686"><ele>543.4000000000001</ele><time>2026-04-06T08:56:54.002Z</time></trkpt><trkpt lat="38.64732304078904" lon="16.37892270764801"><ele>542.2</ele><time>2026-04-06T08:56:55.002Z</time></trkpt><trkpt lat="38.647297126665215" lon="16.378820441059347"><ele>541.0</ele><time>2026-04-06T08:56:56.002Z</time></trkpt><trkpt lat="38.647243975202095" lon="16.37874635063312"><ele>541.0</ele><time>2026-04-06T08:56:57.002Z</time></trkpt><trkpt lat="38.64716917452132" lon="16.378695535653105"><ele>541.0</ele><time>2026-04-06T08:56:58.001Z</time></trkpt><trkpt lat="38.64709310136923" lon="16.37869494773657"><ele>541.0</ele><time>2026-04-06T08:56:59.001Z</time></trkpt><trkpt lat="38.64700951812595" lon="16.378725586784782"><ele>541.0</ele><time>2026-04-06T08:57:00.001Z</time></trkpt><trkpt lat="38.646935967582216" lon="16.378794198500927"><ele>541.0</ele><time>2026-04-06T08:57:01.001Z</time></trkpt><trkpt lat="38.64686994063699" lon="16.378879915775425"><ele>541.0</ele><time>2026-04-06T08:57:02.001Z</time></trkpt><trkpt lat="38.64678923682989" lon="16.378957323662146"><ele>541.75</ele><time>2026-04-06T08:57:03.001Z</time></trkpt><trkpt lat="38.646693170405456" lon="16.37899998711296"><ele>542.5</ele><time>2026-04-06T08:57:04.001Z</time></trkpt><trkpt lat="38.64657607827382" lon="16.37899820359278"><ele>543.25</ele><time>2026-04-06T08:57:05.001Z</time></trkpt><trkpt lat="38.64645331943596" lon="16.378959253859982"><ele>544.0</ele><time>2026-04-06T08:57:06.001Z</time></trkpt><trkpt lat="38.646321332368224" lon="16.378914925994756"><ele>544.0</ele><time>2026-04-06T08:57:07.001Z</time></trkpt><trkpt lat="38.64617299614082" lon="16.378871210096108"><ele>544.0</ele><time>2026-04-06T08:57:08.001Z</time></trkpt><trkpt lat="38.646029132759864" lon="16.378829581055918"><ele>544.0</ele><time>2026-04-06T08:57:09.001Z</time></trkpt><trkpt lat="38.64587894438251" lon="16.37877929880376"><ele>544.0</ele><time>2026-04-06T08:57:10.001Z</time></trkpt><trkpt lat="38.64572115550675" lon="16.378726108366614"><ele>544.0</ele><time>2026-04-06T08:57:11.001Z</time></trkpt><trkpt lat="38.64554704535212" lon="16.378654818032494"><ele>544.0</ele><time>2026-04-06T08:57:12.001Z</time></trkpt><trkpt lat="38.64536385954837" lon="16.37863670803822"><ele>545.0</ele><time>2026-04-06T08:57:13.001Z</time></trkpt><trkpt lat="38.6452052455769" lon="16.378491458827487"><ele>546.0</ele><time>2026-04-06T08:57:14.001Z</time></trkpt><trkpt lat="38.64502304330897" lon="16.37838811536298"><ele>547.0</ele><time>2026-04-06T08:57:15.001Z</time></trkpt><trkpt lat="38.64484422519654" lon="16.37826872348389"><ele>547.0</ele><time>2026-04-06T08:57:16.001Z</time></trkpt><trkpt lat="38.64466050008673" lon="16.37813354736333"><ele>547.0</ele><time>2026-04-06T08:57:17.001Z</time></trkpt><trkpt lat="38.64448327281625" lon="16.377982944687638"><ele>547.0</ele><time>2026-04-06T08:57:18.001Z</time></trkpt><trkpt lat="38.64431877003052" lon="16.377820524293497"><ele>548.3333333333334</ele><time>2026-04-06T08:57:19.001Z</time></trkpt><trkpt lat="38.64415377223976" lon="16.377647859614562"><ele>549.6666666666666</ele><time>2026-04-06T08:57:20.001Z</time></trkpt><trkpt lat="38.64398819011113" lon="16.37747058036445"><ele>551.0</ele><time>2026-04-06T08:57:21.001Z</time></trkpt><trkpt lat="38.64382558886262" lon="16.377290059973618"><ele>554.6666666666666</ele><time>2026-04-06T08:57:22.001Z</time></trkpt><trkpt lat="38.64366944670121" lon="16.37709268042037"><ele>558.3333333333334</ele><time>2026-04-06T08:57:23.001Z</time></trkpt><trkpt lat="38.64352564678466" lon="16.376871613201864"><ele>562.0</ele><time>2026-04-06T08:57:24.001Z</time></trkpt><trkpt lat="38.64339425017462" lon="16.376638740919372"><ele>565.0</ele><time>2026-04-06T08:57:25.001Z</time></trkpt><trkpt lat="38.643268288755664" lon="16.376400744233752"><ele>568.0</ele><time>2026-04-06T08:57:26.001Z</time></trkpt><trkpt lat="38.64315169416728" lon="16.37616514358993"><ele>571.0</ele><time>2026-04-06T08:57:27.001Z</time></trkpt><trkpt lat="38.64304220033223" lon="16.37592594070462"><ele>572.5</ele><time>2026-04-06T08:57:28.001Z</time></trkpt><trkpt lat="38.642938675418335" lon="16.37568571556761"><ele>574.0</ele><time>2026-04-06T08:57:29.001Z</time></trkpt><trkpt lat="38.64280698639422" lon="16.375392700238677"><ele>570.0</ele><time>2026-04-06T08:57:30.001Z</time></trkpt><trkpt lat="38.64269715668559" lon="16.37512978806081"><ele>566.0</ele><time>2026-04-06T08:57:31.001Z</time></trkpt><trkpt lat="38.6425826157295" lon="16.374878696921662"><ele>569.5</ele><time>2026-04-06T08:57:32.001Z</time></trkpt><trkpt lat="38.64245804739872" lon="16.37463352123916"><ele>573.0</ele><time>2026-04-06T08:57:33.001Z</time></trkpt><trkpt lat="38.642325516067615" lon="16.374392942492857"><ele>573.0</ele><time>2026-04-06T08:57:34.001Z</time></trkpt><trkpt lat="38.64218597181221" lon="16.374163293236037"><ele>573.0</ele><time>2026-04-06T08:57:35.001Z</time></trkpt><trkpt lat="38.64203507896915" lon="16.3739495331346"><ele>572.5</ele><time>2026-04-06T08:57:36.001Z</time></trkpt><trkpt lat="38.64187157140049" lon="16.373749684115563"><ele>572.0</ele><time>2026-04-06T08:57:37.001Z</time></trkpt><trkpt lat="38.641696474534925" lon="16.37356750075887"><ele>572.0</ele><time>2026-04-06T08:57:38.001Z</time></trkpt><trkpt lat="38.641513695738475" lon="16.373402002727275"><ele>572.0</ele><time>2026-04-06T08:57:39.001Z</time></trkpt><trkpt lat="38.641324152365776" lon="16.373254940992936"><ele>572.0</ele><time>2026-04-06T08:57:40.001Z</time></trkpt><trkpt lat="38.641123008393" lon="16.373128494196827"><ele>576.5</ele><time>2026-04-06T08:57:41.001Z</time></trkpt><trkpt lat="38.64091161765482" lon="16.37301936976786"><ele>581.0</ele><time>2026-04-06T08:57:42.001Z</time></trkpt><trkpt lat="38.64070002740926" lon="16.372918338987677"><ele>581.0</ele><time>2026-04-06T08:57:43.001Z</time></trkpt><trkpt lat="38.64048423054724" lon="16.37283303003533"><ele>581.0</ele><time>2026-04-06T08:57:44.001Z</time></trkpt><trkpt lat="38.64026384686802" lon="16.372758353640126"><ele>575.5</ele><time>2026-04-06T08:57:45.001Z</time></trkpt><trkpt lat="38.6400456171538" lon="16.372688168927326"><ele>570.0</ele><time>2026-04-06T08:57:46.001Z</time></trkpt><trkpt lat="38.63982535834121" lon="16.37261961424947"><ele>570.0</ele><time>2026-04-06T08:57:47.001Z</time></trkpt><trkpt lat="38.63960496909975" lon="16.372551990409885"><ele>570.0</ele><time>2026-04-06T08:57:48.001Z</time></trkpt><trkpt lat="38.63938805631217" lon="16.37248876725783"><ele>570.0</ele><time>2026-04-06T08:57:49.001Z</time></trkpt><trkpt lat="38.63916977478139" lon="16.372427127542434"><ele>574.0</ele><time>2026-04-06T08:57:50.001Z</time></trkpt><trkpt lat="38.63895196138609" lon="16.37236358976786"><ele>578.0</ele><time>2026-04-06T08:57:51.001Z</time></trkpt><trkpt lat="38.638728500668726" lon="16.372297478213106"><ele>582.0</ele><time>2026-04-06T08:57:52.001Z</time></trkpt><trkpt lat="38.63851298114145" lon="16.37223302645153"><ele>586.0</ele><time>2026-04-06T08:57:53.001Z</time></trkpt><trkpt lat="38.63829774353094" lon="16.37216752910336"><ele>590.0</ele><time>2026-04-06T08:57:54.001Z</time></trkpt><trkpt lat="38.6380825866014" lon="16.372091846543807"><ele>590.0</ele><time>2026-04-06T08:57:55.001Z</time></trkpt><trkpt lat="38.637868686528186" lon="16.372001724656734"><ele>590.0</ele><time>2026-04-06T08:57:56.001Z</time></trkpt><trkpt lat="38.63764674007295" lon="16.371902205163913"><ele>593.5</ele><time>2026-04-06T08:57:57.001Z</time></trkpt><trkpt lat="38.63742315715815" lon="16.371783494445065"><ele>597.0</ele><time>2026-04-06T08:57:58.001Z</time></trkpt><trkpt lat="38.63721212744464" lon="16.371647223992493"><ele>597.0</ele><time>2026-04-06T08:57:59.001Z</time></trkpt><trkpt lat="38.63705763633103" lon="16.37147846017581"><ele>597.0</ele><time>2026-04-06T08:58:00.001Z</time></trkpt><trkpt lat="38.63687719698752" lon="16.371296096520616"><ele>597.0</ele><time>2026-04-06T08:58:01.001Z</time></trkpt><trkpt lat="38.636703664472044" lon="16.37109299126768"><ele>604.0</ele><time>2026-04-06T08:58:02.001Z</time></trkpt><trkpt lat="38.63653580368252" lon="16.370882530055642"><ele>611.0</ele><time>2026-04-06T08:58:03.001Z</time></trkpt><trkpt lat="38.63637415665404" lon="16.370661660774342"><ele>615.0</ele><time>2026-04-06T08:58:04.001Z</time></trkpt><trkpt lat="38.63622648081395" lon="16.370436205607827"><ele>619.0</ele><time>2026-04-06T08:58:05.001Z</time></trkpt><trkpt lat="38.636086882753226" lon="16.37020304699411"><ele>619.0</ele><time>2026-04-06T08:58:06.001Z</time></trkpt><trkpt lat="38.63591237181739" lon="16.369942582430333"><ele>619.0</ele><time>2026-04-06T08:58:07.001Z</time></trkpt><trkpt lat="38.63576017994574" lon="16.36970682775872"><ele>620.5</ele><time>2026-04-06T08:58:08.001Z</time></trkpt><trkpt lat="38.63561872829021" lon="16.369478815653693"><ele>622.0</ele><time>2026-04-06T08:58:09.001Z</time></trkpt><trkpt lat="38.63547850003679" lon="16.369253451336043"><ele>622.0</ele><time>2026-04-06T08:58:10.001Z</time></trkpt><trkpt lat="38.63534090543354" lon="16.369030934001994"><ele>622.0</ele><time>2026-04-06T08:58:11.001Z</time></trkpt><trkpt lat="38.63520402266413" lon="16.36880582196579"><ele>622.0</ele><time>2026-04-06T08:58:12.021Z</time></trkpt><trkpt lat="38.635074390511214" lon="16.368586879433472"><ele>625.0</ele><time>2026-04-06T08:58:13.023Z</time></trkpt><trkpt lat="38.63494929951361" lon="16.36837285083133"><ele>628.0</ele><time>2026-04-06T08:58:14.015Z</time></trkpt><trkpt lat="38.63482081863871" lon="16.368164403873564"><ele>631.0</ele><time>2026-04-06T08:58:15.023Z</time></trkpt><trkpt lat="38.63469123281213" lon="16.367966444443507"><ele>631.0</ele><time>2026-04-06T08:58:16.016Z</time></trkpt><trkpt lat="38.63455861640275" lon="16.367776472337262"><ele>631.0</ele><time>2026-04-06T08:58:17.02Z</time></trkpt><trkpt lat="38.63442531343971" lon="16.367594004736628"><ele>631.0</ele><time>2026-04-06T08:58:18.017Z</time></trkpt><trkpt lat="38.632790520823214" lon="16.36632375420664"><ele>634.0</ele><time>2026-04-06T08:58:25.001Z</time></trkpt><trkpt lat="38.632592738921055" lon="16.36616408120905"><ele>637.0</ele><time>2026-04-06T08:58:26.001Z</time></trkpt><trkpt lat="38.63228250546482" lon="16.36629651103533"><ele>637.0</ele><time>2026-04-06T08:58:27.001Z</time></trkpt><trkpt lat="38.632042887625516" lon="16.366270828409313"><ele>637.0</ele><time>2026-04-06T08:58:28.001Z</time></trkpt><trkpt lat="38.631792974981096" lon="16.366279362603194"><ele>637.5</ele><time>2026-04-06T08:58:29.001Z</time></trkpt><trkpt lat="38.63154648724893" lon="16.366317228901472"><ele>638.0</ele><time>2026-04-06T08:58:30.001Z</time></trkpt><trkpt lat="38.63130463227414" lon="16.366378456420854"><ele>640.0</ele><time>2026-04-06T08:58:31.001Z</time></trkpt><trkpt lat="38.6310722329051" lon="16.366469350383497"><ele>642.0</ele><time>2026-04-06T08:58:32.001Z</time></trkpt><trkpt lat="38.630843278478174" lon="16.366585622721136"><ele>642.0</ele><time>2026-04-06T08:58:33.001Z</time></trkpt><trkpt lat="38.63062653095423" lon="16.366712871334204"><ele>642.0</ele><time>2026-04-06T08:58:34.001Z</time></trkpt><trkpt lat="38.63040828345678" lon="16.366865318266267"><ele>644.0</ele><time>2026-04-06T08:58:35.001Z</time></trkpt><trkpt lat="38.630207213432016" lon="16.367038071800202"><ele>646.0</ele><time>2026-04-06T08:58:36.001Z</time></trkpt><trkpt lat="38.6300148622687" lon="16.367237702517293"><ele>646.0</ele><time>2026-04-06T08:58:37.001Z</time></trkpt><trkpt lat="38.62983220585976" lon="16.367460803582063"><ele>646.0</ele><time>2026-04-06T08:58:38.001Z</time></trkpt><trkpt lat="38.62962990913995" lon="16.367690774903934"><ele>646.0</ele><time>2026-04-06T08:58:39.001Z</time></trkpt><trkpt lat="38.629449192615986" lon="16.367926032332402"><ele>646.0</ele><time>2026-04-06T08:58:40.001Z</time></trkpt><trkpt lat="38.629269432014965" lon="16.368166632315422"><ele>647.0</ele><time>2026-04-06T08:58:41.001Z</time></trkpt><trkpt lat="38.629097486885364" lon="16.3684103994136"><ele>648.0</ele><time>2026-04-06T08:58:42.001Z</time></trkpt><trkpt lat="38.62893394968448" lon="16.368648715807076"><ele>648.5</ele><time>2026-04-06T08:58:43.001Z</time></trkpt><trkpt lat="38.62876382308128" lon="16.36889179310467"><ele>649.0</ele><time>2026-04-06T08:58:44.001Z</time></trkpt><trkpt lat="38.62859811903107" lon="16.369132162454857"><ele>650.5</ele><time>2026-04-06T08:58:45.001Z</time></trkpt><trkpt lat="38.62842989493467" lon="16.36937270685591"><ele>652.0</ele><time>2026-04-06T08:58:46.001Z</time></trkpt><trkpt lat="38.628258489700904" lon="16.369616421299266"><ele>656.0</ele><time>2026-04-06T08:58:47.001Z</time></trkpt><trkpt lat="38.6280851122855" lon="16.36985678739095"><ele>660.0</ele><time>2026-04-06T08:58:48.001Z</time></trkpt><trkpt lat="38.62790677451257" lon="16.370100905222287"><ele>659.0</ele><time>2026-04-06T08:58:49.001Z</time></trkpt><trkpt lat="38.62773339643081" lon="16.37034146793121"><ele>658.0</ele><time>2026-04-06T08:58:50.001Z</time></trkpt><trkpt lat="38.62756163754752" lon="16.37058860334434"><ele>663.5</ele><time>2026-04-06T08:58:51.001Z</time></trkpt><trkpt lat="38.627393038460774" lon="16.370819020704573"><ele>669.0</ele><time>2026-04-06T08:58:52.001Z</time></trkpt><trkpt lat="38.627217223833775" lon="16.371043134530918"><ele>669.0</ele><time>2026-04-06T08:58:53.001Z</time></trkpt><trkpt lat="38.627030499185395" lon="16.37125679567907"><ele>669.0</ele><time>2026-04-06T08:58:54.001Z</time></trkpt><trkpt lat="38.62683136686793" lon="16.37145484704306"><ele>671.5</ele><time>2026-04-06T08:58:55.001Z</time></trkpt><trkpt lat="38.62662512674855" lon="16.37163567653949"><ele>674.0</ele><time>2026-04-06T08:58:56.001Z</time></trkpt><trkpt lat="38.62641199949748" lon="16.371804255263427"><ele>674.0</ele><time>2026-04-06T08:58:57.001Z</time></trkpt><trkpt lat="38.62619471882705" lon="16.371964620185555"><ele>674.0</ele><time>2026-04-06T08:58:58.001Z</time></trkpt><trkpt lat="38.62597116785542" lon="16.372115351109787"><ele>675.0</ele><time>2026-04-06T08:58:59.001Z</time></trkpt><trkpt lat="38.625751703596926" lon="16.372268186608146"><ele>676.0</ele><time>2026-04-06T08:59:00.001Z</time></trkpt><trkpt lat="38.62553201632606" lon="16.372417687750723"><ele>676.0</ele><time>2026-04-06T08:59:01.001Z</time></trkpt><trkpt lat="38.62531937725532" lon="16.372562608139905"><ele>676.0</ele><time>2026-04-06T08:59:02.002Z</time></trkpt><trkpt lat="38.625109099065206" lon="16.372703401770362"><ele>683.5</ele><time>2026-04-06T08:59:03.002Z</time></trkpt><trkpt lat="38.624858634430936" lon="16.372860918340304"><ele>691.0</ele><time>2026-04-06T08:59:04.001Z</time></trkpt><trkpt lat="38.62461185840662" lon="16.37301786558111"><ele>699.5</ele><time>2026-04-06T08:59:05.001Z</time></trkpt><trkpt lat="38.62439197121504" lon="16.373161575607284"><ele>708.0</ele><time>2026-04-06T08:59:06.001Z</time></trkpt><trkpt lat="38.62417168151837" lon="16.373308466153265"><ele>708.0</ele><time>2026-04-06T08:59:07.001Z</time></trkpt><trkpt lat="38.62392873995308" lon="16.37345666353415"><ele>708.0</ele><time>2026-04-06T08:59:08.001Z</time></trkpt><trkpt lat="38.62369847498678" lon="16.37358826588339"><ele>718.0</ele><time>2026-04-06T08:59:09.001Z</time></trkpt><trkpt lat="38.62345715432831" lon="16.373708025014043"><ele>728.0</ele><time>2026-04-06T08:59:10.019Z</time></trkpt><trkpt lat="38.62321141055" lon="16.373814373769235"><ele>725.5</ele><time>2026-04-06T08:59:11.014Z</time></trkpt><trkpt lat="38.62296080246341" lon="16.373905844357854"><ele>723.0</ele><time>2026-04-06T08:59:12.018Z</time></trkpt><trkpt lat="38.62275625188745" lon="16.373974457539653"><ele>722.5</ele><time>2026-04-06T08:59:13.021Z</time></trkpt><trkpt lat="38.62257650044847" lon="16.374034550802556"><ele>722.0</ele><time>2026-04-06T08:59:14.017Z</time></trkpt><trkpt lat="38.62133308783045" lon="16.37401842513715"><ele>717.0</ele><time>2026-04-06T08:59:18Z</time></trkpt><trkpt lat="38.621066378562986" lon="16.373989148542627"><ele>712.0</ele><time>2026-04-06T08:59:19Z</time></trkpt><trkpt lat="38.62081205708108" lon="16.373905043031876"><ele>716.0</ele><time>2026-04-06T08:59:20Z</time></trkpt><trkpt lat="38.62056227285173" lon="16.373815372230343"><ele>720.0</ele><time>2026-04-06T08:59:21Z</time></trkpt><trkpt lat="38.620315143053844" lon="16.37373641447663"><ele>720.0</ele><time>2026-04-06T08:59:22Z</time></trkpt><trkpt lat="38.62008671515743" lon="16.373578036218454"><ele>720.0</ele><time>2026-04-06T08:59:23Z</time></trkpt><trkpt lat="38.61984973679585" lon="16.373462061525522"><ele>720.0</ele><time>2026-04-06T08:59:24Z</time></trkpt><trkpt lat="38.61962655270512" lon="16.37329942253372"><ele>720.0</ele><time>2026-04-06T08:59:25Z</time></trkpt><trkpt lat="38.61941394816353" lon="16.37314455110516"><ele>727.0</ele><time>2026-04-06T08:59:26Z</time></trkpt><trkpt lat="38.61921057727261" lon="16.372923059388643"><ele>734.0</ele><time>2026-04-06T08:59:27Z</time></trkpt><trkpt lat="38.61898336047581" lon="16.372725464025773"><ele>734.0</ele><time>2026-04-06T08:59:28Z</time></trkpt><trkpt lat="38.618789588141375" lon="16.37249836748546"><ele>734.0</ele><time>2026-04-06T08:59:29Z</time></trkpt><trkpt lat="38.61860095098886" lon="16.372260875278638"><ele>736.0</ele><time>2026-04-06T08:59:30Z</time></trkpt><trkpt lat="38.61840706262735" lon="16.37200054593123"><ele>738.0</ele><time>2026-04-06T08:59:31Z</time></trkpt><trkpt lat="38.61821198379617" lon="16.371755707683135"><ele>738.0</ele><time>2026-04-06T08:59:32Z</time></trkpt><trkpt lat="38.618040146327395" lon="16.371480186804025"><ele>738.0</ele><time>2026-04-06T08:59:33Z</time></trkpt><trkpt lat="38.61785070298761" lon="16.37120987070749"><ele>741.0</ele><time>2026-04-06T08:59:34Z</time></trkpt><trkpt lat="38.6176441054838" lon="16.370927528007996"><ele>744.0</ele><time>2026-04-06T08:59:35Z</time></trkpt><trkpt lat="38.61745311687292" lon="16.370650936959716"><ele>748.5</ele><time>2026-04-06T08:59:36.001Z</time></trkpt><trkpt lat="38.61725642462424" lon="16.37037052483335"><ele>753.0</ele><time>2026-04-06T08:59:37.001Z</time></trkpt><trkpt lat="38.61706583480562" lon="16.370101725512214"><ele>754.5</ele><time>2026-04-06T08:59:38.001Z</time></trkpt><trkpt lat="38.61688793060328" lon="16.369847118504772"><ele>756.0</ele><time>2026-04-06T08:59:39.001Z</time></trkpt><trkpt lat="38.61671300766715" lon="16.369590086661837"><ele>756.0</ele><time>2026-04-06T08:59:40.001Z</time></trkpt><trkpt lat="38.616558609035984" lon="16.369309149678266"><ele>756.0</ele><time>2026-04-06T08:59:41.001Z</time></trkpt><trkpt lat="38.616407012738954" lon="16.3690237522942"><ele>756.5</ele><time>2026-04-06T08:59:42.001Z</time></trkpt><trkpt lat="38.61626981059079" lon="16.368735759404576"><ele>757.0</ele><time>2026-04-06T08:59:43.001Z</time></trkpt><trkpt lat="38.61613453268987" lon="16.36844059755484"><ele>757.0</ele><time>2026-04-06T08:59:44.001Z</time></trkpt><trkpt lat="38.61602235027055" lon="16.368111330656788"><ele>757.0</ele><time>2026-04-06T08:59:45.001Z</time></trkpt><trkpt lat="38.61591998260839" lon="16.367776688926256"><ele>758.0</ele><time>2026-04-06T08:59:46.001Z</time></trkpt><trkpt lat="38.6158588702869" lon="16.367440946329193"><ele>759.0</ele><time>2026-04-06T08:59:47.001Z</time></trkpt><trkpt lat="38.61578671910943" lon="16.367079578272616"><ele>759.0</ele><time>2026-04-06T08:59:48.001Z</time></trkpt><trkpt lat="38.6157352186209" lon="16.366711221885037"><ele>759.0</ele><time>2026-04-06T08:59:49.001Z</time></trkpt><trkpt lat="38.615693558237105" lon="16.36633249779876"><ele>756.0</ele><time>2026-04-06T08:59:50.001Z</time></trkpt><trkpt lat="38.615665155362805" lon="16.365961232998266"><ele>753.0</ele><time>2026-04-06T08:59:51.001Z</time></trkpt><trkpt lat="38.61565875888769" lon="16.365599650790887"><ele>751.5</ele><time>2026-04-06T08:59:52.001Z</time></trkpt><trkpt lat="38.615646135803296" lon="16.365222322097665"><ele>750.0</ele><time>2026-04-06T08:59:53.001Z</time></trkpt><trkpt lat="38.61564314652951" lon="16.364848404124963"><ele>751.5</ele><time>2026-04-06T08:59:54.001Z</time></trkpt><trkpt lat="38.61563314484714" lon="16.364464029040455"><ele>753.0</ele><time>2026-04-06T08:59:55.001Z</time></trkpt><trkpt lat="38.615622330681305" lon="16.364094098091087"><ele>755.0</ele><time>2026-04-06T08:59:56.001Z</time></trkpt><trkpt lat="38.615611723833844" lon="16.363720185269802"><ele>757.0</ele><time>2026-04-06T08:59:57.001Z</time></trkpt><trkpt lat="38.615603766533866" lon="16.363344967744617"><ele>758.5</ele><time>2026-04-06T08:59:58.001Z</time></trkpt><trkpt lat="38.61560332373136" lon="16.362953012826388"><ele>760.0</ele><time>2026-04-06T08:59:59.001Z</time></trkpt><trkpt lat="38.61558473001908" lon="16.3625912133939"><ele>760.0</ele><time>2026-04-06T09:00:00.001Z</time></trkpt><trkpt lat="38.61557959681688" lon="16.362223489808656"><ele>760.0</ele><time>2026-04-06T09:00:01.001Z</time></trkpt><trkpt lat="38.615567701874696" lon="16.361855349918624"><ele>759.5</ele><time>2026-04-06T09:00:02.001Z</time></trkpt><trkpt lat="38.61555323234634" lon="16.361481257663105"><ele>759.0</ele><time>2026-04-06T09:00:03.001Z</time></trkpt><trkpt lat="38.61553563393132" lon="16.361114851605766"><ele>758.0</ele><time>2026-04-06T09:00:04.001Z</time></trkpt><trkpt lat="38.61551084769497" lon="16.360748210667975"><ele>757.0</ele><time>2026-04-06T09:00:05.001Z</time></trkpt><trkpt lat="38.615473590269545" lon="16.360379852775782"><ele>756.0</ele><time>2026-04-06T09:00:06.001Z</time></trkpt><trkpt lat="38.61543412888826" lon="16.360014240496508"><ele>755.0</ele><time>2026-04-06T09:00:07.001Z</time></trkpt><trkpt lat="38.615384111669535" lon="16.359656515786956"><ele>755.0</ele><time>2026-04-06T09:00:08.001Z</time></trkpt><trkpt lat="38.6153293682184" lon="16.359288074555938"><ele>755.0</ele><time>2026-04-06T09:00:09.001Z</time></trkpt><trkpt lat="38.61526417873937" lon="16.35893130165827"><ele>754.5</ele><time>2026-04-06T09:00:10.001Z</time></trkpt><trkpt lat="38.615197550672406" lon="16.35858200836295"><ele>754.0</ele><time>2026-04-06T09:00:11.001Z</time></trkpt><trkpt lat="38.6151266491416" lon="16.358226905847697"><ele>755.0</ele><time>2026-04-06T09:00:12.001Z</time></trkpt><trkpt lat="38.61506136312611" lon="16.35787814292366"><ele>756.0</ele><time>2026-04-06T09:00:13.001Z</time></trkpt><trkpt lat="38.6149939701925" lon="16.35752627548316"><ele>757.0</ele><time>2026-04-06T09:00:14.001Z</time></trkpt><trkpt lat="38.61492145085534" lon="16.357184271888208"><ele>758.0</ele><time>2026-04-06T09:00:15.001Z</time></trkpt><trkpt lat="38.61484920817251" lon="16.356813888638865"><ele>758.0</ele><time>2026-04-06T09:00:16.001Z</time></trkpt><trkpt lat="38.614771902359074" lon="16.356449477972372"><ele>758.0</ele><time>2026-04-06T09:00:17.001Z</time></trkpt><trkpt lat="38.61470392443587" lon="16.356081140299363"><ele>759.5</ele><time>2026-04-06T09:00:18.001Z</time></trkpt><trkpt lat="38.61463872903351" lon="16.355709641369586"><ele>761.0</ele><time>2026-04-06T09:00:19.001Z</time></trkpt><trkpt lat="38.614581005859165" lon="16.355341379175943"><ele>762.5</ele><time>2026-04-06T09:00:20.001Z</time></trkpt><trkpt lat="38.614521501530895" lon="16.354955564289295"><ele>764.0</ele><time>2026-04-06T09:00:21.001Z</time></trkpt><trkpt lat="38.61448387493487" lon="16.35456813116132"><ele>768.5</ele><time>2026-04-06T09:00:22.001Z</time></trkpt><trkpt lat="38.61445960472248" lon="16.354156057123024"><ele>773.0</ele><time>2026-04-06T09:00:23.001Z</time></trkpt><trkpt lat="38.61444622298016" lon="16.35375542228013"><ele>773.5</ele><time>2026-04-06T09:00:24.001Z</time></trkpt><trkpt lat="38.614439450903774" lon="16.353346964028347"><ele>774.0</ele><time>2026-04-06T09:00:25.001Z</time></trkpt><trkpt lat="38.614435423584496" lon="16.352940670135716"><ele>774.0</ele><time>2026-04-06T09:00:26.001Z</time></trkpt><trkpt lat="38.614449290854324" lon="16.35254095724749"><ele>774.0</ele><time>2026-04-06T09:00:27.001Z</time></trkpt><trkpt lat="38.614459054363564" lon="16.352149968860527"><ele>774.0</ele><time>2026-04-06T09:00:28.001Z</time></trkpt><trkpt lat="38.61447250428937" lon="16.351745594305147"><ele>774.0</ele><time>2026-04-06T09:00:29.001Z</time></trkpt><trkpt lat="38.61448019175309" lon="16.35134106925625"><ele>772.0</ele><time>2026-04-06T09:00:30.001Z</time></trkpt><trkpt lat="38.6144778567577" lon="16.35097673564207"><ele>770.0</ele><time>2026-04-06T09:00:31.001Z</time></trkpt><trkpt lat="38.614492369686495" lon="16.350606421687367"><ele>761.5</ele><time>2026-04-06T09:00:32.001Z</time></trkpt><trkpt lat="38.61450818870265" lon="16.35022730182704"><ele>753.0</ele><time>2026-04-06T09:00:33.001Z</time></trkpt><trkpt lat="38.61452662429837" lon="16.349863481701306"><ele>755.5</ele><time>2026-04-06T09:00:34.001Z</time></trkpt><trkpt lat="38.61455199984898" lon="16.349471948876268"><ele>758.0</ele><time>2026-04-06T09:00:35.001Z</time></trkpt><trkpt lat="38.61453910031142" lon="16.349107246010526"><ele>760.5</ele><time>2026-04-06T09:00:36.001Z</time></trkpt><trkpt lat="38.61454194701513" lon="16.34874537294473"><ele>763.0</ele><time>2026-04-06T09:00:37.001Z</time></trkpt><trkpt lat="38.614533143563435" lon="16.34837729154927"><ele>761.0</ele><time>2026-04-06T09:00:38.001Z</time></trkpt><trkpt lat="38.61454030389672" lon="16.347997538471855"><ele>759.0</ele><time>2026-04-06T09:00:39.001Z</time></trkpt><trkpt lat="38.61452219464256" lon="16.34763260284026"><ele>759.0</ele><time>2026-04-06T09:00:40.001Z</time></trkpt><trkpt lat="38.61449409423026" lon="16.347275790797383"><ele>759.0</ele><time>2026-04-06T09:00:41.001Z</time></trkpt><trkpt lat="38.61446215741474" lon="16.34689285912873"><ele>764.0</ele><time>2026-04-06T09:00:42.001Z</time></trkpt><trkpt lat="38.6144238505997" lon="16.346525311452105"><ele>769.0</ele><time>2026-04-06T09:00:43.001Z</time></trkpt><trkpt lat="38.61439310398712" lon="16.346134904930192"><ele>769.0</ele><time>2026-04-06T09:00:44.001Z</time></trkpt><trkpt lat="38.61434439873408" lon="16.345772028748584"><ele>769.0</ele><time>2026-04-06T09:00:45.001Z</time></trkpt><trkpt lat="38.614309101725745" lon="16.34539768698751"><ele>768.0</ele><time>2026-04-06T09:00:46.001Z</time></trkpt><trkpt lat="38.61426540979487" lon="16.34501241753605"><ele>767.0</ele><time>2026-04-06T09:00:47.001Z</time></trkpt><trkpt lat="38.61421965949274" lon="16.344632508346407"><ele>767.0</ele><time>2026-04-06T09:00:48.001Z</time></trkpt><trkpt lat="38.6141799223162" lon="16.344229383702576"><ele>767.0</ele><time>2026-04-06T09:00:49.001Z</time></trkpt><trkpt lat="38.61414978299338" lon="16.34382435784735"><ele>766.0</ele><time>2026-04-06T09:00:50.001Z</time></trkpt><trkpt lat="38.614127097339974" lon="16.34342023254419"><ele>765.0</ele><time>2026-04-06T09:00:51.001Z</time></trkpt><trkpt lat="38.61410886189651" lon="16.343017030342047"><ele>765.0</ele><time>2026-04-06T09:00:52.001Z</time></trkpt><trkpt lat="38.61409711427886" lon="16.34260636736505"><ele>765.0</ele><time>2026-04-06T09:00:53.001Z</time></trkpt><trkpt lat="38.614127615312235" lon="16.342208632155007"><ele>769.5</ele><time>2026-04-06T09:00:54.001Z</time></trkpt><trkpt lat="38.61417514006925" lon="16.34181025758174"><ele>774.0</ele><time>2026-04-06T09:00:55.001Z</time></trkpt><trkpt lat="38.61424412852663" lon="16.341423473604422"><ele>776.5</ele><time>2026-04-06T09:00:56.001Z</time></trkpt><trkpt lat="38.614336973195904" lon="16.34104053368115"><ele>779.0</ele><time>2026-04-06T09:00:57.001Z</time></trkpt><trkpt lat="38.61444628557504" lon="16.340664655328798"><ele>781.5</ele><time>2026-04-06T09:00:58.001Z</time></trkpt><trkpt lat="38.614570879458626" lon="16.34029948057157"><ele>784.0</ele><time>2026-04-06T09:00:59.001Z</time></trkpt><trkpt lat="38.61471326811208" lon="16.339948358264884"><ele>785.0</ele><time>2026-04-06T09:01:00.001Z</time></trkpt><trkpt lat="38.614878331835705" lon="16.339612904389593"><ele>786.0</ele><time>2026-04-06T09:01:01.001Z</time></trkpt><trkpt lat="38.61505835712964" lon="16.339290711525724"><ele>786.0</ele><time>2026-04-06T09:01:02.001Z</time></trkpt><trkpt lat="38.61525280017516" lon="16.338982598456877"><ele>786.0</ele><time>2026-04-06T09:01:03.001Z</time></trkpt><trkpt lat="38.61545155352926" lon="16.338685039244258"><ele>786.5</ele><time>2026-04-06T09:01:04.001Z</time></trkpt><trkpt lat="38.61567683447347" lon="16.33841755928524"><ele>787.0</ele><time>2026-04-06T09:01:05.001Z</time></trkpt><trkpt lat="38.61589625411933" lon="16.33814118177485"><ele>788.0</ele><time>2026-04-06T09:01:06.001Z</time></trkpt><trkpt lat="38.616118701243806" lon="16.337861183278623"><ele>789.0</ele><time>2026-04-06T09:01:07.001Z</time></trkpt><trkpt lat="38.61635065516654" lon="16.337552769363977"><ele>785.0</ele><time>2026-04-06T09:01:08.001Z</time></trkpt><trkpt lat="38.61656546081958" lon="16.33728732983711"><ele>781.0</ele><time>2026-04-06T09:01:09.001Z</time></trkpt><trkpt lat="38.61679702103321" lon="16.337018519448563"><ele>774.0</ele><time>2026-04-06T09:01:10.001Z</time></trkpt><trkpt lat="38.61702433670277" lon="16.336738524678054"><ele>767.0</ele><time>2026-04-06T09:01:11.001Z</time></trkpt><trkpt lat="38.617247356650005" lon="16.336463047387596"><ele>766.5</ele><time>2026-04-06T09:01:12.001Z</time></trkpt><trkpt lat="38.617465933606624" lon="16.336186628163425"><ele>766.0</ele><time>2026-04-06T09:01:13Z</time></trkpt><trkpt lat="38.61769193357975" lon="16.335916206787466"><ele>768.0</ele><time>2026-04-06T09:01:14Z</time></trkpt><trkpt lat="38.61791985532227" lon="16.335643202794827"><ele>770.0</ele><time>2026-04-06T09:01:15Z</time></trkpt><trkpt lat="38.61813751832072" lon="16.33537445135052"><ele>772.0</ele><time>2026-04-06T09:01:16Z</time></trkpt><trkpt lat="38.618361724642675" lon="16.33510414668543"><ele>774.0</ele><time>2026-04-06T09:01:17Z</time></trkpt><trkpt lat="38.61858244199327" lon="16.334839096933905"><ele>782.5</ele><time>2026-04-06T09:01:18Z</time></trkpt><trkpt lat="38.61879777490849" lon="16.334575901922673"><ele>791.0</ele><time>2026-04-06T09:01:19Z</time></trkpt><trkpt lat="38.619018568606705" lon="16.334300079333588"><ele>791.0</ele><time>2026-04-06T09:01:20Z</time></trkpt><trkpt lat="38.61922519038926" lon="16.334041796137793"><ele>791.0</ele><time>2026-04-06T09:01:21Z</time></trkpt><trkpt lat="38.619440578742825" lon="16.33381066412523"><ele>800.0</ele><time>2026-04-06T09:01:22Z</time></trkpt><trkpt lat="38.61964562235992" lon="16.333576639982986"><ele>809.0</ele><time>2026-04-06T09:01:23Z</time></trkpt><trkpt lat="38.619861266120466" lon="16.333341462058897"><ele>809.0</ele><time>2026-04-06T09:01:24.02Z</time></trkpt><trkpt lat="38.620078911465086" lon="16.33311823703869"><ele>809.0</ele><time>2026-04-06T09:01:25.02Z</time></trkpt><trkpt lat="38.62030169445974" lon="16.33290504559136"><ele>814.0</ele><time>2026-04-06T09:01:26.015Z</time></trkpt><trkpt lat="38.62052167923968" lon="16.332710454527998"><ele>819.0</ele><time>2026-04-06T09:01:27.016Z</time></trkpt><trkpt lat="38.62241950821003" lon="16.331452606261085"><ele>806.0</ele><time>2026-04-06T09:01:34Z</time></trkpt><trkpt lat="38.62266619661814" lon="16.331324608213272"><ele>793.0</ele><time>2026-04-06T09:01:35Z</time></trkpt><trkpt lat="38.622908944819876" lon="16.331229483478474"><ele>792.0</ele><time>2026-04-06T09:01:36Z</time></trkpt><trkpt lat="38.623110469374815" lon="16.33114603574176"><ele>791.0</ele><time>2026-04-06T09:01:37Z</time></trkpt><trkpt lat="38.623293842310076" lon="16.33105766054884"><ele>790.0</ele><time>2026-04-06T09:01:38Z</time></trkpt><trkpt lat="38.62345586064912" lon="16.330986129984627"><ele>790.0</ele><time>2026-04-06T09:01:39Z</time></trkpt><trkpt lat="38.623598641296105" lon="16.33090684262997"><ele>790.0</ele><time>2026-04-06T09:01:40Z</time></trkpt><trkpt lat="38.62373765091447" lon="16.33083956486189"><ele>790.0</ele><time>2026-04-06T09:01:41Z</time></trkpt><trkpt lat="38.62387322035722" lon="16.33078500109793"><ele>790.0</ele><time>2026-04-06T09:01:42Z</time></trkpt><trkpt lat="38.62401401233825" lon="16.33073984069669"><ele>792.0</ele><time>2026-04-06T09:01:43Z</time></trkpt><trkpt lat="38.6241818022574" lon="16.33069267513124"><ele>794.0</ele><time>2026-04-06T09:01:44Z</time></trkpt><trkpt lat="38.624340115530295" lon="16.33063771611139"><ele>796.0</ele><time>2026-04-06T09:01:45Z</time></trkpt><trkpt lat="38.624478331164035" lon="16.330598288063687"><ele>795.3333333333333</ele><time>2026-04-06T09:01:46Z</time></trkpt><trkpt lat="38.624639653906144" lon="16.330545062103365"><ele>794.6666666666667</ele><time>2026-04-06T09:01:47Z</time></trkpt><trkpt lat="38.62478712274527" lon="16.330497967053983"><ele>794.0</ele><time>2026-04-06T09:01:48Z</time></trkpt><trkpt lat="38.624929477607985" lon="16.33045258907822"><ele>794.0</ele><time>2026-04-06T09:01:49Z</time></trkpt><trkpt lat="38.625063680519716" lon="16.330418178527733"><ele>794.0</ele><time>2026-04-06T09:01:50Z</time></trkpt><trkpt lat="38.62517648164306" lon="16.330380120194516"><ele>794.0</ele><time>2026-04-06T09:01:51Z</time></trkpt><trkpt lat="38.62526787697602" lon="16.33035356722064"><ele>794.0</ele><time>2026-04-06T09:01:52Z</time></trkpt><trkpt lat="38.62536579300879" lon="16.33030827103944"><ele>794.2</ele><time>2026-04-06T09:01:53Z</time></trkpt><trkpt lat="38.625440948927796" lon="16.33028069785113"><ele>794.4000000000001</ele><time>2026-04-06T09:01:54Z</time></trkpt><trkpt lat="38.62553337373309" lon="16.330241755868837"><ele>794.6</ele><time>2026-04-06T09:01:55Z</time></trkpt><trkpt lat="38.62562477375438" lon="16.330169097095055"><ele>794.8</ele><time>2026-04-06T09:01:56Z</time></trkpt><trkpt lat="38.625691485096254" lon="16.33005818757813"><ele>795.0</ele><time>2026-04-06T09:01:57Z</time></trkpt><trkpt lat="38.62575609011546" lon="16.329954592654836"><ele>795.0</ele><time>2026-04-06T09:01:58Z</time></trkpt><trkpt lat="38.62576297785174" lon="16.329777621925142"><ele>795.0</ele><time>2026-04-06T09:01:59Z</time></trkpt><trkpt lat="38.62575656951847" lon="16.329622968801242"><ele>795.0</ele><time>2026-04-06T09:02:00Z</time></trkpt><trkpt lat="38.62570997809113" lon="16.329470773600594"><ele>795.0</ele><time>2026-04-06T09:02:01Z</time></trkpt><trkpt lat="38.625621222955864" lon="16.329349649235247"><ele>794.75</ele><time>2026-04-06T09:02:02Z</time></trkpt><trkpt lat="38.62553963231916" lon="16.32927542896851"><ele>794.5</ele><time>2026-04-06T09:02:03Z</time></trkpt><trkpt lat="38.62543198373383" lon="16.3292075333252"><ele>794.25</ele><time>2026-04-06T09:02:04Z</time></trkpt><trkpt lat="38.625307386712265" lon="16.329160738271998"><ele>794.0</ele><time>2026-04-06T09:02:05Z</time></trkpt><trkpt lat="38.62515871068135" lon="16.32913793365514"><ele>792.6666666666667</ele><time>2026-04-06T09:02:06Z</time></trkpt><trkpt lat="38.62500102943198" lon="16.32912737846217"><ele>791.3333333333333</ele><time>2026-04-06T09:02:07.001Z</time></trkpt><trkpt lat="38.62483290944828" lon="16.329112478420043"><ele>790.0</ele><time>2026-04-06T09:02:08.001Z</time></trkpt><trkpt lat="38.62465902391195" lon="16.329123929191482"><ele>790.0</ele><time>2026-04-06T09:02:09.001Z</time></trkpt><trkpt lat="38.62448541068759" lon="16.3291763764966"><ele>790.0</ele><time>2026-04-06T09:02:10.001Z</time></trkpt><trkpt lat="38.62430752091253" lon="16.329262501363292"><ele>790.0</ele><time>2026-04-06T09:02:11.001Z</time></trkpt><trkpt lat="38.62413243019266" lon="16.32937394625766"><ele>788.0</ele><time>2026-04-06T09:02:12.001Z</time></trkpt><trkpt lat="38.6239640689035" lon="16.329521151872054"><ele>786.0</ele><time>2026-04-06T09:02:13.001Z</time></trkpt><trkpt lat="38.623792139054906" lon="16.329683307943718"><ele>784.0</ele><time>2026-04-06T09:02:14.001Z</time></trkpt><trkpt lat="38.62361430677703" lon="16.329843586117985"><ele>784.0</ele><time>2026-04-06T09:02:15.001Z</time></trkpt><trkpt lat="38.62343118288747" lon="16.32999198522256"><ele>784.0</ele><time>2026-04-06T09:02:16.001Z</time></trkpt><trkpt lat="38.623231479906394" lon="16.330126787897633"><ele>784.0</ele><time>2026-04-06T09:02:17.001Z</time></trkpt><trkpt lat="38.62301942027137" lon="16.330237264071318"><ele>786.5</ele><time>2026-04-06T09:02:18.001Z</time></trkpt><trkpt lat="38.62279243216508" lon="16.330319389975383"><ele>789.0</ele><time>2026-04-06T09:02:19.001Z</time></trkpt><trkpt lat="38.62255826601496" lon="16.330376535786705"><ele>789.0</ele><time>2026-04-06T09:02:20.001Z</time></trkpt><trkpt lat="38.62231253969486" lon="16.330413512169766"><ele>789.0</ele><time>2026-04-06T09:02:21.001Z</time></trkpt><trkpt lat="38.622067751259976" lon="16.33042923881404"><ele>792.5</ele><time>2026-04-06T09:02:22.001Z</time></trkpt><trkpt lat="38.621820996981874" lon="16.330413427908457"><ele>796.0</ele><time>2026-04-06T09:02:23.001Z</time></trkpt><trkpt lat="38.62156860951774" lon="16.33039090152621"><ele>796.0</ele><time>2026-04-06T09:02:24.001Z</time></trkpt><trkpt lat="38.62132103732518" lon="16.330369867734433"><ele>796.0</ele><time>2026-04-06T09:02:25.001Z</time></trkpt><trkpt lat="38.62107447379642" lon="16.33034992573662"><ele>800.5</ele><time>2026-04-06T09:02:26.001Z</time></trkpt><trkpt lat="38.62082414088469" lon="16.330330876809388"><ele>805.0</ele><time>2026-04-06T09:02:27.001Z</time></trkpt><trkpt lat="38.62055995557569" lon="16.330297654644593"><ele>806.5</ele><time>2026-04-06T09:02:28.001Z</time></trkpt><trkpt lat="38.620279575484986" lon="16.330248003835678"><ele>808.0</ele><time>2026-04-06T09:02:29.018Z</time></trkpt><trkpt lat="38.61999276369061" lon="16.330171233217197"><ele>808.0</ele><time>2026-04-06T09:02:30.017Z</time></trkpt><trkpt lat="38.61970532145317" lon="16.330044702170344"><ele>808.0</ele><time>2026-04-06T09:02:31.021Z</time></trkpt><trkpt lat="38.61942248934379" lon="16.329890254018622"><ele>806.5</ele><time>2026-04-06T09:02:32.001Z</time></trkpt><trkpt lat="38.61917590593988" lon="16.329722690244598"><ele>805.0</ele><time>2026-04-06T09:02:34.001Z</time></trkpt><trkpt lat="38.618940445877364" lon="16.329527680802332"><ele>805.0</ele><time>2026-04-06T09:02:35.001Z</time></trkpt><trkpt lat="38.61869527600224" lon="16.329294622532778"><ele>805.0</ele><time>2026-04-06T09:02:36.001Z</time></trkpt><trkpt lat="38.61849483926348" lon="16.32909180893809"><ele>801.5</ele><time>2026-04-06T09:02:37.001Z</time></trkpt><trkpt lat="38.61830677611197" lon="16.32883516861096"><ele>798.0</ele><time>2026-04-06T09:02:38.001Z</time></trkpt><trkpt lat="38.618116712478646" lon="16.328594363087586"><ele>798.0</ele><time>2026-04-06T09:02:39.001Z</time></trkpt><trkpt lat="38.6179243183508" lon="16.328349285584437"><ele>798.0</ele><time>2026-04-06T09:02:40.001Z</time></trkpt><trkpt lat="38.61772958582251" lon="16.32810064358689"><ele>794.0</ele><time>2026-04-06T09:02:41.001Z</time></trkpt><trkpt lat="38.617534664635116" lon="16.3278517610401"><ele>790.0</ele><time>2026-04-06T09:02:42.001Z</time></trkpt><trkpt lat="38.61734630301842" lon="16.327611253923358"><ele>790.0</ele><time>2026-04-06T09:02:43.001Z</time></trkpt><trkpt lat="38.61715145155962" lon="16.327389518120007"><ele>790.0</ele><time>2026-04-06T09:02:44.001Z</time></trkpt><trkpt lat="38.616977728939816" lon="16.327156920308756"><ele>785.5</ele><time>2026-04-06T09:02:45.001Z</time></trkpt><trkpt lat="38.61679726124934" lon="16.32693155610278"><ele>781.0</ele><time>2026-04-06T09:02:46.001Z</time></trkpt><trkpt lat="38.61661419625568" lon="16.326700710138084"><ele>781.0</ele><time>2026-04-06T09:02:47.001Z</time></trkpt><trkpt lat="38.61644350427798" lon="16.32646842111427"><ele>781.0</ele><time>2026-04-06T09:02:48.001Z</time></trkpt><trkpt lat="38.61625512186313" lon="16.326234825751357"><ele>780.5</ele><time>2026-04-06T09:02:49.001Z</time></trkpt><trkpt lat="38.61602612551037" lon="16.326056103197928"><ele>780.0</ele><time>2026-04-06T09:02:50.001Z</time></trkpt><trkpt lat="38.61580576863284" lon="16.32586852418224"><ele>780.0</ele><time>2026-04-06T09:02:51.001Z</time></trkpt><trkpt lat="38.61556037889209" lon="16.32570291099042"><ele>780.0</ele><time>2026-04-06T09:02:52.001Z</time></trkpt><trkpt lat="38.61529431756345" lon="16.325562272900424"><ele>779.5</ele><time>2026-04-06T09:02:53.001Z</time></trkpt><trkpt lat="38.615037422797094" lon="16.325484851768973"><ele>779.0</ele><time>2026-04-06T09:02:54.001Z</time></trkpt><trkpt lat="38.6147808195104" lon="16.325436708984693"><ele>779.0</ele><time>2026-04-06T09:02:55.001Z</time></trkpt><trkpt lat="38.61453705041658" lon="16.325405666473284"><ele>779.0</ele><time>2026-04-06T09:02:56.001Z</time></trkpt><trkpt lat="38.614271933011715" lon="16.3254158877011"><ele>778.0</ele><time>2026-04-06T09:02:57.001Z</time></trkpt><trkpt lat="38.61400118933842" lon="16.325452086710317"><ele>777.0</ele><time>2026-04-06T09:02:58.001Z</time></trkpt><trkpt lat="38.613731425204556" lon="16.325515474807293"><ele>776.0</ele><time>2026-04-06T09:02:59.001Z</time></trkpt><trkpt lat="38.61347117871802" lon="16.325625637265016"><ele>775.0</ele><time>2026-04-06T09:03:00.001Z</time></trkpt><trkpt lat="38.613211863002476" lon="16.32576959794872"><ele>775.0</ele><time>2026-04-06T09:03:01.001Z</time></trkpt><trkpt lat="38.61296309555376" lon="16.325919623215402"><ele>775.0</ele><time>2026-04-06T09:03:02.001Z</time></trkpt><trkpt lat="38.61271122605734" lon="16.326080057943383"><ele>777.5</ele><time>2026-04-06T09:03:03.001Z</time></trkpt><trkpt lat="38.61246241819941" lon="16.326236314647034"><ele>780.0</ele><time>2026-04-06T09:03:04.001Z</time></trkpt><trkpt lat="38.61221687769301" lon="16.326395011086515"><ele>782.5</ele><time>2026-04-06T09:03:05.001Z</time></trkpt><trkpt lat="38.611966291914634" lon="16.326543429477024"><ele>785.0</ele><time>2026-04-06T09:03:06.001Z</time></trkpt><trkpt lat="38.611717896049335" lon="16.326682910984843"><ele>785.0</ele><time>2026-04-06T09:03:07.001Z</time></trkpt><trkpt lat="38.61146433391055" lon="16.326815689679957"><ele>785.0</ele><time>2026-04-06T09:03:08.001Z</time></trkpt><trkpt lat="38.611205719524065" lon="16.32692140098622"><ele>788.0</ele><time>2026-04-06T09:03:09.001Z</time></trkpt><trkpt lat="38.610935371302624" lon="16.32701528170898"><ele>791.0</ele><time>2026-04-06T09:03:10.001Z</time></trkpt><trkpt lat="38.610667030598506" lon="16.327079513035496"><ele>791.0</ele><time>2026-04-06T09:03:11.001Z</time></trkpt><trkpt lat="38.61038661740228" lon="16.327124627097035"><ele>791.0</ele><time>2026-04-06T09:03:12.001Z</time></trkpt><trkpt lat="38.61010719219559" lon="16.32715629361645"><ele>787.0</ele><time>2026-04-06T09:03:13.001Z</time></trkpt><trkpt lat="38.60983213401014" lon="16.327171740620923"><ele>783.0</ele><time>2026-04-06T09:03:14.001Z</time></trkpt><trkpt lat="38.609567517312534" lon="16.32718976602963"><ele>780.0</ele><time>2026-04-06T09:03:15.001Z</time></trkpt><trkpt lat="38.60929027415973" lon="16.32720994328388"><ele>777.0</ele><time>2026-04-06T09:03:16Z</time></trkpt><trkpt lat="38.60901279641505" lon="16.327224178604304"><ele>775.0</ele><time>2026-04-06T09:03:17Z</time></trkpt><trkpt lat="38.60873730886267" lon="16.327230977690938"><ele>773.0</ele><time>2026-04-06T09:03:18Z</time></trkpt><trkpt lat="38.60846507167435" lon="16.327235935003745"><ele>771.0</ele><time>2026-04-06T09:03:19Z</time></trkpt><trkpt lat="38.60819383861277" lon="16.32724047694043"><ele>769.0</ele><time>2026-04-06T09:03:20Z</time></trkpt><trkpt lat="38.6078850231991" lon="16.32723390303458"><ele>769.5</ele><time>2026-04-06T09:03:21Z</time></trkpt><trkpt lat="38.60760242320473" lon="16.32724216454888"><ele>770.0</ele><time>2026-04-06T09:03:22Z</time></trkpt><trkpt lat="38.607317258773854" lon="16.327251813908262"><ele>770.0</ele><time>2026-04-06T09:03:23Z</time></trkpt><trkpt lat="38.60704857081212" lon="16.327265798647087"><ele>770.0</ele><time>2026-04-06T09:03:24Z</time></trkpt><trkpt lat="38.60676488052479" lon="16.327269704948307"><ele>771.0</ele><time>2026-04-06T09:03:25Z</time></trkpt><trkpt lat="38.6064829447379" lon="16.327268832842453"><ele>772.0</ele><time>2026-04-06T09:03:26Z</time></trkpt><trkpt lat="38.6062036218887" lon="16.327271594885254"><ele>776.5</ele><time>2026-04-06T09:03:27Z</time></trkpt><trkpt lat="38.605927195428215" lon="16.32728104559975"><ele>781.0</ele><time>2026-04-06T09:03:28Z</time></trkpt><trkpt lat="38.6056649928651" lon="16.327302413043512"><ele>781.0</ele><time>2026-04-06T09:03:29Z</time></trkpt><trkpt lat="38.60539663509338" lon="16.327308982315984"><ele>781.0</ele><time>2026-04-06T09:03:30Z</time></trkpt><trkpt lat="38.60513551102315" lon="16.327311047442805"><ele>781.5</ele><time>2026-04-06T09:03:31Z</time></trkpt><trkpt lat="38.60488444750594" lon="16.327328099353707"><ele>782.0</ele><time>2026-04-06T09:03:32Z</time></trkpt><trkpt lat="38.604618631733615" lon="16.327336125069134"><ele>780.5</ele><time>2026-04-06T09:03:33Z</time></trkpt><trkpt lat="38.604350585597096" lon="16.32734108386312"><ele>779.0</ele><time>2026-04-06T09:03:34Z</time></trkpt><trkpt lat="38.60407689946783" lon="16.32734879054749"><ele>779.0</ele><time>2026-04-06T09:03:35Z</time></trkpt><trkpt lat="38.60381004965233" lon="16.327358358565682"><ele>779.0</ele><time>2026-04-06T09:03:36Z</time></trkpt><trkpt lat="38.60353944640223" lon="16.327365811174403"><ele>777.0</ele><time>2026-04-06T09:03:37Z</time></trkpt><trkpt lat="38.603269815749634" lon="16.327375078728192"><ele>775.0</ele><time>2026-04-06T09:03:38Z</time></trkpt><trkpt lat="38.60299731932233" lon="16.327386838466744"><ele>773.5</ele><time>2026-04-06T09:03:39Z</time></trkpt><trkpt lat="38.60271202039648" lon="16.32739711154144"><ele>772.0</ele><time>2026-04-06T09:03:40Z</time></trkpt><trkpt lat="38.602435365861844" lon="16.32740943493944"><ele>772.0</ele><time>2026-04-06T09:03:41Z</time></trkpt><trkpt lat="38.602158161799785" lon="16.327423562346617"><ele>772.0</ele><time>2026-04-06T09:03:42Z</time></trkpt><trkpt lat="38.60188340592749" lon="16.327454050624016"><ele>775.5</ele><time>2026-04-06T09:03:43Z</time></trkpt><trkpt lat="38.601609626795" lon="16.32749581413563"><ele>779.0</ele><time>2026-04-06T09:03:44Z</time></trkpt><trkpt lat="38.6013489567107" lon="16.32753874548825"><ele>778.5</ele><time>2026-04-06T09:03:45Z</time></trkpt><trkpt lat="38.60108359103692" lon="16.327592696266525"><ele>778.0</ele><time>2026-04-06T09:03:46Z</time></trkpt><trkpt lat="38.60081247353875" lon="16.327661432533706"><ele>778.0</ele><time>2026-04-06T09:03:47Z</time></trkpt><trkpt lat="38.60054540090795" lon="16.327737313571884"><ele>778.0</ele><time>2026-04-06T09:03:48Z</time></trkpt><trkpt lat="38.60032683157836" lon="16.327812916358127"><ele>776.0</ele><time>2026-04-06T09:03:49Z</time></trkpt><trkpt lat="38.60009488548413" lon="16.327901735313265"><ele>774.0</ele><time>2026-04-06T09:03:50Z</time></trkpt><trkpt lat="38.5998594346194" lon="16.328003890576205"><ele>771.5</ele><time>2026-04-06T09:03:51Z</time></trkpt><trkpt lat="38.59962056442431" lon="16.328114440483617"><ele>769.0</ele><time>2026-04-06T09:03:52Z</time></trkpt><trkpt lat="38.599390225593524" lon="16.32824119255824"><ele>775.0</ele><time>2026-04-06T09:03:53Z</time></trkpt><trkpt lat="38.599156783285636" lon="16.328387099990053"><ele>781.0</ele><time>2026-04-06T09:03:54Z</time></trkpt><trkpt lat="38.598922820819816" lon="16.328533583069348"><ele>781.0</ele><time>2026-04-06T09:03:55Z</time></trkpt><trkpt lat="38.59868425094866" lon="16.328677692749483"><ele>781.0</ele><time>2026-04-06T09:03:56Z</time></trkpt><trkpt lat="38.59844672584096" lon="16.32881366920273"><ele>791.5</ele><time>2026-04-06T09:03:57Z</time></trkpt><trkpt lat="38.59820700300167" lon="16.328958760257574"><ele>802.0</ele><time>2026-04-06T09:03:58Z</time></trkpt><trkpt lat="38.597971696892316" lon="16.329117507322177"><ele>802.0</ele><time>2026-04-06T09:03:59Z</time></trkpt><trkpt lat="38.59773737996138" lon="16.32927666097828"><ele>802.0</ele><time>2026-04-06T09:04:00Z</time></trkpt><trkpt lat="38.59750582700519" lon="16.329438551984403"><ele>802.0</ele><time>2026-04-06T09:04:01Z</time></trkpt><trkpt lat="38.59727759186963" lon="16.329597166697763"><ele>802.0</ele><time>2026-04-06T09:04:02Z</time></trkpt><trkpt lat="38.59705589816595" lon="16.329749700587804"><ele>801.0</ele><time>2026-04-06T09:04:03Z</time></trkpt><trkpt lat="38.59683920469524" lon="16.329897733253294"><ele>800.0</ele><time>2026-04-06T09:04:04Z</time></trkpt><trkpt lat="38.59661921542476" lon="16.330042107770378"><ele>800.0</ele><time>2026-04-06T09:04:05Z</time></trkpt><trkpt lat="38.596391801098065" lon="16.330192149772817"><ele>800.0</ele><time>2026-04-06T09:04:06Z</time></trkpt><trkpt lat="38.59617406954583" lon="16.330332294327953"><ele>800.0</ele><time>2026-04-06T09:04:07Z</time></trkpt><trkpt lat="38.59596148935226" lon="16.330457689481346"><ele>800.0</ele><time>2026-04-06T09:04:08Z</time></trkpt><trkpt lat="38.595747953828486" lon="16.33057862520952"><ele>799.0</ele><time>2026-04-06T09:04:09Z</time></trkpt><trkpt lat="38.59555798377746" lon="16.330684259180444"><ele>798.0</ele><time>2026-04-06T09:04:10Z</time></trkpt><trkpt lat="38.59535042973509" lon="16.33077233275512"><ele>797.0</ele><time>2026-04-06T09:04:11Z</time></trkpt><trkpt lat="38.59513441106903" lon="16.330854187127233"><ele>799.3333333333334</ele><time>2026-04-06T09:04:12Z</time></trkpt><trkpt lat="38.59492138716503" lon="16.330924104444726"><ele>801.6666666666667</ele><time>2026-04-06T09:04:13Z</time></trkpt><trkpt lat="38.59470525745445" lon="16.330967993880567"><ele>804.0</ele><time>2026-04-06T09:04:14Z</time></trkpt><trkpt lat="38.59451323593222" lon="16.331004925284784"><ele>805.3333333333333</ele><time>2026-04-06T09:04:15Z</time></trkpt><trkpt lat="38.59432607820633" lon="16.331030698419333"><ele>806.6666666666666</ele><time>2026-04-06T09:04:16Z</time></trkpt><trkpt lat="38.59414070548298" lon="16.331043503313953"><ele>808.0</ele><time>2026-04-06T09:04:17Z</time></trkpt><trkpt lat="38.59396908683411" lon="16.331052740016492"><ele>808.0</ele><time>2026-04-06T09:04:18Z</time></trkpt><trkpt lat="38.59380636218472" lon="16.331057462633584"><ele>808.0</ele><time>2026-04-06T09:04:19Z</time></trkpt><trkpt lat="38.593653717043765" lon="16.331032507105494"><ele>808.0</ele><time>2026-04-06T09:04:20Z</time></trkpt><trkpt lat="38.5934926708653" lon="16.331063172956576"><ele>806.3333333333333</ele><time>2026-04-06T09:04:21Z</time></trkpt><trkpt lat="38.593315198137645" lon="16.331060866648993"><ele>804.6666666666667</ele><time>2026-04-06T09:04:22Z</time></trkpt><trkpt lat="38.59314877891867" lon="16.331048004193214"><ele>803.0</ele><time>2026-04-06T09:04:23Z</time></trkpt><trkpt lat="38.59301930203072" lon="16.331020045344737"><ele>803.0</ele><time>2026-04-06T09:04:24Z</time></trkpt><trkpt lat="38.59287422520397" lon="16.330999876186144"><ele>803.0</ele><time>2026-04-06T09:04:25Z</time></trkpt><trkpt lat="38.59274984731019" lon="16.330960600547545"><ele>803.0</ele><time>2026-04-06T09:04:26.001Z</time></trkpt><trkpt lat="38.59264441406153" lon="16.33088435552808"><ele>803.0</ele><time>2026-04-06T09:04:27.001Z</time></trkpt><trkpt lat="38.59254672074127" lon="16.33083393616408"><ele>802.25</ele><time>2026-04-06T09:04:28.001Z</time></trkpt><trkpt lat="38.59239767563911" lon="16.33087860711938"><ele>801.5</ele><time>2026-04-06T09:04:30.001Z</time></trkpt><trkpt lat="38.59229504528053" lon="16.3309332922026"><ele>800.75</ele><time>2026-04-06T09:04:31.001Z</time></trkpt><trkpt lat="38.592243536997195" lon="16.33104280296842"><ele>800.0</ele><time>2026-04-06T09:04:32.001Z</time></trkpt><trkpt lat="38.59222095940598" lon="16.331176405217956"><ele>800.0</ele><time>2026-04-06T09:04:33.001Z</time></trkpt><trkpt lat="38.59221444648923" lon="16.331300476673945"><ele>800.0</ele><time>2026-04-06T09:04:34.001Z</time></trkpt><trkpt lat="38.59223669627847" lon="16.331425544818714"><ele>800.0</ele><time>2026-04-06T09:04:35.001Z</time></trkpt><trkpt lat="38.592308420818675" lon="16.331565610403658"><ele>800.0</ele><time>2026-04-06T09:04:36.001Z</time></trkpt><trkpt lat="38.592398597916414" lon="16.331661007398456"><ele>800.0</ele><time>2026-04-06T09:04:37.001Z</time></trkpt><trkpt lat="38.59237884491396" lon="16.331868891500214"><ele>799.3333333333334</ele><time>2026-04-06T09:04:38.001Z</time></trkpt><trkpt lat="38.5923258173327" lon="16.332037771354088"><ele>798.6666666666667</ele><time>2026-04-06T09:04:39.001Z</time></trkpt><trkpt lat="38.5922447962933" lon="16.332207975468517"><ele>798.0</ele><time>2026-04-06T09:04:40.001Z</time></trkpt><trkpt lat="38.59214691096018" lon="16.332378110270955"><ele>795.6666666666667</ele><time>2026-04-06T09:04:41.001Z</time></trkpt><trkpt lat="38.59205415868138" lon="16.33256088510013"><ele>793.3333333333334</ele><time>2026-04-06T09:04:42.001Z</time></trkpt><trkpt lat="38.59194392453735" lon="16.332703185620964"><ele>791.0</ele><time>2026-04-06T09:04:43.001Z</time></trkpt><trkpt lat="38.59182243110486" lon="16.332893075981374"><ele>796.0</ele><time>2026-04-06T09:04:44.001Z</time></trkpt><trkpt lat="38.591699262717405" lon="16.333090719850585"><ele>801.0</ele><time>2026-04-06T09:04:45.001Z</time></trkpt><trkpt lat="38.591573166437946" lon="16.33330158543599"><ele>806.0</ele><time>2026-04-06T09:04:46.001Z</time></trkpt><trkpt lat="38.59142733785678" lon="16.333492292622125"><ele>806.0</ele><time>2026-04-06T09:04:47.001Z</time></trkpt><trkpt lat="38.59126078119878" lon="16.33365156180218"><ele>806.0</ele><time>2026-04-06T09:04:48.001Z</time></trkpt><trkpt lat="38.591071998324885" lon="16.333783829413623"><ele>806.0</ele><time>2026-04-06T09:04:49.001Z</time></trkpt><trkpt lat="38.5908701296418" lon="16.333890459690313"><ele>807.5</ele><time>2026-04-06T09:04:50.001Z</time></trkpt><trkpt lat="38.59065048678552" lon="16.33400712718657"><ele>809.0</ele><time>2026-04-06T09:04:51.001Z</time></trkpt><trkpt lat="38.59044792385623" lon="16.3341348518425"><ele>811.3333333333334</ele><time>2026-04-06T09:04:52.001Z</time></trkpt><trkpt lat="38.59027049623976" lon="16.334299460445347"><ele>813.6666666666667</ele><time>2026-04-06T09:04:53.001Z</time></trkpt><trkpt lat="38.59011047450114" lon="16.334496325547697"><ele>816.0</ele><time>2026-04-06T09:04:54.001Z</time></trkpt><trkpt lat="38.58997093170786" lon="16.33470838338184"><ele>816.0</ele><time>2026-04-06T09:04:55.001Z</time></trkpt><trkpt lat="38.58986013230705" lon="16.334945682067858"><ele>816.0</ele><time>2026-04-06T09:04:56.001Z</time></trkpt><trkpt lat="38.58977763788595" lon="16.335199162588633"><ele>816.0</ele><time>2026-04-06T09:04:57.001Z</time></trkpt><trkpt lat="38.589695093122025" lon="16.335434456412813"><ele>815.6666666666667</ele><time>2026-04-06T09:04:58.001Z</time></trkpt><trkpt lat="38.58962276445519" lon="16.335654432354143"><ele>815.3333333333334</ele><time>2026-04-06T09:04:59.001Z</time></trkpt><trkpt lat="38.589559667196916" lon="16.33585390241653"><ele>815.0</ele><time>2026-04-06T09:05:00.001Z</time></trkpt><trkpt lat="38.58949795226946" lon="16.33602987825186"><ele>814.8</ele><time>2026-04-06T09:05:01.001Z</time></trkpt><trkpt lat="38.58944831537535" lon="16.33617606412643"><ele>814.6</ele><time>2026-04-06T09:05:02.001Z</time></trkpt><trkpt lat="38.58940168732457" lon="16.33629183353421"><ele>814.4000000000001</ele><time>2026-04-06T09:05:03.001Z</time></trkpt><trkpt lat="38.58935096286689" lon="16.336373903655854"><ele>814.2</ele><time>2026-04-06T09:05:04.001Z</time></trkpt><trkpt lat="38.58929252594401" lon="16.33641699203179"><ele>814.0</ele><time>2026-04-06T09:05:05.001Z</time></trkpt><trkpt lat="38.58921775562833" lon="16.33642672207441"><ele>814.0</ele><time>2026-04-06T09:05:06.001Z</time></trkpt><trkpt lat="38.589103578900065" lon="16.33640094454396"><ele>814.0</ele><time>2026-04-06T09:05:07.001Z</time></trkpt><trkpt lat="38.588969691709906" lon="16.336367040910346"><ele>814.0</ele><time>2026-04-06T09:05:08.001Z</time></trkpt><trkpt lat="38.58880419361094" lon="16.336314630812232"><ele>814.0</ele><time>2026-04-06T09:05:09.001Z</time></trkpt><trkpt lat="38.58863079947836" lon="16.336247762925158"><ele>814.6666666666666</ele><time>2026-04-06T09:05:10.001Z</time></trkpt><trkpt lat="38.58847215573603" lon="16.336129823525308"><ele>815.3333333333333</ele><time>2026-04-06T09:05:11.001Z</time></trkpt><trkpt lat="38.588298131733694" lon="16.33608183726947"><ele>816.0</ele><time>2026-04-06T09:05:12.001Z</time></trkpt><trkpt lat="38.58813412722579" lon="16.336010371228422"><ele>816.0</ele><time>2026-04-06T09:05:13.001Z</time></trkpt><trkpt lat="38.58798344365365" lon="16.335947388768144"><ele>816.0</ele><time>2026-04-06T09:05:14.001Z</time></trkpt><trkpt lat="38.587844647011295" lon="16.335924497258755"><ele>816.0</ele><time>2026-04-06T09:05:15.001Z</time></trkpt><trkpt lat="38.58771536842817" lon="16.335985425152664"><ele>816.0</ele><time>2026-04-06T09:05:16.001Z</time></trkpt><trkpt lat="38.58760798146714" lon="16.336105941578467"><ele>816.0</ele><time>2026-04-06T09:05:17.001Z</time></trkpt><trkpt lat="38.587520881019806" lon="16.336256734261852"><ele>816.0</ele><time>2026-04-06T09:05:18.001Z</time></trkpt><trkpt lat="38.58744594378102" lon="16.336372591303476"><ele>816.0</ele><time>2026-04-06T09:05:19.001Z</time></trkpt><trkpt lat="38.58732591380951" lon="16.336482898135046"><ele>816.0</ele><time>2026-04-06T09:05:20.001Z</time></trkpt><trkpt lat="38.58716342062132" lon="16.33655309558054"><ele>812.6666666666667</ele><time>2026-04-06T09:05:21.001Z</time></trkpt><trkpt lat="38.586971755175114" lon="16.336607114910233"><ele>809.3333333333334</ele><time>2026-04-06T09:05:22Z</time></trkpt><trkpt lat="38.58677543075211" lon="16.336582083776037"><ele>806.0</ele><time>2026-04-06T09:05:23Z</time></trkpt><trkpt lat="38.586588950419404" lon="16.336521549841457"><ele>806.0</ele><time>2026-04-06T09:05:24Z</time></trkpt><trkpt lat="38.58646586020854" lon="16.33647226742742"><ele>806.0</ele><time>2026-04-06T09:05:25Z</time></trkpt><trkpt lat="38.58633735022431" lon="16.336364072707998"><ele>806.0</ele><time>2026-04-06T09:05:26Z</time></trkpt><trkpt lat="38.58625968912571" lon="16.336252815984967"><ele>806.0</ele><time>2026-04-06T09:05:27Z</time></trkpt><trkpt lat="38.586219720020985" lon="16.336111288402037"><ele>805.0</ele><time>2026-04-06T09:05:28Z</time></trkpt><trkpt lat="38.58616381177335" lon="16.335947624674798"><ele>804.0</ele><time>2026-04-06T09:05:29Z</time></trkpt><trkpt lat="38.58605576796761" lon="16.335756631083527"><ele>803.0</ele><time>2026-04-06T09:05:30Z</time></trkpt><trkpt lat="38.58594121758495" lon="16.335629752590624"><ele>803.0</ele><time>2026-04-06T09:05:31Z</time></trkpt><trkpt lat="38.5858142809443" lon="16.335554564089453"><ele>803.0</ele><time>2026-04-06T09:05:32Z</time></trkpt><trkpt lat="38.58566895013941" lon="16.335541619784774"><ele>803.0</ele><time>2026-04-06T09:05:33Z</time></trkpt><trkpt lat="38.58552657705398" lon="16.335562784886637"><ele>803.0</ele><time>2026-04-06T09:05:34Z</time></trkpt><trkpt lat="38.585440335771786" lon="16.335630424932987"><ele>803.0</ele><time>2026-04-06T09:05:35Z</time></trkpt><trkpt lat="38.58540031422515" lon="16.33575698160696"><ele>803.0</ele><time>2026-04-06T09:05:36Z</time></trkpt><trkpt lat="38.58539252402128" lon="16.33592015869689"><ele>803.0</ele><time>2026-04-06T09:05:37Z</time></trkpt><trkpt lat="38.585400301608715" lon="16.336114646800777"><ele>803.0</ele><time>2026-04-06T09:05:38Z</time></trkpt><trkpt lat="38.58538565154371" lon="16.336305125672048"><ele>803.6666666666667</ele><time>2026-04-06T09:05:39Z</time></trkpt><trkpt lat="38.58533239203281" lon="16.336493712357814"><ele>804.3333333333333</ele><time>2026-04-06T09:05:40Z</time></trkpt><trkpt lat="38.585235061290575" lon="16.336654060892833"><ele>805.0</ele><time>2026-04-06T09:05:41Z</time></trkpt><trkpt lat="38.58509696752548" lon="16.33673185351307"><ele>805.0</ele><time>2026-04-06T09:05:42Z</time></trkpt><trkpt lat="38.58496600825864" lon="16.33675244262283"><ele>805.0</ele><time>2026-04-06T09:05:43Z</time></trkpt><trkpt lat="38.58485658913754" lon="16.33671636748133"><ele>805.0</ele><time>2026-04-06T09:05:44Z</time></trkpt><trkpt lat="38.5847946818112" lon="16.336592958642406"><ele>805.0</ele><time>2026-04-06T09:05:45Z</time></trkpt><trkpt lat="38.5847639540315" lon="16.336453859407364"><ele>806.5</ele><time>2026-04-06T09:05:46Z</time></trkpt><trkpt lat="38.58470674882961" lon="16.336271454188314"><ele>808.0</ele><time>2026-04-06T09:05:47Z</time></trkpt><trkpt lat="38.58466071270933" lon="16.336122373531616"><ele>809.5</ele><time>2026-04-06T09:05:48Z</time></trkpt><trkpt lat="38.584627947365874" lon="16.33601988802183"><ele>811.0</ele><time>2026-04-06T09:05:49Z</time></trkpt><trkpt lat="38.58459187932766" lon="16.335905762858054"><ele>811.0</ele><time>2026-04-06T09:05:50Z</time></trkpt><trkpt lat="38.584561921359615" lon="16.33581050141701"><ele>811.0</ele><time>2026-04-06T09:05:51Z</time></trkpt><trkpt lat="38.584503788649755" lon="16.335679964941615"><ele>811.0</ele><time>2026-04-06T09:05:53Z</time></trkpt><trkpt lat="38.58446028535801" lon="16.335576126965233"><ele>811.0</ele><time>2026-04-06T09:05:55Z</time></trkpt><trkpt lat="38.5844047590969" lon="16.335481548908415"><ele>811.0</ele><time>2026-04-06T09:05:57Z</time></trkpt><trkpt lat="38.58433768998324" lon="16.335410257572033"><ele>810.4</ele><time>2026-04-06T09:05:59Z</time></trkpt><trkpt lat="38.58427008180275" lon="16.33532566198287"><ele>809.8</ele><time>2026-04-06T09:06:01Z</time></trkpt><trkpt lat="38.58419919841849" lon="16.33523290488275"><ele>809.1999999999999</ele><time>2026-04-06T09:06:03Z</time></trkpt><trkpt lat="38.584142522547666" lon="16.335196223591012"><ele>808.5999999999999</ele><time>2026-04-06T09:06:04Z</time></trkpt><trkpt lat="38.584061811141545" lon="16.33512428025517"><ele>808.0</ele><time>2026-04-06T09:06:05Z</time></trkpt><trkpt lat="38.58396819640167" lon="16.335036535264166"><ele>808.0</ele><time>2026-04-06T09:06:06Z</time></trkpt><trkpt lat="38.58386831116578" lon="16.334944105439842"><ele>808.0</ele><time>2026-04-06T09:06:07Z</time></trkpt><trkpt lat="38.583757646870446" lon="16.334844299969333"><ele>808.0</ele><time>2026-04-06T09:06:08Z</time></trkpt><trkpt lat="38.58363892901389" lon="16.334735126123565"><ele>808.0</ele><time>2026-04-06T09:06:09Z</time></trkpt><trkpt lat="38.58351697164303" lon="16.33462729654974"><ele>807.6666666666666</ele><time>2026-04-06T09:06:10Z</time></trkpt><trkpt lat="38.583380910727854" lon="16.33451189398218"><ele>807.3333333333333</ele><time>2026-04-06T09:06:11Z</time></trkpt><trkpt lat="38.58326307359244" lon="16.33439793457132"><ele>807.0</ele><time>2026-04-06T09:06:12Z</time></trkpt><trkpt lat="38.58315430642353" lon="16.334285282189942"><ele>807.0</ele><time>2026-04-06T09:06:13Z</time></trkpt><trkpt lat="38.583057083884086" lon="16.334182420708466"><ele>807.0</ele><time>2026-04-06T09:06:14Z</time></trkpt><trkpt lat="38.58297086366547" lon="16.334099133571307"><ele>807.0</ele><time>2026-04-06T09:06:15Z</time></trkpt><trkpt lat="38.58289595989217" lon="16.334032269366187"><ele>807.0</ele><time>2026-04-06T09:06:16Z</time></trkpt><trkpt lat="38.58282281284005" lon="16.333955360545428"><ele>807.0</ele><time>2026-04-06T09:06:17Z</time></trkpt><trkpt lat="38.58275442537762" lon="16.333907854034287"><ele>806.2</ele><time>2026-04-06T09:06:18Z</time></trkpt><trkpt lat="38.5826844404673" lon="16.333836098159644"><ele>805.4000000000001</ele><time>2026-04-06T09:06:19Z</time></trkpt><trkpt lat="38.582602373140695" lon="16.333760537556756"><ele>804.5999999999999</ele><time>2026-04-06T09:06:21Z</time></trkpt><trkpt lat="38.582513548618024" lon="16.333676007829535"><ele>803.8</ele><time>2026-04-06T09:06:23Z</time></trkpt><trkpt lat="38.582419533769254" lon="16.333598181766245"><ele>803.0</ele><time>2026-04-06T09:06:25Z</time></trkpt><trkpt lat="38.58230240550516" lon="16.33349305667835"><ele>803.0000000000001</ele><time>2026-04-06T09:06:27Z</time></trkpt><trkpt lat="38.58223904047735" lon="16.333426214684973"><ele>803.0</ele><time>2026-04-06T09:06:28Z</time></trkpt><trkpt lat="38.5821649477895" lon="16.33337004119218"><ele>803.0</ele><time>2026-04-06T09:06:29Z</time></trkpt><trkpt lat="38.58207953214976" lon="16.333320296553712"><ele>803.0</ele><time>2026-04-06T09:06:30Z</time></trkpt><trkpt lat="38.58201334378223" lon="16.333250824242086"><ele>803.0000000000001</ele><time>2026-04-06T09:06:31Z</time></trkpt><trkpt lat="38.58194062292243" lon="16.33319544492572"><ele>803.0</ele><time>2026-04-06T09:06:32.001Z</time></trkpt><trkpt lat="38.581877071064795" lon="16.333141199085237"><ele>801.8333333333334</ele><time>2026-04-06T09:06:33.001Z</time></trkpt><trkpt lat="38.58182259549268" lon="16.333098586234364"><ele>800.6666666666667</ele><time>2026-04-06T09:06:34.001Z</time></trkpt><trkpt lat="38.581772764095426" lon="16.333045453774517"><ele>799.5</ele><time>2026-04-06T09:06:35.001Z</time></trkpt><trkpt lat="38.581686894581544" lon="16.33297471849364"><ele>798.3333333333333</ele><time>2026-04-06T09:06:37.001Z</time></trkpt><trkpt lat="38.58158878898702" lon="16.332923246484945"><ele>797.1666666666666</ele><time>2026-04-06T09:06:39.001Z</time></trkpt><trkpt lat="38.58151666393611" lon="16.33290785690905"><ele>796.0</ele><time>2026-04-06T09:06:40.001Z</time></trkpt><trkpt lat="38.58140830892976" lon="16.332844089193987"><ele>795.9999999999999</ele><time>2026-04-06T09:06:42.001Z</time></trkpt><trkpt lat="38.58132084607455" lon="16.332820492565073"><ele>796.0</ele><time>2026-04-06T09:06:43.001Z</time></trkpt><trkpt lat="38.58125059024815" lon="16.332792442074265"><ele>796.0</ele><time>2026-04-06T09:06:44.001Z</time></trkpt><trkpt lat="38.58118254065801" lon="16.332775425923998"><ele>796.0</ele><time>2026-04-06T09:06:45.001Z</time></trkpt><trkpt lat="38.58108022388052" lon="16.332736507772744"><ele>795.9999999999999</ele><time>2026-04-06T09:06:47.001Z</time></trkpt><trkpt lat="38.58097994757486" lon="16.332704990172996"><ele>796.0</ele><time>2026-04-06T09:06:49.001Z</time></trkpt><trkpt lat="38.58090835266138" lon="16.332680275608865"><ele>795.9999999999999</ele><time>2026-04-06T09:06:51.001Z</time></trkpt><trkpt lat="38.58081299668482" lon="16.33267586734645"><ele>796.0</ele><time>2026-04-06T09:06:53.001Z</time></trkpt><trkpt lat="38.580767121965245" lon="16.33261617981433"><ele>796.0</ele><time>2026-04-06T09:07:10.001Z</time></trkpt><trkpt lat="38.58079334010156" lon="16.332528706034935"><ele>796.0</ele><time>2026-04-06T09:07:12.001Z</time></trkpt><trkpt lat="38.580798477369335" lon="16.332444776972512"><ele>795.9999999999999</ele><time>2026-04-06T09:07:13.001Z</time></trkpt><trkpt lat="38.58079966096741" lon="16.332298050949234"><ele>796.0</ele><time>2026-04-06T09:07:15.001Z</time></trkpt><trkpt lat="38.580822247699686" lon="16.33213344970645"><ele>796.1999999999999</ele><time>2026-04-06T09:07:17.001Z</time></trkpt><trkpt lat="38.58081114754589" lon="16.332009203368735"><ele>796.4</ele><time>2026-04-06T09:07:19.001Z</time></trkpt><trkpt lat="38.58081892342309" lon="16.33191716416216"><ele>796.6</ele><time>2026-04-06T09:07:20.001Z</time></trkpt><trkpt lat="38.580830586870285" lon="16.331763037549933"><ele>796.8</ele><time>2026-04-06T09:07:22.001Z</time></trkpt><trkpt lat="38.58083711769482" lon="16.33168076810141"><ele>797.0</ele><time>2026-04-06T09:07:23.001Z</time></trkpt><trkpt lat="38.58086469818656" lon="16.33154204477364"><ele>797.0</ele><time>2026-04-06T09:07:25.001Z</time></trkpt><trkpt lat="38.58086955995355" lon="16.331428131299134"><ele>797.0</ele><time>2026-04-06T09:07:32Z</time></trkpt><trkpt lat="38.58088029605451" lon="16.331281310100483"><ele>797.0</ele><time>2026-04-06T09:07:34Z</time></trkpt><trkpt lat="38.580878848972176" lon="16.331168056570228"><ele>797.0</ele><time>2026-04-06T09:07:36Z</time></trkpt><trkpt lat="38.580848476817174" lon="16.33105384344016"><ele>797.0</ele><time>2026-04-06T09:07:38Z</time></trkpt><trkpt lat="38.58081862877913" lon="16.330884014711163"><ele>797.8333333333334</ele><time>2026-04-06T09:07:40Z</time></trkpt><trkpt lat="38.580793895780786" lon="16.33078341333196"><ele>798.6666666666667</ele><time>2026-04-06T09:07:41Z</time></trkpt><trkpt lat="38.58076778413474" lon="16.330690378365052"><ele>799.5</ele><time>2026-04-06T09:07:42Z</time></trkpt><trkpt lat="38.580745497207936" lon="16.330595564939824"><ele>800.3333333333333</ele><time>2026-04-06T09:07:43Z</time></trkpt><trkpt lat="38.58072379946214" lon="16.33050198987745"><ele>801.1666666666666</ele><time>2026-04-06T09:07:44Z</time></trkpt><trkpt lat="38.5806989784879" lon="16.330401783739173"><ele>802.0</ele><time>2026-04-06T09:07:45Z</time></trkpt><trkpt lat="38.580674864802255" lon="16.330293814638733"><ele>803.5</ele><time>2026-04-06T09:07:46Z</time></trkpt><trkpt lat="38.58064427643139" lon="16.330170550247896"><ele>805.0</ele><time>2026-04-06T09:07:47Z</time></trkpt><trkpt lat="38.58062118928211" lon="16.33002781124296"><ele>806.5</ele><time>2026-04-06T09:07:48Z</time></trkpt><trkpt lat="38.58057442999961" lon="16.329865319363215"><ele>808.0</ele><time>2026-04-06T09:07:49Z</time></trkpt><trkpt lat="38.580545159604554" lon="16.329723503352852"><ele>809.0</ele><time>2026-04-06T09:07:50Z</time></trkpt><trkpt lat="38.580509388906755" lon="16.329600850722002"><ele>810.0</ele><time>2026-04-06T09:07:51Z</time></trkpt><trkpt lat="38.58046453327875" lon="16.329482198445138"><ele>811.0</ele><time>2026-04-06T09:07:52Z</time></trkpt><trkpt lat="38.58040669480955" lon="16.32937985818852"><ele>812.0</ele><time>2026-04-06T09:07:53Z</time></trkpt><trkpt lat="38.580352998459425" lon="16.329265676382658"><ele>813.0</ele><time>2026-04-06T09:07:54Z</time></trkpt><trkpt lat="38.58029390296358" lon="16.32914908538048"><ele>813.0</ele><time>2026-04-06T09:07:55Z</time></trkpt><trkpt lat="38.58022053225888" lon="16.32903240569853"><ele>813.0</ele><time>2026-04-06T09:07:56Z</time></trkpt><trkpt lat="38.58015029786165" lon="16.328911599161106"><ele>813.0</ele><time>2026-04-06T09:07:57Z</time></trkpt><trkpt lat="38.58007847442231" lon="16.328792077487314"><ele>813.0</ele><time>2026-04-06T09:07:58Z</time></trkpt><trkpt lat="38.58000330292325" lon="16.32868056078287"><ele>813.6666666666666</ele><time>2026-04-06T09:07:59Z</time></trkpt><trkpt lat="38.579932825983214" lon="16.32858661423092"><ele>814.3333333333333</ele><time>2026-04-06T09:08:00Z</time></trkpt><trkpt lat="38.57987110968399" lon="16.328491898708982"><ele>815.0</ele><time>2026-04-06T09:08:01Z</time></trkpt><trkpt lat="38.5798119711059" lon="16.328400107364214"><ele>815.6666666666666</ele><time>2026-04-06T09:08:02Z</time></trkpt><trkpt lat="38.57975759631032" lon="16.328321777821966"><ele>816.3333333333333</ele><time>2026-04-06T09:08:03Z</time></trkpt><trkpt lat="38.57969898702482" lon="16.32826250183142"><ele>817.0</ele><time>2026-04-06T09:08:04Z</time></trkpt><trkpt lat="38.57960772105404" lon="16.328135434550596"><ele>817.0</ele><time>2026-04-06T09:08:06Z</time></trkpt><trkpt lat="38.57954168467254" lon="16.328078002635518"><ele>817.0</ele><time>2026-04-06T09:08:07Z</time></trkpt><trkpt lat="38.5794653015901" lon="16.328034365814236"><ele>817.0</ele><time>2026-04-06T09:08:08Z</time></trkpt><trkpt lat="38.57937388843788" lon="16.32800132693897"><ele>817.0</ele><time>2026-04-06T09:08:09Z</time></trkpt><trkpt lat="38.579274275224144" lon="16.327996305048686"><ele>817.0</ele><time>2026-04-06T09:08:10Z</time></trkpt><trkpt lat="38.57917781030169" lon="16.3279870733423"><ele>816.8333333333333</ele><time>2026-04-06T09:08:11Z</time></trkpt><trkpt lat="38.579093935367744" lon="16.327989977386324"><ele>816.6666666666666</ele><time>2026-04-06T09:08:12Z</time></trkpt><trkpt lat="38.57899772925223" lon="16.328015959503844"><ele>816.5</ele><time>2026-04-06T09:08:13Z</time></trkpt><trkpt lat="38.578913078354084" lon="16.328015321530756"><ele>816.3333333333333</ele><time>2026-04-06T09:08:14Z</time></trkpt><trkpt lat="38.57883674708989" lon="16.328011127186638"><ele>816.1666666666666</ele><time>2026-04-06T09:08:15Z</time></trkpt><trkpt lat="38.57876923582304" lon="16.32801286115329"><ele>816.0</ele><time>2026-04-06T09:08:16Z</time></trkpt><trkpt lat="38.57868440445134" lon="16.32803504033658"><ele>814.1999999999999</ele><time>2026-04-06T09:08:18Z</time></trkpt><trkpt lat="38.578623111541255" lon="16.328112924474674"><ele>812.4</ele><time>2026-04-06T09:08:20Z</time></trkpt><trkpt lat="38.57849831685718" lon="16.328169289775158"><ele>810.6</ele><time>2026-04-06T09:08:22Z</time></trkpt><trkpt lat="38.57842095056731" lon="16.32820432750125"><ele>808.8</ele><time>2026-04-06T09:08:23Z</time></trkpt><trkpt lat="38.578347722440405" lon="16.328240337906326"><ele>807.0</ele><time>2026-04-06T09:08:24Z</time></trkpt><trkpt lat="38.5782786250195" lon="16.328284584084255"><ele>807.0</ele><time>2026-04-06T09:08:25Z</time></trkpt><trkpt lat="38.57820765626081" lon="16.32831760147187"><ele>807.0</ele><time>2026-04-06T09:08:26Z</time></trkpt><trkpt lat="38.5781305421692" lon="16.32835598645875"><ele>807.0</ele><time>2026-04-06T09:08:27Z</time></trkpt><trkpt lat="38.57806103018287" lon="16.328397245421797"><ele>807.0</ele><time>2026-04-06T09:08:28Z</time></trkpt><trkpt lat="38.57797883193609" lon="16.328428188746457"><ele>807.0</ele><time>2026-04-06T09:08:29Z</time></trkpt><trkpt lat="38.577902615307046" lon="16.32846833540791"><ele>807.0</ele><time>2026-04-06T09:08:30Z</time></trkpt><trkpt lat="38.577828158628186" lon="16.328512449047093"><ele>806.1666666666666</ele><time>2026-04-06T09:08:31Z</time></trkpt><trkpt lat="38.57775196993625" lon="16.32854876168309"><ele>805.3333333333333</ele><time>2026-04-06T09:08:32Z</time></trkpt><trkpt lat="38.57767452897376" lon="16.328579949253367"><ele>804.5</ele><time>2026-04-06T09:08:33Z</time></trkpt><trkpt lat="38.57760577056065" lon="16.32862101236187"><ele>803.6666666666666</ele><time>2026-04-06T09:08:34Z</time></trkpt><trkpt lat="38.57753500730368" lon="16.328655916173453"><ele>802.8333333333333</ele><time>2026-04-06T09:08:35Z</time></trkpt><trkpt lat="38.57746559088614" lon="16.328694456231418"><ele>802.0</ele><time>2026-04-06T09:08:36Z</time></trkpt><trkpt lat="38.57740070756015" lon="16.328713572412095"><ele>801.9999999999999</ele><time>2026-04-06T09:08:37Z</time></trkpt><trkpt lat="38.577312441620606" lon="16.32875944434464"><ele>802.0</ele><time>2026-04-06T09:08:39Z</time></trkpt><trkpt lat="38.577245726023285" lon="16.32879941723658"><ele>802.0</ele><time>2026-04-06T09:08:41Z</time></trkpt><trkpt lat="38.57717852195968" lon="16.328835421443024"><ele>802.0</ele><time>2026-04-06T09:08:45Z</time></trkpt><trkpt lat="38.5771126681534" lon="16.328878801578334"><ele>801.9999999999999</ele><time>2026-04-06T09:09:02.001Z</time></trkpt><trkpt lat="38.57704633301366" lon="16.32892420309346"><ele>802.0</ele><time>2026-04-06T09:09:04.001Z</time></trkpt><trkpt lat="38.577086900901215" lon="16.329088885311755"><ele>801.9999999999999</ele><time>2026-04-06T09:09:05.001Z</time></trkpt><trkpt lat="38.57708100337488" lon="16.32918587839907"><ele>802.0</ele><time>2026-04-06T09:09:06.001Z</time></trkpt><trkpt lat="38.57709549519852" lon="16.32930085320859"><ele>802.0</ele><time>2026-04-06T09:09:07.001Z</time></trkpt><trkpt lat="38.577091534133906" lon="16.329400314422244"><ele>802.0</ele><time>2026-04-06T09:09:08.001Z</time></trkpt><trkpt lat="38.57708815821941" lon="16.329489918197925"><ele>801.9999999999999</ele><time>2026-04-06T09:09:09.001Z</time></trkpt><trkpt lat="38.57707784332417" lon="16.32964064958118"><ele>802.0</ele><time>2026-04-06T09:09:11.001Z</time></trkpt><trkpt lat="38.57707246322064" lon="16.329768352595515"><ele>801.8333333333333</ele><time>2026-04-06T09:09:13.001Z</time></trkpt><trkpt lat="38.57707913206825" lon="16.329869397005584"><ele>801.6666666666666</ele><time>2026-04-06T09:09:15.001Z</time></trkpt><trkpt lat="38.5770875910608" lon="16.329956697072742"><ele>801.5</ele><time>2026-04-06T09:09:18.001Z</time></trkpt><trkpt lat="38.57709737451279" lon="16.330061013595564"><ele>801.3333333333333</ele><time>2026-04-06T09:09:22.001Z</time></trkpt><trkpt lat="38.5770814969495" lon="16.330180206365917"><ele>801.1666666666666</ele><time>2026-04-06T09:09:25.001Z</time></trkpt><trkpt lat="38.57702314813264" lon="16.33024572617806"><ele>801.0</ele><time>2026-04-06T09:09:27.001Z</time></trkpt><trkpt lat="38.57693628774139" lon="16.330244551794024"><ele>800.5999999999999</ele><time>2026-04-06T09:09:29.001Z</time></trkpt><trkpt lat="38.57686253354242" lon="16.33020333126027"><ele>800.2</ele><time>2026-04-06T09:09:35Z</time></trkpt><trkpt lat="38.576765955236" lon="16.330136882515305"><ele>799.8</ele><time>2026-04-06T09:09:37Z</time></trkpt><trkpt lat="38.576653360132354" lon="16.330059465141687"><ele>799.4000000000001</ele><time>2026-04-06T09:09:39Z</time></trkpt><trkpt lat="38.576595155282284" lon="16.330021267727574"><ele>799.0</ele><time>2026-04-06T09:09:40Z</time></trkpt><trkpt lat="38.57650041092644" lon="16.329926274159853"><ele>798.9999999999999</ele><time>2026-04-06T09:09:42Z</time></trkpt><trkpt lat="38.57643109548157" lon="16.329897905315214"><ele>799.0</ele><time>2026-04-06T09:09:43Z</time></trkpt><trkpt lat="38.57631733435497" lon="16.329816569296877"><ele>799.0</ele><time>2026-04-06T09:09:45Z</time></trkpt><trkpt lat="38.57626238303953" lon="16.329772729501194"><ele>799.0</ele><time>2026-04-06T09:09:46Z</time></trkpt><trkpt lat="38.57619084139104" lon="16.32967565876232"><ele>798.9999999999999</ele><time>2026-04-06T09:09:48Z</time></trkpt><trkpt lat="38.57613222590071" lon="16.32962930545432"><ele>799.0</ele><time>2026-04-06T09:09:50Z</time></trkpt><trkpt lat="38.57607816315988" lon="16.329565336886805"><ele>799.6666666666666</ele><time>2026-04-06T09:09:52Z</time></trkpt><trkpt lat="38.57602166556472" lon="16.329494958844666"><ele>800.3333333333333</ele><time>2026-04-06T09:09:54Z</time></trkpt><trkpt lat="38.575952079969085" lon="16.32942511278402"><ele>801.0</ele><time>2026-04-06T09:09:56Z</time></trkpt><trkpt lat="38.57587950566001" lon="16.329352914909872"><ele>801.6666666666667</ele><time>2026-04-06T09:09:58Z</time></trkpt><trkpt lat="38.57580682966378" lon="16.3292650892337"><ele>802.3333333333334</ele><time>2026-04-06T09:10:00Z</time></trkpt><trkpt lat="38.575749921382545" lon="16.329192625568236"><ele>803.0</ele><time>2026-04-06T09:10:02Z</time></trkpt><trkpt lat="38.575681093905935" lon="16.329146517441316"><ele>803.0</ele><time>2026-04-06T09:10:03Z</time></trkpt><trkpt lat="38.57559105892685" lon="16.32907793142574"><ele>803.0</ele><time>2026-04-06T09:10:05Z</time></trkpt><trkpt lat="38.575487272030955" lon="16.3290157873161"><ele>803.0</ele><time>2026-04-06T09:10:07Z</time></trkpt><trkpt lat="38.57538719847021" lon="16.328920868169906"><ele>803.0</ele><time>2026-04-06T09:10:09Z</time></trkpt><trkpt lat="38.575318517436" lon="16.32889397681105"><ele>803.0</ele><time>2026-04-06T09:10:10Z</time></trkpt><trkpt lat="38.57522893388493" lon="16.328777034704938"><ele>803.4285714285713</ele><time>2026-04-06T09:10:12Z</time></trkpt><trkpt lat="38.57516820040434" lon="16.328735472021858"><ele>803.8571428571429</ele><time>2026-04-06T09:10:13Z</time></trkpt><trkpt lat="38.575103596004475" lon="16.328701352904773"><ele>804.2857142857142</ele><time>2026-04-06T09:10:14Z</time></trkpt><trkpt lat="38.57504374958995" lon="16.328655397746562"><ele>804.7142857142857</ele><time>2026-04-06T09:10:15Z</time></trkpt><trkpt lat="38.57497850944698" lon="16.328612012307378"><ele>805.1428571428571</ele><time>2026-04-06T09:10:16Z</time></trkpt><trkpt lat="38.57493641432141" lon="16.32854366862785"><ele>805.5714285714286</ele><time>2026-04-06T09:10:17Z</time></trkpt><trkpt lat="38.574876924212795" lon="16.328494359747136"><ele>806.0</ele><time>2026-04-06T09:10:18Z</time></trkpt><trkpt lat="38.574815012203544" lon="16.328439231206943"><ele>806.0</ele><time>2026-04-06T09:10:19Z</time></trkpt><trkpt lat="38.57474941380515" lon="16.32838362153261"><ele>806.0</ele><time>2026-04-06T09:10:20Z</time></trkpt><trkpt lat="38.57469932814061" lon="16.32832103400006"><ele>806.0</ele><time>2026-04-06T09:10:21Z</time></trkpt><trkpt lat="38.574639679791495" lon="16.32826326331418"><ele>806.0</ele><time>2026-04-06T09:10:22Z</time></trkpt><trkpt lat="38.57458113651611" lon="16.328210545695562"><ele>806.0</ele><time>2026-04-06T09:10:23Z</time></trkpt><trkpt lat="38.57452410378936" lon="16.328150618696906"><ele>806.0</ele><time>2026-04-06T09:10:24Z</time></trkpt><trkpt lat="38.574465368043285" lon="16.32809992115981"><ele>806.0</ele><time>2026-04-06T09:10:25Z</time></trkpt><trkpt lat="38.57440676329371" lon="16.328046233089754"><ele>806.1428571428572</ele><time>2026-04-06T09:10:26Z</time></trkpt><trkpt lat="38.5743423826433" lon="16.327998463531742"><ele>806.2857142857142</ele><time>2026-04-06T09:10:27Z</time></trkpt><trkpt lat="38.57428417736166" lon="16.327946985109282"><ele>806.4285714285714</ele><time>2026-04-06T09:10:28Z</time></trkpt><trkpt lat="38.574227303668195" lon="16.327891117898066"><ele>806.5714285714287</ele><time>2026-04-06T09:10:29Z</time></trkpt><trkpt lat="38.574170935193656" lon="16.327830095072745"><ele>806.7142857142858</ele><time>2026-04-06T09:10:30Z</time></trkpt><trkpt lat="38.57411497841863" lon="16.32777309277866"><ele>806.8571428571429</ele><time>2026-04-06T09:10:31Z</time></trkpt><trkpt lat="38.574060060339086" lon="16.32771328192394"><ele>807.0</ele><time>2026-04-06T09:10:32Z</time></trkpt><trkpt lat="38.57399197832995" lon="16.32765925415808"><ele>807.0</ele><time>2026-04-06T09:10:33Z</time></trkpt><trkpt lat="38.573925491108234" lon="16.327597478605266"><ele>807.0</ele><time>2026-04-06T09:10:34Z</time></trkpt><trkpt lat="38.57386666132873" lon="16.327537685824282"><ele>807.0</ele><time>2026-04-06T09:10:35Z</time></trkpt><trkpt lat="38.5738086633281" lon="16.32747569249086"><ele>807.0</ele><time>2026-04-06T09:10:36Z</time></trkpt><trkpt lat="38.57374777210399" lon="16.327414410835935"><ele>807.0</ele><time>2026-04-06T09:10:37Z</time></trkpt><trkpt lat="38.57369291081649" lon="16.32735758599613"><ele>807.0</ele><time>2026-04-06T09:10:38Z</time></trkpt><trkpt lat="38.57363910013836" lon="16.327297101049748"><ele>807.1666666666666</ele><time>2026-04-06T09:10:39Z</time></trkpt><trkpt lat="38.57356889171683" lon="16.32723184145089"><ele>807.3333333333333</ele><time>2026-04-06T09:10:40Z</time></trkpt><trkpt lat="38.57350913043489" lon="16.327163285476086"><ele>807.5</ele><time>2026-04-06T09:10:41Z</time></trkpt><trkpt lat="38.57344590376847" lon="16.327091963467076"><ele>807.6666666666666</ele><time>2026-04-06T09:10:42Z</time></trkpt><trkpt lat="38.57338173925836" lon="16.32703565195955"><ele>807.8333333333333</ele><time>2026-04-06T09:10:43Z</time></trkpt><trkpt lat="38.57331431620713" lon="16.326974413012397"><ele>808.0</ele><time>2026-04-06T09:10:44Z</time></trkpt><trkpt lat="38.573249237602255" lon="16.326908671381123"><ele>807.9999999999999</ele><time>2026-04-06T09:10:45Z</time></trkpt><trkpt lat="38.57318555059932" lon="16.326840598419324"><ele>808.0</ele><time>2026-04-06T09:10:46Z</time></trkpt><trkpt lat="38.573121402327395" lon="16.32677317899384"><ele>808.0</ele><time>2026-04-06T09:10:47Z</time></trkpt><trkpt lat="38.57305832996377" lon="16.326701814217657"><ele>808.0</ele><time>2026-04-06T09:10:48Z</time></trkpt><trkpt lat="38.57299118705991" lon="16.326645917291255"><ele>807.9999999999999</ele><time>2026-04-06T09:10:49Z</time></trkpt><trkpt lat="38.572930267729944" lon="16.326581977671342"><ele>808.0</ele><time>2026-04-06T09:10:50Z</time></trkpt><trkpt lat="38.572865445677586" lon="16.326519364892814"><ele>808.2857142857142</ele><time>2026-04-06T09:10:51Z</time></trkpt><trkpt lat="38.572797693416234" lon="16.326471650606777"><ele>808.5714285714286</ele><time>2026-04-06T09:10:52Z</time></trkpt><trkpt lat="38.57274350925436" lon="16.32641857814738"><ele>808.8571428571429</ele><time>2026-04-06T09:10:53Z</time></trkpt><trkpt lat="38.57271280721836" lon="16.326325025588293"><ele>809.1428571428571</ele><time>2026-04-06T09:10:54Z</time></trkpt><trkpt lat="38.572651914066796" lon="16.326288749783085"><ele>809.4285714285714</ele><time>2026-04-06T09:10:55Z</time></trkpt><trkpt lat="38.57261192795046" lon="16.32622590247577"><ele>809.7142857142857</ele><time>2026-04-06T09:10:56Z</time></trkpt><trkpt lat="38.572550594471004" lon="16.3261895551935"><ele>810.0</ele><time>2026-04-06T09:10:57Z</time></trkpt><trkpt lat="38.57249821573484" lon="16.326138275008116"><ele>810.0</ele><time>2026-04-06T09:10:58Z</time></trkpt><trkpt lat="38.57240700725004" lon="16.326055303040118"><ele>810.0</ele><time>2026-04-06T09:11:00Z</time></trkpt><trkpt lat="38.57233463918083" lon="16.325981198767895"><ele>810.0</ele><time>2026-04-06T09:11:02Z</time></trkpt><trkpt lat="38.572259921555506" lon="16.325899668384725"><ele>810.0</ele><time>2026-04-06T09:11:04Z</time></trkpt><trkpt lat="38.57218938363913" lon="16.32581917877345"><ele>810.0</ele><time>2026-04-06T09:11:06Z</time></trkpt><trkpt lat="38.57211026843159" lon="16.325741502214566"><ele>810.0</ele><time>2026-04-06T09:11:08Z</time></trkpt><trkpt lat="38.57200810526464" lon="16.3256669157328"><ele>810.0</ele><time>2026-04-06T09:11:10Z</time></trkpt><trkpt lat="38.571919057693215" lon="16.325593151211596"><ele>810.0</ele><time>2026-04-06T09:11:12Z</time></trkpt><trkpt lat="38.57181694139288" lon="16.3254851082478"><ele>810.0</ele><time>2026-04-06T09:11:14Z</time></trkpt><trkpt lat="38.57176063318576" lon="16.325438031259054"><ele>810.0</ele><time>2026-04-06T09:11:15Z</time></trkpt><trkpt lat="38.57170160277372" lon="16.325385182857683"><ele>810.0</ele><time>2026-04-06T09:11:16Z</time></trkpt><trkpt lat="38.57164095471616" lon="16.325331446011198"><ele>810.0</ele><time>2026-04-06T09:11:17Z</time></trkpt><trkpt lat="38.571581352121534" lon="16.32527354610559"><ele>810.0</ele><time>2026-04-06T09:11:18Z</time></trkpt><trkpt lat="38.57151213870967" lon="16.32521199120313"><ele>810.0</ele><time>2026-04-06T09:11:19Z</time></trkpt><trkpt lat="38.571446411647834" lon="16.325147934514856"><ele>810.0</ele><time>2026-04-06T09:11:20Z</time></trkpt><trkpt lat="38.571366439836886" lon="16.3251328343223"><ele>810.0</ele><time>2026-04-06T09:11:21Z</time></trkpt><trkpt lat="38.57129642385185" lon="16.325054905430164"><ele>810.0</ele><time>2026-04-06T09:11:22Z</time></trkpt><trkpt lat="38.57124475491014" lon="16.32494593667295"><ele>810.0</ele><time>2026-04-06T09:11:23Z</time></trkpt><trkpt lat="38.57117565147043" lon="16.324877865905037"><ele>810.0</ele><time>2026-04-06T09:11:24Z</time></trkpt><trkpt lat="38.57109362321557" lon="16.324808980741086"><ele>810.0</ele><time>2026-04-06T09:11:25Z</time></trkpt><trkpt lat="38.57101853898525" lon="16.324733900479018"><ele>810.0</ele><time>2026-04-06T09:11:26Z</time></trkpt><trkpt lat="38.57094514520743" lon="16.32465505356775"><ele>810.2</ele><time>2026-04-06T09:11:27Z</time></trkpt><trkpt lat="38.57086861360305" lon="16.324578909635974"><ele>810.4</ele><time>2026-04-06T09:11:28.001Z</time></trkpt><trkpt lat="38.57078296272158" lon="16.324496279321668"><ele>810.5999999999999</ele><time>2026-04-06T09:11:29.001Z</time></trkpt><trkpt lat="38.57070481892106" lon="16.324413819999737"><ele>810.8</ele><time>2026-04-06T09:11:30.001Z</time></trkpt><trkpt lat="38.57062352990165" lon="16.324329366915254"><ele>811.0</ele><time>2026-04-06T09:11:31.001Z</time></trkpt><trkpt lat="38.57058225451381" lon="16.324253872623963"><ele>811.0</ele><time>2026-04-06T09:11:32.001Z</time></trkpt><trkpt lat="38.57048765520145" lon="16.324188568503658"><ele>811.0</ele><time>2026-04-06T09:11:33.001Z</time></trkpt><trkpt lat="38.57040811704617" lon="16.32408605049971"><ele>811.0</ele><time>2026-04-06T09:11:34.001Z</time></trkpt><trkpt lat="38.570279693067995" lon="16.323993018081755"><ele>811.0</ele><time>2026-04-06T09:11:35.001Z</time></trkpt><trkpt lat="38.57019526779015" lon="16.32391508635972"><ele>811.5999999999999</ele><time>2026-04-06T09:11:36.001Z</time></trkpt><trkpt lat="38.570111425396945" lon="16.3238404695811"><ele>812.2</ele><time>2026-04-06T09:11:37.001Z</time></trkpt><trkpt lat="38.57003052081951" lon="16.323761415733628"><ele>812.8</ele><time>2026-04-06T09:11:38.001Z</time></trkpt><trkpt lat="38.569954983732394" lon="16.323681936991022"><ele>813.4000000000001</ele><time>2026-04-06T09:11:39.001Z</time></trkpt><trkpt lat="38.56987075787733" lon="16.323592468313397"><ele>814.0</ele><time>2026-04-06T09:11:40Z</time></trkpt><trkpt lat="38.569795589076755" lon="16.323508374622076"><ele>814.0</ele><time>2026-04-06T09:11:41Z</time></trkpt><trkpt lat="38.569720958903716" lon="16.323429409680454"><ele>814.0</ele><time>2026-04-06T09:11:42Z</time></trkpt><trkpt lat="38.56964074330464" lon="16.32335201374669"><ele>814.0</ele><time>2026-04-06T09:11:43Z</time></trkpt><trkpt lat="38.56956675020632" lon="16.323271089992012"><ele>814.0</ele><time>2026-04-06T09:11:44Z</time></trkpt><trkpt lat="38.569497500941516" lon="16.323179097571092"><ele>814.0</ele><time>2026-04-06T09:11:45Z</time></trkpt><trkpt lat="38.569436399355695" lon="16.323092558103276"><ele>814.4000000000001</ele><time>2026-04-06T09:11:46Z</time></trkpt><trkpt lat="38.56936411886691" lon="16.323016504255122"><ele>814.8</ele><time>2026-04-06T09:11:47Z</time></trkpt><trkpt lat="38.5693089998925" lon="16.322933120533495"><ele>815.2</ele><time>2026-04-06T09:11:48Z</time></trkpt><trkpt lat="38.569249333804486" lon="16.32283878738592"><ele>815.5999999999999</ele><time>2026-04-06T09:11:49Z</time></trkpt><trkpt lat="38.569193376915315" lon="16.322738359349785"><ele>816.0</ele><time>2026-04-06T09:11:50Z</time></trkpt><trkpt lat="38.56914457484516" lon="16.322638301725316"><ele>816.0</ele><time>2026-04-06T09:11:51Z</time></trkpt><trkpt lat="38.56909575186505" lon="16.322544997047427"><ele>816.0</ele><time>2026-04-06T09:11:52Z</time></trkpt><trkpt lat="38.56904546120977" lon="16.322445251822757"><ele>816.0</ele><time>2026-04-06T09:11:53Z</time></trkpt><trkpt lat="38.568991138164336" lon="16.322354149057773"><ele>816.0</ele><time>2026-04-06T09:11:54Z</time></trkpt><trkpt lat="38.56896019737671" lon="16.322269766494074"><ele>816.0</ele><time>2026-04-06T09:11:55Z</time></trkpt><trkpt lat="38.56890131306201" lon="16.322179981857957"><ele>816.0</ele><time>2026-04-06T09:11:56Z</time></trkpt><trkpt lat="38.56885486648727" lon="16.322076258512112"><ele>816.8</ele><time>2026-04-06T09:11:57Z</time></trkpt><trkpt lat="38.568806205043686" lon="16.32199986506688"><ele>817.5999999999999</ele><time>2026-04-06T09:11:58Z</time></trkpt><trkpt lat="38.56874683847346" lon="16.321901970077313"><ele>818.4</ele><time>2026-04-06T09:11:59Z</time></trkpt><trkpt lat="38.56869876249843" lon="16.32179872449778"><ele>819.2</ele><time>2026-04-06T09:12:00Z</time></trkpt><trkpt lat="38.56863706076204" lon="16.321704853610306"><ele>820.0</ele><time>2026-04-06T09:12:01Z</time></trkpt><trkpt lat="38.5685754499398" lon="16.3216165614998"><ele>820.0</ele><time>2026-04-06T09:12:02Z</time></trkpt><trkpt lat="38.568515486796976" lon="16.321523210135904"><ele>820.0</ele><time>2026-04-06T09:12:03Z</time></trkpt><trkpt lat="38.56846241424853" lon="16.321433745722153"><ele>820.0</ele><time>2026-04-06T09:12:04Z</time></trkpt><trkpt lat="38.56840380945995" lon="16.32133389978784"><ele>820.0</ele><time>2026-04-06T09:12:05Z</time></trkpt><trkpt lat="38.568346752901185" lon="16.321213321150104"><ele>820.0</ele><time>2026-04-06T09:12:06Z</time></trkpt><trkpt lat="38.56829762106148" lon="16.32112248064044"><ele>818.8</ele><time>2026-04-06T09:12:07Z</time></trkpt><trkpt lat="38.5682574113307" lon="16.321020033417714"><ele>817.6</ele><time>2026-04-06T09:12:08Z</time></trkpt><trkpt lat="38.56819382804449" lon="16.320931412400576"><ele>816.4000000000001</ele><time>2026-04-06T09:12:09Z</time></trkpt><trkpt lat="38.56813707436086" lon="16.320830733024774"><ele>815.2</ele><time>2026-04-06T09:12:10Z</time></trkpt><trkpt lat="38.568056202463794" lon="16.320683675197103"><ele>814.0</ele><time>2026-04-06T09:12:11Z</time></trkpt><trkpt lat="38.56800702095187" lon="16.32059770189266"><ele>813.4999999999999</ele><time>2026-04-06T09:12:12Z</time></trkpt><trkpt lat="38.56795529839234" lon="16.320509858183378"><ele>813.0</ele><time>2026-04-06T09:12:13Z</time></trkpt><trkpt lat="38.56790363781723" lon="16.320426972885425"><ele>812.5</ele><time>2026-04-06T09:12:14Z</time></trkpt><trkpt lat="38.567849775355725" lon="16.320347789175134"><ele>812.0</ele><time>2026-04-06T09:12:15Z</time></trkpt><trkpt lat="38.56780448893425" lon="16.320283836815026"><ele>811.4999999999999</ele><time>2026-04-06T09:12:16Z</time></trkpt><trkpt lat="38.56775315261694" lon="16.320214774196305"><ele>811.0</ele><time>2026-04-06T09:12:17Z</time></trkpt><trkpt lat="38.56770270849801" lon="16.320148405136433"><ele>811.6666666666666</ele><time>2026-04-06T09:12:18Z</time></trkpt><trkpt lat="38.56764892183752" lon="16.32008009716227"><ele>812.3333333333333</ele><time>2026-04-06T09:12:19Z</time></trkpt><trkpt lat="38.56757961153364" lon="16.319992074477774"><ele>813.0</ele><time>2026-04-06T09:12:21Z</time></trkpt><trkpt lat="38.56752133970429" lon="16.319918069375326"><ele>813.6666666666667</ele><time>2026-04-06T09:12:22Z</time></trkpt><trkpt lat="38.56745927743983" lon="16.319832275561616"><ele>814.3333333333334</ele><time>2026-04-06T09:12:23Z</time></trkpt><trkpt lat="38.56740958523018" lon="16.319766134001576"><ele>815.0</ele><time>2026-04-06T09:12:24Z</time></trkpt><trkpt lat="38.56734172954326" lon="16.31969195432644"><ele>815.0000000000001</ele><time>2026-04-06T09:12:25Z</time></trkpt><trkpt lat="38.56728832052932" lon="16.31960690196915"><ele>815.0</ele><time>2026-04-06T09:12:26Z</time></trkpt><trkpt lat="38.56723992698362" lon="16.31953534768409"><ele>815.0</ele><time>2026-04-06T09:12:27Z</time></trkpt><trkpt lat="38.56719362710185" lon="16.319448747976725"><ele>815.0</ele><time>2026-04-06T09:12:28Z</time></trkpt><trkpt lat="38.56714221473648" lon="16.319388246492778"><ele>815.0000000000001</ele><time>2026-04-06T09:12:29Z</time></trkpt><trkpt lat="38.567079196445114" lon="16.319334539943"><ele>815.0</ele><time>2026-04-06T09:12:30Z</time></trkpt><trkpt lat="38.56702512940033" lon="16.319268146803445"><ele>816.0000000000001</ele><time>2026-04-06T09:12:31Z</time></trkpt><trkpt lat="38.56697437896718" lon="16.319205826428746"><ele>817.0</ele><time>2026-04-06T09:12:32Z</time></trkpt><trkpt lat="38.56691869445176" lon="16.319137447111885"><ele>818.0</ele><time>2026-04-06T09:12:33Z</time></trkpt><trkpt lat="38.566830011401564" lon="16.319027808175484"><ele>819.0</ele><time>2026-04-06T09:12:35Z</time></trkpt><trkpt lat="38.56677788091693" lon="16.318961849492574"><ele>820.0000000000001</ele><time>2026-04-06T09:12:36Z</time></trkpt><trkpt lat="38.56673056792698" lon="16.318901106902366"><ele>821.0</ele><time>2026-04-06T09:12:37Z</time></trkpt><trkpt lat="38.56668170756542" lon="16.318828195004503"><ele>821.0</ele><time>2026-04-06T09:12:38Z</time></trkpt><trkpt lat="38.56659183859313" lon="16.31873327772258"><ele>821.0</ele><time>2026-04-06T09:12:40Z</time></trkpt><trkpt lat="38.56652625745895" lon="16.31865950828372"><ele>821.0</ele><time>2026-04-06T09:12:42Z</time></trkpt><trkpt lat="38.566457291538214" lon="16.318579537050066"><ele>821.0</ele><time>2026-04-06T09:12:44Z</time></trkpt><trkpt lat="38.56643229654289" lon="16.318464382856916"><ele>821.0</ele><time>2026-04-06T09:12:46Z</time></trkpt><trkpt lat="38.566416630511505" lon="16.31837802443803"><ele>821.0000000000001</ele><time>2026-04-06T09:12:48Z</time></trkpt><trkpt lat="38.56643886923684" lon="16.31828052010865"><ele>821.0</ele><time>2026-04-06T09:12:50Z</time></trkpt><trkpt lat="38.56651503563864" lon="16.318159568915274"><ele>821.0</ele><time>2026-04-06T09:12:52Z</time></trkpt><trkpt lat="38.566568784521586" lon="16.318114269879356"><ele>821.0</ele><time>2026-04-06T09:12:53Z</time></trkpt><trkpt lat="38.56663028380415" lon="16.318057807690924"><ele>821.0000000000001</ele><time>2026-04-06T09:12:54Z</time></trkpt><trkpt lat="38.56669657220062" lon="16.317999030463987"><ele>821.0</ele><time>2026-04-06T09:12:55Z</time></trkpt><trkpt lat="38.56676587905919" lon="16.31794240065838"><ele>821.0000000000001</ele><time>2026-04-06T09:12:56Z</time></trkpt><trkpt lat="38.5668360253039" lon="16.31788084122699"><ele>821.0</ele><time>2026-04-06T09:12:57Z</time></trkpt><trkpt lat="38.56689270100021" lon="16.317839734641996"><ele>821.0</ele><time>2026-04-06T09:12:58Z</time></trkpt><trkpt lat="38.56694003596018" lon="16.31778037324405"><ele>821.0</ele><time>2026-04-06T09:12:59Z</time></trkpt><trkpt lat="38.56697483412319" lon="16.317691953450193"><ele>821.0000000000001</ele><time>2026-04-06T09:13:00Z</time></trkpt><trkpt lat="38.56699195318087" lon="16.317601983311576"><ele>821.0</ele><time>2026-04-06T09:13:01Z</time></trkpt><trkpt lat="38.56699238551848" lon="16.317491584409858"><ele>821.0000000000001</ele><time>2026-04-06T09:13:02Z</time></trkpt><trkpt lat="38.56697404009211" lon="16.31740825240267"><ele>821.0</ele><time>2026-04-06T09:13:03Z</time></trkpt><trkpt lat="38.566917382237136" lon="16.31735478158896"><ele>821.0</ele><time>2026-04-06T09:13:04Z</time></trkpt><trkpt lat="38.56685280759566" lon="16.317303836227754"><ele>821.0</ele><time>2026-04-06T09:13:05Z</time></trkpt><trkpt lat="38.566738620309536" lon="16.31723904707914"><ele>821.0000000000001</ele><time>2026-04-06T09:13:07Z</time></trkpt><trkpt lat="38.566681022946184" lon="16.31720013861605"><ele>821.0</ele><time>2026-04-06T09:13:08Z</time></trkpt><trkpt lat="38.56660409848493" lon="16.317157067655536"><ele>821.0000000000001</ele><time>2026-04-06T09:13:09Z</time></trkpt><trkpt lat="38.566538144765104" lon="16.317115557634384"><ele>821.0</ele><time>2026-04-06T09:13:10Z</time></trkpt><trkpt lat="38.566440661694685" lon="16.317061346521683"><ele>821.0</ele><time>2026-04-06T09:13:12Z</time></trkpt><trkpt lat="38.56638173611171" lon="16.317016154810144"><ele>821.0</ele><time>2026-04-06T09:13:13Z</time></trkpt><trkpt lat="38.56630220913691" lon="16.31697172846787"><ele>821.0000000000001</ele><time>2026-04-06T09:13:15Z</time></trkpt><trkpt lat="38.56622483354062" lon="16.316914400321874"><ele>821.0</ele><time>2026-04-06T09:13:18Z</time></trkpt><trkpt lat="38.566142752131974" lon="16.31683587819275"><ele>821.0000000000001</ele><time>2026-04-06T09:13:20Z</time></trkpt><trkpt lat="38.566081072752574" lon="16.316798306996724"><ele>821.0</ele><time>2026-04-06T09:13:21Z</time></trkpt><trkpt lat="38.56602008148948" lon="16.316759774822458"><ele>821.0</ele><time>2026-04-06T09:13:22Z</time></trkpt><trkpt lat="38.56595785316266" lon="16.316713286266726"><ele>821.0</ele><time>2026-04-06T09:13:23Z</time></trkpt><trkpt lat="38.56589999090239" lon="16.316669813876025"><ele>821.0</ele><time>2026-04-06T09:13:24Z</time></trkpt><trkpt lat="38.56583667041171" lon="16.316623708813555"><ele>821.0000000000001</ele><time>2026-04-06T09:13:25Z</time></trkpt><trkpt lat="38.565772369854365" lon="16.316574242003693"><ele>821.0</ele><time>2026-04-06T09:13:26Z</time></trkpt><trkpt lat="38.56570309778185" lon="16.316521167698458"><ele>821.0000000000001</ele><time>2026-04-06T09:13:27Z</time></trkpt><trkpt lat="38.56563524903053" lon="16.316475066537382"><ele>821.0</ele><time>2026-04-06T09:13:28Z</time></trkpt><trkpt lat="38.56557023482325" lon="16.316431520785557"><ele>821.0</ele><time>2026-04-06T09:13:29.001Z</time></trkpt><trkpt lat="38.56551445059431" lon="16.31638787582281"><ele>821.0</ele><time>2026-04-06T09:13:30.001Z</time></trkpt><trkpt lat="38.565454476010345" lon="16.31635610910075"><ele>821.0</ele><time>2026-04-06T09:13:31.001Z</time></trkpt><trkpt lat="38.56539621910066" lon="16.316324091175954"><ele>821.0000000000001</ele><time>2026-04-06T09:13:32.001Z</time></trkpt><trkpt lat="38.56532828960028" lon="16.31630061613092"><ele>821.0</ele><time>2026-04-06T09:13:33.001Z</time></trkpt><trkpt lat="38.56526100665349" lon="16.316278417682774"><ele>823.0000000000001</ele><time>2026-04-06T09:13:34.001Z</time></trkpt><trkpt lat="38.56519157396263" lon="16.316238121905418"><ele>825.0</ele><time>2026-04-06T09:13:35.001Z</time></trkpt><trkpt lat="38.56510898765244" lon="16.31624094503207"><ele>827.0</ele><time>2026-04-06T09:13:36.001Z</time></trkpt><trkpt lat="38.56502934697795" lon="16.31621699770588"><ele>829.0</ele><time>2026-04-06T09:13:37.001Z</time></trkpt><trkpt lat="38.5649571621114" lon="16.31620026002841"><ele>831.0000000000001</ele><time>2026-04-06T09:13:38.001Z</time></trkpt><trkpt lat="38.5648780333108" lon="16.316176830968654"><ele>833.0</ele><time>2026-04-06T09:13:39.001Z</time></trkpt><trkpt lat="38.564802338403446" lon="16.316151652858423"><ele>833.0000000000001</ele><time>2026-04-06T09:13:40.001Z</time></trkpt><trkpt lat="38.564737174697875" lon="16.316155130078396"><ele>833.0</ele><time>2026-04-06T09:13:41.001Z</time></trkpt><trkpt lat="38.5646617836681" lon="16.316142226031225"><ele>833.0</ele><time>2026-04-06T09:13:42.001Z</time></trkpt><trkpt lat="38.56458195117184" lon="16.31612370320511"><ele>833.0</ele><time>2026-04-06T09:13:43.001Z</time></trkpt><trkpt lat="38.564502606282666" lon="16.316113779104978"><ele>833.0000000000001</ele><time>2026-04-06T09:13:44.001Z</time></trkpt><trkpt lat="38.56442126849256" lon="16.316102637453845"><ele>833.0</ele><time>2026-04-06T09:13:45.001Z</time></trkpt><trkpt lat="38.564349498589074" lon="16.316087668534458"><ele>832.5000000000001</ele><time>2026-04-06T09:13:46Z</time></trkpt><trkpt lat="38.56426856119747" lon="16.316069375059797"><ele>832.0</ele><time>2026-04-06T09:13:47Z</time></trkpt><trkpt lat="38.564191957198204" lon="16.316025893110233"><ele>831.5</ele><time>2026-04-06T09:13:48Z</time></trkpt><trkpt lat="38.564097357680694" lon="16.316014948741923"><ele>831.0</ele><time>2026-04-06T09:13:49Z</time></trkpt><trkpt lat="38.564022770171555" lon="16.31597518000975"><ele>830.5000000000001</ele><time>2026-04-06T09:13:50Z</time></trkpt><trkpt lat="38.56393715490837" lon="16.31594980623844"><ele>830.0</ele><time>2026-04-06T09:13:51Z</time></trkpt><trkpt lat="38.563840399612694" lon="16.315935941166682"><ele>830.0</ele><time>2026-04-06T09:13:52Z</time></trkpt><trkpt lat="38.563744005600114" lon="16.315891103484844"><ele>830.0</ele><time>2026-04-06T09:13:53Z</time></trkpt><trkpt lat="38.56363905649015" lon="16.315868320933554"><ele>830.0</ele><time>2026-04-06T09:13:54Z</time></trkpt><trkpt lat="38.56353222054239" lon="16.315833864013296"><ele>830.0</ele><time>2026-04-06T09:13:55Z</time></trkpt><trkpt lat="38.563425131916745" lon="16.315797748891523"><ele>830.0</ele><time>2026-04-06T09:13:56Z</time></trkpt><trkpt lat="38.5633154208392" lon="16.315754913996894"><ele>828.75</ele><time>2026-04-06T09:13:57Z</time></trkpt><trkpt lat="38.56320000474315" lon="16.315714674568813"><ele>827.5</ele><time>2026-04-06T09:13:58Z</time></trkpt><trkpt lat="38.56308806145992" lon="16.3156756457778"><ele>826.25</ele><time>2026-04-06T09:13:59Z</time></trkpt><trkpt lat="38.56297217054394" lon="16.315635333075672"><ele>825.0</ele><time>2026-04-06T09:14:00Z</time></trkpt><trkpt lat="38.56287623016037" lon="16.31561722764076"><ele>824.8</ele><time>2026-04-06T09:14:01Z</time></trkpt><trkpt lat="38.562776542328855" lon="16.315607190582288"><ele>824.6</ele><time>2026-04-06T09:14:02Z</time></trkpt><trkpt lat="38.562677276898256" lon="16.315587970987895"><ele>824.4000000000001</ele><time>2026-04-06T09:14:03Z</time></trkpt><trkpt lat="38.562572230914625" lon="16.315576449344814"><ele>824.2</ele><time>2026-04-06T09:14:04Z</time></trkpt><trkpt lat="38.56246314137128" lon="16.315570076431165"><ele>824.0</ele><time>2026-04-06T09:14:05Z</time></trkpt><trkpt lat="38.56235337346748" lon="16.315568066934787"><ele>826.0</ele><time>2026-04-06T09:14:06Z</time></trkpt><trkpt lat="38.562241317706" lon="16.315563573954588"><ele>828.0</ele><time>2026-04-06T09:14:07Z</time></trkpt><trkpt lat="38.562129408438224" lon="16.315548113659332"><ele>830.0</ele><time>2026-04-06T09:14:08Z</time></trkpt><trkpt lat="38.562017681131955" lon="16.315537395492484"><ele>832.0</ele><time>2026-04-06T09:14:09Z</time></trkpt><trkpt lat="38.56190458799609" lon="16.315520882434292"><ele>832.1666666666666</ele><time>2026-04-06T09:14:10Z</time></trkpt><trkpt lat="38.5617939083344" lon="16.31548713885582"><ele>832.3333333333333</ele><time>2026-04-06T09:14:11Z</time></trkpt><trkpt lat="38.56169832634936" lon="16.315462656759472"><ele>832.5</ele><time>2026-04-06T09:14:12Z</time></trkpt><trkpt lat="38.56161528197791" lon="16.315429977075155"><ele>832.6666666666667</ele><time>2026-04-06T09:14:13Z</time></trkpt><trkpt lat="38.561536717587956" lon="16.315413999516643"><ele>832.8333333333334</ele><time>2026-04-06T09:14:14Z</time></trkpt><trkpt lat="38.56146877421723" lon="16.31539852796624"><ele>833.0</ele><time>2026-04-06T09:14:15Z</time></trkpt><trkpt lat="38.561397354426674" lon="16.31540138166144"><ele>833.0</ele><time>2026-04-06T09:14:16Z</time></trkpt><trkpt lat="38.56132929989926" lon="16.315414654615523"><ele>833.0</ele><time>2026-04-06T09:14:17Z</time></trkpt><trkpt lat="38.56119892936248" lon="16.315440197597667"><ele>833.0</ele><time>2026-04-06T09:14:19Z</time></trkpt><trkpt lat="38.561134979329005" lon="16.315444156283814"><ele>833.0</ele><time>2026-04-06T09:14:20Z</time></trkpt><trkpt lat="38.56101551465905" lon="16.315438278319125"><ele>833.0</ele><time>2026-04-06T09:14:22Z</time></trkpt><trkpt lat="38.5609487716154" lon="16.31542116655872"><ele>831.3333333333334</ele><time>2026-04-06T09:14:23Z</time></trkpt><trkpt lat="38.56087661532179" lon="16.31539183467098"><ele>829.6666666666667</ele><time>2026-04-06T09:14:24Z</time></trkpt><trkpt lat="38.56079965184273" lon="16.3153609605774"><ele>828.0</ele><time>2026-04-06T09:14:25Z</time></trkpt><trkpt lat="38.56073134713481" lon="16.31531703348001"><ele>826.3333333333333</ele><time>2026-04-06T09:14:26Z</time></trkpt><trkpt lat="38.56065560125913" lon="16.31528234472129"><ele>824.6666666666666</ele><time>2026-04-06T09:14:27Z</time></trkpt><trkpt lat="38.560580204697736" lon="16.315252078562867"><ele>823.0</ele><time>2026-04-06T09:14:28Z</time></trkpt><trkpt lat="38.560510138991184" lon="16.315201549385474"><ele>823.0</ele><time>2026-04-06T09:14:29Z</time></trkpt><trkpt lat="38.560435087886546" lon="16.315149665972662"><ele>823.0</ele><time>2026-04-06T09:14:30Z</time></trkpt><trkpt lat="38.5603698004145" lon="16.31511860091178"><ele>823.0</ele><time>2026-04-06T09:14:31Z</time></trkpt><trkpt lat="38.560307209510626" lon="16.315086522726983"><ele>823.0</ele><time>2026-04-06T09:14:32Z</time></trkpt><trkpt lat="38.56024080856843" lon="16.315052518430942"><ele>823.0</ele><time>2026-04-06T09:14:33Z</time></trkpt><trkpt lat="38.56017573454119" lon="16.31501780064302"><ele>823.0</ele><time>2026-04-06T09:14:34Z</time></trkpt><trkpt lat="38.560111635385965" lon="16.31498829168166"><ele>823.0</ele><time>2026-04-06T09:14:35Z</time></trkpt><trkpt lat="38.56000383978833" lon="16.314940012445934"><ele>822.8</ele><time>2026-04-06T09:14:37Z</time></trkpt><trkpt lat="38.559909683281084" lon="16.314896294852513"><ele>822.5999999999999</ele><time>2026-04-06T09:14:39Z</time></trkpt><trkpt lat="38.55978797590951" lon="16.314852710152593"><ele>822.4000000000001</ele><time>2026-04-06T09:14:41Z</time></trkpt><trkpt lat="38.55970758667048" lon="16.31478946869705"><ele>822.2</ele><time>2026-04-06T09:14:42Z</time></trkpt><trkpt lat="38.55960137919934" lon="16.31473825171938"><ele>822.0</ele><time>2026-04-06T09:14:43Z</time></trkpt><trkpt lat="38.559468405694076" lon="16.314674122185323"><ele>824.0</ele><time>2026-04-06T09:14:44Z</time></trkpt><trkpt lat="38.55934480520926" lon="16.314614428513813"><ele>826.0</ele><time>2026-04-06T09:14:45Z</time></trkpt><trkpt lat="38.55923506920404" lon="16.314561430750036"><ele>828.0</ele><time>2026-04-06T09:14:46Z</time></trkpt><trkpt lat="38.559141354202644" lon="16.314518584344103"><ele>830.0</ele><time>2026-04-06T09:14:47Z</time></trkpt><trkpt lat="38.55905279418571" lon="16.314484099167416"><ele>832.0</ele><time>2026-04-06T09:14:48Z</time></trkpt><trkpt lat="38.55895756189089" lon="16.314466449106"><ele>832.0</ele><time>2026-04-06T09:14:49Z</time></trkpt><trkpt lat="38.55882503349214" lon="16.314411115869177"><ele>832.0</ele><time>2026-04-06T09:14:50Z</time></trkpt><trkpt lat="38.55872198551196" lon="16.314379224751587"><ele>832.0</ele><time>2026-04-06T09:14:51Z</time></trkpt><trkpt lat="38.55863822805151" lon="16.314387048486157"><ele>832.0</ele><time>2026-04-06T09:14:52Z</time></trkpt><trkpt lat="38.558518664894635" lon="16.314350063838383"><ele>832.5</ele><time>2026-04-06T09:14:53Z</time></trkpt><trkpt lat="38.558400512514524" lon="16.31431009306406"><ele>833.0</ele><time>2026-04-06T09:14:54Z</time></trkpt><trkpt lat="38.558277759073526" lon="16.314264204983278"><ele>833.5</ele><time>2026-04-06T09:14:55Z</time></trkpt><trkpt lat="38.55815191824054" lon="16.3142186862173"><ele>834.0</ele><time>2026-04-06T09:14:56Z</time></trkpt><trkpt lat="38.558038193008855" lon="16.314178822466552"><ele>834.0</ele><time>2026-04-06T09:14:57Z</time></trkpt><trkpt lat="38.55791607750538" lon="16.31413224741722"><ele>834.0</ele><time>2026-04-06T09:14:58Z</time></trkpt><trkpt lat="38.5577851688815" lon="16.31409375752325"><ele>834.0</ele><time>2026-04-06T09:14:59Z</time></trkpt><trkpt lat="38.557656689357266" lon="16.314026283410442"><ele>834.0</ele><time>2026-04-06T09:15:00Z</time></trkpt><trkpt lat="38.557543030635735" lon="16.31397227139481"><ele>833.8000000000001</ele><time>2026-04-06T09:15:01Z</time></trkpt><trkpt lat="38.55746318756322" lon="16.313916016203187"><ele>833.6</ele><time>2026-04-06T09:15:02Z</time></trkpt><trkpt lat="38.55734546305205" lon="16.31387621906016"><ele>833.4</ele><time>2026-04-06T09:15:03Z</time></trkpt><trkpt lat="38.55723771501632" lon="16.313827997436675"><ele>833.2</ele><time>2026-04-06T09:15:04Z</time></trkpt><trkpt lat="38.55713940049136" lon="16.313794738420846"><ele>833.0</ele><time>2026-04-06T09:15:05Z</time></trkpt><trkpt lat="38.557051919750485" lon="16.313767647360116"><ele>833.4</ele><time>2026-04-06T09:15:06Z</time></trkpt><trkpt lat="38.556955356063916" lon="16.313731074377266"><ele>833.8</ele><time>2026-04-06T09:15:07Z</time></trkpt><trkpt lat="38.5568523451737" lon="16.31370538179607"><ele>834.2</ele><time>2026-04-06T09:15:08Z</time></trkpt><trkpt lat="38.55675079531153" lon="16.313670341487303"><ele>834.6</ele><time>2026-04-06T09:15:09Z</time></trkpt><trkpt lat="38.55664856610237" lon="16.31362682811015"><ele>835.0</ele><time>2026-04-06T09:15:10Z</time></trkpt><trkpt lat="38.556544495109" lon="16.313588239154278"><ele>835.0</ele><time>2026-04-06T09:15:11Z</time></trkpt><trkpt lat="38.55644038721224" lon="16.313550824138083"><ele>835.0</ele><time>2026-04-06T09:15:12Z</time></trkpt><trkpt lat="38.556336319866965" lon="16.313513834727168"><ele>835.0</ele><time>2026-04-06T09:15:13Z</time></trkpt><trkpt lat="38.556248951539146" lon="16.31344038472466"><ele>835.0</ele><time>2026-04-06T09:15:14Z</time></trkpt><trkpt lat="38.55616504421085" lon="16.313397817035156"><ele>835.0</ele><time>2026-04-06T09:15:15Z</time></trkpt><trkpt lat="38.556073427927316" lon="16.31336926811722"><ele>833.8</ele><time>2026-04-06T09:15:16Z</time></trkpt><trkpt lat="38.55598748301978" lon="16.313318726759356"><ele>832.6</ele><time>2026-04-06T09:15:17Z</time></trkpt><trkpt lat="38.555903114502655" lon="16.3132658251892"><ele>831.4000000000001</ele><time>2026-04-06T09:15:18Z</time></trkpt><trkpt lat="38.55581813058473" lon="16.313214496905157"><ele>830.2</ele><time>2026-04-06T09:15:19Z</time></trkpt><trkpt lat="38.555734685222646" lon="16.31316186769338"><ele>829.0</ele><time>2026-04-06T09:15:20Z</time></trkpt><trkpt lat="38.55565026890045" lon="16.313111645353864"><ele>829.9999999999999</ele><time>2026-04-06T09:15:21Z</time></trkpt><trkpt lat="38.55557143761935" lon="16.31306459631135"><ele>831.0</ele><time>2026-04-06T09:15:22Z</time></trkpt><trkpt lat="38.5555023418358" lon="16.312998721309768"><ele>832.0</ele><time>2026-04-06T09:15:23Z</time></trkpt><trkpt lat="38.55542886623918" lon="16.31295146424914"><ele>833.0</ele><time>2026-04-06T09:15:24Z</time></trkpt><trkpt lat="38.555358942649455" lon="16.312906491724494"><ele>833.9999999999999</ele><time>2026-04-06T09:15:25Z</time></trkpt><trkpt lat="38.555298616244606" lon="16.312864988967938"><ele>835.0</ele><time>2026-04-06T09:15:26Z</time></trkpt><trkpt lat="38.55524006357064" lon="16.312824092964906"><ele>835.8333333333333</ele><time>2026-04-06T09:15:27Z</time></trkpt><trkpt lat="38.55515292049533" lon="16.312768206633038"><ele>836.6666666666666</ele><time>2026-04-06T09:15:29Z</time></trkpt><trkpt lat="38.5550782445205" lon="16.31274457234457"><ele>837.5</ele><time>2026-04-06T09:15:32Z</time></trkpt><trkpt lat="38.555004578474986" lon="16.312724820511665"><ele>838.3333333333333</ele><time>2026-04-06T09:15:35Z</time></trkpt><trkpt lat="38.554969924275035" lon="16.312806239283944"><ele>839.1666666666666</ele><time>2026-04-06T09:16:39Z</time></trkpt><trkpt lat="38.55494056243898" lon="16.312900541939317"><ele>840.0</ele><time>2026-04-06T09:17:06Z</time></trkpt><trkpt lat="38.554869351369646" lon="16.312827539843088"><ele>840.0</ele><time>2026-04-06T09:17:13.001Z</time></trkpt><trkpt lat="38.55486577410872" lon="16.312746762378584"><ele>840.0</ele><time>2026-04-06T09:17:31.001Z</time></trkpt><trkpt lat="38.55491952003568" lon="16.312645228705357"><ele>840.0</ele><time>2026-04-06T09:18:20Z</time></trkpt><trkpt lat="38.554870923874994" lon="16.312707720388154"><ele>840.0</ele><time>2026-04-06T09:18:46Z</time></trkpt><trkpt lat="38.55482021759499" lon="16.312768000828864"><ele>840.0</ele><time>2026-04-06T09:18:52Z</time></trkpt><trkpt lat="38.554723556155956" lon="16.31264731221054"><ele>840.0</ele><time>2026-04-06T09:19:27.001Z</time></trkpt><trkpt lat="38.55466081237142" lon="16.31267183420091"><ele>840.0</ele><time>2026-04-06T09:19:29.001Z</time></trkpt><trkpt lat="38.554687636251906" lon="16.312586384314354"><ele>840.0</ele><time>2026-04-06T09:20:00.001Z</time></trkpt><trkpt lat="38.55465753211398" lon="16.31251293759641"><ele>840.0</ele><time>2026-04-06T09:20:10Z</time></trkpt><trkpt lat="38.55470660656477" lon="16.312571181989835"><ele>840.0</ele><time>2026-04-06T09:20:23Z</time></trkpt><trkpt lat="38.554762350089916" lon="16.312613729065635"><ele>840.0</ele><time>2026-04-06T09:20:31Z</time></trkpt><trkpt lat="38.55481763007156" lon="16.312661479942776"><ele>840.0</ele><time>2026-04-06T09:20:40Z</time></trkpt><trkpt lat="38.55487039895969" lon="16.31272202034194"><ele>840.0</ele><time>2026-04-06T09:20:50Z</time></trkpt><trkpt lat="38.554928208362696" lon="16.31276108292951"><ele>840.0</ele><time>2026-04-06T09:20:59Z</time></trkpt><trkpt lat="38.55499602144517" lon="16.31278869951072"><ele>840.0</ele><time>2026-04-06T09:21:07Z</time></trkpt><trkpt lat="38.55506336202097" lon="16.31278375462522"><ele>840.0</ele><time>2026-04-06T09:21:15Z</time></trkpt><trkpt lat="38.55501843201378" lon="16.312896141744947"><ele>840.0</ele><time>2026-04-06T09:22:03Z</time></trkpt><trkpt lat="38.55497305746853" lon="16.312817538933782"><ele>840.0</ele><time>2026-04-06T09:22:45.999Z</time></trkpt><trkpt lat="38.554916230519396" lon="16.312772851285096"><ele>840.0</ele><time>2026-04-06T09:22:52Z</time></trkpt><trkpt lat="38.554992060828866" lon="16.312766926902192"><ele>840.0</ele><time>2026-04-06T09:23:17Z</time></trkpt><trkpt lat="38.555077655065055" lon="16.312775796849728"><ele>840.0</ele><time>2026-04-06T09:26:14.001Z</time></trkpt><trkpt lat="38.5551513214901" lon="16.312805311349972"><ele>840.0</ele><time>2026-04-06T09:26:15.001Z</time></trkpt><trkpt lat="38.555248733459145" lon="16.31286454774526"><ele>840.0</ele><time>2026-04-06T09:26:16.001Z</time></trkpt><trkpt lat="38.55536064659702" lon="16.31295169181782"><ele>840.0</ele><time>2026-04-06T09:26:17.001Z</time></trkpt><trkpt lat="38.555416426628696" lon="16.31303426995789"><ele>837.8</ele><time>2026-04-06T09:26:18.001Z</time></trkpt><trkpt lat="38.55552571644503" lon="16.31307865127264"><ele>835.6</ele><time>2026-04-06T09:26:20.001Z</time></trkpt><trkpt lat="38.55559443666926" lon="16.313120854060234"><ele>833.4000000000001</ele><time>2026-04-06T09:26:21.001Z</time></trkpt><trkpt lat="38.555691111399796" lon="16.313144132175438"><ele>831.2</ele><time>2026-04-06T09:26:23.001Z</time></trkpt><trkpt lat="38.5557534731898" lon="16.313214735171282"><ele>829.0</ele><time>2026-04-06T09:26:24.001Z</time></trkpt><trkpt lat="38.55583964698979" lon="16.313247777417168"><ele>828.9999999999999</ele><time>2026-04-06T09:26:25.001Z</time></trkpt><trkpt lat="38.55589945277734" lon="16.31328915818082"><ele>829.0</ele><time>2026-04-06T09:26:26.001Z</time></trkpt><trkpt lat="38.55599289625924" lon="16.313338992172543"><ele>829.0</ele><time>2026-04-06T09:26:28.001Z</time></trkpt><trkpt lat="38.556077245799884" lon="16.313385864070156"><ele>829.0</ele><time>2026-04-06T09:26:30.001Z</time></trkpt><trkpt lat="38.55615625410678" lon="16.313429810685754"><ele>828.9999999999999</ele><time>2026-04-06T09:26:32.001Z</time></trkpt><trkpt lat="38.55622971337642" lon="16.313464438400615"><ele>829.0</ele><time>2026-04-06T09:26:34.001Z</time></trkpt><trkpt lat="38.55628807553911" lon="16.313500099811673"><ele>829.8571428571429</ele><time>2026-04-06T09:26:36.001Z</time></trkpt><trkpt lat="38.5563584243861" lon="16.313528845636956"><ele>830.7142857142857</ele><time>2026-04-06T09:26:40.001Z</time></trkpt><trkpt lat="38.55641883064939" lon="16.313551842058374"><ele>831.5714285714287</ele><time>2026-04-06T09:26:45.001Z</time></trkpt><trkpt lat="38.55649240768595" lon="16.313570899860224"><ele>832.4285714285714</ele><time>2026-04-06T09:26:49.001Z</time></trkpt><trkpt lat="38.556552018432185" lon="16.313613010202396"><ele>833.2857142857143</ele><time>2026-04-06T09:26:52.001Z</time></trkpt><trkpt lat="38.55661372566468" lon="16.313636176925485"><ele>834.1428571428572</ele><time>2026-04-06T09:26:55.001Z</time></trkpt><trkpt lat="38.55667627770763" lon="16.31365935440567"><ele>835.0</ele><time>2026-04-06T09:26:58.001Z</time></trkpt><trkpt lat="38.55674238576339" lon="16.313683849471307"><ele>834.9999999999999</ele><time>2026-04-06T09:27:01.001Z</time></trkpt><trkpt lat="38.55681229263364" lon="16.313711326158717"><ele>835.0</ele><time>2026-04-06T09:27:04.001Z</time></trkpt><trkpt lat="38.55689162160007" lon="16.313742801140307"><ele>835.0</ele><time>2026-04-06T09:27:07.001Z</time></trkpt><trkpt lat="38.55695693832957" lon="16.313754495175935"><ele>835.0</ele><time>2026-04-06T09:27:09.001Z</time></trkpt><trkpt lat="38.55703777820272" lon="16.313790427847817"><ele>834.9999999999999</ele><time>2026-04-06T09:27:12.001Z</time></trkpt><trkpt lat="38.55711131965126" lon="16.31382910139866"><ele>835.0</ele><time>2026-04-06T09:27:14.001Z</time></trkpt><trkpt lat="38.55723455131498" lon="16.31386536787471"><ele>834.6</ele><time>2026-04-06T09:27:16.001Z</time></trkpt><trkpt lat="38.557310482344874" lon="16.313911197648995"><ele>834.2</ele><time>2026-04-06T09:27:17.001Z</time></trkpt><trkpt lat="38.55740956802281" lon="16.31395203993062"><ele>833.8</ele><time>2026-04-06T09:27:18.001Z</time></trkpt><trkpt lat="38.55751605505443" lon="16.313995962855877"><ele>833.4</ele><time>2026-04-06T09:27:19.001Z</time></trkpt><trkpt lat="38.55759637616297" lon="16.31402909304708"><ele>833.0</ele><time>2026-04-06T09:27:20.001Z</time></trkpt><trkpt lat="38.55767237366153" lon="16.314060439922397"><ele>833.0</ele><time>2026-04-06T09:27:21.001Z</time></trkpt><trkpt lat="38.5577592618092" lon="16.31409627885244"><ele>833.0</ele><time>2026-04-06T09:27:22.001Z</time></trkpt><trkpt lat="38.557864263607925" lon="16.314118397180703"><ele>833.0</ele><time>2026-04-06T09:27:23.001Z</time></trkpt><trkpt lat="38.55796481416615" lon="16.31416055330078"><ele>833.0</ele><time>2026-04-06T09:27:24.001Z</time></trkpt><trkpt lat="38.558071259874396" lon="16.314211774822134"><ele>833.0</ele><time>2026-04-06T09:27:25.001Z</time></trkpt><trkpt lat="38.5581861328598" lon="16.314262606359556"><ele>833.25</ele><time>2026-04-06T09:27:26.001Z</time></trkpt><trkpt lat="38.558303843027076" lon="16.3143095751603"><ele>833.5</ele><time>2026-04-06T09:27:27.001Z</time></trkpt><trkpt lat="38.55842056130516" lon="16.31435544384869"><ele>833.75</ele><time>2026-04-06T09:27:28.001Z</time></trkpt><trkpt lat="38.55853001208258" lon="16.314397715041824"><ele>834.0</ele><time>2026-04-06T09:27:29.001Z</time></trkpt><trkpt lat="38.55863106877001" lon="16.31442167808899"><ele>833.6</ele><time>2026-04-06T09:27:30.001Z</time></trkpt><trkpt lat="38.55873368177178" lon="16.314430377726296"><ele>833.2</ele><time>2026-04-06T09:27:31.001Z</time></trkpt><trkpt lat="38.55882994466589" lon="16.314469006073857"><ele>832.8000000000001</ele><time>2026-04-06T09:27:32.001Z</time></trkpt><trkpt lat="38.55894029817972" lon="16.314492063029697"><ele>832.4000000000001</ele><time>2026-04-06T09:27:33.001Z</time></trkpt><trkpt lat="38.55906481593798" lon="16.314516555552363"><ele>832.0</ele><time>2026-04-06T09:27:34.001Z</time></trkpt><trkpt lat="38.55919174757452" lon="16.314577712440403"><ele>832.0</ele><time>2026-04-06T09:27:35.001Z</time></trkpt><trkpt lat="38.55933872498311" lon="16.314655524321747"><ele>832.0</ele><time>2026-04-06T09:27:36.001Z</time></trkpt><trkpt lat="38.55948861843076" lon="16.31473032623093"><ele>832.0</ele><time>2026-04-06T09:27:37.001Z</time></trkpt><trkpt lat="38.55961676916047" lon="16.3147945175326"><ele>829.5</ele><time>2026-04-06T09:27:38.001Z</time></trkpt><trkpt lat="38.55972890450516" lon="16.314852661148592"><ele>827.0</ele><time>2026-04-06T09:27:39.001Z</time></trkpt><trkpt lat="38.55987184630994" lon="16.314921723854667"><ele>824.5</ele><time>2026-04-06T09:27:40.001Z</time></trkpt><trkpt lat="38.559995346233734" lon="16.314974703016702"><ele>822.0</ele><time>2026-04-06T09:27:41.001Z</time></trkpt><trkpt lat="38.5600997103985" lon="16.31501860638202"><ele>822.0</ele><time>2026-04-06T09:27:42.001Z</time></trkpt><trkpt lat="38.560183132387536" lon="16.31504885771559"><ele>822.0</ele><time>2026-04-06T09:27:43.001Z</time></trkpt><trkpt lat="38.560239299303895" lon="16.315097839588702"><ele>822.0</ele><time>2026-04-06T09:27:44.001Z</time></trkpt><trkpt lat="38.56035402755888" lon="16.315154569347698"><ele>822.0</ele><time>2026-04-06T09:27:46.001Z</time></trkpt><trkpt lat="38.560483223767086" lon="16.31522100189984"><ele>822.0</ele><time>2026-04-06T09:27:48.001Z</time></trkpt><trkpt lat="38.56060110766036" lon="16.31528409556749"><ele>822.1666666666666</ele><time>2026-04-06T09:27:50.001Z</time></trkpt><trkpt lat="38.56067238349619" lon="16.31530072646619"><ele>822.3333333333333</ele><time>2026-04-06T09:27:51.001Z</time></trkpt><trkpt lat="38.56073239608846" lon="16.315356994803896"><ele>822.5</ele><time>2026-04-06T09:27:52.001Z</time></trkpt><trkpt lat="38.56080546562667" lon="16.315379565708266"><ele>822.6666666666666</ele><time>2026-04-06T09:27:53.001Z</time></trkpt><trkpt lat="38.560877291186465" lon="16.315436941080055"><ele>822.8333333333333</ele><time>2026-04-06T09:27:54.001Z</time></trkpt><trkpt lat="38.560963947605416" lon="16.31546677667679"><ele>823.0</ele><time>2026-04-06T09:27:55.001Z</time></trkpt><trkpt lat="38.56104221729365" lon="16.315491667160437"><ele>822.9999999999999</ele><time>2026-04-06T09:27:56.001Z</time></trkpt><trkpt lat="38.5611101288339" lon="16.315507866288293"><ele>823.0</ele><time>2026-04-06T09:27:57.001Z</time></trkpt><trkpt lat="38.56117853062394" lon="16.315487100133737"><ele>823.0</ele><time>2026-04-06T09:27:58.001Z</time></trkpt><trkpt lat="38.56127371541943" lon="16.31546172996159"><ele>823.0</ele><time>2026-04-06T09:27:59.001Z</time></trkpt><trkpt lat="38.561361136461635" lon="16.31545016022304"><ele>822.9999999999999</ele><time>2026-04-06T09:28:00.001Z</time></trkpt><trkpt lat="38.56144555340484" lon="16.315451004778893"><ele>823.0</ele><time>2026-04-06T09:28:01.001Z</time></trkpt><trkpt lat="38.56153228571983" lon="16.31545400004782"><ele>824.6666666666666</ele><time>2026-04-06T09:28:02.001Z</time></trkpt><trkpt lat="38.56162108218382" lon="16.315469596978144"><ele>826.3333333333333</ele><time>2026-04-06T09:28:03.001Z</time></trkpt><trkpt lat="38.56170901370741" lon="16.31549074332643"><ele>828.0</ele><time>2026-04-06T09:28:04.001Z</time></trkpt><trkpt lat="38.56178834742019" lon="16.315516033372667"><ele>829.6666666666667</ele><time>2026-04-06T09:28:05.001Z</time></trkpt><trkpt lat="38.56185969563841" lon="16.315535009104583"><ele>831.3333333333334</ele><time>2026-04-06T09:28:06.001Z</time></trkpt><trkpt lat="38.56193334413693" lon="16.3155504662175"><ele>833.0</ele><time>2026-04-06T09:28:07.001Z</time></trkpt><trkpt lat="38.56200806313309" lon="16.31556830344622"><ele>831.5000000000001</ele><time>2026-04-06T09:28:08.001Z</time></trkpt><trkpt lat="38.562090868624594" lon="16.315582977992165"><ele>830.0</ele><time>2026-04-06T09:28:09.001Z</time></trkpt><trkpt lat="38.56217130300925" lon="16.315592549234058"><ele>828.5</ele><time>2026-04-06T09:28:10.001Z</time></trkpt><trkpt lat="38.56225724993073" lon="16.31560201718047"><ele>827.0</ele><time>2026-04-06T09:28:11.001Z</time></trkpt><trkpt lat="38.56232252183794" lon="16.315594174044687"><ele>825.5000000000001</ele><time>2026-04-06T09:28:12.002Z</time></trkpt><trkpt lat="38.562391165182426" lon="16.315602105691003"><ele>824.0</ele><time>2026-04-06T09:28:13.002Z</time></trkpt><trkpt lat="38.562472361014336" lon="16.315599935223062"><ele>824.0000000000001</ele><time>2026-04-06T09:28:14.002Z</time></trkpt><trkpt lat="38.5625424375848" lon="16.31560051168426"><ele>824.0</ele><time>2026-04-06T09:28:15.002Z</time></trkpt><trkpt lat="38.56260786000139" lon="16.315606970316338"><ele>824.0</ele><time>2026-04-06T09:28:16.002Z</time></trkpt><trkpt lat="38.562709648516915" lon="16.3156179576648"><ele>824.0</ele><time>2026-04-06T09:28:18.002Z</time></trkpt><trkpt lat="38.56279552686918" lon="16.315634758723217"><ele>824.0000000000001</ele><time>2026-04-06T09:28:20.002Z</time></trkpt><trkpt lat="38.562872024689526" lon="16.315656418925965"><ele>824.0</ele><time>2026-04-06T09:28:22.002Z</time></trkpt><trkpt lat="38.56296144505896" lon="16.315674732601558"><ele>824.1666666666667</ele><time>2026-04-06T09:28:24.002Z</time></trkpt><trkpt lat="38.563077130089674" lon="16.315712096435455"><ele>824.3333333333334</ele><time>2026-04-06T09:28:26.002Z</time></trkpt><trkpt lat="38.56314578477017" lon="16.31573690073234"><ele>824.5</ele><time>2026-04-06T09:28:27.002Z</time></trkpt><trkpt lat="38.56322341114933" lon="16.315759032307856"><ele>824.6666666666667</ele><time>2026-04-06T09:28:28.001Z</time></trkpt><trkpt lat="38.56330502679461" lon="16.31578204156147"><ele>824.8333333333334</ele><time>2026-04-06T09:28:29.001Z</time></trkpt><trkpt lat="38.56338265429438" lon="16.315814951706237"><ele>825.0</ele><time>2026-04-06T09:28:30.001Z</time></trkpt><trkpt lat="38.563479296513975" lon="16.315851816714105"><ele>825.0</ele><time>2026-04-06T09:28:31.001Z</time></trkpt><trkpt lat="38.56358085611729" lon="16.315885154609564"><ele>825.0</ele><time>2026-04-06T09:28:32.001Z</time></trkpt><trkpt lat="38.56367725100371" lon="16.315914326912374"><ele>825.0</ele><time>2026-04-06T09:28:33.001Z</time></trkpt><trkpt lat="38.56377737312631" lon="16.315949226456674"><ele>825.0</ele><time>2026-04-06T09:28:34.001Z</time></trkpt><trkpt lat="38.56387121061694" lon="16.315971873402756"><ele>825.0</ele><time>2026-04-06T09:28:35.001Z</time></trkpt><trkpt lat="38.56396714428265" lon="16.315999198739245"><ele>826.0</ele><time>2026-04-06T09:28:36.001Z</time></trkpt><trkpt lat="38.564055127772484" lon="16.31602433663548"><ele>827.0</ele><time>2026-04-06T09:28:37.001Z</time></trkpt><trkpt lat="38.56413836871709" lon="16.316072377523845"><ele>828.0</ele><time>2026-04-06T09:28:38.001Z</time></trkpt><trkpt lat="38.5642259890152" lon="16.316105445516758"><ele>829.0</ele><time>2026-04-06T09:28:39.001Z</time></trkpt><trkpt lat="38.564316018801605" lon="16.31613313534136"><ele>830.0</ele><time>2026-04-06T09:28:40.001Z</time></trkpt><trkpt lat="38.56440875114557" lon="16.316165028199055"><ele>830.0000000000001</ele><time>2026-04-06T09:28:41.001Z</time></trkpt><trkpt lat="38.56450089677502" lon="16.316191025540792"><ele>830.0</ele><time>2026-04-06T09:28:42.001Z</time></trkpt><trkpt lat="38.564594902004615" lon="16.31621046620108"><ele>830.0</ele><time>2026-04-06T09:28:43.001Z</time></trkpt><trkpt lat="38.56467385886762" lon="16.31622672192597"><ele>830.0</ele><time>2026-04-06T09:28:44.001Z</time></trkpt><trkpt lat="38.56476490848551" lon="16.31621989980188"><ele>830.0000000000001</ele><time>2026-04-06T09:28:45.001Z</time></trkpt><trkpt lat="38.56484538894978" lon="16.316234876985416"><ele>830.0</ele><time>2026-04-06T09:28:46.001Z</time></trkpt><trkpt lat="38.56504338924586" lon="16.31628341254317"><ele>830.6</ele><time>2026-04-06T09:28:48.001Z</time></trkpt><trkpt lat="38.56512495904154" lon="16.31630301190915"><ele>831.2</ele><time>2026-04-06T09:28:49.001Z</time></trkpt><trkpt lat="38.565208637551386" lon="16.31632675920778"><ele>831.8</ele><time>2026-04-06T09:28:50.001Z</time></trkpt><trkpt lat="38.56531341542884" lon="16.31636514989224"><ele>832.4</ele><time>2026-04-06T09:28:52.001Z</time></trkpt><trkpt lat="38.56538386906821" lon="16.316370059366538"><ele>833.0</ele><time>2026-04-06T09:28:53.001Z</time></trkpt><trkpt lat="38.56548750836005" lon="16.3164014578876"><ele>831.2857142857143</ele><time>2026-04-06T09:28:55.001Z</time></trkpt><trkpt lat="38.56554130867091" lon="16.31645573104095"><ele>829.5714285714286</ele><time>2026-04-06T09:28:56.001Z</time></trkpt><trkpt lat="38.565602439121896" lon="16.316478954187758"><ele>827.8571428571429</ele><time>2026-04-06T09:28:57.001Z</time></trkpt><trkpt lat="38.565657142773944" lon="16.316536089985302"><ele>826.1428571428571</ele><time>2026-04-06T09:28:58.001Z</time></trkpt><trkpt lat="38.56574563724109" lon="16.316600871851513"><ele>824.4285714285714</ele><time>2026-04-06T09:29:00.001Z</time></trkpt><trkpt lat="38.565809555920495" lon="16.316648420149466"><ele>822.7142857142858</ele><time>2026-04-06T09:29:02.001Z</time></trkpt><trkpt lat="38.565870591367215" lon="16.31668516281118"><ele>821.0</ele><time>2026-04-06T09:29:04.001Z</time></trkpt><trkpt lat="38.565945107187424" lon="16.31673294175348"><ele>821.0000000000001</ele><time>2026-04-06T09:29:07.001Z</time></trkpt><trkpt lat="38.56601343552915" lon="16.316785734028223"><ele>821.0</ele><time>2026-04-06T09:29:10.001Z</time></trkpt><trkpt lat="38.56607722858315" lon="16.31683509262681"><ele>821.0</ele><time>2026-04-06T09:29:12.001Z</time></trkpt><trkpt lat="38.56614753181909" lon="16.316896438148405"><ele>821.0</ele><time>2026-04-06T09:29:14.001Z</time></trkpt><trkpt lat="38.566217560767555" lon="16.31694488715532"><ele>821.0000000000001</ele><time>2026-04-06T09:29:17.001Z</time></trkpt><trkpt lat="38.5662976853217" lon="16.316975899966316"><ele>821.0</ele><time>2026-04-06T09:29:20.001Z</time></trkpt><trkpt lat="38.56636880199181" lon="16.317022867937897"><ele>821.0000000000001</ele><time>2026-04-06T09:29:22.001Z</time></trkpt><trkpt lat="38.56646177556057" lon="16.317097845832688"><ele>821.0</ele><time>2026-04-06T09:29:24.001Z</time></trkpt><trkpt lat="38.566521553937925" lon="16.317131993661533"><ele>821.0</ele><time>2026-04-06T09:29:25.001Z</time></trkpt><trkpt lat="38.56658728543922" lon="16.317168933764158"><ele>821.0</ele><time>2026-04-06T09:29:26.001Z</time></trkpt><trkpt lat="38.56665139642532" lon="16.317206454417764"><ele>821.0000000000001</ele><time>2026-04-06T09:29:27.001Z</time></trkpt><trkpt lat="38.566721243458176" lon="16.31724285080174"><ele>821.0</ele><time>2026-04-06T09:29:28.001Z</time></trkpt><trkpt lat="38.56677971436358" lon="16.317278191034138"><ele>821.0000000000001</ele><time>2026-04-06T09:29:29.001Z</time></trkpt><trkpt lat="38.56682970521712" lon="16.31733109623003"><ele>821.0</ele><time>2026-04-06T09:29:30.001Z</time></trkpt><trkpt lat="38.566892279607856" lon="16.31735846908233"><ele>821.0</ele><time>2026-04-06T09:29:31.001Z</time></trkpt><trkpt lat="38.56696049793165" lon="16.317464375154362"><ele>821.0</ele><time>2026-04-06T09:29:33.001Z</time></trkpt><trkpt lat="38.566974348469465" lon="16.317548305227884"><ele>821.0000000000001</ele><time>2026-04-06T09:29:35.001Z</time></trkpt><trkpt lat="38.56695725353217" lon="16.317656402129067"><ele>821.0</ele><time>2026-04-06T09:29:37.001Z</time></trkpt><trkpt lat="38.566894729447235" lon="16.317790391989536"><ele>821.0000000000001</ele><time>2026-04-06T09:29:39.001Z</time></trkpt><trkpt lat="38.56684421426637" lon="16.317860849831685"><ele>821.0</ele><time>2026-04-06T09:29:40.001Z</time></trkpt><trkpt lat="38.56676507157922" lon="16.317912265908618"><ele>821.0</ele><time>2026-04-06T09:29:41.001Z</time></trkpt><trkpt lat="38.56667935234975" lon="16.317984161817314"><ele>821.0</ele><time>2026-04-06T09:29:42.001Z</time></trkpt><trkpt lat="38.56660465867412" lon="16.318046594644684"><ele>821.0000000000001</ele><time>2026-04-06T09:29:43.001Z</time></trkpt><trkpt lat="38.56654222847503" lon="16.318104027483137"><ele>821.0</ele><time>2026-04-06T09:29:44.001Z</time></trkpt><trkpt lat="38.56645643604701" lon="16.31819164126195"><ele>821.0</ele><time>2026-04-06T09:29:46.001Z</time></trkpt><trkpt lat="38.566374399633915" lon="16.318315863018388"><ele>821.0</ele><time>2026-04-06T09:29:48.001Z</time></trkpt><trkpt lat="38.56637536351161" lon="16.318453767192135"><ele>821.0</ele><time>2026-04-06T09:29:49.001Z</time></trkpt><trkpt lat="38.56642919426643" lon="16.31859633098992"><ele>821.0</ele><time>2026-04-06T09:29:50.001Z</time></trkpt><trkpt lat="38.56651044891015" lon="16.31870663621096"><ele>821.0</ele><time>2026-04-06T09:29:51.001Z</time></trkpt><trkpt lat="38.56658997376683" lon="16.31880983014723"><ele>821.0</ele><time>2026-04-06T09:29:52.001Z</time></trkpt><trkpt lat="38.56667135285981" lon="16.318915225174113"><ele>821.0</ele><time>2026-04-06T09:29:53.001Z</time></trkpt><trkpt lat="38.56676467926964" lon="16.319034896513433"><ele>821.0</ele><time>2026-04-06T09:29:54.001Z</time></trkpt><trkpt lat="38.56686400076708" lon="16.319158731346672"><ele>821.25</ele><time>2026-04-06T09:29:55.001Z</time></trkpt><trkpt lat="38.56697245204495" lon="16.319271551554063"><ele>821.5</ele><time>2026-04-06T09:29:56.001Z</time></trkpt><trkpt lat="38.56707019215984" lon="16.319406462196934"><ele>821.75</ele><time>2026-04-06T09:29:57.001Z</time></trkpt><trkpt lat="38.56716362278609" lon="16.319532331305602"><ele>822.0</ele><time>2026-04-06T09:29:58.001Z</time></trkpt><trkpt lat="38.567256906725945" lon="16.319643931088244"><ele>821.25</ele><time>2026-04-06T09:29:59.001Z</time></trkpt><trkpt lat="38.567342792887814" lon="16.319727909891665"><ele>820.5</ele><time>2026-04-06T09:30:00.001Z</time></trkpt><trkpt lat="38.567427532710994" lon="16.3198321543791"><ele>819.75</ele><time>2026-04-06T09:30:01.001Z</time></trkpt><trkpt lat="38.56750460832274" lon="16.31995400923787"><ele>819.0</ele><time>2026-04-06T09:30:02.001Z</time></trkpt><trkpt lat="38.567586805678815" lon="16.320061155941314"><ele>819.0</ele><time>2026-04-06T09:30:03.001Z</time></trkpt><trkpt lat="38.56766804747989" lon="16.320164331404435"><ele>819.0</ele><time>2026-04-06T09:30:04.001Z</time></trkpt><trkpt lat="38.56774741229565" lon="16.32026879464327"><ele>819.0</ele><time>2026-04-06T09:30:05.001Z</time></trkpt><trkpt lat="38.56783446225831" lon="16.32038953262336"><ele>819.0</ele><time>2026-04-06T09:30:06.001Z</time></trkpt><trkpt lat="38.56791129897678" lon="16.32050652292409"><ele>817.75</ele><time>2026-04-06T09:30:07.001Z</time></trkpt><trkpt lat="38.56798689618382" lon="16.320634605819244"><ele>816.5</ele><time>2026-04-06T09:30:08.001Z</time></trkpt><trkpt lat="38.5680685924869" lon="16.320779221216497"><ele>815.25</ele><time>2026-04-06T09:30:09.001Z</time></trkpt><trkpt lat="38.56815638008441" lon="16.320940935220495"><ele>814.0</ele><time>2026-04-06T09:30:10.001Z</time></trkpt><trkpt lat="38.56825096036935" lon="16.321109783276043"><ele>814.0</ele><time>2026-04-06T09:30:11.001Z</time></trkpt><trkpt lat="38.56834955074721" lon="16.32128492362924"><ele>814.0</ele><time>2026-04-06T09:30:12.001Z</time></trkpt><trkpt lat="38.568456368486174" lon="16.321454633295073"><ele>814.0</ele><time>2026-04-06T09:30:13.001Z</time></trkpt><trkpt lat="38.56855452212044" lon="16.321631885564134"><ele>812.6666666666666</ele><time>2026-04-06T09:30:14.001Z</time></trkpt><trkpt lat="38.568657480356116" lon="16.321808409608625"><ele>811.3333333333333</ele><time>2026-04-06T09:30:15.001Z</time></trkpt><trkpt lat="38.568743776020675" lon="16.321972146634938"><ele>810.0</ele><time>2026-04-06T09:30:16.001Z</time></trkpt><trkpt lat="38.568835347587296" lon="16.32213354053226"><ele>812.0</ele><time>2026-04-06T09:30:17.001Z</time></trkpt><trkpt lat="38.568931291377105" lon="16.3222922563837"><ele>814.0</ele><time>2026-04-06T09:30:18.001Z</time></trkpt><trkpt lat="38.56901527600852" lon="16.322432208562837"><ele>816.0</ele><time>2026-04-06T09:30:19.001Z</time></trkpt><trkpt lat="38.56909279348796" lon="16.322605083318944"><ele>816.0</ele><time>2026-04-06T09:30:20.001Z</time></trkpt><trkpt lat="38.56918930977111" lon="16.322773822016405"><ele>816.0</ele><time>2026-04-06T09:30:21.001Z</time></trkpt><trkpt lat="38.56929014803598" lon="16.322932674836466"><ele>816.0</ele><time>2026-04-06T09:30:22.001Z</time></trkpt><trkpt lat="38.569388333394215" lon="16.323098098034805"><ele>815.75</ele><time>2026-04-06T09:30:23.001Z</time></trkpt><trkpt lat="38.569462062011596" lon="16.3232178727059"><ele>815.5</ele><time>2026-04-06T09:30:24.001Z</time></trkpt><trkpt lat="38.5695626966313" lon="16.323345774651386"><ele>815.25</ele><time>2026-04-06T09:30:25.001Z</time></trkpt><trkpt lat="38.56966728329314" lon="16.32345774999842"><ele>815.0</ele><time>2026-04-06T09:30:26.001Z</time></trkpt><trkpt lat="38.569773960941816" lon="16.32357730801806"><ele>814.6666666666667</ele><time>2026-04-06T09:30:27.001Z</time></trkpt><trkpt lat="38.569904578078884" lon="16.323698941358007"><ele>814.3333333333333</ele><time>2026-04-06T09:30:28.001Z</time></trkpt><trkpt lat="38.570033419395536" lon="16.323816518786725"><ele>814.0</ele><time>2026-04-06T09:30:29.001Z</time></trkpt><trkpt lat="38.570136093408365" lon="16.323924804527643"><ele>813.75</ele><time>2026-04-06T09:30:30.001Z</time></trkpt><trkpt lat="38.570248824162384" lon="16.324035984299755"><ele>813.5</ele><time>2026-04-06T09:30:31.001Z</time></trkpt><trkpt lat="38.5703700754522" lon="16.324146375149436"><ele>813.25</ele><time>2026-04-06T09:30:32.001Z</time></trkpt><trkpt lat="38.57048668375428" lon="16.324255627158177"><ele>813.0</ele><time>2026-04-06T09:30:33.001Z</time></trkpt><trkpt lat="38.570582197519485" lon="16.324350563039005"><ele>813.25</ele><time>2026-04-06T09:30:34.001Z</time></trkpt><trkpt lat="38.570699872935656" lon="16.32445540703463"><ele>813.5</ele><time>2026-04-06T09:30:35.001Z</time></trkpt><trkpt lat="38.57081152008624" lon="16.32455214718262"><ele>813.75</ele><time>2026-04-06T09:30:36.001Z</time></trkpt><trkpt lat="38.57091384172253" lon="16.32466623616542"><ele>814.0</ele><time>2026-04-06T09:30:37.001Z</time></trkpt><trkpt lat="38.57099431903198" lon="16.324763406447552"><ele>813.9999999999999</ele><time>2026-04-06T09:30:38.001Z</time></trkpt><trkpt lat="38.571047356549464" lon="16.324836146424467"><ele>814.0</ele><time>2026-04-06T09:30:39.001Z</time></trkpt><trkpt lat="38.57111901542075" lon="16.32488134165272"><ele>814.0</ele><time>2026-04-06T09:30:40Z</time></trkpt><trkpt lat="38.57117160933365" lon="16.324928311460663"><ele>814.0</ele><time>2026-04-06T09:30:41Z</time></trkpt><trkpt lat="38.5712658272019" lon="16.32502992738096"><ele>813.9999999999999</ele><time>2026-04-06T09:30:43Z</time></trkpt><trkpt lat="38.571318962993594" lon="16.325080607342052"><ele>814.0</ele><time>2026-04-06T09:30:44Z</time></trkpt><trkpt lat="38.57134655315593" lon="16.32515484810476"><ele>814.0</ele><time>2026-04-06T09:30:46Z</time></trkpt><trkpt lat="38.5713764022888" lon="16.32525651514156"><ele>814.0</ele><time>2026-04-06T09:30:49Z</time></trkpt><trkpt lat="38.57122099841663" lon="16.325332179939192"><ele>814.0</ele><time>2026-04-06T09:30:51Z</time></trkpt><trkpt lat="38.57113768225585" lon="16.325338306439292"><ele>814.0</ele><time>2026-04-06T09:30:52Z</time></trkpt><trkpt lat="38.571048164722804" lon="16.32535108305775"><ele>814.0</ele><time>2026-04-06T09:30:53Z</time></trkpt><trkpt lat="38.57094539878793" lon="16.32535437386494"><ele>814.0</ele><time>2026-04-06T09:30:54Z</time></trkpt><trkpt lat="38.57083913621868" lon="16.325344913968582"><ele>814.0</ele><time>2026-04-06T09:30:55Z</time></trkpt><trkpt lat="38.57073417210864" lon="16.325346883951987"><ele>814.0</ele><time>2026-04-06T09:30:56Z</time></trkpt><trkpt lat="38.57063861170324" lon="16.32534779069154"><ele>814.0</ele><time>2026-04-06T09:30:57Z</time></trkpt><trkpt lat="38.570545653974186" lon="16.32535257182941"><ele>814.0</ele><time>2026-04-06T09:30:58Z</time></trkpt><trkpt lat="38.57044083443053" lon="16.32536561613871"><ele>813.3333333333333</ele><time>2026-04-06T09:30:59Z</time></trkpt><trkpt lat="38.570350741210675" lon="16.325382742049225"><ele>812.6666666666666</ele><time>2026-04-06T09:31:00Z</time></trkpt><trkpt lat="38.57028259535205" lon="16.32540370896042"><ele>812.0</ele><time>2026-04-06T09:31:01Z</time></trkpt><trkpt lat="38.570191958338214" lon="16.325412370813375"><ele>811.3333333333333</ele><time>2026-04-06T09:31:03Z</time></trkpt><trkpt lat="38.57012031209898" lon="16.32540792573405"><ele>810.6666666666666</ele><time>2026-04-06T09:31:05Z</time></trkpt><trkpt lat="38.57005673045986" lon="16.325413046388917"><ele>810.0</ele><time>2026-04-06T09:31:07Z</time></trkpt><trkpt lat="38.570022742127435" lon="16.325589421730598"><ele>810.0</ele><time>2026-04-06T09:31:09Z</time></trkpt><trkpt lat="38.56994879201854" lon="16.325618099064258"><ele>810.0</ele><time>2026-04-06T09:31:12Z</time></trkpt><trkpt lat="38.56992654562916" lon="16.325447325754467"><ele>810.0</ele><time>2026-04-06T09:31:13Z</time></trkpt><trkpt lat="38.56996264385485" lon="16.325731044847675"><ele>810.0</ele><time>2026-04-06T09:31:14Z</time></trkpt><trkpt lat="38.570056086283806" lon="16.325809337744346"><ele>810.0</ele><time>2026-04-06T09:31:16Z</time></trkpt><trkpt lat="38.57014882093469" lon="16.32569002485991"><ele>810.0</ele><time>2026-04-06T09:31:18Z</time></trkpt><trkpt lat="38.57021318295166" lon="16.325690024858954"><ele>810.0</ele><time>2026-04-06T09:31:20Z</time></trkpt><trkpt lat="38.570114707250696" lon="16.325616286341617"><ele>810.0</ele><time>2026-04-06T09:34:28.001Z</time></trkpt><trkpt lat="38.57003407977758" lon="16.325611701381273"><ele>810.0</ele><time>2026-04-06T09:34:31.001Z</time></trkpt><trkpt lat="38.57020012294576" lon="16.325596859730247"><ele>810.0</ele><time>2026-04-06T09:34:57Z</time></trkpt><trkpt lat="38.570013023232036" lon="16.325611386161555"><ele>810.0</ele><time>2026-04-06T09:34:58Z</time></trkpt><trkpt lat="38.56991424352485" lon="16.325568932565577"><ele>810.0</ele><time>2026-04-06T09:35:01Z</time></trkpt><trkpt lat="38.56983338397032" lon="16.325514042931363"><ele>810.0</ele><time>2026-04-06T09:35:03Z</time></trkpt><trkpt lat="38.569745060302544" lon="16.325417838519687"><ele>810.0</ele><time>2026-04-06T09:35:06Z</time></trkpt><trkpt lat="38.56964378303614" lon="16.325437723759443"><ele>810.0</ele><time>2026-04-06T09:35:07Z</time></trkpt><trkpt lat="38.56951241171915" lon="16.325459763722968"><ele>810.0</ele><time>2026-04-06T09:35:08Z</time></trkpt><trkpt lat="38.569356180085" lon="16.325468040803248"><ele>810.0</ele><time>2026-04-06T09:35:09Z</time></trkpt><trkpt lat="38.56919462361062" lon="16.325473273378197"><ele>809.6666666666667</ele><time>2026-04-06T09:35:10Z</time></trkpt><trkpt lat="38.56899996289883" lon="16.325492879896654"><ele>809.3333333333334</ele><time>2026-04-06T09:35:11Z</time></trkpt><trkpt lat="38.56880630964782" lon="16.325498662041795"><ele>809.0</ele><time>2026-04-06T09:35:12Z</time></trkpt><trkpt lat="38.5686200208236" lon="16.325511909620072"><ele>810.0</ele><time>2026-04-06T09:35:13Z</time></trkpt><trkpt lat="38.56843545259568" lon="16.325529336417947"><ele>811.0</ele><time>2026-04-06T09:35:14Z</time></trkpt><trkpt lat="38.568248582065124" lon="16.32553904175582"><ele>812.0</ele><time>2026-04-06T09:35:15Z</time></trkpt><trkpt lat="38.56806550150363" lon="16.325555656981024"><ele>813.3333333333334</ele><time>2026-04-06T09:35:16Z</time></trkpt><trkpt lat="38.567881301759" lon="16.32557129342614"><ele>814.6666666666667</ele><time>2026-04-06T09:35:17Z</time></trkpt><trkpt lat="38.567688005882644" lon="16.32558965624685"><ele>816.0</ele><time>2026-04-06T09:35:18Z</time></trkpt><trkpt lat="38.567486978228935" lon="16.325615426654753"><ele>817.0</ele><time>2026-04-06T09:35:19Z</time></trkpt><trkpt lat="38.56729338454859" lon="16.325627906593116"><ele>818.0</ele><time>2026-04-06T09:35:20Z</time></trkpt><trkpt lat="38.56711322754303" lon="16.32564479373144"><ele>819.0</ele><time>2026-04-06T09:35:21Z</time></trkpt><trkpt lat="38.56691203295287" lon="16.32566090429659"><ele>820.0</ele><time>2026-04-06T09:35:22Z</time></trkpt><trkpt lat="38.566736448127756" lon="16.325672058480993"><ele>821.0</ele><time>2026-04-06T09:35:23Z</time></trkpt><trkpt lat="38.5665471516285" lon="16.325685149954648"><ele>822.0</ele><time>2026-04-06T09:35:24Z</time></trkpt><trkpt lat="38.56635653187145" lon="16.32570436205064"><ele>822.6666666666667</ele><time>2026-04-06T09:35:25Z</time></trkpt><trkpt lat="38.56617082242533" lon="16.325721431176838"><ele>823.3333333333334</ele><time>2026-04-06T09:35:26Z</time></trkpt><trkpt lat="38.56599131670857" lon="16.325737343102524"><ele>824.0</ele><time>2026-04-06T09:35:27Z</time></trkpt><trkpt lat="38.56581839211" lon="16.325752902270313"><ele>824.0</ele><time>2026-04-06T09:35:28Z</time></trkpt><trkpt lat="38.565640672035194" lon="16.32576071454763"><ele>824.0</ele><time>2026-04-06T09:35:29Z</time></trkpt><trkpt lat="38.565492457633" lon="16.32577174290853"><ele>824.0</ele><time>2026-04-06T09:35:30Z</time></trkpt><trkpt lat="38.56534222348606" lon="16.325783170909205"><ele>824.0</ele><time>2026-04-06T09:35:31Z</time></trkpt><trkpt lat="38.56521037378929" lon="16.325794481542637"><ele>824.0</ele><time>2026-04-06T09:35:32Z</time></trkpt><trkpt lat="38.56511530433395" lon="16.325800521048702"><ele>824.0</ele><time>2026-04-06T09:35:33Z</time></trkpt><trkpt lat="38.56501685729906" lon="16.325804151433278"><ele>824.0</ele><time>2026-04-06T09:35:34Z</time></trkpt><trkpt lat="38.564931119921106" lon="16.325808164132884"><ele>824.0</ele><time>2026-04-06T09:35:35Z</time></trkpt><trkpt lat="38.564858513900106" lon="16.32581164561019"><ele>824.0</ele><time>2026-04-06T09:35:36Z</time></trkpt><trkpt lat="38.56475975318191" lon="16.325818285855316"><ele>824.0</ele><time>2026-04-06T09:35:37Z</time></trkpt><trkpt lat="38.56467369820634" lon="16.325829850984622"><ele>824.0</ele><time>2026-04-06T09:35:38Z</time></trkpt><trkpt lat="38.56456248933074" lon="16.325839814919263"><ele>824.0</ele><time>2026-04-06T09:35:39Z</time></trkpt><trkpt lat="38.564444512600836" lon="16.325848096640023"><ele>824.0</ele><time>2026-04-06T09:35:40Z</time></trkpt><trkpt lat="38.56433014804105" lon="16.325855635049468"><ele>825.0</ele><time>2026-04-06T09:35:41Z</time></trkpt><trkpt lat="38.56414549010775" lon="16.32587240262276"><ele>826.0</ele><time>2026-04-06T09:35:42Z</time></trkpt><trkpt lat="38.56398853688608" lon="16.325893679906272"><ele>827.0</ele><time>2026-04-06T09:35:43Z</time></trkpt><trkpt lat="38.56382200132928" lon="16.32590767926374"><ele>827.6666666666667</ele><time>2026-04-06T09:35:44Z</time></trkpt><trkpt lat="38.56365365925203" lon="16.32591868415173"><ele>828.3333333333333</ele><time>2026-04-06T09:35:45Z</time></trkpt><trkpt lat="38.56348475382253" lon="16.325930376454583"><ele>829.0</ele><time>2026-04-06T09:35:46Z</time></trkpt><trkpt lat="38.563303616825486" lon="16.32594147296196"><ele>829.0</ele><time>2026-04-06T09:35:47.001Z</time></trkpt><trkpt lat="38.563079626064216" lon="16.325966216936543"><ele>829.0</ele><time>2026-04-06T09:35:48.001Z</time></trkpt><trkpt lat="38.562862391580175" lon="16.325985994207024"><ele>829.0</ele><time>2026-04-06T09:35:49.001Z</time></trkpt><trkpt lat="38.56264813695889" lon="16.326002646353995"><ele>830.0</ele><time>2026-04-06T09:35:50.001Z</time></trkpt><trkpt lat="38.56243450891566" lon="16.32601887560643"><ele>831.0</ele><time>2026-04-06T09:35:51.001Z</time></trkpt><trkpt lat="38.56221343138276" lon="16.326039092677828"><ele>832.0</ele><time>2026-04-06T09:35:52.001Z</time></trkpt><trkpt lat="38.56198813456197" lon="16.326061267450378"><ele>835.0</ele><time>2026-04-06T09:35:53.001Z</time></trkpt><trkpt lat="38.56175495346393" lon="16.326084107462147"><ele>838.0</ele><time>2026-04-06T09:35:54.001Z</time></trkpt><trkpt lat="38.561529772994916" lon="16.326102278248182"><ele>838.0</ele><time>2026-04-06T09:35:55.001Z</time></trkpt><trkpt lat="38.56129307129572" lon="16.326123622485238"><ele>838.0</ele><time>2026-04-06T09:35:56.001Z</time></trkpt><trkpt lat="38.56105035480006" lon="16.326141337261564"><ele>839.6666666666666</ele><time>2026-04-06T09:35:57.001Z</time></trkpt><trkpt lat="38.56085513456049" lon="16.326139819711983"><ele>841.3333333333333</ele><time>2026-04-06T09:35:58.001Z</time></trkpt><trkpt lat="38.56063048224377" lon="16.326155716178015"><ele>843.0</ele><time>2026-04-06T09:35:59.001Z</time></trkpt><trkpt lat="38.56041358199303" lon="16.326176513647173"><ele>843.6666666666667</ele><time>2026-04-06T09:36:00.001Z</time></trkpt><trkpt lat="38.56018526079279" lon="16.32619649098544"><ele>844.3333333333334</ele><time>2026-04-06T09:36:01.001Z</time></trkpt><trkpt lat="38.55996759023717" lon="16.32621518396658"><ele>845.0</ele><time>2026-04-06T09:36:02.001Z</time></trkpt><trkpt lat="38.55974568106799" lon="16.32623155551523"><ele>846.6666666666667</ele><time>2026-04-06T09:36:03.001Z</time></trkpt><trkpt lat="38.559526209912285" lon="16.326247866042834"><ele>848.3333333333333</ele><time>2026-04-06T09:36:04.001Z</time></trkpt><trkpt lat="38.55931560013997" lon="16.326262941532022"><ele>850.0</ele><time>2026-04-06T09:36:05.001Z</time></trkpt><trkpt lat="38.55911116890733" lon="16.32627900448264"><ele>850.0</ele><time>2026-04-06T09:36:06.001Z</time></trkpt><trkpt lat="38.55890768450509" lon="16.326295649104953"><ele>850.0</ele><time>2026-04-06T09:36:07.001Z</time></trkpt><trkpt lat="38.55869654014096" lon="16.326313522257212"><ele>850.0</ele><time>2026-04-06T09:36:08.001Z</time></trkpt><trkpt lat="38.5584790919197" lon="16.32633063874224"><ele>851.6666666666666</ele><time>2026-04-06T09:36:09.001Z</time></trkpt><trkpt lat="38.558267104126244" lon="16.326343275148506"><ele>853.3333333333333</ele><time>2026-04-06T09:36:10.001Z</time></trkpt><trkpt lat="38.55803674831378" lon="16.326355566604967"><ele>855.0</ele><time>2026-04-06T09:36:11.001Z</time></trkpt><trkpt lat="38.55779805347128" lon="16.326366268995827"><ele>855.0</ele><time>2026-04-06T09:36:12.001Z</time></trkpt><trkpt lat="38.55756263433857" lon="16.326404231283934"><ele>855.0</ele><time>2026-04-06T09:36:13.001Z</time></trkpt><trkpt lat="38.55732380224769" lon="16.326418171997965"><ele>855.0</ele><time>2026-04-06T09:36:14.001Z</time></trkpt><trkpt lat="38.55707984523946" lon="16.326438296674098"><ele>855.0</ele><time>2026-04-06T09:36:15.001Z</time></trkpt><trkpt lat="38.556824318027765" lon="16.326442867094993"><ele>856.0</ele><time>2026-04-06T09:36:16.001Z</time></trkpt><trkpt lat="38.55660409077181" lon="16.326455005321655"><ele>857.0</ele><time>2026-04-06T09:36:17.001Z</time></trkpt><trkpt lat="38.556403921002314" lon="16.326475613632415"><ele>858.0</ele><time>2026-04-06T09:36:18.001Z</time></trkpt><trkpt lat="38.55620499987519" lon="16.32648804921437"><ele>860.0</ele><time>2026-04-06T09:36:19.001Z</time></trkpt><trkpt lat="38.55601768595275" lon="16.32650550870172"><ele>862.0</ele><time>2026-04-06T09:36:20.001Z</time></trkpt><trkpt lat="38.55585529907208" lon="16.32651994338546"><ele>864.0</ele><time>2026-04-06T09:36:21.001Z</time></trkpt><trkpt lat="38.55570060492764" lon="16.326536437928876"><ele>864.0</ele><time>2026-04-06T09:36:22.001Z</time></trkpt><trkpt lat="38.555562935911965" lon="16.32653607921458"><ele>864.0</ele><time>2026-04-06T09:36:23.001Z</time></trkpt><trkpt lat="38.555416181723544" lon="16.326505649498834"><ele>864.0</ele><time>2026-04-06T09:36:24.001Z</time></trkpt><trkpt lat="38.555258647429135" lon="16.32643431817816"><ele>866.3333333333333</ele><time>2026-04-06T09:36:25.001Z</time></trkpt><trkpt lat="38.55521492574405" lon="16.326267623248583"><ele>868.6666666666666</ele><time>2026-04-06T09:36:26.001Z</time></trkpt><trkpt lat="38.5551352887889" lon="16.326080693511383"><ele>871.0</ele><time>2026-04-06T09:36:27.001Z</time></trkpt><trkpt lat="38.555048245107216" lon="16.325882317431713"><ele>871.0</ele><time>2026-04-06T09:36:28.001Z</time></trkpt><trkpt lat="38.5549543600924" lon="16.32568200535243"><ele>871.0</ele><time>2026-04-06T09:36:29.001Z</time></trkpt><trkpt lat="38.55484984579387" lon="16.3254687374204"><ele>871.0</ele><time>2026-04-06T09:36:30.001Z</time></trkpt><trkpt lat="38.554746788962724" lon="16.325245918086523"><ele>872.3333333333333</ele><time>2026-04-06T09:36:31.001Z</time></trkpt><trkpt lat="38.55463831432925" lon="16.325017484428034"><ele>873.6666666666667</ele><time>2026-04-06T09:36:32.001Z</time></trkpt><trkpt lat="38.55453009269922" lon="16.32478554786685"><ele>875.0</ele><time>2026-04-06T09:36:33.001Z</time></trkpt><trkpt lat="38.55441852894163" lon="16.32454695345962"><ele>877.0</ele><time>2026-04-06T09:36:34.001Z</time></trkpt><trkpt lat="38.55430057563073" lon="16.324300950458564"><ele>879.0</ele><time>2026-04-06T09:36:35.001Z</time></trkpt><trkpt lat="38.554187125667234" lon="16.324052881029857"><ele>881.3333333333333</ele><time>2026-04-06T09:36:36.001Z</time></trkpt><trkpt lat="38.55407771787081" lon="16.323807521377788"><ele>883.6666666666666</ele><time>2026-04-06T09:36:37.001Z</time></trkpt><trkpt lat="38.55397237938334" lon="16.32358035447788"><ele>886.0</ele><time>2026-04-06T09:36:38.001Z</time></trkpt><trkpt lat="38.553880629926375" lon="16.323386317753016"><ele>886.0</ele><time>2026-04-06T09:36:39.001Z</time></trkpt><trkpt lat="38.55378162165186" lon="16.323216254569758"><ele>886.0</ele><time>2026-04-06T09:36:40.001Z</time></trkpt><trkpt lat="38.553654009961235" lon="16.32308014550265"><ele>886.0</ele><time>2026-04-06T09:36:41.001Z</time></trkpt><trkpt lat="38.55350490832145" lon="16.322981388490263"><ele>888.3333333333333</ele><time>2026-04-06T09:36:42.001Z</time></trkpt><trkpt lat="38.55336508905457" lon="16.322893574516822"><ele>890.6666666666667</ele><time>2026-04-06T09:36:43.001Z</time></trkpt><trkpt lat="38.553220744773576" lon="16.32283066412784"><ele>893.0</ele><time>2026-04-06T09:36:44.001Z</time></trkpt><trkpt lat="38.55307611626215" lon="16.322809561664098"><ele>893.0</ele><time>2026-04-06T09:36:45.001Z</time></trkpt><trkpt lat="38.552944692648225" lon="16.32284403611468"><ele>893.0</ele><time>2026-04-06T09:36:46.001Z</time></trkpt><trkpt lat="38.552821066164846" lon="16.322890917858228"><ele>893.0</ele><time>2026-04-06T09:36:47.001Z</time></trkpt><trkpt lat="38.55270711031719" lon="16.322946836329088"><ele>893.0</ele><time>2026-04-06T09:36:48.001Z</time></trkpt><trkpt lat="38.552608861980765" lon="16.322983652989386"><ele>894.4</ele><time>2026-04-06T09:36:49.001Z</time></trkpt><trkpt lat="38.55252663831882" lon="16.322977677999074"><ele>895.8</ele><time>2026-04-06T09:36:50.001Z</time></trkpt><trkpt lat="38.55245151559433" lon="16.3229410001545"><ele>897.2</ele><time>2026-04-06T09:36:51.001Z</time></trkpt><trkpt lat="38.55239846702125" lon="16.322836432297315"><ele>898.6</ele><time>2026-04-06T09:36:52Z</time></trkpt><trkpt lat="38.55233664132053" lon="16.32270550542958"><ele>900.0</ele><time>2026-04-06T09:36:53Z</time></trkpt><trkpt lat="38.552273372409715" lon="16.322582438911102"><ele>900.0</ele><time>2026-04-06T09:36:54Z</time></trkpt><trkpt lat="38.552216289759535" lon="16.32245524606941"><ele>900.0</ele><time>2026-04-06T09:36:55Z</time></trkpt><trkpt lat="38.55208476715696" lon="16.32228424609531"><ele>900.0</ele><time>2026-04-06T09:36:56Z</time></trkpt><trkpt lat="38.55195265681417" lon="16.32217227811605"><ele>903.0</ele><time>2026-04-06T09:36:57Z</time></trkpt><trkpt lat="38.551788340472235" lon="16.322160590859447"><ele>906.0</ele><time>2026-04-06T09:36:58Z</time></trkpt><trkpt lat="38.551649877896956" lon="16.322191184153294"><ele>909.0</ele><time>2026-04-06T09:36:59Z</time></trkpt><trkpt lat="38.55150071032534" lon="16.322229355411704"><ele>909.6666666666667</ele><time>2026-04-06T09:37:00Z</time></trkpt><trkpt lat="38.55134144437559" lon="16.322243688084942"><ele>910.3333333333334</ele><time>2026-04-06T09:37:01Z</time></trkpt><trkpt lat="38.55118802339159" lon="16.322190547936312"><ele>911.0</ele><time>2026-04-06T09:37:02Z</time></trkpt><trkpt lat="38.55102432686268" lon="16.32210063981033"><ele>911.0</ele><time>2026-04-06T09:37:03Z</time></trkpt><trkpt lat="38.550858393153206" lon="16.321984899070628"><ele>911.0</ele><time>2026-04-06T09:37:04Z</time></trkpt><trkpt lat="38.550731834452016" lon="16.32185847046363"><ele>911.0</ele><time>2026-04-06T09:37:05Z</time></trkpt><trkpt lat="38.55061271193099" lon="16.321698007944217"><ele>911.0</ele><time>2026-04-06T09:37:06Z</time></trkpt><trkpt lat="38.55048579741123" lon="16.321528121031825"><ele>911.0</ele><time>2026-04-06T09:37:07Z</time></trkpt><trkpt lat="38.55035953957793" lon="16.321417152386832"><ele>911.0</ele><time>2026-04-06T09:37:08Z</time></trkpt><trkpt lat="38.550267642324016" lon="16.321353309273483"><ele>911.0</ele><time>2026-04-06T09:37:09Z</time></trkpt><trkpt lat="38.55012833908366" lon="16.321270739473544"><ele>914.3333333333334</ele><time>2026-04-06T09:37:10Z</time></trkpt><trkpt lat="38.55000426397572" lon="16.321190385651153"><ele>917.6666666666667</ele><time>2026-04-06T09:37:11Z</time></trkpt><trkpt lat="38.549907029426265" lon="16.32104422574673"><ele>921.0</ele><time>2026-04-06T09:37:12Z</time></trkpt><trkpt lat="38.54976774375561" lon="16.32065907268768"><ele>924.0</ele><time>2026-04-06T09:37:14Z</time></trkpt><trkpt lat="38.54970603657277" lon="16.32048800426823"><ele>927.0</ele><time>2026-04-06T09:37:15Z</time></trkpt><trkpt lat="38.54965566790781" lon="16.320331649656545"><ele>930.0</ele><time>2026-04-06T09:37:16Z</time></trkpt><trkpt lat="38.54963752800873" lon="16.320176242466996"><ele>933.0</ele><time>2026-04-06T09:37:17Z</time></trkpt><trkpt lat="38.54966847836806" lon="16.320040163971804"><ele>933.0</ele><time>2026-04-06T09:37:18Z</time></trkpt><trkpt lat="38.549754302223405" lon="16.31995141607735"><ele>933.0</ele><time>2026-04-06T09:37:19Z</time></trkpt><trkpt lat="38.54985679954221" lon="16.31988911775769"><ele>933.0</ele><time>2026-04-06T09:37:20Z</time></trkpt><trkpt lat="38.549974866603705" lon="16.319837166717118"><ele>933.0</ele><time>2026-04-06T09:37:21Z</time></trkpt><trkpt lat="38.55010791941006" lon="16.31978882559999"><ele>934.5999999999999</ele><time>2026-04-06T09:37:22Z</time></trkpt><trkpt lat="38.55023126380593" lon="16.319726449455022"><ele>936.1999999999999</ele><time>2026-04-06T09:37:23Z</time></trkpt><trkpt lat="38.55032028221123" lon="16.31966619386972"><ele>937.8</ele><time>2026-04-06T09:37:24Z</time></trkpt><trkpt lat="38.55035887437258" lon="16.31959444345699"><ele>939.4</ele><time>2026-04-06T09:37:25Z</time></trkpt><trkpt lat="38.550372920402644" lon="16.31948202975291"><ele>941.0</ele><time>2026-04-06T09:37:26Z</time></trkpt><trkpt lat="38.55034113287064" lon="16.31932502481272"><ele>941.0</ele><time>2026-04-06T09:37:27Z</time></trkpt><trkpt lat="38.55026375192895" lon="16.319204969812574"><ele>941.0</ele><time>2026-04-06T09:37:28Z</time></trkpt><trkpt lat="38.55017120621712" lon="16.319083295556126"><ele>941.0</ele><time>2026-04-06T09:37:29Z</time></trkpt><trkpt lat="38.55007113402975" lon="16.31894748076432"><ele>941.0</ele><time>2026-04-06T09:37:30Z</time></trkpt><trkpt lat="38.54996379148996" lon="16.318801285833132"><ele>940.75</ele><time>2026-04-06T09:37:31Z</time></trkpt><trkpt lat="38.549850187171934" lon="16.31865607830665"><ele>940.5</ele><time>2026-04-06T09:37:32Z</time></trkpt><trkpt lat="38.549748162015185" lon="16.318538768020986"><ele>940.25</ele><time>2026-04-06T09:37:33Z</time></trkpt><trkpt lat="38.549632911207006" lon="16.318460823668396"><ele>940.0</ele><time>2026-04-06T09:37:34Z</time></trkpt><trkpt lat="38.5495331673627" lon="16.318408274556067"><ele>942.0</ele><time>2026-04-06T09:37:35Z</time></trkpt><trkpt lat="38.54941582219097" lon="16.318386841589913"><ele>944.0</ele><time>2026-04-06T09:37:36Z</time></trkpt><trkpt lat="38.54931797197525" lon="16.318468235415445"><ele>946.0</ele><time>2026-04-06T09:37:37Z</time></trkpt><trkpt lat="38.54917275391578" lon="16.318475447236796"><ele>948.0</ele><time>2026-04-06T09:37:38Z</time></trkpt><trkpt lat="38.54904957804405" lon="16.318483602182877"><ele>948.0</ele><time>2026-04-06T09:37:39Z</time></trkpt><trkpt lat="38.548885188384574" lon="16.318517333386914"><ele>948.0</ele><time>2026-04-06T09:37:40Z</time></trkpt><trkpt lat="38.54871470861822" lon="16.318538500920255"><ele>948.0</ele><time>2026-04-06T09:37:41Z</time></trkpt><trkpt lat="38.54853424387249" lon="16.31855241860165"><ele>950.0</ele><time>2026-04-06T09:37:42Z</time></trkpt><trkpt lat="38.54835642869145" lon="16.318569432443574"><ele>952.0</ele><time>2026-04-06T09:37:43Z</time></trkpt><trkpt lat="38.54817490442247" lon="16.318602093607943"><ele>954.0</ele><time>2026-04-06T09:37:44Z</time></trkpt><trkpt lat="38.54801964490941" lon="16.318675605295944"><ele>955.25</ele><time>2026-04-06T09:37:45Z</time></trkpt><trkpt lat="38.547847157687535" lon="16.3186815959405"><ele>956.5</ele><time>2026-04-06T09:37:46Z</time></trkpt><trkpt lat="38.54772001071578" lon="16.318695369757076"><ele>957.75</ele><time>2026-04-06T09:37:47Z</time></trkpt><trkpt lat="38.547603675316665" lon="16.31871803953481"><ele>959.0</ele><time>2026-04-06T09:37:48Z</time></trkpt><trkpt lat="38.54749129254184" lon="16.318764070589676"><ele>959.0</ele><time>2026-04-06T09:37:49Z</time></trkpt><trkpt lat="38.547141045529855" lon="16.31886845301058"><ele>959.0</ele><time>2026-04-06T09:37:50Z</time></trkpt><trkpt lat="38.546996523506536" lon="16.318926090970887"><ele>961.2</ele><time>2026-04-06T09:37:51Z</time></trkpt><trkpt lat="38.54687193007512" lon="16.31897578339082"><ele>963.4000000000001</ele><time>2026-04-06T09:37:52Z</time></trkpt><trkpt lat="38.54677756442444" lon="16.31901245396986"><ele>965.6</ele><time>2026-04-06T09:37:53Z</time></trkpt><trkpt lat="38.54669645237765" lon="16.31903329716845"><ele>967.8</ele><time>2026-04-06T09:37:54Z</time></trkpt><trkpt lat="38.54660814654335" lon="16.31907117210148"><ele>970.0</ele><time>2026-04-06T09:37:55Z</time></trkpt><trkpt lat="38.54655485531207" lon="16.31920437305596"><ele>970.0</ele><time>2026-04-06T09:37:57Z</time></trkpt><trkpt lat="38.546575114983085" lon="16.31928893228133"><ele>970.0</ele><time>2026-04-06T09:37:58Z</time></trkpt><trkpt lat="38.5466719523304" lon="16.31938295935815"><ele>970.0</ele><time>2026-04-06T09:37:59Z</time></trkpt><trkpt lat="38.54675904655817" lon="16.319434598569657"><ele>970.0</ele><time>2026-04-06T09:38:00Z</time></trkpt><trkpt lat="38.54684926016141" lon="16.3195160895378"><ele>970.0</ele><time>2026-04-06T09:38:01Z</time></trkpt><trkpt lat="38.54694792977052" lon="16.31958688086199"><ele>967.0</ele><time>2026-04-06T09:38:02Z</time></trkpt><trkpt lat="38.54708605795909" lon="16.319707420780926"><ele>964.0</ele><time>2026-04-06T09:38:03Z</time></trkpt><trkpt lat="38.547164939701304" lon="16.319858888686888"><ele>961.0</ele><time>2026-04-06T09:38:04Z</time></trkpt><trkpt lat="38.54723108198334" lon="16.320000273322307"><ele>958.0</ele><time>2026-04-06T09:38:05Z</time></trkpt><trkpt lat="38.54725161763833" lon="16.3201526654029"><ele>958.0</ele><time>2026-04-06T09:38:06Z</time></trkpt><trkpt lat="38.54722151415888" lon="16.320284686033514"><ele>958.0</ele><time>2026-04-06T09:38:07Z</time></trkpt><trkpt lat="38.54718194648697" lon="16.32039575573097"><ele>958.0</ele><time>2026-04-06T09:38:08Z</time></trkpt><trkpt lat="38.54711448196073" lon="16.32063026125632"><ele>958.0</ele><time>2026-04-06T09:38:09Z</time></trkpt><trkpt lat="38.54707298879323" lon="16.320792234416988"><ele>959.2</ele><time>2026-04-06T09:38:10Z</time></trkpt><trkpt lat="38.54702412064276" lon="16.32096352041948"><ele>960.4</ele><time>2026-04-06T09:38:11Z</time></trkpt><trkpt lat="38.54699003344383" lon="16.321047222328488"><ele>961.6000000000001</ele><time>2026-04-06T09:38:12Z</time></trkpt><trkpt lat="38.546926689459895" lon="16.32111314677658"><ele>962.8000000000001</ele><time>2026-04-06T09:38:13Z</time></trkpt><trkpt lat="38.5468442780268" lon="16.321114181507426"><ele>964.0</ele><time>2026-04-06T09:38:14Z</time></trkpt><trkpt lat="38.54675891348023" lon="16.321074657505484"><ele>964.0</ele><time>2026-04-06T09:38:15Z</time></trkpt><trkpt lat="38.54662005318101" lon="16.321025946117253"><ele>964.0</ele><time>2026-04-06T09:38:16Z</time></trkpt><trkpt lat="38.54643676867323" lon="16.320932978973335"><ele>964.0</ele><time>2026-04-06T09:38:17Z</time></trkpt><trkpt lat="38.54629461497596" lon="16.320868352504167"><ele>969.0</ele><time>2026-04-06T09:38:18Z</time></trkpt><trkpt lat="38.54615493982046" lon="16.32074588103158"><ele>974.0</ele><time>2026-04-06T09:38:19.001Z</time></trkpt><trkpt lat="38.54604662021105" lon="16.32060326676274"><ele>979.0</ele><time>2026-04-06T09:38:20.001Z</time></trkpt><trkpt lat="38.54594974547658" lon="16.32045131392184"><ele>980.5</ele><time>2026-04-06T09:38:21.001Z</time></trkpt><trkpt lat="38.545927711677855" lon="16.32031246395739"><ele>982.0</ele><time>2026-04-06T09:38:22.001Z</time></trkpt><trkpt lat="38.54592927696857" lon="16.3201746517489"><ele>983.5</ele><time>2026-04-06T09:38:23.001Z</time></trkpt><trkpt lat="38.54594352828442" lon="16.320021514409248"><ele>985.0</ele><time>2026-04-06T09:38:24.001Z</time></trkpt><trkpt lat="38.545943715561634" lon="16.319857859605648"><ele>983.75</ele><time>2026-04-06T09:38:25.001Z</time></trkpt><trkpt lat="38.54590917534262" lon="16.319731981135746"><ele>982.5</ele><time>2026-04-06T09:38:26.001Z</time></trkpt><trkpt lat="38.545821645861395" lon="16.319563255243914"><ele>981.25</ele><time>2026-04-06T09:38:27.001Z</time></trkpt><trkpt lat="38.545688485267775" lon="16.31943265353454"><ele>980.0</ele><time>2026-04-06T09:38:28.001Z</time></trkpt><trkpt lat="38.54555618865014" lon="16.31927163831068"><ele>980.0</ele><time>2026-04-06T09:38:29.001Z</time></trkpt><trkpt lat="38.54543499624367" lon="16.319169341703827"><ele>980.0</ele><time>2026-04-06T09:38:30.001Z</time></trkpt><trkpt lat="38.54533707222915" lon="16.319109127154256"><ele>980.0</ele><time>2026-04-06T09:38:31.001Z</time></trkpt><trkpt lat="38.54520175876348" lon="16.319065051204166"><ele>980.0</ele><time>2026-04-06T09:38:32.001Z</time></trkpt><trkpt lat="38.54504372916063" lon="16.319039101804012"><ele>982.6666666666667</ele><time>2026-04-06T09:38:33.001Z</time></trkpt><trkpt lat="38.544862203308675" lon="16.319038243870367"><ele>985.3333333333333</ele><time>2026-04-06T09:38:34.001Z</time></trkpt><trkpt lat="38.54468511720157" lon="16.31903690704581"><ele>988.0</ele><time>2026-04-06T09:38:35.001Z</time></trkpt><trkpt lat="38.5445208988191" lon="16.318997882291114"><ele>991.3333333333333</ele><time>2026-04-06T09:38:36.001Z</time></trkpt><trkpt lat="38.544346689674335" lon="16.318926477934397"><ele>994.6666666666667</ele><time>2026-04-06T09:38:37.001Z</time></trkpt><trkpt lat="38.54417455853511" lon="16.318839068026755"><ele>998.0</ele><time>2026-04-06T09:38:38.001Z</time></trkpt><trkpt lat="38.54401300626775" lon="16.318714619339442"><ele>998.0</ele><time>2026-04-06T09:38:39.001Z</time></trkpt><trkpt lat="38.543871402646545" lon="16.31857225830656"><ele>998.0</ele><time>2026-04-06T09:38:40.001Z</time></trkpt><trkpt lat="38.54374441621514" lon="16.318425507323393"><ele>998.0</ele><time>2026-04-06T09:38:41.001Z</time></trkpt><trkpt lat="38.54364043115736" lon="16.31829722134283"><ele>999.3333333333334</ele><time>2026-04-06T09:38:42.001Z</time></trkpt><trkpt lat="38.543556963648065" lon="16.318186843706005"><ele>1000.6666666666667</ele><time>2026-04-06T09:38:43.001Z</time></trkpt><trkpt lat="38.543487664564836" lon="16.3180921942911"><ele>1002.0</ele><time>2026-04-06T09:38:44.001Z</time></trkpt><trkpt lat="38.54345034727072" lon="16.31802174586707"><ele>1003.3333333333333</ele><time>2026-04-06T09:38:45.001Z</time></trkpt><trkpt lat="38.54347406307387" lon="16.317924238374307"><ele>1004.6666666666666</ele><time>2026-04-06T09:38:47.001Z</time></trkpt><trkpt lat="38.54354546039353" lon="16.317918447899043"><ele>1006.0</ele><time>2026-04-06T09:38:48.001Z</time></trkpt><trkpt lat="38.543630990554355" lon="16.31789706096405"><ele>1006.0</ele><time>2026-04-06T09:38:49.001Z</time></trkpt><trkpt lat="38.54370080278626" lon="16.317939467712566"><ele>1006.0</ele><time>2026-04-06T09:38:50.001Z</time></trkpt><trkpt lat="38.543850363709666" lon="16.31795792496507"><ele>1006.0</ele><time>2026-04-06T09:38:51.001Z</time></trkpt><trkpt lat="38.54400341022391" lon="16.318006350975047"><ele>1006.0</ele><time>2026-04-06T09:38:52.001Z</time></trkpt><trkpt lat="38.5441371671931" lon="16.31804347520623"><ele>1006.0</ele><time>2026-04-06T09:38:53.001Z</time></trkpt><trkpt lat="38.54427267320581" lon="16.31807785342467"><ele>1005.9999999999999</ele><time>2026-04-06T09:38:54.001Z</time></trkpt><trkpt lat="38.54437354577431" lon="16.318106160280827"><ele>1005.9999999999999</ele><time>2026-04-06T09:38:55.001Z</time></trkpt><trkpt lat="38.54446614608844" lon="16.318083479985212"><ele>1006.0</ele><time>2026-04-06T09:38:56.001Z</time></trkpt><trkpt lat="38.54452797195631" lon="16.31804372242095"><ele>1006.0</ele><time>2026-04-06T09:38:57.001Z</time></trkpt><trkpt lat="38.54456194576605" lon="16.317937897663953"><ele>1006.0</ele><time>2026-04-06T09:38:58Z</time></trkpt><trkpt lat="38.544590728630595" lon="16.317834443762326"><ele>1006.0</ele><time>2026-04-06T09:38:59Z</time></trkpt><trkpt lat="38.54454756685509" lon="16.31766912620998"><ele>1006.0</ele><time>2026-04-06T09:39:00Z</time></trkpt><trkpt lat="38.54453415250347" lon="16.317517128652618"><ele>1006.0</ele><time>2026-04-06T09:39:01Z</time></trkpt><trkpt lat="38.54447434298811" lon="16.317299049526717"><ele>1006.3333333333333</ele><time>2026-04-06T09:39:02Z</time></trkpt><trkpt lat="38.54440265711172" lon="16.317151203735005"><ele>1006.6666666666667</ele><time>2026-04-06T09:39:03Z</time></trkpt><trkpt lat="38.544241023843256" lon="16.31699756435269"><ele>1007.0</ele><time>2026-04-06T09:39:04Z</time></trkpt><trkpt lat="38.544108426119784" lon="16.316866809944646"><ele>1007.0</ele><time>2026-04-06T09:39:05Z</time></trkpt><trkpt lat="38.54395995901369" lon="16.316759858372436"><ele>1007.0</ele><time>2026-04-06T09:39:06Z</time></trkpt><trkpt lat="38.5438029566801" lon="16.316701593705304"><ele>1007.0</ele><time>2026-04-06T09:39:07Z</time></trkpt><trkpt lat="38.54367802118021" lon="16.31661754332768"><ele>1008.25</ele><time>2026-04-06T09:39:08Z</time></trkpt><trkpt lat="38.543581754508246" lon="16.316584884683856"><ele>1009.5</ele><time>2026-04-06T09:39:09Z</time></trkpt><trkpt lat="38.54348179208782" lon="16.31650794375034"><ele>1010.75</ele><time>2026-04-06T09:39:10Z</time></trkpt><trkpt lat="38.54341769886441" lon="16.316364524690183"><ele>1012.0</ele><time>2026-04-06T09:39:11Z</time></trkpt><trkpt lat="38.54334572491368" lon="16.31621867350764"><ele>1012.0</ele><time>2026-04-06T09:39:12Z</time></trkpt><trkpt lat="38.54326270128784" lon="16.316042619144167"><ele>1012.0</ele><time>2026-04-06T09:39:13Z</time></trkpt><trkpt lat="38.54319854041548" lon="16.315910527707114"><ele>1012.0</ele><time>2026-04-06T09:39:14Z</time></trkpt><trkpt lat="38.54307823728232" lon="16.31573678172414"><ele>1012.0</ele><time>2026-04-06T09:39:15Z</time></trkpt><trkpt lat="38.5429700803548" lon="16.31561635541203"><ele>1012.0</ele><time>2026-04-06T09:39:16Z</time></trkpt><trkpt lat="38.542853662680955" lon="16.315533446203055"><ele>1012.0</ele><time>2026-04-06T09:39:17Z</time></trkpt><trkpt lat="38.542724365112704" lon="16.315475905997356"><ele>1012.0</ele><time>2026-04-06T09:39:18Z</time></trkpt><trkpt lat="38.54260603358286" lon="16.315435748210906"><ele>1011.25</ele><time>2026-04-06T09:39:19Z</time></trkpt><trkpt lat="38.54248941022389" lon="16.315417163243474"><ele>1010.5</ele><time>2026-04-06T09:39:20Z</time></trkpt><trkpt lat="38.54235937836916" lon="16.315458381094544"><ele>1009.75</ele><time>2026-04-06T09:39:21Z</time></trkpt><trkpt lat="38.54221671882873" lon="16.315488686426473"><ele>1009.0</ele><time>2026-04-06T09:39:22Z</time></trkpt><trkpt lat="38.542089162162235" lon="16.315530086853922"><ele>1010.0</ele><time>2026-04-06T09:39:23Z</time></trkpt><trkpt lat="38.54194565584159" lon="16.315538519345004"><ele>1011.0</ele><time>2026-04-06T09:39:24Z</time></trkpt><trkpt lat="38.541831387761896" lon="16.315581700428822"><ele>1012.0</ele><time>2026-04-06T09:39:25Z</time></trkpt><trkpt lat="38.54168431721803" lon="16.315612577144503"><ele>1013.0</ele><time>2026-04-06T09:39:26Z</time></trkpt><trkpt lat="38.54153104560069" lon="16.315636810651107"><ele>1016.3333333333334</ele><time>2026-04-06T09:39:27Z</time></trkpt><trkpt lat="38.54139038019743" lon="16.315629541407645"><ele>1019.6666666666667</ele><time>2026-04-06T09:39:28Z</time></trkpt><trkpt lat="38.5412380773946" lon="16.315681076431225"><ele>1023.0</ele><time>2026-04-06T09:39:29Z</time></trkpt><trkpt lat="38.54108862836311" lon="16.315780063566706"><ele>1024.0</ele><time>2026-04-06T09:39:30Z</time></trkpt><trkpt lat="38.54089110068699" lon="16.31584402848976"><ele>1025.0</ele><time>2026-04-06T09:39:31Z</time></trkpt><trkpt lat="38.54073938483416" lon="16.31589978839227"><ele>1026.0</ele><time>2026-04-06T09:39:32Z</time></trkpt><trkpt lat="38.54057245635248" lon="16.315932567953272"><ele>1026.0</ele><time>2026-04-06T09:39:33Z</time></trkpt><trkpt lat="38.54043461180181" lon="16.315895610210056"><ele>1026.0</ele><time>2026-04-06T09:39:34Z</time></trkpt><trkpt lat="38.540343700822376" lon="16.315800579316335"><ele>1026.0</ele><time>2026-04-06T09:39:35Z</time></trkpt><trkpt lat="38.54025936228592" lon="16.31569722302464"><ele>1026.0</ele><time>2026-04-06T09:39:36Z</time></trkpt><trkpt lat="38.54017280465164" lon="16.31562303400672"><ele>1027.25</ele><time>2026-04-06T09:39:37Z</time></trkpt><trkpt lat="38.54004816733403" lon="16.315587201602806"><ele>1028.5</ele><time>2026-04-06T09:39:38Z</time></trkpt><trkpt lat="38.53992724264508" lon="16.31557112168458"><ele>1029.75</ele><time>2026-04-06T09:39:39Z</time></trkpt><trkpt lat="38.539772939846586" lon="16.315588886931263"><ele>1031.0</ele><time>2026-04-06T09:39:40Z</time></trkpt><trkpt lat="38.539604645861196" lon="16.315675375401444"><ele>1030.3333333333335</ele><time>2026-04-06T09:39:41Z</time></trkpt><trkpt lat="38.5394194253805" lon="16.315752388174634"><ele>1029.6666666666667</ele><time>2026-04-06T09:39:42Z</time></trkpt><trkpt lat="38.539229047567446" lon="16.31582042900859"><ele>1029.0</ele><time>2026-04-06T09:39:43Z</time></trkpt><trkpt lat="38.539018918465196" lon="16.31592366926148"><ele>1029.0</ele><time>2026-04-06T09:39:44Z</time></trkpt><trkpt lat="38.538789766841894" lon="16.316025465012824"><ele>1029.0</ele><time>2026-04-06T09:39:45Z</time></trkpt><trkpt lat="38.53857578930444" lon="16.316114997000927"><ele>1028.6666666666667</ele><time>2026-04-06T09:39:46Z</time></trkpt><trkpt lat="38.53838160096789" lon="16.316199666462214"><ele>1028.3333333333335</ele><time>2026-04-06T09:39:47Z</time></trkpt><trkpt lat="38.53819288576335" lon="16.316262241528314"><ele>1028.0</ele><time>2026-04-06T09:39:48Z</time></trkpt><trkpt lat="38.5380361843198" lon="16.31633031678141"><ele>1028.0</ele><time>2026-04-06T09:39:49Z</time></trkpt><trkpt lat="38.53791752254556" lon="16.316379929791005"><ele>1028.0</ele><time>2026-04-06T09:39:50Z</time></trkpt><trkpt lat="38.53779352067369" lon="16.316431222132287"><ele>1028.0</ele><time>2026-04-06T09:39:51Z</time></trkpt><trkpt lat="38.53767718494159" lon="16.316481415941514"><ele>1028.0</ele><time>2026-04-06T09:39:52Z</time></trkpt><trkpt lat="38.537537159278195" lon="16.316620823338194"><ele>1024.0</ele><time>2026-04-06T09:39:53Z</time></trkpt><trkpt lat="38.53743417046479" lon="16.316788663833453"><ele>1020.0</ele><time>2026-04-06T09:39:54Z</time></trkpt><trkpt lat="38.53733208400483" lon="16.316975333090824"><ele>1016.0</ele><time>2026-04-06T09:39:55Z</time></trkpt><trkpt lat="38.53722602737999" lon="16.317119909385365"><ele>1017.3333333333334</ele><time>2026-04-06T09:39:56Z</time></trkpt><trkpt lat="38.53710839131535" lon="16.317252800948353"><ele>1018.6666666666667</ele><time>2026-04-06T09:39:57Z</time></trkpt><trkpt lat="38.536962445256464" lon="16.317356341697103"><ele>1020.0</ele><time>2026-04-06T09:39:58Z</time></trkpt><trkpt lat="38.53681397290276" lon="16.317472379300927"><ele>1018.0</ele><time>2026-04-06T09:39:59Z</time></trkpt><trkpt lat="38.53668009001946" lon="16.31757210726921"><ele>1016.0</ele><time>2026-04-06T09:40:00Z</time></trkpt><trkpt lat="38.5365734270432" lon="16.317686499042075"><ele>1014.0</ele><time>2026-04-06T09:40:01Z</time></trkpt><trkpt lat="38.53654687459195" lon="16.317805188943513"><ele>1012.0</ele><time>2026-04-06T09:40:02Z</time></trkpt><trkpt lat="38.53648769169877" lon="16.317924689348338"><ele>1011.5</ele><time>2026-04-06T09:40:03Z</time></trkpt><trkpt lat="38.53646713733137" lon="16.318202100925422"><ele>1011.0</ele><time>2026-04-06T09:40:04Z</time></trkpt><trkpt lat="38.53636677872361" lon="16.318335511482932"><ele>1010.5</ele><time>2026-04-06T09:40:05Z</time></trkpt><trkpt lat="38.53630198264007" lon="16.318357957168274"><ele>1010.0</ele><time>2026-04-06T09:40:06Z</time></trkpt><trkpt lat="38.53617581583107" lon="16.318327844610433"><ele>1010.0</ele><time>2026-04-06T09:40:07Z</time></trkpt><trkpt lat="38.53605240038568" lon="16.318274604031295"><ele>1010.0</ele><time>2026-04-06T09:40:08Z</time></trkpt><trkpt lat="38.535871958784924" lon="16.318200174196253"><ele>1010.0</ele><time>2026-04-06T09:40:09Z</time></trkpt><trkpt lat="38.53571587743188" lon="16.31818308170008"><ele>1010.0</ele><time>2026-04-06T09:40:10Z</time></trkpt><trkpt lat="38.53556984327629" lon="16.318212751730066"><ele>1010.0</ele><time>2026-04-06T09:40:11Z</time></trkpt><trkpt lat="38.535414529302706" lon="16.31831897014296"><ele>1010.0</ele><time>2026-04-06T09:40:12Z</time></trkpt><trkpt lat="38.53525521719003" lon="16.318475155466423"><ele>1008.6666666666667</ele><time>2026-04-06T09:40:13Z</time></trkpt><trkpt lat="38.53508896971083" lon="16.318617973437174"><ele>1007.3333333333333</ele><time>2026-04-06T09:40:14Z</time></trkpt><trkpt lat="38.534899449362705" lon="16.318770025086494"><ele>1006.0</ele><time>2026-04-06T09:40:15Z</time></trkpt><trkpt lat="38.53473340139513" lon="16.318914137034138"><ele>1004.6666666666666</ele><time>2026-04-06T09:40:16Z</time></trkpt><trkpt lat="38.53458291379731" lon="16.319040530650554"><ele>1003.3333333333333</ele><time>2026-04-06T09:40:17Z</time></trkpt><trkpt lat="38.534431943313514" lon="16.319196592569273"><ele>1002.0</ele><time>2026-04-06T09:40:18Z</time></trkpt><trkpt lat="38.53429418709387" lon="16.31938613023118"><ele>1002.0</ele><time>2026-04-06T09:40:19Z</time></trkpt><trkpt lat="38.53415597400464" lon="16.31959988231424"><ele>1002.0</ele><time>2026-04-06T09:40:20Z</time></trkpt><trkpt lat="38.53400835923328" lon="16.319799312361475"><ele>1002.0</ele><time>2026-04-06T09:40:21Z</time></trkpt><trkpt lat="38.53387396848387" lon="16.319997547202142"><ele>1002.0</ele><time>2026-04-06T09:40:22Z</time></trkpt><trkpt lat="38.53374136742099" lon="16.320169876795678"><ele>1002.0</ele><time>2026-04-06T09:40:23Z</time></trkpt><trkpt lat="38.5336243896702" lon="16.320332936409876"><ele>1002.0</ele><time>2026-04-06T09:40:24Z</time></trkpt><trkpt lat="38.53351151941163" lon="16.320493208358087"><ele>1002.0</ele><time>2026-04-06T09:40:25Z</time></trkpt><trkpt lat="38.53340254211766" lon="16.320648040661794"><ele>1002.0</ele><time>2026-04-06T09:40:26Z</time></trkpt><trkpt lat="38.53329643725485" lon="16.32079323839039"><ele>1002.0</ele><time>2026-04-06T09:40:27Z</time></trkpt><trkpt lat="38.53318481379395" lon="16.320940748080925"><ele>1002.0</ele><time>2026-04-06T09:40:28Z</time></trkpt><trkpt lat="38.533083015702374" lon="16.32107661831533"><ele>1002.0</ele><time>2026-04-06T09:40:29Z</time></trkpt><trkpt lat="38.532982306752025" lon="16.321204965226052"><ele>1002.0</ele><time>2026-04-06T09:40:30Z</time></trkpt><trkpt lat="38.532868810510635" lon="16.321303863075965"><ele>1002.0</ele><time>2026-04-06T09:40:31Z</time></trkpt><trkpt lat="38.53272986699798" lon="16.32139292318479"><ele>1003.0</ele><time>2026-04-06T09:40:32Z</time></trkpt><trkpt lat="38.532575636163294" lon="16.32144116306809"><ele>1004.0</ele><time>2026-04-06T09:40:33Z</time></trkpt><trkpt lat="38.53240889728382" lon="16.321471402448196"><ele>1005.0</ele><time>2026-04-06T09:40:34Z</time></trkpt><trkpt lat="38.53222888008967" lon="16.321459822542554"><ele>1005.0</ele><time>2026-04-06T09:40:35Z</time></trkpt><trkpt lat="38.53203944135906" lon="16.321424826322847"><ele>1005.0</ele><time>2026-04-06T09:40:36Z</time></trkpt><trkpt lat="38.53183975998748" lon="16.321378182190905"><ele>1005.0</ele><time>2026-04-06T09:40:37Z</time></trkpt><trkpt lat="38.53162145765836" lon="16.321334273849"><ele>1005.5</ele><time>2026-04-06T09:40:38Z</time></trkpt><trkpt lat="38.53140368179727" lon="16.321303025018587"><ele>1006.0</ele><time>2026-04-06T09:40:39Z</time></trkpt><trkpt lat="38.53116889988029" lon="16.321262497707362"><ele>1002.5</ele><time>2026-04-06T09:40:40Z</time></trkpt><trkpt lat="38.53093502052478" lon="16.321215288175654"><ele>999.0</ele><time>2026-04-06T09:40:41Z</time></trkpt><trkpt lat="38.53069496649472" lon="16.3211705673979"><ele>999.0</ele><time>2026-04-06T09:40:42Z</time></trkpt><trkpt lat="38.53045554796268" lon="16.321130134653796"><ele>999.0</ele><time>2026-04-06T09:40:43Z</time></trkpt><trkpt lat="38.53024325547032" lon="16.321086439277543"><ele>999.0</ele><time>2026-04-06T09:40:44Z</time></trkpt><trkpt lat="38.53005462429876" lon="16.321047350612297"><ele>999.0</ele><time>2026-04-06T09:40:45Z</time></trkpt><trkpt lat="38.529885690358256" lon="16.321013945258702"><ele>999.0</ele><time>2026-04-06T09:40:46.001Z</time></trkpt><trkpt lat="38.52972730751906" lon="16.32097972834588"><ele>999.0</ele><time>2026-04-06T09:40:47.001Z</time></trkpt><trkpt lat="38.52958621732383" lon="16.320957720386474"><ele>999.0</ele><time>2026-04-06T09:40:48.001Z</time></trkpt><trkpt lat="38.52947954345585" lon="16.320950747280264"><ele>999.0</ele><time>2026-04-06T09:40:49.001Z</time></trkpt><trkpt lat="38.52939847393402" lon="16.320940890159232"><ele>999.0</ele><time>2026-04-06T09:40:50.001Z</time></trkpt><trkpt lat="38.529279570320504" lon="16.32090761500739"><ele>999.0</ele><time>2026-04-06T09:40:52.001Z</time></trkpt><trkpt lat="38.52919874749473" lon="16.320896273842994"><ele>999.0000000000001</ele><time>2026-04-06T09:40:54.001Z</time></trkpt><trkpt lat="38.52909317224806" lon="16.320883910412366"><ele>999.0000000000001</ele><time>2026-04-06T09:40:56.001Z</time></trkpt><trkpt lat="38.52902210669353" lon="16.32086568654597"><ele>999.0</ele><time>2026-04-06T09:40:57.001Z</time></trkpt><trkpt lat="38.528936481761285" lon="16.320849734099173"><ele>999.0</ele><time>2026-04-06T09:40:58.001Z</time></trkpt><trkpt lat="38.528804161656225" lon="16.3208249157198"><ele>997.0</ele><time>2026-04-06T09:40:59.001Z</time></trkpt><trkpt lat="38.5286428968166" lon="16.32080335696539"><ele>995.0</ele><time>2026-04-06T09:41:00.001Z</time></trkpt><trkpt lat="38.52846629921534" lon="16.320747134342092"><ele>993.0</ele><time>2026-04-06T09:41:01.001Z</time></trkpt><trkpt lat="38.52827003730061" lon="16.320709395701005"><ele>993.0</ele><time>2026-04-06T09:41:02.001Z</time></trkpt><trkpt lat="38.528064227606926" lon="16.32067650282876"><ele>993.0</ele><time>2026-04-06T09:41:03.001Z</time></trkpt><trkpt lat="38.52784327121574" lon="16.320631159519234"><ele>993.0</ele><time>2026-04-06T09:41:04Z</time></trkpt><trkpt lat="38.52761975178578" lon="16.32059897034638"><ele>992.0</ele><time>2026-04-06T09:41:05Z</time></trkpt><trkpt lat="38.52737195204175" lon="16.32056451699453"><ele>991.0</ele><time>2026-04-06T09:41:06Z</time></trkpt><trkpt lat="38.52713137220053" lon="16.32051698911856"><ele>990.0</ele><time>2026-04-06T09:41:07Z</time></trkpt><trkpt lat="38.526890232317655" lon="16.320466369265247"><ele>989.0</ele><time>2026-04-06T09:41:08Z</time></trkpt><trkpt lat="38.52664269276227" lon="16.32041294359555"><ele>989.0</ele><time>2026-04-06T09:41:09Z</time></trkpt><trkpt lat="38.52640502844675" lon="16.320359063933488"><ele>989.0</ele><time>2026-04-06T09:41:10Z</time></trkpt><trkpt lat="38.526187777789616" lon="16.320312298310803"><ele>988.5</ele><time>2026-04-06T09:41:11Z</time></trkpt><trkpt lat="38.52592131517518" lon="16.32027665878825"><ele>988.0</ele><time>2026-04-06T09:41:12Z</time></trkpt><trkpt lat="38.52567400571593" lon="16.320228550130746"><ele>988.0</ele><time>2026-04-06T09:41:13Z</time></trkpt><trkpt lat="38.52542845635223" lon="16.320183352696695"><ele>988.0</ele><time>2026-04-06T09:41:14Z</time></trkpt><trkpt lat="38.525183627022955" lon="16.320138341702563"><ele>990.5</ele><time>2026-04-06T09:41:15Z</time></trkpt><trkpt lat="38.52495090464027" lon="16.32009743060418"><ele>993.0</ele><time>2026-04-06T09:41:16Z</time></trkpt><trkpt lat="38.524735945369564" lon="16.320055510351427"><ele>993.3333333333333</ele><time>2026-04-06T09:41:17Z</time></trkpt><trkpt lat="38.52451750778799" lon="16.320020693926907"><ele>993.6666666666666</ele><time>2026-04-06T09:41:18Z</time></trkpt><trkpt lat="38.52432202997154" lon="16.31998705104708"><ele>994.0</ele><time>2026-04-06T09:41:19Z</time></trkpt><trkpt lat="38.52413745896248" lon="16.319951426805975"><ele>994.0</ele><time>2026-04-06T09:41:20Z</time></trkpt><trkpt lat="38.523924620953906" lon="16.320026241844243"><ele>994.0</ele><time>2026-04-06T09:41:21Z</time></trkpt><trkpt lat="38.523760163644155" lon="16.320091520366017"><ele>994.0</ele><time>2026-04-06T09:41:22Z</time></trkpt><trkpt lat="38.523611288008446" lon="16.32013210822594"><ele>995.0</ele><time>2026-04-06T09:41:23Z</time></trkpt><trkpt lat="38.5234778182285" lon="16.320158435465626"><ele>996.0</ele><time>2026-04-06T09:41:24Z</time></trkpt><trkpt lat="38.52334108335808" lon="16.32011435691943"><ele>997.0</ele><time>2026-04-06T09:41:25Z</time></trkpt><trkpt lat="38.523206778589326" lon="16.320029268592332"><ele>998.0</ele><time>2026-04-06T09:41:26Z</time></trkpt><trkpt lat="38.52308596319352" lon="16.31990049836595"><ele>998.0</ele><time>2026-04-06T09:41:27Z</time></trkpt><trkpt lat="38.52297822657144" lon="16.31976469076793"><ele>998.0</ele><time>2026-04-06T09:41:28Z</time></trkpt><trkpt lat="38.52286369027807" lon="16.3196488300117"><ele>998.0</ele><time>2026-04-06T09:41:29Z</time></trkpt><trkpt lat="38.522728003883884" lon="16.319556396775937"><ele>1000.0</ele><time>2026-04-06T09:41:30Z</time></trkpt><trkpt lat="38.52255509308157" lon="16.31949645154049"><ele>1002.0</ele><time>2026-04-06T09:41:31Z</time></trkpt><trkpt lat="38.52235552060458" lon="16.319477561526035"><ele>1004.0</ele><time>2026-04-06T09:41:32Z</time></trkpt><trkpt lat="38.5221698397408" lon="16.319408391006537"><ele>1005.0</ele><time>2026-04-06T09:41:33Z</time></trkpt><trkpt lat="38.52194487080159" lon="16.319359805292642"><ele>1006.0</ele><time>2026-04-06T09:41:34Z</time></trkpt><trkpt lat="38.52170338295252" lon="16.319267852799918"><ele>1006.0</ele><time>2026-04-06T09:41:35Z</time></trkpt><trkpt lat="38.52149453470886" lon="16.319204455794825"><ele>1006.0</ele><time>2026-04-06T09:41:36Z</time></trkpt><trkpt lat="38.52128395401396" lon="16.319135291678133"><ele>1006.0</ele><time>2026-04-06T09:41:37Z</time></trkpt><trkpt lat="38.52109255955445" lon="16.3190687237999"><ele>1006.6666666666666</ele><time>2026-04-06T09:41:38Z</time></trkpt><trkpt lat="38.52093110947196" lon="16.318984766050527"><ele>1007.3333333333333</ele><time>2026-04-06T09:41:39Z</time></trkpt><trkpt lat="38.52078506261205" lon="16.318863090038548"><ele>1008.0</ele><time>2026-04-06T09:41:40Z</time></trkpt><trkpt lat="38.52064335471958" lon="16.31874155462975"><ele>1002.3333333333333</ele><time>2026-04-06T09:41:41Z</time></trkpt><trkpt lat="38.520498205505525" lon="16.318636454673513"><ele>996.6666666666666</ele><time>2026-04-06T09:41:42Z</time></trkpt><trkpt lat="38.520346257072696" lon="16.318542480106455"><ele>991.0</ele><time>2026-04-06T09:41:43Z</time></trkpt><trkpt lat="38.52017563203044" lon="16.318465628297506"><ele>990.3333333333333</ele><time>2026-04-06T09:41:44Z</time></trkpt><trkpt lat="38.51998148428513" lon="16.318471294384917"><ele>989.6666666666667</ele><time>2026-04-06T09:41:45Z</time></trkpt><trkpt lat="38.51980759484168" lon="16.31848331302722"><ele>989.0</ele><time>2026-04-06T09:41:46Z</time></trkpt><trkpt lat="38.51961643741671" lon="16.318559496411595"><ele>990.0</ele><time>2026-04-06T09:41:47Z</time></trkpt><trkpt lat="38.519444490688805" lon="16.31859653378986"><ele>991.0</ele><time>2026-04-06T09:41:48Z</time></trkpt><trkpt lat="38.519310895745384" lon="16.318671685872143"><ele>992.0</ele><time>2026-04-06T09:41:49Z</time></trkpt><trkpt lat="38.51921375773194" lon="16.318762527584905"><ele>993.0</ele><time>2026-04-06T09:41:50Z</time></trkpt><trkpt lat="38.51906966964393" lon="16.31892999098528"><ele>993.0</ele><time>2026-04-06T09:41:51Z</time></trkpt><trkpt lat="38.51899733914264" lon="16.319086967098812"><ele>993.0</ele><time>2026-04-06T09:41:52Z</time></trkpt><trkpt lat="38.51889306863747" lon="16.31925486842767"><ele>993.0</ele><time>2026-04-06T09:41:53Z</time></trkpt><trkpt lat="38.51878641448091" lon="16.319411857317082"><ele>987.25</ele><time>2026-04-06T09:41:54Z</time></trkpt><trkpt lat="38.5187300695091" lon="16.31952191589542"><ele>981.5</ele><time>2026-04-06T09:41:55Z</time></trkpt><trkpt lat="38.51867021182542" lon="16.319648132840154"><ele>975.75</ele><time>2026-04-06T09:41:56Z</time></trkpt><trkpt lat="38.5186405002191" lon="16.31979063661263"><ele>970.0</ele><time>2026-04-06T09:41:57Z</time></trkpt><trkpt lat="38.51863872144716" lon="16.319976052315"><ele>969.6666666666666</ele><time>2026-04-06T09:41:58Z</time></trkpt><trkpt lat="38.51866934173667" lon="16.320161398745316"><ele>969.3333333333333</ele><time>2026-04-06T09:41:59Z</time></trkpt><trkpt lat="38.51870874694953" lon="16.32038582426674"><ele>969.0</ele><time>2026-04-06T09:42:00Z</time></trkpt><trkpt lat="38.51875925054494" lon="16.320621071785837"><ele>972.5</ele><time>2026-04-06T09:42:01Z</time></trkpt><trkpt lat="38.51881205936985" lon="16.320798366968475"><ele>976.0</ele><time>2026-04-06T09:42:02Z</time></trkpt><trkpt lat="38.5188285187606" lon="16.320978702935815"><ele>979.5</ele><time>2026-04-06T09:42:03Z</time></trkpt><trkpt lat="38.51885657498908" lon="16.321072435651928"><ele>983.0</ele><time>2026-04-06T09:42:04Z</time></trkpt><trkpt lat="38.518809708637036" lon="16.321229254762454"><ele>983.0</ele><time>2026-04-06T09:42:05Z</time></trkpt><trkpt lat="38.51873474683891" lon="16.32136902694564"><ele>983.0</ele><time>2026-04-06T09:42:06Z</time></trkpt><trkpt lat="38.51866733281305" lon="16.321456615038564"><ele>983.0</ele><time>2026-04-06T09:42:07Z</time></trkpt><trkpt lat="38.51858180925556" lon="16.32150208710817"><ele>983.0</ele><time>2026-04-06T09:42:08Z</time></trkpt><trkpt lat="38.51847868434111" lon="16.321462829412393"><ele>983.0</ele><time>2026-04-06T09:42:09Z</time></trkpt><trkpt lat="38.51839791086565" lon="16.321356872470556"><ele>977.75</ele><time>2026-04-06T09:42:10Z</time></trkpt><trkpt lat="38.51834028405822" lon="16.32119206678164"><ele>972.5</ele><time>2026-04-06T09:42:11Z</time></trkpt><trkpt lat="38.51825045897698" lon="16.32105928370976"><ele>967.25</ele><time>2026-04-06T09:42:12Z</time></trkpt><trkpt lat="38.51812420671282" lon="16.32094789693045"><ele>962.0</ele><time>2026-04-06T09:42:13Z</time></trkpt><trkpt lat="38.5179707553584" lon="16.3208689923259"><ele>958.6666666666667</ele><time>2026-04-06T09:42:14Z</time></trkpt><trkpt lat="38.517838428263424" lon="16.320796674443947"><ele>955.3333333333333</ele><time>2026-04-06T09:42:15Z</time></trkpt><trkpt lat="38.517699416042774" lon="16.320734611883747"><ele>952.0</ele><time>2026-04-06T09:42:16Z</time></trkpt><trkpt lat="38.51753841610414" lon="16.320717272210555"><ele>952.0</ele><time>2026-04-06T09:42:17Z</time></trkpt><trkpt lat="38.51733793596737" lon="16.32075040999428"><ele>952.0</ele><time>2026-04-06T09:42:18Z</time></trkpt><trkpt lat="38.51713612168918" lon="16.320773599165495"><ele>952.0</ele><time>2026-04-06T09:42:19Z</time></trkpt><trkpt lat="38.516955309264944" lon="16.32078776314147"><ele>950.3333333333333</ele><time>2026-04-06T09:42:20Z</time></trkpt><trkpt lat="38.51676869355423" lon="16.320793662110177"><ele>948.6666666666667</ele><time>2026-04-06T09:42:21Z</time></trkpt><trkpt lat="38.51659050844749" lon="16.320783892432853"><ele>947.0</ele><time>2026-04-06T09:42:22.001Z</time></trkpt><trkpt lat="38.516401015636525" lon="16.3207513841195"><ele>947.0</ele><time>2026-04-06T09:42:23.001Z</time></trkpt><trkpt lat="38.51624142450537" lon="16.320703384063936"><ele>947.0</ele><time>2026-04-06T09:42:24.001Z</time></trkpt><trkpt lat="38.5160845560281" lon="16.32065527875822"><ele>947.0</ele><time>2026-04-06T09:42:25.001Z</time></trkpt><trkpt lat="38.51593940608547" lon="16.32062455788256"><ele>945.25</ele><time>2026-04-06T09:42:26.001Z</time></trkpt><trkpt lat="38.515812043919404" lon="16.320590640766966"><ele>943.5</ele><time>2026-04-06T09:42:27.001Z</time></trkpt><trkpt lat="38.51570439949574" lon="16.320543522186988"><ele>941.75</ele><time>2026-04-06T09:42:28.001Z</time></trkpt><trkpt lat="38.51558450211135" lon="16.32046939397669"><ele>940.0</ele><time>2026-04-06T09:42:29.001Z</time></trkpt><trkpt lat="38.51545706212515" lon="16.320385465637855"><ele>937.3333333333333</ele><time>2026-04-06T09:42:30.001Z</time></trkpt><trkpt lat="38.51532405040308" lon="16.32030799382657"><ele>934.6666666666667</ele><time>2026-04-06T09:42:31.001Z</time></trkpt><trkpt lat="38.51518172149827" lon="16.320227422472684"><ele>932.0</ele><time>2026-04-06T09:42:32.001Z</time></trkpt><trkpt lat="38.5150472379689" lon="16.32014295775924"><ele>932.0</ele><time>2026-04-06T09:42:33.001Z</time></trkpt><trkpt lat="38.51491855458394" lon="16.32005612873758"><ele>932.0</ele><time>2026-04-06T09:42:34.001Z</time></trkpt><trkpt lat="38.514802551290984" lon="16.319971882232657"><ele>932.0</ele><time>2026-04-06T09:42:35.001Z</time></trkpt><trkpt lat="38.51468889778113" lon="16.319890324441474"><ele>932.0</ele><time>2026-04-06T09:42:36.001Z</time></trkpt><trkpt lat="38.51457345931167" lon="16.319816371073422"><ele>930.5</ele><time>2026-04-06T09:42:37.001Z</time></trkpt><trkpt lat="38.514466166378924" lon="16.31976113910326"><ele>929.0</ele><time>2026-04-06T09:42:38.001Z</time></trkpt><trkpt lat="38.5143599568585" lon="16.319684386676727"><ele>927.5</ele><time>2026-04-06T09:42:39.001Z</time></trkpt><trkpt lat="38.51425440967206" lon="16.319609014315876"><ele>926.0</ele><time>2026-04-06T09:42:40.001Z</time></trkpt><trkpt lat="38.51415713597183" lon="16.319564788627517"><ele>926.0</ele><time>2026-04-06T09:42:41.001Z</time></trkpt><trkpt lat="38.51405145101714" lon="16.31948822945725"><ele>925.9999999999999</ele><time>2026-04-06T09:42:42.001Z</time></trkpt><trkpt lat="38.51396213664997" lon="16.319405636051016"><ele>925.9999999999999</ele><time>2026-04-06T09:42:43.001Z</time></trkpt><trkpt lat="38.51386872283975" lon="16.31932679743606"><ele>926.0</ele><time>2026-04-06T09:42:44.001Z</time></trkpt><trkpt lat="38.513788686179225" lon="16.319265189627732"><ele>926.0</ele><time>2026-04-06T09:42:45.001Z</time></trkpt><trkpt lat="38.513705518427564" lon="16.319198624073774"><ele>924.8333333333334</ele><time>2026-04-06T09:42:46.001Z</time></trkpt><trkpt lat="38.51365107219079" lon="16.319126427834618"><ele>923.6666666666667</ele><time>2026-04-06T09:42:49.001Z</time></trkpt><trkpt lat="38.51362386267956" lon="16.319051669341384"><ele>922.5</ele><time>2026-04-06T09:42:52.001Z</time></trkpt><trkpt lat="38.51365629020082" lon="16.31895519671439"><ele>921.3333333333333</ele><time>2026-04-06T09:42:55.001Z</time></trkpt><trkpt lat="38.51371824430438" lon="16.31897140736695"><ele>920.1666666666666</ele><time>2026-04-06T09:44:24Z</time></trkpt><trkpt lat="38.51366915955951" lon="16.318916958053308"><ele>919.0</ele><time>2026-04-06T09:44:35Z</time></trkpt><trkpt lat="38.51371704302073" lon="16.318768514548584"><ele>919.0</ele><time>2026-04-06T09:44:37Z</time></trkpt><trkpt lat="38.51378274791452" lon="16.318686259686825"><ele>919.0000000000001</ele><time>2026-04-06T09:44:38Z</time></trkpt><trkpt lat="38.513853729362566" lon="16.31861008287757"><ele>919.0000000000001</ele><time>2026-04-06T09:44:39Z</time></trkpt><trkpt lat="38.513922413873054" lon="16.318530621304557"><ele>919.0</ele><time>2026-04-06T09:44:40Z</time></trkpt><trkpt lat="38.51398979872194" lon="16.31846448134579"><ele>919.0</ele><time>2026-04-06T09:44:41Z</time></trkpt><trkpt lat="38.51407349210374" lon="16.318401918338406"><ele>919.0</ele><time>2026-04-06T09:44:42Z</time></trkpt><trkpt lat="38.51418702276228" lon="16.318349007870147"><ele>919.0</ele><time>2026-04-06T09:44:43Z</time></trkpt><trkpt lat="38.514324578632994" lon="16.318306493052567"><ele>919.0</ele><time>2026-04-06T09:44:44Z</time></trkpt><trkpt lat="38.51444793530724" lon="16.318264871308767"><ele>919.0</ele><time>2026-04-06T09:44:45Z</time></trkpt><trkpt lat="38.51455833642519" lon="16.318222478518955"><ele>919.0</ele><time>2026-04-06T09:44:46Z</time></trkpt><trkpt lat="38.51467511577695" lon="16.318189541458104"><ele>919.0</ele><time>2026-04-06T09:44:47Z</time></trkpt><trkpt lat="38.51480328946559" lon="16.318180388820704"><ele>919.0</ele><time>2026-04-06T09:44:48Z</time></trkpt><trkpt lat="38.51493678834346" lon="16.318191896482766"><ele>919.0</ele><time>2026-04-06T09:44:49Z</time></trkpt><trkpt lat="38.51507227493107" lon="16.318223866442192"><ele>919.0</ele><time>2026-04-06T09:44:50Z</time></trkpt><trkpt lat="38.515193664468114" lon="16.31828974316322"><ele>919.0</ele><time>2026-04-06T09:44:51Z</time></trkpt><trkpt lat="38.51528859099294" lon="16.31839296231442"><ele>919.0</ele><time>2026-04-06T09:44:52Z</time></trkpt><trkpt lat="38.5153835358572" lon="16.31847710866308"><ele>919.0</ele><time>2026-04-06T09:44:53Z</time></trkpt><trkpt lat="38.51548025341482" lon="16.318530312831633"><ele>918.0</ele><time>2026-04-06T09:44:54Z</time></trkpt><trkpt lat="38.515579035140085" lon="16.318522720873137"><ele>917.0</ele><time>2026-04-06T09:44:55Z</time></trkpt><trkpt lat="38.51568486646731" lon="16.318452693507012"><ele>916.0</ele><time>2026-04-06T09:44:56Z</time></trkpt><trkpt lat="38.51577743597952" lon="16.31836099360766"><ele>915.0</ele><time>2026-04-06T09:44:57Z</time></trkpt><trkpt lat="38.515823866968525" lon="16.318212074984565"><ele>914.6666666666667</ele><time>2026-04-06T09:44:58Z</time></trkpt><trkpt lat="38.51579850351417" lon="16.318041375799687"><ele>914.3333333333334</ele><time>2026-04-06T09:44:59Z</time></trkpt><trkpt lat="38.515741419117894" lon="16.317861331935543"><ele>914.0</ele><time>2026-04-06T09:45:00Z</time></trkpt><trkpt lat="38.51565188766632" lon="16.317656715717053"><ele>914.0</ele><time>2026-04-06T09:45:01Z</time></trkpt><trkpt lat="38.51553516877871" lon="16.31747353180642"><ele>914.0</ele><time>2026-04-06T09:45:02Z</time></trkpt><trkpt lat="38.51539214484691" lon="16.317303427551103"><ele>914.0</ele><time>2026-04-06T09:45:03Z</time></trkpt><trkpt lat="38.5152386672361" lon="16.31713677989885"><ele>912.0</ele><time>2026-04-06T09:45:04Z</time></trkpt><trkpt lat="38.51504550803114" lon="16.316948650430525"><ele>910.0</ele><time>2026-04-06T09:45:05Z</time></trkpt><trkpt lat="38.51485930939003" lon="16.31675245570379"><ele>910.0</ele><time>2026-04-06T09:45:06Z</time></trkpt><trkpt lat="38.51467237849888" lon="16.316554892715047"><ele>910.0</ele><time>2026-04-06T09:45:07Z</time></trkpt><trkpt lat="38.51449295496032" lon="16.31638711443064"><ele>907.25</ele><time>2026-04-06T09:45:08Z</time></trkpt><trkpt lat="38.514410486266065" lon="16.31617754358123"><ele>904.5</ele><time>2026-04-06T09:45:09Z</time></trkpt><trkpt lat="38.51443724595479" lon="16.31602830473878"><ele>901.75</ele><time>2026-04-06T09:45:10Z</time></trkpt><trkpt lat="38.51445959271719" lon="16.315883979288024"><ele>899.0</ele><time>2026-04-06T09:45:11Z</time></trkpt><trkpt lat="38.514494128686444" lon="16.315957886429977"><ele>899.0</ele><time>2026-04-06T09:45:12Z</time></trkpt><trkpt lat="38.51456022367362" lon="16.31578567314954"><ele>899.0</ele><time>2026-04-06T09:45:13Z</time></trkpt><trkpt lat="38.51465095497489" lon="16.315556946017225"><ele>899.0</ele><time>2026-04-06T09:45:14Z</time></trkpt><trkpt lat="38.514732433379855" lon="16.315346052924898"><ele>900.0</ele><time>2026-04-06T09:45:15Z</time></trkpt><trkpt lat="38.51478561814642" lon="16.315162046301126"><ele>901.0000000000001</ele><time>2026-04-06T09:45:15.999Z</time></trkpt><trkpt lat="38.51483719936041" lon="16.315031341638583"><ele>902.0000000000001</ele><time>2026-04-06T09:45:16.999Z</time></trkpt><trkpt lat="38.51485731962787" lon="16.314921982035816"><ele>903.0</ele><time>2026-04-06T09:45:17.999Z</time></trkpt><trkpt lat="38.51481428623964" lon="16.314819204755118"><ele>904.0</ele><time>2026-04-06T09:45:18.999Z</time></trkpt><trkpt lat="38.51473461877854" lon="16.314747837447843"><ele>904.2</ele><time>2026-04-06T09:45:19.999Z</time></trkpt><trkpt lat="38.51463468102213" lon="16.314668458391047"><ele>904.4000000000001</ele><time>2026-04-06T09:45:20.999Z</time></trkpt><trkpt lat="38.51453997465332" lon="16.31459871485166"><ele>904.6</ele><time>2026-04-06T09:45:21.999Z</time></trkpt><trkpt lat="38.51450337795548" lon="16.3145311941137"><ele>904.8</ele><time>2026-04-06T09:45:22.999Z</time></trkpt><trkpt lat="38.514437719358774" lon="16.314514450017295"><ele>905.0</ele><time>2026-04-06T09:45:24.999Z</time></trkpt><trkpt lat="38.51432118768412" lon="16.314569161977325"><ele>904.25</ele><time>2026-04-06T09:45:27.999Z</time></trkpt><trkpt lat="38.514225026287015" lon="16.314603812278843"><ele>903.5</ele><time>2026-04-06T09:45:28.999Z</time></trkpt><trkpt lat="38.514129056262" lon="16.31468587905874"><ele>902.75</ele><time>2026-04-06T09:45:29.999Z</time></trkpt><trkpt lat="38.5140167460749" lon="16.314791554457965"><ele>902.0</ele><time>2026-04-06T09:45:30.999Z</time></trkpt><trkpt lat="38.51392954953845" lon="16.314877358276362"><ele>902.0</ele><time>2026-04-06T09:45:31.999Z</time></trkpt><trkpt lat="38.51384747497135" lon="16.314947782744422"><ele>902.0</ele><time>2026-04-06T09:45:32.999Z</time></trkpt><trkpt lat="38.51373840937542" lon="16.315001388563427"><ele>902.0</ele><time>2026-04-06T09:45:34Z</time></trkpt><trkpt lat="38.513634814471885" lon="16.314997990138444"><ele>902.0</ele><time>2026-04-06T09:45:35Z</time></trkpt><trkpt lat="38.513534988941075" lon="16.314916620472186"><ele>902.0</ele><time>2026-04-06T09:45:36Z</time></trkpt><trkpt lat="38.51344817455941" lon="16.31473785439827"><ele>906.0</ele><time>2026-04-06T09:45:37Z</time></trkpt><trkpt lat="38.51336243006041" lon="16.314600016027192"><ele>910.0</ele><time>2026-04-06T09:45:38Z</time></trkpt><trkpt lat="38.51326239185161" lon="16.31451187345497"><ele>914.0</ele><time>2026-04-06T09:45:39Z</time></trkpt><trkpt lat="38.513158395940174" lon="16.314471097873728"><ele>918.0</ele><time>2026-04-06T09:45:40Z</time></trkpt><trkpt lat="38.5130365222446" lon="16.314501076454473"><ele>918.0</ele><time>2026-04-06T09:45:41Z</time></trkpt><trkpt lat="38.51292156510417" lon="16.314571105127452"><ele>918.0</ele><time>2026-04-06T09:45:42Z</time></trkpt><trkpt lat="38.51285495865133" lon="16.314673739988375"><ele>918.0</ele><time>2026-04-06T09:45:43Z</time></trkpt><trkpt lat="38.512795687327454" lon="16.314794803887402"><ele>918.0</ele><time>2026-04-06T09:45:44Z</time></trkpt><trkpt lat="38.512850617547016" lon="16.3149531202638"><ele>917.2</ele><time>2026-04-06T09:45:45Z</time></trkpt><trkpt lat="38.51287262175365" lon="16.315086454406114"><ele>916.4</ele><time>2026-04-06T09:45:46Z</time></trkpt><trkpt lat="38.512898764259425" lon="16.315200880478958"><ele>915.6000000000001</ele><time>2026-04-06T09:45:47Z</time></trkpt><trkpt lat="38.51286990664989" lon="16.31530958483045"><ele>914.8000000000001</ele><time>2026-04-06T09:45:48Z</time></trkpt><trkpt lat="38.51280519340947" lon="16.315408420137654"><ele>914.0</ele><time>2026-04-06T09:45:49Z</time></trkpt><trkpt lat="38.51269696359577" lon="16.315451479731152"><ele>914.0</ele><time>2026-04-06T09:45:50Z</time></trkpt><trkpt lat="38.51255613432389" lon="16.31549366928661"><ele>914.0</ele><time>2026-04-06T09:45:51Z</time></trkpt><trkpt lat="38.51239016960829" lon="16.315538222555887"><ele>914.0</ele><time>2026-04-06T09:45:52Z</time></trkpt><trkpt lat="38.51220264182989" lon="16.315591222968635"><ele>914.0</ele><time>2026-04-06T09:45:53Z</time></trkpt><trkpt lat="38.51200977155871" lon="16.315643281660332"><ele>914.0</ele><time>2026-04-06T09:45:54Z</time></trkpt><trkpt lat="38.511809951167265" lon="16.315704096159152"><ele>914.0</ele><time>2026-04-06T09:45:55Z</time></trkpt><trkpt lat="38.51164984743661" lon="16.31574953657658"><ele>914.0</ele><time>2026-04-06T09:45:56Z</time></trkpt><trkpt lat="38.511498457935964" lon="16.31579751157724"><ele>914.0</ele><time>2026-04-06T09:45:57Z</time></trkpt><trkpt lat="38.51135230316019" lon="16.315804912713098"><ele>914.0</ele><time>2026-04-06T09:45:58Z</time></trkpt><trkpt lat="38.51120453102415" lon="16.31576301294729"><ele>914.0</ele><time>2026-04-06T09:45:59Z</time></trkpt><trkpt lat="38.51107659951239" lon="16.315639876274194"><ele>914.0</ele><time>2026-04-06T09:46:00Z</time></trkpt><trkpt lat="38.51094036361382" lon="16.315510300439144"><ele>914.0</ele><time>2026-04-06T09:46:01Z</time></trkpt><trkpt lat="38.5108315472647" lon="16.31535650307222"><ele>917.3333333333334</ele><time>2026-04-06T09:46:02Z</time></trkpt><trkpt lat="38.51075159546684" lon="16.315199983714145"><ele>920.6666666666667</ele><time>2026-04-06T09:46:03Z</time></trkpt><trkpt lat="38.510711923207666" lon="16.314991019000338"><ele>924.0</ele><time>2026-04-06T09:46:04Z</time></trkpt><trkpt lat="38.51064942562377" lon="16.314753206599416"><ele>925.0</ele><time>2026-04-06T09:46:05Z</time></trkpt><trkpt lat="38.5106231402694" lon="16.31450926539931"><ele>926.0</ele><time>2026-04-06T09:46:06Z</time></trkpt><trkpt lat="38.510570693942974" lon="16.31431347010667"><ele>927.0</ele><time>2026-04-06T09:46:07Z</time></trkpt><trkpt lat="38.510521723576694" lon="16.314121149764453"><ele>927.0</ele><time>2026-04-06T09:46:08Z</time></trkpt><trkpt lat="38.5104881578983" lon="16.313906929348825"><ele>927.0</ele><time>2026-04-06T09:46:09Z</time></trkpt><trkpt lat="38.51048623930767" lon="16.31367781698656"><ele>927.0</ele><time>2026-04-06T09:46:10Z</time></trkpt><trkpt lat="38.51051358512176" lon="16.313414188148407"><ele>928.0</ele><time>2026-04-06T09:46:11Z</time></trkpt><trkpt lat="38.51053685874208" lon="16.31314280912511"><ele>929.0</ele><time>2026-04-06T09:46:12Z</time></trkpt><trkpt lat="38.510534778054705" lon="16.31287752999681"><ele>930.0</ele><time>2026-04-06T09:46:13Z</time></trkpt><trkpt lat="38.510518103395825" lon="16.312611615361924"><ele>929.6666666666667</ele><time>2026-04-06T09:46:14Z</time></trkpt><trkpt lat="38.51047675337351" lon="16.312376300105807"><ele>929.3333333333334</ele><time>2026-04-06T09:46:15Z</time></trkpt><trkpt lat="38.51043720240488" lon="16.312147646758657"><ele>929.0</ele><time>2026-04-06T09:46:16Z</time></trkpt><trkpt lat="38.51038874011423" lon="16.31193648308677"><ele>929.0</ele><time>2026-04-06T09:46:17Z</time></trkpt><trkpt lat="38.51030635619751" lon="16.311718500471727"><ele>929.0</ele><time>2026-04-06T09:46:18Z</time></trkpt><trkpt lat="38.51019954629067" lon="16.31151006647044"><ele>929.0</ele><time>2026-04-06T09:46:19Z</time></trkpt><trkpt lat="38.51010233193542" lon="16.311328821648505"><ele>931.0</ele><time>2026-04-06T09:46:20Z</time></trkpt><trkpt lat="38.510012529251846" lon="16.31118200646008"><ele>933.0</ele><time>2026-04-06T09:46:21Z</time></trkpt><trkpt lat="38.50991142556185" lon="16.311067506739626"><ele>935.0</ele><time>2026-04-06T09:46:22Z</time></trkpt><trkpt lat="38.509779118825485" lon="16.310999565848366"><ele>937.0</ele><time>2026-04-06T09:46:23Z</time></trkpt><trkpt lat="38.50962885594761" lon="16.31098010254949"><ele>936.6666666666666</ele><time>2026-04-06T09:46:24Z</time></trkpt><trkpt lat="38.5094213353482" lon="16.31101249142624"><ele>936.3333333333333</ele><time>2026-04-06T09:46:25Z</time></trkpt><trkpt lat="38.50922284116952" lon="16.311063491593472"><ele>936.0</ele><time>2026-04-06T09:46:26Z</time></trkpt><trkpt lat="38.50902859995871" lon="16.31109431978156"><ele>936.0</ele><time>2026-04-06T09:46:27Z</time></trkpt><trkpt lat="38.50885896217625" lon="16.31109174724024"><ele>936.0</ele><time>2026-04-06T09:46:28Z</time></trkpt><trkpt lat="38.50871790082451" lon="16.31109400971567"><ele>936.0</ele><time>2026-04-06T09:46:29Z</time></trkpt><trkpt lat="38.50858486786317" lon="16.311028180234565"><ele>934.5</ele><time>2026-04-06T09:46:30Z</time></trkpt><trkpt lat="38.50850143274772" lon="16.310927057196093"><ele>933.0</ele><time>2026-04-06T09:46:31Z</time></trkpt><trkpt lat="38.508520460464716" lon="16.31075134235718"><ele>931.5</ele><time>2026-04-06T09:46:32Z</time></trkpt><trkpt lat="38.50857429531517" lon="16.310630536031763"><ele>930.0</ele><time>2026-04-06T09:46:33Z</time></trkpt><trkpt lat="38.50863379288095" lon="16.310496275041885"><ele>930.0</ele><time>2026-04-06T09:46:34Z</time></trkpt><trkpt lat="38.5086934281008" lon="16.31031708531056"><ele>930.0</ele><time>2026-04-06T09:46:35Z</time></trkpt><trkpt lat="38.50875239454113" lon="16.31014880488877"><ele>930.0</ele><time>2026-04-06T09:46:36Z</time></trkpt><trkpt lat="38.50878661562664" lon="16.310005944937675"><ele>930.0</ele><time>2026-04-06T09:46:37Z</time></trkpt><trkpt lat="38.508747534422234" lon="16.30986835893448"><ele>930.0</ele><time>2026-04-06T09:46:38Z</time></trkpt><trkpt lat="38.508654597577184" lon="16.30975958538566"><ele>930.0</ele><time>2026-04-06T09:46:39Z</time></trkpt><trkpt lat="38.50852965092943" lon="16.309668720043064"><ele>930.0</ele><time>2026-04-06T09:46:40Z</time></trkpt><trkpt lat="38.508394147695036" lon="16.30962449360129"><ele>930.0</ele><time>2026-04-06T09:46:41Z</time></trkpt><trkpt lat="38.50825157849636" lon="16.309649133393094"><ele>930.0</ele><time>2026-04-06T09:46:42Z</time></trkpt><trkpt lat="38.50812003557058" lon="16.309734350191356"><ele>930.0</ele><time>2026-04-06T09:46:43Z</time></trkpt><trkpt lat="38.50798830563305" lon="16.309879127567612"><ele>930.0</ele><time>2026-04-06T09:46:44Z</time></trkpt><trkpt lat="38.50785255331453" lon="16.309956011172563"><ele>930.0</ele><time>2026-04-06T09:46:45Z</time></trkpt><trkpt lat="38.50771627819114" lon="16.31001308447218"><ele>930.0</ele><time>2026-04-06T09:46:46Z</time></trkpt><trkpt lat="38.507569281361626" lon="16.309961447920436"><ele>930.0</ele><time>2026-04-06T09:46:47Z</time></trkpt><trkpt lat="38.50743287761265" lon="16.309862203439693"><ele>931.0</ele><time>2026-04-06T09:46:48Z</time></trkpt><trkpt lat="38.5073315502011" lon="16.30973307164996"><ele>932.0</ele><time>2026-04-06T09:46:49Z</time></trkpt><trkpt lat="38.507244731212324" lon="16.309566313490308"><ele>933.0</ele><time>2026-04-06T09:46:50Z</time></trkpt><trkpt lat="38.50720041992393" lon="16.309347522087204"><ele>933.0</ele><time>2026-04-06T09:46:51Z</time></trkpt><trkpt lat="38.50715373713949" lon="16.3091160366951"><ele>933.0</ele><time>2026-04-06T09:46:52Z</time></trkpt><trkpt lat="38.50710123835178" lon="16.30883973454458"><ele>933.0</ele><time>2026-04-06T09:46:53Z</time></trkpt><trkpt lat="38.50706216335611" lon="16.308613011852994"><ele>933.0</ele><time>2026-04-06T09:46:54Z</time></trkpt><trkpt lat="38.507012664305684" lon="16.308447256762662"><ele>933.0</ele><time>2026-04-06T09:46:55Z</time></trkpt><trkpt lat="38.50697851528301" lon="16.308332403362236"><ele>933.0</ele><time>2026-04-06T09:46:56Z</time></trkpt><trkpt lat="38.50691500506598" lon="16.308245178042487"><ele>933.0</ele><time>2026-04-06T09:46:57Z</time></trkpt><trkpt lat="38.50681955963577" lon="16.308191400914723"><ele>933.0</ele><time>2026-04-06T09:46:58Z</time></trkpt><trkpt lat="38.506694225650975" lon="16.30820275039478"><ele>933.0</ele><time>2026-04-06T09:46:59Z</time></trkpt><trkpt lat="38.50659526213203" lon="16.308236859829545"><ele>933.0</ele><time>2026-04-06T09:47:00Z</time></trkpt><trkpt lat="38.50650971495268" lon="16.30828257045969"><ele>933.0</ele><time>2026-04-06T09:47:01Z</time></trkpt><trkpt lat="38.5064473039649" lon="16.30835060874339"><ele>933.0</ele><time>2026-04-06T09:47:02Z</time></trkpt><trkpt lat="38.506395748085204" lon="16.30848252830432"><ele>933.0</ele><time>2026-04-06T09:47:03Z</time></trkpt><trkpt lat="38.50636701346337" lon="16.30864781465574"><ele>933.0</ele><time>2026-04-06T09:47:04Z</time></trkpt><trkpt lat="38.50631883872597" lon="16.308842327035844"><ele>933.0</ele><time>2026-04-06T09:47:05Z</time></trkpt><trkpt lat="38.50628297589649" lon="16.30907045533824"><ele>933.0</ele><time>2026-04-06T09:47:06Z</time></trkpt><trkpt lat="38.50621894964724" lon="16.309246885183253"><ele>935.5</ele><time>2026-04-06T09:47:07Z</time></trkpt><trkpt lat="38.506167193166206" lon="16.309400896780684"><ele>938.0</ele><time>2026-04-06T09:47:08Z</time></trkpt><trkpt lat="38.50605633055173" lon="16.309489743407724"><ele>940.5</ele><time>2026-04-06T09:47:09Z</time></trkpt><trkpt lat="38.505930618215686" lon="16.309557375895242"><ele>943.0</ele><time>2026-04-06T09:47:10Z</time></trkpt><trkpt lat="38.505788854218466" lon="16.30969488346022"><ele>941.75</ele><time>2026-04-06T09:47:11Z</time></trkpt><trkpt lat="38.50567741232119" lon="16.30978451204069"><ele>940.5</ele><time>2026-04-06T09:47:12Z</time></trkpt><trkpt lat="38.50563765297288" lon="16.309951117175565"><ele>939.25</ele><time>2026-04-06T09:47:13Z</time></trkpt><trkpt lat="38.50564714255349" lon="16.31012000032546"><ele>938.0</ele><time>2026-04-06T09:47:14Z</time></trkpt><trkpt lat="38.50572510861346" lon="16.310308949465593"><ele>938.0</ele><time>2026-04-06T09:47:15Z</time></trkpt><trkpt lat="38.50584214933699" lon="16.3105085517752"><ele>938.0</ele><time>2026-04-06T09:47:16Z</time></trkpt><trkpt lat="38.505944621086876" lon="16.310686449430207"><ele>938.0</ele><time>2026-04-06T09:47:17Z</time></trkpt><trkpt lat="38.50598217971883" lon="16.31085783760297"><ele>939.0</ele><time>2026-04-06T09:47:18Z</time></trkpt><trkpt lat="38.505986816153026" lon="16.31101222193282"><ele>940.0</ele><time>2026-04-06T09:47:19Z</time></trkpt><trkpt lat="38.50595180320037" lon="16.311168846634747"><ele>941.0</ele><time>2026-04-06T09:47:20Z</time></trkpt><trkpt lat="38.5058843018118" lon="16.311314521354234"><ele>942.0</ele><time>2026-04-06T09:47:21Z</time></trkpt><trkpt lat="38.505774484175966" lon="16.311429132579253"><ele>943.0</ele><time>2026-04-06T09:47:21.999Z</time></trkpt><trkpt lat="38.50564189310796" lon="16.31150339097288"><ele>944.0</ele><time>2026-04-06T09:47:22.999Z</time></trkpt><trkpt lat="38.505509565670145" lon="16.311497987284522"><ele>945.0</ele><time>2026-04-06T09:47:23.999Z</time></trkpt><trkpt lat="38.50535573438763" lon="16.311419289910397"><ele>946.0</ele><time>2026-04-06T09:47:24.999Z</time></trkpt><trkpt lat="38.50517260557923" lon="16.311303451796032"><ele>946.0</ele><time>2026-04-06T09:47:25.999Z</time></trkpt><trkpt lat="38.50497255367797" lon="16.311183747489743"><ele>946.0</ele><time>2026-04-06T09:47:26.999Z</time></trkpt><trkpt lat="38.50478327254404" lon="16.311086364718264"><ele>946.0</ele><time>2026-04-06T09:47:27.999Z</time></trkpt><trkpt lat="38.50462219844662" lon="16.31097944832098"><ele>946.0</ele><time>2026-04-06T09:47:28.999Z</time></trkpt><trkpt lat="38.50449701916609" lon="16.310846263943173"><ele>946.0</ele><time>2026-04-06T09:47:29.999Z</time></trkpt><trkpt lat="38.504398278608555" lon="16.310674334102593"><ele>946.0</ele><time>2026-04-06T09:47:30.999Z</time></trkpt><trkpt lat="38.50431859043458" lon="16.31048473545715"><ele>946.0</ele><time>2026-04-06T09:47:31.999Z</time></trkpt><trkpt lat="38.50425257929743" lon="16.31026891690094"><ele>946.0</ele><time>2026-04-06T09:47:33Z</time></trkpt><trkpt lat="38.504203317726756" lon="16.31003880619958"><ele>946.0</ele><time>2026-04-06T09:47:34Z</time></trkpt><trkpt lat="38.504187584978496" lon="16.309830031852982"><ele>945.0</ele><time>2026-04-06T09:47:35Z</time></trkpt><trkpt lat="38.50422899777987" lon="16.30964949006966"><ele>944.0</ele><time>2026-04-06T09:47:36Z</time></trkpt><trkpt lat="38.504276163510156" lon="16.309418922298967"><ele>943.0</ele><time>2026-04-06T09:47:37Z</time></trkpt><trkpt lat="38.50434160988032" lon="16.30918306537395"><ele>943.0</ele><time>2026-04-06T09:47:38Z</time></trkpt><trkpt lat="38.50442150633782" lon="16.308942913403122"><ele>943.0</ele><time>2026-04-06T09:47:39Z</time></trkpt><trkpt lat="38.50449220053918" lon="16.308744121933984"><ele>943.0</ele><time>2026-04-06T09:47:40Z</time></trkpt><trkpt lat="38.50457630147382" lon="16.308617742203943"><ele>942.5</ele><time>2026-04-06T09:47:41Z</time></trkpt><trkpt lat="38.50467842230234" lon="16.308536938219316"><ele>942.0</ele><time>2026-04-06T09:47:42Z</time></trkpt><trkpt lat="38.504811329982545" lon="16.30850305181801"><ele>941.5</ele><time>2026-04-06T09:47:43Z</time></trkpt><trkpt lat="38.50493203536909" lon="16.308406797603062"><ele>941.0</ele><time>2026-04-06T09:47:44Z</time></trkpt><trkpt lat="38.50501585828401" lon="16.30828178578616"><ele>941.0</ele><time>2026-04-06T09:47:45Z</time></trkpt><trkpt lat="38.50505687357268" lon="16.308093675320766"><ele>941.0</ele><time>2026-04-06T09:47:46Z</time></trkpt><trkpt lat="38.50505335158771" lon="16.307918655112477"><ele>941.0</ele><time>2026-04-06T09:47:47Z</time></trkpt><trkpt lat="38.505004532288375" lon="16.30774562102222"><ele>941.0</ele><time>2026-04-06T09:47:48Z</time></trkpt><trkpt lat="38.50490658931999" lon="16.307559008145546"><ele>940.3333333333334</ele><time>2026-04-06T09:47:49Z</time></trkpt><trkpt lat="38.504820740485094" lon="16.30733330619875"><ele>939.6666666666667</ele><time>2026-04-06T09:47:50Z</time></trkpt><trkpt lat="38.50469774557732" lon="16.307148372274504"><ele>939.0</ele><time>2026-04-06T09:47:51Z</time></trkpt><trkpt lat="38.50456456305067" lon="16.307001847725626"><ele>937.6666666666667</ele><time>2026-04-06T09:47:52Z</time></trkpt><trkpt lat="38.50439691724075" lon="16.30690928019145"><ele>936.3333333333334</ele><time>2026-04-06T09:47:53Z</time></trkpt><trkpt lat="38.504201956513356" lon="16.306847992489715"><ele>935.0</ele><time>2026-04-06T09:47:54Z</time></trkpt><trkpt lat="38.50403014725003" lon="16.30678020789039"><ele>935.0</ele><time>2026-04-06T09:47:55Z</time></trkpt><trkpt lat="38.5038977447107" lon="16.30667815446921"><ele>935.0</ele><time>2026-04-06T09:47:56Z</time></trkpt><trkpt lat="38.50379188884832" lon="16.306517791924964"><ele>935.0</ele><time>2026-04-06T09:47:57Z</time></trkpt><trkpt lat="38.50369192038679" lon="16.306292359518615"><ele>932.0</ele><time>2026-04-06T09:47:58Z</time></trkpt><trkpt lat="38.503577375957946" lon="16.306068818237033"><ele>929.0</ele><time>2026-04-06T09:47:59Z</time></trkpt><trkpt lat="38.50347420977497" lon="16.305851706186562"><ele>926.0</ele><time>2026-04-06T09:48:00Z</time></trkpt><trkpt lat="38.50339330268664" lon="16.30566627218689"><ele>925.5</ele><time>2026-04-06T09:48:01Z</time></trkpt><trkpt lat="38.50333225592606" lon="16.305515699925916"><ele>925.0</ele><time>2026-04-06T09:48:02Z</time></trkpt><trkpt lat="38.50329206580518" lon="16.305385942747485"><ele>924.5</ele><time>2026-04-06T09:48:03Z</time></trkpt><trkpt lat="38.50327365974289" lon="16.305240671405606"><ele>924.0</ele><time>2026-04-06T09:48:04Z</time></trkpt><trkpt lat="38.50325829942214" lon="16.305106696571873"><ele>924.0</ele><time>2026-04-06T09:48:05Z</time></trkpt><trkpt lat="38.50327235939404" lon="16.304934885111667"><ele>924.0</ele><time>2026-04-06T09:48:06Z</time></trkpt><trkpt lat="38.50332447482146" lon="16.304776678156966"><ele>924.0</ele><time>2026-04-06T09:48:07Z</time></trkpt><trkpt lat="38.503396081599796" lon="16.30463938244401"><ele>924.0</ele><time>2026-04-06T09:48:08Z</time></trkpt><trkpt lat="38.50349685114784" lon="16.304513940298776"><ele>924.0</ele><time>2026-04-06T09:48:09Z</time></trkpt><trkpt lat="38.50360298232944" lon="16.304429887128983"><ele>924.0</ele><time>2026-04-06T09:48:10Z</time></trkpt><trkpt lat="38.50369098510935" lon="16.30429668365348"><ele>924.0</ele><time>2026-04-06T09:48:11Z</time></trkpt><trkpt lat="38.50381137306496" lon="16.304253904719534"><ele>924.0</ele><time>2026-04-06T09:48:12Z</time></trkpt><trkpt lat="38.503896108600124" lon="16.30422554390986"><ele>924.0</ele><time>2026-04-06T09:48:13Z</time></trkpt><trkpt lat="38.503973960614566" lon="16.30417015359126"><ele>924.0000000000001</ele><time>2026-04-06T09:48:14Z</time></trkpt><trkpt lat="38.50403834234876" lon="16.304083226940335"><ele>924.0000000000001</ele><time>2026-04-06T09:48:15Z</time></trkpt><trkpt lat="38.50408786766303" lon="16.303985769811337"><ele>924.0</ele><time>2026-04-06T09:48:16Z</time></trkpt><trkpt lat="38.504098988257425" lon="16.30384466693456"><ele>924.0</ele><time>2026-04-06T09:48:17Z</time></trkpt><trkpt lat="38.504045990973104" lon="16.303695962497006"><ele>925.0</ele><time>2026-04-06T09:48:18Z</time></trkpt><trkpt lat="38.503943454326496" lon="16.30354982568419"><ele>926.0</ele><time>2026-04-06T09:48:19Z</time></trkpt><trkpt lat="38.503815968882705" lon="16.303374348798016"><ele>927.0</ele><time>2026-04-06T09:48:20Z</time></trkpt><trkpt lat="38.50370064397925" lon="16.30324322361426"><ele>926.0</ele><time>2026-04-06T09:48:21Z</time></trkpt><trkpt lat="38.50364769689078" lon="16.303100717875864"><ele>925.0</ele><time>2026-04-06T09:48:22Z</time></trkpt><trkpt lat="38.503635411593855" lon="16.30296464504227"><ele>924.0</ele><time>2026-04-06T09:48:23Z</time></trkpt><trkpt lat="38.503647658530205" lon="16.302834839225735"><ele>923.0</ele><time>2026-04-06T09:48:24Z</time></trkpt><trkpt lat="38.50375607066929" lon="16.302740007216162"><ele>923.0</ele><time>2026-04-06T09:48:25Z</time></trkpt><trkpt lat="38.503882235514865" lon="16.30266866440811"><ele>923.0</ele><time>2026-04-06T09:48:26Z</time></trkpt><trkpt lat="38.503965829515266" lon="16.302573754568556"><ele>923.0</ele><time>2026-04-06T09:48:27Z</time></trkpt><trkpt lat="38.50399182193039" lon="16.302442350402853"><ele>923.0</ele><time>2026-04-06T09:48:28Z</time></trkpt><trkpt lat="38.503961913603156" lon="16.302308315030732"><ele>924.75</ele><time>2026-04-06T09:48:29Z</time></trkpt><trkpt lat="38.50388424202913" lon="16.302215821070686"><ele>926.5</ele><time>2026-04-06T09:48:30Z</time></trkpt><trkpt lat="38.503764763954905" lon="16.30215816234553"><ele>928.25</ele><time>2026-04-06T09:48:31Z</time></trkpt><trkpt lat="38.503609516919255" lon="16.302133031434284"><ele>930.0</ele><time>2026-04-06T09:48:32Z</time></trkpt><trkpt lat="38.50344395665318" lon="16.30210564523432"><ele>926.5</ele><time>2026-04-06T09:48:33Z</time></trkpt><trkpt lat="38.50331593313538" lon="16.302078767821797"><ele>923.0</ele><time>2026-04-06T09:48:34Z</time></trkpt><trkpt lat="38.50321301710425" lon="16.30202747325712"><ele>919.5</ele><time>2026-04-06T09:48:35Z</time></trkpt><trkpt lat="38.50313905145813" lon="16.301882877877077"><ele>916.0</ele><time>2026-04-06T09:48:36Z</time></trkpt><trkpt lat="38.503032584884686" lon="16.30168548588947"><ele>916.0</ele><time>2026-04-06T09:48:37Z</time></trkpt><trkpt lat="38.50293057334799" lon="16.301461234544025"><ele>916.0</ele><time>2026-04-06T09:48:38Z</time></trkpt><trkpt lat="38.502826295751966" lon="16.30122478542607"><ele>916.0</ele><time>2026-04-06T09:48:39Z</time></trkpt><trkpt lat="38.50273459792791" lon="16.30102697019791"><ele>912.0</ele><time>2026-04-06T09:48:40Z</time></trkpt><trkpt lat="38.50267474677274" lon="16.300827693906715"><ele>908.0</ele><time>2026-04-06T09:48:41Z</time></trkpt><trkpt lat="38.50262640587802" lon="16.30062832266649"><ele>904.0</ele><time>2026-04-06T09:48:42Z</time></trkpt><trkpt lat="38.502611912943614" lon="16.30042938719483"><ele>903.6666666666666</ele><time>2026-04-06T09:48:43Z</time></trkpt><trkpt lat="38.502629706863054" lon="16.300199711470455"><ele>903.3333333333333</ele><time>2026-04-06T09:48:44Z</time></trkpt><trkpt lat="38.50265913345518" lon="16.299933702851213"><ele>903.0</ele><time>2026-04-06T09:48:45Z</time></trkpt><trkpt lat="38.50267346811934" lon="16.29966948313782"><ele>902.3333333333333</ele><time>2026-04-06T09:48:46Z</time></trkpt><trkpt lat="38.50271282805061" lon="16.299449515856047"><ele>901.6666666666666</ele><time>2026-04-06T09:48:47Z</time></trkpt><trkpt lat="38.50274224006511" lon="16.29924616167307"><ele>901.0</ele><time>2026-04-06T09:48:48Z</time></trkpt><trkpt lat="38.50274767443866" lon="16.29907731814583"><ele>901.0</ele><time>2026-04-06T09:48:49Z</time></trkpt><trkpt lat="38.50272124252953" lon="16.298974576761605"><ele>900.9999999999999</ele><time>2026-04-06T09:48:50Z</time></trkpt><trkpt lat="38.502680477300736" lon="16.298894558575824"><ele>900.9999999999999</ele><time>2026-04-06T09:48:51Z</time></trkpt><trkpt lat="38.502619779751605" lon="16.298809233342485"><ele>901.0</ele><time>2026-04-06T09:48:52Z</time></trkpt><trkpt lat="38.50244345134041" lon="16.298747379721036"><ele>901.0</ele><time>2026-04-06T09:48:53Z</time></trkpt><trkpt lat="38.50227184801893" lon="16.298791804114344"><ele>902.5</ele><time>2026-04-06T09:48:54Z</time></trkpt><trkpt lat="38.502103281479364" lon="16.29884000347557"><ele>904.0</ele><time>2026-04-06T09:48:55Z</time></trkpt><trkpt lat="38.50196869788263" lon="16.298895950778252"><ele>905.5</ele><time>2026-04-06T09:48:56Z</time></trkpt><trkpt lat="38.50186478695393" lon="16.2989475405646"><ele>907.0</ele><time>2026-04-06T09:48:57Z</time></trkpt><trkpt lat="38.50179619346953" lon="16.299081208567006"><ele>907.6666666666666</ele><time>2026-04-06T09:48:58Z</time></trkpt><trkpt lat="38.50174358882126" lon="16.299254727250695"><ele>908.3333333333333</ele><time>2026-04-06T09:48:59Z</time></trkpt><trkpt lat="38.50167785711078" lon="16.299450421081644"><ele>909.0</ele><time>2026-04-06T09:49:00Z</time></trkpt><trkpt lat="38.501614258231726" lon="16.29966685503082"><ele>906.3333333333333</ele><time>2026-04-06T09:49:01Z</time></trkpt><trkpt lat="38.50152615879512" lon="16.299896700691924"><ele>903.6666666666666</ele><time>2026-04-06T09:49:02Z</time></trkpt><trkpt lat="38.50143505779038" lon="16.300095983308296"><ele>901.0</ele><time>2026-04-06T09:49:03Z</time></trkpt><trkpt lat="38.5013612270997" lon="16.300223847700728"><ele>901.0</ele><time>2026-04-06T09:49:04Z</time></trkpt><trkpt lat="38.50125029131955" lon="16.300373498835572"><ele>901.0</ele><time>2026-04-06T09:49:05Z</time></trkpt><trkpt lat="38.50112765800609" lon="16.30053315412947"><ele>901.0</ele><time>2026-04-06T09:49:06Z</time></trkpt><trkpt lat="38.500992583945425" lon="16.300719817780603"><ele>902.75</ele><time>2026-04-06T09:49:07Z</time></trkpt><trkpt lat="38.50088877202692" lon="16.30085937349879"><ele>904.5</ele><time>2026-04-06T09:49:08Z</time></trkpt><trkpt lat="38.500797092830226" lon="16.300951332897064"><ele>906.25</ele><time>2026-04-06T09:49:09Z</time></trkpt><trkpt lat="38.500700281221796" lon="16.301029686832937"><ele>908.0</ele><time>2026-04-06T09:49:10Z</time></trkpt><trkpt lat="38.50058404817253" lon="16.301028902992115"><ele>908.0</ele><time>2026-04-06T09:49:11Z</time></trkpt><trkpt lat="38.50046234853707" lon="16.300963811348343"><ele>908.0</ele><time>2026-04-06T09:49:12Z</time></trkpt><trkpt lat="38.50033986847585" lon="16.30089143244307"><ele>908.0</ele><time>2026-04-06T09:49:13Z</time></trkpt><trkpt lat="38.50020728888189" lon="16.300838758984135"><ele>908.0</ele><time>2026-04-06T09:49:14Z</time></trkpt><trkpt lat="38.50006981326526" lon="16.300834360322263"><ele>910.4</ele><time>2026-04-06T09:49:15Z</time></trkpt><trkpt lat="38.49998826811791" lon="16.30087713574334"><ele>912.8</ele><time>2026-04-06T09:49:16Z</time></trkpt><trkpt lat="38.49995039459127" lon="16.30102375346716"><ele>915.2</ele><time>2026-04-06T09:49:17Z</time></trkpt><trkpt lat="38.49985736699688" lon="16.30113889910673"><ele>917.6</ele><time>2026-04-06T09:49:18Z</time></trkpt><trkpt lat="38.49976166792511" lon="16.30119518220811"><ele>920.0</ele><time>2026-04-06T09:49:19Z</time></trkpt><trkpt lat="38.49964141761498" lon="16.301172390355735"><ele>922.5</ele><time>2026-04-06T09:49:20Z</time></trkpt><trkpt lat="38.49952899904563" lon="16.30117843841691"><ele>925.0</ele><time>2026-04-06T09:49:21Z</time></trkpt><trkpt lat="38.49940292999663" lon="16.30121216717542"><ele>927.5</ele><time>2026-04-06T09:49:22Z</time></trkpt><trkpt lat="38.499299453607485" lon="16.301297921547096"><ele>930.0</ele><time>2026-04-06T09:49:23.001Z</time></trkpt><trkpt lat="38.49924249933798" lon="16.301456154719023"><ele>930.0</ele><time>2026-04-06T09:49:24.001Z</time></trkpt><trkpt lat="38.49921088910379" lon="16.301660181878447"><ele>930.0</ele><time>2026-04-06T09:49:25.001Z</time></trkpt><trkpt lat="38.499209196710396" lon="16.30181508347592"><ele>930.0</ele><time>2026-04-06T09:49:26.001Z</time></trkpt><trkpt lat="38.49916506579383" lon="16.301953268057186"><ele>930.0</ele><time>2026-04-06T09:49:27.001Z</time></trkpt><trkpt lat="38.499117699748396" lon="16.302049146854927"><ele>930.0</ele><time>2026-04-06T09:49:28Z</time></trkpt><trkpt lat="38.49900498127018" lon="16.302211529244836"><ele>930.0</ele><time>2026-04-06T09:49:29Z</time></trkpt><trkpt lat="38.49895799819254" lon="16.302395229568717"><ele>930.0</ele><time>2026-04-06T09:49:30Z</time></trkpt><trkpt lat="38.49893662551122" lon="16.302604376205586"><ele>928.0</ele><time>2026-04-06T09:49:31Z</time></trkpt><trkpt lat="38.49894499257555" lon="16.302819372980075"><ele>926.0</ele><time>2026-04-06T09:49:32Z</time></trkpt><trkpt lat="38.49895034079529" lon="16.303010455871654"><ele>924.0</ele><time>2026-04-06T09:49:33Z</time></trkpt><trkpt lat="38.498944835122856" lon="16.303178465255353"><ele>923.0</ele><time>2026-04-06T09:49:34Z</time></trkpt><trkpt lat="38.498893666863104" lon="16.30330980684253"><ele>922.0</ele><time>2026-04-06T09:49:35Z</time></trkpt><trkpt lat="38.49882477128547" lon="16.30338789371855"><ele>921.0</ele><time>2026-04-06T09:49:36Z</time></trkpt><trkpt lat="38.49876362033327" lon="16.303527828980332"><ele>920.0</ele><time>2026-04-06T09:49:37Z</time></trkpt><trkpt lat="38.49866345474753" lon="16.30370731490183"><ele>925.5</ele><time>2026-04-06T09:49:38Z</time></trkpt><trkpt lat="38.49837319200272" lon="16.30395465909578"><ele>931.0</ele><time>2026-04-06T09:49:39Z</time></trkpt><trkpt lat="38.498140204010845" lon="16.30405681914435"><ele>931.0</ele><time>2026-04-06T09:49:40Z</time></trkpt><trkpt lat="38.49795341151899" lon="16.304113214406154"><ele>931.0</ele><time>2026-04-06T09:49:41Z</time></trkpt><trkpt lat="38.49783203394331" lon="16.30410630624618"><ele>931.0</ele><time>2026-04-06T09:49:42Z</time></trkpt><trkpt lat="38.4976991014697" lon="16.304041813356573"><ele>931.1999999999999</ele><time>2026-04-06T09:49:43Z</time></trkpt><trkpt lat="38.49773647433067" lon="16.304119735183054"><ele>931.3999999999999</ele><time>2026-04-06T09:49:44Z</time></trkpt><trkpt lat="38.49773257420675" lon="16.304019371034233"><ele>931.6</ele><time>2026-04-06T09:49:45Z</time></trkpt><trkpt lat="38.497748791604245" lon="16.303923941499214"><ele>931.8</ele><time>2026-04-06T09:49:46Z</time></trkpt><trkpt lat="38.49778598268766" lon="16.30380078048893"><ele>932.0</ele><time>2026-04-06T09:49:47Z</time></trkpt><trkpt lat="38.49783728912041" lon="16.303579628845434"><ele>932.0</ele><time>2026-04-06T09:49:48Z</time></trkpt><trkpt lat="38.49787398786652" lon="16.303318753778747"><ele>932.0</ele><time>2026-04-06T09:49:49Z</time></trkpt><trkpt lat="38.49784495980115" lon="16.30302606763686"><ele>932.0</ele><time>2026-04-06T09:49:50Z</time></trkpt><trkpt lat="38.49782402816276" lon="16.30266463788916"><ele>934.0</ele><time>2026-04-06T09:49:51Z</time></trkpt><trkpt lat="38.497812983667544" lon="16.30233050180092"><ele>936.0</ele><time>2026-04-06T09:49:52Z</time></trkpt><trkpt lat="38.49779224297815" lon="16.302029837808863"><ele>936.6666666666667</ele><time>2026-04-06T09:49:53Z</time></trkpt><trkpt lat="38.49777769072718" lon="16.301795959219888"><ele>937.3333333333334</ele><time>2026-04-06T09:49:54Z</time></trkpt><trkpt lat="38.49775916729541" lon="16.30159454183631"><ele>938.0</ele><time>2026-04-06T09:49:55Z</time></trkpt><trkpt lat="38.49778320616367" lon="16.301457418388623"><ele>938.0</ele><time>2026-04-06T09:49:56Z</time></trkpt><trkpt lat="38.497768924580434" lon="16.30130871145086"><ele>938.0</ele><time>2026-04-06T09:49:57Z</time></trkpt><trkpt lat="38.49780324439123" lon="16.30112387918717"><ele>938.0</ele><time>2026-04-06T09:49:58Z</time></trkpt><trkpt lat="38.497831772682446" lon="16.30093455955641"><ele>938.0</ele><time>2026-04-06T09:49:59Z</time></trkpt><trkpt lat="38.497841262113226" lon="16.300777429709992"><ele>938.0</ele><time>2026-04-06T09:50:00Z</time></trkpt><trkpt lat="38.49780214681381" lon="16.300618529625815"><ele>938.0</ele><time>2026-04-06T09:50:01Z</time></trkpt><trkpt lat="38.49771107729635" lon="16.300469463994283"><ele>938.0</ele><time>2026-04-06T09:50:02Z</time></trkpt><trkpt lat="38.497573224408804" lon="16.300316525465092"><ele>936.3333333333334</ele><time>2026-04-06T09:50:03Z</time></trkpt><trkpt lat="38.49738517192913" lon="16.300170747980605"><ele>934.6666666666667</ele><time>2026-04-06T09:50:04Z</time></trkpt><trkpt lat="38.49721375375244" lon="16.300041674255947"><ele>933.0</ele><time>2026-04-06T09:50:05Z</time></trkpt><trkpt lat="38.49698519531312" lon="16.29991036528133"><ele>935.6666666666667</ele><time>2026-04-06T09:50:06Z</time></trkpt><trkpt lat="38.496868544390175" lon="16.299734413652654"><ele>938.3333333333334</ele><time>2026-04-06T09:50:07Z</time></trkpt><trkpt lat="38.496751884047775" lon="16.299636949383782"><ele>941.0</ele><time>2026-04-06T09:50:08Z</time></trkpt><trkpt lat="38.496628570321924" lon="16.299552609225657"><ele>941.0</ele><time>2026-04-06T09:50:09Z</time></trkpt><trkpt lat="38.49649057060813" lon="16.2995200906365"><ele>941.0</ele><time>2026-04-06T09:50:10Z</time></trkpt><trkpt lat="38.49637574828655" lon="16.29948709200275"><ele>941.0</ele><time>2026-04-06T09:50:11Z</time></trkpt><trkpt lat="38.496282838396006" lon="16.29941218682157"><ele>941.0</ele><time>2026-04-06T09:50:12Z</time></trkpt><trkpt lat="38.49625275151729" lon="16.29926756607343"><ele>941.0</ele><time>2026-04-06T09:50:13Z</time></trkpt><trkpt lat="38.49627708837824" lon="16.299141085350428"><ele>941.0</ele><time>2026-04-06T09:50:14Z</time></trkpt><trkpt lat="38.496345592763575" lon="16.298980601912074"><ele>941.0</ele><time>2026-04-06T09:50:15Z</time></trkpt><trkpt lat="38.49644493036068" lon="16.298834524371316"><ele>941.0</ele><time>2026-04-06T09:50:16Z</time></trkpt><trkpt lat="38.49653264416534" lon="16.298692226421156"><ele>940.25</ele><time>2026-04-06T09:50:17Z</time></trkpt><trkpt lat="38.49657373659064" lon="16.298558458555913"><ele>939.5</ele><time>2026-04-06T09:50:18Z</time></trkpt><trkpt lat="38.49654666657122" lon="16.298432236285255"><ele>938.75</ele><time>2026-04-06T09:50:19Z</time></trkpt><trkpt lat="38.49647502737066" lon="16.298314831039086"><ele>938.0</ele><time>2026-04-06T09:50:20Z</time></trkpt><trkpt lat="38.49636622756581" lon="16.29818890310009"><ele>938.0</ele><time>2026-04-06T09:50:21Z</time></trkpt><trkpt lat="38.49625501812688" lon="16.298085440505076"><ele>938.0</ele><time>2026-04-06T09:50:22Z</time></trkpt><trkpt lat="38.49616163080228" lon="16.297976974475695"><ele>938.0</ele><time>2026-04-06T09:50:23Z</time></trkpt><trkpt lat="38.496068049304675" lon="16.297888170930108"><ele>938.0</ele><time>2026-04-06T09:50:24Z</time></trkpt><trkpt lat="38.49597486542658" lon="16.29784326357774"><ele>938.4</ele><time>2026-04-06T09:50:25Z</time></trkpt><trkpt lat="38.495900793265044" lon="16.297822335520625"><ele>938.8</ele><time>2026-04-06T09:50:26Z</time></trkpt><trkpt lat="38.49582818975168" lon="16.297817079693402"><ele>939.2</ele><time>2026-04-06T09:50:27Z</time></trkpt><trkpt lat="38.49574629195153" lon="16.297822465555925"><ele>939.6</ele><time>2026-04-06T09:50:28Z</time></trkpt><trkpt lat="38.49564986824845" lon="16.297889438356155"><ele>940.0</ele><time>2026-04-06T09:50:29Z</time></trkpt><trkpt lat="38.49556911403" lon="16.298039297226673"><ele>939.0</ele><time>2026-04-06T09:50:30Z</time></trkpt><trkpt lat="38.49550031309292" lon="16.298237841466225"><ele>938.0</ele><time>2026-04-06T09:50:31Z</time></trkpt><trkpt lat="38.49545107337848" lon="16.298428318710165"><ele>937.0</ele><time>2026-04-06T09:50:32Z</time></trkpt><trkpt lat="38.49537006384014" lon="16.298575501661492"><ele>937.0</ele><time>2026-04-06T09:50:33Z</time></trkpt><trkpt lat="38.49523317310752" lon="16.298703952264063"><ele>937.0</ele><time>2026-04-06T09:50:34Z</time></trkpt><trkpt lat="38.49508626401955" lon="16.29884622894705"><ele>937.0</ele><time>2026-04-06T09:50:35Z</time></trkpt><trkpt lat="38.494953172684404" lon="16.298935063734575"><ele>937.0</ele><time>2026-04-06T09:50:36Z</time></trkpt><trkpt lat="38.494854401761685" lon="16.298963658995923"><ele>937.0</ele><time>2026-04-06T09:50:37Z</time></trkpt><trkpt lat="38.49476192763743" lon="16.29893159690207"><ele>937.0</ele><time>2026-04-06T09:50:38Z</time></trkpt><trkpt lat="38.49468869923525" lon="16.298833528123424"><ele>937.0</ele><time>2026-04-06T09:50:39Z</time></trkpt><trkpt lat="38.49466922452005" lon="16.298693967295847"><ele>937.0</ele><time>2026-04-06T09:50:40Z</time></trkpt><trkpt lat="38.49470468004508" lon="16.298556895747506"><ele>937.0</ele><time>2026-04-06T09:50:41Z</time></trkpt><trkpt lat="38.49478550065141" lon="16.298428940289043"><ele>937.0</ele><time>2026-04-06T09:50:42Z</time></trkpt><trkpt lat="38.49480957326119" lon="16.298268148661432"><ele>937.0</ele><time>2026-04-06T09:50:43Z</time></trkpt><trkpt lat="38.49480888927806" lon="16.298087604186772"><ele>937.0</ele><time>2026-04-06T09:50:44Z</time></trkpt><trkpt lat="38.49473082701134" lon="16.297878925269448"><ele>936.3333333333333</ele><time>2026-04-06T09:50:45Z</time></trkpt><trkpt lat="38.494614050332224" lon="16.2976457728757"><ele>935.6666666666667</ele><time>2026-04-06T09:50:46Z</time></trkpt><trkpt lat="38.494498417323264" lon="16.297446839048103"><ele>935.0</ele><time>2026-04-06T09:50:47Z</time></trkpt><trkpt lat="38.494410592622394" lon="16.297301138352047"><ele>938.75</ele><time>2026-04-06T09:50:48Z</time></trkpt><trkpt lat="38.494308809716486" lon="16.297199014250264"><ele>942.5</ele><time>2026-04-06T09:50:49Z</time></trkpt><trkpt lat="38.4941809653881" lon="16.29711131463645"><ele>946.25</ele><time>2026-04-06T09:50:50Z</time></trkpt><trkpt lat="38.49404351612057" lon="16.29702633577113"><ele>950.0</ele><time>2026-04-06T09:50:51Z</time></trkpt><trkpt lat="38.4939110060734" lon="16.296954648804935"><ele>950.0</ele><time>2026-04-06T09:50:52Z</time></trkpt><trkpt lat="38.49377367525161" lon="16.296914718430095"><ele>950.0</ele><time>2026-04-06T09:50:53Z</time></trkpt><trkpt lat="38.49360360349899" lon="16.296934692166722"><ele>950.0</ele><time>2026-04-06T09:50:54Z</time></trkpt><trkpt lat="38.49341159157005" lon="16.296963516460885"><ele>950.0</ele><time>2026-04-06T09:50:55Z</time></trkpt><trkpt lat="38.49323275414154" lon="16.296946798228497"><ele>950.0</ele><time>2026-04-06T09:50:56Z</time></trkpt><trkpt lat="38.49306459535011" lon="16.29688259746836"><ele>950.0</ele><time>2026-04-06T09:50:57Z</time></trkpt><trkpt lat="38.49292810408642" lon="16.29679683492558"><ele>951.0</ele><time>2026-04-06T09:50:58Z</time></trkpt><trkpt lat="38.49281275364381" lon="16.296729764098338"><ele>952.0</ele><time>2026-04-06T09:50:59Z</time></trkpt><trkpt lat="38.492691214584106" lon="16.296745953515675"><ele>953.0</ele><time>2026-04-06T09:51:00Z</time></trkpt><trkpt lat="38.49256794145239" lon="16.296832270185583"><ele>954.0</ele><time>2026-04-06T09:51:01Z</time></trkpt><trkpt lat="38.49248617877119" lon="16.29698610816542"><ele>954.0</ele><time>2026-04-06T09:51:02Z</time></trkpt><trkpt lat="38.49243796126834" lon="16.297181723821513"><ele>954.0</ele><time>2026-04-06T09:51:03Z</time></trkpt><trkpt lat="38.492413208252366" lon="16.297389489039084"><ele>954.0</ele><time>2026-04-06T09:51:04Z</time></trkpt><trkpt lat="38.49237322543569" lon="16.29755594217526"><ele>953.75</ele><time>2026-04-06T09:51:05Z</time></trkpt><trkpt lat="38.49231313764828" lon="16.297702340292055"><ele>953.5</ele><time>2026-04-06T09:51:06.001Z</time></trkpt><trkpt lat="38.492186966022196" lon="16.297783442475186"><ele>953.25</ele><time>2026-04-06T09:51:07.001Z</time></trkpt><trkpt lat="38.49207147289338" lon="16.29785327498815"><ele>953.0</ele><time>2026-04-06T09:51:08.001Z</time></trkpt><trkpt lat="38.49197522291675" lon="16.297845260036894"><ele>953.0</ele><time>2026-04-06T09:51:09.001Z</time></trkpt><trkpt lat="38.491885076829924" lon="16.29778130640436"><ele>953.0</ele><time>2026-04-06T09:51:10.001Z</time></trkpt><trkpt lat="38.49178388161136" lon="16.29767510744727"><ele>953.0</ele><time>2026-04-06T09:51:11.001Z</time></trkpt><trkpt lat="38.49167312731079" lon="16.297577117155463"><ele>953.0</ele><time>2026-04-06T09:51:12.001Z</time></trkpt><trkpt lat="38.491512645744095" lon="16.29754477653843"><ele>953.0</ele><time>2026-04-06T09:51:13.001Z</time></trkpt><trkpt lat="38.49135275609736" lon="16.29757288518701"><ele>953.0</ele><time>2026-04-06T09:51:14.001Z</time></trkpt><trkpt lat="38.49120826377515" lon="16.297651026561915"><ele>953.0</ele><time>2026-04-06T09:51:15.001Z</time></trkpt><trkpt lat="38.49100532498838" lon="16.297715196440983"><ele>953.0</ele><time>2026-04-06T09:51:16.001Z</time></trkpt><trkpt lat="38.49077352699307" lon="16.29775963865592"><ele>953.0</ele><time>2026-04-06T09:51:17.001Z</time></trkpt><trkpt lat="38.49054457855399" lon="16.297795112203218"><ele>950.3333333333334</ele><time>2026-04-06T09:51:18.001Z</time></trkpt><trkpt lat="38.49034512386882" lon="16.297825978077544"><ele>947.6666666666667</ele><time>2026-04-06T09:51:19.001Z</time></trkpt><trkpt lat="38.490177880908135" lon="16.29785981508838"><ele>945.0</ele><time>2026-04-06T09:51:20.001Z</time></trkpt><trkpt lat="38.49004614883816" lon="16.29790919491414"><ele>945.0</ele><time>2026-04-06T09:51:21.001Z</time></trkpt><trkpt lat="38.489938793580805" lon="16.297944325887872"><ele>945.0</ele><time>2026-04-06T09:51:22.001Z</time></trkpt><trkpt lat="38.489862710206346" lon="16.29809047421512"><ele>945.0</ele><time>2026-04-06T09:51:24.001Z</time></trkpt><trkpt lat="38.48983699107356" lon="16.29821638738972"><ele>945.0</ele><time>2026-04-06T09:51:25.001Z</time></trkpt><trkpt lat="38.48983162560859" lon="16.298372870099367"><ele>943.3333333333333</ele><time>2026-04-06T09:51:26.001Z</time></trkpt><trkpt lat="38.48983137578984" lon="16.29861027343945"><ele>941.6666666666666</ele><time>2026-04-06T09:51:27.001Z</time></trkpt><trkpt lat="38.489833739339446" lon="16.29882948233716"><ele>940.0</ele><time>2026-04-06T09:51:28.001Z</time></trkpt><trkpt lat="38.48983774194671" lon="16.299044539593087"><ele>939.25</ele><time>2026-04-06T09:51:29.001Z</time></trkpt><trkpt lat="38.489823470858106" lon="16.299245237848158"><ele>938.5</ele><time>2026-04-06T09:51:30.001Z</time></trkpt><trkpt lat="38.489810826280824" lon="16.299409616756456"><ele>937.75</ele><time>2026-04-06T09:51:31.001Z</time></trkpt><trkpt lat="38.489775259055115" lon="16.299547106652508"><ele>937.0</ele><time>2026-04-06T09:51:32.001Z</time></trkpt><trkpt lat="38.48966684601808" lon="16.299643446374684"><ele>942.6666666666666</ele><time>2026-04-06T09:51:33.001Z</time></trkpt><trkpt lat="38.48956611934896" lon="16.299756365990554"><ele>948.3333333333333</ele><time>2026-04-06T09:51:34Z</time></trkpt><trkpt lat="38.489357010699266" lon="16.300002202744153"><ele>954.0</ele><time>2026-04-06T09:51:35Z</time></trkpt><trkpt lat="38.48922889691524" lon="16.300220590681388"><ele>954.0</ele><time>2026-04-06T09:51:36Z</time></trkpt><trkpt lat="38.48912595948204" lon="16.300392489999805"><ele>954.0</ele><time>2026-04-06T09:51:37Z</time></trkpt><trkpt lat="38.48903283579717" lon="16.300542538686035"><ele>954.0</ele><time>2026-04-06T09:51:38Z</time></trkpt><trkpt lat="38.48891468446959" lon="16.300661573574967"><ele>953.3333333333334</ele><time>2026-04-06T09:51:39Z</time></trkpt><trkpt lat="38.48881767951741" lon="16.300747064796806"><ele>952.6666666666667</ele><time>2026-04-06T09:51:40Z</time></trkpt><trkpt lat="38.488727495418836" lon="16.300737706539103"><ele>952.0</ele><time>2026-04-06T09:51:41Z</time></trkpt><trkpt lat="38.488661240623316" lon="16.300706357605893"><ele>951.3333333333334</ele><time>2026-04-06T09:51:42Z</time></trkpt><trkpt lat="38.488601240529526" lon="16.300655952713974"><ele>950.6666666666667</ele><time>2026-04-06T09:51:43Z</time></trkpt><trkpt lat="38.488530439156364" lon="16.30059304140736"><ele>950.0</ele><time>2026-04-06T09:51:44Z</time></trkpt><trkpt lat="38.488463063869474" lon="16.30046149996086"><ele>952.6666666666667</ele><time>2026-04-06T09:51:45Z</time></trkpt><trkpt lat="38.48839727875451" lon="16.300272104740504"><ele>955.3333333333333</ele><time>2026-04-06T09:51:46Z</time></trkpt><trkpt lat="38.488343865540536" lon="16.300048940849642"><ele>958.0</ele><time>2026-04-06T09:51:47Z</time></trkpt><trkpt lat="38.488300573386574" lon="16.299860183477424"><ele>959.5</ele><time>2026-04-06T09:51:48Z</time></trkpt><trkpt lat="38.488250642516846" lon="16.2997083154942"><ele>961.0</ele><time>2026-04-06T09:51:49Z</time></trkpt><trkpt lat="38.48820052301922" lon="16.299576034087206"><ele>962.5</ele><time>2026-04-06T09:51:50Z</time></trkpt><trkpt lat="38.4881018980518" lon="16.299501138325304"><ele>964.0</ele><time>2026-04-06T09:51:51Z</time></trkpt><trkpt lat="38.48796173554982" lon="16.29949677121026"><ele>963.0</ele><time>2026-04-06T09:51:52Z</time></trkpt><trkpt lat="38.48781429549879" lon="16.2995472852306"><ele>962.0</ele><time>2026-04-06T09:51:53Z</time></trkpt><trkpt lat="38.487648698183264" lon="16.299672811144724"><ele>961.0</ele><time>2026-04-06T09:51:54Z</time></trkpt><trkpt lat="38.48745929255998" lon="16.299829268425594"><ele>961.0</ele><time>2026-04-06T09:51:55Z</time></trkpt><trkpt lat="38.48725562023319" lon="16.29999212540216"><ele>961.0</ele><time>2026-04-06T09:51:56Z</time></trkpt><trkpt lat="38.48703220307016" lon="16.300166960900516"><ele>965.5</ele><time>2026-04-06T09:51:57Z</time></trkpt><trkpt lat="38.48680120751528" lon="16.300281242230714"><ele>970.0</ele><time>2026-04-06T09:51:58Z</time></trkpt><trkpt lat="38.48659463530637" lon="16.300381241782247"><ele>970.0</ele><time>2026-04-06T09:51:59Z</time></trkpt><trkpt lat="38.486431978204294" lon="16.300482743639858"><ele>970.0</ele><time>2026-04-06T09:52:00Z</time></trkpt><trkpt lat="38.486289473777425" lon="16.300524092366565"><ele>970.0</ele><time>2026-04-06T09:52:01Z</time></trkpt><trkpt lat="38.48614601751689" lon="16.300545075433323"><ele>967.0</ele><time>2026-04-06T09:52:02Z</time></trkpt><trkpt lat="38.48599032585961" lon="16.30058832748309"><ele>964.0</ele><time>2026-04-06T09:52:03Z</time></trkpt><trkpt lat="38.48586602120563" lon="16.30063305741104"><ele>961.0</ele><time>2026-04-06T09:52:04Z</time></trkpt><trkpt lat="38.485708507936955" lon="16.300747305459534"><ele>961.0</ele><time>2026-04-06T09:52:05Z</time></trkpt><trkpt lat="38.48556421650374" lon="16.300846106059417"><ele>961.0</ele><time>2026-04-06T09:52:06Z</time></trkpt><trkpt lat="38.48544502540272" lon="16.300918638940388"><ele>961.0</ele><time>2026-04-06T09:52:07Z</time></trkpt><trkpt lat="38.48535465189694" lon="16.300956488552583"><ele>961.0</ele><time>2026-04-06T09:52:08Z</time></trkpt><trkpt lat="38.48526616907624" lon="16.30091822605362"><ele>961.4</ele><time>2026-04-06T09:52:09Z</time></trkpt><trkpt lat="38.4851921258286" lon="16.300919562091124"><ele>961.8</ele><time>2026-04-06T09:52:10Z</time></trkpt><trkpt lat="38.48511678053173" lon="16.3008643313725"><ele>962.1999999999999</ele><time>2026-04-06T09:52:11Z</time></trkpt><trkpt lat="38.485041685800425" lon="16.30080469985002"><ele>962.5999999999999</ele><time>2026-04-06T09:52:12Z</time></trkpt><trkpt lat="38.484993075591035" lon="16.300702081061363"><ele>963.0</ele><time>2026-04-06T09:52:13Z</time></trkpt><trkpt lat="38.48492665669191" lon="16.30059228804267"><ele>963.6666666666666</ele><time>2026-04-06T09:52:14Z</time></trkpt><trkpt lat="38.48486792386775" lon="16.30048128161652"><ele>964.3333333333333</ele><time>2026-04-06T09:52:15Z</time></trkpt><trkpt lat="38.48482185909816" lon="16.30038642729159"><ele>965.0</ele><time>2026-04-06T09:52:16Z</time></trkpt><trkpt lat="38.484788148026695" lon="16.300300664012504"><ele>965.6666666666666</ele><time>2026-04-06T09:52:17Z</time></trkpt><trkpt lat="38.48473265982947" lon="16.300222130399078"><ele>966.3333333333333</ele><time>2026-04-06T09:52:18Z</time></trkpt><trkpt lat="38.484709336594136" lon="16.300144257932754"><ele>967.0</ele><time>2026-04-06T09:52:19Z</time></trkpt><trkpt lat="38.48467647956352" lon="16.299986528890344"><ele>966.9999999999999</ele><time>2026-04-06T09:52:21Z</time></trkpt><trkpt lat="38.48466140390027" lon="16.29990756487168"><ele>967.0</ele><time>2026-04-06T09:52:22Z</time></trkpt><trkpt lat="38.484662511202686" lon="16.299813758220147"><ele>967.0</ele><time>2026-04-06T09:52:23Z</time></trkpt><trkpt lat="38.48468524831141" lon="16.29971173521092"><ele>967.0</ele><time>2026-04-06T09:52:24Z</time></trkpt><trkpt lat="38.484727532719376" lon="16.299626643224148"><ele>966.9999999999999</ele><time>2026-04-06T09:52:25Z</time></trkpt><trkpt lat="38.4847807678638" lon="16.29951720792351"><ele>967.0</ele><time>2026-04-06T09:52:26Z</time></trkpt><trkpt lat="38.4848571596675" lon="16.299397645237622"><ele>965.75</ele><time>2026-04-06T09:52:27Z</time></trkpt><trkpt lat="38.4849514897285" lon="16.299266161625976"><ele>964.5</ele><time>2026-04-06T09:52:28Z</time></trkpt><trkpt lat="38.48505972273251" lon="16.29913127618421"><ele>963.25</ele><time>2026-04-06T09:52:29Z</time></trkpt><trkpt lat="38.4851769727698" lon="16.298995482892806"><ele>962.0</ele><time>2026-04-06T09:52:30Z</time></trkpt><trkpt lat="38.485291426646164" lon="16.29885469072454"><ele>962.5</ele><time>2026-04-06T09:52:31Z</time></trkpt><trkpt lat="38.48540103638438" lon="16.29872573561111"><ele>963.0</ele><time>2026-04-06T09:52:32Z</time></trkpt><trkpt lat="38.48550216224612" lon="16.298612475216775"><ele>963.5</ele><time>2026-04-06T09:52:33Z</time></trkpt><trkpt lat="38.485605355426884" lon="16.29849588152848"><ele>964.0</ele><time>2026-04-06T09:52:34Z</time></trkpt><trkpt lat="38.48571890263583" lon="16.298366538079744"><ele>964.0</ele><time>2026-04-06T09:52:35Z</time></trkpt><trkpt lat="38.48582936386214" lon="16.29822262613223"><ele>964.0</ele><time>2026-04-06T09:52:36Z</time></trkpt><trkpt lat="38.48593427556066" lon="16.298057250706602"><ele>964.0</ele><time>2026-04-06T09:52:37Z</time></trkpt><trkpt lat="38.486048817101405" lon="16.297887747791428"><ele>963.6666666666666</ele><time>2026-04-06T09:52:38Z</time></trkpt><trkpt lat="38.48614181359471" lon="16.297694706765498"><ele>963.3333333333333</ele><time>2026-04-06T09:52:39Z</time></trkpt><trkpt lat="38.486249694469876" lon="16.29751322684561"><ele>963.0</ele><time>2026-04-06T09:52:40Z</time></trkpt><trkpt lat="38.48635330065549" lon="16.297325354191234"><ele>959.6666666666667</ele><time>2026-04-06T09:52:41Z</time></trkpt><trkpt lat="38.48644533777738" lon="16.29716095436066"><ele>956.3333333333334</ele><time>2026-04-06T09:52:42Z</time></trkpt><trkpt lat="38.48653769313042" lon="16.296998297301204"><ele>953.0</ele><time>2026-04-06T09:52:43Z</time></trkpt><trkpt lat="38.48662103733148" lon="16.29685768875425"><ele>953.0</ele><time>2026-04-06T09:52:44Z</time></trkpt><trkpt lat="38.48670468079456" lon="16.29673247445953"><ele>953.0</ele><time>2026-04-06T09:52:45Z</time></trkpt><trkpt lat="38.48678976260066" lon="16.29660764956397"><ele>953.0</ele><time>2026-04-06T09:52:46Z</time></trkpt><trkpt lat="38.486909832757945" lon="16.29654461295502"><ele>953.0</ele><time>2026-04-06T09:52:47Z</time></trkpt><trkpt lat="38.4870559243394" lon="16.296499506106528"><ele>953.0</ele><time>2026-04-06T09:52:48Z</time></trkpt><trkpt lat="38.487209908961944" lon="16.2964765702948"><ele>953.0</ele><time>2026-04-06T09:52:49Z</time></trkpt><trkpt lat="38.487367554112375" lon="16.296482093014934"><ele>953.0</ele><time>2026-04-06T09:52:50.001Z</time></trkpt><trkpt lat="38.487486549824986" lon="16.296481394945076"><ele>953.0</ele><time>2026-04-06T09:52:51.001Z</time></trkpt><trkpt lat="38.48758837615367" lon="16.296493463106845"><ele>953.0000000000001</ele><time>2026-04-06T09:52:52.001Z</time></trkpt><trkpt lat="38.48766509707224" lon="16.29651933993076"><ele>953.0</ele><time>2026-04-06T09:52:53.001Z</time></trkpt><trkpt lat="38.48772522504944" lon="16.296575974593488"><ele>953.0</ele><time>2026-04-06T09:52:54.001Z</time></trkpt><trkpt lat="38.48775301552505" lon="16.296660354936154"><ele>953.0</ele><time>2026-04-06T09:52:55.001Z</time></trkpt><trkpt lat="38.487806014606996" lon="16.296733219642565"><ele>953.0000000000001</ele><time>2026-04-06T09:52:56.001Z</time></trkpt><trkpt lat="38.48787022528628" lon="16.296748049381527"><ele>953.0</ele><time>2026-04-06T09:52:57.001Z</time></trkpt><trkpt lat="38.48797088008105" lon="16.2966133236612"><ele>952.5999999999999</ele><time>2026-04-06T09:52:59.001Z</time></trkpt><trkpt lat="38.4879962930265" lon="16.296519995275933"><ele>952.1999999999999</ele><time>2026-04-06T09:53:00.001Z</time></trkpt><trkpt lat="38.4880636806159" lon="16.296449847117"><ele>951.8</ele><time>2026-04-06T09:53:01.001Z</time></trkpt><trkpt lat="38.48817343282291" lon="16.29641305192781"><ele>951.4</ele><time>2026-04-06T09:53:02.001Z</time></trkpt><trkpt lat="38.48828475788644" lon="16.29638664375123"><ele>951.0</ele><time>2026-04-06T09:53:03.001Z</time></trkpt><trkpt lat="38.48838960528632" lon="16.296326733304245"><ele>948.8</ele><time>2026-04-06T09:53:04.001Z</time></trkpt><trkpt lat="38.488501567938954" lon="16.29629295543896"><ele>946.5999999999999</ele><time>2026-04-06T09:53:05.001Z</time></trkpt><trkpt lat="38.48858673031263" lon="16.296231014967205"><ele>944.4</ele><time>2026-04-06T09:53:06.001Z</time></trkpt><trkpt lat="38.48864496330904" lon="16.29611948646679"><ele>942.2</ele><time>2026-04-06T09:53:07.001Z</time></trkpt><trkpt lat="38.48866399956878" lon="16.295994926395913"><ele>940.0</ele><time>2026-04-06T09:53:08.001Z</time></trkpt><trkpt lat="38.488625710830306" lon="16.295866616005853"><ele>940.0</ele><time>2026-04-06T09:53:09.001Z</time></trkpt><trkpt lat="38.4885703443636" lon="16.295721580900583"><ele>940.0</ele><time>2026-04-06T09:53:10.001Z</time></trkpt><trkpt lat="38.48848463555277" lon="16.29556327439379"><ele>940.0</ele><time>2026-04-06T09:53:11.001Z</time></trkpt><trkpt lat="38.48840254936221" lon="16.295414379431215"><ele>940.0</ele><time>2026-04-06T09:53:12.001Z</time></trkpt><trkpt lat="38.488342916619814" lon="16.2952810095056"><ele>939.0</ele><time>2026-04-06T09:53:13.001Z</time></trkpt><trkpt lat="38.488332762275355" lon="16.29516310791567"><ele>938.0</ele><time>2026-04-06T09:53:14.001Z</time></trkpt><trkpt lat="38.48834223890698" lon="16.295071356469553"><ele>937.0</ele><time>2026-04-06T09:53:15.001Z</time></trkpt><trkpt lat="38.48841829334978" lon="16.29497241936309"><ele>936.0</ele><time>2026-04-06T09:53:16.001Z</time></trkpt><trkpt lat="38.48852081148299" lon="16.294865828956297"><ele>935.0</ele><time>2026-04-06T09:53:17.001Z</time></trkpt><trkpt lat="38.48863841010568" lon="16.29480202304916"><ele>935.75</ele><time>2026-04-06T09:53:18.001Z</time></trkpt><trkpt lat="38.488780770121416" lon="16.294772507714995"><ele>936.5</ele><time>2026-04-06T09:53:19.001Z</time></trkpt><trkpt lat="38.488925387427805" lon="16.294729502661895"><ele>937.25</ele><time>2026-04-06T09:53:20.001Z</time></trkpt><trkpt lat="38.48903058286321" lon="16.29469114503704"><ele>938.0</ele><time>2026-04-06T09:53:21.001Z</time></trkpt><trkpt lat="38.489130836450705" lon="16.29464781294494"><ele>938.0</ele><time>2026-04-06T09:53:22.001Z</time></trkpt><trkpt lat="38.48920004351992" lon="16.294544636640808"><ele>938.0</ele><time>2026-04-06T09:53:23.001Z</time></trkpt><trkpt lat="38.489206544843185" lon="16.294395512639134"><ele>938.0</ele><time>2026-04-06T09:53:24.001Z</time></trkpt><trkpt lat="38.48918853953807" lon="16.294227102852226"><ele>938.0</ele><time>2026-04-06T09:53:25.001Z</time></trkpt><trkpt lat="38.48913769452571" lon="16.29403895244288"><ele>939.0</ele><time>2026-04-06T09:53:26.001Z</time></trkpt><trkpt lat="38.489047894221976" lon="16.29386367804386"><ele>940.0</ele><time>2026-04-06T09:53:27.001Z</time></trkpt><trkpt lat="38.48891485937826" lon="16.29372010665119"><ele>941.0</ele><time>2026-04-06T09:53:28.001Z</time></trkpt><trkpt lat="38.48875417040812" lon="16.29357961134757"><ele>941.0</ele><time>2026-04-06T09:53:29.001Z</time></trkpt><trkpt lat="38.48859019622666" lon="16.293434452596905"><ele>941.0</ele><time>2026-04-06T09:53:30.001Z</time></trkpt><trkpt lat="38.488425000554514" lon="16.293274577986594"><ele>941.0</ele><time>2026-04-06T09:53:31.001Z</time></trkpt><trkpt lat="38.4882703989479" lon="16.29314189429029"><ele>943.6666666666667</ele><time>2026-04-06T09:53:32.001Z</time></trkpt><trkpt lat="38.488124289547" lon="16.29305144569037"><ele>946.3333333333333</ele><time>2026-04-06T09:53:33.001Z</time></trkpt><trkpt lat="38.48796609661918" lon="16.29298268278378"><ele>949.0</ele><time>2026-04-06T09:53:34.001Z</time></trkpt><trkpt lat="38.48781115984066" lon="16.292939220019452"><ele>949.0</ele><time>2026-04-06T09:53:35.001Z</time></trkpt><trkpt lat="38.48767729089283" lon="16.292893329475838"><ele>949.0</ele><time>2026-04-06T09:53:36.001Z</time></trkpt><trkpt lat="38.48754825888071" lon="16.29279992854234"><ele>949.0</ele><time>2026-04-06T09:53:37.001Z</time></trkpt><trkpt lat="38.48743587792822" lon="16.292649020048927"><ele>949.0</ele><time>2026-04-06T09:53:38.001Z</time></trkpt><trkpt lat="38.48730903435329" lon="16.292438220594025"><ele>949.0</ele><time>2026-04-06T09:53:39.001Z</time></trkpt><trkpt lat="38.48720835585702" lon="16.29226016308845"><ele>949.0</ele><time>2026-04-06T09:53:40Z</time></trkpt><trkpt lat="38.48711754828629" lon="16.292098968615466"><ele>949.6666666666666</ele><time>2026-04-06T09:53:41Z</time></trkpt><trkpt lat="38.48706291226898" lon="16.291886202163347"><ele>950.3333333333333</ele><time>2026-04-06T09:53:42Z</time></trkpt><trkpt lat="38.48702660101948" lon="16.29164953135319"><ele>951.0</ele><time>2026-04-06T09:53:43Z</time></trkpt><trkpt lat="38.487028028602765" lon="16.29140124916954"><ele>949.0</ele><time>2026-04-06T09:53:44Z</time></trkpt><trkpt lat="38.487045999695034" lon="16.29111931354215"><ele>947.0</ele><time>2026-04-06T09:53:45Z</time></trkpt><trkpt lat="38.487082092996815" lon="16.290787612805545"><ele>952.0</ele><time>2026-04-06T09:53:46Z</time></trkpt><trkpt lat="38.48712011913093" lon="16.290418884361166"><ele>957.0</ele><time>2026-04-06T09:53:47Z</time></trkpt><trkpt lat="38.48715769439275" lon="16.290017649910727"><ele>957.0</ele><time>2026-04-06T09:53:48Z</time></trkpt><trkpt lat="38.487206532167825" lon="16.289631252502037"><ele>957.0</ele><time>2026-04-06T09:53:49Z</time></trkpt><trkpt lat="38.487283470757184" lon="16.289283623584904"><ele>957.0</ele><time>2026-04-06T09:53:51Z</time></trkpt><trkpt lat="38.48736609903617" lon="16.28895537268894"><ele>957.0</ele><time>2026-04-06T09:53:52Z</time></trkpt><trkpt lat="38.48745357889936" lon="16.288602616181734"><ele>957.5</ele><time>2026-04-06T09:53:53Z</time></trkpt><trkpt lat="38.487544234971" lon="16.28823769850052"><ele>958.0</ele><time>2026-04-06T09:53:54Z</time></trkpt><trkpt lat="38.487627009461036" lon="16.287897164559276"><ele>957.0</ele><time>2026-04-06T09:53:55Z</time></trkpt><trkpt lat="38.48769972696145" lon="16.28758539317386"><ele>956.0</ele><time>2026-04-06T09:53:56Z</time></trkpt><trkpt lat="38.48773959033056" lon="16.287295053427922"><ele>956.3333333333334</ele><time>2026-04-06T09:53:57Z</time></trkpt><trkpt lat="38.48778330338051" lon="16.287054381751176"><ele>956.6666666666667</ele><time>2026-04-06T09:53:58Z</time></trkpt><trkpt lat="38.48780595146516" lon="16.28679035784796"><ele>957.0</ele><time>2026-04-06T09:53:59Z</time></trkpt><trkpt lat="38.48780510070118" lon="16.286563576741155"><ele>958.0</ele><time>2026-04-06T09:54:00Z</time></trkpt><trkpt lat="38.48779400540726" lon="16.28638925395356"><ele>959.0</ele><time>2026-04-06T09:54:01Z</time></trkpt><trkpt lat="38.48776366847451" lon="16.28621201542164"><ele>960.0</ele><time>2026-04-06T09:54:02Z</time></trkpt><trkpt lat="38.48769604814887" lon="16.286067900817283"><ele>961.0</ele><time>2026-04-06T09:54:03Z</time></trkpt><trkpt lat="38.48758057072147" lon="16.28596541005314"><ele>961.0</ele><time>2026-04-06T09:54:04Z</time></trkpt><trkpt lat="38.48744666430566" lon="16.28583182911469"><ele>961.0</ele><time>2026-04-06T09:54:05Z</time></trkpt><trkpt lat="38.48727067508147" lon="16.285727617733503"><ele>961.0</ele><time>2026-04-06T09:54:06Z</time></trkpt><trkpt lat="38.487060009205145" lon="16.285642500479465"><ele>963.5</ele><time>2026-04-06T09:54:07Z</time></trkpt><trkpt lat="38.486826397988935" lon="16.285559329711663"><ele>966.0</ele><time>2026-04-06T09:54:08Z</time></trkpt><trkpt lat="38.48662486822314" lon="16.285484101108608"><ele>966.0</ele><time>2026-04-06T09:54:09Z</time></trkpt><trkpt lat="38.486502193265984" lon="16.2854400411574"><ele>965.9999999999999</ele><time>2026-04-06T09:54:10Z</time></trkpt><trkpt lat="38.48650055135552" lon="16.285287010870306"><ele>965.9999999999999</ele><time>2026-04-06T09:54:15Z</time></trkpt><trkpt lat="38.48653181906236" lon="16.28519534415631"><ele>966.0</ele><time>2026-04-06T09:54:16Z</time></trkpt><trkpt lat="38.486576407316605" lon="16.285110818205318"><ele>966.0</ele><time>2026-04-06T09:54:17Z</time></trkpt><trkpt lat="38.48661323684015" lon="16.285035501591636"><ele>966.0</ele><time>2026-04-06T09:54:18Z</time></trkpt><trkpt lat="38.486647667447734" lon="16.284965166986964"><ele>966.0</ele><time>2026-04-06T09:54:19Z</time></trkpt><trkpt lat="38.48672258810165" lon="16.28486921182406"><ele>966.0</ele><time>2026-04-06T09:54:21Z</time></trkpt><trkpt lat="38.486774363929555" lon="16.284798075691363"><ele>966.0</ele><time>2026-04-06T09:54:22Z</time></trkpt><trkpt lat="38.48682515535983" lon="16.284727625772334"><ele>966.0</ele><time>2026-04-06T09:54:23Z</time></trkpt><trkpt lat="38.486868046870384" lon="16.284666659741077"><ele>966.0</ele><time>2026-04-06T09:54:24Z</time></trkpt><trkpt lat="38.486942088172846" lon="16.284561417149487"><ele>964.0</ele><time>2026-04-06T09:54:26Z</time></trkpt><trkpt lat="38.48699375545949" lon="16.28448797712887"><ele>962.0</ele><time>2026-04-06T09:54:28Z</time></trkpt><trkpt lat="38.48674646405618" lon="16.284071730860447"><ele>961.4000000000001</ele><time>2026-04-06T09:54:30Z</time></trkpt><trkpt lat="38.486745724338384" lon="16.28392116368062"><ele>960.8000000000001</ele><time>2026-04-06T09:54:32Z</time></trkpt><trkpt lat="38.48671728290233" lon="16.28375868389784"><ele>960.2</ele><time>2026-04-06T09:54:34Z</time></trkpt><trkpt lat="38.4866768674491" lon="16.28367154700491"><ele>959.6</ele><time>2026-04-06T09:54:35Z</time></trkpt><trkpt lat="38.486666289685246" lon="16.283577079357965"><ele>959.0</ele><time>2026-04-06T09:54:36Z</time></trkpt><trkpt lat="38.48664508795752" lon="16.283494219667904"><ele>959.0000000000001</ele><time>2026-04-06T09:54:37Z</time></trkpt><trkpt lat="38.48659577617968" lon="16.283435344629897"><ele>959.0</ele><time>2026-04-06T09:54:38Z</time></trkpt><trkpt lat="38.48652332751418" lon="16.28334412844217"><ele>959.0</ele><time>2026-04-06T09:54:40Z</time></trkpt><trkpt lat="38.486456942988404" lon="16.283300298525404"><ele>959.0</ele><time>2026-04-06T09:54:42Z</time></trkpt><trkpt lat="38.48639780647124" lon="16.283261570299572"><ele>959.0000000000001</ele><time>2026-04-06T09:54:44Z</time></trkpt><trkpt lat="38.4863514692239" lon="16.28313285990026"><ele>959.0</ele><time>2026-04-06T09:54:48Z</time></trkpt><trkpt lat="38.48633122311921" lon="16.283039392885495"><ele>960.6666666666667</ele><time>2026-04-06T09:54:50Z</time></trkpt><trkpt lat="38.486316377926656" lon="16.282952101558887"><ele>962.3333333333334</ele><time>2026-04-06T09:54:52Z</time></trkpt><trkpt lat="38.4862696936799" lon="16.28287924538159"><ele>964.0</ele><time>2026-04-06T09:54:54Z</time></trkpt><trkpt lat="38.486313530459185" lon="16.2829473126162"><ele>965.6666666666667</ele><time>2026-04-06T09:55:18.001Z</time></trkpt><trkpt lat="38.486330178596575" lon="16.28284765468766"><ele>967.3333333333334</ele><time>2026-04-06T09:56:05Z</time></trkpt><trkpt lat="38.48633565785887" lon="16.282703256740287"><ele>969.0</ele><time>2026-04-06T09:56:07Z</time></trkpt><trkpt lat="38.48634113371637" lon="16.2826170234859"><ele>969.0</ele><time>2026-04-06T09:56:08Z</time></trkpt><trkpt lat="38.48634548017061" lon="16.28244628707197"><ele>969.0000000000001</ele><time>2026-04-06T09:56:10Z</time></trkpt><trkpt lat="38.486342699018735" lon="16.28232336702744"><ele>969.0000000000001</ele><time>2026-04-06T09:56:12Z</time></trkpt><trkpt lat="38.48632905164733" lon="16.282198994097637"><ele>969.0</ele><time>2026-04-06T09:56:14Z</time></trkpt><trkpt lat="38.48632813313084" lon="16.282085423558087"><ele>969.0</ele><time>2026-04-06T09:56:16Z</time></trkpt><trkpt lat="38.48634473953845" lon="16.28196909313298"><ele>970.0</ele><time>2026-04-06T09:56:18Z</time></trkpt><trkpt lat="38.48632325227412" lon="16.28184733505645"><ele>971.0</ele><time>2026-04-06T09:56:20Z</time></trkpt><trkpt lat="38.486327202942334" lon="16.281749999305624"><ele>972.0</ele><time>2026-04-06T09:56:22Z</time></trkpt><trkpt lat="38.486324179997546" lon="16.281637298207766"><ele>973.0</ele><time>2026-04-06T09:56:25Z</time></trkpt><trkpt lat="38.48635283197595" lon="16.28156142561633"><ele>974.0</ele><time>2026-04-06T09:56:27Z</time></trkpt><trkpt lat="38.48636358264975" lon="16.28146810336254"><ele>975.0</ele><time>2026-04-06T09:56:30Z</time></trkpt><trkpt lat="38.48640495250642" lon="16.281398300140868"><ele>975.0</ele><time>2026-04-06T09:56:33Z</time></trkpt><trkpt lat="38.486473012194715" lon="16.281462757972115"><ele>975.0</ele><time>2026-04-06T09:56:37Z</time></trkpt><trkpt lat="38.486397794421414" lon="16.28148562061967"><ele>975.0</ele><time>2026-04-06T09:56:48Z</time></trkpt><trkpt lat="38.486339157409176" lon="16.281541999884805"><ele>975.0</ele><time>2026-04-06T09:56:51Z</time></trkpt><trkpt lat="38.48632470196649" lon="16.281664106588114"><ele>975.0</ele><time>2026-04-06T09:56:53Z</time></trkpt><trkpt lat="38.48628258698418" lon="16.281766408364213"><ele>975.0</ele><time>2026-04-06T09:56:55Z</time></trkpt><trkpt lat="38.48629359240821" lon="16.28190282060008"><ele>975.0</ele><time>2026-04-06T09:56:57Z</time></trkpt><trkpt lat="38.48629010940377" lon="16.28199779679897"><ele>975.0</ele><time>2026-04-06T09:56:58Z</time></trkpt><trkpt lat="38.486298982810645" lon="16.282102978506472"><ele>975.0</ele><time>2026-04-06T09:56:59Z</time></trkpt><trkpt lat="38.48630682146661" lon="16.282194730386692"><ele>975.0</ele><time>2026-04-06T09:57:00Z</time></trkpt><trkpt lat="38.48630675290879" lon="16.282295976650893"><ele>975.0</ele><time>2026-04-06T09:57:01Z</time></trkpt><trkpt lat="38.48631407466305" lon="16.28243932828337"><ele>975.0</ele><time>2026-04-06T09:57:02Z</time></trkpt><trkpt lat="38.48630237872419" lon="16.282536919477675"><ele>974.0</ele><time>2026-04-06T09:57:03Z</time></trkpt><trkpt lat="38.48630483151315" lon="16.28265869738049"><ele>973.0</ele><time>2026-04-06T09:57:05Z</time></trkpt><trkpt lat="38.48629649898918" lon="16.282746071252166"><ele>972.0</ele><time>2026-04-06T09:57:06Z</time></trkpt><trkpt lat="38.486298945609484" lon="16.282867686126764"><ele>971.0</ele><time>2026-04-06T09:57:07Z</time></trkpt><trkpt lat="38.48629817899812" lon="16.282990141586577"><ele>970.0</ele><time>2026-04-06T09:57:08Z</time></trkpt><trkpt lat="38.48631027753952" lon="16.283076490105387"><ele>969.0</ele><time>2026-04-06T09:57:09Z</time></trkpt><trkpt lat="38.48634808607122" lon="16.283192349915055"><ele>967.0</ele><time>2026-04-06T09:57:11Z</time></trkpt><trkpt lat="38.4864147833759" lon="16.283314422457796"><ele>965.0000000000001</ele><time>2026-04-06T09:57:13Z</time></trkpt><trkpt lat="38.48647048930396" lon="16.283354558275683"><ele>963.0000000000001</ele><time>2026-04-06T09:57:14.001Z</time></trkpt><trkpt lat="38.486560566423066" lon="16.283377912900722"><ele>961.0</ele><time>2026-04-06T09:57:17.001Z</time></trkpt><trkpt lat="38.48660405358675" lon="16.283444725778647"><ele>959.0</ele><time>2026-04-06T09:57:19.001Z</time></trkpt><trkpt lat="38.48666267495118" lon="16.283571877121847"><ele>959.0000000000001</ele><time>2026-04-06T09:57:21.001Z</time></trkpt><trkpt lat="38.48670084971458" lon="16.28364381868364"><ele>959.0</ele><time>2026-04-06T09:57:22.001Z</time></trkpt><trkpt lat="38.48671325356814" lon="16.28375271546311"><ele>959.0</ele><time>2026-04-06T09:57:23.001Z</time></trkpt><trkpt lat="38.48672963935171" lon="16.283852411234903"><ele>959.0</ele><time>2026-04-06T09:57:24.001Z</time></trkpt><trkpt lat="38.48675661214358" lon="16.2839513465856"><ele>959.0000000000001</ele><time>2026-04-06T09:57:25.001Z</time></trkpt><trkpt lat="38.48673725910679" lon="16.28408176660597"><ele>959.0</ele><time>2026-04-06T09:57:27.001Z</time></trkpt><trkpt lat="38.486747049312314" lon="16.284213625748283"><ele>959.5000000000001</ele><time>2026-04-06T09:57:29.001Z</time></trkpt><trkpt lat="38.486763847727396" lon="16.284307772006237"><ele>960.0</ele><time>2026-04-06T09:57:30.001Z</time></trkpt><trkpt lat="38.486763174025754" lon="16.284390852441483"><ele>960.5</ele><time>2026-04-06T09:57:31.001Z</time></trkpt><trkpt lat="38.486745170773666" lon="16.28449115125236"><ele>961.0</ele><time>2026-04-06T09:57:32.001Z</time></trkpt><trkpt lat="38.486706873495244" lon="16.284609506648955"><ele>961.5000000000001</ele><time>2026-04-06T09:57:33.001Z</time></trkpt><trkpt lat="38.48667515236141" lon="16.28473957035054"><ele>962.0</ele><time>2026-04-06T09:57:34.001Z</time></trkpt><trkpt lat="38.4866424127648" lon="16.28483700291761"><ele>962.6666666666667</ele><time>2026-04-06T09:57:35.001Z</time></trkpt><trkpt lat="38.4866099748511" lon="16.284915737825482"><ele>963.3333333333334</ele><time>2026-04-06T09:57:36.001Z</time></trkpt><trkpt lat="38.48656412576927" lon="16.285012668627868"><ele>964.0</ele><time>2026-04-06T09:57:37.001Z</time></trkpt><trkpt lat="38.486525310356875" lon="16.285109108869392"><ele>964.6666666666667</ele><time>2026-04-06T09:57:38.001Z</time></trkpt><trkpt lat="38.4864855045232" lon="16.285180502715924"><ele>965.3333333333334</ele><time>2026-04-06T09:57:39.001Z</time></trkpt><trkpt lat="38.48641972470531" lon="16.28524397783108"><ele>966.0</ele><time>2026-04-06T09:57:40.001Z</time></trkpt><trkpt lat="38.48633566817079" lon="16.28531159497435"><ele>965.5999999999999</ele><time>2026-04-06T09:57:42.001Z</time></trkpt><trkpt lat="38.486243974486726" lon="16.285361586382102"><ele>965.1999999999999</ele><time>2026-04-06T09:57:44.001Z</time></trkpt><trkpt lat="38.48617885735529" lon="16.285349155184868"><ele>964.8000000000001</ele><time>2026-04-06T09:57:45.001Z</time></trkpt><trkpt lat="38.486083486409704" lon="16.285341531444384"><ele>964.4000000000001</ele><time>2026-04-06T09:57:46.001Z</time></trkpt><trkpt lat="38.48598609410704" lon="16.28530548579641"><ele>964.0</ele><time>2026-04-06T09:57:47.001Z</time></trkpt><trkpt lat="38.48586716202957" lon="16.28527821356988"><ele>964.0</ele><time>2026-04-06T09:57:48.001Z</time></trkpt><trkpt lat="38.485736918130385" lon="16.28529576320882"><ele>964.0</ele><time>2026-04-06T09:57:49.001Z</time></trkpt><trkpt lat="38.485590214491985" lon="16.285339138757326"><ele>964.0</ele><time>2026-04-06T09:57:50.001Z</time></trkpt><trkpt lat="38.485466737260325" lon="16.285389663247177"><ele>964.0</ele><time>2026-04-06T09:57:51.001Z</time></trkpt><trkpt lat="38.485350360557966" lon="16.285407521101515"><ele>964.25</ele><time>2026-04-06T09:57:51.999Z</time></trkpt><trkpt lat="38.48522155019839" lon="16.285383640794596"><ele>964.5</ele><time>2026-04-06T09:57:52.999Z</time></trkpt><trkpt lat="38.4851020435969" lon="16.28533500644298"><ele>964.75</ele><time>2026-04-06T09:57:53.999Z</time></trkpt><trkpt lat="38.484971649552485" lon="16.285268709809557"><ele>965.0</ele><time>2026-04-06T09:57:54.999Z</time></trkpt><trkpt lat="38.484834764448294" lon="16.285188075074018"><ele>965.0</ele><time>2026-04-06T09:57:55.999Z</time></trkpt><trkpt lat="38.48468914458592" lon="16.28509324904491"><ele>965.0</ele><time>2026-04-06T09:57:56.999Z</time></trkpt><trkpt lat="38.48452390228443" lon="16.28498773343296"><ele>965.0</ele><time>2026-04-06T09:57:57.999Z</time></trkpt><trkpt lat="38.484354022791564" lon="16.28487944307113"><ele>964.3333333333334</ele><time>2026-04-06T09:57:58.999Z</time></trkpt><trkpt lat="38.48418219636598" lon="16.28477937032939"><ele>963.6666666666667</ele><time>2026-04-06T09:57:59.999Z</time></trkpt><trkpt lat="38.484047405819915" lon="16.284684342261237"><ele>963.0</ele><time>2026-04-06T09:58:00.999Z</time></trkpt><trkpt lat="38.48391236589011" lon="16.284635164539534"><ele>963.0</ele><time>2026-04-06T09:58:01.999Z</time></trkpt><trkpt lat="38.483773659146806" lon="16.2845742271632"><ele>963.0</ele><time>2026-04-06T09:58:03Z</time></trkpt><trkpt lat="38.48361766786119" lon="16.284534266410084"><ele>963.0</ele><time>2026-04-06T09:58:04Z</time></trkpt><trkpt lat="38.48346459219227" lon="16.28451135333538"><ele>962.2</ele><time>2026-04-06T09:58:05Z</time></trkpt><trkpt lat="38.48334000560497" lon="16.28450433171027"><ele>961.4</ele><time>2026-04-06T09:58:06Z</time></trkpt><trkpt lat="38.48323742599474" lon="16.284483937898468"><ele>960.6000000000001</ele><time>2026-04-06T09:58:07Z</time></trkpt><trkpt lat="38.48317031736091" lon="16.28440217144599"><ele>959.8000000000001</ele><time>2026-04-06T09:58:08Z</time></trkpt><trkpt lat="38.48313023747771" lon="16.28431751387191"><ele>959.0</ele><time>2026-04-06T09:58:09Z</time></trkpt><trkpt lat="38.48309000625762" lon="16.28417320768761"><ele>959.0</ele><time>2026-04-06T09:58:10Z</time></trkpt><trkpt lat="38.48303439776524" lon="16.28401756976666"><ele>959.0</ele><time>2026-04-06T09:58:11Z</time></trkpt><trkpt lat="38.482987298873375" lon="16.283908513480583"><ele>959.0</ele><time>2026-04-06T09:58:12Z</time></trkpt><trkpt lat="38.48289483977243" lon="16.283722864211605"><ele>959.0</ele><time>2026-04-06T09:58:13Z</time></trkpt><trkpt lat="38.48280480039309" lon="16.28355054692768"><ele>958.0</ele><time>2026-04-06T09:58:14Z</time></trkpt><trkpt lat="38.48270933780447" lon="16.283375214700474"><ele>957.0</ele><time>2026-04-06T09:58:15Z</time></trkpt><trkpt lat="38.48260795357431" lon="16.28318600324338"><ele>956.0</ele><time>2026-04-06T09:58:16Z</time></trkpt><trkpt lat="38.48251868824325" lon="16.28300940149864"><ele>957.5</ele><time>2026-04-06T09:58:17Z</time></trkpt><trkpt lat="38.48244795915204" lon="16.282838168935307"><ele>959.0</ele><time>2026-04-06T09:58:18Z</time></trkpt><trkpt lat="38.482405526550764" lon="16.282665112708006"><ele>960.5</ele><time>2026-04-06T09:58:19Z</time></trkpt><trkpt lat="38.48238306004268" lon="16.282495089907304"><ele>962.0</ele><time>2026-04-06T09:58:20Z</time></trkpt><trkpt lat="38.4823397884333" lon="16.282343866495072"><ele>965.75</ele><time>2026-04-06T09:58:21Z</time></trkpt><trkpt lat="38.48223215336739" lon="16.282220070623403"><ele>969.5</ele><time>2026-04-06T09:58:22Z</time></trkpt><trkpt lat="38.48212917502249" lon="16.282185346185642"><ele>973.25</ele><time>2026-04-06T09:58:23Z</time></trkpt><trkpt lat="38.48200528207324" lon="16.282084233720735"><ele>977.0</ele><time>2026-04-06T09:58:24Z</time></trkpt><trkpt lat="38.481848143599116" lon="16.28200874276708"><ele>977.0</ele><time>2026-04-06T09:58:25Z</time></trkpt><trkpt lat="38.481684382088986" lon="16.28196689418996"><ele>977.0</ele><time>2026-04-06T09:58:26Z</time></trkpt><trkpt lat="38.48151084063968" lon="16.2819449786717"><ele>977.0</ele><time>2026-04-06T09:58:27Z</time></trkpt><trkpt lat="38.481312142543025" lon="16.28192586641348"><ele>976.6666666666667</ele><time>2026-04-06T09:58:28Z</time></trkpt><trkpt lat="38.48114899378118" lon="16.281907931235505"><ele>976.3333333333333</ele><time>2026-04-06T09:58:29Z</time></trkpt><trkpt lat="38.48100192652593" lon="16.28190380228024"><ele>976.0</ele><time>2026-04-06T09:58:30Z</time></trkpt><trkpt lat="38.480855341343805" lon="16.281929862246006"><ele>976.0</ele><time>2026-04-06T09:58:31Z</time></trkpt><trkpt lat="38.48069752130064" lon="16.282007157663788"><ele>976.0</ele><time>2026-04-06T09:58:32Z</time></trkpt><trkpt lat="38.480549195648166" lon="16.28210092877045"><ele>976.0</ele><time>2026-04-06T09:58:33Z</time></trkpt><trkpt lat="38.480381739859475" lon="16.282202665082007"><ele>976.0</ele><time>2026-04-06T09:58:34Z</time></trkpt><trkpt lat="38.480227665728144" lon="16.282279285606194"><ele>976.0</ele><time>2026-04-06T09:58:35Z</time></trkpt><trkpt lat="38.48008194278542" lon="16.282371873836006"><ele>976.0</ele><time>2026-04-06T09:58:36Z</time></trkpt><trkpt lat="38.47995561117495" lon="16.28250882007689"><ele>976.0</ele><time>2026-04-06T09:58:37Z</time></trkpt><trkpt lat="38.47985563186475" lon="16.282654412456917"><ele>976.0</ele><time>2026-04-06T09:58:38Z</time></trkpt><trkpt lat="38.47978625160384" lon="16.282774410387816"><ele>976.0</ele><time>2026-04-06T09:58:39Z</time></trkpt><trkpt lat="38.479710910564464" lon="16.282875550307896"><ele>976.0</ele><time>2026-04-06T09:58:40Z</time></trkpt><trkpt lat="38.47960772211361" lon="16.28293976511794"><ele>977.5</ele><time>2026-04-06T09:58:41Z</time></trkpt><trkpt lat="38.47948322899469" lon="16.28298193660167"><ele>979.0</ele><time>2026-04-06T09:58:42Z</time></trkpt><trkpt lat="38.47933614755" lon="16.283017498277538"><ele>980.5</ele><time>2026-04-06T09:58:43Z</time></trkpt><trkpt lat="38.4791783502737" lon="16.283055120973184"><ele>982.0</ele><time>2026-04-06T09:58:44Z</time></trkpt><trkpt lat="38.47904886597263" lon="16.283066175721565"><ele>982.0</ele><time>2026-04-06T09:58:45Z</time></trkpt><trkpt lat="38.47894503450448" lon="16.28304773040967"><ele>982.0</ele><time>2026-04-06T09:58:46Z</time></trkpt><trkpt lat="38.47885468483698" lon="16.282964329115647"><ele>982.0</ele><time>2026-04-06T09:58:47Z</time></trkpt><trkpt lat="38.47878923419889" lon="16.28283442355814"><ele>982.0</ele><time>2026-04-06T09:58:48Z</time></trkpt><trkpt lat="38.47870949754209" lon="16.282701966029528"><ele>981.6666666666666</ele><time>2026-04-06T09:58:49Z</time></trkpt><trkpt lat="38.478622490372345" lon="16.282530695830832"><ele>981.3333333333333</ele><time>2026-04-06T09:58:50Z</time></trkpt><trkpt lat="38.47851414555935" lon="16.282337816890543"><ele>981.0</ele><time>2026-04-06T09:58:51Z</time></trkpt><trkpt lat="38.4783881050135" lon="16.282140946635188"><ele>981.0</ele><time>2026-04-06T09:58:52Z</time></trkpt><trkpt lat="38.47826319924678" lon="16.281903527244978"><ele>981.0</ele><time>2026-04-06T09:58:53Z</time></trkpt><trkpt lat="38.47815492362796" lon="16.28168534643731"><ele>981.0</ele><time>2026-04-06T09:58:54Z</time></trkpt><trkpt lat="38.47806821746369" lon="16.28149686312266"><ele>981.5</ele><time>2026-04-06T09:58:55Z</time></trkpt><trkpt lat="38.4779993317566" lon="16.281335432989376"><ele>982.0</ele><time>2026-04-06T09:58:56Z</time></trkpt><trkpt lat="38.477967819059785" lon="16.28119177153129"><ele>982.5</ele><time>2026-04-06T09:58:57Z</time></trkpt><trkpt lat="38.47793234654411" lon="16.281040986894467"><ele>983.0</ele><time>2026-04-06T09:58:58Z</time></trkpt><trkpt lat="38.47792423198351" lon="16.280881944889952"><ele>983.0</ele><time>2026-04-06T09:58:59Z</time></trkpt><trkpt lat="38.477941529723466" lon="16.28073869995033"><ele>983.0</ele><time>2026-04-06T09:59:00Z</time></trkpt><trkpt lat="38.47795012592823" lon="16.28061523408666"><ele>983.0</ele><time>2026-04-06T09:59:01Z</time></trkpt><trkpt lat="38.47794000110674" lon="16.2804943456078"><ele>983.0</ele><time>2026-04-06T09:59:02Z</time></trkpt><trkpt lat="38.47792095056162" lon="16.280398041558158"><ele>983.0</ele><time>2026-04-06T09:59:03Z</time></trkpt><trkpt lat="38.4778802401335" lon="16.280287788338747"><ele>982.0</ele><time>2026-04-06T09:59:04.001Z</time></trkpt><trkpt lat="38.477767679929016" lon="16.280180283943917"><ele>981.0</ele><time>2026-04-06T09:59:05.001Z</time></trkpt><trkpt lat="38.47764729521091" lon="16.280079405656362"><ele>980.0</ele><time>2026-04-06T09:59:06.001Z</time></trkpt><trkpt lat="38.477543588263956" lon="16.28000327111158"><ele>979.0</ele><time>2026-04-06T09:59:07.001Z</time></trkpt><trkpt lat="38.47745335640252" lon="16.27996260897258"><ele>979.0</ele><time>2026-04-06T09:59:08.001Z</time></trkpt><trkpt lat="38.477362592123384" lon="16.28001330739185"><ele>979.0</ele><time>2026-04-06T09:59:09.001Z</time></trkpt><trkpt lat="38.47726179797311" lon="16.28010470540332"><ele>979.0</ele><time>2026-04-06T09:59:10.001Z</time></trkpt><trkpt lat="38.477160113173106" lon="16.280220897725133"><ele>979.0</ele><time>2026-04-06T09:59:11.001Z</time></trkpt><trkpt lat="38.477021412338324" lon="16.280497246639815"><ele>984.6666666666666</ele><time>2026-04-06T09:59:12.001Z</time></trkpt><trkpt lat="38.47693835939632" lon="16.280740431705603"><ele>990.3333333333333</ele><time>2026-04-06T09:59:13.001Z</time></trkpt><trkpt lat="38.47686399744564" lon="16.280910672799646"><ele>996.0</ele><time>2026-04-06T09:59:14.001Z</time></trkpt><trkpt lat="38.47677810882962" lon="16.281061961181983"><ele>996.0</ele><time>2026-04-06T09:59:15.001Z</time></trkpt><trkpt lat="38.476654726617504" lon="16.281221792630504"><ele>996.0</ele><time>2026-04-06T09:59:16.001Z</time></trkpt><trkpt lat="38.47648300328964" lon="16.281381861095465"><ele>996.0</ele><time>2026-04-06T09:59:17.001Z</time></trkpt><trkpt lat="38.47630927427395" lon="16.281620801424012"><ele>993.5</ele><time>2026-04-06T09:59:18.001Z</time></trkpt><trkpt lat="38.4763525174974" lon="16.28147311713886"><ele>991.0</ele><time>2026-04-06T09:59:19.001Z</time></trkpt><trkpt lat="38.47627675312466" lon="16.281656651725992"><ele>988.5</ele><time>2026-04-06T09:59:20.001Z</time></trkpt><trkpt lat="38.47623154057771" lon="16.281852381072703"><ele>986.0</ele><time>2026-04-06T09:59:21.001Z</time></trkpt><trkpt lat="38.47623825477525" lon="16.282071376658635"><ele>984.3333333333334</ele><time>2026-04-06T09:59:22.001Z</time></trkpt><trkpt lat="38.4762792693509" lon="16.282334735042163"><ele>982.6666666666667</ele><time>2026-04-06T09:59:23.001Z</time></trkpt><trkpt lat="38.47632115896186" lon="16.282605899285752"><ele>981.0</ele><time>2026-04-06T09:59:24.001Z</time></trkpt><trkpt lat="38.47632506895154" lon="16.28281176167978"><ele>985.0</ele><time>2026-04-06T09:59:25.001Z</time></trkpt><trkpt lat="38.47626744233807" lon="16.28298035844778"><ele>989.0</ele><time>2026-04-06T09:59:26.001Z</time></trkpt><trkpt lat="38.4761871864161" lon="16.2831195062779"><ele>993.0</ele><time>2026-04-06T09:59:27.001Z</time></trkpt><trkpt lat="38.47608307582818" lon="16.28326698162768"><ele>997.0</ele><time>2026-04-06T09:59:28.001Z</time></trkpt><trkpt lat="38.47597914939872" lon="16.28340940251263"><ele>997.0</ele><time>2026-04-06T09:59:29.001Z</time></trkpt><trkpt lat="38.47582960654506" lon="16.283608219409093"><ele>997.0</ele><time>2026-04-06T09:59:30.001Z</time></trkpt><trkpt lat="38.47571618503352" lon="16.28372278103516"><ele>997.0</ele><time>2026-04-06T09:59:31.001Z</time></trkpt><trkpt lat="38.47559004599125" lon="16.283789165307514"><ele>997.3333333333333</ele><time>2026-04-06T09:59:32.001Z</time></trkpt><trkpt lat="38.47542413649987" lon="16.2838303600777"><ele>997.6666666666667</ele><time>2026-04-06T09:59:33.001Z</time></trkpt><trkpt lat="38.47521424244872" lon="16.283914535571682"><ele>998.0</ele><time>2026-04-06T09:59:34.001Z</time></trkpt><trkpt lat="38.47504356668661" lon="16.283932810475036"><ele>998.0</ele><time>2026-04-06T09:59:35.001Z</time></trkpt><trkpt lat="38.47491102161799" lon="16.283933798668492"><ele>998.0</ele><time>2026-04-06T09:59:36.001Z</time></trkpt><trkpt lat="38.474793533571116" lon="16.283904184549247"><ele>998.0</ele><time>2026-04-06T09:59:37.001Z</time></trkpt><trkpt lat="38.474657307323696" lon="16.283840639112775"><ele>998.0</ele><time>2026-04-06T09:59:38.001Z</time></trkpt><trkpt lat="38.474519655986754" lon="16.283720853031646"><ele>999.0</ele><time>2026-04-06T09:59:39.001Z</time></trkpt><trkpt lat="38.47442885042978" lon="16.283572287633095"><ele>1000.0</ele><time>2026-04-06T09:59:40.001Z</time></trkpt><trkpt lat="38.47433055819511" lon="16.283393252985377"><ele>1001.0</ele><time>2026-04-06T09:59:41.001Z</time></trkpt><trkpt lat="38.474253355034676" lon="16.28319647967774"><ele>1002.3333333333334</ele><time>2026-04-06T09:59:42.001Z</time></trkpt><trkpt lat="38.474193174400725" lon="16.282928212440556"><ele>1003.6666666666667</ele><time>2026-04-06T09:59:43.001Z</time></trkpt><trkpt lat="38.474145989206555" lon="16.28267896236215"><ele>1005.0</ele><time>2026-04-06T09:59:44.001Z</time></trkpt><trkpt lat="38.474101217500525" lon="16.282442713415627"><ele>1006.0</ele><time>2026-04-06T09:59:45.001Z</time></trkpt><trkpt lat="38.47403741703849" lon="16.282218574850752"><ele>1007.0</ele><time>2026-04-06T09:59:46.001Z</time></trkpt><trkpt lat="38.47399721178125" lon="16.28201042114346"><ele>1008.0</ele><time>2026-04-06T09:59:47.001Z</time></trkpt><trkpt lat="38.47391849407099" lon="16.28187351941763"><ele>1008.0</ele><time>2026-04-06T09:59:48.001Z</time></trkpt><trkpt lat="38.47378026452028" lon="16.281738106264953"><ele>1008.0</ele><time>2026-04-06T09:59:49.001Z</time></trkpt><trkpt lat="38.473600911335375" lon="16.28159494453862"><ele>1008.0</ele><time>2026-04-06T09:59:50.001Z</time></trkpt><trkpt lat="38.473413425147065" lon="16.281446167092543"><ele>1007.0</ele><time>2026-04-06T09:59:51.001Z</time></trkpt><trkpt lat="38.47326335300289" lon="16.281294721441043"><ele>1006.0</ele><time>2026-04-06T09:59:52.001Z</time></trkpt><trkpt lat="38.47313406936386" lon="16.281150968450632"><ele>1005.0</ele><time>2026-04-06T09:59:53.001Z</time></trkpt><trkpt lat="38.473035285407136" lon="16.281033930775113"><ele>1005.0</ele><time>2026-04-06T09:59:54.001Z</time></trkpt><trkpt lat="38.47294724825549" lon="16.280958158417846"><ele>1005.0</ele><time>2026-04-06T09:59:55.001Z</time></trkpt><trkpt lat="38.472837934160935" lon="16.280921056598615"><ele>1005.0</ele><time>2026-04-06T09:59:56.001Z</time></trkpt><trkpt lat="38.47275233314481" lon="16.280913404242508"><ele>1005.0</ele><time>2026-04-06T09:59:57.001Z</time></trkpt><trkpt lat="38.4726830648804" lon="16.2809302435649"><ele>1005.0</ele><time>2026-04-06T09:59:58Z</time></trkpt><trkpt lat="38.47263256924634" lon="16.281013585416673"><ele>1006.75</ele><time>2026-04-06T09:59:59Z</time></trkpt><trkpt lat="38.472595399413834" lon="16.281108555655422"><ele>1008.5</ele><time>2026-04-06T10:00:00Z</time></trkpt><trkpt lat="38.472556667658004" lon="16.28127323552683"><ele>1010.25</ele><time>2026-04-06T10:00:01Z</time></trkpt><trkpt lat="38.47256406900206" lon="16.281454311529796"><ele>1012.0</ele><time>2026-04-06T10:00:02Z</time></trkpt><trkpt lat="38.47253661934842" lon="16.281665059254713"><ele>1012.3333333333333</ele><time>2026-04-06T10:00:03Z</time></trkpt><trkpt lat="38.47250831947137" lon="16.281921701448706"><ele>1012.6666666666667</ele><time>2026-04-06T10:00:04Z</time></trkpt><trkpt lat="38.47249161328291" lon="16.28218097703653"><ele>1013.0</ele><time>2026-04-06T10:00:05Z</time></trkpt><trkpt lat="38.47249207783203" lon="16.28246568804559"><ele>1011.3333333333334</ele><time>2026-04-06T10:00:06Z</time></trkpt><trkpt lat="38.47248691831809" lon="16.282694882837223"><ele>1009.6666666666667</ele><time>2026-04-06T10:00:07Z</time></trkpt><trkpt lat="38.47248104521586" lon="16.282879348886333"><ele>1008.0</ele><time>2026-04-06T10:00:08Z</time></trkpt><trkpt lat="38.47244289709574" lon="16.283079502033527"><ele>1006.3333333333333</ele><time>2026-04-06T10:00:09Z</time></trkpt><trkpt lat="38.47239577020888" lon="16.283289330037466"><ele>1004.6666666666666</ele><time>2026-04-06T10:00:10Z</time></trkpt><trkpt lat="38.472317086120206" lon="16.283478572916355"><ele>1003.0</ele><time>2026-04-06T10:00:11Z</time></trkpt><trkpt lat="38.47224158697869" lon="16.283613408228643"><ele>1003.0</ele><time>2026-04-06T10:00:12Z</time></trkpt><trkpt lat="38.47213999661467" lon="16.28368244914706"><ele>1003.0</ele><time>2026-04-06T10:00:13Z</time></trkpt><trkpt lat="38.47202529556797" lon="16.28373606738683"><ele>1003.0</ele><time>2026-04-06T10:00:14Z</time></trkpt><trkpt lat="38.47189502416477" lon="16.283751771673316"><ele>1003.0</ele><time>2026-04-06T10:00:15Z</time></trkpt><trkpt lat="38.47172588973634" lon="16.28370435875558"><ele>1008.75</ele><time>2026-04-06T10:00:16Z</time></trkpt><trkpt lat="38.4716071311025" lon="16.28364873117828"><ele>1014.5</ele><time>2026-04-06T10:00:17Z</time></trkpt><trkpt lat="38.471473408555156" lon="16.283591054476513"><ele>1020.25</ele><time>2026-04-06T10:00:18Z</time></trkpt><trkpt lat="38.47137687223841" lon="16.283573522714903"><ele>1026.0</ele><time>2026-04-06T10:00:19Z</time></trkpt><trkpt lat="38.47126614082086" lon="16.283584588254158"><ele>1026.6666666666667</ele><time>2026-04-06T10:00:20Z</time></trkpt><trkpt lat="38.47115580847323" lon="16.283707808087257"><ele>1027.3333333333335</ele><time>2026-04-06T10:00:21Z</time></trkpt><trkpt lat="38.47105110378757" lon="16.283858573157797"><ele>1028.0</ele><time>2026-04-06T10:00:22Z</time></trkpt><trkpt lat="38.47095548955994" lon="16.284049450069364"><ele>1028.0</ele><time>2026-04-06T10:00:23Z</time></trkpt><trkpt lat="38.470867342469035" lon="16.28426118806837"><ele>1028.0</ele><time>2026-04-06T10:00:24Z</time></trkpt><trkpt lat="38.47077392642484" lon="16.284442076299946"><ele>1028.0</ele><time>2026-04-06T10:00:25Z</time></trkpt><trkpt lat="38.470658081306354" lon="16.284579779656404"><ele>1028.0</ele><time>2026-04-06T10:00:26Z</time></trkpt><trkpt lat="38.4705396258425" lon="16.28467563969849"><ele>1028.0</ele><time>2026-04-06T10:00:27Z</time></trkpt><trkpt lat="38.47042996249893" lon="16.284750641608735"><ele>1028.0</ele><time>2026-04-06T10:00:28Z</time></trkpt><trkpt lat="38.47031434977718" lon="16.28480086520423"><ele>1028.0</ele><time>2026-04-06T10:00:29Z</time></trkpt><trkpt lat="38.47022488822208" lon="16.28473937443264"><ele>1026.25</ele><time>2026-04-06T10:00:30Z</time></trkpt><trkpt lat="38.470123475643746" lon="16.284650571718075"><ele>1024.5</ele><time>2026-04-06T10:00:31Z</time></trkpt><trkpt lat="38.470079999883" lon="16.284517114316262"><ele>1022.75</ele><time>2026-04-06T10:00:32Z</time></trkpt><trkpt lat="38.470069760403604" lon="16.284374478502542"><ele>1021.0</ele><time>2026-04-06T10:00:33Z</time></trkpt><trkpt lat="38.47008282657819" lon="16.28422816765258"><ele>1021.0</ele><time>2026-04-06T10:00:34Z</time></trkpt><trkpt lat="38.470107903800034" lon="16.284076415037195"><ele>1021.0</ele><time>2026-04-06T10:00:35Z</time></trkpt><trkpt lat="38.47013139889883" lon="16.283912590359638"><ele>1021.0</ele><time>2026-04-06T10:00:36Z</time></trkpt><trkpt lat="38.47013779021425" lon="16.283732856960693"><ele>1021.0</ele><time>2026-04-06T10:00:37Z</time></trkpt><trkpt lat="38.47012618266407" lon="16.283590026775748"><ele>1025.25</ele><time>2026-04-06T10:00:38Z</time></trkpt><trkpt lat="38.470059972008514" lon="16.283459457703877"><ele>1029.5</ele><time>2026-04-06T10:00:39Z</time></trkpt><trkpt lat="38.46998276963415" lon="16.283415463791876"><ele>1033.75</ele><time>2026-04-06T10:00:40Z</time></trkpt><trkpt lat="38.469849345595655" lon="16.283411830955945"><ele>1038.0</ele><time>2026-04-06T10:00:41Z</time></trkpt><trkpt lat="38.46972733184064" lon="16.283489519306613"><ele>1038.0</ele><time>2026-04-06T10:00:42Z</time></trkpt><trkpt lat="38.469610154069045" lon="16.283592533402338"><ele>1038.0</ele><time>2026-04-06T10:00:43Z</time></trkpt><trkpt lat="38.46949859913411" lon="16.28371570656726"><ele>1038.0</ele><time>2026-04-06T10:00:44Z</time></trkpt><trkpt lat="38.46938232158366" lon="16.283806008993153"><ele>1038.0</ele><time>2026-04-06T10:00:45Z</time></trkpt><trkpt lat="38.469284294352924" lon="16.28384260425592"><ele>1037.2</ele><time>2026-04-06T10:00:46Z</time></trkpt><trkpt lat="38.469204233383635" lon="16.28385029441096"><ele>1036.4</ele><time>2026-04-06T10:00:47Z</time></trkpt><trkpt lat="38.46914948109613" lon="16.283803713662873"><ele>1035.6000000000001</ele><time>2026-04-06T10:00:48Z</time></trkpt><trkpt lat="38.46906307569374" lon="16.283668986952566"><ele>1034.8</ele><time>2026-04-06T10:00:49Z</time></trkpt><trkpt lat="38.4689861595614" lon="16.283503264849266"><ele>1034.0</ele><time>2026-04-06T10:00:50Z</time></trkpt><trkpt lat="38.46892718766078" lon="16.283330174469448"><ele>1034.0</ele><time>2026-04-06T10:00:51Z</time></trkpt><trkpt lat="38.468881188055676" lon="16.283119459656533"><ele>1034.0</ele><time>2026-04-06T10:00:52Z</time></trkpt><trkpt lat="38.468852130871426" lon="16.28288282337491"><ele>1034.0</ele><time>2026-04-06T10:00:53Z</time></trkpt><trkpt lat="38.468817100359445" lon="16.282645853680037"><ele>1034.3333333333335</ele><time>2026-04-06T10:00:54Z</time></trkpt><trkpt lat="38.468794794072565" lon="16.28237140105203"><ele>1034.6666666666667</ele><time>2026-04-06T10:00:55Z</time></trkpt><trkpt lat="38.46877831662116" lon="16.2821108792635"><ele>1035.0</ele><time>2026-04-06T10:00:56Z</time></trkpt><trkpt lat="38.46877055946776" lon="16.28183223960662"><ele>1035.0</ele><time>2026-04-06T10:00:57Z</time></trkpt><trkpt lat="38.46878720936404" lon="16.28159442587386"><ele>1035.0</ele><time>2026-04-06T10:00:58.001Z</time></trkpt><trkpt lat="38.468829276667385" lon="16.281357710444137"><ele>1035.0</ele><time>2026-04-06T10:00:59.001Z</time></trkpt><trkpt lat="38.46884200184008" lon="16.281140660730962"><ele>1034.25</ele><time>2026-04-06T10:01:00.001Z</time></trkpt><trkpt lat="38.468855011077814" lon="16.280964133952473"><ele>1033.5</ele><time>2026-04-06T10:01:01.001Z</time></trkpt><trkpt lat="38.46881057486609" lon="16.28080540808442"><ele>1032.75</ele><time>2026-04-06T10:01:02.001Z</time></trkpt><trkpt lat="38.46872279337986" lon="16.28066188678102"><ele>1032.0</ele><time>2026-04-06T10:01:03.001Z</time></trkpt><trkpt lat="38.46861215167225" lon="16.280527853690625"><ele>1028.75</ele><time>2026-04-06T10:01:04.001Z</time></trkpt><trkpt lat="38.46848663529757" lon="16.280405888193705"><ele>1025.5</ele><time>2026-04-06T10:01:05.001Z</time></trkpt><trkpt lat="38.46840884942465" lon="16.280265386601265"><ele>1022.25</ele><time>2026-04-06T10:01:06.001Z</time></trkpt><trkpt lat="38.468360789112836" lon="16.280119049817216"><ele>1019.0</ele><time>2026-04-06T10:01:07.001Z</time></trkpt><trkpt lat="38.4683500230309" lon="16.279929674325334"><ele>1020.0</ele><time>2026-04-06T10:01:08.001Z</time></trkpt><trkpt lat="38.46831927028316" lon="16.279709440454436"><ele>1021.0</ele><time>2026-04-06T10:01:09.001Z</time></trkpt><trkpt lat="38.46829816116925" lon="16.279514918926633"><ele>1022.0</ele><time>2026-04-06T10:01:10.001Z</time></trkpt><trkpt lat="38.46822672155526" lon="16.27933851248207"><ele>1022.0</ele><time>2026-04-06T10:01:11.001Z</time></trkpt><trkpt lat="38.46810998744119" lon="16.27919420682301"><ele>1022.0</ele><time>2026-04-06T10:01:12.001Z</time></trkpt><trkpt lat="38.467974845647625" lon="16.279085284548696"><ele>1022.0</ele><time>2026-04-06T10:01:13.001Z</time></trkpt><trkpt lat="38.46782006016988" lon="16.279019147682355"><ele>1022.3333333333334</ele><time>2026-04-06T10:01:14.001Z</time></trkpt><trkpt lat="38.467670674280875" lon="16.278952080770765"><ele>1022.6666666666667</ele><time>2026-04-06T10:01:15.001Z</time></trkpt><trkpt lat="38.467531962048014" lon="16.27886573082187"><ele>1023.0</ele><time>2026-04-06T10:01:16.001Z</time></trkpt><trkpt lat="38.46742928129437" lon="16.278737911887625"><ele>1023.0</ele><time>2026-04-06T10:01:17.001Z</time></trkpt><trkpt lat="38.467313268507525" lon="16.278583204991403"><ele>1023.0</ele><time>2026-04-06T10:01:18.001Z</time></trkpt><trkpt lat="38.46718558078419" lon="16.27840421683589"><ele>1023.0</ele><time>2026-04-06T10:01:19.001Z</time></trkpt><trkpt lat="38.46703705550919" lon="16.278209981510408"><ele>1021.6666666666667</ele><time>2026-04-06T10:01:20.001Z</time></trkpt><trkpt lat="38.466904495897104" lon="16.278031825405666"><ele>1020.3333333333334</ele><time>2026-04-06T10:01:21.001Z</time></trkpt><trkpt lat="38.46677958736955" lon="16.27785029369574"><ele>1019.0</ele><time>2026-04-06T10:01:22.001Z</time></trkpt><trkpt lat="38.46668870556669" lon="16.27769851994904"><ele>1019.0</ele><time>2026-04-06T10:01:23.001Z</time></trkpt><trkpt lat="38.46659917616653" lon="16.277548084730622"><ele>1019.0</ele><time>2026-04-06T10:01:24.001Z</time></trkpt><trkpt lat="38.46652994911125" lon="16.277405011536004"><ele>1019.0</ele><time>2026-04-06T10:01:25.001Z</time></trkpt><trkpt lat="38.46650860361612" lon="16.277248309397287"><ele>1019.0</ele><time>2026-04-06T10:01:26.001Z</time></trkpt><trkpt lat="38.46649733394253" lon="16.277072513591502"><ele>1019.3333333333334</ele><time>2026-04-06T10:01:27.001Z</time></trkpt><trkpt lat="38.46650006780008" lon="16.276877256748616"><ele>1019.6666666666667</ele><time>2026-04-06T10:01:28.001Z</time></trkpt><trkpt lat="38.466500271169146" lon="16.27661608328007"><ele>1020.0</ele><time>2026-04-06T10:01:29.001Z</time></trkpt><trkpt lat="38.46649700668853" lon="16.276371025692374"><ele>1019.3333333333333</ele><time>2026-04-06T10:01:30.001Z</time></trkpt><trkpt lat="38.46651285066348" lon="16.276151991458114"><ele>1018.6666666666666</ele><time>2026-04-06T10:01:31.001Z</time></trkpt><trkpt lat="38.466513102983455" lon="16.275951652608185"><ele>1018.0</ele><time>2026-04-06T10:01:32.001Z</time></trkpt><trkpt lat="38.46649755885133" lon="16.275754883742486"><ele>1016.5</ele><time>2026-04-06T10:01:33.001Z</time></trkpt><trkpt lat="38.46649826122501" lon="16.275561088305043"><ele>1015.0</ele><time>2026-04-06T10:01:34.001Z</time></trkpt><trkpt lat="38.46652722122658" lon="16.275402030087992"><ele>1013.5</ele><time>2026-04-06T10:01:35.001Z</time></trkpt><trkpt lat="38.46656099775987" lon="16.275252515896568"><ele>1012.0</ele><time>2026-04-06T10:01:36.001Z</time></trkpt><trkpt lat="38.46662274159829" lon="16.275099809514156"><ele>1012.0</ele><time>2026-04-06T10:01:37.001Z</time></trkpt><trkpt lat="38.46669682296619" lon="16.274944414808267"><ele>1012.0</ele><time>2026-04-06T10:01:38.001Z</time></trkpt><trkpt lat="38.466784601253885" lon="16.274762364055963"><ele>1012.0</ele><time>2026-04-06T10:01:39.001Z</time></trkpt><trkpt lat="38.466867603824326" lon="16.27459092378452"><ele>1010.8</ele><time>2026-04-06T10:01:40.001Z</time></trkpt><trkpt lat="38.46693915357285" lon="16.274435644414243"><ele>1009.6</ele><time>2026-04-06T10:01:41.001Z</time></trkpt><trkpt lat="38.466968855954924" lon="16.274294605445725"><ele>1008.3999999999999</ele><time>2026-04-06T10:01:42.001Z</time></trkpt><trkpt lat="38.466998421901714" lon="16.274195097916884"><ele>1007.1999999999999</ele><time>2026-04-06T10:01:43.001Z</time></trkpt><trkpt lat="38.46696767436562" lon="16.274094778562844"><ele>1006.0</ele><time>2026-04-06T10:01:44.001Z</time></trkpt><trkpt lat="38.46691891797631" lon="16.274006404882282"><ele>1007.5</ele><time>2026-04-06T10:01:45.001Z</time></trkpt><trkpt lat="38.466821982938264" lon="16.273918940469603"><ele>1009.0</ele><time>2026-04-06T10:01:46.001Z</time></trkpt><trkpt lat="38.466733422263836" lon="16.273807711625857"><ele>1010.5</ele><time>2026-04-06T10:01:47.001Z</time></trkpt><trkpt lat="38.46663515186317" lon="16.273709432328864"><ele>1012.0</ele><time>2026-04-06T10:01:48.001Z</time></trkpt><trkpt lat="38.466457267725275" lon="16.273664259276288"><ele>1012.0</ele><time>2026-04-06T10:01:49.001Z</time></trkpt><trkpt lat="38.466274043090465" lon="16.273651643447447"><ele>1012.0</ele><time>2026-04-06T10:01:50.001Z</time></trkpt><trkpt lat="38.466097579895" lon="16.273656328682502"><ele>1012.0</ele><time>2026-04-06T10:01:51.001Z</time></trkpt><trkpt lat="38.46593417460103" lon="16.273670171067177"><ele>1012.0</ele><time>2026-04-06T10:01:52.001Z</time></trkpt><trkpt lat="38.465810804258446" lon="16.273677714219954"><ele>1012.0</ele><time>2026-04-06T10:01:53.001Z</time></trkpt><trkpt lat="38.46564208873264" lon="16.27368628611721"><ele>1012.0</ele><time>2026-04-06T10:01:54.001Z</time></trkpt><trkpt lat="38.46551297543021" lon="16.273671198318343"><ele>1012.0</ele><time>2026-04-06T10:01:55.001Z</time></trkpt><trkpt lat="38.46538981284274" lon="16.27360100608386"><ele>1013.5</ele><time>2026-04-06T10:01:56.001Z</time></trkpt><trkpt lat="38.46529117286889" lon="16.273535709882356"><ele>1015.0</ele><time>2026-04-06T10:01:57.001Z</time></trkpt><trkpt lat="38.46515609976027" lon="16.273435571904994"><ele>1016.5</ele><time>2026-04-06T10:01:58.001Z</time></trkpt><trkpt lat="38.4650257586459" lon="16.273370016427137"><ele>1018.0</ele><time>2026-04-06T10:01:59.001Z</time></trkpt><trkpt lat="38.464910956728104" lon="16.273347595440946"><ele>1018.0</ele><time>2026-04-06T10:02:00.001Z</time></trkpt><trkpt lat="38.46480971763642" lon="16.273375814191414"><ele>1018.0</ele><time>2026-04-06T10:02:01.001Z</time></trkpt><trkpt lat="38.464726313022965" lon="16.273432655622706"><ele>1018.0</ele><time>2026-04-06T10:02:02.001Z</time></trkpt><trkpt lat="38.46468952528253" lon="16.27355717527416"><ele>1018.0</ele><time>2026-04-06T10:02:03.001Z</time></trkpt><trkpt lat="38.46467720675291" lon="16.273686979583793"><ele>1018.0</ele><time>2026-04-06T10:02:04Z</time></trkpt><trkpt lat="38.464693653395" lon="16.273831980651757"><ele>1018.3333333333333</ele><time>2026-04-06T10:02:05Z</time></trkpt><trkpt lat="38.4647393123125" lon="16.27398951672703"><ele>1018.6666666666667</ele><time>2026-04-06T10:02:06Z</time></trkpt><trkpt lat="38.46481042433848" lon="16.27416125345313"><ele>1019.0</ele><time>2026-04-06T10:02:07Z</time></trkpt><trkpt lat="38.464913069732106" lon="16.274328689494325"><ele>1019.0</ele><time>2026-04-06T10:02:08Z</time></trkpt><trkpt lat="38.46498741289407" lon="16.27451422906495"><ele>1019.0</ele><time>2026-04-06T10:02:09Z</time></trkpt><trkpt lat="38.46503908774864" lon="16.274685574438898"><ele>1019.0</ele><time>2026-04-06T10:02:10Z</time></trkpt><trkpt lat="38.46506487575753" lon="16.27488116134145"><ele>1019.75</ele><time>2026-04-06T10:02:11Z</time></trkpt><trkpt lat="38.46505179845338" lon="16.275072720619484"><ele>1020.5</ele><time>2026-04-06T10:02:12Z</time></trkpt><trkpt lat="38.46501574945945" lon="16.27524224706454"><ele>1021.25</ele><time>2026-04-06T10:02:13Z</time></trkpt><trkpt lat="38.46495379472256" lon="16.275404646237764"><ele>1022.0</ele><time>2026-04-06T10:02:14Z</time></trkpt><trkpt lat="38.46487954461989" lon="16.275551668690316"><ele>1022.5</ele><time>2026-04-06T10:02:15Z</time></trkpt><trkpt lat="38.46477868201857" lon="16.275701708600945"><ele>1023.0</ele><time>2026-04-06T10:02:16Z</time></trkpt><trkpt lat="38.46466706026264" lon="16.275821411701617"><ele>1023.5</ele><time>2026-04-06T10:02:17Z</time></trkpt><trkpt lat="38.464561397196185" lon="16.275889039892753"><ele>1024.0</ele><time>2026-04-06T10:02:18Z</time></trkpt><trkpt lat="38.46443922028726" lon="16.27593408292288"><ele>1024.0</ele><time>2026-04-06T10:02:19Z</time></trkpt><trkpt lat="38.46427970011281" lon="16.275942378336154"><ele>1024.0</ele><time>2026-04-06T10:02:20Z</time></trkpt><trkpt lat="38.464111473996205" lon="16.275918228958446"><ele>1024.0</ele><time>2026-04-06T10:02:21Z</time></trkpt><trkpt lat="38.46395500608279" lon="16.275878608964305"><ele>1024.0</ele><time>2026-04-06T10:02:22Z</time></trkpt><trkpt lat="38.463821726708446" lon="16.275805556448013"><ele>1024.0</ele><time>2026-04-06T10:02:23Z</time></trkpt><trkpt lat="38.46367116928663" lon="16.275692635619414"><ele>1024.0</ele><time>2026-04-06T10:02:24Z</time></trkpt><trkpt lat="38.46350751249792" lon="16.275561691962828"><ele>1025.6666666666665</ele><time>2026-04-06T10:02:25Z</time></trkpt><trkpt lat="38.46334439196627" lon="16.275465421341202"><ele>1027.3333333333333</ele><time>2026-04-06T10:02:26Z</time></trkpt><trkpt lat="38.46318009828042" lon="16.27535820223643"><ele>1029.0</ele><time>2026-04-06T10:02:27Z</time></trkpt><trkpt lat="38.462988236403625" lon="16.275285154311725"><ele>1030.3333333333333</ele><time>2026-04-06T10:02:28Z</time></trkpt><trkpt lat="38.462779149348506" lon="16.275210962012732"><ele>1031.6666666666665</ele><time>2026-04-06T10:02:29Z</time></trkpt><trkpt lat="38.462580726367605" lon="16.275154098039984"><ele>1033.0</ele><time>2026-04-06T10:02:30Z</time></trkpt><trkpt lat="38.46242200675716" lon="16.275067875798598"><ele>1033.0</ele><time>2026-04-06T10:02:31Z</time></trkpt><trkpt lat="38.46227416186202" lon="16.274982494275967"><ele>1033.0</ele><time>2026-04-06T10:02:32Z</time></trkpt><trkpt lat="38.462116816725015" lon="16.274863196557924"><ele>1033.0</ele><time>2026-04-06T10:02:33Z</time></trkpt><trkpt lat="38.46195169305541" lon="16.274733497141423"><ele>1035.0</ele><time>2026-04-06T10:02:34Z</time></trkpt><trkpt lat="38.46178353080621" lon="16.274629753011556"><ele>1037.0</ele><time>2026-04-06T10:02:35Z</time></trkpt><trkpt lat="38.46162696347249" lon="16.274524388391704"><ele>1039.0</ele><time>2026-04-06T10:02:36Z</time></trkpt><trkpt lat="38.46147592696687" lon="16.274465837412663"><ele>1039.0</ele><time>2026-04-06T10:02:37Z</time></trkpt><trkpt lat="38.46131134125" lon="16.274392687595295"><ele>1039.0</ele><time>2026-04-06T10:02:38Z</time></trkpt><trkpt lat="38.46113082819274" lon="16.27435172774359"><ele>1039.0</ele><time>2026-04-06T10:02:39Z</time></trkpt><trkpt lat="38.46093519794794" lon="16.274335135219285"><ele>1037.3333333333333</ele><time>2026-04-06T10:02:40Z</time></trkpt><trkpt lat="38.460755568500815" lon="16.274304728102326"><ele>1035.6666666666667</ele><time>2026-04-06T10:02:41Z</time></trkpt><trkpt lat="38.460606262148325" lon="16.274286315886417"><ele>1034.0</ele><time>2026-04-06T10:02:42.001Z</time></trkpt><trkpt lat="38.46047545799983" lon="16.274254834581996"><ele>1032.4</ele><time>2026-04-06T10:02:43.001Z</time></trkpt><trkpt lat="38.46036813858654" lon="16.274178959501853"><ele>1030.8000000000002</ele><time>2026-04-06T10:02:44.001Z</time></trkpt><trkpt lat="38.46028567905788" lon="16.274088680389205"><ele>1029.1999999999998</ele><time>2026-04-06T10:02:45.001Z</time></trkpt><trkpt lat="38.46024867567162" lon="16.27397328876958"><ele>1027.6</ele><time>2026-04-06T10:02:46.001Z</time></trkpt><trkpt lat="38.460228824477866" lon="16.273851213659203"><ele>1026.0</ele><time>2026-04-06T10:02:47.001Z</time></trkpt><trkpt lat="38.46025181194941" lon="16.273702705290706"><ele>1025.25</ele><time>2026-04-06T10:02:48.001Z</time></trkpt><trkpt lat="38.46031145781352" lon="16.27356868218825"><ele>1024.5</ele><time>2026-04-06T10:02:49.001Z</time></trkpt><trkpt lat="38.460399932209796" lon="16.273413016891677"><ele>1023.75</ele><time>2026-04-06T10:02:50.001Z</time></trkpt><trkpt lat="38.46049374746815" lon="16.273252325487217"><ele>1023.0</ele><time>2026-04-06T10:02:51.001Z</time></trkpt><trkpt lat="38.46058360338474" lon="16.27310250135871"><ele>1024.75</ele><time>2026-04-06T10:02:52.001Z</time></trkpt><trkpt lat="38.46065369298822" lon="16.272951870202526"><ele>1026.5</ele><time>2026-04-06T10:02:53.001Z</time></trkpt><trkpt lat="38.460679569975504" lon="16.27278818393881"><ele>1028.25</ele><time>2026-04-06T10:02:54.001Z</time></trkpt><trkpt lat="38.46067089019218" lon="16.272643116209927"><ele>1030.0</ele><time>2026-04-06T10:02:55.001Z</time></trkpt><trkpt lat="38.46064925530593" lon="16.272512668296912"><ele>1030.0</ele><time>2026-04-06T10:02:56.001Z</time></trkpt><trkpt lat="38.46058195650526" lon="16.272372513467495"><ele>1030.0</ele><time>2026-04-06T10:02:57.001Z</time></trkpt><trkpt lat="38.460491700611236" lon="16.272214466053835"><ele>1030.0</ele><time>2026-04-06T10:02:58.001Z</time></trkpt><trkpt lat="38.460402063240224" lon="16.27206630939547"><ele>1030.0</ele><time>2026-04-06T10:02:59.001Z</time></trkpt><trkpt lat="38.46030888428658" lon="16.27193519844958"><ele>1031.3333333333333</ele><time>2026-04-06T10:03:00.001Z</time></trkpt><trkpt lat="38.460174246787254" lon="16.27182517143944"><ele>1032.6666666666667</ele><time>2026-04-06T10:03:01.001Z</time></trkpt><trkpt lat="38.4600214635445" lon="16.27171680559381"><ele>1034.0</ele><time>2026-04-06T10:03:02.001Z</time></trkpt><trkpt lat="38.4598629275728" lon="16.271602612145283"><ele>1034.0</ele><time>2026-04-06T10:03:03.001Z</time></trkpt><trkpt lat="38.459694714890276" lon="16.2714644659566"><ele>1034.0</ele><time>2026-04-06T10:03:04.001Z</time></trkpt><trkpt lat="38.459535666989254" lon="16.27132058447526"><ele>1034.0</ele><time>2026-04-06T10:03:05.001Z</time></trkpt><trkpt lat="38.45939410011286" lon="16.27118314343941"><ele>1035.3333333333335</ele><time>2026-04-06T10:03:06.001Z</time></trkpt><trkpt lat="38.4592402401245" lon="16.271057168727932"><ele>1036.6666666666667</ele><time>2026-04-06T10:03:07.001Z</time></trkpt><trkpt lat="38.459085082210954" lon="16.27094557521864"><ele>1038.0</ele><time>2026-04-06T10:03:08.001Z</time></trkpt><trkpt lat="38.458909422858284" lon="16.27085381244245"><ele>1036.3333333333333</ele><time>2026-04-06T10:03:09.001Z</time></trkpt><trkpt lat="38.45871844299828" lon="16.270785870082335"><ele>1034.6666666666665</ele><time>2026-04-06T10:03:10.001Z</time></trkpt><trkpt lat="38.458512960039194" lon="16.270699431068202"><ele>1033.0</ele><time>2026-04-06T10:03:11.001Z</time></trkpt><trkpt lat="38.4583166401617" lon="16.270609415787046"><ele>1036.6666666666665</ele><time>2026-04-06T10:03:12.001Z</time></trkpt><trkpt lat="38.45811601678445" lon="16.27050340820817"><ele>1040.3333333333333</ele><time>2026-04-06T10:03:13.001Z</time></trkpt><trkpt lat="38.457910377504206" lon="16.270413174981876"><ele>1044.0</ele><time>2026-04-06T10:03:14.001Z</time></trkpt><trkpt lat="38.45772686053185" lon="16.27033264889973"><ele>1044.3333333333333</ele><time>2026-04-06T10:03:15.001Z</time></trkpt><trkpt lat="38.4575456689302" lon="16.270251242713663"><ele>1044.6666666666665</ele><time>2026-04-06T10:03:16.001Z</time></trkpt><trkpt lat="38.45737277909374" lon="16.27016953572624"><ele>1045.0</ele><time>2026-04-06T10:03:17.001Z</time></trkpt><trkpt lat="38.45720893224213" lon="16.270075476111536"><ele>1044.3333333333333</ele><time>2026-04-06T10:03:18.001Z</time></trkpt><trkpt lat="38.457045778190086" lon="16.26995108418468"><ele>1043.6666666666667</ele><time>2026-04-06T10:03:19.001Z</time></trkpt><trkpt lat="38.45688227784926" lon="16.2698160621155"><ele>1043.0</ele><time>2026-04-06T10:03:20.001Z</time></trkpt><trkpt lat="38.45671665290797" lon="16.269676958186366"><ele>1043.3333333333335</ele><time>2026-04-06T10:03:21.001Z</time></trkpt><trkpt lat="38.456557176993535" lon="16.26954410147526"><ele>1043.6666666666667</ele><time>2026-04-06T10:03:22.001Z</time></trkpt><trkpt lat="38.456412495547994" lon="16.269424960235753"><ele>1044.0</ele><time>2026-04-06T10:03:23.001Z</time></trkpt><trkpt lat="38.45627532401794" lon="16.26931124083897"><ele>1044.0</ele><time>2026-04-06T10:03:24.001Z</time></trkpt><trkpt lat="38.45613433485576" lon="16.26923517746084"><ele>1044.0</ele><time>2026-04-06T10:03:25.001Z</time></trkpt><trkpt lat="38.45601535377779" lon="16.269158059137048"><ele>1044.0</ele><time>2026-04-06T10:03:26.001Z</time></trkpt><trkpt lat="38.45588607459594" lon="16.269137038277144"><ele>1044.0</ele><time>2026-04-06T10:03:27.001Z</time></trkpt><trkpt lat="38.45575737871568" lon="16.269134059449502"><ele>1044.0</ele><time>2026-04-06T10:03:28.001Z</time></trkpt><trkpt lat="38.45562430500456" lon="16.269183802042633"><ele>1044.0</ele><time>2026-04-06T10:03:29.001Z</time></trkpt><trkpt lat="38.4554902932392" lon="16.269230271974077"><ele>1044.0</ele><time>2026-04-06T10:03:30.001Z</time></trkpt><trkpt lat="38.45536157587615" lon="16.269298160721775"><ele>1044.0</ele><time>2026-04-06T10:03:31.001Z</time></trkpt><trkpt lat="38.455252804222965" lon="16.269356928981036"><ele>1045.0</ele><time>2026-04-06T10:03:32.001Z</time></trkpt><trkpt lat="38.45513880171158" lon="16.26939220363702"><ele>1046.0</ele><time>2026-04-06T10:03:33.001Z</time></trkpt><trkpt lat="38.455013447586374" lon="16.269444204824968"><ele>1047.0</ele><time>2026-04-06T10:03:34.001Z</time></trkpt><trkpt lat="38.45488996887066" lon="16.26949469913922"><ele>1048.0</ele><time>2026-04-06T10:03:35.001Z</time></trkpt><trkpt lat="38.45476722126776" lon="16.269564995932978"><ele>1048.0</ele><time>2026-04-06T10:03:36.001Z</time></trkpt><trkpt lat="38.4546367360606" lon="16.269581899341603"><ele>1048.0</ele><time>2026-04-06T10:03:37.001Z</time></trkpt><trkpt lat="38.45448881359628" lon="16.269589546416256"><ele>1048.0</ele><time>2026-04-06T10:03:38.001Z</time></trkpt><trkpt lat="38.45433898905885" lon="16.269583318949536"><ele>1048.0</ele><time>2026-04-06T10:03:39.001Z</time></trkpt><trkpt lat="38.45418606080131" lon="16.26956789334146"><ele>1047.25</ele><time>2026-04-06T10:03:40.001Z</time></trkpt><trkpt lat="38.45403638952179" lon="16.26956008385798"><ele>1046.5</ele><time>2026-04-06T10:03:41.001Z</time></trkpt><trkpt lat="38.453885838836435" lon="16.269571236980156"><ele>1045.75</ele><time>2026-04-06T10:03:42.001Z</time></trkpt><trkpt lat="38.45374163689867" lon="16.26957300184655"><ele>1045.0</ele><time>2026-04-06T10:03:43.001Z</time></trkpt><trkpt lat="38.45358284523246" lon="16.26955615313613"><ele>1044.6666666666665</ele><time>2026-04-06T10:03:44.001Z</time></trkpt><trkpt lat="38.45342520018935" lon="16.269508610478503"><ele>1044.3333333333333</ele><time>2026-04-06T10:03:45.001Z</time></trkpt><trkpt lat="38.45327837039005" lon="16.26943350313599"><ele>1044.0</ele><time>2026-04-06T10:03:46.001Z</time></trkpt><trkpt lat="38.4531172234207" lon="16.269313551513005"><ele>1045.3333333333333</ele><time>2026-04-06T10:03:47.001Z</time></trkpt><trkpt lat="38.452925590010175" lon="16.269195651814258"><ele>1046.6666666666665</ele><time>2026-04-06T10:03:48.001Z</time></trkpt><trkpt lat="38.45273029497301" lon="16.269074579039806"><ele>1048.0</ele><time>2026-04-06T10:03:49.001Z</time></trkpt><trkpt lat="38.452518389491004" lon="16.26893768626557"><ele>1048.0</ele><time>2026-04-06T10:03:50.001Z</time></trkpt><trkpt lat="38.45233174726556" lon="16.268792555260106"><ele>1048.0</ele><time>2026-04-06T10:03:51.001Z</time></trkpt><trkpt lat="38.452170716690354" lon="16.268672221342676"><ele>1048.0</ele><time>2026-04-06T10:03:52.001Z</time></trkpt><trkpt lat="38.45202537214267" lon="16.26854344346612"><ele>1048.8</ele><time>2026-04-06T10:03:53.001Z</time></trkpt><trkpt lat="38.4519094442524" lon="16.26850751225332"><ele>1049.6</ele><time>2026-04-06T10:03:54.001Z</time></trkpt><trkpt lat="38.45180722837713" lon="16.26843496843458"><ele>1050.4</ele><time>2026-04-06T10:03:55.001Z</time></trkpt><trkpt lat="38.45172860932104" lon="16.26834260005858"><ele>1051.2</ele><time>2026-04-06T10:03:56.001Z</time></trkpt><trkpt lat="38.45167260389264" lon="16.268241293326692"><ele>1052.0</ele><time>2026-04-06T10:03:57.001Z</time></trkpt><trkpt lat="38.451668526820015" lon="16.268127395937082"><ele>1052.0</ele><time>2026-04-06T10:03:58.001Z</time></trkpt><trkpt lat="38.451643245535784" lon="16.26801849122742"><ele>1052.0</ele><time>2026-04-06T10:03:59.001Z</time></trkpt><trkpt lat="38.45164899568338" lon="16.267893534982974"><ele>1052.0</ele><time>2026-04-06T10:04:00.001Z</time></trkpt><trkpt lat="38.45164117853501" lon="16.26777010647829"><ele>1052.0</ele><time>2026-04-06T10:04:01.001Z</time></trkpt><trkpt lat="38.45162128979575" lon="16.26765932527133"><ele>1052.0</ele><time>2026-04-06T10:04:02.001Z</time></trkpt><trkpt lat="38.45159449871548" lon="16.26755231695535"><ele>1052.0</ele><time>2026-04-06T10:04:03.001Z</time></trkpt><trkpt lat="38.4515551786777" lon="16.267441172896874"><ele>1052.0</ele><time>2026-04-06T10:04:04.001Z</time></trkpt><trkpt lat="38.45145807240127" lon="16.26734361741666"><ele>1052.0</ele><time>2026-04-06T10:04:05.001Z</time></trkpt><trkpt lat="38.451343943036214" lon="16.26727697347553"><ele>1052.0</ele><time>2026-04-06T10:04:06.001Z</time></trkpt><trkpt lat="38.45121640900015" lon="16.267221846129807"><ele>1052.6</ele><time>2026-04-06T10:04:07.001Z</time></trkpt><trkpt lat="38.45111622048844" lon="16.267175695245765"><ele>1053.2</ele><time>2026-04-06T10:04:08.001Z</time></trkpt><trkpt lat="38.45102658991421" lon="16.26713026362757"><ele>1053.8</ele><time>2026-04-06T10:04:09.001Z</time></trkpt><trkpt lat="38.45094502563209" lon="16.26708225171609"><ele>1054.4</ele><time>2026-04-06T10:04:10.001Z</time></trkpt><trkpt lat="38.45083655534225" lon="16.26706664865584"><ele>1055.0</ele><time>2026-04-06T10:04:11.001Z</time></trkpt><trkpt lat="38.45071946702951" lon="16.267090384905607"><ele>1055.0</ele><time>2026-04-06T10:04:12.001Z</time></trkpt><trkpt lat="38.45060748938886" lon="16.267149327110676"><ele>1055.0</ele><time>2026-04-06T10:04:13.001Z</time></trkpt><trkpt lat="38.45051544691787" lon="16.26722422121151"><ele>1055.0</ele><time>2026-04-06T10:04:14.001Z</time></trkpt><trkpt lat="38.45044961156362" lon="16.267327995784857"><ele>1055.0</ele><time>2026-04-06T10:04:15.001Z</time></trkpt><trkpt lat="38.45044103272104" lon="16.26747686388389"><ele>1054.8</ele><time>2026-04-06T10:04:16.001Z</time></trkpt><trkpt lat="38.45047691966536" lon="16.267604293439014"><ele>1054.6</ele><time>2026-04-06T10:04:17.001Z</time></trkpt><trkpt lat="38.45049867548188" lon="16.267733149248066"><ele>1054.4</ele><time>2026-04-06T10:04:18.001Z</time></trkpt><trkpt lat="38.450506101270484" lon="16.26787120327143"><ele>1054.2</ele><time>2026-04-06T10:04:19.001Z</time></trkpt><trkpt lat="38.450503328928534" lon="16.26803424755792"><ele>1054.0</ele><time>2026-04-06T10:04:20.001Z</time></trkpt><trkpt lat="38.45047684770199" lon="16.26818628087005"><ele>1057.5</ele><time>2026-04-06T10:04:21.001Z</time></trkpt><trkpt lat="38.45045014063552" lon="16.268337895461748"><ele>1061.0</ele><time>2026-04-06T10:04:22.001Z</time></trkpt><trkpt lat="38.45041010181168" lon="16.268520609676873"><ele>1064.5</ele><time>2026-04-06T10:04:23.001Z</time></trkpt><trkpt lat="38.45039238759787" lon="16.26865079674369"><ele>1068.0</ele><time>2026-04-06T10:04:24.001Z</time></trkpt><trkpt lat="38.45033672433075" lon="16.26881539310439"><ele>1065.0</ele><time>2026-04-06T10:04:25.001Z</time></trkpt><trkpt lat="38.450265103868404" lon="16.26896945087553"><ele>1062.0</ele><time>2026-04-06T10:04:26.001Z</time></trkpt><trkpt lat="38.450177834479106" lon="16.269046703680832"><ele>1059.0</ele><time>2026-04-06T10:04:27.001Z</time></trkpt><trkpt lat="38.4500830352661" lon="16.269089663562823"><ele>1056.0</ele><time>2026-04-06T10:04:28.001Z</time></trkpt><trkpt lat="38.44993187022505" lon="16.26900232022452"><ele>1056.0</ele><time>2026-04-06T10:04:29.001Z</time></trkpt><trkpt lat="38.44978220633398" lon="16.268945158858784"><ele>1056.0</ele><time>2026-04-06T10:04:30.001Z</time></trkpt><trkpt lat="38.44960309265966" lon="16.26888535148926"><ele>1056.0</ele><time>2026-04-06T10:04:31.001Z</time></trkpt><trkpt lat="38.44943899136835" lon="16.268841439939965"><ele>1060.0</ele><time>2026-04-06T10:04:32.001Z</time></trkpt><trkpt lat="38.449287112574346" lon="16.26877545459403"><ele>1064.0</ele><time>2026-04-06T10:04:33.001Z</time></trkpt><trkpt lat="38.449131230078756" lon="16.268754344926506"><ele>1068.0</ele><time>2026-04-06T10:04:34.001Z</time></trkpt><trkpt lat="38.44900226185624" lon="16.268707382106328"><ele>1068.0</ele><time>2026-04-06T10:04:35.001Z</time></trkpt><trkpt lat="38.448895842668286" lon="16.268695248622773"><ele>1068.0</ele><time>2026-04-06T10:04:36.001Z</time></trkpt><trkpt lat="38.4488199999019" lon="16.268739926921295"><ele>1068.0</ele><time>2026-04-06T10:04:37.001Z</time></trkpt><trkpt lat="38.44875574162486" lon="16.268819149046546"><ele>1068.0</ele><time>2026-04-06T10:04:38.001Z</time></trkpt><trkpt lat="38.4487138892421" lon="16.268948145454928"><ele>1068.0</ele><time>2026-04-06T10:04:39.001Z</time></trkpt><trkpt lat="38.44868079134736" lon="16.26910994289468"><ele>1070.3333333333333</ele><time>2026-04-06T10:04:40.001Z</time></trkpt><trkpt lat="38.4486646626183" lon="16.269302068523338"><ele>1072.6666666666665</ele><time>2026-04-06T10:04:41.001Z</time></trkpt><trkpt lat="38.448650801271015" lon="16.269510668224203"><ele>1075.0</ele><time>2026-04-06T10:04:42.001Z</time></trkpt><trkpt lat="38.448647963545575" lon="16.269705922440465"><ele>1073.0</ele><time>2026-04-06T10:04:43.001Z</time></trkpt><trkpt lat="38.448638568604146" lon="16.269857997819745"><ele>1071.0</ele><time>2026-04-06T10:04:44.001Z</time></trkpt><trkpt lat="38.44859017861678" lon="16.269963770768676"><ele>1069.0</ele><time>2026-04-06T10:04:45.001Z</time></trkpt><trkpt lat="38.44851710479357" lon="16.27001068363524"><ele>1067.0</ele><time>2026-04-06T10:04:46.001Z</time></trkpt><trkpt lat="38.448408695460884" lon="16.270078850570115"><ele>1065.0</ele><time>2026-04-06T10:04:47.001Z</time></trkpt><trkpt lat="38.44832044690508" lon="16.270064103175358"><ele>1065.0</ele><time>2026-04-06T10:04:48.001Z</time></trkpt><trkpt lat="38.44824956595183" lon="16.269994322350325"><ele>1065.0</ele><time>2026-04-06T10:04:49.001Z</time></trkpt><trkpt lat="38.448164192343135" lon="16.269866157139834"><ele>1065.0</ele><time>2026-04-06T10:04:50.001Z</time></trkpt><trkpt lat="38.44810765814973" lon="16.269716569832237"><ele>1065.0</ele><time>2026-04-06T10:04:51.001Z</time></trkpt><trkpt lat="38.44803860520866" lon="16.269526219810075"><ele>1067.5</ele><time>2026-04-06T10:04:52.001Z</time></trkpt><trkpt lat="38.44799773378135" lon="16.269347368162663"><ele>1070.0</ele><time>2026-04-06T10:04:53.001Z</time></trkpt><trkpt lat="38.447968394454755" lon="16.269183559157337"><ele>1072.5</ele><time>2026-04-06T10:04:54.001Z</time></trkpt><trkpt lat="38.44797202308585" lon="16.2690092674939"><ele>1075.0</ele><time>2026-04-06T10:04:55.001Z</time></trkpt><trkpt lat="38.44799097352369" lon="16.268820244701217"><ele>1077.0</ele><time>2026-04-06T10:04:56.001Z</time></trkpt><trkpt lat="38.448020858533205" lon="16.268621928271852"><ele>1079.0</ele><time>2026-04-06T10:04:57.001Z</time></trkpt><trkpt lat="38.44805283190403" lon="16.268459761627856"><ele>1081.0</ele><time>2026-04-06T10:04:58.001Z</time></trkpt><trkpt lat="38.44806098225414" lon="16.268342361400354"><ele>1083.0</ele><time>2026-04-06T10:04:59.001Z</time></trkpt><trkpt lat="38.448027247435846" lon="16.268248117415762"><ele>1083.0</ele><time>2026-04-06T10:05:00.001Z</time></trkpt><trkpt lat="38.44797180859773" lon="16.268165322703506"><ele>1083.0</ele><time>2026-04-06T10:05:01.001Z</time></trkpt><trkpt lat="38.44788534314856" lon="16.268096753396346"><ele>1083.0</ele><time>2026-04-06T10:05:02.001Z</time></trkpt><trkpt lat="38.44777723835864" lon="16.268095009399577"><ele>1083.0</ele><time>2026-04-06T10:05:03.001Z</time></trkpt><trkpt lat="38.44768496603993" lon="16.26814252674473"><ele>1083.0</ele><time>2026-04-06T10:05:04.001Z</time></trkpt><trkpt lat="38.44761629626895" lon="16.268274419098248"><ele>1084.6</ele><time>2026-04-06T10:05:05.001Z</time></trkpt><trkpt lat="38.44757623857609" lon="16.26840147196789"><ele>1086.1999999999998</ele><time>2026-04-06T10:05:06.001Z</time></trkpt><trkpt lat="38.44753500426596" lon="16.268550214715763"><ele>1087.8</ele><time>2026-04-06T10:05:07.001Z</time></trkpt><trkpt lat="38.44749055217722" lon="16.268692630212094"><ele>1089.3999999999999</ele><time>2026-04-06T10:05:08.001Z</time></trkpt><trkpt lat="38.44743992802521" lon="16.268785354959416"><ele>1091.0</ele><time>2026-04-06T10:05:09.001Z</time></trkpt><trkpt lat="38.447381966749944" lon="16.26884546780727"><ele>1091.0</ele><time>2026-04-06T10:05:10.001Z</time></trkpt><trkpt lat="38.447313677578464" lon="16.268862696926792"><ele>1091.0</ele><time>2026-04-06T10:05:12.001Z</time></trkpt><trkpt lat="38.44723052408237" lon="16.26886064037342"><ele>1091.0</ele><time>2026-04-06T10:05:13.001Z</time></trkpt><trkpt lat="38.44713894430035" lon="16.268798772243933"><ele>1091.0</ele><time>2026-04-06T10:05:14.001Z</time></trkpt><trkpt lat="38.44705884249846" lon="16.26871423715121"><ele>1091.0</ele><time>2026-04-06T10:05:15.001Z</time></trkpt><trkpt lat="38.44694306875717" lon="16.268663211696886"><ele>1092.75</ele><time>2026-04-06T10:05:16.001Z</time></trkpt><trkpt lat="38.44681550620355" lon="16.268617017896446"><ele>1094.5</ele><time>2026-04-06T10:05:17.001Z</time></trkpt><trkpt lat="38.446671941394634" lon="16.268625632638432"><ele>1096.25</ele><time>2026-04-06T10:05:18.001Z</time></trkpt><trkpt lat="38.446569056569516" lon="16.268647201520366"><ele>1098.0</ele><time>2026-04-06T10:05:19.001Z</time></trkpt><trkpt lat="38.44644975409842" lon="16.26871547280027"><ele>1098.0</ele><time>2026-04-06T10:05:20.001Z</time></trkpt><trkpt lat="38.44636562241722" lon="16.268837098772366"><ele>1098.0</ele><time>2026-04-06T10:05:21.001Z</time></trkpt><trkpt lat="38.44634286815427" lon="16.269022578620323"><ele>1098.0</ele><time>2026-04-06T10:05:22.001Z</time></trkpt><trkpt lat="38.44635454472763" lon="16.269182014515735"><ele>1098.0</ele><time>2026-04-06T10:05:23.001Z</time></trkpt><trkpt lat="38.44637024861465" lon="16.269358239418057"><ele>1096.0</ele><time>2026-04-06T10:05:24.001Z</time></trkpt><trkpt lat="38.44638809793421" lon="16.269512661141096"><ele>1094.0</ele><time>2026-04-06T10:05:25.001Z</time></trkpt><trkpt lat="38.44644131749848" lon="16.269657703412015"><ele>1092.0</ele><time>2026-04-06T10:05:26.001Z</time></trkpt><trkpt lat="38.44650355370632" lon="16.269783468772687"><ele>1090.0</ele><time>2026-04-06T10:05:27.001Z</time></trkpt><trkpt lat="38.44652299011453" lon="16.269892432447367"><ele>1089.4</ele><time>2026-04-06T10:05:28.001Z</time></trkpt><trkpt lat="38.44649634492505" lon="16.270040070551534"><ele>1088.8</ele><time>2026-04-06T10:05:29.001Z</time></trkpt><trkpt lat="38.44645010560152" lon="16.270174180489914"><ele>1088.2</ele><time>2026-04-06T10:05:30.001Z</time></trkpt><trkpt lat="38.446388706857675" lon="16.270271996410248"><ele>1087.6</ele><time>2026-04-06T10:05:31.001Z</time></trkpt><trkpt lat="38.446301358505174" lon="16.27028666759055"><ele>1087.0</ele><time>2026-04-06T10:05:32.001Z</time></trkpt><trkpt lat="38.44620968246784" lon="16.27036251226367"><ele>1091.0</ele><time>2026-04-06T10:05:33.001Z</time></trkpt><trkpt lat="38.44606789642766" lon="16.270469307375873"><ele>1095.0</ele><time>2026-04-06T10:05:34.001Z</time></trkpt><trkpt lat="38.445951280888444" lon="16.27061107327434"><ele>1099.0</ele><time>2026-04-06T10:05:35.001Z</time></trkpt><trkpt lat="38.445862732249985" lon="16.270750164698242"><ele>1099.0</ele><time>2026-04-06T10:05:36.001Z</time></trkpt><trkpt lat="38.44574953217928" lon="16.270865711602614"><ele>1099.0</ele><time>2026-04-06T10:05:37.001Z</time></trkpt><trkpt lat="38.44563780848902" lon="16.27090236920445"><ele>1099.0</ele><time>2026-04-06T10:05:38.001Z</time></trkpt><trkpt lat="38.445544423771125" lon="16.270908228902353"><ele>1099.0</ele><time>2026-04-06T10:05:39.001Z</time></trkpt><trkpt lat="38.44543357883727" lon="16.270863951660164"><ele>1099.6000000000001</ele><time>2026-04-06T10:05:41.001Z</time></trkpt><trkpt lat="38.445362311533934" lon="16.270811020371408"><ele>1100.2</ele><time>2026-04-06T10:05:42.001Z</time></trkpt><trkpt lat="38.44529630836285" lon="16.27075769790005"><ele>1100.8000000000002</ele><time>2026-04-06T10:05:43.001Z</time></trkpt><trkpt lat="38.44522186098202" lon="16.270697638187645"><ele>1101.4</ele><time>2026-04-06T10:05:44.001Z</time></trkpt><trkpt lat="38.44513473059894" lon="16.270607586963322"><ele>1102.0</ele><time>2026-04-06T10:05:45.001Z</time></trkpt><trkpt lat="38.44504628197003" lon="16.270508818600433"><ele>1103.75</ele><time>2026-04-06T10:05:46.001Z</time></trkpt><trkpt lat="38.44496185690855" lon="16.27041070442454"><ele>1105.5</ele><time>2026-04-06T10:05:47.001Z</time></trkpt><trkpt lat="38.444875164760035" lon="16.270315406601622"><ele>1107.25</ele><time>2026-04-06T10:05:48.001Z</time></trkpt><trkpt lat="38.44478551908235" lon="16.270244430630857"><ele>1109.0</ele><time>2026-04-06T10:05:49.001Z</time></trkpt><trkpt lat="38.44466668472443" lon="16.270231784135788"><ele>1111.25</ele><time>2026-04-06T10:05:50.001Z</time></trkpt><trkpt lat="38.444544008221264" lon="16.270212845324746"><ele>1113.5</ele><time>2026-04-06T10:05:51.001Z</time></trkpt><trkpt lat="38.44443338522553" lon="16.270212026250864"><ele>1115.75</ele><time>2026-04-06T10:05:52.001Z</time></trkpt><trkpt lat="38.44433500651916" lon="16.27023467505488"><ele>1118.0</ele><time>2026-04-06T10:05:53.001Z</time></trkpt><trkpt lat="38.44424925925674" lon="16.27035655254475"><ele>1118.0</ele><time>2026-04-06T10:05:54.001Z</time></trkpt><trkpt lat="38.44419676067367" lon="16.270481698059594"><ele>1118.0</ele><time>2026-04-06T10:05:55.001Z</time></trkpt><trkpt lat="38.44417473487134" lon="16.27064141533458"><ele>1118.0</ele><time>2026-04-06T10:05:56.001Z</time></trkpt><trkpt lat="38.44416887644905" lon="16.270830033157335"><ele>1118.0</ele><time>2026-04-06T10:05:57.001Z</time></trkpt><trkpt lat="38.44414970349239" lon="16.271063305212188"><ele>1115.6666666666667</ele><time>2026-04-06T10:05:58.001Z</time></trkpt><trkpt lat="38.44413120133332" lon="16.27130085293718"><ele>1113.3333333333333</ele><time>2026-04-06T10:05:59.001Z</time></trkpt><trkpt lat="38.44411601235609" lon="16.271514781948902"><ele>1111.0</ele><time>2026-04-06T10:06:00.001Z</time></trkpt><trkpt lat="38.444093514872065" lon="16.27171387668221"><ele>1110.8</ele><time>2026-04-06T10:06:01.001Z</time></trkpt><trkpt lat="38.44404355496687" lon="16.27187253359441"><ele>1110.6</ele><time>2026-04-06T10:06:02.001Z</time></trkpt><trkpt lat="38.44401204963381" lon="16.271997509159938"><ele>1110.4</ele><time>2026-04-06T10:06:03.001Z</time></trkpt><trkpt lat="38.443955176808046" lon="16.27211312186494"><ele>1110.2</ele><time>2026-04-06T10:06:04.001Z</time></trkpt><trkpt lat="38.443881571960205" lon="16.272195789358634"><ele>1110.0</ele><time>2026-04-06T10:06:05.001Z</time></trkpt><trkpt lat="38.44378966276453" lon="16.272257614084424"><ele>1110.0</ele><time>2026-04-06T10:06:06.001Z</time></trkpt><trkpt lat="38.44371492012444" lon="16.272270876097657"><ele>1110.0</ele><time>2026-04-06T10:06:07.001Z</time></trkpt><trkpt lat="38.44362827527479" lon="16.272306311791496"><ele>1110.0</ele><time>2026-04-06T10:06:09.001Z</time></trkpt><trkpt lat="38.4436563581971" lon="16.272197305221017"><ele>1110.0</ele><time>2026-04-06T10:06:12.001Z</time></trkpt><trkpt lat="38.443669019261" lon="16.272057073685147"><ele>1110.0</ele><time>2026-04-06T10:06:14.001Z</time></trkpt><trkpt lat="38.44367581199728" lon="16.271946201831703"><ele>1110.0</ele><time>2026-04-06T10:06:15.001Z</time></trkpt><trkpt lat="38.44370460028456" lon="16.27183076725229"><ele>1110.0</ele><time>2026-04-06T10:06:16.001Z</time></trkpt><trkpt lat="38.44374051032457" lon="16.27170214052219"><ele>1110.0</ele><time>2026-04-06T10:06:17.001Z</time></trkpt><trkpt lat="38.44377092033549" lon="16.2715651541503"><ele>1110.0</ele><time>2026-04-06T10:06:18.001Z</time></trkpt><trkpt lat="38.443790439143314" lon="16.271426116817832"><ele>1110.0</ele><time>2026-04-06T10:06:19.001Z</time></trkpt><trkpt lat="38.44381026458223" lon="16.27130125935868"><ele>1110.25</ele><time>2026-04-06T10:06:20.001Z</time></trkpt><trkpt lat="38.443819608037806" lon="16.271188423527644"><ele>1110.5</ele><time>2026-04-06T10:06:21.001Z</time></trkpt><trkpt lat="38.44384169092717" lon="16.271070372213444"><ele>1110.75</ele><time>2026-04-06T10:06:22.001Z</time></trkpt><trkpt lat="38.443887299556266" lon="16.270921483792822"><ele>1111.0</ele><time>2026-04-06T10:06:23.001Z</time></trkpt><trkpt lat="38.44392871305459" lon="16.27072381192888"><ele>1113.3333333333333</ele><time>2026-04-06T10:06:24.001Z</time></trkpt><trkpt lat="38.444013443970036" lon="16.2704959787352"><ele>1115.6666666666667</ele><time>2026-04-06T10:06:25.001Z</time></trkpt><trkpt lat="38.444024383267674" lon="16.27026011456335"><ele>1118.0</ele><time>2026-04-06T10:06:26.001Z</time></trkpt><trkpt lat="38.44407102002648" lon="16.2700750116772"><ele>1118.0</ele><time>2026-04-06T10:06:27.001Z</time></trkpt><trkpt lat="38.44410415106215" lon="16.269887265354093"><ele>1118.0</ele><time>2026-04-06T10:06:28.001Z</time></trkpt><trkpt lat="38.444135330996204" lon="16.26970754981834"><ele>1118.0</ele><time>2026-04-06T10:06:29.001Z</time></trkpt><trkpt lat="38.44417448348219" lon="16.269541275691807"><ele>1118.0</ele><time>2026-04-06T10:06:30.001Z</time></trkpt><trkpt lat="38.44421485377768" lon="16.269402351145626"><ele>1120.5</ele><time>2026-04-06T10:06:31.001Z</time></trkpt><trkpt lat="38.44429906063019" lon="16.269277385319384"><ele>1123.0</ele><time>2026-04-06T10:06:32.001Z</time></trkpt><trkpt lat="38.444385263167796" lon="16.269113334672568"><ele>1125.5</ele><time>2026-04-06T10:06:33.001Z</time></trkpt><trkpt lat="38.444498237192214" lon="16.268979659509988"><ele>1128.0</ele><time>2026-04-06T10:06:34.001Z</time></trkpt><trkpt lat="38.44458255690439" lon="16.26881601991706"><ele>1124.6666666666667</ele><time>2026-04-06T10:06:35.001Z</time></trkpt><trkpt lat="38.44463752269515" lon="16.268621101306653"><ele>1121.3333333333335</ele><time>2026-04-06T10:06:36.001Z</time></trkpt><trkpt lat="38.444652115299206" lon="16.26841579025314"><ele>1118.0</ele><time>2026-04-06T10:06:37.001Z</time></trkpt><trkpt lat="38.44464367681478" lon="16.268192025849363"><ele>1119.0</ele><time>2026-04-06T10:06:38.001Z</time></trkpt><trkpt lat="38.44461569673932" lon="16.26799134435821"><ele>1120.0</ele><time>2026-04-06T10:06:39.001Z</time></trkpt><trkpt lat="38.44462745573133" lon="16.267767196107116"><ele>1121.0</ele><time>2026-04-06T10:06:40.001Z</time></trkpt><trkpt lat="38.444669000186025" lon="16.267610371166572"><ele>1121.0</ele><time>2026-04-06T10:06:41.001Z</time></trkpt><trkpt lat="38.44472566076239" lon="16.267447813203596"><ele>1121.0</ele><time>2026-04-06T10:06:42.001Z</time></trkpt><trkpt lat="38.44482113896793" lon="16.267325556767712"><ele>1121.0</ele><time>2026-04-06T10:06:43.001Z</time></trkpt><trkpt lat="38.44494085982717" lon="16.26720254416836"><ele>1121.0</ele><time>2026-04-06T10:06:44.001Z</time></trkpt><trkpt lat="38.44506393607298" lon="16.267100728367566"><ele>1122.75</ele><time>2026-04-06T10:06:45.001Z</time></trkpt><trkpt lat="38.44516445011575" lon="16.267036338448047"><ele>1124.5</ele><time>2026-04-06T10:06:46.001Z</time></trkpt><trkpt lat="38.44524963143126" lon="16.266988815824057"><ele>1126.25</ele><time>2026-04-06T10:06:47.001Z</time></trkpt><trkpt lat="38.4453667773232" lon="16.266899623251167"><ele>1128.0</ele><time>2026-04-06T10:06:48.001Z</time></trkpt><trkpt lat="38.445483587312154" lon="16.266837508255303"><ele>1128.0</ele><time>2026-04-06T10:06:49.001Z</time></trkpt><trkpt lat="38.445541844672185" lon="16.266697477893064"><ele>1128.0</ele><time>2026-04-06T10:06:50.001Z</time></trkpt><trkpt lat="38.44557775869793" lon="16.2665499540445"><ele>1128.0</ele><time>2026-04-06T10:06:51.001Z</time></trkpt><trkpt lat="38.44559401309776" lon="16.266382826198182"><ele>1128.0</ele><time>2026-04-06T10:06:52.001Z</time></trkpt><trkpt lat="38.44558377833284" lon="16.26619389420158"><ele>1127.0</ele><time>2026-04-06T10:06:53.001Z</time></trkpt><trkpt lat="38.44557725137978" lon="16.265990664503917"><ele>1126.0</ele><time>2026-04-06T10:06:54.001Z</time></trkpt><trkpt lat="38.445587518497724" lon="16.265755193531852"><ele>1125.0</ele><time>2026-04-06T10:06:55.001Z</time></trkpt><trkpt lat="38.44558160151718" lon="16.265525495656657"><ele>1122.6666666666667</ele><time>2026-04-06T10:06:56.001Z</time></trkpt><trkpt lat="38.44557429550452" lon="16.265326113787108"><ele>1120.3333333333335</ele><time>2026-04-06T10:06:57.001Z</time></trkpt><trkpt lat="38.44555740164136" lon="16.265125504321336"><ele>1118.0</ele><time>2026-04-06T10:06:58.001Z</time></trkpt><trkpt lat="38.44549063905888" lon="16.264912851615417"><ele>1117.3333333333335</ele><time>2026-04-06T10:06:59.001Z</time></trkpt><trkpt lat="38.44540500679926" lon="16.264710921480088"><ele>1116.6666666666667</ele><time>2026-04-06T10:07:00.001Z</time></trkpt><trkpt lat="38.44530629557767" lon="16.26448584973128"><ele>1116.0</ele><time>2026-04-06T10:07:01.001Z</time></trkpt><trkpt lat="38.44519517126726" lon="16.264232486230814"><ele>1116.0</ele><time>2026-04-06T10:07:02.001Z</time></trkpt><trkpt lat="38.44508466690002" lon="16.263984918580274"><ele>1116.0</ele><time>2026-04-06T10:07:03.001Z</time></trkpt><trkpt lat="38.44497536662312" lon="16.26374673430215"><ele>1116.0</ele><time>2026-04-06T10:07:04.001Z</time></trkpt><trkpt lat="38.44488075268046" lon="16.263534448093733"><ele>1115.6666666666667</ele><time>2026-04-06T10:07:05.001Z</time></trkpt><trkpt lat="38.44478473165212" lon="16.263352484592847"><ele>1115.3333333333335</ele><time>2026-04-06T10:07:06.001Z</time></trkpt><trkpt lat="38.4447246751037" lon="16.263160659530776"><ele>1115.0</ele><time>2026-04-06T10:07:07.001Z</time></trkpt><trkpt lat="38.44469894174259" lon="16.26294960790459"><ele>1115.0</ele><time>2026-04-06T10:07:08.001Z</time></trkpt><trkpt lat="38.44465997096733" lon="16.26273579833288"><ele>1115.0</ele><time>2026-04-06T10:07:09.001Z</time></trkpt><trkpt lat="38.44465833576738" lon="16.262493573528484"><ele>1115.0</ele><time>2026-04-06T10:07:10.001Z</time></trkpt><trkpt lat="38.4446764394114" lon="16.262246398834584"><ele>1115.5</ele><time>2026-04-06T10:07:11.001Z</time></trkpt><trkpt lat="38.444731436259815" lon="16.26198702009342"><ele>1116.0</ele><time>2026-04-06T10:07:12.001Z</time></trkpt><trkpt lat="38.44478939528087" lon="16.26168734094084"><ele>1118.5</ele><time>2026-04-06T10:07:13.001Z</time></trkpt><trkpt lat="38.44486151317243" lon="16.261378810948372"><ele>1121.0</ele><time>2026-04-06T10:07:14.001Z</time></trkpt><trkpt lat="38.44493569765221" lon="16.261080471793434"><ele>1121.0</ele><time>2026-04-06T10:07:15.001Z</time></trkpt><trkpt lat="38.445011832823276" lon="16.260781132741577"><ele>1121.0</ele><time>2026-04-06T10:07:16.001Z</time></trkpt><trkpt lat="38.4450769762265" lon="16.260507233452678"><ele>1121.3333333333335</ele><time>2026-04-06T10:07:17.001Z</time></trkpt><trkpt lat="38.44512055197936" lon="16.26024725480827"><ele>1121.6666666666667</ele><time>2026-04-06T10:07:18.001Z</time></trkpt><trkpt lat="38.445136641790455" lon="16.26000955625801"><ele>1122.0</ele><time>2026-04-06T10:07:19.001Z</time></trkpt><trkpt lat="38.44510668791199" lon="16.25982990898602"><ele>1119.4</ele><time>2026-04-06T10:07:20.001Z</time></trkpt><trkpt lat="38.44502595763416" lon="16.259704860619745"><ele>1116.8000000000002</ele><time>2026-04-06T10:07:21.001Z</time></trkpt><trkpt lat="38.44496559184989" lon="16.259581436141787"><ele>1114.2</ele><time>2026-04-06T10:07:22.001Z</time></trkpt><trkpt lat="38.444882795729335" lon="16.259626965239004"><ele>1111.6000000000001</ele><time>2026-04-06T10:07:23.001Z</time></trkpt><trkpt lat="38.444823372877195" lon="16.25967783654409"><ele>1109.0</ele><time>2026-04-06T10:07:24.001Z</time></trkpt><trkpt lat="38.444700246268575" lon="16.259678163020965"><ele>1109.0</ele><time>2026-04-06T10:07:25.001Z</time></trkpt><trkpt lat="38.44463817829272" lon="16.25965779078257"><ele>1109.0</ele><time>2026-04-06T10:07:26.001Z</time></trkpt><trkpt lat="38.44454119045679" lon="16.259597825680526"><ele>1109.0</ele><time>2026-04-06T10:07:27.001Z</time></trkpt><trkpt lat="38.44448070799355" lon="16.259514700993524"><ele>1109.0</ele><time>2026-04-06T10:07:28.001Z</time></trkpt><trkpt lat="38.44443309458799" lon="16.259395944964382"><ele>1109.0</ele><time>2026-04-06T10:07:29.001Z</time></trkpt><trkpt lat="38.444417847428326" lon="16.259244915399986"><ele>1109.4</ele><time>2026-04-06T10:07:30.001Z</time></trkpt><trkpt lat="38.44440428576335" lon="16.259119086487946"><ele>1109.8000000000002</ele><time>2026-04-06T10:07:31.001Z</time></trkpt><trkpt lat="38.4443885273714" lon="16.258989037122763"><ele>1110.1999999999998</ele><time>2026-04-06T10:07:32.001Z</time></trkpt><trkpt lat="38.44441870286074" lon="16.258860134706"><ele>1110.6</ele><time>2026-04-06T10:07:33.001Z</time></trkpt><trkpt lat="38.444488533961014" lon="16.258735921724103"><ele>1111.0</ele><time>2026-04-06T10:07:34.001Z</time></trkpt><trkpt lat="38.44458132071046" lon="16.258615475423404"><ele>1109.6666666666665</ele><time>2026-04-06T10:07:35.001Z</time></trkpt><trkpt lat="38.444711306977815" lon="16.258514959373954"><ele>1108.3333333333333</ele><time>2026-04-06T10:07:36.001Z</time></trkpt><trkpt lat="38.44485901994512" lon="16.25842337807452"><ele>1107.0</ele><time>2026-04-06T10:07:37.001Z</time></trkpt><trkpt lat="38.444997319233075" lon="16.25833242091805"><ele>1107.0</ele><time>2026-04-06T10:07:38.001Z</time></trkpt><trkpt lat="38.44513452402008" lon="16.25826714621261"><ele>1107.0</ele><time>2026-04-06T10:07:39.001Z</time></trkpt><trkpt lat="38.44525304484461" lon="16.258219203576516"><ele>1107.0</ele><time>2026-04-06T10:07:40.001Z</time></trkpt><trkpt lat="38.445379100735444" lon="16.25821753060465"><ele>1107.0</ele><time>2026-04-06T10:07:41.001Z</time></trkpt><trkpt lat="38.445511035462786" lon="16.25827362154877"><ele>1105.2</ele><time>2026-04-06T10:07:42.001Z</time></trkpt><trkpt lat="38.445631508683114" lon="16.258315983833327"><ele>1103.4</ele><time>2026-04-06T10:07:43.001Z</time></trkpt><trkpt lat="38.445732859372086" lon="16.25830809023777"><ele>1101.6</ele><time>2026-04-06T10:07:44.001Z</time></trkpt><trkpt lat="38.44581643573566" lon="16.258248909993718"><ele>1099.8</ele><time>2026-04-06T10:07:45.001Z</time></trkpt><trkpt lat="38.44588176221904" lon="16.258143245180293"><ele>1098.0</ele><time>2026-04-06T10:07:46.001Z</time></trkpt><trkpt lat="38.445922027747756" lon="16.258008821612442"><ele>1096.0</ele><time>2026-04-06T10:07:47.001Z</time></trkpt><trkpt lat="38.44590410804042" lon="16.25786472746253"><ele>1094.0</ele><time>2026-04-06T10:07:48.001Z</time></trkpt><trkpt lat="38.44585406859475" lon="16.257745584997238"><ele>1092.0</ele><time>2026-04-06T10:07:49.001Z</time></trkpt><trkpt lat="38.4457823625035" lon="16.257667167338603"><ele>1090.0</ele><time>2026-04-06T10:07:50.001Z</time></trkpt><trkpt lat="38.44568068150183" lon="16.257590146525608"><ele>1088.0</ele><time>2026-04-06T10:07:51.001Z</time></trkpt><trkpt lat="38.445562911572225" lon="16.25749751190372"><ele>1086.3333333333335</ele><time>2026-04-06T10:07:52.001Z</time></trkpt><trkpt lat="38.4454171265171" lon="16.257448921520176"><ele>1084.6666666666667</ele><time>2026-04-06T10:07:53.001Z</time></trkpt><trkpt lat="38.445272705657146" lon="16.257419009528526"><ele>1083.0</ele><time>2026-04-06T10:07:54.001Z</time></trkpt><trkpt lat="38.44514319843467" lon="16.257285576239077"><ele>1083.0</ele><time>2026-04-06T10:07:55.001Z</time></trkpt><trkpt lat="38.445005178043445" lon="16.25716757627867"><ele>1083.0</ele><time>2026-04-06T10:07:56.001Z</time></trkpt><trkpt lat="38.44487162579036" lon="16.2570538960656"><ele>1083.0</ele><time>2026-04-06T10:07:57.001Z</time></trkpt><trkpt lat="38.444729460906736" lon="16.256933283492035"><ele>1081.5</ele><time>2026-04-06T10:07:58.001Z</time></trkpt><trkpt lat="38.44457992516341" lon="16.256835741402845"><ele>1080.0</ele><time>2026-04-06T10:07:59.001Z</time></trkpt><trkpt lat="38.444471699749315" lon="16.256733528735666"><ele>1078.5</ele><time>2026-04-06T10:08:00.001Z</time></trkpt><trkpt lat="38.444394918156654" lon="16.256625048041514"><ele>1077.0</ele><time>2026-04-06T10:08:01.001Z</time></trkpt><trkpt lat="38.44435216659577" lon="16.25649000044256"><ele>1074.25</ele><time>2026-04-06T10:08:02.001Z</time></trkpt><trkpt lat="38.44435463840984" lon="16.25634366107148"><ele>1071.5</ele><time>2026-04-06T10:08:03.001Z</time></trkpt><trkpt lat="38.44438396817253" lon="16.25619361704665"><ele>1068.75</ele><time>2026-04-06T10:08:04.001Z</time></trkpt><trkpt lat="38.44444791273365" lon="16.256022310784957"><ele>1066.0</ele><time>2026-04-06T10:08:05.001Z</time></trkpt><trkpt lat="38.44449170348887" lon="16.255827277656497"><ele>1066.6666666666665</ele><time>2026-04-06T10:08:06.001Z</time></trkpt><trkpt lat="38.444482357729925" lon="16.255604459381082"><ele>1067.3333333333333</ele><time>2026-04-06T10:08:07.001Z</time></trkpt><trkpt lat="38.44448254686594" lon="16.255359110033112"><ele>1068.0</ele><time>2026-04-06T10:08:08.001Z</time></trkpt><trkpt lat="38.4444867020075" lon="16.2551035056477"><ele>1068.0</ele><time>2026-04-06T10:08:09.001Z</time></trkpt><trkpt lat="38.44449339254181" lon="16.254847724056138"><ele>1068.0</ele><time>2026-04-06T10:08:10.001Z</time></trkpt><trkpt lat="38.44449653336498" lon="16.254599806282634"><ele>1068.0</ele><time>2026-04-06T10:08:11.001Z</time></trkpt><trkpt lat="38.444500942191" lon="16.254403151567118"><ele>1066.8</ele><time>2026-04-06T10:08:12.001Z</time></trkpt><trkpt lat="38.44450855774952" lon="16.254279383367177"><ele>1065.6</ele><time>2026-04-06T10:08:13.001Z</time></trkpt><trkpt lat="38.44452037376954" lon="16.254196321088912"><ele>1064.4</ele><time>2026-04-06T10:08:14.001Z</time></trkpt><trkpt lat="38.444393735129374" lon="16.254191677533008"><ele>1063.2</ele><time>2026-04-06T10:08:17.001Z</time></trkpt><trkpt lat="38.444286312106286" lon="16.254303707858377"><ele>1062.0</ele><time>2026-04-06T10:08:18.001Z</time></trkpt><trkpt lat="38.444147148889485" lon="16.254454495699836"><ele>1062.0</ele><time>2026-04-06T10:08:19.001Z</time></trkpt><trkpt lat="38.44400265234206" lon="16.254615186957416"><ele>1062.0</ele><time>2026-04-06T10:08:20.001Z</time></trkpt><trkpt lat="38.4438497923884" lon="16.254791199503785"><ele>1062.0</ele><time>2026-04-06T10:08:21.001Z</time></trkpt><trkpt lat="38.44354905150611" lon="16.253271055846408"><ele>1058.5</ele><time>2026-04-06T10:08:22Z</time></trkpt><trkpt lat="38.44340284928818" lon="16.253210720187198"><ele>1055.0</ele><time>2026-04-06T10:08:23Z</time></trkpt><trkpt lat="38.44328125689573" lon="16.253125266151724"><ele>1051.5</ele><time>2026-04-06T10:08:24Z</time></trkpt><trkpt lat="38.44320739550368" lon="16.25296844889845"><ele>1048.0</ele><time>2026-04-06T10:08:25Z</time></trkpt><trkpt lat="38.44309505569654" lon="16.252884802384095"><ele>1046.0</ele><time>2026-04-06T10:08:26Z</time></trkpt><trkpt lat="38.442962914473185" lon="16.25282868077973"><ele>1044.0</ele><time>2026-04-06T10:08:27Z</time></trkpt><trkpt lat="38.442814949547774" lon="16.252763116441283"><ele>1042.0</ele><time>2026-04-06T10:08:28Z</time></trkpt><trkpt lat="38.44266705600854" lon="16.252748760088547"><ele>1040.0</ele><time>2026-04-06T10:08:29Z</time></trkpt><trkpt lat="38.442531812373474" lon="16.25270975465205"><ele>1040.0</ele><time>2026-04-06T10:08:30Z</time></trkpt><trkpt lat="38.44237622752121" lon="16.252737450001423"><ele>1040.0</ele><time>2026-04-06T10:08:31Z</time></trkpt><trkpt lat="38.44222074689629" lon="16.25281477452845"><ele>1040.0</ele><time>2026-04-06T10:08:32Z</time></trkpt><trkpt lat="38.44207233294016" lon="16.25289245583998"><ele>1037.25</ele><time>2026-04-06T10:08:33Z</time></trkpt><trkpt lat="38.44193139116167" lon="16.252922873008906"><ele>1034.5</ele><time>2026-04-06T10:08:34Z</time></trkpt><trkpt lat="38.4418259991515" lon="16.25282488437351"><ele>1031.75</ele><time>2026-04-06T10:08:35Z</time></trkpt><trkpt lat="38.441757794748746" lon="16.25272541906049"><ele>1029.0</ele><time>2026-04-06T10:08:36Z</time></trkpt><trkpt lat="38.441654178171326" lon="16.252601763846023"><ele>1029.0</ele><time>2026-04-06T10:08:37Z</time></trkpt><trkpt lat="38.441569454532356" lon="16.25247998074026"><ele>1029.0</ele><time>2026-04-06T10:08:38Z</time></trkpt><trkpt lat="38.44154091851017" lon="16.252369080278946"><ele>1029.0</ele><time>2026-04-06T10:08:39Z</time></trkpt><trkpt lat="38.44153280895725" lon="16.252286755844363"><ele>1029.0</ele><time>2026-04-06T10:08:40Z</time></trkpt><trkpt lat="38.44155844970448" lon="16.25216021571871"><ele>1029.0</ele><time>2026-04-06T10:08:41Z</time></trkpt><trkpt lat="38.44161108850007" lon="16.252009380739526"><ele>1026.6666666666667</ele><time>2026-04-06T10:08:42Z</time></trkpt><trkpt lat="38.44168696743158" lon="16.251790629193795"><ele>1024.3333333333335</ele><time>2026-04-06T10:08:43Z</time></trkpt><trkpt lat="38.44176527285416" lon="16.251559205927848"><ele>1022.0</ele><time>2026-04-06T10:08:44Z</time></trkpt><trkpt lat="38.44184970835291" lon="16.251292726057567"><ele>1016.5</ele><time>2026-04-06T10:08:45Z</time></trkpt><trkpt lat="38.441914532632055" lon="16.250969583416776"><ele>1011.0</ele><time>2026-04-06T10:08:46Z</time></trkpt><trkpt lat="38.44196081189774" lon="16.250702552172594"><ele>1010.6666666666667</ele><time>2026-04-06T10:08:47Z</time></trkpt><trkpt lat="38.44199845702191" lon="16.25044625388542"><ele>1010.3333333333334</ele><time>2026-04-06T10:08:48Z</time></trkpt><trkpt lat="38.44202196599968" lon="16.2502137320113"><ele>1010.0</ele><time>2026-04-06T10:08:49Z</time></trkpt><trkpt lat="38.44204017525278" lon="16.25002160074905"><ele>1010.0</ele><time>2026-04-06T10:08:50Z</time></trkpt><trkpt lat="38.44202428186998" lon="16.249843618420314"><ele>1010.0</ele><time>2026-04-06T10:08:51Z</time></trkpt><trkpt lat="38.442020110004016" lon="16.249661850262573"><ele>1010.0</ele><time>2026-04-06T10:08:52Z</time></trkpt><trkpt lat="38.441959406275465" lon="16.249466508796555"><ele>1010.0</ele><time>2026-04-06T10:08:53Z</time></trkpt><trkpt lat="38.44186996235837" lon="16.24923570354421"><ele>1012.0</ele><time>2026-04-06T10:08:54Z</time></trkpt><trkpt lat="38.44179323813076" lon="16.249001717064107"><ele>1014.0</ele><time>2026-04-06T10:08:55Z</time></trkpt><trkpt lat="38.4417315761686" lon="16.24877276135138"><ele>1016.0</ele><time>2026-04-06T10:08:56Z</time></trkpt><trkpt lat="38.441644638290775" lon="16.248554872926967"><ele>1016.3333333333334</ele><time>2026-04-06T10:08:57Z</time></trkpt><trkpt lat="38.4415533277711" lon="16.248326025547296"><ele>1016.6666666666667</ele><time>2026-04-06T10:08:58Z</time></trkpt><trkpt lat="38.44145308159176" lon="16.248095275476647"><ele>1017.0</ele><time>2026-04-06T10:08:59Z</time></trkpt><trkpt lat="38.44118771496821" lon="16.247995446083745"><ele>1021.0</ele><time>2026-04-06T10:09:00Z</time></trkpt><trkpt lat="38.4410837801213" lon="16.247844222888975"><ele>1025.0</ele><time>2026-04-06T10:09:01Z</time></trkpt><trkpt lat="38.44100452022255" lon="16.247714915734004"><ele>1029.0</ele><time>2026-04-06T10:09:02Z</time></trkpt><trkpt lat="38.440962252845" lon="16.24759083715329"><ele>1033.0</ele><time>2026-04-06T10:09:03Z</time></trkpt><trkpt lat="38.440964391436026" lon="16.24746291746725"><ele>1033.0</ele><time>2026-04-06T10:09:04Z</time></trkpt><trkpt lat="38.440977271236214" lon="16.247359883485238"><ele>1033.0</ele><time>2026-04-06T10:09:05Z</time></trkpt><trkpt lat="38.441009696285185" lon="16.247268450773216"><ele>1033.0</ele><time>2026-04-06T10:09:06Z</time></trkpt><trkpt lat="38.441036960744974" lon="16.24715853329116"><ele>1033.0</ele><time>2026-04-06T10:09:07Z</time></trkpt><trkpt lat="38.441039106157945" lon="16.247014522004182"><ele>1033.0</ele><time>2026-04-06T10:09:08Z</time></trkpt><trkpt lat="38.44101312837054" lon="16.2468676245657"><ele>1036.1666666666665</ele><time>2026-04-06T10:09:09Z</time></trkpt><trkpt lat="38.440982127137346" lon="16.246733011302148"><ele>1039.3333333333333</ele><time>2026-04-06T10:09:10Z</time></trkpt><trkpt lat="38.440946885468854" lon="16.246628556951407"><ele>1042.5</ele><time>2026-04-06T10:09:11Z</time></trkpt><trkpt lat="38.44088735138989" lon="16.24656516175678"><ele>1045.6666666666667</ele><time>2026-04-06T10:09:12Z</time></trkpt><trkpt lat="38.44082400189377" lon="16.246521568338295"><ele>1048.8333333333335</ele><time>2026-04-06T10:09:13Z</time></trkpt><trkpt lat="38.440756122458076" lon="16.24651410095238"><ele>1052.0</ele><time>2026-04-06T10:09:14Z</time></trkpt><trkpt lat="38.44068951310792" lon="16.246553170433955"><ele>1052.0</ele><time>2026-04-06T10:09:15Z</time></trkpt><trkpt lat="38.44062385875409" lon="16.24661961380104"><ele>1052.0</ele><time>2026-04-06T10:09:16Z</time></trkpt><trkpt lat="38.440566941468305" lon="16.246716775066446"><ele>1052.0</ele><time>2026-04-06T10:09:17Z</time></trkpt><trkpt lat="38.44049788269968" lon="16.246822211665712"><ele>1052.0</ele><time>2026-04-06T10:09:18Z</time></trkpt><trkpt lat="38.44041747912367" lon="16.24690454128917"><ele>1052.0</ele><time>2026-04-06T10:09:19Z</time></trkpt><trkpt lat="38.440324906902234" lon="16.246935676602785"><ele>1052.6</ele><time>2026-04-06T10:09:20Z</time></trkpt><trkpt lat="38.440217315792864" lon="16.24693379199497"><ele>1053.2</ele><time>2026-04-06T10:09:21Z</time></trkpt><trkpt lat="38.440090640848396" lon="16.246910325197906"><ele>1053.8</ele><time>2026-04-06T10:09:22Z</time></trkpt><trkpt lat="38.43997787459391" lon="16.246864654205044"><ele>1054.4</ele><time>2026-04-06T10:09:23Z</time></trkpt><trkpt lat="38.43990342162482" lon="16.246791858595323"><ele>1055.0</ele><time>2026-04-06T10:09:24Z</time></trkpt><trkpt lat="38.439851443298096" lon="16.246693068069565"><ele>1055.0</ele><time>2026-04-06T10:09:25Z</time></trkpt><trkpt lat="38.43984633449541" lon="16.246575621707446"><ele>1055.0</ele><time>2026-04-06T10:09:26Z</time></trkpt><trkpt lat="38.43987752321927" lon="16.246449672756306"><ele>1055.0</ele><time>2026-04-06T10:09:27.001Z</time></trkpt><trkpt lat="38.439915567130406" lon="16.24628306851774"><ele>1055.0</ele><time>2026-04-06T10:09:28.001Z</time></trkpt><trkpt lat="38.43991545821969" lon="16.246066956629612"><ele>1058.3333333333335</ele><time>2026-04-06T10:09:29.001Z</time></trkpt><trkpt lat="38.43990980279841" lon="16.245822956512825"><ele>1061.6666666666667</ele><time>2026-04-06T10:09:30.001Z</time></trkpt><trkpt lat="38.43991037493698" lon="16.24562346062902"><ele>1065.0</ele><time>2026-04-06T10:09:31.001Z</time></trkpt><trkpt lat="38.439913941609156" lon="16.245467800585356"><ele>1066.75</ele><time>2026-04-06T10:09:32.001Z</time></trkpt><trkpt lat="38.43993173309258" lon="16.24530814699738"><ele>1068.5</ele><time>2026-04-06T10:09:33.001Z</time></trkpt><trkpt lat="38.439975955915465" lon="16.245137710249008"><ele>1070.25</ele><time>2026-04-06T10:09:34.001Z</time></trkpt><trkpt lat="38.440021964451475" lon="16.244981754259303"><ele>1072.0</ele><time>2026-04-06T10:09:35.001Z</time></trkpt><trkpt lat="38.44003822494725" lon="16.244855491892423"><ele>1075.0</ele><time>2026-04-06T10:09:36.001Z</time></trkpt><trkpt lat="38.44002153543749" lon="16.244743029009417"><ele>1078.0</ele><time>2026-04-06T10:09:37.001Z</time></trkpt><trkpt lat="38.439976466192455" lon="16.244649448176855"><ele>1081.0</ele><time>2026-04-06T10:09:38.001Z</time></trkpt><trkpt lat="38.43988637266555" lon="16.244544015658793"><ele>1084.0</ele><time>2026-04-06T10:09:39.001Z</time></trkpt><trkpt lat="38.439781021737616" lon="16.244415356148203"><ele>1087.0</ele><time>2026-04-06T10:09:40.001Z</time></trkpt><trkpt lat="38.43969289791445" lon="16.24426101798907"><ele>1087.0</ele><time>2026-04-06T10:09:41.001Z</time></trkpt><trkpt lat="38.43964154609663" lon="16.24412601880437"><ele>1087.0</ele><time>2026-04-06T10:09:42.001Z</time></trkpt><trkpt lat="38.43960519018035" lon="16.244021166305547"><ele>1087.0</ele><time>2026-04-06T10:09:43.001Z</time></trkpt><trkpt lat="38.43954641782676" lon="16.243963124439365"><ele>1087.0</ele><time>2026-04-06T10:09:44.001Z</time></trkpt><trkpt lat="38.43946408229144" lon="16.24395144697781"><ele>1087.0</ele><time>2026-04-06T10:09:45.001Z</time></trkpt><trkpt lat="38.43938519382237" lon="16.2439820852299"><ele>1087.0</ele><time>2026-04-06T10:09:46.001Z</time></trkpt><trkpt lat="38.439326974296264" lon="16.24402116196132"><ele>1089.8</ele><time>2026-04-06T10:09:47.001Z</time></trkpt><trkpt lat="38.439283290870804" lon="16.24408158803762"><ele>1092.6</ele><time>2026-04-06T10:09:49.001Z</time></trkpt><trkpt lat="38.43923226335908" lon="16.244212577574256"><ele>1095.3999999999999</ele><time>2026-04-06T10:09:51.001Z</time></trkpt><trkpt lat="38.43917851548975" lon="16.244315205935237"><ele>1098.2</ele><time>2026-04-06T10:09:52.001Z</time></trkpt><trkpt lat="38.439111283142005" lon="16.24444223239286"><ele>1101.0</ele><time>2026-04-06T10:09:53.001Z</time></trkpt><trkpt lat="38.439052307487664" lon="16.244558017097578"><ele>1101.0</ele><time>2026-04-06T10:09:54.001Z</time></trkpt><trkpt lat="38.43898856376922" lon="16.244643234908985"><ele>1101.0</ele><time>2026-04-06T10:09:55.001Z</time></trkpt><trkpt lat="38.43891382840423" lon="16.244668716466606"><ele>1101.0</ele><time>2026-04-06T10:09:56.001Z</time></trkpt><trkpt lat="38.43881700963043" lon="16.24461825116119"><ele>1101.0</ele><time>2026-04-06T10:09:57.001Z</time></trkpt><trkpt lat="38.43873023378011" lon="16.244550111633277"><ele>1101.0</ele><time>2026-04-06T10:09:58.001Z</time></trkpt><trkpt lat="38.43865166312975" lon="16.244473517078347"><ele>1101.6</ele><time>2026-04-06T10:09:59.001Z</time></trkpt><trkpt lat="38.438562969092565" lon="16.244434530158323"><ele>1102.1999999999998</ele><time>2026-04-06T10:10:00.001Z</time></trkpt><trkpt lat="38.438471296934665" lon="16.24444973416812"><ele>1102.8000000000002</ele><time>2026-04-06T10:10:01.001Z</time></trkpt><trkpt lat="38.43837697681487" lon="16.244487006624535"><ele>1103.4</ele><time>2026-04-06T10:10:02.001Z</time></trkpt><trkpt lat="38.438269295097456" lon="16.24453105969409"><ele>1104.0</ele><time>2026-04-06T10:10:03.001Z</time></trkpt><trkpt lat="38.43817603514842" lon="16.244549590660107"><ele>1104.0</ele><time>2026-04-06T10:10:04.001Z</time></trkpt><trkpt lat="38.438077599716785" lon="16.244524452387235"><ele>1104.0</ele><time>2026-04-06T10:10:05.001Z</time></trkpt><trkpt lat="38.438029327246916" lon="16.244442955206413"><ele>1104.0</ele><time>2026-04-06T10:10:06.001Z</time></trkpt><trkpt lat="38.438056412474374" lon="16.24434479677994"><ele>1104.0</ele><time>2026-04-06T10:10:08.001Z</time></trkpt><trkpt lat="38.43810144142792" lon="16.244212112985657"><ele>1104.0</ele><time>2026-04-06T10:10:10.001Z</time></trkpt><trkpt lat="38.43822755599459" lon="16.244137180966195"><ele>1104.0</ele><time>2026-04-06T10:10:11.001Z</time></trkpt><trkpt lat="38.43831598221722" lon="16.244078578784023"><ele>1104.0</ele><time>2026-04-06T10:10:12.001Z</time></trkpt><trkpt lat="38.43840468075261" lon="16.243938342228013"><ele>1104.0</ele><time>2026-04-06T10:10:13.001Z</time></trkpt><trkpt lat="38.4384646630491" lon="16.243765756226473"><ele>1104.0</ele><time>2026-04-06T10:10:14.001Z</time></trkpt><trkpt lat="38.43852107181381" lon="16.2435580894537"><ele>1104.0</ele><time>2026-04-06T10:10:15.001Z</time></trkpt><trkpt lat="38.43862997516196" lon="16.243341148996148"><ele>1104.0</ele><time>2026-04-06T10:10:16.001Z</time></trkpt><trkpt lat="38.43870929483653" lon="16.243105861078742"><ele>1104.0</ele><time>2026-04-06T10:10:17.001Z</time></trkpt><trkpt lat="38.43880100744351" lon="16.242912333478497"><ele>1106.0</ele><time>2026-04-06T10:10:18.001Z</time></trkpt><trkpt lat="38.43889395087086" lon="16.2427697719973"><ele>1108.0</ele><time>2026-04-06T10:10:19.001Z</time></trkpt><trkpt lat="38.438959293251685" lon="16.24262251334634"><ele>1110.0</ele><time>2026-04-06T10:10:20.001Z</time></trkpt><trkpt lat="38.438979070264786" lon="16.242488275970807"><ele>1112.0</ele><time>2026-04-06T10:10:21.001Z</time></trkpt><trkpt lat="38.43896474965745" lon="16.242311890736058"><ele>1110.6666666666667</ele><time>2026-04-06T10:10:22.001Z</time></trkpt><trkpt lat="38.43892464575129" lon="16.242148676922522"><ele>1109.3333333333333</ele><time>2026-04-06T10:10:23.001Z</time></trkpt><trkpt lat="38.4388423868678" lon="16.24196513144595"><ele>1108.0</ele><time>2026-04-06T10:10:24.001Z</time></trkpt><trkpt lat="38.43878591138445" lon="16.24174335326791"><ele>1107.0</ele><time>2026-04-06T10:10:25.001Z</time></trkpt><trkpt lat="38.4387098619588" lon="16.241515504589422"><ele>1106.0</ele><time>2026-04-06T10:10:26.001Z</time></trkpt><trkpt lat="38.43861869724213" lon="16.241309900517738"><ele>1105.0</ele><time>2026-04-06T10:10:27.001Z</time></trkpt><trkpt lat="38.43856154034442" lon="16.24110490537207"><ele>1106.75</ele><time>2026-04-06T10:10:28.001Z</time></trkpt><trkpt lat="38.438459942217655" lon="16.240947013915235"><ele>1108.5</ele><time>2026-04-06T10:10:29.001Z</time></trkpt><trkpt lat="38.438390783275636" lon="16.240789646890484"><ele>1110.25</ele><time>2026-04-06T10:10:30.001Z</time></trkpt><trkpt lat="38.43831208956472" lon="16.240637566742492"><ele>1112.0</ele><time>2026-04-06T10:10:31Z</time></trkpt><trkpt lat="38.43828580844973" lon="16.24049099086614"><ele>1112.75</ele><time>2026-04-06T10:10:32Z</time></trkpt><trkpt lat="38.43827133533557" lon="16.24035756616283"><ele>1113.5</ele><time>2026-04-06T10:10:33Z</time></trkpt><trkpt lat="38.43827465937127" lon="16.24022127802827"><ele>1114.25</ele><time>2026-04-06T10:10:34Z</time></trkpt><trkpt lat="38.43827849143695" lon="16.240053364204798"><ele>1115.0</ele><time>2026-04-06T10:10:35Z</time></trkpt><trkpt lat="38.438302961717774" lon="16.239848066405962"><ele>1114.0</ele><time>2026-04-06T10:10:36Z</time></trkpt><trkpt lat="38.43830378252074" lon="16.23962417632767"><ele>1113.0</ele><time>2026-04-06T10:10:37Z</time></trkpt><trkpt lat="38.438304651746215" lon="16.239399105419736"><ele>1112.0</ele><time>2026-04-06T10:10:38Z</time></trkpt><trkpt lat="38.438314807235514" lon="16.23919785560201"><ele>1112.0</ele><time>2026-04-06T10:10:39Z</time></trkpt><trkpt lat="38.43832757571974" lon="16.239013259823146"><ele>1112.0</ele><time>2026-04-06T10:10:40Z</time></trkpt><trkpt lat="38.4383667888148" lon="16.23884921463404"><ele>1112.0</ele><time>2026-04-06T10:10:41Z</time></trkpt><trkpt lat="38.43845293438895" lon="16.238691107630935"><ele>1112.0</ele><time>2026-04-06T10:10:42Z</time></trkpt><trkpt lat="38.438541926465035" lon="16.238500080787695"><ele>1110.6666666666667</ele><time>2026-04-06T10:10:43Z</time></trkpt><trkpt lat="38.438631449593245" lon="16.238279868899266"><ele>1109.3333333333333</ele><time>2026-04-06T10:10:44Z</time></trkpt><trkpt lat="38.43873762685414" lon="16.238063634714457"><ele>1108.0</ele><time>2026-04-06T10:10:45Z</time></trkpt><trkpt lat="38.43883604246097" lon="16.237848774246682"><ele>1107.3333333333333</ele><time>2026-04-06T10:10:46Z</time></trkpt><trkpt lat="38.438928694708096" lon="16.237649016432645"><ele>1106.6666666666667</ele><time>2026-04-06T10:10:47Z</time></trkpt><trkpt lat="38.438998375501995" lon="16.23745463329058"><ele>1106.0</ele><time>2026-04-06T10:10:48Z</time></trkpt><trkpt lat="38.43903492202978" lon="16.237276214030697"><ele>1106.0</ele><time>2026-04-06T10:10:49Z</time></trkpt><trkpt lat="38.43905834018055" lon="16.23708577651264"><ele>1106.0</ele><time>2026-04-06T10:10:50Z</time></trkpt><trkpt lat="38.43908684069792" lon="16.236891560564132"><ele>1106.0</ele><time>2026-04-06T10:10:51Z</time></trkpt><trkpt lat="38.43912987333393" lon="16.23668084013823"><ele>1106.0</ele><time>2026-04-06T10:10:52Z</time></trkpt><trkpt lat="38.43916321474644" lon="16.236456473365134"><ele>1106.0</ele><time>2026-04-06T10:10:53Z</time></trkpt><trkpt lat="38.439195516879614" lon="16.236225191281434"><ele>1106.0</ele><time>2026-04-06T10:10:54Z</time></trkpt><trkpt lat="38.4392142296041" lon="16.235989436411174"><ele>1106.0</ele><time>2026-04-06T10:10:55Z</time></trkpt><trkpt lat="38.43925459005946" lon="16.23575747655091"><ele>1106.0</ele><time>2026-04-06T10:10:56Z</time></trkpt><trkpt lat="38.43928818406957" lon="16.235528850232587"><ele>1106.0</ele><time>2026-04-06T10:10:57Z</time></trkpt><trkpt lat="38.43931502482799" lon="16.23532619715197"><ele>1107.3333333333335</ele><time>2026-04-06T10:10:58Z</time></trkpt><trkpt lat="38.43934712437058" lon="16.235119684515446"><ele>1108.6666666666667</ele><time>2026-04-06T10:10:59Z</time></trkpt><trkpt lat="38.43936238243008" lon="16.23492611695848"><ele>1110.0</ele><time>2026-04-06T10:11:00Z</time></trkpt><trkpt lat="38.43936254562025" lon="16.234712560842837"><ele>1111.0</ele><time>2026-04-06T10:11:01Z</time></trkpt><trkpt lat="38.43931053159298" lon="16.23451060158592"><ele>1112.0</ele><time>2026-04-06T10:11:02Z</time></trkpt><trkpt lat="38.43923340325435" lon="16.234313414663564"><ele>1113.0</ele><time>2026-04-06T10:11:03Z</time></trkpt><trkpt lat="38.439176506989945" lon="16.234138643554225"><ele>1113.0</ele><time>2026-04-06T10:11:04Z</time></trkpt><trkpt lat="38.439129057186975" lon="16.23402128763879"><ele>1113.0</ele><time>2026-04-06T10:11:05Z</time></trkpt><trkpt lat="38.439092571063696" lon="16.233932162647015"><ele>1113.0</ele><time>2026-04-06T10:11:06Z</time></trkpt><trkpt lat="38.43903128804865" lon="16.23384284434114"><ele>1113.0</ele><time>2026-04-06T10:11:08Z</time></trkpt><trkpt lat="38.43896833473867" lon="16.233785954248397"><ele>1113.0</ele><time>2026-04-06T10:11:10Z</time></trkpt><trkpt lat="38.43890722745206" lon="16.23376265416644"><ele>1113.0</ele><time>2026-04-06T10:11:12Z</time></trkpt><trkpt lat="38.43883178487059" lon="16.233775579105515"><ele>1113.0</ele><time>2026-04-06T10:11:15Z</time></trkpt><trkpt lat="38.43872381982634" lon="16.233761451669405"><ele>1113.0</ele><time>2026-04-06T10:11:18Z</time></trkpt><trkpt lat="38.43866210849864" lon="16.23372999432361"><ele>1113.0</ele><time>2026-04-06T10:11:19Z</time></trkpt><trkpt lat="38.4385852594397" lon="16.233702868798257"><ele>1113.0</ele><time>2026-04-06T10:11:20Z</time></trkpt><trkpt lat="38.43849554664929" lon="16.233662316268887"><ele>1113.0</ele><time>2026-04-06T10:11:21Z</time></trkpt><trkpt lat="38.43838819935299" lon="16.233611360666842"><ele>1113.0</ele><time>2026-04-06T10:11:22Z</time></trkpt><trkpt lat="38.438270051834756" lon="16.233553226532987"><ele>1113.0</ele><time>2026-04-06T10:11:23Z</time></trkpt><trkpt lat="38.43813518624663" lon="16.23348612139832"><ele>1113.0</ele><time>2026-04-06T10:11:24Z</time></trkpt><trkpt lat="38.43799142742115" lon="16.233411406219457"><ele>1113.0</ele><time>2026-04-06T10:11:25Z</time></trkpt><trkpt lat="38.43784021783368" lon="16.233325870786757"><ele>1117.3333333333333</ele><time>2026-04-06T10:11:26Z</time></trkpt><trkpt lat="38.43767736652075" lon="16.23325542525075"><ele>1121.6666666666665</ele><time>2026-04-06T10:11:27Z</time></trkpt><trkpt lat="38.437517841789486" lon="16.23315817221875"><ele>1126.0</ele><time>2026-04-06T10:11:28Z</time></trkpt><trkpt lat="38.43736137768128" lon="16.23306827915991"><ele>1126.6666666666665</ele><time>2026-04-06T10:11:29Z</time></trkpt><trkpt lat="38.43720985777671" lon="16.23297427683983"><ele>1127.3333333333333</ele><time>2026-04-06T10:11:30Z</time></trkpt><trkpt lat="38.43706220594052" lon="16.232888593732973"><ele>1128.0</ele><time>2026-04-06T10:11:31Z</time></trkpt><trkpt lat="38.43692546628445" lon="16.23281178217588"><ele>1128.6</ele><time>2026-04-06T10:11:32Z</time></trkpt><trkpt lat="38.436791097855114" lon="16.23273951665786"><ele>1129.1999999999998</ele><time>2026-04-06T10:11:33Z</time></trkpt><trkpt lat="38.43670895049894" lon="16.232651332831868"><ele>1129.8</ele><time>2026-04-06T10:11:34Z</time></trkpt><trkpt lat="38.436648581856545" lon="16.232579716107104"><ele>1130.3999999999999</ele><time>2026-04-06T10:11:35Z</time></trkpt><trkpt lat="38.43659225594117" lon="16.23246644251321"><ele>1131.0</ele><time>2026-04-06T10:11:37Z</time></trkpt><trkpt lat="38.436535468056235" lon="16.232284146660398"><ele>1131.0</ele><time>2026-04-06T10:11:39Z</time></trkpt><trkpt lat="38.43649371818383" lon="16.232157160065974"><ele>1131.0</ele><time>2026-04-06T10:11:40Z</time></trkpt><trkpt lat="38.436464356969495" lon="16.232008020156453"><ele>1131.0</ele><time>2026-04-06T10:11:41Z</time></trkpt><trkpt lat="38.436415171526164" lon="16.2318466986652"><ele>1131.0</ele><time>2026-04-06T10:11:42Z</time></trkpt><trkpt lat="38.43637241694836" lon="16.231684478944565"><ele>1131.0</ele><time>2026-04-06T10:11:43Z</time></trkpt><trkpt lat="38.43631194140044" lon="16.2315089441936"><ele>1131.0</ele><time>2026-04-06T10:11:44Z</time></trkpt><trkpt lat="38.43626386307951" lon="16.231335186545667"><ele>1131.0</ele><time>2026-04-06T10:11:45Z</time></trkpt><trkpt lat="38.43622236186979" lon="16.23119124420429"><ele>1131.0</ele><time>2026-04-06T10:11:46Z</time></trkpt><trkpt lat="38.43618230252395" lon="16.231073541360832"><ele>1132.0</ele><time>2026-04-06T10:11:47Z</time></trkpt><trkpt lat="38.43614002675961" lon="16.230951551285617"><ele>1133.0</ele><time>2026-04-06T10:11:48Z</time></trkpt><trkpt lat="38.43610027363278" lon="16.23082061647347"><ele>1134.0</ele><time>2026-04-06T10:11:49Z</time></trkpt><trkpt lat="38.436074430654976" lon="16.230658782702907"><ele>1135.0</ele><time>2026-04-06T10:11:50.001Z</time></trkpt><trkpt lat="38.43605412054575" lon="16.23051905289855"><ele>1135.0</ele><time>2026-04-06T10:11:51.001Z</time></trkpt><trkpt lat="38.43604090313729" lon="16.230392905029085"><ele>1135.0</ele><time>2026-04-06T10:11:52.001Z</time></trkpt><trkpt lat="38.43604116942841" lon="16.230257711465352"><ele>1135.0</ele><time>2026-04-06T10:11:53.001Z</time></trkpt><trkpt lat="38.43606454198927" lon="16.230103606888402"><ele>1135.0</ele><time>2026-04-06T10:11:54.001Z</time></trkpt><trkpt lat="38.43610124304417" lon="16.229952999643146"><ele>1133.75</ele><time>2026-04-06T10:11:55.001Z</time></trkpt><trkpt lat="38.43616243269678" lon="16.229797482293897"><ele>1132.5</ele><time>2026-04-06T10:11:56.001Z</time></trkpt><trkpt lat="38.43624071475118" lon="16.22964853093378"><ele>1131.25</ele><time>2026-04-06T10:11:57.001Z</time></trkpt><trkpt lat="38.43633184062401" lon="16.229502355273425"><ele>1130.0</ele><time>2026-04-06T10:11:58.001Z</time></trkpt><trkpt lat="38.43641901132319" lon="16.229340906261378"><ele>1129.0</ele><time>2026-04-06T10:11:59.001Z</time></trkpt><trkpt lat="38.43648745775624" lon="16.229170678119107"><ele>1128.0</ele><time>2026-04-06T10:12:00.001Z</time></trkpt><trkpt lat="38.436531931598026" lon="16.228986139129276"><ele>1127.0</ele><time>2026-04-06T10:12:01.001Z</time></trkpt><trkpt lat="38.43654242707714" lon="16.22877930962618"><ele>1127.0</ele><time>2026-04-06T10:12:02.001Z</time></trkpt><trkpt lat="38.43651185414952" lon="16.228582363304163"><ele>1127.0</ele><time>2026-04-06T10:12:03.001Z</time></trkpt><trkpt lat="38.4364529730349" lon="16.228384605264214"><ele>1127.0</ele><time>2026-04-06T10:12:04.001Z</time></trkpt><trkpt lat="38.436369579289874" lon="16.22818867094793"><ele>1125.3333333333335</ele><time>2026-04-06T10:12:05.001Z</time></trkpt><trkpt lat="38.43626282489165" lon="16.22799273916629"><ele>1123.6666666666667</ele><time>2026-04-06T10:12:06.001Z</time></trkpt><trkpt lat="38.43614825852911" lon="16.227786226922834"><ele>1122.0</ele><time>2026-04-06T10:12:07.001Z</time></trkpt><trkpt lat="38.43602921107766" lon="16.22754994269496"><ele>1122.0</ele><time>2026-04-06T10:12:08.001Z</time></trkpt><trkpt lat="38.43591609326375" lon="16.227322847956422"><ele>1122.0</ele><time>2026-04-06T10:12:09.001Z</time></trkpt><trkpt lat="38.43579802540443" lon="16.227098752852882"><ele>1122.0</ele><time>2026-04-06T10:12:10.001Z</time></trkpt><trkpt lat="38.435678671892134" lon="16.22687430836247"><ele>1123.0</ele><time>2026-04-06T10:12:11.001Z</time></trkpt><trkpt lat="38.43556942195098" lon="16.226660258182843"><ele>1124.0</ele><time>2026-04-06T10:12:12.001Z</time></trkpt><trkpt lat="38.435470825955896" lon="16.22646011281175"><ele>1125.0</ele><time>2026-04-06T10:12:13.001Z</time></trkpt><trkpt lat="38.43537934062151" lon="16.226266328733683"><ele>1125.25</ele><time>2026-04-06T10:12:14.001Z</time></trkpt><trkpt lat="38.43530870060749" lon="16.226088044697924"><ele>1125.5</ele><time>2026-04-06T10:12:15.001Z</time></trkpt><trkpt lat="38.43525995675874" lon="16.225913157582724"><ele>1125.75</ele><time>2026-04-06T10:12:16.001Z</time></trkpt><trkpt lat="38.43523972373041" lon="16.225734421492508"><ele>1126.0</ele><time>2026-04-06T10:12:17.001Z</time></trkpt><trkpt lat="38.43525142979675" lon="16.225527273862205"><ele>1123.6666666666665</ele><time>2026-04-06T10:12:18.001Z</time></trkpt><trkpt lat="38.435278972601665" lon="16.225316664258223"><ele>1121.3333333333333</ele><time>2026-04-06T10:12:19.001Z</time></trkpt><trkpt lat="38.435326313796764" lon="16.22509602964575"><ele>1119.0</ele><time>2026-04-06T10:12:20.001Z</time></trkpt><trkpt lat="38.43539287445182" lon="16.22490324693391"><ele>1116.75</ele><time>2026-04-06T10:12:21.001Z</time></trkpt><trkpt lat="38.43541678114988" lon="16.224722801065372"><ele>1114.5</ele><time>2026-04-06T10:12:22.001Z</time></trkpt><trkpt lat="38.43543882135178" lon="16.224556816716753"><ele>1112.25</ele><time>2026-04-06T10:12:23.001Z</time></trkpt><trkpt lat="38.435448846413856" lon="16.22439608260583"><ele>1110.0</ele><time>2026-04-06T10:12:24.001Z</time></trkpt><trkpt lat="38.4354474879176" lon="16.22421617879326"><ele>1110.0</ele><time>2026-04-06T10:12:25.001Z</time></trkpt><trkpt lat="38.4353601792716" lon="16.223996039464172"><ele>1110.0</ele><time>2026-04-06T10:12:26.001Z</time></trkpt><trkpt lat="38.43520625471077" lon="16.223797181801594"><ele>1110.0</ele><time>2026-04-06T10:12:27.001Z</time></trkpt><trkpt lat="38.435052739491766" lon="16.22366042223833"><ele>1109.3333333333333</ele><time>2026-04-06T10:12:28.001Z</time></trkpt><trkpt lat="38.43489385247163" lon="16.223536844063535"><ele>1108.6666666666665</ele><time>2026-04-06T10:12:29.001Z</time></trkpt><trkpt lat="38.434714872315546" lon="16.223407758818468"><ele>1108.0</ele><time>2026-04-06T10:12:30.001Z</time></trkpt><trkpt lat="38.43453652902937" lon="16.2232821904753"><ele>1107.3333333333333</ele><time>2026-04-06T10:12:31.001Z</time></trkpt><trkpt lat="38.43436250513354" lon="16.223157174019846"><ele>1106.6666666666667</ele><time>2026-04-06T10:12:32.001Z</time></trkpt><trkpt lat="38.43420174926108" lon="16.223031471048035"><ele>1106.0</ele><time>2026-04-06T10:12:33.001Z</time></trkpt><trkpt lat="38.434054694182905" lon="16.222908778607692"><ele>1107.6</ele><time>2026-04-06T10:12:34Z</time></trkpt><trkpt lat="38.43394248687946" lon="16.222795417087493"><ele>1109.1999999999998</ele><time>2026-04-06T10:12:35Z</time></trkpt><trkpt lat="38.43387347753768" lon="16.222700341771013"><ele>1110.8000000000002</ele><time>2026-04-06T10:12:36Z</time></trkpt><trkpt lat="38.43384550790926" lon="16.222615047418266"><ele>1112.4</ele><time>2026-04-06T10:12:37Z</time></trkpt><trkpt lat="38.43381899584132" lon="16.2224635214227"><ele>1114.0</ele><time>2026-04-06T10:12:38Z</time></trkpt><trkpt lat="38.433847414143294" lon="16.22231448557028"><ele>1114.0</ele><time>2026-04-06T10:12:39Z</time></trkpt><trkpt lat="38.43390592732883" lon="16.22215450807375"><ele>1114.0</ele><time>2026-04-06T10:12:40Z</time></trkpt><trkpt lat="38.43399041903336" lon="16.22199381428882"><ele>1114.0</ele><time>2026-04-06T10:12:41Z</time></trkpt><trkpt lat="38.43409694519064" lon="16.22181656598176"><ele>1114.0</ele><time>2026-04-06T10:12:42Z</time></trkpt><trkpt lat="38.43420063602571" lon="16.22162374310154"><ele>1114.0</ele><time>2026-04-06T10:12:43Z</time></trkpt><trkpt lat="38.43430585552502" lon="16.22141959155353"><ele>1114.0</ele><time>2026-04-06T10:12:44Z</time></trkpt><trkpt lat="38.4344071946298" lon="16.221217861336086"><ele>1114.5</ele><time>2026-04-06T10:12:45Z</time></trkpt><trkpt lat="38.43449763152859" lon="16.221053780769882"><ele>1115.0</ele><time>2026-04-06T10:12:46Z</time></trkpt><trkpt lat="38.43457718226499" lon="16.22092528053327"><ele>1115.5</ele><time>2026-04-06T10:12:47Z</time></trkpt><trkpt lat="38.434693331898075" lon="16.22082329608816"><ele>1116.0</ele><time>2026-04-06T10:12:48Z</time></trkpt><trkpt lat="38.43483135067231" lon="16.220746827730057"><ele>1114.6666666666667</ele><time>2026-04-06T10:12:49Z</time></trkpt><trkpt lat="38.4349935420443" lon="16.22069212752528"><ele>1113.3333333333335</ele><time>2026-04-06T10:12:50Z</time></trkpt><trkpt lat="38.43515973054564" lon="16.22073307964684"><ele>1112.0</ele><time>2026-04-06T10:12:51Z</time></trkpt><trkpt lat="38.43531817175085" lon="16.220786934769183"><ele>1109.0</ele><time>2026-04-06T10:12:52Z</time></trkpt><trkpt lat="38.43547594641829" lon="16.220841328391856"><ele>1106.0</ele><time>2026-04-06T10:12:53Z</time></trkpt><trkpt lat="38.43560352188442" lon="16.22089316773789"><ele>1103.0</ele><time>2026-04-06T10:12:54Z</time></trkpt><trkpt lat="38.43574158300943" lon="16.220937959062113"><ele>1100.0</ele><time>2026-04-06T10:12:55Z</time></trkpt><trkpt lat="38.435869210555424" lon="16.220941050410616"><ele>1100.0</ele><time>2026-04-06T10:12:56Z</time></trkpt><trkpt lat="38.436001553864834" lon="16.220936099013947"><ele>1100.0</ele><time>2026-04-06T10:12:57Z</time></trkpt><trkpt lat="38.43612797954495" lon="16.22088679752433"><ele>1100.0</ele><time>2026-04-06T10:12:58Z</time></trkpt><trkpt lat="38.4362376591512" lon="16.22080454819017"><ele>1100.0</ele><time>2026-04-06T10:12:59Z</time></trkpt><trkpt lat="38.43630770321525" lon="16.2206610785197"><ele>1095.25</ele><time>2026-04-06T10:13:00Z</time></trkpt><trkpt lat="38.4363594758933" lon="16.220506895356138"><ele>1090.5</ele><time>2026-04-06T10:13:01Z</time></trkpt><trkpt lat="38.43636957779706" lon="16.220328844358782"><ele>1085.75</ele><time>2026-04-06T10:13:02Z</time></trkpt><trkpt lat="38.436357918442994" lon="16.220156165951558"><ele>1081.0</ele><time>2026-04-06T10:13:03Z</time></trkpt><trkpt lat="38.436314732921495" lon="16.219955933887306"><ele>1085.0</ele><time>2026-04-06T10:13:04Z</time></trkpt><trkpt lat="38.4362670272269" lon="16.219746608944785"><ele>1089.0</ele><time>2026-04-06T10:13:05Z</time></trkpt><trkpt lat="38.43620829331024" lon="16.219521111864392"><ele>1093.0</ele><time>2026-04-06T10:13:06Z</time></trkpt><trkpt lat="38.43614993894739" lon="16.219297363352013"><ele>1093.0</ele><time>2026-04-06T10:13:07Z</time></trkpt><trkpt lat="38.43610287840728" lon="16.21907923785845"><ele>1093.0</ele><time>2026-04-06T10:13:08Z</time></trkpt><trkpt lat="38.4360665485768" lon="16.218877000344616"><ele>1093.0</ele><time>2026-04-06T10:13:09Z</time></trkpt><trkpt lat="38.43604104030321" lon="16.218717974609174"><ele>1090.5</ele><time>2026-04-06T10:13:10Z</time></trkpt><trkpt lat="38.436030161290326" lon="16.21854213378536"><ele>1088.0</ele><time>2026-04-06T10:13:11Z</time></trkpt><trkpt lat="38.4360374106278" lon="16.218358412666205"><ele>1085.5</ele><time>2026-04-06T10:13:12Z</time></trkpt><trkpt lat="38.436074848951954" lon="16.21817892541304"><ele>1083.0</ele><time>2026-04-06T10:13:13Z</time></trkpt><trkpt lat="38.43615074486736" lon="16.217989115385627"><ele>1082.0</ele><time>2026-04-06T10:13:14Z</time></trkpt><trkpt lat="38.43625858249788" lon="16.21779184962335"><ele>1081.0</ele><time>2026-04-06T10:13:15Z</time></trkpt><trkpt lat="38.43638031875509" lon="16.217603457624335"><ele>1080.0</ele><time>2026-04-06T10:13:16Z</time></trkpt><trkpt lat="38.43648864528997" lon="16.217404038349553"><ele>1079.3333333333333</ele><time>2026-04-06T10:13:17Z</time></trkpt><trkpt lat="38.436612293361776" lon="16.217199748929694"><ele>1078.6666666666665</ele><time>2026-04-06T10:13:18Z</time></trkpt><trkpt lat="38.436725801302494" lon="16.21700960243519"><ele>1078.0</ele><time>2026-04-06T10:13:19Z</time></trkpt><trkpt lat="38.436835903802226" lon="16.216844288405063"><ele>1078.0</ele><time>2026-04-06T10:13:20Z</time></trkpt><trkpt lat="38.43692686946739" lon="16.216687014273138"><ele>1078.0</ele><time>2026-04-06T10:13:21Z</time></trkpt><trkpt lat="38.43698690208724" lon="16.216511781447203"><ele>1078.0</ele><time>2026-04-06T10:13:22Z</time></trkpt><trkpt lat="38.43701562488947" lon="16.21632016409545"><ele>1076.5</ele><time>2026-04-06T10:13:23Z</time></trkpt><trkpt lat="38.43701210342325" lon="16.21612323969956"><ele>1075.0</ele><time>2026-04-06T10:13:24Z</time></trkpt><trkpt lat="38.43697207814908" lon="16.21594593635456"><ele>1073.5</ele><time>2026-04-06T10:13:25Z</time></trkpt><trkpt lat="38.43689780999031" lon="16.215786965822776"><ele>1072.0</ele><time>2026-04-06T10:13:26Z</time></trkpt><trkpt lat="38.43678231766887" lon="16.215634922580403"><ele>1065.3333333333333</ele><time>2026-04-06T10:13:27Z</time></trkpt><trkpt lat="38.43664317781706" lon="16.215493321261064"><ele>1058.6666666666667</ele><time>2026-04-06T10:13:28Z</time></trkpt><trkpt lat="38.43649039871226" lon="16.215365591528936"><ele>1052.0</ele><time>2026-04-06T10:13:29Z</time></trkpt><trkpt lat="38.43631994718038" lon="16.215345007462773"><ele>1054.6666666666667</ele><time>2026-04-06T10:13:30Z</time></trkpt><trkpt lat="38.43617399474704" lon="16.215369055259387"><ele>1057.3333333333333</ele><time>2026-04-06T10:13:31Z</time></trkpt><trkpt lat="38.43601666588635" lon="16.21541449314308"><ele>1060.0</ele><time>2026-04-06T10:13:32Z</time></trkpt><trkpt lat="38.4358310698669" lon="16.215474695011935"><ele>1060.0</ele><time>2026-04-06T10:13:33Z</time></trkpt><trkpt lat="38.4355738070508" lon="16.215531100467874"><ele>1060.0</ele><time>2026-04-06T10:13:34Z</time></trkpt><trkpt lat="38.435270323461694" lon="16.2155768415347"><ele>1060.0</ele><time>2026-04-06T10:13:35Z</time></trkpt><trkpt lat="38.43549867041644" lon="16.21557203847586"><ele>1060.0</ele><time>2026-04-06T10:13:36Z</time></trkpt><trkpt lat="38.4353349699868" lon="16.215628850365498"><ele>1060.0</ele><time>2026-04-06T10:13:37Z</time></trkpt><trkpt lat="38.43517766348588" lon="16.21562776249072"><ele>1060.6666666666665</ele><time>2026-04-06T10:13:38Z</time></trkpt><trkpt lat="38.435013654799036" lon="16.215612378226762"><ele>1061.3333333333333</ele><time>2026-04-06T10:13:39Z</time></trkpt><trkpt lat="38.43483449801941" lon="16.215582787330106"><ele>1062.0</ele><time>2026-04-06T10:13:40Z</time></trkpt><trkpt lat="38.43465259024018" lon="16.215524157582298"><ele>1059.6666666666667</ele><time>2026-04-06T10:13:41Z</time></trkpt><trkpt lat="38.43449005969641" lon="16.21543700600802"><ele>1057.3333333333335</ele><time>2026-04-06T10:13:42Z</time></trkpt><trkpt lat="38.43433547997868" lon="16.215336947994192"><ele>1055.0</ele><time>2026-04-06T10:13:43Z</time></trkpt><trkpt lat="38.434191002815844" lon="16.215215926559118"><ele>1055.0</ele><time>2026-04-06T10:13:44Z</time></trkpt><trkpt lat="38.43405922130219" lon="16.215079220291255"><ele>1055.0</ele><time>2026-04-06T10:13:45Z</time></trkpt><trkpt lat="38.433927794171446" lon="16.214917397224518"><ele>1055.0</ele><time>2026-04-06T10:13:46Z</time></trkpt><trkpt lat="38.433794587098404" lon="16.214744186637674"><ele>1053.0</ele><time>2026-04-06T10:13:47Z</time></trkpt><trkpt lat="38.433654374469626" lon="16.214556430822306"><ele>1051.0</ele><time>2026-04-06T10:13:48Z</time></trkpt><trkpt lat="38.43351915291157" lon="16.214372923161775"><ele>1049.0</ele><time>2026-04-06T10:13:49Z</time></trkpt><trkpt lat="38.43338507362446" lon="16.214186230754468"><ele>1049.0</ele><time>2026-04-06T10:13:50Z</time></trkpt><trkpt lat="38.433255178045194" lon="16.214009430688364"><ele>1049.0</ele><time>2026-04-06T10:13:51Z</time></trkpt><trkpt lat="38.43314142224354" lon="16.213850050165572"><ele>1049.0</ele><time>2026-04-06T10:13:52Z</time></trkpt><trkpt lat="38.43306420129578" lon="16.213708642790593"><ele>1050.0</ele><time>2026-04-06T10:13:53Z</time></trkpt><trkpt lat="38.43300598807048" lon="16.213562324999472"><ele>1051.0</ele><time>2026-04-06T10:13:54Z</time></trkpt><trkpt lat="38.43296669621209" lon="16.21341828993141"><ele>1052.0</ele><time>2026-04-06T10:13:55Z</time></trkpt><trkpt lat="38.432981108685354" lon="16.21330016689164"><ele>1053.0</ele><time>2026-04-06T10:13:56Z</time></trkpt><trkpt lat="38.43301690857788" lon="16.213180901078857"><ele>1054.0</ele><time>2026-04-06T10:13:57Z</time></trkpt><trkpt lat="38.43307472321259" lon="16.21303995070414"><ele>1050.6666666666665</ele><time>2026-04-06T10:13:58Z</time></trkpt><trkpt lat="38.43315823937494" lon="16.212844720376104"><ele>1047.3333333333333</ele><time>2026-04-06T10:13:59Z</time></trkpt><trkpt lat="38.43324737535846" lon="16.212611623724346"><ele>1044.0</ele><time>2026-04-06T10:14:00Z</time></trkpt><trkpt lat="38.43329701502665" lon="16.21241177668487"><ele>1043.6666666666667</ele><time>2026-04-06T10:14:01Z</time></trkpt><trkpt lat="38.43332184178245" lon="16.212201886075647"><ele>1043.3333333333335</ele><time>2026-04-06T10:14:02Z</time></trkpt><trkpt lat="38.433298175786206" lon="16.21198121097573"><ele>1043.0</ele><time>2026-04-06T10:14:03Z</time></trkpt><trkpt lat="38.433262692209084" lon="16.211755824025282"><ele>1043.0</ele><time>2026-04-06T10:14:04Z</time></trkpt><trkpt lat="38.43320192614855" lon="16.211543802440307"><ele>1043.0</ele><time>2026-04-06T10:14:05Z</time></trkpt><trkpt lat="38.43311288974068" lon="16.211341020171318"><ele>1043.0</ele><time>2026-04-06T10:14:06Z</time></trkpt><trkpt lat="38.43300862703664" lon="16.2111584165003"><ele>1046.6666666666667</ele><time>2026-04-06T10:14:07Z</time></trkpt><trkpt lat="38.43288003946048" lon="16.211013385436026"><ele>1050.3333333333333</ele><time>2026-04-06T10:14:08Z</time></trkpt><trkpt lat="38.43273256735927" lon="16.210889298322527"><ele>1054.0</ele><time>2026-04-06T10:14:09Z</time></trkpt><trkpt lat="38.4325827029309" lon="16.210753667049527"><ele>1054.3333333333333</ele><time>2026-04-06T10:14:10Z</time></trkpt><trkpt lat="38.432445708189874" lon="16.21061491597109"><ele>1054.6666666666667</ele><time>2026-04-06T10:14:11Z</time></trkpt><trkpt lat="38.43232642569359" lon="16.21046075361803"><ele>1055.0</ele><time>2026-04-06T10:14:12Z</time></trkpt><trkpt lat="38.43221433822839" lon="16.210303599093592"><ele>1051.6666666666667</ele><time>2026-04-06T10:14:13Z</time></trkpt><trkpt lat="38.432119389917304" lon="16.210131413249457"><ele>1048.3333333333333</ele><time>2026-04-06T10:14:14Z</time></trkpt><trkpt lat="38.43203440380006" lon="16.209931038207177"><ele>1045.0</ele><time>2026-04-06T10:14:15Z</time></trkpt><trkpt lat="38.43197344407684" lon="16.20973640295332"><ele>1043.0</ele><time>2026-04-06T10:14:16.001Z</time></trkpt><trkpt lat="38.43191591252617" lon="16.209527429445217"><ele>1041.0</ele><time>2026-04-06T10:14:17.001Z</time></trkpt><trkpt lat="38.431863883808695" lon="16.209299640822124"><ele>1039.0</ele><time>2026-04-06T10:14:18.001Z</time></trkpt><trkpt lat="38.431810328237084" lon="16.209053386126353"><ele>1037.6666666666665</ele><time>2026-04-06T10:14:19.001Z</time></trkpt><trkpt lat="38.431754439363644" lon="16.208794116648964"><ele>1036.3333333333333</ele><time>2026-04-06T10:14:20.001Z</time></trkpt><trkpt lat="38.43171042276572" lon="16.208534423787484"><ele>1035.0</ele><time>2026-04-06T10:14:21.001Z</time></trkpt><trkpt lat="38.43168410027388" lon="16.208262656303894"><ele>1035.5</ele><time>2026-04-06T10:14:22.001Z</time></trkpt><trkpt lat="38.43160568847824" lon="16.207987212318656"><ele>1036.0</ele><time>2026-04-06T10:14:23.001Z</time></trkpt><trkpt lat="38.431546182004396" lon="16.207714351130342"><ele>1036.0</ele><time>2026-04-06T10:14:24.001Z</time></trkpt><trkpt lat="38.43147915637603" lon="16.20748715455601"><ele>1036.0</ele><time>2026-04-06T10:14:25.001Z</time></trkpt><trkpt lat="38.43141153528647" lon="16.207284576487236"><ele>1036.0</ele><time>2026-04-06T10:14:26.001Z</time></trkpt><trkpt lat="38.43132972940731" lon="16.20708551071239"><ele>1036.6666666666665</ele><time>2026-04-06T10:14:27.001Z</time></trkpt><trkpt lat="38.43124993506604" lon="16.2069255954937"><ele>1037.3333333333333</ele><time>2026-04-06T10:14:28.001Z</time></trkpt><trkpt lat="38.43113519633832" lon="16.20673131088633"><ele>1038.0</ele><time>2026-04-06T10:14:29.001Z</time></trkpt><trkpt lat="38.43102888613061" lon="16.206550693261565"><ele>1039.0</ele><time>2026-04-06T10:14:30.001Z</time></trkpt><trkpt lat="38.43089526068285" lon="16.20638440115346"><ele>1040.0</ele><time>2026-04-06T10:14:31.001Z</time></trkpt><trkpt lat="38.43073029399295" lon="16.206256582892895"><ele>1041.0</ele><time>2026-04-06T10:14:32.001Z</time></trkpt><trkpt lat="38.43055934630845" lon="16.206148007125268"><ele>1039.0</ele><time>2026-04-06T10:14:33.001Z</time></trkpt><trkpt lat="38.43039992967071" lon="16.206034451820063"><ele>1037.0</ele><time>2026-04-06T10:14:34.001Z</time></trkpt><trkpt lat="38.43025569104963" lon="16.20592804058045"><ele>1035.0</ele><time>2026-04-06T10:14:35.001Z</time></trkpt><trkpt lat="38.43014894579639" lon="16.205837609323886"><ele>1035.0</ele><time>2026-04-06T10:14:36.001Z</time></trkpt><trkpt lat="38.43006799528167" lon="16.205754690927204"><ele>1035.0</ele><time>2026-04-06T10:14:37.001Z</time></trkpt><trkpt lat="38.42998179360463" lon="16.2056479189692"><ele>1035.0</ele><time>2026-04-06T10:14:38.001Z</time></trkpt><trkpt lat="38.429892487941146" lon="16.20551715697291"><ele>1035.0</ele><time>2026-04-06T10:14:39.001Z</time></trkpt><trkpt lat="38.429796655187644" lon="16.205352199467292"><ele>1036.3333333333333</ele><time>2026-04-06T10:14:40Z</time></trkpt><trkpt lat="38.42971532714779" lon="16.205184857746346"><ele>1037.6666666666665</ele><time>2026-04-06T10:14:41Z</time></trkpt><trkpt lat="38.429609517793004" lon="16.20495267860073"><ele>1039.0</ele><time>2026-04-06T10:14:42Z</time></trkpt><trkpt lat="38.42950766464023" lon="16.204723242451774"><ele>1036.3333333333333</ele><time>2026-04-06T10:14:43Z</time></trkpt><trkpt lat="38.42941247503328" lon="16.204508820205"><ele>1033.6666666666667</ele><time>2026-04-06T10:14:44Z</time></trkpt><trkpt lat="38.42929141740276" lon="16.204277019364856"><ele>1031.0</ele><time>2026-04-06T10:14:45Z</time></trkpt><trkpt lat="38.42919018952197" lon="16.204047936146132"><ele>1031.6666666666667</ele><time>2026-04-06T10:14:46Z</time></trkpt><trkpt lat="38.42907015580466" lon="16.20381336713077"><ele>1032.3333333333333</ele><time>2026-04-06T10:14:47Z</time></trkpt><trkpt lat="38.4289617987347" lon="16.203590656121456"><ele>1033.0</ele><time>2026-04-06T10:14:48Z</time></trkpt><trkpt lat="38.42886326926939" lon="16.20335599266231"><ele>1032.6666666666665</ele><time>2026-04-06T10:14:49Z</time></trkpt><trkpt lat="38.4287646856101" lon="16.203143940088594"><ele>1032.3333333333333</ele><time>2026-04-06T10:14:50Z</time></trkpt><trkpt lat="38.42866844664765" lon="16.20295488237755"><ele>1032.0</ele><time>2026-04-06T10:14:51Z</time></trkpt><trkpt lat="38.42858320187742" lon="16.20278687618825"><ele>1032.0</ele><time>2026-04-06T10:14:52Z</time></trkpt><trkpt lat="38.428522948960236" lon="16.202619069565596"><ele>1032.0</ele><time>2026-04-06T10:14:53Z</time></trkpt><trkpt lat="38.42847372956804" lon="16.202446944080226"><ele>1032.0</ele><time>2026-04-06T10:14:54Z</time></trkpt><trkpt lat="38.428424255886064" lon="16.202269352772944"><ele>1032.0</ele><time>2026-04-06T10:14:55Z</time></trkpt><trkpt lat="38.428414994333934" lon="16.202081361523152"><ele>1032.3333333333333</ele><time>2026-04-06T10:14:56Z</time></trkpt><trkpt lat="38.42841047546435" lon="16.201886846853448"><ele>1032.6666666666665</ele><time>2026-04-06T10:14:57Z</time></trkpt><trkpt lat="38.42841323035524" lon="16.201689879503768"><ele>1033.0</ele><time>2026-04-06T10:14:58Z</time></trkpt><trkpt lat="38.42845124379613" lon="16.201459394335235"><ele>1032.5</ele><time>2026-04-06T10:14:59Z</time></trkpt><trkpt lat="38.428507721019976" lon="16.201290191415858"><ele>1032.0</ele><time>2026-04-06T10:15:00Z</time></trkpt><trkpt lat="38.42856492961628" lon="16.201110322612205"><ele>1031.5</ele><time>2026-04-06T10:15:01Z</time></trkpt><trkpt lat="38.42861225831745" lon="16.200933483836938"><ele>1031.0</ele><time>2026-04-06T10:15:02Z</time></trkpt><trkpt lat="38.42865746806629" lon="16.200748708349504"><ele>1028.3333333333335</ele><time>2026-04-06T10:15:03Z</time></trkpt><trkpt lat="38.42868655626146" lon="16.200550660523444"><ele>1025.6666666666667</ele><time>2026-04-06T10:15:04Z</time></trkpt><trkpt lat="38.42869644650775" lon="16.20034858167763"><ele>1023.0</ele><time>2026-04-06T10:15:05Z</time></trkpt><trkpt lat="38.42866472681686" lon="16.200162750764857"><ele>1023.0</ele><time>2026-04-06T10:15:06Z</time></trkpt><trkpt lat="38.42861137989946" lon="16.200033695766898"><ele>1023.0</ele><time>2026-04-06T10:15:07Z</time></trkpt><trkpt lat="38.42851744506324" lon="16.199818924084568"><ele>1023.0</ele><time>2026-04-06T10:15:08Z</time></trkpt><trkpt lat="38.428424554183586" lon="16.19964048389007"><ele>1019.6666666666667</ele><time>2026-04-06T10:15:09Z</time></trkpt><trkpt lat="38.42831983720898" lon="16.199462460449514"><ele>1016.3333333333334</ele><time>2026-04-06T10:15:10Z</time></trkpt><trkpt lat="38.42820557893508" lon="16.19928884692032"><ele>1013.0</ele><time>2026-04-06T10:15:11Z</time></trkpt><trkpt lat="38.428088362477254" lon="16.199114702616907"><ele>1012.6666666666667</ele><time>2026-04-06T10:15:12Z</time></trkpt><trkpt lat="38.427951912336205" lon="16.198943181101132"><ele>1012.3333333333333</ele><time>2026-04-06T10:15:13Z</time></trkpt><trkpt lat="38.42782555891636" lon="16.198759032615122"><ele>1012.0</ele><time>2026-04-06T10:15:14Z</time></trkpt><trkpt lat="38.427701425714915" lon="16.19857636671036"><ele>1012.0</ele><time>2026-04-06T10:15:15Z</time></trkpt><trkpt lat="38.42757407669685" lon="16.198401814991275"><ele>1012.0</ele><time>2026-04-06T10:15:16Z</time></trkpt><trkpt lat="38.42746195282685" lon="16.19823697925827"><ele>1012.0</ele><time>2026-04-06T10:15:17Z</time></trkpt><trkpt lat="38.42735421851449" lon="16.198089734681815"><ele>1013.0</ele><time>2026-04-06T10:15:18Z</time></trkpt><trkpt lat="38.427246068551476" lon="16.197945409759345"><ele>1014.0</ele><time>2026-04-06T10:15:19Z</time></trkpt><trkpt lat="38.42714369609123" lon="16.19780090098324"><ele>1015.0</ele><time>2026-04-06T10:15:20Z</time></trkpt><trkpt lat="38.427069688262655" lon="16.197668434135124"><ele>1016.0</ele><time>2026-04-06T10:15:21Z</time></trkpt><trkpt lat="38.42699757127582" lon="16.197561413990197"><ele>1016.0</ele><time>2026-04-06T10:15:22Z</time></trkpt><trkpt lat="38.42691973950691" lon="16.19740392464095"><ele>1016.0</ele><time>2026-04-06T10:15:23Z</time></trkpt><trkpt lat="38.42686793122386" lon="16.197221230137227"><ele>1016.0</ele><time>2026-04-06T10:15:24Z</time></trkpt><trkpt lat="38.42682409519576" lon="16.197050700964542"><ele>1016.0</ele><time>2026-04-06T10:15:25Z</time></trkpt><trkpt lat="38.42683783354513" lon="16.19683902390544"><ele>1016.0</ele><time>2026-04-06T10:15:26Z</time></trkpt><trkpt lat="38.42684725406587" lon="16.196618403635735"><ele>1016.0</ele><time>2026-04-06T10:15:27Z</time></trkpt><trkpt lat="38.42683543557709" lon="16.196369730203877"><ele>1016.0</ele><time>2026-04-06T10:15:28Z</time></trkpt><trkpt lat="38.426830753433066" lon="16.196154798120283"><ele>1016.0</ele><time>2026-04-06T10:15:29Z</time></trkpt><trkpt lat="38.42682538687623" lon="16.195970596025873"><ele>1016.0</ele><time>2026-04-06T10:15:30Z</time></trkpt><trkpt lat="38.42676814826323" lon="16.195764028739184"><ele>1016.0</ele><time>2026-04-06T10:15:31Z</time></trkpt><trkpt lat="38.42671748193898" lon="16.195552922654134"><ele>1014.0</ele><time>2026-04-06T10:15:32Z</time></trkpt><trkpt lat="38.42664711847986" lon="16.195303487560814"><ele>1012.0</ele><time>2026-04-06T10:15:33Z</time></trkpt><trkpt lat="38.42654771124279" lon="16.195092493901026"><ele>1010.0</ele><time>2026-04-06T10:15:34Z</time></trkpt><trkpt lat="38.426447537592935" lon="16.19488389932595"><ele>1010.0</ele><time>2026-04-06T10:15:35Z</time></trkpt><trkpt lat="38.42630755393022" lon="16.194640686381895"><ele>1010.0</ele><time>2026-04-06T10:15:36Z</time></trkpt><trkpt lat="38.42619138610423" lon="16.1943980279583"><ele>1010.0</ele><time>2026-04-06T10:15:37Z</time></trkpt><trkpt lat="38.42609412045196" lon="16.19419918244797"><ele>1010.0</ele><time>2026-04-06T10:15:38Z</time></trkpt><trkpt lat="38.426033348404225" lon="16.19401749281782"><ele>1010.0</ele><time>2026-04-06T10:15:39Z</time></trkpt><trkpt lat="38.42600161635425" lon="16.193846691301506"><ele>1009.75</ele><time>2026-04-06T10:15:40Z</time></trkpt><trkpt lat="38.42599840707383" lon="16.193670536830332"><ele>1009.5</ele><time>2026-04-06T10:15:41Z</time></trkpt><trkpt lat="38.42600517693737" lon="16.19352227593835"><ele>1009.25</ele><time>2026-04-06T10:15:42Z</time></trkpt><trkpt lat="38.42605204383745" lon="16.19339665907788"><ele>1009.0</ele><time>2026-04-06T10:15:43Z</time></trkpt><trkpt lat="38.42615292237555" lon="16.193248517470064"><ele>1009.0</ele><time>2026-04-06T10:15:44Z</time></trkpt><trkpt lat="38.42625756745154" lon="16.193100329656342"><ele>1009.0</ele><time>2026-04-06T10:15:45Z</time></trkpt><trkpt lat="38.42635523132782" lon="16.192962062162202"><ele>1009.0</ele><time>2026-04-06T10:15:46Z</time></trkpt><trkpt lat="38.42646463270583" lon="16.19281309072342"><ele>1008.3333333333333</ele><time>2026-04-06T10:15:47Z</time></trkpt><trkpt lat="38.42656712198402" lon="16.19263316955066"><ele>1007.6666666666667</ele><time>2026-04-06T10:15:48Z</time></trkpt><trkpt lat="38.426655188828235" lon="16.192435366901286"><ele>1007.0</ele><time>2026-04-06T10:15:49Z</time></trkpt><trkpt lat="38.42675208611224" lon="16.19221566064505"><ele>1009.6666666666667</ele><time>2026-04-06T10:15:50Z</time></trkpt><trkpt lat="38.42683616252363" lon="16.19199777228354"><ele>1012.3333333333333</ele><time>2026-04-06T10:15:51Z</time></trkpt><trkpt lat="38.426930282821345" lon="16.191786944026145"><ele>1015.0</ele><time>2026-04-06T10:15:52Z</time></trkpt><trkpt lat="38.42699442394939" lon="16.191566367364164"><ele>1016.0</ele><time>2026-04-06T10:15:53Z</time></trkpt><trkpt lat="38.427057922054004" lon="16.191349735662826"><ele>1017.0</ele><time>2026-04-06T10:15:54Z</time></trkpt><trkpt lat="38.42712412334263" lon="16.191149996061565"><ele>1018.0</ele><time>2026-04-06T10:15:55Z</time></trkpt><trkpt lat="38.42720088851095" lon="16.190932331831895"><ele>1015.6666666666666</ele><time>2026-04-06T10:15:56Z</time></trkpt><trkpt lat="38.427282165017814" lon="16.190736215658433"><ele>1013.3333333333333</ele><time>2026-04-06T10:15:57Z</time></trkpt><trkpt lat="38.42735491538224" lon="16.19055765699631"><ele>1011.0</ele><time>2026-04-06T10:15:58Z</time></trkpt><trkpt lat="38.42741850849342" lon="16.190358877405263"><ele>1009.25</ele><time>2026-04-06T10:15:59Z</time></trkpt><trkpt lat="38.42746877848584" lon="16.19018223102095"><ele>1007.5</ele><time>2026-04-06T10:16:00Z</time></trkpt><trkpt lat="38.42750396664751" lon="16.190003610217644"><ele>1005.75</ele><time>2026-04-06T10:16:01Z</time></trkpt><trkpt lat="38.42751147862519" lon="16.189805116895144"><ele>1004.0</ele><time>2026-04-06T10:16:02Z</time></trkpt><trkpt lat="38.42748774290664" lon="16.18958958361145"><ele>1002.3333333333334</ele><time>2026-04-06T10:16:03Z</time></trkpt><trkpt lat="38.427439549872624" lon="16.18939599964426"><ele>1000.6666666666667</ele><time>2026-04-06T10:16:04Z</time></trkpt><trkpt lat="38.42737812070764" lon="16.189202147746325"><ele>999.0</ele><time>2026-04-06T10:16:05Z</time></trkpt><trkpt lat="38.42730038905718" lon="16.189006098728722"><ele>998.6666666666667</ele><time>2026-04-06T10:16:06Z</time></trkpt><trkpt lat="38.427226710564156" lon="16.188832945626007"><ele>998.3333333333334</ele><time>2026-04-06T10:16:07Z</time></trkpt><trkpt lat="38.42711915147672" lon="16.188613671390225"><ele>998.0</ele><time>2026-04-06T10:16:08Z</time></trkpt><trkpt lat="38.426973409066505" lon="16.188441144969726"><ele>998.3333333333334</ele><time>2026-04-06T10:16:09Z</time></trkpt><trkpt lat="38.426808727840324" lon="16.18829135138587"><ele>998.6666666666667</ele><time>2026-04-06T10:16:10Z</time></trkpt><trkpt lat="38.42667448826232" lon="16.188107799693217"><ele>999.0</ele><time>2026-04-06T10:16:11Z</time></trkpt><trkpt lat="38.42651570334835" lon="16.18792465472743"><ele>999.0</ele><time>2026-04-06T10:16:12Z</time></trkpt><trkpt lat="38.42634521289782" lon="16.187752310665584"><ele>999.0</ele><time>2026-04-06T10:16:13Z</time></trkpt><trkpt lat="38.42617903250967" lon="16.18757807307747"><ele>999.0</ele><time>2026-04-06T10:16:14Z</time></trkpt><trkpt lat="38.426031083303506" lon="16.187410689183363"><ele>1001.0</ele><time>2026-04-06T10:16:15Z</time></trkpt><trkpt lat="38.425905907755435" lon="16.18727017584385"><ele>1003.0</ele><time>2026-04-06T10:16:16Z</time></trkpt><trkpt lat="38.42579611129473" lon="16.187131611514353"><ele>1005.0</ele><time>2026-04-06T10:16:17Z</time></trkpt><trkpt lat="38.42571006790641" lon="16.18699770771255"><ele>1005.0</ele><time>2026-04-06T10:16:18Z</time></trkpt><trkpt lat="38.42565778989158" lon="16.186869103753985"><ele>1005.0</ele><time>2026-04-06T10:16:19Z</time></trkpt><trkpt lat="38.42563460757992" lon="16.186722760689584"><ele>1005.0</ele><time>2026-04-06T10:16:20Z</time></trkpt><trkpt lat="38.42567875227062" lon="16.186581561124505"><ele>1005.0</ele><time>2026-04-06T10:16:21Z</time></trkpt><trkpt lat="38.4257111914982" lon="16.186429216762235"><ele>1004.75</ele><time>2026-04-06T10:16:22.001Z</time></trkpt><trkpt lat="38.42576138267164" lon="16.186290539146707"><ele>1004.5</ele><time>2026-04-06T10:16:23.001Z</time></trkpt><trkpt lat="38.425838507392534" lon="16.18615881404833"><ele>1004.25</ele><time>2026-04-06T10:16:24.001Z</time></trkpt><trkpt lat="38.42594086665465" lon="16.186016491616893"><ele>1004.0</ele><time>2026-04-06T10:16:25.001Z</time></trkpt><trkpt lat="38.42602201695972" lon="16.185857311789395"><ele>1004.0</ele><time>2026-04-06T10:16:26.001Z</time></trkpt><trkpt lat="38.42607042990073" lon="16.1856638088384"><ele>1004.0</ele><time>2026-04-06T10:16:27.001Z</time></trkpt><trkpt lat="38.4260980565043" lon="16.185439268886846"><ele>1004.0</ele><time>2026-04-06T10:16:28.001Z</time></trkpt><trkpt lat="38.426108725798336" lon="16.185218545539485"><ele>1004.0</ele><time>2026-04-06T10:16:29.001Z</time></trkpt><trkpt lat="38.426099073605045" lon="16.18496241526392"><ele>1004.0</ele><time>2026-04-06T10:16:30.001Z</time></trkpt><trkpt lat="38.42607531595528" lon="16.184679450796345"><ele>1004.0</ele><time>2026-04-06T10:16:31.001Z</time></trkpt><trkpt lat="38.42605338320903" lon="16.184408444125452"><ele>1004.6666666666667</ele><time>2026-04-06T10:16:32.001Z</time></trkpt><trkpt lat="38.42603476655364" lon="16.184144354612226"><ele>1005.3333333333333</ele><time>2026-04-06T10:16:33.001Z</time></trkpt><trkpt lat="38.42602127167149" lon="16.183880676349936"><ele>1006.0</ele><time>2026-04-06T10:16:34.001Z</time></trkpt><trkpt lat="38.42602179378462" lon="16.18364965682907"><ele>1006.0</ele><time>2026-04-06T10:16:35.001Z</time></trkpt><trkpt lat="38.42600036752227" lon="16.183418324663997"><ele>1006.0</ele><time>2026-04-06T10:16:36.001Z</time></trkpt><trkpt lat="38.4259711587555" lon="16.183200043046806"><ele>1006.0</ele><time>2026-04-06T10:16:37.001Z</time></trkpt><trkpt lat="38.42597654921196" lon="16.183066434432867"><ele>1006.0</ele><time>2026-04-06T10:16:38.001Z</time></trkpt><trkpt lat="38.425915383866325" lon="16.18289083007562"><ele>1006.0</ele><time>2026-04-06T10:16:39.001Z</time></trkpt><trkpt lat="38.425824587111954" lon="16.182710588455027"><ele>1006.0</ele><time>2026-04-06T10:16:40.001Z</time></trkpt><trkpt lat="38.42570920960321" lon="16.182552576412295"><ele>1006.0</ele><time>2026-04-06T10:16:41.001Z</time></trkpt><trkpt lat="38.42553523458728" lon="16.18245633073489"><ele>1006.0</ele><time>2026-04-06T10:16:42.001Z</time></trkpt><trkpt lat="38.42535685742269" lon="16.18238583768131"><ele>1006.0</ele><time>2026-04-06T10:16:43.001Z</time></trkpt><trkpt lat="38.425167323266855" lon="16.182348098336686"><ele>1002.6666666666666</ele><time>2026-04-06T10:16:44.001Z</time></trkpt><trkpt lat="38.4249596281685" lon="16.182330419523975"><ele>999.3333333333333</ele><time>2026-04-06T10:16:45.001Z</time></trkpt><trkpt lat="38.42473663430931" lon="16.182331322112873"><ele>996.0</ele><time>2026-04-06T10:16:46Z</time></trkpt><trkpt lat="38.42448837191955" lon="16.182325680364627"><ele>994.0</ele><time>2026-04-06T10:16:47Z</time></trkpt><trkpt lat="38.42423007070098" lon="16.182309149082197"><ele>992.0</ele><time>2026-04-06T10:16:48Z</time></trkpt><trkpt lat="38.42398848453569" lon="16.18229376109765"><ele>993.3333333333334</ele><time>2026-04-06T10:16:49Z</time></trkpt><trkpt lat="38.42379157373477" lon="16.182290838857824"><ele>994.6666666666667</ele><time>2026-04-06T10:16:50Z</time></trkpt><trkpt lat="38.42362891334024" lon="16.182270525758703"><ele>996.0</ele><time>2026-04-06T10:16:51Z</time></trkpt><trkpt lat="38.4234619008124" lon="16.182215990024797"><ele>996.0</ele><time>2026-04-06T10:16:52Z</time></trkpt><trkpt lat="38.42331300084838" lon="16.182137989897285"><ele>996.0</ele><time>2026-04-06T10:16:53Z</time></trkpt><trkpt lat="38.42317919413809" lon="16.182021004904353"><ele>996.0</ele><time>2026-04-06T10:16:54Z</time></trkpt><trkpt lat="38.42307163691662" lon="16.181861346312566"><ele>996.0</ele><time>2026-04-06T10:16:55Z</time></trkpt><trkpt lat="38.42299986617761" lon="16.181643542301398"><ele>996.0</ele><time>2026-04-06T10:16:56Z</time></trkpt><trkpt lat="38.42293713769996" lon="16.18142889386259"><ele>996.0</ele><time>2026-04-06T10:16:57Z</time></trkpt><trkpt lat="38.42288466404819" lon="16.181246467726034"><ele>999.0</ele><time>2026-04-06T10:16:58Z</time></trkpt><trkpt lat="38.42283764607344" lon="16.181070742037893"><ele>1002.0</ele><time>2026-04-06T10:16:59Z</time></trkpt><trkpt lat="38.42227324409393" lon="16.18128140025655"><ele>1002.0</ele><time>2026-04-06T10:17:00Z</time></trkpt><trkpt lat="38.42208927970564" lon="16.181210852166718"><ele>1002.0</ele><time>2026-04-06T10:17:01Z</time></trkpt><trkpt lat="38.42189979770342" lon="16.181125732214895"><ele>1002.0</ele><time>2026-04-06T10:17:02Z</time></trkpt><trkpt lat="38.421687539370964" lon="16.18104370654054"><ele>1002.0</ele><time>2026-04-06T10:17:03Z</time></trkpt><trkpt lat="38.42147688203039" lon="16.180964259186652"><ele>1002.0</ele><time>2026-04-06T10:17:04Z</time></trkpt><trkpt lat="38.42127246075365" lon="16.180889325003584"><ele>1002.0</ele><time>2026-04-06T10:17:05Z</time></trkpt><trkpt lat="38.42106483313946" lon="16.180830026984342"><ele>1000.6666666666667</ele><time>2026-04-06T10:17:06Z</time></trkpt><trkpt lat="38.42088346519239" lon="16.18076904850274"><ele>999.3333333333334</ele><time>2026-04-06T10:17:07Z</time></trkpt><trkpt lat="38.42072407210626" lon="16.18071825198687"><ele>998.0</ele><time>2026-04-06T10:17:08Z</time></trkpt><trkpt lat="38.420571381586626" lon="16.180645728847765"><ele>995.6666666666667</ele><time>2026-04-06T10:17:09Z</time></trkpt><trkpt lat="38.42041826610693" lon="16.18058190115538"><ele>993.3333333333333</ele><time>2026-04-06T10:17:10Z</time></trkpt><trkpt lat="38.42027379565065" lon="16.18050858674527"><ele>991.0</ele><time>2026-04-06T10:17:11Z</time></trkpt><trkpt lat="38.42013866636897" lon="16.180437111899323"><ele>991.0</ele><time>2026-04-06T10:17:12Z</time></trkpt><trkpt lat="38.420018047833494" lon="16.18035228660983"><ele>991.0</ele><time>2026-04-06T10:17:13Z</time></trkpt><trkpt lat="38.41991997482212" lon="16.180216308296718"><ele>991.0</ele><time>2026-04-06T10:17:14Z</time></trkpt><trkpt lat="38.41984461828421" lon="16.180050276106677"><ele>991.0</ele><time>2026-04-06T10:17:15Z</time></trkpt><trkpt lat="38.419795332076674" lon="16.179868807471166"><ele>989.0</ele><time>2026-04-06T10:17:16Z</time></trkpt><trkpt lat="38.4197789603964" lon="16.17966960337478"><ele>987.0</ele><time>2026-04-06T10:17:17Z</time></trkpt><trkpt lat="38.419798659226515" lon="16.179486185421045"><ele>985.0</ele><time>2026-04-06T10:17:18Z</time></trkpt><trkpt lat="38.41986147359327" lon="16.179291718400272"><ele>985.0</ele><time>2026-04-06T10:17:19Z</time></trkpt><trkpt lat="38.41996835970367" lon="16.179097905733673"><ele>985.0</ele><time>2026-04-06T10:17:20Z</time></trkpt><trkpt lat="38.420088384848746" lon="16.17891664476349"><ele>985.0</ele><time>2026-04-06T10:17:21Z</time></trkpt><trkpt lat="38.42025021522659" lon="16.17878839271025"><ele>985.3333333333333</ele><time>2026-04-06T10:17:22Z</time></trkpt><trkpt lat="38.4203682268913" lon="16.17865085174941"><ele>985.6666666666667</ele><time>2026-04-06T10:17:23Z</time></trkpt><trkpt lat="38.4204536844845" lon="16.178361082833586"><ele>986.0</ele><time>2026-04-06T10:17:24Z</time></trkpt><trkpt lat="38.42053525367304" lon="16.17818850574659"><ele>983.75</ele><time>2026-04-06T10:17:25Z</time></trkpt><trkpt lat="38.4206117410713" lon="16.1780308340587"><ele>981.5</ele><time>2026-04-06T10:17:26Z</time></trkpt><trkpt lat="38.42067146251349" lon="16.177897926954227"><ele>979.25</ele><time>2026-04-06T10:17:27Z</time></trkpt><trkpt lat="38.42071750807439" lon="16.177742163958545"><ele>977.0</ele><time>2026-04-06T10:17:28Z</time></trkpt><trkpt lat="38.4207563886915" lon="16.177575393760698"><ele>977.0</ele><time>2026-04-06T10:17:29Z</time></trkpt><trkpt lat="38.4207674259966" lon="16.177419242972306"><ele>977.0</ele><time>2026-04-06T10:17:30Z</time></trkpt><trkpt lat="38.42076009995793" lon="16.177264266980263"><ele>977.0</ele><time>2026-04-06T10:17:31Z</time></trkpt><trkpt lat="38.42073953399856" lon="16.177114929512594"><ele>977.0</ele><time>2026-04-06T10:17:32Z</time></trkpt><trkpt lat="38.420663856103275" lon="16.176968368719738"><ele>975.6666666666667</ele><time>2026-04-06T10:17:33Z</time></trkpt><trkpt lat="38.4205663304609" lon="16.17680932390665"><ele>974.3333333333333</ele><time>2026-04-06T10:17:34Z</time></trkpt><trkpt lat="38.42041708918057" lon="16.176665598206753"><ele>973.0</ele><time>2026-04-06T10:17:35Z</time></trkpt><trkpt lat="38.420257538570326" lon="16.17651520698389"><ele>967.6666666666666</ele><time>2026-04-06T10:17:36Z</time></trkpt><trkpt lat="38.42009352380087" lon="16.17636776595262"><ele>962.3333333333333</ele><time>2026-04-06T10:17:37Z</time></trkpt><trkpt lat="38.41993210741822" lon="16.176214717783193"><ele>957.0</ele><time>2026-04-06T10:17:38Z</time></trkpt><trkpt lat="38.41976731340417" lon="16.176084757534326"><ele>959.6666666666667</ele><time>2026-04-06T10:17:39Z</time></trkpt><trkpt lat="38.4196121406304" lon="16.175946543589603"><ele>962.3333333333334</ele><time>2026-04-06T10:17:40Z</time></trkpt><trkpt lat="38.41946996836208" lon="16.175811961185445"><ele>965.0</ele><time>2026-04-06T10:17:41Z</time></trkpt><trkpt lat="38.419320259496686" lon="16.175725199919555"><ele>963.5</ele><time>2026-04-06T10:17:42Z</time></trkpt><trkpt lat="38.41923509218714" lon="16.175588773950857"><ele>962.0</ele><time>2026-04-06T10:17:43Z</time></trkpt><trkpt lat="38.41912213438349" lon="16.17551738906346"><ele>960.5</ele><time>2026-04-06T10:17:44Z</time></trkpt><trkpt lat="38.41901345898877" lon="16.175448933267642"><ele>959.0</ele><time>2026-04-06T10:17:45Z</time></trkpt><trkpt lat="38.4188801340095" lon="16.17544154814529"><ele>956.5</ele><time>2026-04-06T10:17:46Z</time></trkpt><trkpt lat="38.41874128899948" lon="16.175438768499024"><ele>954.0</ele><time>2026-04-06T10:17:47Z</time></trkpt><trkpt lat="38.41861173358252" lon="16.175480808164718"><ele>951.5</ele><time>2026-04-06T10:17:48Z</time></trkpt><trkpt lat="38.4184814157544" lon="16.175591283508716"><ele>949.0</ele><time>2026-04-06T10:17:49Z</time></trkpt><trkpt lat="38.41837608158194" lon="16.175693826872614"><ele>949.0</ele><time>2026-04-06T10:17:50Z</time></trkpt><trkpt lat="38.418299449238546" lon="16.175812719152557"><ele>949.0</ele><time>2026-04-06T10:17:51Z</time></trkpt><trkpt lat="38.418229087627395" lon="16.175971597343842"><ele>949.0</ele><time>2026-04-06T10:17:52Z</time></trkpt><trkpt lat="38.41817653583587" lon="16.176206502647116"><ele>949.0</ele><time>2026-04-06T10:17:53Z</time></trkpt><trkpt lat="38.418106495620584" lon="16.176400503890054"><ele>949.0</ele><time>2026-04-06T10:17:54Z</time></trkpt><trkpt lat="38.418075305380476" lon="16.176583207139235"><ele>949.0</ele><time>2026-04-06T10:17:55Z</time></trkpt><trkpt lat="38.4180286232345" lon="16.176716749961013"><ele>949.0</ele><time>2026-04-06T10:17:56Z</time></trkpt><trkpt lat="38.417966972914336" lon="16.17685201630836"><ele>943.6666666666666</ele><time>2026-04-06T10:17:57Z</time></trkpt><trkpt lat="38.41786066171762" lon="16.17699563482529"><ele>938.3333333333333</ele><time>2026-04-06T10:17:58Z</time></trkpt><trkpt lat="38.41775201060423" lon="16.177156012966005"><ele>933.0</ele><time>2026-04-06T10:17:59Z</time></trkpt><trkpt lat="38.41761420257797" lon="16.177309305079746"><ele>936.3333333333333</ele><time>2026-04-06T10:18:00Z</time></trkpt><trkpt lat="38.41747631243339" lon="16.177471447142874"><ele>939.6666666666666</ele><time>2026-04-06T10:18:01Z</time></trkpt><trkpt lat="38.41735391263915" lon="16.177621420909958"><ele>943.0</ele><time>2026-04-06T10:18:02Z</time></trkpt><trkpt lat="38.41725159025547" lon="16.17775792397888"><ele>943.0</ele><time>2026-04-06T10:18:03Z</time></trkpt><trkpt lat="38.41715962116606" lon="16.177867164395792"><ele>943.0</ele><time>2026-04-06T10:18:04Z</time></trkpt><trkpt lat="38.417066156622695" lon="16.17796207445093"><ele>943.0</ele><time>2026-04-06T10:18:05Z</time></trkpt><trkpt lat="38.41697606434932" lon="16.178024241384218"><ele>943.0</ele><time>2026-04-06T10:18:06Z</time></trkpt><trkpt lat="38.41686543876162" lon="16.178069597755428"><ele>936.5</ele><time>2026-04-06T10:18:07Z</time></trkpt><trkpt lat="38.41675319346673" lon="16.17807131706655"><ele>930.0</ele><time>2026-04-06T10:18:08Z</time></trkpt><trkpt lat="38.41662677610392" lon="16.17801069017146"><ele>923.5</ele><time>2026-04-06T10:18:09Z</time></trkpt><trkpt lat="38.41651402928279" lon="16.17786979217048"><ele>917.0</ele><time>2026-04-06T10:18:10Z</time></trkpt><trkpt lat="38.41640063705257" lon="16.17771795039127"><ele>914.3333333333334</ele><time>2026-04-06T10:18:11Z</time></trkpt><trkpt lat="38.4162916415321" lon="16.177549788473055"><ele>911.6666666666667</ele><time>2026-04-06T10:18:12Z</time></trkpt><trkpt lat="38.41617319883483" lon="16.177368143582598"><ele>909.0</ele><time>2026-04-06T10:18:13Z</time></trkpt><trkpt lat="38.41605176393116" lon="16.177197833354985"><ele>909.0</ele><time>2026-04-06T10:18:14Z</time></trkpt><trkpt lat="38.41594568513952" lon="16.177025771608847"><ele>909.0</ele><time>2026-04-06T10:18:15Z</time></trkpt><trkpt lat="38.41586141070421" lon="16.1768622602835"><ele>909.0</ele><time>2026-04-06T10:18:16Z</time></trkpt><trkpt lat="38.41576694852783" lon="16.17672990381596"><ele>909.0</ele><time>2026-04-06T10:18:17Z</time></trkpt><trkpt lat="38.4156653156371" lon="16.176650565953977"><ele>909.0000000000001</ele><time>2026-04-06T10:18:18Z</time></trkpt><trkpt lat="38.41558562302746" lon="16.176633338970248"><ele>909.0000000000001</ele><time>2026-04-06T10:18:19Z</time></trkpt><trkpt lat="38.4155147938126" lon="16.176655072202063"><ele>909.0</ele><time>2026-04-06T10:18:20Z</time></trkpt><trkpt lat="38.415434134485714" lon="16.176699482458098"><ele>909.0</ele><time>2026-04-06T10:18:21Z</time></trkpt><trkpt lat="38.41533523473289" lon="16.176763046771878"><ele>909.0</ele><time>2026-04-06T10:18:22Z</time></trkpt><trkpt lat="38.4152150002698" lon="16.176814109905326"><ele>909.0</ele><time>2026-04-06T10:18:23Z</time></trkpt><trkpt lat="38.41507931534333" lon="16.176824459812416"><ele>909.0</ele><time>2026-04-06T10:18:24Z</time></trkpt><trkpt lat="38.414919368803936" lon="16.176812431713444"><ele>909.0</ele><time>2026-04-06T10:18:25Z</time></trkpt><trkpt lat="38.414749677509114" lon="16.176776528805036"><ele>909.3333333333333</ele><time>2026-04-06T10:18:26Z</time></trkpt><trkpt lat="38.4145630826353" lon="16.176725130506416"><ele>909.6666666666666</ele><time>2026-04-06T10:18:27Z</time></trkpt><trkpt lat="38.41436744510883" lon="16.176669259643045"><ele>910.0</ele><time>2026-04-06T10:18:28Z</time></trkpt><trkpt lat="38.414160544086045" lon="16.176595981350452"><ele>910.0</ele><time>2026-04-06T10:18:29Z</time></trkpt><trkpt lat="38.41395507870792" lon="16.176524683287624"><ele>910.0</ele><time>2026-04-06T10:18:30Z</time></trkpt><trkpt lat="38.41376286952662" lon="16.176461994619913"><ele>910.0</ele><time>2026-04-06T10:18:31Z</time></trkpt><trkpt lat="38.41357890498955" lon="16.176408324537114"><ele>906.25</ele><time>2026-04-06T10:18:32Z</time></trkpt><trkpt lat="38.41340675375593" lon="16.176359093040272"><ele>902.5</ele><time>2026-04-06T10:18:33Z</time></trkpt><trkpt lat="38.4132608189554" lon="16.176320623759448"><ele>898.75</ele><time>2026-04-06T10:18:34Z</time></trkpt><trkpt lat="38.41314411185802" lon="16.17630059065153"><ele>895.0</ele><time>2026-04-06T10:18:35Z</time></trkpt><trkpt lat="38.41303748381487" lon="16.176307331872717"><ele>894.25</ele><time>2026-04-06T10:18:36Z</time></trkpt><trkpt lat="38.41293941663797" lon="16.176368602865438"><ele>893.5</ele><time>2026-04-06T10:18:37Z</time></trkpt><trkpt lat="38.4128545738207" lon="16.176489561097597"><ele>892.75</ele><time>2026-04-06T10:18:38Z</time></trkpt><trkpt lat="38.41278348187549" lon="16.176651120500303"><ele>892.0</ele><time>2026-04-06T10:18:39Z</time></trkpt><trkpt lat="38.41273187018592" lon="16.17682414905583"><ele>893.75</ele><time>2026-04-06T10:18:40Z</time></trkpt><trkpt lat="38.41268584352225" lon="16.176963901380187"><ele>895.5</ele><time>2026-04-06T10:18:41Z</time></trkpt><trkpt lat="38.412607565862615" lon="16.177062009702286"><ele>897.25</ele><time>2026-04-06T10:18:42Z</time></trkpt><trkpt lat="38.412501074096056" lon="16.177133008518204"><ele>899.0</ele><time>2026-04-06T10:18:43.001Z</time></trkpt><trkpt lat="38.41236712037186" lon="16.17716702496017"><ele>899.0</ele><time>2026-04-06T10:18:44.001Z</time></trkpt><trkpt lat="38.41222033721734" lon="16.177173569357407"><ele>899.0</ele><time>2026-04-06T10:18:45.001Z</time></trkpt><trkpt lat="38.41206131678997" lon="16.177150156457063"><ele>899.0</ele><time>2026-04-06T10:18:46.001Z</time></trkpt><trkpt lat="38.41189922010389" lon="16.17712118493812"><ele>896.4000000000001</ele><time>2026-04-06T10:18:47.001Z</time></trkpt><trkpt lat="38.41176985249279" lon="16.177110103454652"><ele>893.8000000000001</ele><time>2026-04-06T10:18:48.001Z</time></trkpt><trkpt lat="38.411694716845204" lon="16.177128847933606"><ele>891.1999999999999</ele><time>2026-04-06T10:18:49.001Z</time></trkpt><trkpt lat="38.41163300124233" lon="16.17715677895677"><ele>888.5999999999999</ele><time>2026-04-06T10:18:50.001Z</time></trkpt><trkpt lat="38.41155355425338" lon="16.17721648098864"><ele>886.0</ele><time>2026-04-06T10:18:51.001Z</time></trkpt><trkpt lat="38.41144340739444" lon="16.17730745217399"><ele>886.0</ele><time>2026-04-06T10:18:52Z</time></trkpt><trkpt lat="38.41131987160272" lon="16.17743444448794"><ele>886.0</ele><time>2026-04-06T10:18:53Z</time></trkpt><trkpt lat="38.41117626113743" lon="16.177584431645002"><ele>886.0</ele><time>2026-04-06T10:18:54Z</time></trkpt><trkpt lat="38.411031912300636" lon="16.177733178230596"><ele>886.0</ele><time>2026-04-06T10:18:55Z</time></trkpt><trkpt lat="38.41087002327153" lon="16.17789968111338"><ele>886.0</ele><time>2026-04-06T10:18:56Z</time></trkpt><trkpt lat="38.41070734845065" lon="16.178061383612825"><ele>886.0</ele><time>2026-04-06T10:18:57Z</time></trkpt><trkpt lat="38.41054567298201" lon="16.178223090370448"><ele>886.0</ele><time>2026-04-06T10:18:58Z</time></trkpt><trkpt lat="38.4104007954949" lon="16.17836184175184"><ele>886.0</ele><time>2026-04-06T10:18:59Z</time></trkpt><trkpt lat="38.41026420370987" lon="16.178463475033144"><ele>886.0</ele><time>2026-04-06T10:19:00Z</time></trkpt><trkpt lat="38.410114344835456" lon="16.17852069912203"><ele>886.0</ele><time>2026-04-06T10:19:01Z</time></trkpt><trkpt lat="38.40992776572746" lon="16.17852474030726"><ele>886.0</ele><time>2026-04-06T10:19:02Z</time></trkpt><trkpt lat="38.40971785333026" lon="16.178511118190123"><ele>886.0</ele><time>2026-04-06T10:19:03Z</time></trkpt><trkpt lat="38.409491627197106" lon="16.17850750581724"><ele>886.5</ele><time>2026-04-06T10:19:04Z</time></trkpt><trkpt lat="38.4092556172775" lon="16.17851166520936"><ele>887.0</ele><time>2026-04-06T10:19:05Z</time></trkpt><trkpt lat="38.40904119239874" lon="16.178518118695994"><ele>887.0</ele><time>2026-04-06T10:19:06Z</time></trkpt><trkpt lat="38.408846807395385" lon="16.178525943638615"><ele>887.0</ele><time>2026-04-06T10:19:07Z</time></trkpt><trkpt lat="38.40867195265766" lon="16.17853127180653"><ele>887.0</ele><time>2026-04-06T10:19:08Z</time></trkpt><trkpt lat="38.40851487504595" lon="16.17853906332827"><ele>885.6666666666667</ele><time>2026-04-06T10:19:09Z</time></trkpt><trkpt lat="38.40836196854199" lon="16.178554282390206"><ele>884.3333333333333</ele><time>2026-04-06T10:19:10Z</time></trkpt><trkpt lat="38.40820088363984" lon="16.178580100033685"><ele>883.0</ele><time>2026-04-06T10:19:11Z</time></trkpt><trkpt lat="38.40803937035849" lon="16.17863659101872"><ele>883.0</ele><time>2026-04-06T10:19:12Z</time></trkpt><trkpt lat="38.40790237137065" lon="16.178769039916972"><ele>883.0</ele><time>2026-04-06T10:19:13Z</time></trkpt><trkpt lat="38.40774045283395" lon="16.178915808197008"><ele>883.0</ele><time>2026-04-06T10:19:14Z</time></trkpt><trkpt lat="38.40757268842758" lon="16.179070970220945"><ele>883.0</ele><time>2026-04-06T10:19:15Z</time></trkpt><trkpt lat="38.407393854227394" lon="16.179230221130386"><ele>883.0</ele><time>2026-04-06T10:19:16Z</time></trkpt><trkpt lat="38.40721214934327" lon="16.17938621666969"><ele>883.0</ele><time>2026-04-06T10:19:17Z</time></trkpt><trkpt lat="38.40703771852375" lon="16.17953650784047"><ele>883.0</ele><time>2026-04-06T10:19:18Z</time></trkpt><trkpt lat="38.406875316132975" lon="16.17968242377315"><ele>883.0</ele><time>2026-04-06T10:19:19Z</time></trkpt><trkpt lat="38.40671473513031" lon="16.1798311015078"><ele>883.0</ele><time>2026-04-06T10:19:20Z</time></trkpt><trkpt lat="38.40655118896779" lon="16.17997765554848"><ele>883.6666666666666</ele><time>2026-04-06T10:19:21Z</time></trkpt><trkpt lat="38.40638284922139" lon="16.180121212801943"><ele>884.3333333333333</ele><time>2026-04-06T10:19:22Z</time></trkpt><trkpt lat="38.40623761169158" lon="16.180248327135924"><ele>885.0</ele><time>2026-04-06T10:19:23Z</time></trkpt><trkpt lat="38.40609705362054" lon="16.180367116309856"><ele>886.6666666666667</ele><time>2026-04-06T10:19:24Z</time></trkpt><trkpt lat="38.40595375297942" lon="16.18046734512677"><ele>888.3333333333334</ele><time>2026-04-06T10:19:25Z</time></trkpt><trkpt lat="38.40579035131485" lon="16.180567487943605"><ele>890.0</ele><time>2026-04-06T10:19:26Z</time></trkpt><trkpt lat="38.405625759773045" lon="16.180641573654356"><ele>892.3333333333334</ele><time>2026-04-06T10:19:27Z</time></trkpt><trkpt lat="38.40547596177001" lon="16.180715390949143"><ele>894.6666666666667</ele><time>2026-04-06T10:19:28Z</time></trkpt><trkpt lat="38.40532153828869" lon="16.180770335342462"><ele>897.0</ele><time>2026-04-06T10:19:29Z</time></trkpt><trkpt lat="38.40515712025105" lon="16.180820710639004"><ele>897.0</ele><time>2026-04-06T10:19:30Z</time></trkpt><trkpt lat="38.404994962372086" lon="16.180806405942914"><ele>897.0</ele><time>2026-04-06T10:19:31Z</time></trkpt><trkpt lat="38.40482515287528" lon="16.180847281415712"><ele>897.0</ele><time>2026-04-06T10:19:32Z</time></trkpt><trkpt lat="38.40467652729189" lon="16.18087330006561"><ele>894.8</ele><time>2026-04-06T10:19:33Z</time></trkpt><trkpt lat="38.40458884117128" lon="16.180893310152435"><ele>892.6</ele><time>2026-04-06T10:19:34Z</time></trkpt><trkpt lat="38.40449718340623" lon="16.180943838641983"><ele>890.3999999999999</ele><time>2026-04-06T10:19:35Z</time></trkpt><trkpt lat="38.40443784627914" lon="16.180982454665983"><ele>888.1999999999999</ele><time>2026-04-06T10:19:36Z</time></trkpt><trkpt lat="38.40431167531628" lon="16.181048853973543"><ele>886.0</ele><time>2026-04-06T10:19:37Z</time></trkpt><trkpt lat="38.40416802150318" lon="16.181171098209354"><ele>886.0</ele><time>2026-04-06T10:19:38Z</time></trkpt><trkpt lat="38.40401929209967" lon="16.18129524504963"><ele>886.0</ele><time>2026-04-06T10:19:39Z</time></trkpt><trkpt lat="38.40379131312077" lon="16.181435958958346"><ele>886.0</ele><time>2026-04-06T10:19:40Z</time></trkpt><trkpt lat="38.40362528992956" lon="16.181574291104383"><ele>883.0</ele><time>2026-04-06T10:19:41Z</time></trkpt><trkpt lat="38.403461116560976" lon="16.181716609597913"><ele>880.0</ele><time>2026-04-06T10:19:42Z</time></trkpt><trkpt lat="38.403307677650375" lon="16.181839830122236"><ele>877.0</ele><time>2026-04-06T10:19:43Z</time></trkpt><trkpt lat="38.403156021159" lon="16.181945753526108"><ele>877.0</ele><time>2026-04-06T10:19:44Z</time></trkpt><trkpt lat="38.403016486082244" lon="16.182018033668065"><ele>877.0</ele><time>2026-04-06T10:19:45Z</time></trkpt><trkpt lat="38.40287439466991" lon="16.182100584422965"><ele>877.0</ele><time>2026-04-06T10:19:46Z</time></trkpt><trkpt lat="38.40274752060842" lon="16.182154536504115"><ele>877.0</ele><time>2026-04-06T10:19:47Z</time></trkpt><trkpt lat="38.40259327030369" lon="16.182175056268242"><ele>874.3333333333333</ele><time>2026-04-06T10:19:48Z</time></trkpt><trkpt lat="38.402431149328656" lon="16.182184988779493"><ele>871.6666666666667</ele><time>2026-04-06T10:19:49Z</time></trkpt><trkpt lat="38.40227077639773" lon="16.182157928677736"><ele>869.0</ele><time>2026-04-06T10:19:50Z</time></trkpt><trkpt lat="38.40210473966423" lon="16.182119191417137"><ele>866.3333333333334</ele><time>2026-04-06T10:19:51Z</time></trkpt><trkpt lat="38.401924463107584" lon="16.18210014404939"><ele>863.6666666666667</ele><time>2026-04-06T10:19:52Z</time></trkpt><trkpt lat="38.40175671657988" lon="16.18208415895743"><ele>861.0</ele><time>2026-04-06T10:19:53Z</time></trkpt><trkpt lat="38.40161693098576" lon="16.18207267709249"><ele>861.0</ele><time>2026-04-06T10:19:54Z</time></trkpt><trkpt lat="38.40150348636937" lon="16.182069213187102"><ele>861.0</ele><time>2026-04-06T10:19:55Z</time></trkpt><trkpt lat="38.40138684537453" lon="16.182093895444726"><ele>861.0</ele><time>2026-04-06T10:19:56Z</time></trkpt><trkpt lat="38.40127020454173" lon="16.182156360319006"><ele>861.0</ele><time>2026-04-06T10:19:57Z</time></trkpt><trkpt lat="38.40114449448676" lon="16.182267980021667"><ele>859.0</ele><time>2026-04-06T10:19:58Z</time></trkpt><trkpt lat="38.40100772674664" lon="16.18241266709492"><ele>857.0</ele><time>2026-04-06T10:19:59Z</time></trkpt><trkpt lat="38.400877166373895" lon="16.182563119900315"><ele>855.0</ele><time>2026-04-06T10:20:00Z</time></trkpt><trkpt lat="38.400753779100896" lon="16.182720720070428"><ele>855.0</ele><time>2026-04-06T10:20:01Z</time></trkpt><trkpt lat="38.40066849699901" lon="16.18284738916368"><ele>855.0</ele><time>2026-04-06T10:20:02Z</time></trkpt><trkpt lat="38.40060462806656" lon="16.182980953738845"><ele>855.0</ele><time>2026-04-06T10:20:03Z</time></trkpt><trkpt lat="38.40055359072262" lon="16.183123295282225"><ele>855.0</ele><time>2026-04-06T10:20:04Z</time></trkpt><trkpt lat="38.40051556814836" lon="16.18326078501726"><ele>852.5</ele><time>2026-04-06T10:20:05Z</time></trkpt><trkpt lat="38.40046371698329" lon="16.18339178225198"><ele>850.0</ele><time>2026-04-06T10:20:06Z</time></trkpt><trkpt lat="38.40040011918292" lon="16.183515268834377"><ele>847.5</ele><time>2026-04-06T10:20:07Z</time></trkpt><trkpt lat="38.40032719873746" lon="16.183655162243753"><ele>845.0</ele><time>2026-04-06T10:20:08Z</time></trkpt><trkpt lat="38.40022719587283" lon="16.183790964076646"><ele>845.0</ele><time>2026-04-06T10:20:09Z</time></trkpt><trkpt lat="38.40012092081502" lon="16.183945568853623"><ele>845.0</ele><time>2026-04-06T10:20:10Z</time></trkpt><trkpt lat="38.39998694596088" lon="16.184099790936585"><ele>845.0</ele><time>2026-04-06T10:20:11Z</time></trkpt><trkpt lat="38.39984070851834" lon="16.184248375478692"><ele>841.6666666666667</ele><time>2026-04-06T10:20:12Z</time></trkpt><trkpt lat="38.399695851751495" lon="16.18438440235362"><ele>838.3333333333333</ele><time>2026-04-06T10:20:13Z</time></trkpt><trkpt lat="38.3995643366188" lon="16.18456322702048"><ele>835.0</ele><time>2026-04-06T10:20:14Z</time></trkpt><trkpt lat="38.39947685258297" lon="16.184772939174554"><ele>834.0</ele><time>2026-04-06T10:20:15Z</time></trkpt><trkpt lat="38.399397717948695" lon="16.18496052888821"><ele>833.0</ele><time>2026-04-06T10:20:16Z</time></trkpt><trkpt lat="38.39932349825443" lon="16.185130031258428"><ele>832.0</ele><time>2026-04-06T10:20:17Z</time></trkpt><trkpt lat="38.399241123988936" lon="16.185267557894374"><ele>832.0</ele><time>2026-04-06T10:20:18Z</time></trkpt><trkpt lat="38.39914569730671" lon="16.18538157969149"><ele>832.0</ele><time>2026-04-06T10:20:19Z</time></trkpt><trkpt lat="38.39903424399607" lon="16.185461924020178"><ele>832.0</ele><time>2026-04-06T10:20:20Z</time></trkpt><trkpt lat="38.39890472206646" lon="16.185528890761702"><ele>832.0</ele><time>2026-04-06T10:20:21Z</time></trkpt><trkpt lat="38.398760586937065" lon="16.185581553075675"><ele>830.3333333333333</ele><time>2026-04-06T10:20:22Z</time></trkpt><trkpt lat="38.39858791921139" lon="16.18562232558058"><ele>828.6666666666667</ele><time>2026-04-06T10:20:23Z</time></trkpt><trkpt lat="38.39840620285769" lon="16.185667572028127"><ele>827.0</ele><time>2026-04-06T10:20:24Z</time></trkpt><trkpt lat="38.398213247244854" lon="16.185703907373334"><ele>827.0</ele><time>2026-04-06T10:20:25Z</time></trkpt><trkpt lat="38.398018779904326" lon="16.185746117152384"><ele>827.0</ele><time>2026-04-06T10:20:26Z</time></trkpt><trkpt lat="38.39783606024648" lon="16.185777260900174"><ele>827.0</ele><time>2026-04-06T10:20:27Z</time></trkpt><trkpt lat="38.397657519825465" lon="16.185797345342124"><ele>825.75</ele><time>2026-04-06T10:20:28Z</time></trkpt><trkpt lat="38.3974944829839" lon="16.18582617538908"><ele>824.5</ele><time>2026-04-06T10:20:29Z</time></trkpt><trkpt lat="38.39738156982848" lon="16.18587830734215"><ele>823.25</ele><time>2026-04-06T10:20:30Z</time></trkpt><trkpt lat="38.39727640676382" lon="16.185956912392268"><ele>822.0</ele><time>2026-04-06T10:20:31Z</time></trkpt><trkpt lat="38.397163858620544" lon="16.18607415936638"><ele>822.6666666666667</ele><time>2026-04-06T10:20:32Z</time></trkpt><trkpt lat="38.397055297678534" lon="16.186272920623995"><ele>823.3333333333334</ele><time>2026-04-06T10:20:33Z</time></trkpt><trkpt lat="38.396931536889426" lon="16.186451568242923"><ele>824.0</ele><time>2026-04-06T10:20:34Z</time></trkpt><trkpt lat="38.39681304432643" lon="16.186624713577054"><ele>824.0</ele><time>2026-04-06T10:20:35Z</time></trkpt><trkpt lat="38.396682394145955" lon="16.18678691339131"><ele>824.0</ele><time>2026-04-06T10:20:36Z</time></trkpt><trkpt lat="38.39653155723607" lon="16.186934306095072"><ele>824.0</ele><time>2026-04-06T10:20:37Z</time></trkpt><trkpt lat="38.39638129869644" lon="16.18707315653379"><ele>822.6666666666667</ele><time>2026-04-06T10:20:38Z</time></trkpt><trkpt lat="38.3962323891096" lon="16.187185486289625"><ele>821.3333333333333</ele><time>2026-04-06T10:20:39Z</time></trkpt><trkpt lat="38.39607308249295" lon="16.187293674348698"><ele>820.0</ele><time>2026-04-06T10:20:40Z</time></trkpt><trkpt lat="38.395890120273826" lon="16.1873977464673"><ele>820.0</ele><time>2026-04-06T10:20:41Z</time></trkpt><trkpt lat="38.3956856143854" lon="16.187493168185096"><ele>820.0</ele><time>2026-04-06T10:20:42Z</time></trkpt><trkpt lat="38.39547530369075" lon="16.18758810364937"><ele>820.0</ele><time>2026-04-06T10:20:43Z</time></trkpt><trkpt lat="38.39528567936647" lon="16.187676804364763"><ele>820.0</ele><time>2026-04-06T10:20:44Z</time></trkpt><trkpt lat="38.39510726331379" lon="16.187757415685063"><ele>820.0</ele><time>2026-04-06T10:20:45Z</time></trkpt><trkpt lat="38.394941435769944" lon="16.187828901219426"><ele>820.0</ele><time>2026-04-06T10:20:46Z</time></trkpt><trkpt lat="38.394780820341204" lon="16.187890642671405"><ele>819.5</ele><time>2026-04-06T10:20:47Z</time></trkpt><trkpt lat="38.39463118626527" lon="16.187945209637796"><ele>819.0</ele><time>2026-04-06T10:20:48Z</time></trkpt><trkpt lat="38.39448375925275" lon="16.187991985962725"><ele>818.5</ele><time>2026-04-06T10:20:49Z</time></trkpt><trkpt lat="38.394346391573855" lon="16.18802915068094"><ele>818.0</ele><time>2026-04-06T10:20:50Z</time></trkpt><trkpt lat="38.3942210726843" lon="16.188063561147377"><ele>818.0</ele><time>2026-04-06T10:20:51Z</time></trkpt><trkpt lat="38.39410265320072" lon="16.188098576255058"><ele>818.0</ele><time>2026-04-06T10:20:52Z</time></trkpt><trkpt lat="38.39399833086267" lon="16.18812450132827"><ele>818.0</ele><time>2026-04-06T10:20:53Z</time></trkpt><trkpt lat="38.393884175967116" lon="16.188145694466883"><ele>818.0</ele><time>2026-04-06T10:20:54Z</time></trkpt><trkpt lat="38.393771288762586" lon="16.18817489287363"><ele>817.2</ele><time>2026-04-06T10:20:55Z</time></trkpt><trkpt lat="38.39365185319779" lon="16.18819905269285"><ele>816.4</ele><time>2026-04-06T10:20:56Z</time></trkpt><trkpt lat="38.393550114979654" lon="16.188215639840084"><ele>815.6</ele><time>2026-04-06T10:20:57Z</time></trkpt><trkpt lat="38.39348136104812" lon="16.18822241013614"><ele>814.8000000000001</ele><time>2026-04-06T10:20:58Z</time></trkpt><trkpt lat="38.39336191985576" lon="16.188209144955053"><ele>814.0</ele><time>2026-04-06T10:21:00Z</time></trkpt><trkpt lat="38.393299721792275" lon="16.188166813808675"><ele>813.4999999999999</ele><time>2026-04-06T10:21:01Z</time></trkpt><trkpt lat="38.393245741482936" lon="16.188098051527206"><ele>813.0</ele><time>2026-04-06T10:21:02Z</time></trkpt><trkpt lat="38.39319993937414" lon="16.188002715070755"><ele>812.5</ele><time>2026-04-06T10:21:03Z</time></trkpt><trkpt lat="38.39316620337658" lon="16.187877078881346"><ele>812.0</ele><time>2026-04-06T10:21:04Z</time></trkpt><trkpt lat="38.393144901482025" lon="16.18775918037478"><ele>811.4999999999999</ele><time>2026-04-06T10:21:05Z</time></trkpt><trkpt lat="38.39312804646663" lon="16.187653861441543"><ele>811.0</ele><time>2026-04-06T10:21:06Z</time></trkpt><trkpt lat="38.39310640253604" lon="16.18757761364117"><ele>811.0</ele><time>2026-04-06T10:21:07Z</time></trkpt><trkpt lat="38.393011890694446" lon="16.187460280258595"><ele>811.0</ele><time>2026-04-06T10:21:09Z</time></trkpt><trkpt lat="38.39289785807395" lon="16.18742862942217"><ele>811.0</ele><time>2026-04-06T10:21:11Z</time></trkpt><trkpt lat="38.39279596956042" lon="16.18745412095927"><ele>811.0</ele><time>2026-04-06T10:21:13Z</time></trkpt><trkpt lat="38.39267871878977" lon="16.18739102988278"><ele>811.5999999999999</ele><time>2026-04-06T10:21:15Z</time></trkpt><trkpt lat="38.39263247491516" lon="16.18732081513382"><ele>812.2</ele><time>2026-04-06T10:21:16Z</time></trkpt><trkpt lat="38.39259452816346" lon="16.18723397315332"><ele>812.8</ele><time>2026-04-06T10:21:17Z</time></trkpt><trkpt lat="38.39256273045339" lon="16.187116444182966"><ele>813.4000000000001</ele><time>2026-04-06T10:21:18Z</time></trkpt><trkpt lat="38.39252745377017" lon="16.186966432005487"><ele>814.0</ele><time>2026-04-06T10:21:19Z</time></trkpt><trkpt lat="38.39249138145898" lon="16.186788495119938"><ele>814.0</ele><time>2026-04-06T10:21:20Z</time></trkpt><trkpt lat="38.3924473101093" lon="16.18660077283888"><ele>814.0</ele><time>2026-04-06T10:21:21Z</time></trkpt><trkpt lat="38.39239825072662" lon="16.186405128284704"><ele>814.0</ele><time>2026-04-06T10:21:22Z</time></trkpt><trkpt lat="38.392352674425545" lon="16.1862204627527"><ele>814.3333333333333</ele><time>2026-04-06T10:21:23Z</time></trkpt><trkpt lat="38.39230491497644" lon="16.186037440490924"><ele>814.6666666666667</ele><time>2026-04-06T10:21:24Z</time></trkpt><trkpt lat="38.39225139022086" lon="16.185846410209457"><ele>815.0</ele><time>2026-04-06T10:21:25Z</time></trkpt><trkpt lat="38.392186389374025" lon="16.18564326309271"><ele>814.0</ele><time>2026-04-06T10:21:26Z</time></trkpt><trkpt lat="38.392122852240554" lon="16.185445829466584"><ele>813.0</ele><time>2026-04-06T10:21:27Z</time></trkpt><trkpt lat="38.392070834969275" lon="16.18527080465229"><ele>812.0</ele><time>2026-04-06T10:21:28Z</time></trkpt><trkpt lat="38.39202390945278" lon="16.185097202037927"><ele>812.0</ele><time>2026-04-06T10:21:29Z</time></trkpt><trkpt lat="38.39197940218707" lon="16.184934203991087"><ele>812.0</ele><time>2026-04-06T10:21:30Z</time></trkpt><trkpt lat="38.39193158510282" lon="16.184782134516347"><ele>812.0</ele><time>2026-04-06T10:21:31Z</time></trkpt><trkpt lat="38.39187213983777" lon="16.1846450202671"><ele>812.0</ele><time>2026-04-06T10:21:32Z</time></trkpt><trkpt lat="38.391783944324914" lon="16.184532533161924"><ele>810.0</ele><time>2026-04-06T10:21:33Z</time></trkpt><trkpt lat="38.39166373710768" lon="16.184445604643912"><ele>808.0</ele><time>2026-04-06T10:21:34Z</time></trkpt><trkpt lat="38.39151480576116" lon="16.184388289313553"><ele>806.0</ele><time>2026-04-06T10:21:35Z</time></trkpt><trkpt lat="38.39134345572364" lon="16.184370061248284"><ele>804.6666666666667</ele><time>2026-04-06T10:21:36Z</time></trkpt><trkpt lat="38.391158566083696" lon="16.18438117557471"><ele>803.3333333333333</ele><time>2026-04-06T10:21:37Z</time></trkpt><trkpt lat="38.390971212528385" lon="16.184366500316717"><ele>802.0</ele><time>2026-04-06T10:21:38Z</time></trkpt><trkpt lat="38.39078989223241" lon="16.18435041050089"><ele>802.0</ele><time>2026-04-06T10:21:39Z</time></trkpt><trkpt lat="38.390612293835055" lon="16.184330533403685"><ele>802.0</ele><time>2026-04-06T10:21:40Z</time></trkpt><trkpt lat="38.39044799332285" lon="16.184307196047786"><ele>802.0</ele><time>2026-04-06T10:21:41Z</time></trkpt><trkpt lat="38.39029182377618" lon="16.18428765723979"><ele>801.25</ele><time>2026-04-06T10:21:42Z</time></trkpt><trkpt lat="38.39013630187359" lon="16.184273167219256"><ele>800.5</ele><time>2026-04-06T10:21:43Z</time></trkpt><trkpt lat="38.39000389495618" lon="16.184257245556086"><ele>799.75</ele><time>2026-04-06T10:21:44Z</time></trkpt><trkpt lat="38.389877672350416" lon="16.184228757861444"><ele>799.0</ele><time>2026-04-06T10:21:45Z</time></trkpt><trkpt lat="38.389740991333184" lon="16.184173651027898"><ele>800.3333333333333</ele><time>2026-04-06T10:21:46Z</time></trkpt><trkpt lat="38.38959680773855" lon="16.184095098110248"><ele>801.6666666666667</ele><time>2026-04-06T10:21:47Z</time></trkpt><trkpt lat="38.38945820497587" lon="16.18398763329315"><ele>803.0</ele><time>2026-04-06T10:21:48Z</time></trkpt><trkpt lat="38.38932547355571" lon="16.18385456510715"><ele>798.3333333333334</ele><time>2026-04-06T10:21:49Z</time></trkpt><trkpt lat="38.3892013169935" lon="16.183725454854418"><ele>793.6666666666667</ele><time>2026-04-06T10:21:50Z</time></trkpt><trkpt lat="38.38908105673123" lon="16.183585352896113"><ele>789.0</ele><time>2026-04-06T10:21:51Z</time></trkpt><trkpt lat="38.388969239317504" lon="16.18341239379026"><ele>789.0</ele><time>2026-04-06T10:21:52Z</time></trkpt><trkpt lat="38.38886410825665" lon="16.183234443905015"><ele>789.0</ele><time>2026-04-06T10:21:53Z</time></trkpt><trkpt lat="38.38876225047232" lon="16.183086292991998"><ele>789.0</ele><time>2026-04-06T10:21:54Z</time></trkpt><trkpt lat="38.38864996006653" lon="16.182957388448838"><ele>788.8000000000001</ele><time>2026-04-06T10:21:55Z</time></trkpt><trkpt lat="38.38858917167492" lon="16.182859048276708"><ele>788.6</ele><time>2026-04-06T10:21:56Z</time></trkpt><trkpt lat="38.38850498511498" lon="16.182783872953618"><ele>788.4</ele><time>2026-04-06T10:21:57Z</time></trkpt><trkpt lat="38.38839401316729" lon="16.182756755417877"><ele>788.2</ele><time>2026-04-06T10:21:58Z</time></trkpt><trkpt lat="38.38828873694601" lon="16.18278520975001"><ele>788.0</ele><time>2026-04-06T10:21:59Z</time></trkpt><trkpt lat="38.38818191952353" lon="16.182862137467126"><ele>788.0</ele><time>2026-04-06T10:22:00Z</time></trkpt><trkpt lat="38.38809903331146" lon="16.182997143165355"><ele>788.0</ele><time>2026-04-06T10:22:01Z</time></trkpt><trkpt lat="38.38801271771598" lon="16.183128980423337"><ele>788.0</ele><time>2026-04-06T10:22:02Z</time></trkpt><trkpt lat="38.38794619956525" lon="16.183308973125712"><ele>788.0</ele><time>2026-04-06T10:22:03Z</time></trkpt><trkpt lat="38.38788463255953" lon="16.183479065865512"><ele>786.75</ele><time>2026-04-06T10:22:04Z</time></trkpt><trkpt lat="38.38781998298732" lon="16.18362827611514"><ele>785.5</ele><time>2026-04-06T10:22:05Z</time></trkpt><trkpt lat="38.3877340061682" lon="16.183761546232606"><ele>784.25</ele><time>2026-04-06T10:22:06Z</time></trkpt><trkpt lat="38.38762498300988" lon="16.1838484524254"><ele>783.0</ele><time>2026-04-06T10:22:07Z</time></trkpt><trkpt lat="38.38751567977767" lon="16.183880397065575"><ele>783.0</ele><time>2026-04-06T10:22:08Z</time></trkpt><trkpt lat="38.38740677202502" lon="16.183868134968225"><ele>783.0</ele><time>2026-04-06T10:22:09Z</time></trkpt><trkpt lat="38.387292225577" lon="16.18380731392692"><ele>783.0</ele><time>2026-04-06T10:22:10Z</time></trkpt><trkpt lat="38.38718021521875" lon="16.18369324932351"><ele>783.0</ele><time>2026-04-06T10:22:11Z</time></trkpt><trkpt lat="38.38706264886356" lon="16.183549879204946"><ele>781.6666666666667</ele><time>2026-04-06T10:22:12Z</time></trkpt><trkpt lat="38.38693852118899" lon="16.18339631338793"><ele>780.3333333333334</ele><time>2026-04-06T10:22:13Z</time></trkpt><trkpt lat="38.38680312456275" lon="16.18322861419899"><ele>779.0</ele><time>2026-04-06T10:22:14Z</time></trkpt><trkpt lat="38.38664870784393" lon="16.183080581009857"><ele>778.0</ele><time>2026-04-06T10:22:15Z</time></trkpt><trkpt lat="38.386498690516405" lon="16.18292899438794"><ele>777.0</ele><time>2026-04-06T10:22:16Z</time></trkpt><trkpt lat="38.38636729773287" lon="16.182786894777646"><ele>776.0</ele><time>2026-04-06T10:22:17Z</time></trkpt><trkpt lat="38.38624993048804" lon="16.18265559293763"><ele>776.0</ele><time>2026-04-06T10:22:18Z</time></trkpt><trkpt lat="38.38613518007695" lon="16.182503835849534"><ele>776.0</ele><time>2026-04-06T10:22:19Z</time></trkpt><trkpt lat="38.386043291305015" lon="16.182340966225617"><ele>776.0</ele><time>2026-04-06T10:22:20Z</time></trkpt><trkpt lat="38.385969724452714" lon="16.18215541368849"><ele>776.0</ele><time>2026-04-06T10:22:21Z</time></trkpt><trkpt lat="38.3859360502042" lon="16.181950133962797"><ele>776.0</ele><time>2026-04-06T10:22:22Z</time></trkpt><trkpt lat="38.38591473979923" lon="16.181738821550443"><ele>776.0</ele><time>2026-04-06T10:22:23Z</time></trkpt><trkpt lat="38.385930129685384" lon="16.181522030971262"><ele>777.0</ele><time>2026-04-06T10:22:24Z</time></trkpt><trkpt lat="38.38598345868834" lon="16.181298682347613"><ele>778.0</ele><time>2026-04-06T10:22:25Z</time></trkpt><trkpt lat="38.3860408400464" lon="16.181072244263902"><ele>779.0</ele><time>2026-04-06T10:22:26Z</time></trkpt><trkpt lat="38.38610024475567" lon="16.18083092136357"><ele>780.6666666666667</ele><time>2026-04-06T10:22:27Z</time></trkpt><trkpt lat="38.386162910930075" lon="16.18057328517673"><ele>782.3333333333333</ele><time>2026-04-06T10:22:28Z</time></trkpt><trkpt lat="38.386230187790154" lon="16.180301299777064"><ele>784.0</ele><time>2026-04-06T10:22:29Z</time></trkpt><trkpt lat="38.38630410677114" lon="16.180036465572925"><ele>781.6666666666666</ele><time>2026-04-06T10:22:30Z</time></trkpt><trkpt lat="38.386378792159256" lon="16.179795717230085"><ele>779.3333333333333</ele><time>2026-04-06T10:22:31Z</time></trkpt><trkpt lat="38.38644552898986" lon="16.179575753353692"><ele>777.0</ele><time>2026-04-06T10:22:32Z</time></trkpt><trkpt lat="38.38649380144111" lon="16.179367445028962"><ele>777.0</ele><time>2026-04-06T10:22:33Z</time></trkpt><trkpt lat="38.38652079641387" lon="16.179136510288988"><ele>777.0</ele><time>2026-04-06T10:22:34Z</time></trkpt><trkpt lat="38.386531190271626" lon="16.178891908303832"><ele>777.0</ele><time>2026-04-06T10:22:35Z</time></trkpt><trkpt lat="38.38652439965736" lon="16.178646340758682"><ele>777.6666666666667</ele><time>2026-04-06T10:22:36Z</time></trkpt><trkpt lat="38.386530608705534" lon="16.178390250869484"><ele>778.3333333333334</ele><time>2026-04-06T10:22:37Z</time></trkpt><trkpt lat="38.38654110489812" lon="16.17816436794909"><ele>779.0</ele><time>2026-04-06T10:22:38Z</time></trkpt><trkpt lat="38.3865563125067" lon="16.17794721099655"><ele>779.0</ele><time>2026-04-06T10:22:39Z</time></trkpt><trkpt lat="38.38656821410728" lon="16.17774942480804"><ele>779.0</ele><time>2026-04-06T10:22:40Z</time></trkpt><trkpt lat="38.38657553100544" lon="16.177567472383778"><ele>779.0</ele><time>2026-04-06T10:22:41Z</time></trkpt><trkpt lat="38.386576267524006" lon="16.177390503032893"><ele>779.0</ele><time>2026-04-06T10:22:42Z</time></trkpt><trkpt lat="38.38657663286132" lon="16.177217996570516"><ele>779.0</ele><time>2026-04-06T10:22:43Z</time></trkpt><trkpt lat="38.3865717084867" lon="16.17706348815237"><ele>779.0</ele><time>2026-04-06T10:22:44Z</time></trkpt><trkpt lat="38.386567993218485" lon="16.17693903881573"><ele>779.0</ele><time>2026-04-06T10:22:45Z</time></trkpt><trkpt lat="38.38657062820675" lon="16.176819000380547"><ele>779.0</ele><time>2026-04-06T10:22:46Z</time></trkpt><trkpt lat="38.38657353809152" lon="16.176704886692374"><ele>779.0</ele><time>2026-04-06T10:22:47Z</time></trkpt><trkpt lat="38.386582467359275" lon="16.176605027412304"><ele>780.0</ele><time>2026-04-06T10:22:48Z</time></trkpt><trkpt lat="38.38658459187595" lon="16.176516409804943"><ele>781.0</ele><time>2026-04-06T10:22:49Z</time></trkpt><trkpt lat="38.386566542126666" lon="16.176428043488432"><ele>782.0</ele><time>2026-04-06T10:22:50Z</time></trkpt><trkpt lat="38.38652766886423" lon="16.17632800358134"><ele>783.0</ele><time>2026-04-06T10:22:51Z</time></trkpt><trkpt lat="38.386460121589614" lon="16.176216265993645"><ele>784.0</ele><time>2026-04-06T10:22:52Z</time></trkpt><trkpt lat="38.386383188193165" lon="16.17608084191671"><ele>783.6666666666666</ele><time>2026-04-06T10:22:53Z</time></trkpt><trkpt lat="38.38630618636363" lon="16.175918704126858"><ele>783.3333333333333</ele><time>2026-04-06T10:22:54Z</time></trkpt><trkpt lat="38.386238594822" lon="16.17573804743169"><ele>783.0</ele><time>2026-04-06T10:22:55Z</time></trkpt><trkpt lat="38.386160821347815" lon="16.17557461322475"><ele>783.0</ele><time>2026-04-06T10:22:56Z</time></trkpt><trkpt lat="38.38608047764964" lon="16.175405777932824"><ele>783.0</ele><time>2026-04-06T10:22:57Z</time></trkpt><trkpt lat="38.38598438210415" lon="16.175238985507175"><ele>783.0</ele><time>2026-04-06T10:22:58Z</time></trkpt><trkpt lat="38.385918572605675" lon="16.175076861987627"><ele>783.0</ele><time>2026-04-06T10:22:59Z</time></trkpt><trkpt lat="38.385850649863" lon="16.174936941983475"><ele>783.0</ele><time>2026-04-06T10:23:00Z</time></trkpt><trkpt lat="38.3857806998076" lon="16.174801211386598"><ele>783.0</ele><time>2026-04-06T10:23:01Z</time></trkpt><trkpt lat="38.38569305461842" lon="16.17468101422645"><ele>783.0</ele><time>2026-04-06T10:23:02Z</time></trkpt><trkpt lat="38.385592635536845" lon="16.174565737519828"><ele>783.0</ele><time>2026-04-06T10:23:03Z</time></trkpt><trkpt lat="38.38548959725274" lon="16.17445790745869"><ele>783.0</ele><time>2026-04-06T10:23:04Z</time></trkpt><trkpt lat="38.385391013174" lon="16.174354709295297"><ele>783.0</ele><time>2026-04-06T10:23:05Z</time></trkpt><trkpt lat="38.38530944895733" lon="16.174259130615596"><ele>783.0</ele><time>2026-04-06T10:23:06Z</time></trkpt><trkpt lat="38.38524311517478" lon="16.174174250275826"><ele>783.0</ele><time>2026-04-06T10:23:07Z</time></trkpt><trkpt lat="38.38518410261908" lon="16.17406659848467"><ele>783.0</ele><time>2026-04-06T10:23:08Z</time></trkpt><trkpt lat="38.38513616302831" lon="16.17395840626042"><ele>783.0</ele><time>2026-04-06T10:23:09Z</time></trkpt><trkpt lat="38.385101906925826" lon="16.17384715866724"><ele>783.0</ele><time>2026-04-06T10:23:10Z</time></trkpt><trkpt lat="38.385083824502026" lon="16.173715029307697"><ele>783.0</ele><time>2026-04-06T10:23:11Z</time></trkpt><trkpt lat="38.38505737379334" lon="16.17353202567864"><ele>784.3333333333333</ele><time>2026-04-06T10:23:12Z</time></trkpt><trkpt lat="38.38503321064422" lon="16.17334840270538"><ele>785.6666666666666</ele><time>2026-04-06T10:23:13Z</time></trkpt><trkpt lat="38.38501064010687" lon="16.17314013897279"><ele>787.0</ele><time>2026-04-06T10:23:14Z</time></trkpt><trkpt lat="38.384979234617646" lon="16.172911909590177"><ele>787.3333333333333</ele><time>2026-04-06T10:23:15Z</time></trkpt><trkpt lat="38.384946460967356" lon="16.172685181795217"><ele>787.6666666666667</ele><time>2026-04-06T10:23:16Z</time></trkpt><trkpt lat="38.38491459373687" lon="16.17244061460757"><ele>788.0</ele><time>2026-04-06T10:23:17Z</time></trkpt><trkpt lat="38.38487897482251" lon="16.17220236990684"><ele>789.6666666666667</ele><time>2026-04-06T10:23:18Z</time></trkpt><trkpt lat="38.384839318250464" lon="16.171974348531446"><ele>791.3333333333333</ele><time>2026-04-06T10:23:19Z</time></trkpt><trkpt lat="38.38479675429052" lon="16.17170386843355"><ele>793.0</ele><time>2026-04-06T10:23:20Z</time></trkpt><trkpt lat="38.38475720234409" lon="16.17144270552931"><ele>793.0</ele><time>2026-04-06T10:23:21Z</time></trkpt><trkpt lat="38.384721906406725" lon="16.171210053214267"><ele>793.0</ele><time>2026-04-06T10:23:22Z</time></trkpt><trkpt lat="38.38468079721361" lon="16.171004941185213"><ele>793.0</ele><time>2026-04-06T10:23:23Z</time></trkpt><trkpt lat="38.38464355236814" lon="16.17075611238594"><ele>796.0</ele><time>2026-04-06T10:23:24Z</time></trkpt><trkpt lat="38.384611989862776" lon="16.170519609818946"><ele>799.0</ele><time>2026-04-06T10:23:25Z</time></trkpt><trkpt lat="38.3845917941015" lon="16.17029449285577"><ele>802.0</ele><time>2026-04-06T10:23:26Z</time></trkpt><trkpt lat="38.38454916791227" lon="16.170064558814907"><ele>808.0</ele><time>2026-04-06T10:23:27Z</time></trkpt><trkpt lat="38.38451957629304" lon="16.16983743633821"><ele>814.0</ele><time>2026-04-06T10:23:28Z</time></trkpt><trkpt lat="38.3844860671733" lon="16.169630572609364"><ele>820.0</ele><time>2026-04-06T10:23:29Z</time></trkpt><trkpt lat="38.38445375745237" lon="16.16942779012263"><ele>820.0</ele><time>2026-04-06T10:23:30Z</time></trkpt><trkpt lat="38.384430711817345" lon="16.169189290624956"><ele>820.0</ele><time>2026-04-06T10:23:31Z</time></trkpt><trkpt lat="38.38440485220383" lon="16.16901196270689"><ele>820.0</ele><time>2026-04-06T10:23:32Z</time></trkpt><trkpt lat="38.384362233676136" lon="16.168836001765264"><ele>822.8</ele><time>2026-04-06T10:23:33Z</time></trkpt><trkpt lat="38.38434044549239" lon="16.16867341179636"><ele>825.6</ele><time>2026-04-06T10:23:34Z</time></trkpt><trkpt lat="38.38432777231263" lon="16.168534345526346"><ele>828.4000000000001</ele><time>2026-04-06T10:23:35Z</time></trkpt><trkpt lat="38.384330253565416" lon="16.168415317906913"><ele>831.2</ele><time>2026-04-06T10:23:36Z</time></trkpt><trkpt lat="38.38432040135415" lon="16.16831501549631"><ele>834.0</ele><time>2026-04-06T10:23:37Z</time></trkpt><trkpt lat="38.38431730068209" lon="16.168224794631232"><ele>834.1666666666666</ele><time>2026-04-06T10:23:38Z</time></trkpt><trkpt lat="38.38433756630641" lon="16.168120139073533"><ele>834.3333333333333</ele><time>2026-04-06T10:23:40Z</time></trkpt><trkpt lat="38.38440725924817" lon="16.16804487474736"><ele>834.5</ele><time>2026-04-06T10:23:42Z</time></trkpt><trkpt lat="38.38444512025841" lon="16.167969874896702"><ele>834.6666666666666</ele><time>2026-04-06T10:23:43Z</time></trkpt><trkpt lat="38.38451438949129" lon="16.167898560440797"><ele>834.8333333333333</ele><time>2026-04-06T10:23:44Z</time></trkpt><trkpt lat="38.384585217237046" lon="16.167831786127778"><ele>835.0</ele><time>2026-04-06T10:23:45Z</time></trkpt><trkpt lat="38.384684268859424" lon="16.16774108387576"><ele>835.0</ele><time>2026-04-06T10:23:46Z</time></trkpt><trkpt lat="38.384775603758044" lon="16.167714148956065"><ele>835.0</ele><time>2026-04-06T10:23:47Z</time></trkpt><trkpt lat="38.384853171227256" lon="16.167623083281406"><ele>835.0</ele><time>2026-04-06T10:23:48Z</time></trkpt><trkpt lat="38.38496339584714" lon="16.16752036190213"><ele>835.0</ele><time>2026-04-06T10:23:49Z</time></trkpt><trkpt lat="38.385041535626385" lon="16.167438590941597"><ele>835.0</ele><time>2026-04-06T10:23:50Z</time></trkpt><trkpt lat="38.38511724871523" lon="16.16733776854266"><ele>837.8</ele><time>2026-04-06T10:23:51Z</time></trkpt><trkpt lat="38.3851758683661" lon="16.167215363401365"><ele>840.6</ele><time>2026-04-06T10:23:52Z</time></trkpt><trkpt lat="38.38521861476625" lon="16.167098106521074"><ele>843.4000000000001</ele><time>2026-04-06T10:23:53Z</time></trkpt><trkpt lat="38.38523537612311" lon="16.16698654663426"><ele>846.2</ele><time>2026-04-06T10:23:54Z</time></trkpt><trkpt lat="38.385266689589336" lon="16.166908351312696"><ele>849.0</ele><time>2026-04-06T10:23:55Z</time></trkpt><trkpt lat="38.385289963921394" lon="16.166764236308342"><ele>849.0</ele><time>2026-04-06T10:23:57Z</time></trkpt><trkpt lat="38.38526556806273" lon="16.16665745858687"><ele>849.0</ele><time>2026-04-06T10:23:59Z</time></trkpt><trkpt lat="38.38515531551977" lon="16.166635358179256"><ele>849.0</ele><time>2026-04-06T10:24:03Z</time></trkpt><trkpt lat="38.385243743840086" lon="16.166594238618682"><ele>849.0</ele><time>2026-04-06T10:26:20Z</time></trkpt><trkpt lat="38.38519135246765" lon="16.166731722762663"><ele>849.0</ele><time>2026-04-06T10:26:53Z</time></trkpt><trkpt lat="38.38513245251097" lon="16.166820461877563"><ele>849.0</ele><time>2026-04-06T10:26:54Z</time></trkpt><trkpt lat="38.385116357844794" lon="16.166902392949034"><ele>849.0</ele><time>2026-04-06T10:26:55Z</time></trkpt><trkpt lat="38.3850026862474" lon="16.16702449488003"><ele>849.0</ele><time>2026-04-06T10:26:56Z</time></trkpt><trkpt lat="38.38495398051114" lon="16.167133138821093"><ele>849.0</ele><time>2026-04-06T10:26:57Z</time></trkpt><trkpt lat="38.3848848598173" lon="16.167223443666682"><ele>849.0</ele><time>2026-04-06T10:26:58Z</time></trkpt><trkpt lat="38.38478323871907" lon="16.16729410300836"><ele>849.75</ele><time>2026-04-06T10:26:59Z</time></trkpt><trkpt lat="38.38467403320796" lon="16.167364858318923"><ele>850.5</ele><time>2026-04-06T10:27:00Z</time></trkpt><trkpt lat="38.38456768249361" lon="16.16742044118475"><ele>851.25</ele><time>2026-04-06T10:27:01Z</time></trkpt><trkpt lat="38.38442621662457" lon="16.167488836970566"><ele>852.0</ele><time>2026-04-06T10:27:02Z</time></trkpt><trkpt lat="38.384255571533465" lon="16.16753981010258"><ele>852.0</ele><time>2026-04-06T10:27:03Z</time></trkpt><trkpt lat="38.38411479352524" lon="16.167579156988083"><ele>852.0</ele><time>2026-04-06T10:27:04Z</time></trkpt><trkpt lat="38.384015316045634" lon="16.167648727119957"><ele>852.0</ele><time>2026-04-06T10:27:05Z</time></trkpt><trkpt lat="38.383952822563664" lon="16.16773182664751"><ele>852.0</ele><time>2026-04-06T10:27:06Z</time></trkpt><trkpt lat="38.38387061063205" lon="16.167839031140403"><ele>849.75</ele><time>2026-04-06T10:27:07Z</time></trkpt><trkpt lat="38.383806224489284" lon="16.167953403900043"><ele>847.5</ele><time>2026-04-06T10:27:08Z</time></trkpt><trkpt lat="38.383737101157315" lon="16.16807248335716"><ele>845.25</ele><time>2026-04-06T10:27:09Z</time></trkpt><trkpt lat="38.38366301065028" lon="16.168206210768247"><ele>843.0</ele><time>2026-04-06T10:27:10Z</time></trkpt><trkpt lat="38.383589297479105" lon="16.16831728382468"><ele>843.0</ele><time>2026-04-06T10:27:11Z</time></trkpt><trkpt lat="38.38352829383373" lon="16.168410637351474"><ele>843.0</ele><time>2026-04-06T10:27:12Z</time></trkpt><trkpt lat="38.383461178695654" lon="16.168466847133747"><ele>843.0</ele><time>2026-04-06T10:27:13Z</time></trkpt><trkpt lat="38.38339985038126" lon="16.168490566588364"><ele>843.0</ele><time>2026-04-06T10:27:14Z</time></trkpt><trkpt lat="38.38332906798502" lon="16.16847365998814"><ele>843.0</ele><time>2026-04-06T10:27:16Z</time></trkpt><trkpt lat="38.383340247002145" lon="16.16834506923473"><ele>843.0</ele><time>2026-04-06T10:27:17Z</time></trkpt><trkpt lat="38.383406297592266" lon="16.168300568856"><ele>843.0</ele><time>2026-04-06T10:27:18Z</time></trkpt><trkpt lat="38.383465104260495" lon="16.16821743912309"><ele>843.0</ele><time>2026-04-06T10:27:19Z</time></trkpt><trkpt lat="38.38352657728199" lon="16.16813829763546"><ele>843.0</ele><time>2026-04-06T10:27:20Z</time></trkpt><trkpt lat="38.38359226577579" lon="16.168036610893896"><ele>843.0</ele><time>2026-04-06T10:27:21Z</time></trkpt><trkpt lat="38.3836180101337" lon="16.16788843039193"><ele>843.0</ele><time>2026-04-06T10:27:22Z</time></trkpt><trkpt lat="38.38365398348476" lon="16.16773833988437"><ele>849.0</ele><time>2026-04-06T10:27:23Z</time></trkpt><trkpt lat="38.383679427893135" lon="16.167604155556205"><ele>855.0</ele><time>2026-04-06T10:27:24Z</time></trkpt><trkpt lat="38.383710288016616" lon="16.16748511055377"><ele>861.0</ele><time>2026-04-06T10:27:25Z</time></trkpt><trkpt lat="38.38375745963639" lon="16.167367956466368"><ele>867.0</ele><time>2026-04-06T10:27:26Z</time></trkpt><trkpt lat="38.38381420209534" lon="16.16727720347047"><ele>873.0</ele><time>2026-04-06T10:27:27Z</time></trkpt><trkpt lat="38.383900617157195" lon="16.16721514942725"><ele>874.75</ele><time>2026-04-06T10:27:28Z</time></trkpt><trkpt lat="38.384017601561844" lon="16.167169899637294"><ele>876.5</ele><time>2026-04-06T10:27:29Z</time></trkpt><trkpt lat="38.384132148521694" lon="16.167126857687013"><ele>878.25</ele><time>2026-04-06T10:27:30Z</time></trkpt><trkpt lat="38.38423917319252" lon="16.167077596663432"><ele>880.0</ele><time>2026-04-06T10:27:31Z</time></trkpt><trkpt lat="38.38433223289205" lon="16.166999077283755"><ele>880.0</ele><time>2026-04-06T10:27:32Z</time></trkpt><trkpt lat="38.38441401261993" lon="16.16688997034745"><ele>880.0</ele><time>2026-04-06T10:27:33Z</time></trkpt><trkpt lat="38.38448076892547" lon="16.166752519596542"><ele>880.0</ele><time>2026-04-06T10:27:34Z</time></trkpt><trkpt lat="38.38452563982758" lon="16.166620322325713"><ele>880.0</ele><time>2026-04-06T10:27:35Z</time></trkpt><trkpt lat="38.38456138596102" lon="16.16648431217492"><ele>881.2</ele><time>2026-04-06T10:27:36Z</time></trkpt><trkpt lat="38.38458369976601" lon="16.166333301638954"><ele>882.4</ele><time>2026-04-06T10:27:37Z</time></trkpt><trkpt lat="38.38458633070953" lon="16.166201744776966"><ele>883.5999999999999</ele><time>2026-04-06T10:27:38Z</time></trkpt><trkpt lat="38.38456583581578" lon="16.1660668648505"><ele>884.8</ele><time>2026-04-06T10:27:39Z</time></trkpt><trkpt lat="38.38452704486865" lon="16.16593575635231"><ele>886.0</ele><time>2026-04-06T10:27:40Z</time></trkpt><trkpt lat="38.38447899128312" lon="16.16579338157473"><ele>884.25</ele><time>2026-04-06T10:27:41Z</time></trkpt><trkpt lat="38.38440848664961" lon="16.165656260277025"><ele>882.5</ele><time>2026-04-06T10:27:42Z</time></trkpt><trkpt lat="38.384324720749404" lon="16.165525392311885"><ele>880.75</ele><time>2026-04-06T10:27:43Z</time></trkpt><trkpt lat="38.384233185376154" lon="16.16541656123174"><ele>879.0</ele><time>2026-04-06T10:27:44Z</time></trkpt><trkpt lat="38.384121331419934" lon="16.1653540064081"><ele>879.0</ele><time>2026-04-06T10:27:45Z</time></trkpt><trkpt lat="38.38404458022319" lon="16.165283107575778"><ele>879.0</ele><time>2026-04-06T10:27:46Z</time></trkpt><trkpt lat="38.38398220103559" lon="16.165214017828124"><ele>879.0</ele><time>2026-04-06T10:27:47Z</time></trkpt><trkpt lat="38.383936193944066" lon="16.165128010020915"><ele>879.0</ele><time>2026-04-06T10:27:48Z</time></trkpt><trkpt lat="38.383926162249224" lon="16.165016056767797"><ele>879.0</ele><time>2026-04-06T10:27:49Z</time></trkpt><trkpt lat="38.383914453696285" lon="16.16490465481505"><ele>879.0</ele><time>2026-04-06T10:27:50Z</time></trkpt><trkpt lat="38.38394417206829" lon="16.16481233452326"><ele>879.8333333333334</ele><time>2026-04-06T10:27:51Z</time></trkpt><trkpt lat="38.3839452346312" lon="16.164728417262022"><ele>880.6666666666667</ele><time>2026-04-06T10:27:52Z</time></trkpt><trkpt lat="38.38399553746581" lon="16.164633948083868"><ele>881.5</ele><time>2026-04-06T10:27:53Z</time></trkpt><trkpt lat="38.384003399784234" lon="16.16453972003831"><ele>882.3333333333334</ele><time>2026-04-06T10:27:54Z</time></trkpt><trkpt lat="38.384001851771174" lon="16.164438146656586"><ele>883.1666666666667</ele><time>2026-04-06T10:27:55Z</time></trkpt><trkpt lat="38.38395386723672" lon="16.16431817864603"><ele>884.0</ele><time>2026-04-06T10:27:56Z</time></trkpt><trkpt lat="38.38393676645454" lon="16.164190767289167"><ele>884.0</ele><time>2026-04-06T10:27:57Z</time></trkpt><trkpt lat="38.383933818212256" lon="16.164054619694287"><ele>884.0000000000001</ele><time>2026-04-06T10:27:58Z</time></trkpt><trkpt lat="38.383959819986345" lon="16.163904267829157"><ele>884.0000000000001</ele><time>2026-04-06T10:27:59Z</time></trkpt><trkpt lat="38.38395670273048" lon="16.163770959041006"><ele>884.0</ele><time>2026-04-06T10:28:00Z</time></trkpt><trkpt lat="38.383973482880364" lon="16.16362608233104"><ele>884.0</ele><time>2026-04-06T10:28:01Z</time></trkpt><trkpt lat="38.38397620581027" lon="16.163480684265814"><ele>883.4000000000001</ele><time>2026-04-06T10:28:02Z</time></trkpt><trkpt lat="38.383959153860616" lon="16.163354053139873"><ele>882.8000000000001</ele><time>2026-04-06T10:28:03Z</time></trkpt><trkpt lat="38.38395833516971" lon="16.16323172935991"><ele>882.1999999999999</ele><time>2026-04-06T10:28:04Z</time></trkpt><trkpt lat="38.38394449418041" lon="16.163087473422376"><ele>881.5999999999999</ele><time>2026-04-06T10:28:05Z</time></trkpt><trkpt lat="38.38391520820808" lon="16.162950517245736"><ele>881.0</ele><time>2026-04-06T10:28:06Z</time></trkpt><trkpt lat="38.38388909866233" lon="16.162838204649955"><ele>881.0</ele><time>2026-04-06T10:28:07Z</time></trkpt><trkpt lat="38.38385778400596" lon="16.162714421196963"><ele>880.9999999999999</ele><time>2026-04-06T10:28:08Z</time></trkpt><trkpt lat="38.383854732569105" lon="16.162578088414982"><ele>880.9999999999999</ele><time>2026-04-06T10:28:09Z</time></trkpt><trkpt lat="38.38380553600526" lon="16.16246223767056"><ele>881.0</ele><time>2026-04-06T10:28:10Z</time></trkpt><trkpt lat="38.38377608896953" lon="16.16236733006244"><ele>881.0</ele><time>2026-04-06T10:28:11Z</time></trkpt><trkpt lat="38.383748166381814" lon="16.16227770850722"><ele>886.4</ele><time>2026-04-06T10:28:12Z</time></trkpt><trkpt lat="38.383705065513425" lon="16.162143926226324"><ele>891.8</ele><time>2026-04-06T10:28:13Z</time></trkpt><trkpt lat="38.383655032263746" lon="16.162024495331398"><ele>897.1999999999999</ele><time>2026-04-06T10:28:14Z</time></trkpt><trkpt lat="38.38360025281015" lon="16.161892768044062"><ele>902.5999999999999</ele><time>2026-04-06T10:28:15Z</time></trkpt><trkpt lat="38.383555654616735" lon="16.161765492770897"><ele>908.0</ele><time>2026-04-06T10:28:16Z</time></trkpt><trkpt lat="38.38352258316463" lon="16.161676115034552"><ele>908.0000000000001</ele><time>2026-04-06T10:28:17Z</time></trkpt><trkpt lat="38.38348125631511" lon="16.161569607785747"><ele>908.0</ele><time>2026-04-06T10:28:18Z</time></trkpt><trkpt lat="38.3834417610656" lon="16.16148248360248"><ele>908.0</ele><time>2026-04-06T10:28:19Z</time></trkpt><trkpt lat="38.383387838491586" lon="16.161379787354978"><ele>908.0</ele><time>2026-04-06T10:28:20Z</time></trkpt><trkpt lat="38.38333942504392" lon="16.161300254034025"><ele>908.0000000000001</ele><time>2026-04-06T10:28:21Z</time></trkpt><trkpt lat="38.383286227262694" lon="16.161221071148734"><ele>908.0</ele><time>2026-04-06T10:28:22Z</time></trkpt><trkpt lat="38.38318231729342" lon="16.16113977133549"><ele>905.4</ele><time>2026-04-06T10:28:24Z</time></trkpt><trkpt lat="38.38310186164229" lon="16.161125123516513"><ele>902.8</ele><time>2026-04-06T10:28:25Z</time></trkpt><trkpt lat="38.38301914969134" lon="16.161079372353747"><ele>900.2</ele><time>2026-04-06T10:28:26Z</time></trkpt><trkpt lat="38.382938970828995" lon="16.161057085592475"><ele>897.6</ele><time>2026-04-06T10:28:27Z</time></trkpt><trkpt lat="38.3828396651128" lon="16.161033996585918"><ele>895.0</ele><time>2026-04-06T10:28:28Z</time></trkpt><trkpt lat="38.382736359247055" lon="16.161014022401684"><ele>895.0</ele><time>2026-04-06T10:28:29Z</time></trkpt><trkpt lat="38.38261531207073" lon="16.16100476143515"><ele>895.0</ele><time>2026-04-06T10:28:30Z</time></trkpt><trkpt lat="38.382504858868415" lon="16.161017170223996"><ele>895.0</ele><time>2026-04-06T10:28:31Z</time></trkpt><trkpt lat="38.382402376521775" lon="16.16098902061339"><ele>895.0</ele><time>2026-04-06T10:28:32Z</time></trkpt><trkpt lat="38.3823129330702" lon="16.16097827745597"><ele>895.0</ele><time>2026-04-06T10:28:33Z</time></trkpt><trkpt lat="38.38222874217242" lon="16.161003457859582"><ele>896.0</ele><time>2026-04-06T10:28:34Z</time></trkpt><trkpt lat="38.382128193331035" lon="16.16100436050857"><ele>897.0</ele><time>2026-04-06T10:28:35Z</time></trkpt><trkpt lat="38.381980330853466" lon="16.160985349406047"><ele>898.0</ele><time>2026-04-06T10:28:36Z</time></trkpt><trkpt lat="38.38186932514984" lon="16.1609656977313"><ele>899.0</ele><time>2026-04-06T10:28:37Z</time></trkpt><trkpt lat="38.381795486969025" lon="16.16093164288289"><ele>900.0</ele><time>2026-04-06T10:28:38Z</time></trkpt><trkpt lat="38.38172874682354" lon="16.160924158801926"><ele>900.0</ele><time>2026-04-06T10:28:39Z</time></trkpt><trkpt lat="38.38163703236062" lon="16.160892719254196"><ele>900.0</ele><time>2026-04-06T10:28:40Z</time></trkpt><trkpt lat="38.38157314758821" lon="16.160898860950415"><ele>900.0</ele><time>2026-04-06T10:28:41Z</time></trkpt><trkpt lat="38.38150981044353" lon="16.160871712633607"><ele>900.0</ele><time>2026-04-06T10:28:42Z</time></trkpt><trkpt lat="38.38143410254832" lon="16.160805926215563"><ele>900.0</ele><time>2026-04-06T10:28:43Z</time></trkpt><trkpt lat="38.381377116994095" lon="16.160745378844673"><ele>900.0</ele><time>2026-04-06T10:28:44Z</time></trkpt><trkpt lat="38.38132999294938" lon="16.160665219941226"><ele>902.0</ele><time>2026-04-06T10:28:45Z</time></trkpt><trkpt lat="38.38130068698583" lon="16.160570511592894"><ele>904.0</ele><time>2026-04-06T10:28:46Z</time></trkpt><trkpt lat="38.381280239051115" lon="16.160437108763716"><ele>906.0</ele><time>2026-04-06T10:28:47Z</time></trkpt><trkpt lat="38.38126378161648" lon="16.16032611822918"><ele>908.0</ele><time>2026-04-06T10:28:48Z</time></trkpt><trkpt lat="38.381281474632516" lon="16.160181835126917"><ele>910.0</ele><time>2026-04-06T10:28:49Z</time></trkpt><trkpt lat="38.38128719162437" lon="16.16005914838315"><ele>910.0</ele><time>2026-04-06T10:28:50Z</time></trkpt><trkpt lat="38.38130821334977" lon="16.159958594180317"><ele>910.0</ele><time>2026-04-06T10:28:51Z</time></trkpt><trkpt lat="38.3813227201812" lon="16.15984640744409"><ele>910.0</ele><time>2026-04-06T10:28:52Z</time></trkpt><trkpt lat="38.38136200730418" lon="16.159729089801164"><ele>910.0</ele><time>2026-04-06T10:28:53Z</time></trkpt><trkpt lat="38.38141998916468" lon="16.159632558874524"><ele>910.0</ele><time>2026-04-06T10:28:54Z</time></trkpt><trkpt lat="38.381467914763434" lon="16.159539510154847"><ele>906.6666666666666</ele><time>2026-04-06T10:28:55Z</time></trkpt><trkpt lat="38.38150821560503" lon="16.159444154809425"><ele>903.3333333333333</ele><time>2026-04-06T10:28:56Z</time></trkpt><trkpt lat="38.38156040405398" lon="16.15937857558764"><ele>900.0</ele><time>2026-04-06T10:28:57Z</time></trkpt><trkpt lat="38.38159541825775" lon="16.15929304029597"><ele>896.6666666666667</ele><time>2026-04-06T10:28:58Z</time></trkpt><trkpt lat="38.38160955616015" lon="16.159193118163113"><ele>893.3333333333334</ele><time>2026-04-06T10:28:59Z</time></trkpt><trkpt lat="38.38164109022413" lon="16.15909486996942"><ele>890.0</ele><time>2026-04-06T10:29:00Z</time></trkpt><trkpt lat="38.38163766616977" lon="16.15899330625859"><ele>889.1666666666667</ele><time>2026-04-06T10:29:01Z</time></trkpt><trkpt lat="38.3816280267093" lon="16.158889535611177"><ele>888.3333333333334</ele><time>2026-04-06T10:29:02Z</time></trkpt><trkpt lat="38.38162331727343" lon="16.15875494362514"><ele>887.5</ele><time>2026-04-06T10:29:03Z</time></trkpt><trkpt lat="38.38161364526481" lon="16.158660620953576"><ele>886.6666666666667</ele><time>2026-04-06T10:29:04Z</time></trkpt><trkpt lat="38.38160374557726" lon="16.15857388249475"><ele>885.8333333333334</ele><time>2026-04-06T10:29:05Z</time></trkpt><trkpt lat="38.38154609618942" lon="16.158498969745555"><ele>885.0</ele><time>2026-04-06T10:29:06Z</time></trkpt><trkpt lat="38.381446787784704" lon="16.158437652887844"><ele>885.0</ele><time>2026-04-06T10:29:07Z</time></trkpt><trkpt lat="38.381349304442324" lon="16.15840811762889"><ele>885.0</ele><time>2026-04-06T10:29:08Z</time></trkpt><trkpt lat="38.38123968285264" lon="16.158395817479832"><ele>885.0</ele><time>2026-04-06T10:29:09Z</time></trkpt><trkpt lat="38.3811389181156" lon="16.15837416980251"><ele>885.0</ele><time>2026-04-06T10:29:10Z</time></trkpt><trkpt lat="38.381057058234056" lon="16.158357944382647"><ele>885.0</ele><time>2026-04-06T10:29:11Z</time></trkpt><trkpt lat="38.380990102544466" lon="16.158357232242786"><ele>888.5</ele><time>2026-04-06T10:29:12Z</time></trkpt><trkpt lat="38.380841536732476" lon="16.158346058257614"><ele>892.0</ele><time>2026-04-06T10:29:15Z</time></trkpt><trkpt lat="38.38071881801776" lon="16.15830763599664"><ele>895.5</ele><time>2026-04-06T10:29:16Z</time></trkpt><trkpt lat="38.380627378525816" lon="16.158279752979034"><ele>899.0</ele><time>2026-04-06T10:29:17Z</time></trkpt><trkpt lat="38.38053263257065" lon="16.158274930593866"><ele>897.0</ele><time>2026-04-06T10:29:19Z</time></trkpt><trkpt lat="38.38041227921733" lon="16.158290449525936"><ele>895.0000000000001</ele><time>2026-04-06T10:29:20Z</time></trkpt><trkpt lat="38.380354929006735" lon="16.15832422618378"><ele>893.0000000000001</ele><time>2026-04-06T10:29:21Z</time></trkpt><trkpt lat="38.38025993980078" lon="16.15843936001925"><ele>891.0</ele><time>2026-04-06T10:29:23Z</time></trkpt><trkpt lat="38.38018936091505" lon="16.15853030604977"><ele>889.0</ele><time>2026-04-06T10:29:24Z</time></trkpt><trkpt lat="38.38015336950633" lon="16.158611683426606"><ele>889.0</ele><time>2026-04-06T10:29:25Z</time></trkpt><trkpt lat="38.38012670528903" lon="16.1586983359069"><ele>889.0</ele><time>2026-04-06T10:29:26Z</time></trkpt><trkpt lat="38.38008696431625" lon="16.158766497261833"><ele>889.0</ele><time>2026-04-06T10:29:27Z</time></trkpt><trkpt lat="38.38001250925962" lon="16.158835219383885"><ele>889.0</ele><time>2026-04-06T10:29:28Z</time></trkpt><trkpt lat="38.37994705430746" lon="16.15887246379622"><ele>889.0</ele><time>2026-04-06T10:29:29Z</time></trkpt><trkpt lat="38.37987349917178" lon="16.15889696462078"><ele>889.0</ele><time>2026-04-06T10:29:30Z</time></trkpt><trkpt lat="38.37981055905408" lon="16.158909315004017"><ele>889.0</ele><time>2026-04-06T10:29:31Z</time></trkpt><trkpt lat="38.37970932909559" lon="16.15891137613248"><ele>888.6</ele><time>2026-04-06T10:29:32Z</time></trkpt><trkpt lat="38.37961173811926" lon="16.158876351458552"><ele>888.2</ele><time>2026-04-06T10:29:33Z</time></trkpt><trkpt lat="38.37953205443803" lon="16.15879818708587"><ele>887.8000000000001</ele><time>2026-04-06T10:29:34Z</time></trkpt><trkpt lat="38.379473934857366" lon="16.158704773325404"><ele>887.4000000000001</ele><time>2026-04-06T10:29:35Z</time></trkpt><trkpt lat="38.3794007921214" lon="16.15864449624431"><ele>887.0</ele><time>2026-04-06T10:29:36Z</time></trkpt><trkpt lat="38.37934411457861" lon="16.158560428413566"><ele>887.0000000000001</ele><time>2026-04-06T10:29:37Z</time></trkpt><trkpt lat="38.379297418942635" lon="16.158490939691987"><ele>887.0</ele><time>2026-04-06T10:29:38Z</time></trkpt><trkpt lat="38.37925276759228" lon="16.158433957542382"><ele>887.0</ele><time>2026-04-06T10:29:39Z</time></trkpt><trkpt lat="38.37919671983569" lon="16.15837530565371"><ele>887.0</ele><time>2026-04-06T10:29:41Z</time></trkpt><trkpt lat="38.37910045528957" lon="16.15838688672118"><ele>887.0000000000001</ele><time>2026-04-06T10:29:43Z</time></trkpt><trkpt lat="38.379028227852935" lon="16.158421691492446"><ele>887.0</ele><time>2026-04-06T10:29:44Z</time></trkpt><trkpt lat="38.378951564038694" lon="16.15847401179245"><ele>887.0</ele><time>2026-04-06T10:29:45Z</time></trkpt><trkpt lat="38.37886837103583" lon="16.158560048767686"><ele>887.0</ele><time>2026-04-06T10:29:46Z</time></trkpt><trkpt lat="38.37879787277506" lon="16.158644993280586"><ele>887.0</ele><time>2026-04-06T10:29:47Z</time></trkpt><trkpt lat="38.37871574180579" lon="16.15872256080307"><ele>887.0</ele><time>2026-04-06T10:29:48Z</time></trkpt><trkpt lat="38.37861287275627" lon="16.15877679939262"><ele>887.0</ele><time>2026-04-06T10:29:49Z</time></trkpt><trkpt lat="38.37850759662563" lon="16.158824646783103"><ele>886.8</ele><time>2026-04-06T10:29:50Z</time></trkpt><trkpt lat="38.378423491592706" lon="16.158843832182914"><ele>886.6</ele><time>2026-04-06T10:29:51Z</time></trkpt><trkpt lat="38.37833436949627" lon="16.15885665215376"><ele>886.3999999999999</ele><time>2026-04-06T10:29:53Z</time></trkpt><trkpt lat="38.37823022273273" lon="16.158868705623483"><ele>886.1999999999999</ele><time>2026-04-06T10:29:55Z</time></trkpt><trkpt lat="38.378154740874855" lon="16.158861870692782"><ele>886.0</ele><time>2026-04-06T10:29:56Z</time></trkpt><trkpt lat="38.37804238688542" lon="16.158794405074172"><ele>887.0</ele><time>2026-04-06T10:29:58Z</time></trkpt><trkpt lat="38.377977924402806" lon="16.158728279543045"><ele>887.9999999999999</ele><time>2026-04-06T10:30:00Z</time></trkpt><trkpt lat="38.37791460958104" lon="16.15864790407984"><ele>888.9999999999999</ele><time>2026-04-06T10:30:03Z</time></trkpt><trkpt lat="38.37780668636406" lon="16.158567242744997"><ele>890.0</ele><time>2026-04-06T10:30:05Z</time></trkpt><trkpt lat="38.377742943827485" lon="16.1585009123786"><ele>891.0</ele><time>2026-04-06T10:30:06Z</time></trkpt><trkpt lat="38.37768562956127" lon="16.15841503473722"><ele>891.0</ele><time>2026-04-06T10:30:07Z</time></trkpt><trkpt lat="38.37759643499916" lon="16.158372688158266"><ele>891.0</ele><time>2026-04-06T10:30:08Z</time></trkpt><trkpt lat="38.37749570066205" lon="16.15833041834083"><ele>891.0</ele><time>2026-04-06T10:30:09Z</time></trkpt><trkpt lat="38.377394712221076" lon="16.158260579087862"><ele>891.0</ele><time>2026-04-06T10:30:10Z</time></trkpt><trkpt lat="38.37725694427907" lon="16.158221263900757"><ele>889.5</ele><time>2026-04-06T10:30:11Z</time></trkpt><trkpt lat="38.37712592625163" lon="16.158200614681462"><ele>888.0</ele><time>2026-04-06T10:30:12Z</time></trkpt><trkpt lat="38.377011500619204" lon="16.158204091478936"><ele>886.5</ele><time>2026-04-06T10:30:13Z</time></trkpt><trkpt lat="38.37686874291345" lon="16.158219934982434"><ele>885.0</ele><time>2026-04-06T10:30:14Z</time></trkpt><trkpt lat="38.37673947201597" lon="16.158253478959704"><ele>885.0</ele><time>2026-04-06T10:30:15Z</time></trkpt><trkpt lat="38.37663922516055" lon="16.158290167352092"><ele>885.0</ele><time>2026-04-06T10:30:16Z</time></trkpt><trkpt lat="38.37656011104875" lon="16.158299795187478"><ele>885.0</ele><time>2026-04-06T10:30:17Z</time></trkpt><trkpt lat="38.37650194840462" lon="16.158332725120864"><ele>885.0</ele><time>2026-04-06T10:30:19Z</time></trkpt><trkpt lat="38.37643191156179" lon="16.158321224015157"><ele>885.0</ele><time>2026-04-06T10:30:21Z</time></trkpt><trkpt lat="38.37634433133006" lon="16.158284750830962"><ele>885.0</ele><time>2026-04-06T10:30:23Z</time></trkpt><trkpt lat="38.376265439233975" lon="16.158218763264365"><ele>885.0</ele><time>2026-04-06T10:30:24Z</time></trkpt><trkpt lat="38.37617668165053" lon="16.15813355834325"><ele>885.0</ele><time>2026-04-06T10:30:25Z</time></trkpt><trkpt lat="38.37611132670073" lon="16.158020112450302"><ele>885.0</ele><time>2026-04-06T10:30:26Z</time></trkpt><trkpt lat="38.37605813226673" lon="16.157914619818808"><ele>885.0</ele><time>2026-04-06T10:30:27Z</time></trkpt><trkpt lat="38.376023064928255" lon="16.157814669362597"><ele>885.0</ele><time>2026-04-06T10:30:28Z</time></trkpt><trkpt lat="38.376031815617054" lon="16.15772225881621"><ele>885.0</ele><time>2026-04-06T10:30:29Z</time></trkpt><trkpt lat="38.37603672282426" lon="16.157640253826344"><ele>885.0</ele><time>2026-04-06T10:30:30Z</time></trkpt><trkpt lat="38.37602245232274" lon="16.157559840925543"><ele>885.0</ele><time>2026-04-06T10:30:33Z</time></trkpt><trkpt lat="38.37603385539176" lon="16.157459029171658"><ele>885.0</ele><time>2026-04-06T10:30:37Z</time></trkpt><trkpt lat="38.376027142730095" lon="16.15737655490359"><ele>885.0</ele><time>2026-04-06T10:30:41Z</time></trkpt><trkpt lat="38.37604956667274" lon="16.157274782241764"><ele>885.0</ele><time>2026-04-06T10:30:43Z</time></trkpt><trkpt lat="38.37608441217248" lon="16.157121171114905"><ele>885.3333333333334</ele><time>2026-04-06T10:30:46Z</time></trkpt><trkpt lat="38.37611422439716" lon="16.157032189705536"><ele>885.6666666666667</ele><time>2026-04-06T10:30:47Z</time></trkpt><trkpt lat="38.3761570569453" lon="16.15692674747329"><ele>886.0</ele><time>2026-04-06T10:30:48Z</time></trkpt><trkpt lat="38.37619752933622" lon="16.156823192288464"><ele>886.3333333333334</ele><time>2026-04-06T10:30:49Z</time></trkpt><trkpt lat="38.376260739356304" lon="16.156737825903"><ele>886.6666666666667</ele><time>2026-04-06T10:30:50Z</time></trkpt><trkpt lat="38.37631073139832" lon="16.156655971737454"><ele>887.0</ele><time>2026-04-06T10:30:51Z</time></trkpt><trkpt lat="38.37636040910083" lon="16.1565669744235"><ele>887.5000000000001</ele><time>2026-04-06T10:30:52Z</time></trkpt><trkpt lat="38.376404324002834" lon="16.156466792550994"><ele>888.0</ele><time>2026-04-06T10:30:53Z</time></trkpt><trkpt lat="38.376431155358176" lon="16.156369554561888"><ele>888.5</ele><time>2026-04-06T10:30:54Z</time></trkpt><trkpt lat="38.376445134293064" lon="16.156256798218774"><ele>889.0</ele><time>2026-04-06T10:30:55Z</time></trkpt><trkpt lat="38.37643221037972" lon="16.156158005353358"><ele>889.5000000000001</ele><time>2026-04-06T10:30:56Z</time></trkpt><trkpt lat="38.37645364072774" lon="16.156043386936503"><ele>890.0</ele><time>2026-04-06T10:30:57Z</time></trkpt><trkpt lat="38.37641851601011" lon="16.1559059252359"><ele>890.0</ele><time>2026-04-06T10:30:58Z</time></trkpt><trkpt lat="38.3763629571454" lon="16.15579278311387"><ele>890.0</ele><time>2026-04-06T10:30:59Z</time></trkpt><trkpt lat="38.376318979984795" lon="16.15567953751958"><ele>890.0</ele><time>2026-04-06T10:31:00Z</time></trkpt><trkpt lat="38.37626608441294" lon="16.155600792028388"><ele>890.0</ele><time>2026-04-06T10:31:01Z</time></trkpt><trkpt lat="38.376185250050604" lon="16.15551791732467"><ele>890.0</ele><time>2026-04-06T10:31:02Z</time></trkpt><trkpt lat="38.37612361608228" lon="16.155473799697003"><ele>890.0</ele><time>2026-04-06T10:31:03Z</time></trkpt><trkpt lat="38.37604951746574" lon="16.15544440971352"><ele>890.0</ele><time>2026-04-06T10:31:04Z</time></trkpt><trkpt lat="38.37594330867712" lon="16.155445578591852"><ele>890.0</ele><time>2026-04-06T10:31:05Z</time></trkpt><trkpt lat="38.37586030673003" lon="16.15545445658052"><ele>890.0</ele><time>2026-04-06T10:31:06Z</time></trkpt><trkpt lat="38.375715816164146" lon="16.155464773568987"><ele>890.0</ele><time>2026-04-06T10:31:08Z</time></trkpt><trkpt lat="38.37560343321248" lon="16.155456179776483"><ele>893.75</ele><time>2026-04-06T10:31:10Z</time></trkpt><trkpt lat="38.375518537202915" lon="16.155390881628723"><ele>897.5</ele><time>2026-04-06T10:31:12Z</time></trkpt><trkpt lat="38.37540824277221" lon="16.1553025973991"><ele>901.25</ele><time>2026-04-06T10:31:14Z</time></trkpt><trkpt lat="38.37528865971985" lon="16.155090804948863"><ele>905.0</ele><time>2026-04-06T10:31:16Z</time></trkpt><trkpt lat="38.37525907867211" lon="16.154950881605334"><ele>903.0</ele><time>2026-04-06T10:31:17Z</time></trkpt><trkpt lat="38.375290080142996" lon="16.15483988466906"><ele>901.0</ele><time>2026-04-06T10:31:18Z</time></trkpt><trkpt lat="38.37532317574371" lon="16.154732945670833"><ele>899.0</ele><time>2026-04-06T10:31:20Z</time></trkpt><trkpt lat="38.375315362133534" lon="16.154568758662773"><ele>897.0</ele><time>2026-04-06T10:31:23Z</time></trkpt><trkpt lat="38.37530326453714" lon="16.154399389509983"><ele>895.0</ele><time>2026-04-06T10:31:25Z</time></trkpt><trkpt lat="38.375207326587585" lon="16.154248367595457"><ele>894.9999999999999</ele><time>2026-04-06T10:31:27Z</time></trkpt><trkpt lat="38.37512569856032" lon="16.15421484821286"><ele>895.0</ele><time>2026-04-06T10:31:28Z</time></trkpt><trkpt lat="38.375048336172696" lon="16.154166871905506"><ele>895.0</ele><time>2026-04-06T10:31:29Z</time></trkpt><trkpt lat="38.37497161754307" lon="16.15408608193496"><ele>895.0</ele><time>2026-04-06T10:31:30Z</time></trkpt><trkpt lat="38.37491906450824" lon="16.154018153227387"><ele>894.9999999999999</ele><time>2026-04-06T10:31:31Z</time></trkpt><trkpt lat="38.37485691337546" lon="16.15391750098697"><ele>895.0</ele><time>2026-04-06T10:31:32Z</time></trkpt><trkpt lat="38.37480518099935" lon="16.153830121653247"><ele>896.0</ele><time>2026-04-06T10:31:33Z</time></trkpt><trkpt lat="38.3747185971087" lon="16.15370270205474"><ele>897.0</ele><time>2026-04-06T10:31:34Z</time></trkpt><trkpt lat="38.374653172379105" lon="16.15356384941529"><ele>898.0</ele><time>2026-04-06T10:31:35Z</time></trkpt><trkpt lat="38.37457675795825" lon="16.153427558693604"><ele>899.0</ele><time>2026-04-06T10:31:36Z</time></trkpt><trkpt lat="38.37450928546183" lon="16.153261932875143"><ele>900.2</ele><time>2026-04-06T10:31:37Z</time></trkpt><trkpt lat="38.37444739461307" lon="16.15313143409606"><ele>901.4000000000001</ele><time>2026-04-06T10:31:38Z</time></trkpt><trkpt lat="38.37439930948973" lon="16.153009502055614"><ele>902.6</ele><time>2026-04-06T10:31:39Z</time></trkpt><trkpt lat="38.37437478281745" lon="16.152891524672462"><ele>903.8</ele><time>2026-04-06T10:31:40Z</time></trkpt><trkpt lat="38.374366332110974" lon="16.152740852057175"><ele>905.0</ele><time>2026-04-06T10:31:41Z</time></trkpt><trkpt lat="38.374361035051706" lon="16.1526040517563"><ele>905.0</ele><time>2026-04-06T10:31:42Z</time></trkpt><trkpt lat="38.37437519754223" lon="16.152482008148368"><ele>905.0</ele><time>2026-04-06T10:31:43Z</time></trkpt><trkpt lat="38.374387754204456" lon="16.152379114303102"><ele>905.0</ele><time>2026-04-06T10:31:44Z</time></trkpt><trkpt lat="38.37439352203633" lon="16.152259342021722"><ele>905.0</ele><time>2026-04-06T10:31:45Z</time></trkpt><trkpt lat="38.37447972818447" lon="16.152167885187215"><ele>905.0</ele><time>2026-04-06T10:31:46Z</time></trkpt><trkpt lat="38.37456392252183" lon="16.152100520980124"><ele>905.25</ele><time>2026-04-06T10:31:47Z</time></trkpt><trkpt lat="38.37466165816176" lon="16.152056905404915"><ele>905.5</ele><time>2026-04-06T10:31:48Z</time></trkpt><trkpt lat="38.374776637397616" lon="16.152040390677147"><ele>905.75</ele><time>2026-04-06T10:31:49Z</time></trkpt><trkpt lat="38.37490553216586" lon="16.152062691618987"><ele>906.0</ele><time>2026-04-06T10:31:50Z</time></trkpt><trkpt lat="38.37502966374978" lon="16.152044522429378"><ele>904.8</ele><time>2026-04-06T10:31:51Z</time></trkpt><trkpt lat="38.37515428755565" lon="16.152037682250853"><ele>903.5999999999999</ele><time>2026-04-06T10:31:52Z</time></trkpt><trkpt lat="38.375248157043444" lon="16.152019848217147"><ele>902.4</ele><time>2026-04-06T10:31:53Z</time></trkpt><trkpt lat="38.375320791047486" lon="16.151996787490365"><ele>901.2</ele><time>2026-04-06T10:31:54Z</time></trkpt><trkpt lat="38.375376055995844" lon="16.151917645381502"><ele>900.0</ele><time>2026-04-06T10:31:55Z</time></trkpt><trkpt lat="38.37542918670272" lon="16.15184694693672"><ele>900.0</ele><time>2026-04-06T10:31:56Z</time></trkpt><trkpt lat="38.375414937032836" lon="16.151719956925994"><ele>900.0</ele><time>2026-04-06T10:31:57Z</time></trkpt><trkpt lat="38.375426286172704" lon="16.151619501499635"><ele>900.0</ele><time>2026-04-06T10:31:58Z</time></trkpt><trkpt lat="38.375401405065766" lon="16.15151884717323"><ele>900.0</ele><time>2026-04-06T10:31:59Z</time></trkpt><trkpt lat="38.375386341177986" lon="16.151429230317543"><ele>900.0</ele><time>2026-04-06T10:32:00Z</time></trkpt><trkpt lat="38.375352312398114" lon="16.151273925918947"><ele>900.0</ele><time>2026-04-06T10:32:01Z</time></trkpt><trkpt lat="38.37531512691411" lon="16.15114724187551"><ele>900.0</ele><time>2026-04-06T10:32:02Z</time></trkpt><trkpt lat="38.375264092203" lon="16.151053706152048"><ele>900.0</ele><time>2026-04-06T10:32:03Z</time></trkpt><trkpt lat="38.37525006523591" lon="16.150947125485125"><ele>900.0</ele><time>2026-04-06T10:32:04Z</time></trkpt><trkpt lat="38.37519809680904" lon="16.150864074095796"><ele>900.0</ele><time>2026-04-06T10:32:05Z</time></trkpt><trkpt lat="38.37515497715115" lon="16.15079750452801"><ele>900.0</ele><time>2026-04-06T10:32:06Z</time></trkpt><trkpt lat="38.37510314591426" lon="16.15072281236105"><ele>897.0</ele><time>2026-04-06T10:32:07Z</time></trkpt><trkpt lat="38.37503709659109" lon="16.150682633325985"><ele>894.0</ele><time>2026-04-06T10:32:08Z</time></trkpt><trkpt lat="38.374942141468324" lon="16.150544394147598"><ele>891.0</ele><time>2026-04-06T10:32:10Z</time></trkpt><trkpt lat="38.374887010996034" lon="16.150450346680014"><ele>888.0</ele><time>2026-04-06T10:32:11Z</time></trkpt><trkpt lat="38.37481298317538" lon="16.150347382372214"><ele>885.0</ele><time>2026-04-06T10:32:12Z</time></trkpt><trkpt lat="38.37473693804122" lon="16.15022495093837"><ele>886.3333333333334</ele><time>2026-04-06T10:32:13Z</time></trkpt><trkpt lat="38.37468473765951" lon="16.150161554411714"><ele>887.6666666666667</ele><time>2026-04-06T10:32:15Z</time></trkpt><trkpt lat="38.37462062275698" lon="16.150064027611016"><ele>889.0</ele><time>2026-04-06T10:32:18Z</time></trkpt><trkpt lat="38.37457310767692" lon="16.149991751083107"><ele>890.3333333333334</ele><time>2026-04-06T10:32:19Z</time></trkpt><trkpt lat="38.3745222888326" lon="16.149915522872966"><ele>891.6666666666667</ele><time>2026-04-06T10:32:20Z</time></trkpt><trkpt lat="38.37446276215599" lon="16.149822731464308"><ele>893.0</ele><time>2026-04-06T10:32:21Z</time></trkpt><trkpt lat="38.374383021599584" lon="16.149730400132498"><ele>893.0</ele><time>2026-04-06T10:32:22Z</time></trkpt><trkpt lat="38.37429698538421" lon="16.149632336681147"><ele>893.0</ele><time>2026-04-06T10:32:23Z</time></trkpt><trkpt lat="38.37420289122489" lon="16.14958550473012"><ele>893.0</ele><time>2026-04-06T10:32:24Z</time></trkpt><trkpt lat="38.37413442670324" lon="16.149525772138585"><ele>893.0</ele><time>2026-04-06T10:32:25Z</time></trkpt><trkpt lat="38.37397944061614" lon="16.14947737874913"><ele>893.0</ele><time>2026-04-06T10:32:27Z</time></trkpt><trkpt lat="38.37387150034803" lon="16.149487825641266"><ele>893.0</ele><time>2026-04-06T10:32:28Z</time></trkpt><trkpt lat="38.37375024643549" lon="16.149543683120633"><ele>893.0</ele><time>2026-04-06T10:32:29Z</time></trkpt><trkpt lat="38.373605350729704" lon="16.14963413733803"><ele>893.0</ele><time>2026-04-06T10:32:30Z</time></trkpt><trkpt lat="38.373476235077746" lon="16.149709232836983"><ele>892.5</ele><time>2026-04-06T10:32:31Z</time></trkpt><trkpt lat="38.37334603151008" lon="16.149785438717313"><ele>892.0</ele><time>2026-04-06T10:32:32Z</time></trkpt><trkpt lat="38.37323195746559" lon="16.149853524897146"><ele>891.5</ele><time>2026-04-06T10:32:33Z</time></trkpt><trkpt lat="38.373131326542016" lon="16.149905646225825"><ele>891.0</ele><time>2026-04-06T10:32:34Z</time></trkpt><trkpt lat="38.37302021489301" lon="16.1499608642291"><ele>891.0</ele><time>2026-04-06T10:32:35Z</time></trkpt><trkpt lat="38.37292614219263" lon="16.150014434261827"><ele>891.0</ele><time>2026-04-06T10:32:36Z</time></trkpt><trkpt lat="38.372827938494936" lon="16.150014879927227"><ele>891.0</ele><time>2026-04-06T10:32:37Z</time></trkpt><trkpt lat="38.37274594441158" lon="16.15001252689786"><ele>891.0</ele><time>2026-04-06T10:32:38Z</time></trkpt><trkpt lat="38.37267802927453" lon="16.14995055168293"><ele>891.0</ele><time>2026-04-06T10:32:39Z</time></trkpt><trkpt lat="38.3726399893774" lon="16.149858668516096"><ele>891.0</ele><time>2026-04-06T10:32:40Z</time></trkpt><trkpt lat="38.37262346581902" lon="16.149753384227317"><ele>889.5999999999999</ele><time>2026-04-06T10:32:41Z</time></trkpt><trkpt lat="38.37264340644539" lon="16.149611137849583"><ele>888.1999999999999</ele><time>2026-04-06T10:32:42Z</time></trkpt><trkpt lat="38.3726316391416" lon="16.14949848280512"><ele>886.8000000000001</ele><time>2026-04-06T10:32:43Z</time></trkpt><trkpt lat="38.37258627402626" lon="16.14940571767297"><ele>885.4000000000001</ele><time>2026-04-06T10:32:44Z</time></trkpt><trkpt lat="38.37255773083363" lon="16.14929005003286"><ele>884.0</ele><time>2026-04-06T10:32:45Z</time></trkpt><trkpt lat="38.37248332705636" lon="16.149176311373196"><ele>884.0</ele><time>2026-04-06T10:32:46Z</time></trkpt><trkpt lat="38.372391227899186" lon="16.149089601678288"><ele>884.0</ele><time>2026-04-06T10:32:47Z</time></trkpt><trkpt lat="38.37226490590408" lon="16.149006690133763"><ele>884.0</ele><time>2026-04-06T10:32:48Z</time></trkpt><trkpt lat="38.37213926345859" lon="16.148931455700815"><ele>884.0</ele><time>2026-04-06T10:32:49Z</time></trkpt><trkpt lat="38.372017007587665" lon="16.148878542187518"><ele>885.6</ele><time>2026-04-06T10:32:50Z</time></trkpt><trkpt lat="38.371927814788826" lon="16.148812452451683"><ele>887.2</ele><time>2026-04-06T10:32:51Z</time></trkpt><trkpt lat="38.37183620819213" lon="16.148752605717025"><ele>888.8000000000001</ele><time>2026-04-06T10:32:52Z</time></trkpt><trkpt lat="38.37171478940588" lon="16.14870015670157"><ele>890.4000000000001</ele><time>2026-04-06T10:32:53Z</time></trkpt><trkpt lat="38.37163597784869" lon="16.148653348976925"><ele>892.0</ele><time>2026-04-06T10:32:54Z</time></trkpt><trkpt lat="38.3715653694412" lon="16.14861283304626"><ele>892.0</ele><time>2026-04-06T10:32:55Z</time></trkpt><trkpt lat="38.37146256114394" lon="16.148588011516"><ele>892.0</ele><time>2026-04-06T10:32:56Z</time></trkpt><trkpt lat="38.37138131723835" lon="16.14862223727261"><ele>892.0</ele><time>2026-04-06T10:32:57Z</time></trkpt><trkpt lat="38.37127801447357" lon="16.148603289209127"><ele>892.0</ele><time>2026-04-06T10:32:58Z</time></trkpt><trkpt lat="38.371159184598916" lon="16.148618873706358"><ele>892.0</ele><time>2026-04-06T10:32:59Z</time></trkpt><trkpt lat="38.371048982829436" lon="16.148625740839567"><ele>891.6</ele><time>2026-04-06T10:33:00Z</time></trkpt><trkpt lat="38.3709530204038" lon="16.148612433442835"><ele>891.2</ele><time>2026-04-06T10:33:01Z</time></trkpt><trkpt lat="38.37082309509309" lon="16.148626739515468"><ele>890.8</ele><time>2026-04-06T10:33:02Z</time></trkpt><trkpt lat="38.37071709576446" lon="16.148654038229427"><ele>890.4</ele><time>2026-04-06T10:33:03Z</time></trkpt><trkpt lat="38.37061902358273" lon="16.14869206730272"><ele>890.0</ele><time>2026-04-06T10:33:04Z</time></trkpt><trkpt lat="38.37051858920832" lon="16.148748800028713"><ele>889.6</ele><time>2026-04-06T10:33:05Z</time></trkpt><trkpt lat="38.37042919359058" lon="16.148801071867958"><ele>889.2</ele><time>2026-04-06T10:33:06Z</time></trkpt><trkpt lat="38.370338245285964" lon="16.148878054358633"><ele>888.8</ele><time>2026-04-06T10:33:07Z</time></trkpt><trkpt lat="38.370276530339964" lon="16.148948250334243"><ele>888.4</ele><time>2026-04-06T10:33:08Z</time></trkpt><trkpt lat="38.370197169128346" lon="16.149074817826843"><ele>888.0</ele><time>2026-04-06T10:33:09Z</time></trkpt><trkpt lat="38.37013293593578" lon="16.14920802428425"><ele>888.0</ele><time>2026-04-06T10:33:10Z</time></trkpt><trkpt lat="38.37007413052272" lon="16.149353410020524"><ele>888.0</ele><time>2026-04-06T10:33:11Z</time></trkpt><trkpt lat="38.370025737421386" lon="16.149498899309165"><ele>888.0</ele><time>2026-04-06T10:33:12Z</time></trkpt><trkpt lat="38.36999594417641" lon="16.149615709177336"><ele>888.0</ele><time>2026-04-06T10:33:13Z</time></trkpt><trkpt lat="38.36997918231154" lon="16.149706175247015"><ele>888.0</ele><time>2026-04-06T10:33:14Z</time></trkpt><trkpt lat="38.3699859458061" lon="16.14981084289938"><ele>888.5999999999999</ele><time>2026-04-06T10:33:15Z</time></trkpt><trkpt lat="38.36997485764459" lon="16.149922636766167"><ele>889.1999999999999</ele><time>2026-04-06T10:33:16Z</time></trkpt><trkpt lat="38.369982347446616" lon="16.150024968089703"><ele>889.8</ele><time>2026-04-06T10:33:17Z</time></trkpt><trkpt lat="38.37000735526829" lon="16.1501604941952"><ele>890.4</ele><time>2026-04-06T10:33:19Z</time></trkpt><trkpt lat="38.36997625636589" lon="16.150304416505254"><ele>891.0</ele><time>2026-04-06T10:33:20Z</time></trkpt><trkpt lat="38.369975264423225" lon="16.150413648965777"><ele>891.0</ele><time>2026-04-06T10:33:21Z</time></trkpt><trkpt lat="38.36989964564072" lon="16.15052808480488"><ele>890.9999999999999</ele><time>2026-04-06T10:33:22Z</time></trkpt><trkpt lat="38.36979243088849" lon="16.150586345941516"><ele>890.9999999999999</ele><time>2026-04-06T10:33:23Z</time></trkpt><trkpt lat="38.36968006507794" lon="16.150627270564847"><ele>891.0</ele><time>2026-04-06T10:33:24Z</time></trkpt><trkpt lat="38.36960565568753" lon="16.15065093298129"><ele>891.0</ele><time>2026-04-06T10:33:25Z</time></trkpt><trkpt lat="38.36950323106305" lon="16.15066476522802"><ele>889.8</ele><time>2026-04-06T10:33:26Z</time></trkpt><trkpt lat="38.369377564363255" lon="16.150636495529614"><ele>888.5999999999999</ele><time>2026-04-06T10:33:27Z</time></trkpt><trkpt lat="38.36931209973659" lon="16.150592323068924"><ele>887.4</ele><time>2026-04-06T10:33:28Z</time></trkpt><trkpt lat="38.369260228962105" lon="16.150546163112942"><ele>886.2</ele><time>2026-04-06T10:33:29Z</time></trkpt><trkpt lat="38.36918817651182" lon="16.15046915578627"><ele>885.0</ele><time>2026-04-06T10:33:30Z</time></trkpt><trkpt lat="38.3691085941515" lon="16.15038271497181"><ele>885.0</ele><time>2026-04-06T10:33:31Z</time></trkpt><trkpt lat="38.36903782218431" lon="16.15030990104603"><ele>885.0</ele><time>2026-04-06T10:33:32Z</time></trkpt><trkpt lat="38.368977462826926" lon="16.15025545505487"><ele>885.0</ele><time>2026-04-06T10:33:33Z</time></trkpt><trkpt lat="38.36888467503629" lon="16.1501899829394"><ele>885.0</ele><time>2026-04-06T10:33:34Z</time></trkpt><trkpt lat="38.3688075298185" lon="16.150143242421137"><ele>885.0</ele><time>2026-04-06T10:33:35Z</time></trkpt><trkpt lat="38.36867146477563" lon="16.150067016530183"><ele>884.6666666666667</ele><time>2026-04-06T10:33:36Z</time></trkpt><trkpt lat="38.36853708160176" lon="16.150031998292803"><ele>884.3333333333334</ele><time>2026-04-06T10:33:37Z</time></trkpt><trkpt lat="38.36833472722723" lon="16.149976329081905"><ele>884.0</ele><time>2026-04-06T10:33:38Z</time></trkpt><trkpt lat="38.368136867840455" lon="16.14995984477322"><ele>882.6666666666667</ele><time>2026-04-06T10:33:39Z</time></trkpt><trkpt lat="38.36796237534346" lon="16.149956618258255"><ele>881.3333333333333</ele><time>2026-04-06T10:33:40Z</time></trkpt><trkpt lat="38.36780988087357" lon="16.14995529850391"><ele>880.0</ele><time>2026-04-06T10:33:41Z</time></trkpt><trkpt lat="38.36766767364317" lon="16.149944908544057"><ele>880.0</ele><time>2026-04-06T10:33:42Z</time></trkpt><trkpt lat="38.367537427905866" lon="16.149932682935347"><ele>880.0</ele><time>2026-04-06T10:33:43Z</time></trkpt><trkpt lat="38.36742439915321" lon="16.149923610036257"><ele>880.0</ele><time>2026-04-06T10:33:44Z</time></trkpt><trkpt lat="38.36732472220386" lon="16.149895439660092"><ele>880.0</ele><time>2026-04-06T10:33:45Z</time></trkpt><trkpt lat="38.36722595193469" lon="16.14982206543504"><ele>880.5</ele><time>2026-04-06T10:33:46Z</time></trkpt><trkpt lat="38.3671143755829" lon="16.149740498914426"><ele>881.0</ele><time>2026-04-06T10:33:47Z</time></trkpt><trkpt lat="38.36701860716768" lon="16.14966866219167"><ele>881.5</ele><time>2026-04-06T10:33:48Z</time></trkpt><trkpt lat="38.366922434380676" lon="16.149594716812945"><ele>882.0</ele><time>2026-04-06T10:33:49Z</time></trkpt><trkpt lat="38.366840540167445" lon="16.14952646642932"><ele>882.0</ele><time>2026-04-06T10:33:50Z</time></trkpt><trkpt lat="38.36675057516338" lon="16.149467256026742"><ele>882.0</ele><time>2026-04-06T10:33:51Z</time></trkpt><trkpt lat="38.36669750552103" lon="16.149392211967818"><ele>882.0</ele><time>2026-04-06T10:33:52Z</time></trkpt><trkpt lat="38.36660148272117" lon="16.149269693762697"><ele>882.0</ele><time>2026-04-06T10:33:54Z</time></trkpt><trkpt lat="38.36653788969575" lon="16.149172516983104"><ele>882.0</ele><time>2026-04-06T10:33:56Z</time></trkpt><trkpt lat="38.36659300969067" lon="16.14892186495717"><ele>882.8</ele><time>2026-04-06T10:33:57Z</time></trkpt><trkpt lat="38.366665462718366" lon="16.148849360704126"><ele>883.6</ele><time>2026-04-06T10:33:58Z</time></trkpt><trkpt lat="38.36672314717298" lon="16.14879539216055"><ele>884.3999999999999</ele><time>2026-04-06T10:33:59Z</time></trkpt><trkpt lat="38.36680881932176" lon="16.148709871665236"><ele>885.1999999999999</ele><time>2026-04-06T10:34:00Z</time></trkpt><trkpt lat="38.3668807539786" lon="16.148596756783352"><ele>886.0</ele><time>2026-04-06T10:34:01Z</time></trkpt><trkpt lat="38.366942499578826" lon="16.14849798598987"><ele>886.0</ele><time>2026-04-06T10:34:02Z</time></trkpt><trkpt lat="38.36701422166688" lon="16.14838229598563"><ele>886.0</ele><time>2026-04-06T10:34:03Z</time></trkpt><trkpt lat="38.36706256157318" lon="16.14823676301149"><ele>886.0</ele><time>2026-04-06T10:34:04Z</time></trkpt><trkpt lat="38.36708527530337" lon="16.14810526622686"><ele>886.0</ele><time>2026-04-06T10:34:05Z</time></trkpt><trkpt lat="38.36707167842591" lon="16.14791916908323"><ele>883.25</ele><time>2026-04-06T10:34:06Z</time></trkpt><trkpt lat="38.367020839444244" lon="16.14776979436587"><ele>880.5</ele><time>2026-04-06T10:34:07Z</time></trkpt><trkpt lat="38.36692933439604" lon="16.147607673686522"><ele>877.75</ele><time>2026-04-06T10:34:08Z</time></trkpt><trkpt lat="38.36680971110724" lon="16.14747520156234"><ele>875.0</ele><time>2026-04-06T10:34:09Z</time></trkpt><trkpt lat="38.36672432316296" lon="16.14738680313636"><ele>873.5000000000001</ele><time>2026-04-06T10:34:10Z</time></trkpt><trkpt lat="38.36665365498398" lon="16.14732156926591"><ele>872.0</ele><time>2026-04-06T10:34:11Z</time></trkpt><trkpt lat="38.36658648111452" lon="16.147262861026352"><ele>870.5</ele><time>2026-04-06T10:34:12Z</time></trkpt><trkpt lat="38.36654899455748" lon="16.147184237286485"><ele>869.0</ele><time>2026-04-06T10:34:13Z</time></trkpt><trkpt lat="38.36652862577892" lon="16.14709258120705"><ele>867.5000000000001</ele><time>2026-04-06T10:34:14Z</time></trkpt><trkpt lat="38.36652676527083" lon="16.146992788928674"><ele>866.0</ele><time>2026-04-06T10:34:15Z</time></trkpt><trkpt lat="38.366560061693754" lon="16.146860237322436"><ele>866.0</ele><time>2026-04-06T10:34:16Z</time></trkpt><trkpt lat="38.36658781205184" lon="16.146715083046292"><ele>866.0</ele><time>2026-04-06T10:34:17Z</time></trkpt><trkpt lat="38.36663018843606" lon="16.146567836697045"><ele>866.0</ele><time>2026-04-06T10:34:18Z</time></trkpt><trkpt lat="38.366666119778934" lon="16.14641493835655"><ele>866.0</ele><time>2026-04-06T10:34:19Z</time></trkpt><trkpt lat="38.36670328376755" lon="16.146265327082126"><ele>866.0</ele><time>2026-04-06T10:34:20Z</time></trkpt><trkpt lat="38.366728667055014" lon="16.14613406780064"><ele>866.0</ele><time>2026-04-06T10:34:21Z</time></trkpt><trkpt lat="38.366740465700644" lon="16.14597545975047"><ele>866.0</ele><time>2026-04-06T10:34:22Z</time></trkpt><trkpt lat="38.36670041629824" lon="16.145808267499223"><ele>866.0</ele><time>2026-04-06T10:34:23Z</time></trkpt><trkpt lat="38.366634777576266" lon="16.145647138842087"><ele>865.75</ele><time>2026-04-06T10:34:24Z</time></trkpt><trkpt lat="38.366590116262806" lon="16.14547017913039"><ele>865.5</ele><time>2026-04-06T10:34:25Z</time></trkpt><trkpt lat="38.36656083958089" lon="16.145275290590767"><ele>865.25</ele><time>2026-04-06T10:34:26Z</time></trkpt><trkpt lat="38.366546295345394" lon="16.145090949616137"><ele>865.0</ele><time>2026-04-06T10:34:27Z</time></trkpt><trkpt lat="38.366531691368785" lon="16.144934061271478"><ele>866.4</ele><time>2026-04-06T10:34:28Z</time></trkpt><trkpt lat="38.36650926213579" lon="16.144790823895086"><ele>867.8</ele><time>2026-04-06T10:34:29Z</time></trkpt><trkpt lat="38.366513970539145" lon="16.144687733089913"><ele>869.2</ele><time>2026-04-06T10:34:30Z</time></trkpt><trkpt lat="38.36653821725921" lon="16.144585968296028"><ele>870.6</ele><time>2026-04-06T10:34:31Z</time></trkpt><trkpt lat="38.36655173646556" lon="16.144490618331325"><ele>872.0</ele><time>2026-04-06T10:34:32Z</time></trkpt><trkpt lat="38.36664396514661" lon="16.144438313513515"><ele>872.0</ele><time>2026-04-06T10:34:33Z</time></trkpt><trkpt lat="38.36674487215411" lon="16.144418312197367"><ele>872.0</ele><time>2026-04-06T10:34:34Z</time></trkpt><trkpt lat="38.36686046003039" lon="16.14444074593247"><ele>872.0</ele><time>2026-04-06T10:34:35Z</time></trkpt><trkpt lat="38.36695195962425" lon="16.144461931568944"><ele>872.0</ele><time>2026-04-06T10:34:36Z</time></trkpt><trkpt lat="38.36708765693549" lon="16.144481571153644"><ele>872.0</ele><time>2026-04-06T10:34:37Z</time></trkpt><trkpt lat="38.367227863042295" lon="16.144497363509295"><ele>870.5</ele><time>2026-04-06T10:34:38Z</time></trkpt><trkpt lat="38.36737795870337" lon="16.144464822956664"><ele>869.0</ele><time>2026-04-06T10:34:39Z</time></trkpt><trkpt lat="38.367519882503196" lon="16.14447670512726"><ele>867.5</ele><time>2026-04-06T10:34:40Z</time></trkpt><trkpt lat="38.36765888536135" lon="16.144465710695552"><ele>866.0</ele><time>2026-04-06T10:34:41Z</time></trkpt><trkpt lat="38.36778266782115" lon="16.144441030252192"><ele>866.0</ele><time>2026-04-06T10:34:42Z</time></trkpt><trkpt lat="38.367897370250624" lon="16.14438555397221"><ele>866.0</ele><time>2026-04-06T10:34:43Z</time></trkpt><trkpt lat="38.36801404675958" lon="16.14429050389213"><ele>866.0</ele><time>2026-04-06T10:34:44Z</time></trkpt><trkpt lat="38.36811894579591" lon="16.144149640827177"><ele>866.0</ele><time>2026-04-06T10:34:45Z</time></trkpt><trkpt lat="38.368191777176754" lon="16.144030608080485"><ele>863.4</ele><time>2026-04-06T10:34:46Z</time></trkpt><trkpt lat="38.36825311043282" lon="16.143899164649724"><ele>860.8</ele><time>2026-04-06T10:34:47Z</time></trkpt><trkpt lat="38.36830792953423" lon="16.14378613739049"><ele>858.1999999999999</ele><time>2026-04-06T10:34:48Z</time></trkpt><trkpt lat="38.36833252513057" lon="16.143672306222935"><ele>855.5999999999999</ele><time>2026-04-06T10:34:49Z</time></trkpt><trkpt lat="38.36831673346684" lon="16.143555706490492"><ele>853.0</ele><time>2026-04-06T10:34:50Z</time></trkpt><trkpt lat="38.36826378304307" lon="16.14345524484696"><ele>853.0</ele><time>2026-04-06T10:34:51Z</time></trkpt><trkpt lat="38.36820199196346" lon="16.14336525198353"><ele>853.0</ele><time>2026-04-06T10:34:52Z</time></trkpt><trkpt lat="38.36812033684982" lon="16.143274709367347"><ele>853.0</ele><time>2026-04-06T10:34:53Z</time></trkpt><trkpt lat="38.368025111848276" lon="16.143164042942296"><ele>853.0</ele><time>2026-04-06T10:34:54Z</time></trkpt><trkpt lat="38.36789908794663" lon="16.143024217751705"><ele>856.0</ele><time>2026-04-06T10:34:55Z</time></trkpt><trkpt lat="38.36779108852861" lon="16.14286898382683"><ele>859.0</ele><time>2026-04-06T10:34:56Z</time></trkpt><trkpt lat="38.3677439523452" lon="16.142763028313198"><ele>862.0</ele><time>2026-04-06T10:34:57Z</time></trkpt><trkpt lat="38.3677086853109" lon="16.142692746496056"><ele>865.0</ele><time>2026-04-06T10:34:58Z</time></trkpt><trkpt lat="38.36767197431012" lon="16.14258789480332"><ele>868.0</ele><time>2026-04-06T10:35:00Z</time></trkpt><trkpt lat="38.3676398048472" lon="16.142475574387994"><ele>869.0</ele><time>2026-04-06T10:35:02Z</time></trkpt><trkpt lat="38.36761971012677" lon="16.142368832185664"><ele>870.0</ele><time>2026-04-06T10:35:04Z</time></trkpt><trkpt lat="38.367657367527734" lon="16.1422192292189"><ele>871.0</ele><time>2026-04-06T10:35:06Z</time></trkpt><trkpt lat="38.367706563364315" lon="16.142150741788804"><ele>872.0</ele><time>2026-04-06T10:35:07Z</time></trkpt><trkpt lat="38.36777564151899" lon="16.142098722191378"><ele>873.0</ele><time>2026-04-06T10:35:08Z</time></trkpt><trkpt lat="38.36787502142461" lon="16.142066274536795"><ele>873.0</ele><time>2026-04-06T10:35:10Z</time></trkpt><trkpt lat="38.367951472917895" lon="16.14207590372755"><ele>873.0</ele><time>2026-04-06T10:35:12Z</time></trkpt><trkpt lat="38.36804221101673" lon="16.1421697848984"><ele>873.0</ele><time>2026-04-06T10:35:14Z</time></trkpt><trkpt lat="38.368108138875684" lon="16.1422318430853"><ele>873.0</ele><time>2026-04-06T10:35:15Z</time></trkpt><trkpt lat="38.36818960667469" lon="16.14229887525563"><ele>873.0</ele><time>2026-04-06T10:35:16Z</time></trkpt><trkpt lat="38.368289750816174" lon="16.142363869624557"><ele>868.4</ele><time>2026-04-06T10:35:17Z</time></trkpt><trkpt lat="38.368399428982634" lon="16.142416383654897"><ele>863.8</ele><time>2026-04-06T10:35:18Z</time></trkpt><trkpt lat="38.36849434557021" lon="16.14245345348769"><ele>859.2</ele><time>2026-04-06T10:35:19Z</time></trkpt><trkpt lat="38.36858283242838" lon="16.142490302980576"><ele>854.6</ele><time>2026-04-06T10:35:20Z</time></trkpt><trkpt lat="38.36866263184772" lon="16.142516266987826"><ele>850.0</ele><time>2026-04-06T10:35:21Z</time></trkpt><trkpt lat="38.368789517441115" lon="16.142517474941293"><ele>848.25</ele><time>2026-04-06T10:35:23Z</time></trkpt><trkpt lat="38.36888404482287" lon="16.142423677211887"><ele>846.5</ele><time>2026-04-06T10:35:24Z</time></trkpt><trkpt lat="38.368909268493084" lon="16.14226092258351"><ele>844.75</ele><time>2026-04-06T10:35:25Z</time></trkpt><trkpt lat="38.36890540112988" lon="16.1420963430731"><ele>843.0</ele><time>2026-04-06T10:35:26Z</time></trkpt><trkpt lat="38.36888882234468" lon="16.141928219105385"><ele>843.0</ele><time>2026-04-06T10:35:27Z</time></trkpt><trkpt lat="38.368869638060886" lon="16.141750629384894"><ele>843.0</ele><time>2026-04-06T10:35:28Z</time></trkpt><trkpt lat="38.36885706856085" lon="16.141578857617016"><ele>843.0</ele><time>2026-04-06T10:35:29Z</time></trkpt><trkpt lat="38.368843786896" lon="16.141425867351362"><ele>843.0</ele><time>2026-04-06T10:35:30Z</time></trkpt><trkpt lat="38.36884123065282" lon="16.141315658900595"><ele>844.1666666666666</ele><time>2026-04-06T10:35:31Z</time></trkpt><trkpt lat="38.368841988274134" lon="16.141217134382323"><ele>845.3333333333333</ele><time>2026-04-06T10:35:32Z</time></trkpt><trkpt lat="38.3688440474651" lon="16.141110643216756"><ele>846.5</ele><time>2026-04-06T10:35:33Z</time></trkpt><trkpt lat="38.36885284354591" lon="16.140985905533455"><ele>847.6666666666666</ele><time>2026-04-06T10:35:37Z</time></trkpt><trkpt lat="38.36888059435995" lon="16.140910838230848"><ele>848.8333333333333</ele><time>2026-04-06T10:35:38Z</time></trkpt><trkpt lat="38.368900623259" lon="16.140782617674663"><ele>850.0</ele><time>2026-04-06T10:35:39Z</time></trkpt><trkpt lat="38.36897275621617" lon="16.140636822188636"><ele>855.6666666666666</ele><time>2026-04-06T10:35:40Z</time></trkpt><trkpt lat="38.3690867446173" lon="16.140529627435228"><ele>861.3333333333333</ele><time>2026-04-06T10:35:41Z</time></trkpt><trkpt lat="38.36923558101623" lon="16.140437232206907"><ele>867.0</ele><time>2026-04-06T10:35:42Z</time></trkpt><trkpt lat="38.369392975980375" lon="16.140402343068505"><ele>867.0</ele><time>2026-04-06T10:35:43Z</time></trkpt><trkpt lat="38.36947080362937" lon="16.140401450118404"><ele>867.0</ele><time>2026-04-06T10:35:44Z</time></trkpt><trkpt lat="38.3696147071373" lon="16.140401746611865"><ele>867.0</ele><time>2026-04-06T10:35:45Z</time></trkpt><trkpt lat="38.36973460800844" lon="16.140406556680393"><ele>867.0</ele><time>2026-04-06T10:35:46Z</time></trkpt><trkpt lat="38.36983704806931" lon="16.140341411226906"><ele>861.4000000000001</ele><time>2026-04-06T10:35:47Z</time></trkpt><trkpt lat="38.36992085067976" lon="16.140243111104628"><ele>855.8000000000001</ele><time>2026-04-06T10:35:48Z</time></trkpt><trkpt lat="38.369967833631314" lon="16.140108311477228"><ele>850.2</ele><time>2026-04-06T10:35:49Z</time></trkpt><trkpt lat="38.3699831512581" lon="16.139983375110415"><ele>844.6</ele><time>2026-04-06T10:35:50Z</time></trkpt><trkpt lat="38.369962635175646" lon="16.139836950789107"><ele>839.0</ele><time>2026-04-06T10:35:51Z</time></trkpt><trkpt lat="38.36991437696438" lon="16.13968956404928"><ele>837.5</ele><time>2026-04-06T10:35:52Z</time></trkpt><trkpt lat="38.369858227795675" lon="16.139532875060006"><ele>836.0</ele><time>2026-04-06T10:35:53Z</time></trkpt><trkpt lat="38.36978095406209" lon="16.139431877731322"><ele>834.5</ele><time>2026-04-06T10:35:54Z</time></trkpt><trkpt lat="38.369657896225384" lon="16.13935059819756"><ele>833.0</ele><time>2026-04-06T10:35:55Z</time></trkpt><trkpt lat="38.36951511053255" lon="16.139298431507353"><ele>833.8</ele><time>2026-04-06T10:35:56Z</time></trkpt><trkpt lat="38.369378060086774" lon="16.139250329544627"><ele>834.5999999999999</ele><time>2026-04-06T10:35:57Z</time></trkpt><trkpt lat="38.369272127921334" lon="16.13920851595774"><ele>835.4000000000001</ele><time>2026-04-06T10:35:58Z</time></trkpt><trkpt lat="38.369192192874905" lon="16.139156143013103"><ele>836.2</ele><time>2026-04-06T10:35:59Z</time></trkpt><trkpt lat="38.36913273236049" lon="16.139081651175662"><ele>837.0</ele><time>2026-04-06T10:36:00Z</time></trkpt><trkpt lat="38.369088657345735" lon="16.13898814263472"><ele>837.0</ele><time>2026-04-06T10:36:01Z</time></trkpt><trkpt lat="38.369064591799415" lon="16.138855400255096"><ele>837.0</ele><time>2026-04-06T10:36:02Z</time></trkpt><trkpt lat="38.3690372363866" lon="16.138692104512295"><ele>837.0</ele><time>2026-04-06T10:36:03Z</time></trkpt><trkpt lat="38.36903866715547" lon="16.138507424671594"><ele>837.0</ele><time>2026-04-06T10:36:04Z</time></trkpt><trkpt lat="38.36904812596365" lon="16.138278619536052"><ele>836.75</ele><time>2026-04-06T10:36:05Z</time></trkpt><trkpt lat="38.369080401252006" lon="16.138073593463588"><ele>836.5</ele><time>2026-04-06T10:36:06Z</time></trkpt><trkpt lat="38.36910120481448" lon="16.137914518491243"><ele>836.25</ele><time>2026-04-06T10:36:07Z</time></trkpt><trkpt lat="38.36912230965981" lon="16.13775868637546"><ele>836.0</ele><time>2026-04-06T10:36:08Z</time></trkpt><trkpt lat="38.369146563755166" lon="16.137618240269084"><ele>836.0000000000001</ele><time>2026-04-06T10:36:09Z</time></trkpt><trkpt lat="38.36916593588249" lon="16.137491024278415"><ele>836.0</ele><time>2026-04-06T10:36:10Z</time></trkpt><trkpt lat="38.36918723385276" lon="16.1373858059357"><ele>836.0</ele><time>2026-04-06T10:36:11Z</time></trkpt><trkpt lat="38.3692053774754" lon="16.137296491512657"><ele>836.0</ele><time>2026-04-06T10:36:12Z</time></trkpt><trkpt lat="38.36919837126662" lon="16.13716275394021"><ele>836.0000000000001</ele><time>2026-04-06T10:36:14Z</time></trkpt><trkpt lat="38.36920190161668" lon="16.13705636480692"><ele>836.0</ele><time>2026-04-06T10:36:17Z</time></trkpt><trkpt lat="38.369200965275866" lon="16.136964847366364"><ele>835.5</ele><time>2026-04-06T10:36:20Z</time></trkpt><trkpt lat="38.3691083988428" lon="16.136956656316762"><ele>835.0</ele><time>2026-04-06T10:36:27Z</time></trkpt><trkpt lat="38.36898469236651" lon="16.137035707930526"><ele>834.5</ele><time>2026-04-06T10:36:29Z</time></trkpt><trkpt lat="38.368896622729835" lon="16.137099251389603"><ele>834.0</ele><time>2026-04-06T10:36:30Z</time></trkpt><trkpt lat="38.36878021890589" lon="16.137154108289092"><ele>833.0</ele><time>2026-04-06T10:36:31Z</time></trkpt><trkpt lat="38.368657771133506" lon="16.13723260554398"><ele>832.0</ele><time>2026-04-06T10:36:32Z</time></trkpt><trkpt lat="38.36852180398073" lon="16.137343322491745"><ele>831.0</ele><time>2026-04-06T10:36:33Z</time></trkpt><trkpt lat="38.3683772361193" lon="16.13746775081701"><ele>832.3333333333333</ele><time>2026-04-06T10:36:34Z</time></trkpt><trkpt lat="38.36822946962703" lon="16.137587722784247"><ele>833.6666666666666</ele><time>2026-04-06T10:36:35Z</time></trkpt><trkpt lat="38.36807076084865" lon="16.137713410614428"><ele>835.0</ele><time>2026-04-06T10:36:36Z</time></trkpt><trkpt lat="38.36790548251824" lon="16.13784829986431"><ele>835.0</ele><time>2026-04-06T10:36:37Z</time></trkpt><trkpt lat="38.36776552377219" lon="16.137955543665782"><ele>835.0</ele><time>2026-04-06T10:36:38Z</time></trkpt><trkpt lat="38.36763312684059" lon="16.13802036939973"><ele>835.0</ele><time>2026-04-06T10:36:39Z</time></trkpt><trkpt lat="38.367493119341226" lon="16.138065578578747"><ele>835.0</ele><time>2026-04-06T10:36:40Z</time></trkpt><trkpt lat="38.367365051213284" lon="16.138104889167895"><ele>835.0</ele><time>2026-04-06T10:36:41Z</time></trkpt><trkpt lat="38.36726768236314" lon="16.138132541727057"><ele>835.0</ele><time>2026-04-06T10:36:42Z</time></trkpt><trkpt lat="38.367115745599854" lon="16.13819379354258"><ele>835.0</ele><time>2026-04-06T10:36:43Z</time></trkpt><trkpt lat="38.366962008661815" lon="16.13823591004138"><ele>835.0</ele><time>2026-04-06T10:36:44Z</time></trkpt><trkpt lat="38.366828247246936" lon="16.138288293988246"><ele>835.25</ele><time>2026-04-06T10:36:45Z</time></trkpt><trkpt lat="38.36669789641086" lon="16.138335236236372"><ele>835.5</ele><time>2026-04-06T10:36:46Z</time></trkpt><trkpt lat="38.366572499790905" lon="16.13843928468457"><ele>835.75</ele><time>2026-04-06T10:36:47Z</time></trkpt><trkpt lat="38.36646587155236" lon="16.138586214697845"><ele>836.0</ele><time>2026-04-06T10:36:48Z</time></trkpt><trkpt lat="38.36634878109692" lon="16.138726989714918"><ele>836.0</ele><time>2026-04-06T10:36:49Z</time></trkpt><trkpt lat="38.36622685607852" lon="16.138879033453257"><ele>836.0</ele><time>2026-04-06T10:36:50Z</time></trkpt><trkpt lat="38.36609646515564" lon="16.139040140917828"><ele>836.0</ele><time>2026-04-06T10:36:51Z</time></trkpt><trkpt lat="38.365970755921765" lon="16.139198132094496"><ele>837.0</ele><time>2026-04-06T10:36:52Z</time></trkpt><trkpt lat="38.36583936376978" lon="16.139338983232935"><ele>838.0</ele><time>2026-04-06T10:36:53Z</time></trkpt><trkpt lat="38.36573062399749" lon="16.13947426172992"><ele>839.0</ele><time>2026-04-06T10:36:54Z</time></trkpt><trkpt lat="38.365637745790394" lon="16.139622475358276"><ele>839.0</ele><time>2026-04-06T10:36:55Z</time></trkpt><trkpt lat="38.365538162212424" lon="16.139743583952693"><ele>839.0</ele><time>2026-04-06T10:36:56Z</time></trkpt><trkpt lat="38.36544506258559" lon="16.139853639943002"><ele>839.0</ele><time>2026-04-06T10:36:57Z</time></trkpt><trkpt lat="38.36533810721583" lon="16.139940866479378"><ele>839.0</ele><time>2026-04-06T10:36:58Z</time></trkpt><trkpt lat="38.3652250327756" lon="16.139998755987595"><ele>839.25</ele><time>2026-04-06T10:36:59Z</time></trkpt><trkpt lat="38.365096095106225" lon="16.140043572876568"><ele>839.5</ele><time>2026-04-06T10:37:00Z</time></trkpt><trkpt lat="38.36496670017586" lon="16.14008333215564"><ele>839.75</ele><time>2026-04-06T10:37:01Z</time></trkpt><trkpt lat="38.36485246123101" lon="16.140104562734138"><ele>840.0</ele><time>2026-04-06T10:37:02Z</time></trkpt><trkpt lat="38.36474933586233" lon="16.140082901941174"><ele>842.25</ele><time>2026-04-06T10:37:03Z</time></trkpt><trkpt lat="38.364650856771384" lon="16.140009900989014"><ele>844.5</ele><time>2026-04-06T10:37:04Z</time></trkpt><trkpt lat="38.364543950163004" lon="16.139904323999932"><ele>846.75</ele><time>2026-04-06T10:37:05Z</time></trkpt><trkpt lat="38.36442651997016" lon="16.139783235005282"><ele>849.0</ele><time>2026-04-06T10:37:06Z</time></trkpt><trkpt lat="38.36429859288766" lon="16.139658181505332"><ele>849.0</ele><time>2026-04-06T10:37:07Z</time></trkpt><trkpt lat="38.36417747759353" lon="16.13953603934653"><ele>849.0</ele><time>2026-04-06T10:37:08Z</time></trkpt><trkpt lat="38.36405875405404" lon="16.139414103527088"><ele>849.0</ele><time>2026-04-06T10:37:09Z</time></trkpt><trkpt lat="38.36393700765458" lon="16.13930094723154"><ele>852.0</ele><time>2026-04-06T10:37:10Z</time></trkpt><trkpt lat="38.36383909514968" lon="16.139177108813847"><ele>855.0</ele><time>2026-04-06T10:37:11Z</time></trkpt><trkpt lat="38.36375807017347" lon="16.139028432642426"><ele>858.0</ele><time>2026-04-06T10:37:12Z</time></trkpt><trkpt lat="38.36370607801762" lon="16.138851380850554"><ele>861.0</ele><time>2026-04-06T10:37:13Z</time></trkpt><trkpt lat="38.36364888211275" lon="16.13868318394327"><ele>861.0</ele><time>2026-04-06T10:37:14Z</time></trkpt><trkpt lat="38.36358630421791" lon="16.138557444874778"><ele>860.9999999999999</ele><time>2026-04-06T10:37:15Z</time></trkpt><trkpt lat="38.36356308085743" lon="16.13843771216654"><ele>860.9999999999999</ele><time>2026-04-06T10:37:16Z</time></trkpt><trkpt lat="38.36357616391664" lon="16.138336201404524"><ele>861.0</ele><time>2026-04-06T10:37:17Z</time></trkpt><trkpt lat="38.36358123141124" lon="16.13824723339497"><ele>861.0</ele><time>2026-04-06T10:37:18Z</time></trkpt><trkpt lat="38.36364343982163" lon="16.13816368466732"><ele>861.0</ele><time>2026-04-06T10:37:19Z</time></trkpt><trkpt lat="38.36375144673271" lon="16.138106011889622"><ele>860.9999999999999</ele><time>2026-04-06T10:37:20Z</time></trkpt><trkpt lat="38.36384241808553" lon="16.138025981322446"><ele>860.9999999999999</ele><time>2026-04-06T10:37:21Z</time></trkpt><trkpt lat="38.3638961167868" lon="16.137941234327947"><ele>861.0</ele><time>2026-04-06T10:37:22Z</time></trkpt><trkpt lat="38.363899932972224" lon="16.137825866690896"><ele>861.0</ele><time>2026-04-06T10:37:23Z</time></trkpt><trkpt lat="38.36387057024164" lon="16.13771810151221"><ele>862.1999999999999</ele><time>2026-04-06T10:37:24Z</time></trkpt><trkpt lat="38.36378318080891" lon="16.137662433038056"><ele>863.3999999999999</ele><time>2026-04-06T10:37:25Z</time></trkpt><trkpt lat="38.363706978602885" lon="16.137642531671382"><ele>864.6</ele><time>2026-04-06T10:37:26Z</time></trkpt><trkpt lat="38.36362276816863" lon="16.137660152979496"><ele>865.8</ele><time>2026-04-06T10:37:27Z</time></trkpt><trkpt lat="38.36352176900612" lon="16.137720426401106"><ele>867.0</ele><time>2026-04-06T10:37:28Z</time></trkpt><trkpt lat="38.36340256796402" lon="16.13780304253245"><ele>867.0</ele><time>2026-04-06T10:37:29Z</time></trkpt><trkpt lat="38.36327091846133" lon="16.137874211967826"><ele>867.0</ele><time>2026-04-06T10:37:30Z</time></trkpt><trkpt lat="38.36311291651191" lon="16.13794386580633"><ele>867.0</ele><time>2026-04-06T10:37:31Z</time></trkpt><trkpt lat="38.3629546735314" lon="16.138001147555435"><ele>868.3333333333333</ele><time>2026-04-06T10:37:32Z</time></trkpt><trkpt lat="38.362781939630985" lon="16.138070083203228"><ele>869.6666666666666</ele><time>2026-04-06T10:37:33Z</time></trkpt><trkpt lat="38.3626313198357" lon="16.138134021599495"><ele>871.0</ele><time>2026-04-06T10:37:34Z</time></trkpt><trkpt lat="38.362473577619866" lon="16.13822027835406"><ele>871.0</ele><time>2026-04-06T10:37:35Z</time></trkpt><trkpt lat="38.362332996975304" lon="16.138335686533043"><ele>871.0</ele><time>2026-04-06T10:37:36Z</time></trkpt><trkpt lat="38.362194526612306" lon="16.13847878640753"><ele>871.0</ele><time>2026-04-06T10:37:37Z</time></trkpt><trkpt lat="38.362118408539494" lon="16.138591812477436"><ele>868.6666666666666</ele><time>2026-04-06T10:37:38Z</time></trkpt><trkpt lat="38.36199528532921" lon="16.13873894735831"><ele>866.3333333333333</ele><time>2026-04-06T10:37:39Z</time></trkpt><trkpt lat="38.36187608358728" lon="16.138869001076785"><ele>864.0</ele><time>2026-04-06T10:37:40Z</time></trkpt><trkpt lat="38.36175937835491" lon="16.138994785467816"><ele>868.3333333333333</ele><time>2026-04-06T10:37:41Z</time></trkpt><trkpt lat="38.36164927959349" lon="16.13916034444324"><ele>872.6666666666666</ele><time>2026-04-06T10:37:42Z</time></trkpt><trkpt lat="38.36154339508695" lon="16.139365010354933"><ele>877.0</ele><time>2026-04-06T10:37:43Z</time></trkpt><trkpt lat="38.361428730657174" lon="16.139581353936798"><ele>877.0</ele><time>2026-04-06T10:37:44Z</time></trkpt><trkpt lat="38.361310623345474" lon="16.139766353017077"><ele>877.0</ele><time>2026-04-06T10:37:45Z</time></trkpt><trkpt lat="38.36116769158035" lon="16.13989700073466"><ele>877.0</ele><time>2026-04-06T10:37:46Z</time></trkpt><trkpt lat="38.36100494345612" lon="16.140043661803684"><ele>879.5</ele><time>2026-04-06T10:37:47Z</time></trkpt><trkpt lat="38.360886324978374" lon="16.140159626963907"><ele>882.0</ele><time>2026-04-06T10:37:48Z</time></trkpt><trkpt lat="38.36077798847516" lon="16.140244594898824"><ele>884.5</ele><time>2026-04-06T10:37:49Z</time></trkpt><trkpt lat="38.360681529459036" lon="16.140304117023298"><ele>887.0</ele><time>2026-04-06T10:37:50Z</time></trkpt><trkpt lat="38.3605970143277" lon="16.14028445547773"><ele>887.8</ele><time>2026-04-06T10:37:51Z</time></trkpt><trkpt lat="38.360529472184695" lon="16.140222996233796"><ele>888.6</ele><time>2026-04-06T10:37:52Z</time></trkpt><trkpt lat="38.36050779022859" lon="16.140103022492013"><ele>889.3999999999999</ele><time>2026-04-06T10:37:53Z</time></trkpt><trkpt lat="38.36045447793548" lon="16.139928577935958"><ele>890.1999999999999</ele><time>2026-04-06T10:37:54Z</time></trkpt><trkpt lat="38.360390641340736" lon="16.1398490382305"><ele>891.0</ele><time>2026-04-06T10:37:55Z</time></trkpt><trkpt lat="38.36029890739697" lon="16.139790130506334"><ele>891.0</ele><time>2026-04-06T10:37:56Z</time></trkpt><trkpt lat="38.36017030668965" lon="16.139778160181397"><ele>890.9999999999999</ele><time>2026-04-06T10:37:57Z</time></trkpt><trkpt lat="38.36004396003865" lon="16.13979760265008"><ele>890.9999999999999</ele><time>2026-04-06T10:37:58Z</time></trkpt><trkpt lat="38.359941762802315" lon="16.139828926270823"><ele>891.0</ele><time>2026-04-06T10:37:59Z</time></trkpt><trkpt lat="38.35986341807284" lon="16.139869052628743"><ele>891.0</ele><time>2026-04-06T10:38:00Z</time></trkpt><trkpt lat="38.35982227350461" lon="16.139942108404693"><ele>891.0</ele><time>2026-04-06T10:38:01Z</time></trkpt><trkpt lat="38.35979080170253" lon="16.140048998785222"><ele>891.0</ele><time>2026-04-06T10:38:02Z</time></trkpt><trkpt lat="38.359830416260735" lon="16.140199533507822"><ele>891.0</ele><time>2026-04-06T10:38:03Z</time></trkpt><trkpt lat="38.35990890482776" lon="16.140325466715932"><ele>891.0</ele><time>2026-04-06T10:38:04Z</time></trkpt><trkpt lat="38.35997359180803" lon="16.140499859511493"><ele>891.0</ele><time>2026-04-06T10:38:05Z</time></trkpt><trkpt lat="38.36005491033309" lon="16.140671379268422"><ele>891.0</ele><time>2026-04-06T10:38:06Z</time></trkpt><trkpt lat="38.36014085735967" lon="16.140824261380278"><ele>891.0</ele><time>2026-04-06T10:38:07Z</time></trkpt><trkpt lat="38.360195973859085" lon="16.14097893865005"><ele>891.0</ele><time>2026-04-06T10:38:08Z</time></trkpt><trkpt lat="38.360281903972705" lon="16.141090393784875"><ele>892.5</ele><time>2026-04-06T10:38:09Z</time></trkpt><trkpt lat="38.36039090483048" lon="16.141149678002453"><ele>894.0</ele><time>2026-04-06T10:38:10Z</time></trkpt><trkpt lat="38.36052113513068" lon="16.141177071294486"><ele>895.5</ele><time>2026-04-06T10:38:11Z</time></trkpt><trkpt lat="38.36063713956873" lon="16.141190986568272"><ele>897.0</ele><time>2026-04-06T10:38:12Z</time></trkpt><trkpt lat="38.36072769674035" lon="16.14121524335618"><ele>897.8</ele><time>2026-04-06T10:38:13Z</time></trkpt><trkpt lat="38.360787287371444" lon="16.141260979818252"><ele>898.6</ele><time>2026-04-06T10:38:14Z</time></trkpt><trkpt lat="38.36084769627939" lon="16.14137605263054"><ele>899.3999999999999</ele><time>2026-04-06T10:38:16Z</time></trkpt><trkpt lat="38.36075935582262" lon="16.14151968468987"><ele>900.1999999999999</ele><time>2026-04-06T10:38:18Z</time></trkpt><trkpt lat="38.36069439092708" lon="16.141599533124747"><ele>901.0</ele><time>2026-04-06T10:38:19Z</time></trkpt><trkpt lat="38.36060578873846" lon="16.141734829609703"><ele>903.3333333333333</ele><time>2026-04-06T10:38:20Z</time></trkpt><trkpt lat="38.36052475967506" lon="16.141881875737862"><ele>905.6666666666667</ele><time>2026-04-06T10:38:21Z</time></trkpt><trkpt lat="38.36040962991026" lon="16.142036208322736"><ele>908.0</ele><time>2026-04-06T10:38:22Z</time></trkpt><trkpt lat="38.360292500964086" lon="16.14220313822628"><ele>908.0</ele><time>2026-04-06T10:38:23Z</time></trkpt><trkpt lat="38.36017344607645" lon="16.142374652584273"><ele>908.0</ele><time>2026-04-06T10:38:24Z</time></trkpt><trkpt lat="38.3600596309478" lon="16.142544508365336"><ele>908.0</ele><time>2026-04-06T10:38:25Z</time></trkpt><trkpt lat="38.35995125317876" lon="16.142694687614807"><ele>912.3333333333334</ele><time>2026-04-06T10:38:26Z</time></trkpt><trkpt lat="38.35984340559839" lon="16.14286326113108"><ele>916.6666666666667</ele><time>2026-04-06T10:38:27Z</time></trkpt><trkpt lat="38.359750729183915" lon="16.143039059915267"><ele>921.0</ele><time>2026-04-06T10:38:28Z</time></trkpt><trkpt lat="38.35967912445149" lon="16.143173416340865"><ele>923.3333333333333</ele><time>2026-04-06T10:38:29Z</time></trkpt><trkpt lat="38.35959467977096" lon="16.14339064541817"><ele>925.6666666666666</ele><time>2026-04-06T10:38:30Z</time></trkpt><trkpt lat="38.35955447702683" lon="16.143613667210015"><ele>928.0</ele><time>2026-04-06T10:38:31Z</time></trkpt><trkpt lat="38.359522381502295" lon="16.14385578970492"><ele>926.6666666666666</ele><time>2026-04-06T10:38:32Z</time></trkpt><trkpt lat="38.35949357575036" lon="16.144118519440273"><ele>925.3333333333333</ele><time>2026-04-06T10:38:33Z</time></trkpt><trkpt lat="38.35945973813004" lon="16.14435001685205"><ele>924.0</ele><time>2026-04-06T10:38:34Z</time></trkpt><trkpt lat="38.35943445236846" lon="16.144542082572915"><ele>924.0</ele><time>2026-04-06T10:38:35Z</time></trkpt><trkpt lat="38.35943577998002" lon="16.14472394756838"><ele>924.0</ele><time>2026-04-06T10:38:36Z</time></trkpt><trkpt lat="38.359448868401934" lon="16.144939750114165"><ele>924.0</ele><time>2026-04-06T10:38:37Z</time></trkpt><trkpt lat="38.35949467046996" lon="16.14517998403179"><ele>923.5</ele><time>2026-04-06T10:38:38Z</time></trkpt><trkpt lat="38.359525905688145" lon="16.145383399362043"><ele>923.0</ele><time>2026-04-06T10:38:39Z</time></trkpt><trkpt lat="38.359543633825226" lon="16.14556436569009"><ele>922.5</ele><time>2026-04-06T10:38:40Z</time></trkpt><trkpt lat="38.359523873851124" lon="16.145682892674895"><ele>922.0</ele><time>2026-04-06T10:38:41Z</time></trkpt><trkpt lat="38.359478672647555" lon="16.145860608833765"><ele>924.0</ele><time>2026-04-06T10:38:42Z</time></trkpt><trkpt lat="38.35941172310289" lon="16.14602863060329"><ele>926.0</ele><time>2026-04-06T10:38:43Z</time></trkpt><trkpt lat="38.359314764736574" lon="16.14621661740544"><ele>928.0</ele><time>2026-04-06T10:38:44Z</time></trkpt><trkpt lat="38.35920481996739" lon="16.146381512537893"><ele>930.6666666666666</ele><time>2026-04-06T10:38:45Z</time></trkpt><trkpt lat="38.359113325871334" lon="16.14656426175617"><ele>933.3333333333333</ele><time>2026-04-06T10:38:46Z</time></trkpt><trkpt lat="38.35900422603218" lon="16.14677468476387"><ele>936.0</ele><time>2026-04-06T10:38:47Z</time></trkpt><trkpt lat="38.35889736180404" lon="16.14695645376695"><ele>936.3333333333333</ele><time>2026-04-06T10:38:48Z</time></trkpt><trkpt lat="38.358807137210775" lon="16.14713104137006"><ele>936.6666666666666</ele><time>2026-04-06T10:38:49Z</time></trkpt><trkpt lat="38.35871145331506" lon="16.147302341141604"><ele>937.0</ele><time>2026-04-06T10:38:50Z</time></trkpt><trkpt lat="38.35861208849412" lon="16.14745145981959"><ele>937.0</ele><time>2026-04-06T10:38:51Z</time></trkpt><trkpt lat="38.35850715185258" lon="16.147606785791346"><ele>937.0</ele><time>2026-04-06T10:38:52Z</time></trkpt><trkpt lat="38.35841013343382" lon="16.147734793889764"><ele>937.0</ele><time>2026-04-06T10:38:53Z</time></trkpt><trkpt lat="38.358317846456366" lon="16.147833590676967"><ele>937.0</ele><time>2026-04-06T10:38:54Z</time></trkpt><trkpt lat="38.358201002046115" lon="16.14790460962593"><ele>937.0</ele><time>2026-04-06T10:38:55Z</time></trkpt><trkpt lat="38.35806083748214" lon="16.147982101382034"><ele>937.0</ele><time>2026-04-06T10:38:56Z</time></trkpt><trkpt lat="38.357889754362375" lon="16.148049389149023"><ele>937.0</ele><time>2026-04-06T10:38:57Z</time></trkpt><trkpt lat="38.3577015263643" lon="16.148154017223792"><ele>937.25</ele><time>2026-04-06T10:38:58Z</time></trkpt><trkpt lat="38.357557383525986" lon="16.148235140522424"><ele>937.5</ele><time>2026-04-06T10:38:59Z</time></trkpt><trkpt lat="38.35743020967318" lon="16.14830456235335"><ele>937.75</ele><time>2026-04-06T10:39:00Z</time></trkpt><trkpt lat="38.357333893758465" lon="16.14841258999201"><ele>938.0</ele><time>2026-04-06T10:39:01Z</time></trkpt><trkpt lat="38.357230507109676" lon="16.148516463364142"><ele>936.75</ele><time>2026-04-06T10:39:02Z</time></trkpt><trkpt lat="38.357126137139964" lon="16.148634120173643"><ele>935.5</ele><time>2026-04-06T10:39:03Z</time></trkpt><trkpt lat="38.3570030160771" lon="16.148728058392425"><ele>934.25</ele><time>2026-04-06T10:39:04Z</time></trkpt><trkpt lat="38.356903468994936" lon="16.1488244972223"><ele>933.0</ele><time>2026-04-06T10:39:05Z</time></trkpt><trkpt lat="38.356762667146405" lon="16.14889786337024"><ele>933.0</ele><time>2026-04-06T10:39:06Z</time></trkpt><trkpt lat="38.356562301757116" lon="16.148950661394185"><ele>933.0</ele><time>2026-04-06T10:39:07Z</time></trkpt><trkpt lat="38.356364911176726" lon="16.14900632559512"><ele>933.0</ele><time>2026-04-06T10:39:08Z</time></trkpt><trkpt lat="38.35614149794562" lon="16.149069225460245"><ele>933.5</ele><time>2026-04-06T10:39:09Z</time></trkpt><trkpt lat="38.35591060619795" lon="16.149142494285275"><ele>934.0</ele><time>2026-04-06T10:39:10Z</time></trkpt><trkpt lat="38.35570070532892" lon="16.14919605692647"><ele>933.6666666666666</ele><time>2026-04-06T10:39:11Z</time></trkpt><trkpt lat="38.35548023216065" lon="16.149244296664342"><ele>933.3333333333333</ele><time>2026-04-06T10:39:12Z</time></trkpt><trkpt lat="38.35526395946395" lon="16.14929133875628"><ele>933.0</ele><time>2026-04-06T10:39:13Z</time></trkpt><trkpt lat="38.35505626446393" lon="16.149361302333094"><ele>933.0</ele><time>2026-04-06T10:39:14Z</time></trkpt><trkpt lat="38.35484346894042" lon="16.149432089692375"><ele>933.0</ele><time>2026-04-06T10:39:15Z</time></trkpt><trkpt lat="38.35461913959264" lon="16.149527091837818"><ele>933.3333333333333</ele><time>2026-04-06T10:39:16Z</time></trkpt><trkpt lat="38.354400124331775" lon="16.14959088189593"><ele>933.6666666666666</ele><time>2026-04-06T10:39:17Z</time></trkpt><trkpt lat="38.35419560366231" lon="16.14965579785574"><ele>934.0</ele><time>2026-04-06T10:39:18Z</time></trkpt><trkpt lat="38.35397369009318" lon="16.149720742825647"><ele>933.0</ele><time>2026-04-06T10:39:19Z</time></trkpt><trkpt lat="38.35377509394717" lon="16.149786612616804"><ele>932.0</ele><time>2026-04-06T10:39:20Z</time></trkpt><trkpt lat="38.35356965904278" lon="16.14984940135149"><ele>931.0</ele><time>2026-04-06T10:39:21Z</time></trkpt><trkpt lat="38.35335886738885" lon="16.149917379456895"><ele>931.0</ele><time>2026-04-06T10:39:22Z</time></trkpt><trkpt lat="38.3531548180149" lon="16.149973825656584"><ele>931.0</ele><time>2026-04-06T10:39:23Z</time></trkpt><trkpt lat="38.35296516251282" lon="16.150020692119423"><ele>931.0</ele><time>2026-04-06T10:39:24Z</time></trkpt><trkpt lat="38.35275926338502" lon="16.150063761092188"><ele>931.5</ele><time>2026-04-06T10:39:25Z</time></trkpt><trkpt lat="38.35253139040393" lon="16.150090657725215"><ele>932.0</ele><time>2026-04-06T10:39:26Z</time></trkpt><trkpt lat="38.35228904731048" lon="16.150098251849077"><ele>932.0</ele><time>2026-04-06T10:39:27Z</time></trkpt><trkpt lat="38.352051640473846" lon="16.150106430060763"><ele>932.0</ele><time>2026-04-06T10:39:28Z</time></trkpt><trkpt lat="38.35183612794772" lon="16.150133959770596"><ele>932.0</ele><time>2026-04-06T10:39:29Z</time></trkpt><trkpt lat="38.35163523359093" lon="16.15016146470589"><ele>932.0</ele><time>2026-04-06T10:39:30Z</time></trkpt><trkpt lat="38.3514480000932" lon="16.15020692573613"><ele>932.0</ele><time>2026-04-06T10:39:31Z</time></trkpt><trkpt lat="38.351264756054775" lon="16.150244406217045"><ele>934.6666666666667</ele><time>2026-04-06T10:39:32Z</time></trkpt><trkpt lat="38.35108914610628" lon="16.150323800278404"><ele>937.3333333333333</ele><time>2026-04-06T10:39:33Z</time></trkpt><trkpt lat="38.35093730457596" lon="16.150416839433138"><ele>940.0</ele><time>2026-04-06T10:39:34Z</time></trkpt><trkpt lat="38.3508003547943" lon="16.150571987510844"><ele>940.0</ele><time>2026-04-06T10:39:35Z</time></trkpt><trkpt lat="38.35066647339536" lon="16.15068371514772"><ele>940.0</ele><time>2026-04-06T10:39:36Z</time></trkpt><trkpt lat="38.35057161449543" lon="16.150774615588276"><ele>940.0</ele><time>2026-04-06T10:39:37Z</time></trkpt><trkpt lat="38.35047417580296" lon="16.15081680167168"><ele>940.0</ele><time>2026-04-06T10:39:38Z</time></trkpt><trkpt lat="38.35034975913318" lon="16.15084250155472"><ele>938.6</ele><time>2026-04-06T10:39:39Z</time></trkpt><trkpt lat="38.35021588555173" lon="16.15084964786246"><ele>937.2</ele><time>2026-04-06T10:39:40Z</time></trkpt><trkpt lat="38.350082357588235" lon="16.15083184363941"><ele>935.8</ele><time>2026-04-06T10:39:41Z</time></trkpt><trkpt lat="38.35000497195611" lon="16.150836768036577"><ele>934.4</ele><time>2026-04-06T10:39:42Z</time></trkpt><trkpt lat="38.34993683191113" lon="16.15077943163294"><ele>933.0</ele><time>2026-04-06T10:39:43Z</time></trkpt><trkpt lat="38.34986657249505" lon="16.150719420581076"><ele>935.2</ele><time>2026-04-06T10:39:44Z</time></trkpt><trkpt lat="38.34979978617294" lon="16.15061912104588"><ele>937.4</ele><time>2026-04-06T10:39:45Z</time></trkpt><trkpt lat="38.349748794414204" lon="16.15047718552949"><ele>939.6000000000001</ele><time>2026-04-06T10:39:46Z</time></trkpt><trkpt lat="38.349733242456324" lon="16.15032541893615"><ele>941.8000000000001</ele><time>2026-04-06T10:39:47Z</time></trkpt><trkpt lat="38.34970445700934" lon="16.15021473016563"><ele>944.0</ele><time>2026-04-06T10:39:48Z</time></trkpt><trkpt lat="38.34964379955851" lon="16.150159446708443"><ele>944.2</ele><time>2026-04-06T10:39:50Z</time></trkpt><trkpt lat="38.349575282584645" lon="16.150119758387966"><ele>944.4000000000001</ele><time>2026-04-06T10:39:55Z</time></trkpt><trkpt lat="38.34947782155275" lon="16.150021974722744"><ele>944.6</ele><time>2026-04-06T10:39:57Z</time></trkpt><trkpt lat="38.34940886018756" lon="16.149985378301007"><ele>944.8</ele><time>2026-04-06T10:39:58Z</time></trkpt><trkpt lat="38.34926199797548" lon="16.149954998467592"><ele>945.0</ele><time>2026-04-06T10:39:59Z</time></trkpt><trkpt lat="38.34910808912052" lon="16.149935479350685"><ele>945.0</ele><time>2026-04-06T10:40:00Z</time></trkpt><trkpt lat="38.348929619298566" lon="16.14993582183573"><ele>945.0</ele><time>2026-04-06T10:40:01Z</time></trkpt><trkpt lat="38.348753894310654" lon="16.14994349289698"><ele>945.0</ele><time>2026-04-06T10:40:02Z</time></trkpt><trkpt lat="38.34860001957709" lon="16.150046497015833"><ele>946.0</ele><time>2026-04-06T10:40:03Z</time></trkpt><trkpt lat="38.34840605354311" lon="16.150087476038024"><ele>947.0</ele><time>2026-04-06T10:40:04Z</time></trkpt><trkpt lat="38.34820766798909" lon="16.150110610103816"><ele>948.0</ele><time>2026-04-06T10:40:05Z</time></trkpt><trkpt lat="38.34799739040264" lon="16.15013034047712"><ele>949.0</ele><time>2026-04-06T10:40:06Z</time></trkpt><trkpt lat="38.34782569032785" lon="16.15011654694429"><ele>950.0</ele><time>2026-04-06T10:40:07Z</time></trkpt><trkpt lat="38.34768396128242" lon="16.15013258109661"><ele>951.0</ele><time>2026-04-06T10:40:08Z</time></trkpt><trkpt lat="38.34757676441633" lon="16.15019575707331"><ele>952.0</ele><time>2026-04-06T10:40:09Z</time></trkpt><trkpt lat="38.34746677001056" lon="16.150268419046164"><ele>952.0</ele><time>2026-04-06T10:40:10Z</time></trkpt><trkpt lat="38.347354300083786" lon="16.150380914585643"><ele>952.0</ele><time>2026-04-06T10:40:11Z</time></trkpt><trkpt lat="38.34720148440442" lon="16.150568942279154"><ele>952.0</ele><time>2026-04-06T10:40:12Z</time></trkpt><trkpt lat="38.34707766607142" lon="16.150735273297826"><ele>950.6666666666666</ele><time>2026-04-06T10:40:13Z</time></trkpt><trkpt lat="38.346939913970346" lon="16.150904641869193"><ele>949.3333333333333</ele><time>2026-04-06T10:40:14Z</time></trkpt><trkpt lat="38.3467840050254" lon="16.15110127321945"><ele>948.0</ele><time>2026-04-06T10:40:15Z</time></trkpt><trkpt lat="38.34664308725212" lon="16.151271492534615"><ele>948.0</ele><time>2026-04-06T10:40:16Z</time></trkpt><trkpt lat="38.34648721654248" lon="16.151404303540705"><ele>948.0</ele><time>2026-04-06T10:40:17Z</time></trkpt><trkpt lat="38.346355959151175" lon="16.151596350674552"><ele>948.0</ele><time>2026-04-06T10:40:18Z</time></trkpt><trkpt lat="38.34623615520276" lon="16.151770057571003"><ele>949.3333333333333</ele><time>2026-04-06T10:40:19Z</time></trkpt><trkpt lat="38.346103642228336" lon="16.151915094302566"><ele>950.6666666666666</ele><time>2026-04-06T10:40:20Z</time></trkpt><trkpt lat="38.34599637005533" lon="16.152061705687583"><ele>952.0</ele><time>2026-04-06T10:40:21Z</time></trkpt><trkpt lat="38.34589360683158" lon="16.15218651919884"><ele>952.0</ele><time>2026-04-06T10:40:22Z</time></trkpt><trkpt lat="38.34580600712296" lon="16.15232976156523"><ele>952.0</ele><time>2026-04-06T10:40:23Z</time></trkpt><trkpt lat="38.34571433671525" lon="16.152464334321042"><ele>952.0</ele><time>2026-04-06T10:40:24Z</time></trkpt><trkpt lat="38.34562535221495" lon="16.152594915820977"><ele>952.0</ele><time>2026-04-06T10:40:25Z</time></trkpt><trkpt lat="38.345513109999196" lon="16.152734113574763"><ele>954.6666666666666</ele><time>2026-04-06T10:40:26Z</time></trkpt><trkpt lat="38.34538521745411" lon="16.152861426441984"><ele>957.3333333333333</ele><time>2026-04-06T10:40:27Z</time></trkpt><trkpt lat="38.34525760408016" lon="16.152993324851654"><ele>960.0</ele><time>2026-04-06T10:40:28Z</time></trkpt><trkpt lat="38.34513373290892" lon="16.153114120541545"><ele>960.0</ele><time>2026-04-06T10:40:29Z</time></trkpt><trkpt lat="38.34500898139548" lon="16.153232485546866"><ele>960.0</ele><time>2026-04-06T10:40:30Z</time></trkpt><trkpt lat="38.344909568223905" lon="16.153336969569047"><ele>960.0</ele><time>2026-04-06T10:40:31Z</time></trkpt><trkpt lat="38.344799488351576" lon="16.153432328601685"><ele>960.0</ele><time>2026-04-06T10:40:32Z</time></trkpt><trkpt lat="38.34469663853823" lon="16.15349971534765"><ele>960.0</ele><time>2026-04-06T10:40:33Z</time></trkpt><trkpt lat="38.344596975837575" lon="16.153519212836063"><ele>960.0</ele><time>2026-04-06T10:40:34Z</time></trkpt><trkpt lat="38.34450050463089" lon="16.153515369747506"><ele>960.0</ele><time>2026-04-06T10:40:35Z</time></trkpt><trkpt lat="38.34442558496265" lon="16.15347508418958"><ele>960.0</ele><time>2026-04-06T10:40:36Z</time></trkpt><trkpt lat="38.344334267282534" lon="16.153424220500717"><ele>960.0</ele><time>2026-04-06T10:40:37Z</time></trkpt><trkpt lat="38.344222853770674" lon="16.153360081285115"><ele>960.0</ele><time>2026-04-06T10:40:38Z</time></trkpt><trkpt lat="38.34410485944253" lon="16.15328390222224"><ele>960.0</ele><time>2026-04-06T10:40:39Z</time></trkpt><trkpt lat="38.34397158026247" lon="16.15321000631189"><ele>960.0</ele><time>2026-04-06T10:40:40Z</time></trkpt><trkpt lat="38.34378004390235" lon="16.15311846024174"><ele>961.3333333333333</ele><time>2026-04-06T10:40:41Z</time></trkpt><trkpt lat="38.3435863208425" lon="16.153029781321877"><ele>962.6666666666666</ele><time>2026-04-06T10:40:42Z</time></trkpt><trkpt lat="38.343403724677124" lon="16.15291835209508"><ele>964.0</ele><time>2026-04-06T10:40:43Z</time></trkpt><trkpt lat="38.343198896893746" lon="16.152792338540053"><ele>963.5</ele><time>2026-04-06T10:40:44Z</time></trkpt><trkpt lat="38.34299237104031" lon="16.152670297086274"><ele>963.0</ele><time>2026-04-06T10:40:45Z</time></trkpt><trkpt lat="38.34279214695469" lon="16.15254568552537"><ele>963.0</ele><time>2026-04-06T10:40:46Z</time></trkpt><trkpt lat="38.34257517646031" lon="16.152420940721555"><ele>963.0</ele><time>2026-04-06T10:40:47Z</time></trkpt><trkpt lat="38.34232049163436" lon="16.152320914163088"><ele>965.0</ele><time>2026-04-06T10:40:48Z</time></trkpt><trkpt lat="38.34211781973872" lon="16.152204608155934"><ele>967.0</ele><time>2026-04-06T10:40:49Z</time></trkpt><trkpt lat="38.341892118131675" lon="16.15210056681765"><ele>967.0</ele><time>2026-04-06T10:40:50Z</time></trkpt><trkpt lat="38.34175817228024" lon="16.151970500713407"><ele>967.0</ele><time>2026-04-06T10:40:51Z</time></trkpt><trkpt lat="38.34156866428711" lon="16.151845170440048"><ele>967.0</ele><time>2026-04-06T10:40:52Z</time></trkpt><trkpt lat="38.34137699351239" lon="16.15170392918723"><ele>965.6666666666666</ele><time>2026-04-06T10:40:53Z</time></trkpt><trkpt lat="38.341228340901104" lon="16.151534729124247"><ele>964.3333333333333</ele><time>2026-04-06T10:40:54Z</time></trkpt><trkpt lat="38.3410725254372" lon="16.151449570228127"><ele>963.0</ele><time>2026-04-06T10:40:55Z</time></trkpt><trkpt lat="38.340935108515275" lon="16.151330231123953"><ele>963.0</ele><time>2026-04-06T10:40:56Z</time></trkpt><trkpt lat="38.34077359827551" lon="16.151193428557587"><ele>963.0</ele><time>2026-04-06T10:40:57Z</time></trkpt><trkpt lat="38.34058289146256" lon="16.151059989912923"><ele>963.0</ele><time>2026-04-06T10:40:58Z</time></trkpt><trkpt lat="38.34038720953917" lon="16.150913320469794"><ele>963.0</ele><time>2026-04-06T10:40:59Z</time></trkpt><trkpt lat="38.340188681331334" lon="16.15076215916906"><ele>963.0</ele><time>2026-04-06T10:41:00Z</time></trkpt><trkpt lat="38.33997641376778" lon="16.150624177337573"><ele>962.0</ele><time>2026-04-06T10:41:01Z</time></trkpt><trkpt lat="38.33975835974832" lon="16.150498172497382"><ele>961.0</ele><time>2026-04-06T10:41:02Z</time></trkpt><trkpt lat="38.3395541914755" lon="16.150350465485705"><ele>961.0</ele><time>2026-04-06T10:41:03Z</time></trkpt><trkpt lat="38.339338566152264" lon="16.150233188886986"><ele>961.0</ele><time>2026-04-06T10:41:04Z</time></trkpt><trkpt lat="38.33911081222819" lon="16.15001522372641"><ele>963.6666666666666</ele><time>2026-04-06T10:41:05Z</time></trkpt><trkpt lat="38.3389231194066" lon="16.149839183330204"><ele>966.3333333333333</ele><time>2026-04-06T10:41:06Z</time></trkpt><trkpt lat="38.33874568549547" lon="16.149701022262235"><ele>969.0</ele><time>2026-04-06T10:41:07Z</time></trkpt><trkpt lat="38.33856155751952" lon="16.149561772257666"><ele>969.6666666666667</ele><time>2026-04-06T10:41:08Z</time></trkpt><trkpt lat="38.338373749573854" lon="16.149430333182263"><ele>970.3333333333334</ele><time>2026-04-06T10:41:09Z</time></trkpt><trkpt lat="38.33818692606686" lon="16.14930491437283"><ele>971.0</ele><time>2026-04-06T10:41:10Z</time></trkpt><trkpt lat="38.33799175245221" lon="16.149178110980063"><ele>971.3333333333334</ele><time>2026-04-06T10:41:11Z</time></trkpt><trkpt lat="38.337798912572495" lon="16.14905420670491"><ele>971.6666666666667</ele><time>2026-04-06T10:41:12Z</time></trkpt><trkpt lat="38.33761243167049" lon="16.148926421603086"><ele>972.0</ele><time>2026-04-06T10:41:13Z</time></trkpt><trkpt lat="38.33744710866478" lon="16.148709052859562"><ele>972.0</ele><time>2026-04-06T10:41:14Z</time></trkpt><trkpt lat="38.33723490074366" lon="16.148564158381106"><ele>972.0</ele><time>2026-04-06T10:41:15Z</time></trkpt><trkpt lat="38.33701358958037" lon="16.148426182858817"><ele>972.0</ele><time>2026-04-06T10:41:16Z</time></trkpt><trkpt lat="38.33681302712401" lon="16.1482780831386"><ele>972.0</ele><time>2026-04-06T10:41:17Z</time></trkpt><trkpt lat="38.33662494419678" lon="16.148143031028038"><ele>972.0</ele><time>2026-04-06T10:41:18Z</time></trkpt><trkpt lat="38.3364593886369" lon="16.14801349078941"><ele>971.0</ele><time>2026-04-06T10:41:19Z</time></trkpt><trkpt lat="38.336309611950455" lon="16.147885341521445"><ele>970.0</ele><time>2026-04-06T10:41:20Z</time></trkpt><trkpt lat="38.33617596073848" lon="16.14776183765377"><ele>969.0</ele><time>2026-04-06T10:41:21Z</time></trkpt><trkpt lat="38.33603685564468" lon="16.14762928792585"><ele>969.0</ele><time>2026-04-06T10:41:22Z</time></trkpt><trkpt lat="38.33591185869567" lon="16.147484398208615"><ele>969.0</ele><time>2026-04-06T10:41:23Z</time></trkpt><trkpt lat="38.33579061297239" lon="16.14728024093725"><ele>969.0</ele><time>2026-04-06T10:41:24Z</time></trkpt><trkpt lat="38.33567857233894" lon="16.147070221673825"><ele>968.3333333333333</ele><time>2026-04-06T10:41:25Z</time></trkpt><trkpt lat="38.33553695684913" lon="16.14690627534959"><ele>967.6666666666666</ele><time>2026-04-06T10:41:26Z</time></trkpt><trkpt lat="38.335385841486165" lon="16.146733076856673"><ele>967.0</ele><time>2026-04-06T10:41:27Z</time></trkpt><trkpt lat="38.3352363411161" lon="16.146610671134344"><ele>968.0</ele><time>2026-04-06T10:41:28Z</time></trkpt><trkpt lat="38.33505826538533" lon="16.146493474601144"><ele>969.0</ele><time>2026-04-06T10:41:29Z</time></trkpt><trkpt lat="38.33486988076974" lon="16.146396573759734"><ele>970.0</ele><time>2026-04-06T10:41:30Z</time></trkpt><trkpt lat="38.33463899752441" lon="16.146298718409614"><ele>965.5</ele><time>2026-04-06T10:41:31Z</time></trkpt><trkpt lat="38.334426026878205" lon="16.146204679000537"><ele>961.0</ele><time>2026-04-06T10:41:32Z</time></trkpt><trkpt lat="38.334185382983875" lon="16.146093726330434"><ele>961.0</ele><time>2026-04-06T10:41:33Z</time></trkpt><trkpt lat="38.333934414884126" lon="16.145977398953374"><ele>961.0</ele><time>2026-04-06T10:41:34Z</time></trkpt><trkpt lat="38.33365453180941" lon="16.14587233712959"><ele>961.5</ele><time>2026-04-06T10:41:35Z</time></trkpt><trkpt lat="38.333384646984086" lon="16.145748582439673"><ele>962.0</ele><time>2026-04-06T10:41:36Z</time></trkpt><trkpt lat="38.333099635814946" lon="16.14561907206279"><ele>958.5</ele><time>2026-04-06T10:41:37Z</time></trkpt><trkpt lat="38.33286778766025" lon="16.145531739029416"><ele>955.0</ele><time>2026-04-06T10:41:38Z</time></trkpt><trkpt lat="38.33266570552257" lon="16.145442796941822"><ele>955.0</ele><time>2026-04-06T10:41:39Z</time></trkpt><trkpt lat="38.33246118724317" lon="16.145384178438547"><ele>955.0</ele><time>2026-04-06T10:41:40Z</time></trkpt><trkpt lat="38.33231196039912" lon="16.14524279401189"><ele>955.0</ele><time>2026-04-06T10:41:41Z</time></trkpt><trkpt lat="38.33215758707629" lon="16.14517091931432"><ele>955.3333333333333</ele><time>2026-04-06T10:41:42Z</time></trkpt><trkpt lat="38.33200699703741" lon="16.145080590540427"><ele>955.6666666666667</ele><time>2026-04-06T10:41:43Z</time></trkpt><trkpt lat="38.33186188845916" lon="16.144924913019466"><ele>956.0</ele><time>2026-04-06T10:41:44Z</time></trkpt><trkpt lat="38.331727968101205" lon="16.144733414484374"><ele>956.0</ele><time>2026-04-06T10:41:45Z</time></trkpt><trkpt lat="38.33160169733513" lon="16.14456717230683"><ele>956.0</ele><time>2026-04-06T10:41:46Z</time></trkpt><trkpt lat="38.33148329081299" lon="16.14443712605775"><ele>956.0</ele><time>2026-04-06T10:41:47Z</time></trkpt><trkpt lat="38.33138675889443" lon="16.144329679886646"><ele>955.0</ele><time>2026-04-06T10:41:48Z</time></trkpt><trkpt lat="38.33128856072565" lon="16.144285091639752"><ele>953.9999999999999</ele><time>2026-04-06T10:41:49Z</time></trkpt><trkpt lat="38.331169664901445" lon="16.144300169349908"><ele>952.9999999999999</ele><time>2026-04-06T10:41:50Z</time></trkpt><trkpt lat="38.3310589912213" lon="16.144360813613087"><ele>952.0</ele><time>2026-04-06T10:41:51Z</time></trkpt><trkpt lat="38.330962040682415" lon="16.144403790165214"><ele>951.0</ele><time>2026-04-06T10:41:52Z</time></trkpt><trkpt lat="38.33085504094345" lon="16.144399308088865"><ele>951.0</ele><time>2026-04-06T10:41:54Z</time></trkpt><trkpt lat="38.330787970652736" lon="16.144461337782715"><ele>950.9999999999999</ele><time>2026-04-06T10:42:16Z</time></trkpt><trkpt lat="38.33076553060352" lon="16.14454093331763"><ele>950.9999999999999</ele><time>2026-04-06T10:42:17Z</time></trkpt><trkpt lat="38.33079982787689" lon="16.144689919349663"><ele>951.0</ele><time>2026-04-06T10:42:18Z</time></trkpt><trkpt lat="38.33084581415559" lon="16.144846267614938"><ele>951.0</ele><time>2026-04-06T10:42:19Z</time></trkpt><trkpt lat="38.330886058144635" lon="16.145032586697532"><ele>948.3333333333333</ele><time>2026-04-06T10:42:20Z</time></trkpt><trkpt lat="38.33093456339235" lon="16.145276758279046"><ele>945.6666666666666</ele><time>2026-04-06T10:42:21Z</time></trkpt><trkpt lat="38.33098721671791" lon="16.145531908440443"><ele>943.0</ele><time>2026-04-06T10:42:22Z</time></trkpt><trkpt lat="38.33104833144551" lon="16.14581115027825"><ele>939.5</ele><time>2026-04-06T10:42:23Z</time></trkpt><trkpt lat="38.331110246883085" lon="16.146101305190964"><ele>936.0</ele><time>2026-04-06T10:42:24Z</time></trkpt><trkpt lat="38.33117903380788" lon="16.14641101140047"><ele>932.5</ele><time>2026-04-06T10:42:25Z</time></trkpt><trkpt lat="38.33125760931278" lon="16.146731609630702"><ele>929.0</ele><time>2026-04-06T10:42:26Z</time></trkpt><trkpt lat="38.33132324494239" lon="16.14707735277501"><ele>929.5</ele><time>2026-04-06T10:42:27Z</time></trkpt><trkpt lat="38.33138907684158" lon="16.147397564730987"><ele>930.0</ele><time>2026-04-06T10:42:28Z</time></trkpt><trkpt lat="38.3314495232996" lon="16.147699439922484"><ele>930.0</ele><time>2026-04-06T10:42:29Z</time></trkpt><trkpt lat="38.33152097816892" lon="16.148008985360118"><ele>930.0</ele><time>2026-04-06T10:42:30Z</time></trkpt><trkpt lat="38.33157947183079" lon="16.1482965584088"><ele>929.5</ele><time>2026-04-06T10:42:31Z</time></trkpt><trkpt lat="38.33164191399374" lon="16.14862234844452"><ele>929.0</ele><time>2026-04-06T10:42:32Z</time></trkpt><trkpt lat="38.331710219678556" lon="16.148916715776835"><ele>926.5</ele><time>2026-04-06T10:42:33Z</time></trkpt><trkpt lat="38.33177787171788" lon="16.149219351528053"><ele>924.0</ele><time>2026-04-06T10:42:34Z</time></trkpt><trkpt lat="38.331837384635556" lon="16.149506992200404"><ele>924.0</ele><time>2026-04-06T10:42:35Z</time></trkpt><trkpt lat="38.33189683767178" lon="16.149784137381946"><ele>924.0</ele><time>2026-04-06T10:42:36Z</time></trkpt><trkpt lat="38.33195245962097" lon="16.150048538462897"><ele>924.0</ele><time>2026-04-06T10:42:37Z</time></trkpt><trkpt lat="38.33200371525078" lon="16.150305861432837"><ele>922.6666666666667</ele><time>2026-04-06T10:42:38Z</time></trkpt><trkpt lat="38.33206013946192" lon="16.150552142196915"><ele>921.3333333333334</ele><time>2026-04-06T10:42:39Z</time></trkpt><trkpt lat="38.332110793868054" lon="16.15079066097327"><ele>920.0</ele><time>2026-04-06T10:42:40Z</time></trkpt><trkpt lat="38.33215803479359" lon="16.15102650347065"><ele>919.6666666666667</ele><time>2026-04-06T10:42:41Z</time></trkpt><trkpt lat="38.332201309599164" lon="16.151246051278967"><ele>919.3333333333333</ele><time>2026-04-06T10:42:42Z</time></trkpt><trkpt lat="38.33224880281584" lon="16.15145853975429"><ele>919.0</ele><time>2026-04-06T10:42:43Z</time></trkpt><trkpt lat="38.33229428642621" lon="16.151665220953316"><ele>922.3333333333333</ele><time>2026-04-06T10:42:44Z</time></trkpt><trkpt lat="38.332336476616724" lon="16.15186630457811"><ele>925.6666666666667</ele><time>2026-04-06T10:42:45Z</time></trkpt><trkpt lat="38.332374055447076" lon="16.15206037654162"><ele>929.0</ele><time>2026-04-06T10:42:46Z</time></trkpt><trkpt lat="38.332413391259166" lon="16.1522496833474"><ele>929.5</ele><time>2026-04-06T10:42:47Z</time></trkpt><trkpt lat="38.332452370145994" lon="16.152439808288715"><ele>930.0</ele><time>2026-04-06T10:42:48Z</time></trkpt><trkpt lat="38.332496722312946" lon="16.152619902944792"><ele>930.5</ele><time>2026-04-06T10:42:49Z</time></trkpt><trkpt lat="38.33253374957482" lon="16.152798255403805"><ele>931.0</ele><time>2026-04-06T10:42:50Z</time></trkpt><trkpt lat="38.332585741397764" lon="16.152954803213348"><ele>931.0</ele><time>2026-04-06T10:42:51Z</time></trkpt><trkpt lat="38.332621986157164" lon="16.153121693836994"><ele>931.0</ele><time>2026-04-06T10:42:52Z</time></trkpt><trkpt lat="38.33264130840412" lon="16.15328566149656"><ele>931.0</ele><time>2026-04-06T10:42:53Z</time></trkpt><trkpt lat="38.33266861151207" lon="16.153427996357564"><ele>931.0</ele><time>2026-04-06T10:42:54Z</time></trkpt><trkpt lat="38.33270387211447" lon="16.153564023875706"><ele>930.5999999999999</ele><time>2026-04-06T10:42:55Z</time></trkpt><trkpt lat="38.332730872915135" lon="16.153692368577666"><ele>930.1999999999999</ele><time>2026-04-06T10:42:56Z</time></trkpt><trkpt lat="38.332752595201" lon="16.153821716796422"><ele>929.8000000000001</ele><time>2026-04-06T10:42:57Z</time></trkpt><trkpt lat="38.33277529475093" lon="16.153946263696046"><ele>929.4000000000001</ele><time>2026-04-06T10:42:58Z</time></trkpt><trkpt lat="38.33280043906963" lon="16.15404846588475"><ele>929.0</ele><time>2026-04-06T10:42:59Z</time></trkpt><trkpt lat="38.33281816709092" lon="16.15415508012159"><ele>927.8333333333334</ele><time>2026-04-06T10:43:00Z</time></trkpt><trkpt lat="38.33283111114412" lon="16.154237256610994"><ele>926.6666666666667</ele><time>2026-04-06T10:43:01Z</time></trkpt><trkpt lat="38.33285579640403" lon="16.154327403493163"><ele>925.5</ele><time>2026-04-06T10:43:02Z</time></trkpt><trkpt lat="38.332874787310736" lon="16.15440753055526"><ele>924.3333333333333</ele><time>2026-04-06T10:43:03Z</time></trkpt><trkpt lat="38.33290293764693" lon="16.154552457463392"><ele>923.1666666666666</ele><time>2026-04-06T10:43:05Z</time></trkpt><trkpt lat="38.332933349470906" lon="16.1546604796021"><ele>922.0</ele><time>2026-04-06T10:43:07Z</time></trkpt><trkpt lat="38.33295276693752" lon="16.154801207633707"><ele>921.4999999999999</ele><time>2026-04-06T10:43:09Z</time></trkpt><trkpt lat="38.33298888413674" lon="16.154934009403426"><ele>921.0</ele><time>2026-04-06T10:43:11Z</time></trkpt><trkpt lat="38.33302174803768" lon="16.155092043845357"><ele>920.5</ele><time>2026-04-06T10:43:13Z</time></trkpt><trkpt lat="38.333037252633126" lon="16.155175589317032"><ele>920.0</ele><time>2026-04-06T10:43:14Z</time></trkpt><trkpt lat="38.33304469033236" lon="16.155269658717913"><ele>919.4999999999999</ele><time>2026-04-06T10:43:15Z</time></trkpt><trkpt lat="38.333060255913715" lon="16.155354557639008"><ele>919.0</ele><time>2026-04-06T10:43:16Z</time></trkpt><trkpt lat="38.33310076785099" lon="16.155502401295468"><ele>919.0</ele><time>2026-04-06T10:43:18Z</time></trkpt><trkpt lat="38.33312678134383" lon="16.155637847596477"><ele>919.0000000000001</ele><time>2026-04-06T10:43:20Z</time></trkpt><trkpt lat="38.33315835099359" lon="16.15575816801239"><ele>919.0000000000001</ele><time>2026-04-06T10:43:22Z</time></trkpt><trkpt lat="38.33317442366599" lon="16.15587758889044"><ele>919.0</ele><time>2026-04-06T10:43:24Z</time></trkpt><trkpt lat="38.33320480930251" lon="16.1559774297291"><ele>919.0</ele><time>2026-04-06T10:43:26Z</time></trkpt><trkpt lat="38.33322122343978" lon="16.156058649062928"><ele>917.6666666666666</ele><time>2026-04-06T10:43:28Z</time></trkpt><trkpt lat="38.333217845184464" lon="16.15613882803038"><ele>916.3333333333333</ele><time>2026-04-06T10:43:31Z</time></trkpt><trkpt lat="38.333192039721254" lon="16.156232530892364"><ele>915.0</ele><time>2026-04-06T10:43:33Z</time></trkpt><trkpt lat="38.33316173952332" lon="16.15631895344385"><ele>913.6666666666667</ele><time>2026-04-06T10:43:35Z</time></trkpt><trkpt lat="38.33314800761427" lon="16.156413598148372"><ele>912.3333333333334</ele><time>2026-04-06T10:43:37Z</time></trkpt><trkpt lat="38.333202698814524" lon="16.1564837557588"><ele>911.0</ele><time>2026-04-06T10:43:40Z</time></trkpt><trkpt lat="38.33327930529035" lon="16.156441169893398"><ele>911.0</ele><time>2026-04-06T10:43:43Z</time></trkpt><trkpt lat="38.33328041665373" lon="16.15632078115576"><ele>910.9999999999999</ele><time>2026-04-06T10:43:45Z</time></trkpt><trkpt lat="38.333259400112205" lon="16.156165738545077"><ele>910.9999999999999</ele><time>2026-04-06T10:43:47Z</time></trkpt><trkpt lat="38.3332281538573" lon="16.156085801371912"><ele>911.0</ele><time>2026-04-06T10:43:48Z</time></trkpt><trkpt lat="38.33321324650343" lon="16.155928692167244"><ele>911.0</ele><time>2026-04-06T10:43:50Z</time></trkpt><trkpt lat="38.3331909272117" lon="16.155850241770167"><ele>912.5999999999999</ele><time>2026-04-06T10:43:51Z</time></trkpt><trkpt lat="38.333154152526824" lon="16.155700324816753"><ele>914.1999999999999</ele><time>2026-04-06T10:43:53Z</time></trkpt><trkpt lat="38.33313135284068" lon="16.15555703304756"><ele>915.8000000000001</ele><time>2026-04-06T10:43:55Z</time></trkpt><trkpt lat="38.33310763470426" lon="16.15540967662882"><ele>917.4000000000001</ele><time>2026-04-06T10:43:57Z</time></trkpt><trkpt lat="38.333091169575795" lon="16.15532905679111"><ele>919.0</ele><time>2026-04-06T10:43:58Z</time></trkpt><trkpt lat="38.33306569079025" lon="16.155200409626442"><ele>919.6</ele><time>2026-04-06T10:44:00Z</time></trkpt><trkpt lat="38.333045049058995" lon="16.155104542568203"><ele>920.2</ele><time>2026-04-06T10:44:01Z</time></trkpt><trkpt lat="38.333023481732106" lon="16.155001530088054"><ele>920.8000000000001</ele><time>2026-04-06T10:44:02Z</time></trkpt><trkpt lat="38.33299171428452" lon="16.154890474291417"><ele>921.4000000000001</ele><time>2026-04-06T10:44:03Z</time></trkpt><trkpt lat="38.3329629564715" lon="16.154770123811172"><ele>922.0</ele><time>2026-04-06T10:44:04Z</time></trkpt><trkpt lat="38.332938087558" lon="16.154638156430078"><ele>922.0</ele><time>2026-04-06T10:44:05Z</time></trkpt><trkpt lat="38.332907474549174" lon="16.154476277196995"><ele>922.0</ele><time>2026-04-06T10:44:06Z</time></trkpt><trkpt lat="38.332885870734685" lon="16.15430693701275"><ele>922.0</ele><time>2026-04-06T10:44:07Z</time></trkpt><trkpt lat="38.33285061376403" lon="16.154139070109824"><ele>922.0</ele><time>2026-04-06T10:44:08Z</time></trkpt><trkpt lat="38.332798701708484" lon="16.153949193596496"><ele>924.3333333333333</ele><time>2026-04-06T10:44:09Z</time></trkpt><trkpt lat="38.33276400186539" lon="16.153773716770964"><ele>926.6666666666667</ele><time>2026-04-06T10:44:10Z</time></trkpt><trkpt lat="38.33267281924718" lon="16.15340649247102"><ele>929.0</ele><time>2026-04-06T10:44:12Z</time></trkpt><trkpt lat="38.33261535259153" lon="16.15323108138512"><ele>929.6666666666667</ele><time>2026-04-06T10:44:13Z</time></trkpt><trkpt lat="38.33254609085754" lon="16.1530518112445"><ele>930.3333333333333</ele><time>2026-04-06T10:44:14Z</time></trkpt><trkpt lat="38.33248460946534" lon="16.152849065172287"><ele>931.0</ele><time>2026-04-06T10:44:15Z</time></trkpt><trkpt lat="38.33244416861051" lon="16.152631951600792"><ele>931.0</ele><time>2026-04-06T10:44:16Z</time></trkpt><trkpt lat="38.33240010109689" lon="16.1524166990666"><ele>931.0</ele><time>2026-04-06T10:44:17Z</time></trkpt><trkpt lat="38.332337245686645" lon="16.15217370873826"><ele>931.0</ele><time>2026-04-06T10:44:18Z</time></trkpt><trkpt lat="38.332314021874296" lon="16.151917599416958"><ele>930.0</ele><time>2026-04-06T10:44:19Z</time></trkpt><trkpt lat="38.33225190517496" lon="16.151644188600933"><ele>929.0</ele><time>2026-04-06T10:44:20Z</time></trkpt><trkpt lat="38.332195531082995" lon="16.151347247855448"><ele>924.0</ele><time>2026-04-06T10:44:21Z</time></trkpt><trkpt lat="38.332170449011244" lon="16.1510655854128"><ele>919.0</ele><time>2026-04-06T10:44:22Z</time></trkpt><trkpt lat="38.33212060410435" lon="16.150763685883938"><ele>919.5</ele><time>2026-04-06T10:44:23Z</time></trkpt><trkpt lat="38.332056452508766" lon="16.15046181969794"><ele>920.0</ele><time>2026-04-06T10:44:24Z</time></trkpt><trkpt lat="38.331992914756945" lon="16.150152840714437"><ele>922.0</ele><time>2026-04-06T10:44:25Z</time></trkpt><trkpt lat="38.33192730518932" lon="16.149831086823426"><ele>924.0</ele><time>2026-04-06T10:44:26Z</time></trkpt><trkpt lat="38.33186154661428" lon="16.149483191353735"><ele>924.0</ele><time>2026-04-06T10:44:27Z</time></trkpt><trkpt lat="38.331787785345234" lon="16.149133482255646"><ele>924.0</ele><time>2026-04-06T10:44:28Z</time></trkpt><trkpt lat="38.33170827682934" lon="16.148769078541903"><ele>926.5</ele><time>2026-04-06T10:44:29Z</time></trkpt><trkpt lat="38.33162808097981" lon="16.14840910163969"><ele>929.0</ele><time>2026-04-06T10:44:30Z</time></trkpt><trkpt lat="38.33156124860822" lon="16.148082043703326"><ele>929.5</ele><time>2026-04-06T10:44:31Z</time></trkpt><trkpt lat="38.331491642478305" lon="16.1477603248344"><ele>930.0</ele><time>2026-04-06T10:44:32Z</time></trkpt><trkpt lat="38.331418508921956" lon="16.14743790497305"><ele>929.5</ele><time>2026-04-06T10:44:33Z</time></trkpt><trkpt lat="38.33134882326318" lon="16.147110877972782"><ele>929.0</ele><time>2026-04-06T10:44:34Z</time></trkpt><trkpt lat="38.33127414924031" lon="16.1467745349379"><ele>932.5</ele><time>2026-04-06T10:44:35Z</time></trkpt><trkpt lat="38.331200678766834" lon="16.14644282794359"><ele>936.0</ele><time>2026-04-06T10:44:36Z</time></trkpt><trkpt lat="38.3311276543444" lon="16.14610770391693"><ele>936.0</ele><time>2026-04-06T10:44:37Z</time></trkpt><trkpt lat="38.33105855344772" lon="16.14578353596219"><ele>936.0</ele><time>2026-04-06T10:44:38Z</time></trkpt><trkpt lat="38.3309807798108" lon="16.14547790090626"><ele>938.3333333333333</ele><time>2026-04-06T10:44:39Z</time></trkpt><trkpt lat="38.330930578138606" lon="16.145192351296046"><ele>940.6666666666666</ele><time>2026-04-06T10:44:40Z</time></trkpt><trkpt lat="38.33087625186019" lon="16.14493463017022"><ele>943.0</ele><time>2026-04-06T10:44:41Z</time></trkpt><trkpt lat="38.33081971110342" lon="16.144684186977752"><ele>945.6666666666666</ele><time>2026-04-06T10:44:42Z</time></trkpt><trkpt lat="38.33077392862208" lon="16.14442419788579"><ele>948.3333333333333</ele><time>2026-04-06T10:44:43Z</time></trkpt><trkpt lat="38.3307074731793" lon="16.144162738947166"><ele>951.0</ele><time>2026-04-06T10:44:44Z</time></trkpt><trkpt lat="38.3306233446148" lon="16.14392697752396"><ele>951.0</ele><time>2026-04-06T10:44:45Z</time></trkpt><trkpt lat="38.330519656085464" lon="16.143652156348494"><ele>951.0</ele><time>2026-04-06T10:44:46Z</time></trkpt><trkpt lat="38.33044593221407" lon="16.143351203528244"><ele>954.5</ele><time>2026-04-06T10:44:47Z</time></trkpt><trkpt lat="38.33036009401646" lon="16.143028201013294"><ele>958.0</ele><time>2026-04-06T10:44:48Z</time></trkpt><trkpt lat="38.33027405068168" lon="16.142751879145717"><ele>958.0</ele><time>2026-04-06T10:44:49Z</time></trkpt><trkpt lat="38.330187254784384" lon="16.14244121004431"><ele>958.0</ele><time>2026-04-06T10:44:50Z</time></trkpt><trkpt lat="38.33010274760188" lon="16.14214766273189"><ele>960.0</ele><time>2026-04-06T10:44:51Z</time></trkpt><trkpt lat="38.3300232085159" lon="16.141839712953804"><ele>962.0</ele><time>2026-04-06T10:44:52Z</time></trkpt><trkpt lat="38.32993236597062" lon="16.141525355648174"><ele>963.5</ele><time>2026-04-06T10:44:53Z</time></trkpt><trkpt lat="38.329833896495714" lon="16.141229142269868"><ele>965.0</ele><time>2026-04-06T10:44:54Z</time></trkpt><trkpt lat="38.32974856199559" lon="16.140907245088233"><ele>964.5</ele><time>2026-04-06T10:44:55Z</time></trkpt><trkpt lat="38.32966195706187" lon="16.140604599070606"><ele>964.0</ele><time>2026-04-06T10:44:56Z</time></trkpt><trkpt lat="38.329595576823" lon="16.140365848705937"><ele>964.0</ele><time>2026-04-06T10:44:57Z</time></trkpt><trkpt lat="38.32955594527872" lon="16.140182070302323"><ele>964.0</ele><time>2026-04-06T10:44:58Z</time></trkpt><trkpt lat="38.32950945710666" lon="16.139974159490244"><ele>964.0</ele><time>2026-04-06T10:44:59Z</time></trkpt><trkpt lat="38.32947161029538" lon="16.13978633787145"><ele>962.0</ele><time>2026-04-06T10:45:00Z</time></trkpt><trkpt lat="38.329391980641" lon="16.13952998806777"><ele>960.0</ele><time>2026-04-06T10:45:01Z</time></trkpt><trkpt lat="38.32931806626383" lon="16.139297772484714"><ele>958.0</ele><time>2026-04-06T10:45:02Z</time></trkpt><trkpt lat="38.32927330476411" lon="16.139100525342545"><ele>958.5</ele><time>2026-04-06T10:45:03Z</time></trkpt><trkpt lat="38.329214097142604" lon="16.138937425199707"><ele>959.0</ele><time>2026-04-06T10:45:04Z</time></trkpt><trkpt lat="38.329166862251384" lon="16.138761985815155"><ele>959.5</ele><time>2026-04-06T10:45:05Z</time></trkpt><trkpt lat="38.329121246449304" lon="16.138593796955668"><ele>960.0</ele><time>2026-04-06T10:45:06Z</time></trkpt><trkpt lat="38.32908102803614" lon="16.138442914719068"><ele>960.0</ele><time>2026-04-06T10:45:07Z</time></trkpt><trkpt lat="38.329042598612354" lon="16.13831807112358"><ele>960.0</ele><time>2026-04-06T10:45:08Z</time></trkpt><trkpt lat="38.32900707150782" lon="16.138196010925903"><ele>960.0</ele><time>2026-04-06T10:45:09Z</time></trkpt><trkpt lat="38.328963128776934" lon="16.13809192477127"><ele>960.0</ele><time>2026-04-06T10:45:10Z</time></trkpt><trkpt lat="38.32894640369354" lon="16.137992659875604"><ele>960.0</ele><time>2026-04-06T10:45:11Z</time></trkpt><trkpt lat="38.32892820521519" lon="16.137856145843614"><ele>959.6</ele><time>2026-04-06T10:45:13Z</time></trkpt><trkpt lat="38.32884865646068" lon="16.13772706848535"><ele>959.2</ele><time>2026-04-06T10:45:16Z</time></trkpt><trkpt lat="38.32880761019209" lon="16.13762678253116"><ele>958.8</ele><time>2026-04-06T10:45:18Z</time></trkpt><trkpt lat="38.32881565725998" lon="16.137526841507714"><ele>958.4</ele><time>2026-04-06T10:45:20Z</time></trkpt><trkpt lat="38.32883649335568" lon="16.137433501111243"><ele>958.0</ele><time>2026-04-06T10:45:25Z</time></trkpt><trkpt lat="38.32881838827475" lon="16.137336151839172"><ele>957.9999999999999</ele><time>2026-04-06T10:45:27Z</time></trkpt><trkpt lat="38.32875647230555" lon="16.13731875731294"><ele>958.0</ele><time>2026-04-06T10:45:29Z</time></trkpt><trkpt lat="38.328683957481786" lon="16.137359655738972"><ele>958.0</ele><time>2026-04-06T10:45:31Z</time></trkpt><trkpt lat="38.32859571725233" lon="16.13734901476771"><ele>958.0</ele><time>2026-04-06T10:45:33Z</time></trkpt><trkpt lat="38.328531607296654" lon="16.13731732098893"><ele>957.9999999999999</ele><time>2026-04-06T10:45:35Z</time></trkpt><trkpt lat="38.32845499261993" lon="16.137298688429286"><ele>958.0</ele><time>2026-04-06T10:45:37Z</time></trkpt><trkpt lat="38.32836048893113" lon="16.13727507366702"><ele>958.0</ele><time>2026-04-06T10:45:39Z</time></trkpt><trkpt lat="38.328277119512165" lon="16.13725697172242"><ele>958.0</ele><time>2026-04-06T10:45:40Z</time></trkpt><trkpt lat="38.328170107880666" lon="16.137224972518197"><ele>958.0</ele><time>2026-04-06T10:45:41Z</time></trkpt><trkpt lat="38.328024426461404" lon="16.13718415377873"><ele>958.0</ele><time>2026-04-06T10:45:42Z</time></trkpt><trkpt lat="38.32785063124505" lon="16.1371433422471"><ele>956.3333333333333</ele><time>2026-04-06T10:45:43Z</time></trkpt><trkpt lat="38.32765834637396" lon="16.137087958650557"><ele>954.6666666666667</ele><time>2026-04-06T10:45:44Z</time></trkpt><trkpt lat="38.3274352233019" lon="16.137028028034145"><ele>953.0</ele><time>2026-04-06T10:45:45Z</time></trkpt><trkpt lat="38.32720685997442" lon="16.136970458544873"><ele>953.0</ele><time>2026-04-06T10:45:46Z</time></trkpt><trkpt lat="38.32695687793464" lon="16.136915190997744"><ele>953.0</ele><time>2026-04-06T10:45:47Z</time></trkpt><trkpt lat="38.32669953769474" lon="16.13685474884535"><ele>953.0</ele><time>2026-04-06T10:45:48Z</time></trkpt><trkpt lat="38.32643811292649" lon="16.13680936063879"><ele>953.0</ele><time>2026-04-06T10:45:49Z</time></trkpt><trkpt lat="38.3261888415567" lon="16.13676733686975"><ele>951.0</ele><time>2026-04-06T10:45:50Z</time></trkpt><trkpt lat="38.325946020541" lon="16.13671772949383"><ele>949.0</ele><time>2026-04-06T10:45:51Z</time></trkpt><trkpt lat="38.32571375315481" lon="16.136660927661236"><ele>950.0</ele><time>2026-04-06T10:45:52Z</time></trkpt><trkpt lat="38.32550491378769" lon="16.136619160118393"><ele>951.0</ele><time>2026-04-06T10:45:53Z</time></trkpt><trkpt lat="38.325304167478876" lon="16.136572470444925"><ele>952.0</ele><time>2026-04-06T10:45:54Z</time></trkpt><trkpt lat="38.325127767930596" lon="16.13653303380101"><ele>952.0</ele><time>2026-04-06T10:45:55Z</time></trkpt><trkpt lat="38.324946832172145" lon="16.136488048541636"><ele>952.0</ele><time>2026-04-06T10:45:56Z</time></trkpt><trkpt lat="38.32478066414198" lon="16.136410898583314"><ele>952.0</ele><time>2026-04-06T10:45:57Z</time></trkpt><trkpt lat="38.324613502008404" lon="16.136293788191086"><ele>952.0</ele><time>2026-04-06T10:45:58Z</time></trkpt><trkpt lat="38.32444279616136" lon="16.136158388604883"><ele>952.0</ele><time>2026-04-06T10:45:59Z</time></trkpt><trkpt lat="38.32430458521913" lon="16.13601449737871"><ele>952.0</ele><time>2026-04-06T10:46:00Z</time></trkpt><trkpt lat="38.324169763139444" lon="16.135895302681597"><ele>952.0</ele><time>2026-04-06T10:46:01Z</time></trkpt><trkpt lat="38.32402357721869" lon="16.135819161868056"><ele>952.0</ele><time>2026-04-06T10:46:02Z</time></trkpt><trkpt lat="38.323905845830765" lon="16.135736212615996"><ele>952.0</ele><time>2026-04-06T10:46:03Z</time></trkpt><trkpt lat="38.3237997859194" lon="16.135665434255785"><ele>952.0</ele><time>2026-04-06T10:46:04Z</time></trkpt><trkpt lat="38.32369757944943" lon="16.135619570836106"><ele>951.25</ele><time>2026-04-06T10:46:05Z</time></trkpt><trkpt lat="38.323634341235696" lon="16.13564911531422"><ele>950.5</ele><time>2026-04-06T10:46:06Z</time></trkpt><trkpt lat="38.323501114643676" lon="16.13566195369698"><ele>949.75</ele><time>2026-04-06T10:46:07Z</time></trkpt><trkpt lat="38.323372298643335" lon="16.135727583040786"><ele>949.0</ele><time>2026-04-06T10:46:08Z</time></trkpt><trkpt lat="38.32327253087343" lon="16.135838576217832"><ele>949.0</ele><time>2026-04-06T10:46:09Z</time></trkpt><trkpt lat="38.323161391218136" lon="16.135974115922235"><ele>949.0</ele><time>2026-04-06T10:46:10Z</time></trkpt><trkpt lat="38.323058552149035" lon="16.136140459158806"><ele>949.0</ele><time>2026-04-06T10:46:11Z</time></trkpt><trkpt lat="38.32296556815052" lon="16.136342594235543"><ele>946.6666666666666</ele><time>2026-04-06T10:46:12Z</time></trkpt><trkpt lat="38.32285385970864" lon="16.136565042078466"><ele>944.3333333333333</ele><time>2026-04-06T10:46:13Z</time></trkpt><trkpt lat="38.3227597427192" lon="16.136747469974377"><ele>942.0</ele><time>2026-04-06T10:46:14Z</time></trkpt><trkpt lat="38.32270701374676" lon="16.136901758594718"><ele>942.0</ele><time>2026-04-06T10:46:15Z</time></trkpt><trkpt lat="38.32262539150142" lon="16.137036813433284"><ele>942.0</ele><time>2026-04-06T10:46:16Z</time></trkpt><trkpt lat="38.322553349841606" lon="16.13715952924313"><ele>942.0</ele><time>2026-04-06T10:46:17Z</time></trkpt><trkpt lat="38.322482299855594" lon="16.13726095171859"><ele>942.0</ele><time>2026-04-06T10:46:18Z</time></trkpt><trkpt lat="38.32243819521349" lon="16.13737605385747"><ele>942.4000000000001</ele><time>2026-04-06T10:46:19Z</time></trkpt><trkpt lat="38.32239756302549" lon="16.137481115259266"><ele>942.8000000000001</ele><time>2026-04-06T10:46:20Z</time></trkpt><trkpt lat="38.32231861856729" lon="16.137566541513213"><ele>943.2</ele><time>2026-04-06T10:46:22Z</time></trkpt><trkpt lat="38.32228971448011" lon="16.137709895833517"><ele>943.6</ele><time>2026-04-06T10:46:24Z</time></trkpt><trkpt lat="38.32227137746744" lon="16.137797955560064"><ele>944.0</ele><time>2026-04-06T10:46:25Z</time></trkpt><trkpt lat="38.322236110757984" lon="16.137896826185596"><ele>944.75</ele><time>2026-04-06T10:46:26Z</time></trkpt><trkpt lat="38.32218230112791" lon="16.13800388875803"><ele>945.5</ele><time>2026-04-06T10:46:27Z</time></trkpt><trkpt lat="38.32214991816446" lon="16.13814731219936"><ele>946.25</ele><time>2026-04-06T10:46:28Z</time></trkpt><trkpt lat="38.32210737122981" lon="16.13829102641162"><ele>947.0</ele><time>2026-04-06T10:46:29Z</time></trkpt><trkpt lat="38.32205812442573" lon="16.13847562607853"><ele>947.0</ele><time>2026-04-06T10:46:30Z</time></trkpt><trkpt lat="38.32200532713391" lon="16.138658593810725"><ele>947.0</ele><time>2026-04-06T10:46:31Z</time></trkpt><trkpt lat="38.321959988614495" lon="16.138818662088845"><ele>947.0</ele><time>2026-04-06T10:46:32Z</time></trkpt><trkpt lat="38.321903595227546" lon="16.13897419773577"><ele>947.0</ele><time>2026-04-06T10:46:33Z</time></trkpt><trkpt lat="38.3218244777234" lon="16.13914278045991"><ele>947.0</ele><time>2026-04-06T10:46:34Z</time></trkpt><trkpt lat="38.32172692019187" lon="16.139307648567396"><ele>947.0</ele><time>2026-04-06T10:46:35Z</time></trkpt><trkpt lat="38.32158890029594" lon="16.139448563391163"><ele>947.0</ele><time>2026-04-06T10:46:36Z</time></trkpt><trkpt lat="38.32147918668776" lon="16.139573044447246"><ele>947.6666666666667</ele><time>2026-04-06T10:46:37Z</time></trkpt><trkpt lat="38.32134827201314" lon="16.139690447049507"><ele>948.3333333333333</ele><time>2026-04-06T10:46:38Z</time></trkpt><trkpt lat="38.32121688552542" lon="16.139804192879605"><ele>949.0</ele><time>2026-04-06T10:46:39Z</time></trkpt><trkpt lat="38.321091403832746" lon="16.139909327083682"><ele>946.5</ele><time>2026-04-06T10:46:40Z</time></trkpt><trkpt lat="38.32098883828886" lon="16.139988146879343"><ele>944.0</ele><time>2026-04-06T10:46:41Z</time></trkpt><trkpt lat="38.32021999212042" lon="16.140155705912008"><ele>944.0</ele><time>2026-04-06T10:46:48Z</time></trkpt><trkpt lat="38.320121161158276" lon="16.14024151681572"><ele>944.0</ele><time>2026-04-06T10:46:49Z</time></trkpt><trkpt lat="38.32003553702438" lon="16.140379920854357"><ele>944.0</ele><time>2026-04-06T10:46:50Z</time></trkpt><trkpt lat="38.31998430077258" lon="16.14050453093767"><ele>944.0</ele><time>2026-04-06T10:46:51Z</time></trkpt><trkpt lat="38.31996140793528" lon="16.140665265711625"><ele>943.25</ele><time>2026-04-06T10:46:52Z</time></trkpt><trkpt lat="38.319995428799466" lon="16.140830446890117"><ele>942.5</ele><time>2026-04-06T10:46:53Z</time></trkpt><trkpt lat="38.32008412366988" lon="16.140968976831385"><ele>941.75</ele><time>2026-04-06T10:46:54Z</time></trkpt><trkpt lat="38.320185209757675" lon="16.1410946364682"><ele>941.0</ele><time>2026-04-06T10:46:55Z</time></trkpt><trkpt lat="38.320225497867966" lon="16.1412151329015"><ele>941.0</ele><time>2026-04-06T10:46:56Z</time></trkpt><trkpt lat="38.32029644820304" lon="16.141376779716126"><ele>941.0</ele><time>2026-04-06T10:46:57Z</time></trkpt><trkpt lat="38.320344963306766" lon="16.141537789117713"><ele>941.0</ele><time>2026-04-06T10:46:58Z</time></trkpt><trkpt lat="38.320347693376675" lon="16.141721997282495"><ele>941.0</ele><time>2026-04-06T10:46:59Z</time></trkpt><trkpt lat="38.32030314215358" lon="16.141921971074964"><ele>941.0</ele><time>2026-04-06T10:47:00Z</time></trkpt><trkpt lat="38.32025648015242" lon="16.142110040818974"><ele>941.0</ele><time>2026-04-06T10:47:01Z</time></trkpt><trkpt lat="38.32018397954185" lon="16.1423169279538"><ele>941.0</ele><time>2026-04-06T10:47:02Z</time></trkpt><trkpt lat="38.32010952468076" lon="16.14251052952734"><ele>940.0</ele><time>2026-04-06T10:47:03Z</time></trkpt><trkpt lat="38.320011132608435" lon="16.142672328590397"><ele>939.0</ele><time>2026-04-06T10:47:04Z</time></trkpt><trkpt lat="38.319941740959166" lon="16.142819289249633"><ele>938.0</ele><time>2026-04-06T10:47:05Z</time></trkpt><trkpt lat="38.31988496144722" lon="16.142928699193718"><ele>937.0</ele><time>2026-04-06T10:47:06Z</time></trkpt><trkpt lat="38.3198113983562" lon="16.14302988308747"><ele>936.8</ele><time>2026-04-06T10:47:07Z</time></trkpt><trkpt lat="38.31971916922294" lon="16.143103468076266"><ele>936.6</ele><time>2026-04-06T10:47:08Z</time></trkpt><trkpt lat="38.31960562574048" lon="16.143132199343114"><ele>936.3999999999999</ele><time>2026-04-06T10:47:09Z</time></trkpt><trkpt lat="38.319516869374034" lon="16.143080914727456"><ele>936.1999999999999</ele><time>2026-04-06T10:47:10Z</time></trkpt><trkpt lat="38.319470979170866" lon="16.1432054754581"><ele>936.0</ele><time>2026-04-06T10:47:11Z</time></trkpt><trkpt lat="38.319407961835196" lon="16.14334019254598"><ele>936.0</ele><time>2026-04-06T10:47:12Z</time></trkpt><trkpt lat="38.319356397041254" lon="16.143447032958"><ele>935.9999999999999</ele><time>2026-04-06T10:47:13Z</time></trkpt><trkpt lat="38.319302634497014" lon="16.14355444359289"><ele>935.9999999999999</ele><time>2026-04-06T10:47:14Z</time></trkpt><trkpt lat="38.319266544957294" lon="16.143646602347754"><ele>936.0</ele><time>2026-04-06T10:47:15Z</time></trkpt><trkpt lat="38.31914212864193" lon="16.14372335628983"><ele>936.0</ele><time>2026-04-06T10:47:17Z</time></trkpt><trkpt lat="38.318997021712434" lon="16.143809147904953"><ele>936.0</ele><time>2026-04-06T10:47:18Z</time></trkpt><trkpt lat="38.31891973300361" lon="16.14389937844003"><ele>936.0</ele><time>2026-04-06T10:47:19Z</time></trkpt><trkpt lat="38.318837777749174" lon="16.144022979270304"><ele>936.0</ele><time>2026-04-06T10:47:20Z</time></trkpt><trkpt lat="38.318758010352916" lon="16.14415812683798"><ele>936.0</ele><time>2026-04-06T10:47:21Z</time></trkpt><trkpt lat="38.318696463072136" lon="16.144321852572297"><ele>934.1999999999999</ele><time>2026-04-06T10:47:22Z</time></trkpt><trkpt lat="38.318655843139396" lon="16.144466187879363"><ele>932.3999999999999</ele><time>2026-04-06T10:47:23Z</time></trkpt><trkpt lat="38.31865230794787" lon="16.144599318912515"><ele>930.6</ele><time>2026-04-06T10:47:24Z</time></trkpt><trkpt lat="38.31866254177563" lon="16.14471969949481"><ele>928.8</ele><time>2026-04-06T10:47:25Z</time></trkpt><trkpt lat="38.3186787506519" lon="16.144812254185087"><ele>927.0</ele><time>2026-04-06T10:47:26Z</time></trkpt><trkpt lat="38.31868127367764" lon="16.14491220943553"><ele>925.8333333333334</ele><time>2026-04-06T10:47:27Z</time></trkpt><trkpt lat="38.318683128015834" lon="16.145010865207524"><ele>924.6666666666667</ele><time>2026-04-06T10:47:28Z</time></trkpt><trkpt lat="38.318686957820844" lon="16.14510862462376"><ele>923.5</ele><time>2026-04-06T10:47:29Z</time></trkpt><trkpt lat="38.31869176211475" lon="16.14521563556508"><ele>922.3333333333334</ele><time>2026-04-06T10:47:30Z</time></trkpt><trkpt lat="38.31869404346449" lon="16.14531103431413"><ele>921.1666666666667</ele><time>2026-04-06T10:47:31Z</time></trkpt><trkpt lat="38.31869214354361" lon="16.145411652603325"><ele>920.0</ele><time>2026-04-06T10:47:32Z</time></trkpt><trkpt lat="38.31867666152135" lon="16.145524377563355"><ele>920.0</ele><time>2026-04-06T10:47:33Z</time></trkpt><trkpt lat="38.318604936404505" lon="16.14568568692161"><ele>920.0</ele><time>2026-04-06T10:47:35Z</time></trkpt><trkpt lat="38.31855379021406" lon="16.145749819461862"><ele>920.0</ele><time>2026-04-06T10:47:36Z</time></trkpt><trkpt lat="38.318464272093195" lon="16.145804305262285"><ele>920.0</ele><time>2026-04-06T10:47:37Z</time></trkpt><trkpt lat="38.31835098034281" lon="16.145832133946815"><ele>920.0</ele><time>2026-04-06T10:47:38Z</time></trkpt><trkpt lat="38.31821490465845" lon="16.145891380727686"><ele>916.25</ele><time>2026-04-06T10:47:39Z</time></trkpt><trkpt lat="38.31807717252854" lon="16.145913046142265"><ele>912.5</ele><time>2026-04-06T10:47:40Z</time></trkpt><trkpt lat="38.31793775420684" lon="16.145913521561276"><ele>908.75</ele><time>2026-04-06T10:47:41Z</time></trkpt><trkpt lat="38.3177975663452" lon="16.14589173980648"><ele>905.0</ele><time>2026-04-06T10:47:42Z</time></trkpt><trkpt lat="38.317669181027036" lon="16.145889060910193"><ele>904.2</ele><time>2026-04-06T10:47:43Z</time></trkpt><trkpt lat="38.317543777554214" lon="16.14592421082362"><ele>903.4</ele><time>2026-04-06T10:47:44Z</time></trkpt><trkpt lat="38.317411311987634" lon="16.145952495391665"><ele>902.5999999999999</ele><time>2026-04-06T10:47:45Z</time></trkpt><trkpt lat="38.31730431574617" lon="16.14600104944408"><ele>901.8</ele><time>2026-04-06T10:47:46Z</time></trkpt><trkpt lat="38.317239065941216" lon="16.14601700165128"><ele>901.0</ele><time>2026-04-06T10:47:47Z</time></trkpt><trkpt lat="38.31713462967416" lon="16.1460750739378"><ele>901.0</ele><time>2026-04-06T10:47:49Z</time></trkpt><trkpt lat="38.3171180828947" lon="16.146202709376826"><ele>900.9999999999999</ele><time>2026-04-06T10:47:51Z</time></trkpt><trkpt lat="38.317180346590455" lon="16.14628203753419"><ele>900.9999999999999</ele><time>2026-04-06T10:47:53Z</time></trkpt><trkpt lat="38.317301577045605" lon="16.146241645556664"><ele>901.0</ele><time>2026-04-06T10:47:55Z</time></trkpt><trkpt lat="38.31742252560235" lon="16.146238956525806"><ele>901.0</ele><time>2026-04-06T10:47:56Z</time></trkpt><trkpt lat="38.31751707075187" lon="16.146257550767945"><ele>901.0</ele><time>2026-04-06T10:47:57Z</time></trkpt><trkpt lat="38.31757079132363" lon="16.14620910297762"><ele>900.9999999999999</ele><time>2026-04-06T10:47:58Z</time></trkpt><trkpt lat="38.31767090521963" lon="16.146166509136712"><ele>900.9999999999999</ele><time>2026-04-06T10:47:59Z</time></trkpt><trkpt lat="38.317764694672135" lon="16.146171881820653"><ele>901.0</ele><time>2026-04-06T10:48:00Z</time></trkpt><trkpt lat="38.3178876380354" lon="16.14618939065884"><ele>901.0</ele><time>2026-04-06T10:48:01Z</time></trkpt><trkpt lat="38.31803082880952" lon="16.146205756249724"><ele>902.0</ele><time>2026-04-06T10:48:02Z</time></trkpt><trkpt lat="38.318161246183" lon="16.146236243084562"><ele>903.0</ele><time>2026-04-06T10:48:03Z</time></trkpt><trkpt lat="38.31828547909512" lon="16.14624388514235"><ele>904.0</ele><time>2026-04-06T10:48:04Z</time></trkpt><trkpt lat="38.31840360039991" lon="16.146267506533512"><ele>905.0</ele><time>2026-04-06T10:48:05Z</time></trkpt><trkpt lat="38.31850731193653" lon="16.146308313937634"><ele>905.0</ele><time>2026-04-06T10:48:06Z</time></trkpt><trkpt lat="38.3186079879517" lon="16.14635957041374"><ele>905.0</ele><time>2026-04-06T10:48:07Z</time></trkpt><trkpt lat="38.31869939837992" lon="16.146455393436238"><ele>905.0</ele><time>2026-04-06T10:48:08Z</time></trkpt><trkpt lat="38.318770939671225" lon="16.146548249837988"><ele>905.0</ele><time>2026-04-06T10:48:09Z</time></trkpt><trkpt lat="38.31879809582008" lon="16.146624278371224"><ele>905.0</ele><time>2026-04-06T10:48:10Z</time></trkpt><trkpt lat="38.31875626521179" lon="16.146731521666755"><ele>905.0</ele><time>2026-04-06T10:48:12Z</time></trkpt><trkpt lat="38.31865422008385" lon="16.146656098991958"><ele>905.0</ele><time>2026-04-06T10:48:14Z</time></trkpt><trkpt lat="38.31860724189876" lon="16.146540381719774"><ele>905.0</ele><time>2026-04-06T10:48:15Z</time></trkpt><trkpt lat="38.3184789831695" lon="16.1464652530822"><ele>905.0</ele><time>2026-04-06T10:48:15.999Z</time></trkpt><trkpt lat="38.31835661583122" lon="16.146408881150254"><ele>905.0</ele><time>2026-04-06T10:48:16.999Z</time></trkpt><trkpt lat="38.318220417128444" lon="16.146404302750277"><ele>905.0</ele><time>2026-04-06T10:48:17.999Z</time></trkpt><trkpt lat="38.31807965908551" lon="16.146435737614357"><ele>905.0</ele><time>2026-04-06T10:48:18.999Z</time></trkpt><trkpt lat="38.3179468756973" lon="16.146492710561606"><ele>905.0</ele><time>2026-04-06T10:48:19.999Z</time></trkpt><trkpt lat="38.31780434260944" lon="16.146571667428773"><ele>897.3333333333334</ele><time>2026-04-06T10:48:20.999Z</time></trkpt><trkpt lat="38.31765451737127" lon="16.146667945169042"><ele>889.6666666666667</ele><time>2026-04-06T10:48:21.999Z</time></trkpt><trkpt lat="38.317520340647214" lon="16.146770031139507"><ele>882.0</ele><time>2026-04-06T10:48:22.999Z</time></trkpt><trkpt lat="38.31738627478073" lon="16.146867369448152"><ele>882.0</ele><time>2026-04-06T10:48:23.999Z</time></trkpt><trkpt lat="38.31725662451991" lon="16.14696885899845"><ele>882.0</ele><time>2026-04-06T10:48:24.999Z</time></trkpt><trkpt lat="38.31713423809065" lon="16.14705718613158"><ele>882.0</ele><time>2026-04-06T10:48:25.999Z</time></trkpt><trkpt lat="38.31702397374712" lon="16.14715276110676"><ele>882.0</ele><time>2026-04-06T10:48:26.999Z</time></trkpt><trkpt lat="38.3169520653994" lon="16.147299404645903"><ele>875.6666666666667</ele><time>2026-04-06T10:48:27.999Z</time></trkpt><trkpt lat="38.31687797750393" lon="16.14750523222072"><ele>869.3333333333334</ele><time>2026-04-06T10:48:28.999Z</time></trkpt><trkpt lat="38.316820110608376" lon="16.147722268031018"><ele>863.0</ele><time>2026-04-06T10:48:29.999Z</time></trkpt><trkpt lat="38.31675943397696" lon="16.147955070668665"><ele>863.0</ele><time>2026-04-06T10:48:30.999Z</time></trkpt><trkpt lat="38.316692753235905" lon="16.1482096805527"><ele>863.0</ele><time>2026-04-06T10:48:31.999Z</time></trkpt><trkpt lat="38.31662662889763" lon="16.148454987510938"><ele>863.0</ele><time>2026-04-06T10:48:32.999Z</time></trkpt><trkpt lat="38.31656012044101" lon="16.148689017223393"><ele>860.3333333333334</ele><time>2026-04-06T10:48:33.999Z</time></trkpt><trkpt lat="38.31649347614297" lon="16.148913648562477"><ele>857.6666666666667</ele><time>2026-04-06T10:48:34.999Z</time></trkpt><trkpt lat="38.31642467859544" lon="16.14913436235258"><ele>855.0</ele><time>2026-04-06T10:48:35.999Z</time></trkpt><trkpt lat="38.31633868957343" lon="16.149343881126512"><ele>850.6666666666667</ele><time>2026-04-06T10:48:36.999Z</time></trkpt><trkpt lat="38.3162340128244" lon="16.14954549771402"><ele>846.3333333333334</ele><time>2026-04-06T10:48:37.999Z</time></trkpt><trkpt lat="38.31611469500608" lon="16.14972869164065"><ele>842.0</ele><time>2026-04-06T10:48:38.999Z</time></trkpt><trkpt lat="38.3160040223943" lon="16.149925443671002"><ele>842.0</ele><time>2026-04-06T10:48:39.999Z</time></trkpt><trkpt lat="38.315887956258095" lon="16.150124199571646"><ele>842.0</ele><time>2026-04-06T10:48:40.999Z</time></trkpt><trkpt lat="38.31577065307161" lon="16.15031460667413"><ele>842.0</ele><time>2026-04-06T10:48:41.999Z</time></trkpt><trkpt lat="38.31565399703287" lon="16.15048251657851"><ele>840.25</ele><time>2026-04-06T10:48:42.999Z</time></trkpt><trkpt lat="38.31553092090531" lon="16.150618621103206"><ele>838.5</ele><time>2026-04-06T10:48:43.999Z</time></trkpt><trkpt lat="38.315406749714555" lon="16.15071594747983"><ele>836.75</ele><time>2026-04-06T10:48:44.999Z</time></trkpt><trkpt lat="38.315291940852255" lon="16.150790119234813"><ele>835.0</ele><time>2026-04-06T10:48:45.999Z</time></trkpt><trkpt lat="38.315198906949185" lon="16.150893052258034"><ele>835.0</ele><time>2026-04-06T10:48:46.999Z</time></trkpt><trkpt lat="38.31514984416759" lon="16.151015389306032"><ele>835.0</ele><time>2026-04-06T10:48:47.999Z</time></trkpt><trkpt lat="38.31511720314007" lon="16.151158105584997"><ele>835.0</ele><time>2026-04-06T10:48:49Z</time></trkpt><trkpt lat="38.315099310309456" lon="16.15131583989864"><ele>835.0</ele><time>2026-04-06T10:48:50Z</time></trkpt><trkpt lat="38.31508058090675" lon="16.151464415375486"><ele>834.8</ele><time>2026-04-06T10:48:51Z</time></trkpt><trkpt lat="38.31506941207633" lon="16.15160957440671"><ele>834.6</ele><time>2026-04-06T10:48:52Z</time></trkpt><trkpt lat="38.31506997456603" lon="16.151733874987315"><ele>834.4000000000001</ele><time>2026-04-06T10:48:53Z</time></trkpt><trkpt lat="38.31511143349964" lon="16.151868093977672"><ele>834.2</ele><time>2026-04-06T10:48:54Z</time></trkpt><trkpt lat="38.31517441562354" lon="16.15198404033574"><ele>834.0</ele><time>2026-04-06T10:48:55Z</time></trkpt><trkpt lat="38.31527404528512" lon="16.152080113256005"><ele>834.0</ele><time>2026-04-06T10:48:56Z</time></trkpt><trkpt lat="38.31535860229483" lon="16.152185161257457"><ele>834.0</ele><time>2026-04-06T10:48:57Z</time></trkpt><trkpt lat="38.3154313558539" lon="16.152286728625697"><ele>834.0</ele><time>2026-04-06T10:48:58Z</time></trkpt><trkpt lat="38.31545535019911" lon="16.152414746923693"><ele>834.0</ele><time>2026-04-06T10:48:59Z</time></trkpt><trkpt lat="38.31548018427661" lon="16.152552580619574"><ele>834.0</ele><time>2026-04-06T10:49:00Z</time></trkpt><trkpt lat="38.3154563073867" lon="16.15272499914302"><ele>830.3333333333333</ele><time>2026-04-06T10:49:01Z</time></trkpt><trkpt lat="38.31542221343988" lon="16.152924917162117"><ele>826.6666666666666</ele><time>2026-04-06T10:49:02Z</time></trkpt><trkpt lat="38.315393662400005" lon="16.15314740090157"><ele>823.0</ele><time>2026-04-06T10:49:03Z</time></trkpt><trkpt lat="38.31537072620965" lon="16.153358542972967"><ele>823.0</ele><time>2026-04-06T10:49:04Z</time></trkpt><trkpt lat="38.31535253146766" lon="16.15354583237389"><ele>823.0</ele><time>2026-04-06T10:49:05Z</time></trkpt><trkpt lat="38.31532607092969" lon="16.153715509032434"><ele>823.0</ele><time>2026-04-06T10:49:06Z</time></trkpt><trkpt lat="38.3152836188484" lon="16.15387464357616"><ele>823.0</ele><time>2026-04-06T10:49:07Z</time></trkpt><trkpt lat="38.315212427326166" lon="16.15401688733324"><ele>828.0</ele><time>2026-04-06T10:49:08Z</time></trkpt><trkpt lat="38.31510752606604" lon="16.15412845870503"><ele>833.0</ele><time>2026-04-06T10:49:09Z</time></trkpt><trkpt lat="38.31497950456834" lon="16.15421773759377"><ele>838.0</ele><time>2026-04-06T10:49:10Z</time></trkpt><trkpt lat="38.31485138574404" lon="16.15429133178858"><ele>843.0</ele><time>2026-04-06T10:49:11Z</time></trkpt><trkpt lat="38.31474820599282" lon="16.154371532533986"><ele>843.0</ele><time>2026-04-06T10:49:12Z</time></trkpt><trkpt lat="38.31467558035066" lon="16.154467766086288"><ele>843.0</ele><time>2026-04-06T10:49:13Z</time></trkpt><trkpt lat="38.314638161036704" lon="16.15458601209687"><ele>843.0</ele><time>2026-04-06T10:49:14Z</time></trkpt><trkpt lat="38.314640072408444" lon="16.15470280216784"><ele>843.0</ele><time>2026-04-06T10:49:15Z</time></trkpt><trkpt lat="38.314685243319246" lon="16.15479915961814"><ele>843.0</ele><time>2026-04-06T10:49:16Z</time></trkpt><trkpt lat="38.31477477479384" lon="16.154867658008392"><ele>842.25</ele><time>2026-04-06T10:49:17Z</time></trkpt><trkpt lat="38.31486266791934" lon="16.15496085283322"><ele>841.5</ele><time>2026-04-06T10:49:18Z</time></trkpt><trkpt lat="38.31494761340851" lon="16.15508756853015"><ele>840.75</ele><time>2026-04-06T10:49:19Z</time></trkpt><trkpt lat="38.314999077185135" lon="16.155250134549984"><ele>840.0</ele><time>2026-04-06T10:49:20Z</time></trkpt><trkpt lat="38.31504016428449" lon="16.155408244287436"><ele>840.0</ele><time>2026-04-06T10:49:21Z</time></trkpt><trkpt lat="38.3150699085164" lon="16.155544474535926"><ele>840.0</ele><time>2026-04-06T10:49:22Z</time></trkpt><trkpt lat="38.31508886394815" lon="16.15564928814883"><ele>840.0</ele><time>2026-04-06T10:49:23Z</time></trkpt><trkpt lat="38.315062164412126" lon="16.15573061825967"><ele>840.0</ele><time>2026-04-06T10:49:24Z</time></trkpt><trkpt lat="38.31500539010504" lon="16.155794935203712"><ele>840.0</ele><time>2026-04-06T10:49:25Z</time></trkpt><trkpt lat="38.31491517834426" lon="16.155808988726758"><ele>840.0</ele><time>2026-04-06T10:49:26Z</time></trkpt><trkpt lat="38.31480934327496" lon="16.155827996268265"><ele>833.25</ele><time>2026-04-06T10:49:27Z</time></trkpt><trkpt lat="38.314699365879186" lon="16.15590257496178"><ele>826.5</ele><time>2026-04-06T10:49:28Z</time></trkpt><trkpt lat="38.31457915510298" lon="16.155991348759358"><ele>819.75</ele><time>2026-04-06T10:49:29Z</time></trkpt><trkpt lat="38.31448870758465" lon="16.156111301787575"><ele>813.0</ele><time>2026-04-06T10:49:30Z</time></trkpt><trkpt lat="38.31439251289319" lon="16.156219599215568"><ele>813.0</ele><time>2026-04-06T10:49:31Z</time></trkpt><trkpt lat="38.31431478510771" lon="16.156367410667748"><ele>813.0</ele><time>2026-04-06T10:49:32Z</time></trkpt><trkpt lat="38.31423848356888" lon="16.156528038981378"><ele>813.0</ele><time>2026-04-06T10:49:33Z</time></trkpt><trkpt lat="38.31413508012982" lon="16.156667076175427"><ele>813.0</ele><time>2026-04-06T10:49:34Z</time></trkpt><trkpt lat="38.31401007288031" lon="16.156800463806903"><ele>814.0</ele><time>2026-04-06T10:49:35Z</time></trkpt><trkpt lat="38.313889196563444" lon="16.156915061725336"><ele>815.0</ele><time>2026-04-06T10:49:36Z</time></trkpt><trkpt lat="38.313777143114024" lon="16.157059888033377"><ele>816.0</ele><time>2026-04-06T10:49:37Z</time></trkpt><trkpt lat="38.313682415977716" lon="16.15721744560611"><ele>816.0</ele><time>2026-04-06T10:49:38Z</time></trkpt><trkpt lat="38.31359037969945" lon="16.157353705824953"><ele>816.0</ele><time>2026-04-06T10:49:39Z</time></trkpt><trkpt lat="38.31350592459357" lon="16.157466058327735"><ele>816.0</ele><time>2026-04-06T10:49:40Z</time></trkpt><trkpt lat="38.31343422870935" lon="16.15755559351769"><ele>816.0</ele><time>2026-04-06T10:49:41Z</time></trkpt><trkpt lat="38.313366683951244" lon="16.15762363253168"><ele>816.0</ele><time>2026-04-06T10:49:42Z</time></trkpt><trkpt lat="38.3132916088495" lon="16.157637844802583"><ele>816.0</ele><time>2026-04-06T10:49:43Z</time></trkpt><trkpt lat="38.313211451562644" lon="16.157585556696823"><ele>816.0</ele><time>2026-04-06T10:49:44Z</time></trkpt><trkpt lat="38.31314518917463" lon="16.157488803055468"><ele>816.0</ele><time>2026-04-06T10:49:45Z</time></trkpt><trkpt lat="38.31308502299609" lon="16.15734456109341"><ele>816.0</ele><time>2026-04-06T10:49:46Z</time></trkpt><trkpt lat="38.31302732131135" lon="16.15718274309529"><ele>815.75</ele><time>2026-04-06T10:49:47Z</time></trkpt><trkpt lat="38.31294354172791" lon="16.157054833061732"><ele>815.5</ele><time>2026-04-06T10:49:48Z</time></trkpt><trkpt lat="38.312848400661416" lon="16.156962826038825"><ele>815.25</ele><time>2026-04-06T10:49:49Z</time></trkpt><trkpt lat="38.31275756961313" lon="16.156907145814422"><ele>815.0</ele><time>2026-04-06T10:49:50Z</time></trkpt><trkpt lat="38.31263672896342" lon="16.156848353271684"><ele>815.0</ele><time>2026-04-06T10:49:51Z</time></trkpt><trkpt lat="38.31251868840861" lon="16.156804821110086"><ele>815.0</ele><time>2026-04-06T10:49:52Z</time></trkpt><trkpt lat="38.31240455278434" lon="16.15676976197669"><ele>815.0</ele><time>2026-04-06T10:49:53Z</time></trkpt><trkpt lat="38.31223848241189" lon="16.156774289202296"><ele>815.0</ele><time>2026-04-06T10:49:54Z</time></trkpt><trkpt lat="38.31207659400619" lon="16.1567983753851"><ele>812.75</ele><time>2026-04-06T10:49:55Z</time></trkpt><trkpt lat="38.311914780677114" lon="16.15682455419477"><ele>810.5</ele><time>2026-04-06T10:49:56Z</time></trkpt><trkpt lat="38.31177636665565" lon="16.156870322490366"><ele>808.25</ele><time>2026-04-06T10:49:57Z</time></trkpt><trkpt lat="38.311657084035396" lon="16.15692275157419"><ele>806.0</ele><time>2026-04-06T10:49:58Z</time></trkpt><trkpt lat="38.31155693837116" lon="16.156970521391155"><ele>806.0</ele><time>2026-04-06T10:49:59Z</time></trkpt><trkpt lat="38.311487159956215" lon="16.15702557179334"><ele>806.0</ele><time>2026-04-06T10:50:00Z</time></trkpt><trkpt lat="38.311461069367965" lon="16.157119317242515"><ele>806.0</ele><time>2026-04-06T10:50:01Z</time></trkpt><trkpt lat="38.311501220499125" lon="16.157204962306846"><ele>806.0</ele><time>2026-04-06T10:50:02Z</time></trkpt><trkpt lat="38.311591147892194" lon="16.157259594843783"><ele>806.0</ele><time>2026-04-06T10:50:03Z</time></trkpt><trkpt lat="38.31169888675535" lon="16.15729653986741"><ele>806.0</ele><time>2026-04-06T10:50:04Z</time></trkpt><trkpt lat="38.3118099599455" lon="16.15733875601182"><ele>806.0</ele><time>2026-04-06T10:50:05Z</time></trkpt><trkpt lat="38.311896061299116" lon="16.1574136243558"><ele>806.0</ele><time>2026-04-06T10:50:06Z</time></trkpt><trkpt lat="38.3119594843832" lon="16.157535814051187"><ele>806.0</ele><time>2026-04-06T10:50:07Z</time></trkpt><trkpt lat="38.31201099365672" lon="16.157690829342737"><ele>805.75</ele><time>2026-04-06T10:50:08Z</time></trkpt><trkpt lat="38.31205915289577" lon="16.157848263909973"><ele>805.5</ele><time>2026-04-06T10:50:09Z</time></trkpt><trkpt lat="38.31209007942778" lon="16.15798608117861"><ele>805.25</ele><time>2026-04-06T10:50:10Z</time></trkpt><trkpt lat="38.31208328946535" lon="16.158122621518398"><ele>805.0</ele><time>2026-04-06T10:50:11Z</time></trkpt><trkpt lat="38.31203430367725" lon="16.158266227786843"><ele>800.25</ele><time>2026-04-06T10:50:12Z</time></trkpt><trkpt lat="38.31199343764433" lon="16.158433309691322"><ele>795.5</ele><time>2026-04-06T10:50:13Z</time></trkpt><trkpt lat="38.31199859554661" lon="16.158605502727195"><ele>790.75</ele><time>2026-04-06T10:50:14Z</time></trkpt><trkpt lat="38.31202261673155" lon="16.158749723866634"><ele>786.0</ele><time>2026-04-06T10:50:15Z</time></trkpt><trkpt lat="38.31202718537976" lon="16.158872876227157"><ele>786.0</ele><time>2026-04-06T10:50:16Z</time></trkpt><trkpt lat="38.31198661191869" lon="16.15900242555991"><ele>786.0</ele><time>2026-04-06T10:50:17Z</time></trkpt><trkpt lat="38.31190081503187" lon="16.159115653395258"><ele>786.0</ele><time>2026-04-06T10:50:18Z</time></trkpt><trkpt lat="38.3118145580247" lon="16.15922557608322"><ele>786.0</ele><time>2026-04-06T10:50:19Z</time></trkpt><trkpt lat="38.31177385917729" lon="16.159378121374306"><ele>789.25</ele><time>2026-04-06T10:50:20Z</time></trkpt><trkpt lat="38.31174557816607" lon="16.159565593319282"><ele>792.5</ele><time>2026-04-06T10:50:21Z</time></trkpt><trkpt lat="38.311689997326795" lon="16.159749002572426"><ele>795.75</ele><time>2026-04-06T10:50:21.999Z</time></trkpt><trkpt lat="38.31162265092888" lon="16.159899688934555"><ele>799.0</ele><time>2026-04-06T10:50:22.999Z</time></trkpt><trkpt lat="38.311538224044945" lon="16.16003226785942"><ele>792.6666666666666</ele><time>2026-04-06T10:50:23.999Z</time></trkpt><trkpt lat="38.31138589504497" lon="16.160117406585"><ele>786.3333333333333</ele><time>2026-04-06T10:50:24.999Z</time></trkpt><trkpt lat="38.311250117964896" lon="16.16026195118448"><ele>780.0</ele><time>2026-04-06T10:50:25.999Z</time></trkpt><trkpt lat="38.311075683311486" lon="16.160443467041972"><ele>780.0</ele><time>2026-04-06T10:50:26.999Z</time></trkpt><trkpt lat="38.31089445418479" lon="16.160601404870924"><ele>780.0</ele><time>2026-04-06T10:50:27.999Z</time></trkpt><trkpt lat="38.31072284547905" lon="16.160755293737484"><ele>780.0</ele><time>2026-04-06T10:50:28.999Z</time></trkpt><trkpt lat="38.31055805836696" lon="16.16084458924799"><ele>777.5</ele><time>2026-04-06T10:50:29.999Z</time></trkpt><trkpt lat="38.31036720320901" lon="16.160893812332112"><ele>775.0</ele><time>2026-04-06T10:50:30.999Z</time></trkpt><trkpt lat="38.31043407807059" lon="16.16086451064196"><ele>772.5</ele><time>2026-04-06T10:50:31.999Z</time></trkpt><trkpt lat="38.310327702543596" lon="16.160909501927055"><ele>770.0</ele><time>2026-04-06T10:50:32.999Z</time></trkpt><trkpt lat="38.31025873592642" lon="16.160987824065277"><ele>770.0</ele><time>2026-04-06T10:50:33.999Z</time></trkpt><trkpt lat="38.31023153263228" lon="16.161081577883035"><ele>770.0</ele><time>2026-04-06T10:50:34.999Z</time></trkpt><trkpt lat="38.31025968090796" lon="16.16119089382529"><ele>770.0</ele><time>2026-04-06T10:50:35.999Z</time></trkpt><trkpt lat="38.31033892912788" lon="16.161287271993896"><ele>770.0</ele><time>2026-04-06T10:50:36.999Z</time></trkpt><trkpt lat="38.31044643390986" lon="16.16131970126952"><ele>770.0</ele><time>2026-04-06T10:50:37.999Z</time></trkpt><trkpt lat="38.31059511417704" lon="16.161333027501048"><ele>778.3333333333334</ele><time>2026-04-06T10:50:38.999Z</time></trkpt><trkpt lat="38.310768585981364" lon="16.16137907914276"><ele>786.6666666666667</ele><time>2026-04-06T10:50:39.999Z</time></trkpt><trkpt lat="38.31095345136649" lon="16.161429636527927"><ele>795.0</ele><time>2026-04-06T10:50:40.999Z</time></trkpt><trkpt lat="38.31112454060623" lon="16.161475674204276"><ele>795.0</ele><time>2026-04-06T10:50:41.999Z</time></trkpt><trkpt lat="38.31128069394664" lon="16.161526507915475"><ele>795.0</ele><time>2026-04-06T10:50:42.999Z</time></trkpt><trkpt lat="38.31143717303048" lon="16.161597671668268"><ele>795.0</ele><time>2026-04-06T10:50:43.999Z</time></trkpt><trkpt lat="38.31158186992123" lon="16.161678733615336"><ele>794.0</ele><time>2026-04-06T10:50:44.999Z</time></trkpt><trkpt lat="38.31170762995957" lon="16.16175055447742"><ele>793.0</ele><time>2026-04-06T10:50:45.999Z</time></trkpt><trkpt lat="38.311821275965436" lon="16.161821839638492"><ele>792.0</ele><time>2026-04-06T10:50:46.999Z</time></trkpt><trkpt lat="38.31189438702327" lon="16.161949570333878"><ele>791.0</ele><time>2026-04-06T10:50:47.999Z</time></trkpt><trkpt lat="38.31188676940539" lon="16.162062461071876"><ele>791.0</ele><time>2026-04-06T10:50:49Z</time></trkpt><trkpt lat="38.311917504372595" lon="16.162192532875736"><ele>791.0</ele><time>2026-04-06T10:50:50Z</time></trkpt><trkpt lat="38.31198575108446" lon="16.16235788992917"><ele>791.0</ele><time>2026-04-06T10:50:51Z</time></trkpt><trkpt lat="38.31205188660252" lon="16.162522029158776"><ele>791.0</ele><time>2026-04-06T10:50:52Z</time></trkpt><trkpt lat="38.31211994595297" lon="16.162622562067114"><ele>793.4</ele><time>2026-04-06T10:50:53Z</time></trkpt><trkpt lat="38.31223263252001" lon="16.1626743574017"><ele>795.8</ele><time>2026-04-06T10:50:54Z</time></trkpt><trkpt lat="38.31229733314425" lon="16.162738428766158"><ele>798.1999999999999</ele><time>2026-04-06T10:50:55Z</time></trkpt><trkpt lat="38.31234892530602" lon="16.162814525513664"><ele>800.5999999999999</ele><time>2026-04-06T10:50:56Z</time></trkpt><trkpt lat="38.31232154213998" lon="16.162972080015216"><ele>803.0</ele><time>2026-04-06T10:50:58Z</time></trkpt><trkpt lat="38.3122546656441" lon="16.163107647168196"><ele>799.2</ele><time>2026-04-06T10:50:59Z</time></trkpt><trkpt lat="38.31215865154915" lon="16.16320689705516"><ele>795.4</ele><time>2026-04-06T10:51:00Z</time></trkpt><trkpt lat="38.312135561137524" lon="16.163304912987464"><ele>791.6</ele><time>2026-04-06T10:51:01Z</time></trkpt><trkpt lat="38.31217588773613" lon="16.163413791152653"><ele>787.8000000000001</ele><time>2026-04-06T10:51:02Z</time></trkpt><trkpt lat="38.312257201270775" lon="16.16351996498271"><ele>784.0</ele><time>2026-04-06T10:51:03Z</time></trkpt><trkpt lat="38.31237021384215" lon="16.163619750619546"><ele>784.0</ele><time>2026-04-06T10:51:04Z</time></trkpt><trkpt lat="38.31248542137332" lon="16.16371642051719"><ele>784.0</ele><time>2026-04-06T10:51:05Z</time></trkpt><trkpt lat="38.31257523735874" lon="16.163796097823948"><ele>784.0</ele><time>2026-04-06T10:51:06Z</time></trkpt><trkpt lat="38.31264504174583" lon="16.163893541798203"><ele>784.0</ele><time>2026-04-06T10:51:07Z</time></trkpt><trkpt lat="38.312672312199965" lon="16.164031504060038"><ele>777.3333333333333</ele><time>2026-04-06T10:51:08Z</time></trkpt><trkpt lat="38.31273120053802" lon="16.16421184851569"><ele>770.6666666666666</ele><time>2026-04-06T10:51:09Z</time></trkpt><trkpt lat="38.312797322048034" lon="16.16441475017167"><ele>764.0</ele><time>2026-04-06T10:51:10Z</time></trkpt><trkpt lat="38.31280377905968" lon="16.16459625353227"><ele>764.0</ele><time>2026-04-06T10:51:11Z</time></trkpt><trkpt lat="38.312787283184775" lon="16.16476316480372"><ele>764.0</ele><time>2026-04-06T10:51:12Z</time></trkpt><trkpt lat="38.312768422637824" lon="16.16500594380879"><ele>764.0</ele><time>2026-04-06T10:51:13Z</time></trkpt><trkpt lat="38.31274326478094" lon="16.16523623814571"><ele>761.75</ele><time>2026-04-06T10:51:14Z</time></trkpt><trkpt lat="38.31276396204323" lon="16.165439643848323"><ele>759.5</ele><time>2026-04-06T10:51:15Z</time></trkpt><trkpt lat="38.312784166969266" lon="16.16563326059869"><ele>757.25</ele><time>2026-04-06T10:51:16Z</time></trkpt><trkpt lat="38.31281372396925" lon="16.165799567428735"><ele>755.0</ele><time>2026-04-06T10:51:17Z</time></trkpt><trkpt lat="38.31284158813435" lon="16.16594616594902"><ele>755.0</ele><time>2026-04-06T10:51:18Z</time></trkpt><trkpt lat="38.312840579302254" lon="16.166079436792785"><ele>755.0</ele><time>2026-04-06T10:51:19Z</time></trkpt><trkpt lat="38.312807590038744" lon="16.166182103372773"><ele>755.0</ele><time>2026-04-06T10:51:20Z</time></trkpt><trkpt lat="38.31271198957616" lon="16.166277306588015"><ele>755.0</ele><time>2026-04-06T10:51:21Z</time></trkpt><trkpt lat="38.31262215587603" lon="16.166332112711803"><ele>755.0</ele><time>2026-04-06T10:51:22Z</time></trkpt><trkpt lat="38.31252297566991" lon="16.16631763404522"><ele>755.0</ele><time>2026-04-06T10:51:23Z</time></trkpt><trkpt lat="38.31241578824796" lon="16.16625158599852"><ele>755.0</ele><time>2026-04-06T10:51:24Z</time></trkpt><trkpt lat="38.31232909273623" lon="16.1662452350295"><ele>755.0</ele><time>2026-04-06T10:51:25Z</time></trkpt><trkpt lat="38.31225760228492" lon="16.166306458647522"><ele>755.0</ele><time>2026-04-06T10:51:26Z</time></trkpt><trkpt lat="38.31220614033165" lon="16.16643414234491"><ele>755.0</ele><time>2026-04-06T10:51:27Z</time></trkpt><trkpt lat="38.312123425868705" lon="16.166588602594143"><ele>753.5</ele><time>2026-04-06T10:51:28Z</time></trkpt><trkpt lat="38.311993095798336" lon="16.166650503447926"><ele>752.0</ele><time>2026-04-06T10:51:29Z</time></trkpt><trkpt lat="38.311866831939255" lon="16.16674992996849"><ele>750.5</ele><time>2026-04-06T10:51:30Z</time></trkpt><trkpt lat="38.31175217203456" lon="16.16683083604862"><ele>749.0</ele><time>2026-04-06T10:51:31Z</time></trkpt><trkpt lat="38.31164281658968" lon="16.166878692494723"><ele>749.0</ele><time>2026-04-06T10:51:32Z</time></trkpt><trkpt lat="38.3115252222431" lon="16.16683435823217"><ele>749.0</ele><time>2026-04-06T10:51:33Z</time></trkpt><trkpt lat="38.311416666157946" lon="16.16686994001132"><ele>749.0</ele><time>2026-04-06T10:51:34Z</time></trkpt><trkpt lat="38.311310177083364" lon="16.166938465144167"><ele>749.0</ele><time>2026-04-06T10:51:35Z</time></trkpt><trkpt lat="38.31120405685364" lon="16.1670626528197"><ele>745.3333333333333</ele><time>2026-04-06T10:51:36Z</time></trkpt><trkpt lat="38.31111067994737" lon="16.167269783838055"><ele>741.6666666666666</ele><time>2026-04-06T10:51:37Z</time></trkpt><trkpt lat="38.31101901492939" lon="16.167429008065156"><ele>738.0</ele><time>2026-04-06T10:51:38Z</time></trkpt><trkpt lat="38.31093692846409" lon="16.167563084053562"><ele>738.0</ele><time>2026-04-06T10:51:39Z</time></trkpt><trkpt lat="38.310881397682586" lon="16.167686950881013"><ele>738.0</ele><time>2026-04-06T10:51:40Z</time></trkpt><trkpt lat="38.310864976100554" lon="16.167831276446332"><ele>738.0</ele><time>2026-04-06T10:51:41Z</time></trkpt><trkpt lat="38.31086961397809" lon="16.16799449200641"><ele>738.0</ele><time>2026-04-06T10:51:42Z</time></trkpt><trkpt lat="38.31090905213047" lon="16.168162236833982"><ele>738.8</ele><time>2026-04-06T10:51:43Z</time></trkpt><trkpt lat="38.310969455569854" lon="16.168303619539547"><ele>739.5999999999999</ele><time>2026-04-06T10:51:44Z</time></trkpt><trkpt lat="38.311024807715754" lon="16.16842113970807"><ele>740.4000000000001</ele><time>2026-04-06T10:51:45Z</time></trkpt><trkpt lat="38.31105227551747" lon="16.168524628019505"><ele>741.2</ele><time>2026-04-06T10:51:46Z</time></trkpt><trkpt lat="38.311018676616" lon="16.168619937488725"><ele>742.0</ele><time>2026-04-06T10:51:47Z</time></trkpt><trkpt lat="38.31092251171513" lon="16.16869577825319"><ele>742.0</ele><time>2026-04-06T10:51:48Z</time></trkpt><trkpt lat="38.31086669242136" lon="16.16877768672319"><ele>742.0</ele><time>2026-04-06T10:51:49Z</time></trkpt><trkpt lat="38.31083866324159" lon="16.168945875130657"><ele>742.0</ele><time>2026-04-06T10:51:50Z</time></trkpt><trkpt lat="38.310866535899066" lon="16.16914505319085"><ele>742.0</ele><time>2026-04-06T10:51:51Z</time></trkpt><trkpt lat="38.31087804631202" lon="16.169348892983916"><ele>742.0</ele><time>2026-04-06T10:51:52Z</time></trkpt><trkpt lat="38.31084300293331" lon="16.169559881998108"><ele>742.0</ele><time>2026-04-06T10:51:53Z</time></trkpt><trkpt lat="38.310751722853965" lon="16.16976366767143"><ele>742.0</ele><time>2026-04-06T10:51:54Z</time></trkpt><trkpt lat="38.31067352537747" lon="16.16998394700281"><ele>742.0</ele><time>2026-04-06T10:51:55Z</time></trkpt><trkpt lat="38.31057550519016" lon="16.170174037254043"><ele>742.0</ele><time>2026-04-06T10:51:56Z</time></trkpt><trkpt lat="38.31050767829584" lon="16.170340157041696"><ele>742.0</ele><time>2026-04-06T10:51:57Z</time></trkpt><trkpt lat="38.310469247147694" lon="16.170475817543807"><ele>742.0</ele><time>2026-04-06T10:51:58Z</time></trkpt><trkpt lat="38.310473599771214" lon="16.17060379466086"><ele>732.0</ele><time>2026-04-06T10:51:59Z</time></trkpt><trkpt lat="38.310504233296" lon="16.17075952590676"><ele>722.0</ele><time>2026-04-06T10:52:00Z</time></trkpt><trkpt lat="38.310509989629665" lon="16.17092210997746"><ele>712.0</ele><time>2026-04-06T10:52:01Z</time></trkpt><trkpt lat="38.31041680461487" lon="16.171092962906044"><ele>702.0</ele><time>2026-04-06T10:52:02Z</time></trkpt><trkpt lat="38.31032227537588" lon="16.171311043711164"><ele>702.0</ele><time>2026-04-06T10:52:03Z</time></trkpt><trkpt lat="38.310216844323215" lon="16.171493809614763"><ele>702.0</ele><time>2026-04-06T10:52:04Z</time></trkpt><trkpt lat="38.3101046311661" lon="16.171622978553014"><ele>702.0</ele><time>2026-04-06T10:52:05Z</time></trkpt><trkpt lat="38.30999288424744" lon="16.171745322973454"><ele>706.25</ele><time>2026-04-06T10:52:06Z</time></trkpt><trkpt lat="38.30988410068024" lon="16.171831175525085"><ele>710.5</ele><time>2026-04-06T10:52:07Z</time></trkpt><trkpt lat="38.309806704636415" lon="16.17194496270836"><ele>714.75</ele><time>2026-04-06T10:52:08Z</time></trkpt><trkpt lat="38.30975801591429" lon="16.172112274317577"><ele>719.0</ele><time>2026-04-06T10:52:09Z</time></trkpt><trkpt lat="38.309730161082534" lon="16.172298318721626"><ele>720.0</ele><time>2026-04-06T10:52:10Z</time></trkpt><trkpt lat="38.309720289152494" lon="16.172453562192743"><ele>721.0</ele><time>2026-04-06T10:52:11Z</time></trkpt><trkpt lat="38.30975239335996" lon="16.172611896952745"><ele>722.0</ele><time>2026-04-06T10:52:12Z</time></trkpt><trkpt lat="38.30978841261042" lon="16.172806309855797"><ele>723.0</ele><time>2026-04-06T10:52:13Z</time></trkpt><trkpt lat="38.309796904236954" lon="16.173015918098372"><ele>721.0</ele><time>2026-04-06T10:52:14Z</time></trkpt><trkpt lat="38.30979638584763" lon="16.173211736025173"><ele>719.0</ele><time>2026-04-06T10:52:15Z</time></trkpt><trkpt lat="38.309777950855164" lon="16.173368506971833"><ele>717.0</ele><time>2026-04-06T10:52:16Z</time></trkpt><trkpt lat="38.309732061095175" lon="16.17347642418104"><ele>715.0</ele><time>2026-04-06T10:52:17Z</time></trkpt><trkpt lat="38.30962830766372" lon="16.173582241530397"><ele>715.5</ele><time>2026-04-06T10:52:18Z</time></trkpt><trkpt lat="38.30954029217538" lon="16.173747253630953"><ele>716.0</ele><time>2026-04-06T10:52:19Z</time></trkpt><trkpt lat="38.309451642196066" lon="16.17390623401887"><ele>716.5</ele><time>2026-04-06T10:52:20Z</time></trkpt><trkpt lat="38.30938591735337" lon="16.17404437647618"><ele>717.0</ele><time>2026-04-06T10:52:21Z</time></trkpt><trkpt lat="38.309319148162785" lon="16.174138467690064"><ele>717.0</ele><time>2026-04-06T10:52:22Z</time></trkpt><trkpt lat="38.30923434419339" lon="16.174191978981508"><ele>717.0</ele><time>2026-04-06T10:52:23Z</time></trkpt><trkpt lat="38.30910904470706" lon="16.174157811642466"><ele>717.0</ele><time>2026-04-06T10:52:24Z</time></trkpt><trkpt lat="38.30897357990257" lon="16.17418546388254"><ele>717.0</ele><time>2026-04-06T10:52:25Z</time></trkpt><trkpt lat="38.30884577008114" lon="16.174271530913572"><ele>704.3333333333334</ele><time>2026-04-06T10:52:26Z</time></trkpt><trkpt lat="38.30872827249966" lon="16.174428681341396"><ele>691.6666666666667</ele><time>2026-04-06T10:52:27Z</time></trkpt><trkpt lat="38.30859680869217" lon="16.174596808723248"><ele>679.0</ele><time>2026-04-06T10:52:27.999Z</time></trkpt><trkpt lat="38.30843040120938" lon="16.17473105459898"><ele>679.0</ele><time>2026-04-06T10:52:28.999Z</time></trkpt><trkpt lat="38.308259970226835" lon="16.17485282149686"><ele>679.0</ele><time>2026-04-06T10:52:29.999Z</time></trkpt><trkpt lat="38.308096287336596" lon="16.174968283458284"><ele>679.0</ele><time>2026-04-06T10:52:30.999Z</time></trkpt><trkpt lat="38.30794607355907" lon="16.17509967520781"><ele>677.6666666666667</ele><time>2026-04-06T10:52:31.999Z</time></trkpt><trkpt lat="38.30780261439298" lon="16.175273659888514"><ele>676.3333333333334</ele><time>2026-04-06T10:52:32.999Z</time></trkpt><trkpt lat="38.30766727374723" lon="16.175492921766956"><ele>675.0</ele><time>2026-04-06T10:52:33.999Z</time></trkpt><trkpt lat="38.307536141953136" lon="16.17570762296317"><ele>676.3333333333334</ele><time>2026-04-06T10:52:34.999Z</time></trkpt><trkpt lat="38.30743448071421" lon="16.175919080342762"><ele>677.6666666666667</ele><time>2026-04-06T10:52:35.999Z</time></trkpt><trkpt lat="38.30733694262155" lon="16.176102094072245"><ele>679.0</ele><time>2026-04-06T10:52:36.999Z</time></trkpt><trkpt lat="38.30721248478505" lon="16.176225763454617"><ele>679.0</ele><time>2026-04-06T10:52:37.999Z</time></trkpt><trkpt lat="38.30710444106947" lon="16.176388135198412"><ele>679.0</ele><time>2026-04-06T10:52:38.999Z</time></trkpt><trkpt lat="38.30701315662719" lon="16.17659110222877"><ele>679.0</ele><time>2026-04-06T10:52:39.999Z</time></trkpt><trkpt lat="38.30693223145521" lon="16.17683303429309"><ele>683.3333333333334</ele><time>2026-04-06T10:52:40.999Z</time></trkpt><trkpt lat="38.30684361000941" lon="16.177061956661653"><ele>687.6666666666666</ele><time>2026-04-06T10:52:41.999Z</time></trkpt><trkpt lat="38.3067588200929" lon="16.17724874107708"><ele>692.0</ele><time>2026-04-06T10:52:42.999Z</time></trkpt><trkpt lat="38.30666640956004" lon="16.17740784327952"><ele>692.3333333333333</ele><time>2026-04-06T10:52:43.999Z</time></trkpt><trkpt lat="38.306547709995314" lon="16.177515878526727"><ele>692.6666666666666</ele><time>2026-04-06T10:52:45Z</time></trkpt><trkpt lat="38.306389934534764" lon="16.177566686429934"><ele>693.0</ele><time>2026-04-06T10:52:46Z</time></trkpt><trkpt lat="38.306211913843526" lon="16.17764079220997"><ele>693.0</ele><time>2026-04-06T10:52:47Z</time></trkpt><trkpt lat="38.30602574853644" lon="16.177677333889324"><ele>693.0</ele><time>2026-04-06T10:52:48Z</time></trkpt><trkpt lat="38.30586688356664" lon="16.177689200188993"><ele>693.0</ele><time>2026-04-06T10:52:49Z</time></trkpt><trkpt lat="38.30572565996802" lon="16.177655187584588"><ele>693.0</ele><time>2026-04-06T10:52:50Z</time></trkpt><trkpt lat="38.3056071324668" lon="16.177551046063034"><ele>693.0</ele><time>2026-04-06T10:52:51Z</time></trkpt><trkpt lat="38.305484521742706" lon="16.17742523268468"><ele>693.0</ele><time>2026-04-06T10:52:52Z</time></trkpt><trkpt lat="38.305394146326535" lon="16.17728236312021"><ele>693.0</ele><time>2026-04-06T10:52:53Z</time></trkpt><trkpt lat="38.30533182126856" lon="16.177118824654997"><ele>692.2</ele><time>2026-04-06T10:52:54Z</time></trkpt><trkpt lat="38.3052977017292" lon="16.176932809132687"><ele>691.4</ele><time>2026-04-06T10:52:55Z</time></trkpt><trkpt lat="38.305246596400224" lon="16.176792320241578"><ele>690.6</ele><time>2026-04-06T10:52:56Z</time></trkpt><trkpt lat="38.305188530191785" lon="16.17670020496804"><ele>689.8000000000001</ele><time>2026-04-06T10:52:57Z</time></trkpt><trkpt lat="38.30511235033652" lon="16.176652082052506"><ele>689.0</ele><time>2026-04-06T10:52:58Z</time></trkpt><trkpt lat="38.304996975719234" lon="16.17670188697867"><ele>689.0</ele><time>2026-04-06T10:52:59Z</time></trkpt><trkpt lat="38.30486587647979" lon="16.17676500888958"><ele>689.0</ele><time>2026-04-06T10:53:00Z</time></trkpt><trkpt lat="38.30470816068433" lon="16.176838216260823"><ele>689.0</ele><time>2026-04-06T10:53:01Z</time></trkpt><trkpt lat="38.30450685825459" lon="16.176897979921044"><ele>689.0</ele><time>2026-04-06T10:53:02Z</time></trkpt><trkpt lat="38.30429822795624" lon="16.176976427437545"><ele>689.0</ele><time>2026-04-06T10:53:03Z</time></trkpt><trkpt lat="38.3041339725776" lon="16.17704732698174"><ele>689.0</ele><time>2026-04-06T10:53:04Z</time></trkpt><trkpt lat="38.30399052372088" lon="16.177100088996063"><ele>691.75</ele><time>2026-04-06T10:53:05Z</time></trkpt><trkpt lat="38.303866217462854" lon="16.177130902284887"><ele>694.5</ele><time>2026-04-06T10:53:06Z</time></trkpt><trkpt lat="38.30374260187905" lon="16.177118095259537"><ele>697.25</ele><time>2026-04-06T10:53:07Z</time></trkpt><trkpt lat="38.303632800486064" lon="16.177049007062596"><ele>700.0</ele><time>2026-04-06T10:53:08Z</time></trkpt><trkpt lat="38.30356481902656" lon="16.176894049557806"><ele>700.0</ele><time>2026-04-06T10:53:09Z</time></trkpt><trkpt lat="38.30356446818181" lon="16.17674840260628"><ele>700.0</ele><time>2026-04-06T10:53:10Z</time></trkpt><trkpt lat="38.3035182254049" lon="16.17665479703975"><ele>700.0</ele><time>2026-04-06T10:53:11Z</time></trkpt><trkpt lat="38.30342463071024" lon="16.176548285264513"><ele>700.0</ele><time>2026-04-06T10:53:12Z</time></trkpt><trkpt lat="38.30329824112674" lon="16.176450060144397"><ele>698.0</ele><time>2026-04-06T10:53:13Z</time></trkpt><trkpt lat="38.303158274204236" lon="16.176344352454347"><ele>696.0</ele><time>2026-04-06T10:53:14Z</time></trkpt><trkpt lat="38.3030636940397" lon="16.17624129979892"><ele>694.0</ele><time>2026-04-06T10:53:15Z</time></trkpt><trkpt lat="38.30295295854743" lon="16.176148037166374"><ele>692.0</ele><time>2026-04-06T10:53:16Z</time></trkpt><trkpt lat="38.30281448844051" lon="16.176124305396748"><ele>692.0</ele><time>2026-04-06T10:53:17Z</time></trkpt><trkpt lat="38.302697372800225" lon="16.176155164121425"><ele>692.0</ele><time>2026-04-06T10:53:18Z</time></trkpt><trkpt lat="38.30258663757791" lon="16.176248969439943"><ele>692.0</ele><time>2026-04-06T10:53:19Z</time></trkpt><trkpt lat="38.302530051007956" lon="16.17639474285283"><ele>692.0</ele><time>2026-04-06T10:53:20Z</time></trkpt><trkpt lat="38.30248861377402" lon="16.176585179692978"><ele>692.5</ele><time>2026-04-06T10:53:21Z</time></trkpt><trkpt lat="38.30244830690765" lon="16.176789482309143"><ele>693.0</ele><time>2026-04-06T10:53:22Z</time></trkpt><trkpt lat="38.30240095279903" lon="16.1769589634498"><ele>693.5</ele><time>2026-04-06T10:53:23Z</time></trkpt><trkpt lat="38.30233097536294" lon="16.177069706179093"><ele>694.0</ele><time>2026-04-06T10:53:24Z</time></trkpt><trkpt lat="38.30222953727399" lon="16.177116569871966"><ele>691.25</ele><time>2026-04-06T10:53:25Z</time></trkpt><trkpt lat="38.30210872326856" lon="16.17718031474574"><ele>688.5</ele><time>2026-04-06T10:53:26Z</time></trkpt><trkpt lat="38.301972886322034" lon="16.177234919229456"><ele>685.75</ele><time>2026-04-06T10:53:27Z</time></trkpt><trkpt lat="38.30186464524353" lon="16.177313290269105"><ele>683.0</ele><time>2026-04-06T10:53:28Z</time></trkpt><trkpt lat="38.30180297467381" lon="16.177410347140757"><ele>683.0</ele><time>2026-04-06T10:53:29Z</time></trkpt><trkpt lat="38.30178868069871" lon="16.177500656096463"><ele>683.0</ele><time>2026-04-06T10:53:30Z</time></trkpt><trkpt lat="38.30180599293955" lon="16.17761238269587"><ele>683.0</ele><time>2026-04-06T10:53:31Z</time></trkpt><trkpt lat="38.30187405171172" lon="16.17776435225777"><ele>683.0</ele><time>2026-04-06T10:53:32Z</time></trkpt><trkpt lat="38.30196661250262" lon="16.177956274663835"><ele>683.0</ele><time>2026-04-06T10:53:33Z</time></trkpt><trkpt lat="38.30204100280708" lon="16.178123475455315"><ele>683.0</ele><time>2026-04-06T10:53:34Z</time></trkpt><trkpt lat="38.30211783208624" lon="16.17824780015973"><ele>683.0</ele><time>2026-04-06T10:53:35Z</time></trkpt><trkpt lat="38.3021865282175" lon="16.178367373827275"><ele>683.0</ele><time>2026-04-06T10:53:36Z</time></trkpt><trkpt lat="38.302223593811064" lon="16.178494954655875"><ele>678.6666666666666</ele><time>2026-04-06T10:53:37Z</time></trkpt><trkpt lat="38.30220348065302" lon="16.178661564036343"><ele>674.3333333333334</ele><time>2026-04-06T10:53:38Z</time></trkpt><trkpt lat="38.302165079601906" lon="16.178880997849518"><ele>670.0</ele><time>2026-04-06T10:53:39Z</time></trkpt><trkpt lat="38.30214730241377" lon="16.179118630725288"><ele>666.3333333333334</ele><time>2026-04-06T10:53:40Z</time></trkpt><trkpt lat="38.30213933031979" lon="16.17934341540105"><ele>662.6666666666666</ele><time>2026-04-06T10:53:41Z</time></trkpt><trkpt lat="38.30217122614048" lon="16.179523677945927"><ele>659.0</ele><time>2026-04-06T10:53:42Z</time></trkpt><trkpt lat="38.30215042267192" lon="16.17971769580837"><ele>661.6666666666666</ele><time>2026-04-06T10:53:43Z</time></trkpt><trkpt lat="38.302081514297264" lon="16.179918990671144"><ele>664.3333333333334</ele><time>2026-04-06T10:53:44Z</time></trkpt><trkpt lat="38.30202137979357" lon="16.18010571325072"><ele>667.0</ele><time>2026-04-06T10:53:45Z</time></trkpt><trkpt lat="38.3019298544064" lon="16.180226020231444"><ele>667.0</ele><time>2026-04-06T10:53:46Z</time></trkpt><trkpt lat="38.30184245250585" lon="16.180338570405816"><ele>667.0</ele><time>2026-04-06T10:53:47Z</time></trkpt><trkpt lat="38.301763194277775" lon="16.18046603119473"><ele>667.0</ele><time>2026-04-06T10:53:48Z</time></trkpt><trkpt lat="38.30171289834708" lon="16.180600931592796"><ele>667.0</ele><time>2026-04-06T10:53:49Z</time></trkpt><trkpt lat="38.30162365263785" lon="16.180714925041944"><ele>669.75</ele><time>2026-04-06T10:53:50Z</time></trkpt><trkpt lat="38.30147579793419" lon="16.18077500034318"><ele>672.5</ele><time>2026-04-06T10:53:51Z</time></trkpt><trkpt lat="38.30135995030318" lon="16.180847481922594"><ele>675.25</ele><time>2026-04-06T10:53:52Z</time></trkpt><trkpt lat="38.30126694195396" lon="16.1808926792251"><ele>678.0</ele><time>2026-04-06T10:53:53Z</time></trkpt><trkpt lat="38.30117844863241" lon="16.180896807904663"><ele>678.0</ele><time>2026-04-06T10:53:54Z</time></trkpt><trkpt lat="38.301104563479576" lon="16.18083177231518"><ele>678.0</ele><time>2026-04-06T10:53:55Z</time></trkpt><trkpt lat="38.30101331709891" lon="16.180724442458775"><ele>678.0</ele><time>2026-04-06T10:53:56Z</time></trkpt><trkpt lat="38.30087580688008" lon="16.180631771893154"><ele>678.0</ele><time>2026-04-06T10:53:57Z</time></trkpt><trkpt lat="38.300716891313755" lon="16.1805756267247"><ele>671.4</ele><time>2026-04-06T10:53:58Z</time></trkpt><trkpt lat="38.30057483294067" lon="16.180550884099627"><ele>664.8</ele><time>2026-04-06T10:53:59Z</time></trkpt><trkpt lat="38.30045784171779" lon="16.180594501679746"><ele>658.2</ele><time>2026-04-06T10:54:00.001Z</time></trkpt><trkpt lat="38.30039970241014" lon="16.180660441821843"><ele>651.6</ele><time>2026-04-06T10:54:01.001Z</time></trkpt><trkpt lat="38.30035977655425" lon="16.180771603967017"><ele>645.0</ele><time>2026-04-06T10:54:02.001Z</time></trkpt><trkpt lat="38.30032602190325" lon="16.18095648096676"><ele>645.0</ele><time>2026-04-06T10:54:03.001Z</time></trkpt><trkpt lat="38.30029536288324" lon="16.1811991007761"><ele>645.0</ele><time>2026-04-06T10:54:04.001Z</time></trkpt><trkpt lat="38.30025710777188" lon="16.18144144668713"><ele>645.0</ele><time>2026-04-06T10:54:05.001Z</time></trkpt><trkpt lat="38.30020735565229" lon="16.181680864880914"><ele>648.5</ele><time>2026-04-06T10:54:06.001Z</time></trkpt><trkpt lat="38.3000842268977" lon="16.181779895378824"><ele>652.0</ele><time>2026-04-06T10:54:07.001Z</time></trkpt><trkpt lat="38.30001904797594" lon="16.181886445163713"><ele>655.5</ele><time>2026-04-06T10:54:09.001Z</time></trkpt><trkpt lat="38.299929273040256" lon="16.18201350894461"><ele>659.0</ele><time>2026-04-06T10:54:10.001Z</time></trkpt><trkpt lat="38.29986986619832" lon="16.182205946121503"><ele>659.0</ele><time>2026-04-06T10:54:11.001Z</time></trkpt><trkpt lat="38.29983184399412" lon="16.182347877274605"><ele>659.0</ele><time>2026-04-06T10:54:12.001Z</time></trkpt><trkpt lat="38.29983641062422" lon="16.182478008927276"><ele>659.0</ele><time>2026-04-06T10:54:13.001Z</time></trkpt><trkpt lat="38.299898363983516" lon="16.18261594833602"><ele>659.0</ele><time>2026-04-06T10:54:14.001Z</time></trkpt><trkpt lat="38.30000839395103" lon="16.182746868596173"><ele>660.25</ele><time>2026-04-06T10:54:15.001Z</time></trkpt><trkpt lat="38.300120918618695" lon="16.18285141425757"><ele>661.5</ele><time>2026-04-06T10:54:16.001Z</time></trkpt><trkpt lat="38.300190906902344" lon="16.18294267403876"><ele>662.75</ele><time>2026-04-06T10:54:17.001Z</time></trkpt><trkpt lat="38.30022596180695" lon="16.18303471032877"><ele>664.0</ele><time>2026-04-06T10:54:18.001Z</time></trkpt><trkpt lat="38.30009491387889" lon="16.183234910436234"><ele>664.0</ele><time>2026-04-06T10:54:20.001Z</time></trkpt><trkpt lat="38.29999577539354" lon="16.183211973614743"><ele>664.0</ele><time>2026-04-06T10:54:21.001Z</time></trkpt><trkpt lat="38.29986075394932" lon="16.183150766967398"><ele>664.0</ele><time>2026-04-06T10:54:22.001Z</time></trkpt><trkpt lat="38.29969737799295" lon="16.18312128938684"><ele>664.0</ele><time>2026-04-06T10:54:23.001Z</time></trkpt><trkpt lat="38.29949772279261" lon="16.18313521245637"><ele>661.6666666666667</ele><time>2026-04-06T10:54:24.001Z</time></trkpt><trkpt lat="38.29932882518927" lon="16.18314883973032"><ele>659.3333333333334</ele><time>2026-04-06T10:54:25.001Z</time></trkpt><trkpt lat="38.29917029290618" lon="16.18318337647827"><ele>657.0</ele><time>2026-04-06T10:54:26.001Z</time></trkpt><trkpt lat="38.299006806745865" lon="16.18328535964867"><ele>655.3333333333334</ele><time>2026-04-06T10:54:27.001Z</time></trkpt><trkpt lat="38.298812421731974" lon="16.183431609004966"><ele>653.6666666666667</ele><time>2026-04-06T10:54:28.001Z</time></trkpt><trkpt lat="38.29865748081167" lon="16.183558001931434"><ele>652.0</ele><time>2026-04-06T10:54:29.001Z</time></trkpt><trkpt lat="38.298538538194556" lon="16.183645876714188"><ele>652.0</ele><time>2026-04-06T10:54:30.001Z</time></trkpt><trkpt lat="38.2984359577071" lon="16.183639637027213"><ele>652.0</ele><time>2026-04-06T10:54:31.001Z</time></trkpt><trkpt lat="38.298295519640426" lon="16.18357678032818"><ele>652.0</ele><time>2026-04-06T10:54:32.001Z</time></trkpt><trkpt lat="38.29814281198158" lon="16.183518357115044"><ele>652.0</ele><time>2026-04-06T10:54:33.001Z</time></trkpt><trkpt lat="38.298030867454024" lon="16.18348844387728"><ele>651.0</ele><time>2026-04-06T10:54:34Z</time></trkpt><trkpt lat="38.2979633911765" lon="16.183499299715915"><ele>650.0</ele><time>2026-04-06T10:54:35Z</time></trkpt><trkpt lat="38.29790762158423" lon="16.183552050885265"><ele>649.0</ele><time>2026-04-06T10:54:36Z</time></trkpt><trkpt lat="38.297827156717844" lon="16.183620880326085"><ele>648.0</ele><time>2026-04-06T10:54:37Z</time></trkpt><trkpt lat="38.29772268669418" lon="16.183770664022795"><ele>647.0</ele><time>2026-04-06T10:54:38Z</time></trkpt><trkpt lat="38.297569351542855" lon="16.183952261041775"><ele>645.5</ele><time>2026-04-06T10:54:39Z</time></trkpt><trkpt lat="38.297401980237375" lon="16.18412959830083"><ele>644.0</ele><time>2026-04-06T10:54:40Z</time></trkpt><trkpt lat="38.29722108956333" lon="16.18433144691422"><ele>641.3333333333333</ele><time>2026-04-06T10:54:41Z</time></trkpt><trkpt lat="38.297073174673216" lon="16.18449394700568"><ele>638.6666666666666</ele><time>2026-04-06T10:54:42Z</time></trkpt><trkpt lat="38.296950670272814" lon="16.184637901275295"><ele>636.0</ele><time>2026-04-06T10:54:43Z</time></trkpt><trkpt lat="38.296830772238025" lon="16.184776382574494"><ele>636.75</ele><time>2026-04-06T10:54:44Z</time></trkpt><trkpt lat="38.29672821838473" lon="16.1849016902265"><ele>637.5</ele><time>2026-04-06T10:54:45Z</time></trkpt><trkpt lat="38.296636651496236" lon="16.185041390598418"><ele>638.25</ele><time>2026-04-06T10:54:46Z</time></trkpt><trkpt lat="38.29658792673155" lon="16.185224211543773"><ele>639.0</ele><time>2026-04-06T10:54:47Z</time></trkpt><trkpt lat="38.29654790152766" lon="16.185449396393114"><ele>639.0</ele><time>2026-04-06T10:54:48Z</time></trkpt><trkpt lat="38.29656278741254" lon="16.185665049215118"><ele>639.0</ele><time>2026-04-06T10:54:49Z</time></trkpt><trkpt lat="38.29659223904053" lon="16.185936413125045"><ele>639.0</ele><time>2026-04-06T10:54:50Z</time></trkpt><trkpt lat="38.296649751207404" lon="16.186128405977342"><ele>637.0</ele><time>2026-04-06T10:54:51Z</time></trkpt><trkpt lat="38.29663631867861" lon="16.18632939975905"><ele>635.0</ele><time>2026-04-06T10:54:52Z</time></trkpt><trkpt lat="38.29659701470065" lon="16.186523582592624"><ele>633.0</ele><time>2026-04-06T10:54:53Z</time></trkpt><trkpt lat="38.29654876114383" lon="16.186688046338432"><ele>632.0</ele><time>2026-04-06T10:54:54Z</time></trkpt><trkpt lat="38.29648807191213" lon="16.18680388606047"><ele>631.0</ele><time>2026-04-06T10:54:55Z</time></trkpt><trkpt lat="38.29639131204802" lon="16.186917554731288"><ele>630.0</ele><time>2026-04-06T10:54:56Z</time></trkpt><trkpt lat="38.2962536228813" lon="16.187042062163457"><ele>629.0</ele><time>2026-04-06T10:54:57Z</time></trkpt><trkpt lat="38.296163816972715" lon="16.187207336258503"><ele>625.0</ele><time>2026-04-06T10:54:58Z</time></trkpt><trkpt lat="38.29611576654484" lon="16.187442821471908"><ele>621.0</ele><time>2026-04-06T10:54:59Z</time></trkpt><trkpt lat="38.29610327633513" lon="16.18771264581858"><ele>617.0</ele><time>2026-04-06T10:55:00Z</time></trkpt><trkpt lat="38.29610970223513" lon="16.187972989991113"><ele>616.75</ele><time>2026-04-06T10:55:01Z</time></trkpt><trkpt lat="38.2961402911384" lon="16.188187280688812"><ele>616.5</ele><time>2026-04-06T10:55:02Z</time></trkpt><trkpt lat="38.29616759999204" lon="16.188354058229187"><ele>616.25</ele><time>2026-04-06T10:55:03Z</time></trkpt><trkpt lat="38.29617250704024" lon="16.18849236878394"><ele>616.0</ele><time>2026-04-06T10:55:04Z</time></trkpt><trkpt lat="38.29615645889749" lon="16.188615741039133"><ele>616.0</ele><time>2026-04-06T10:55:05Z</time></trkpt><trkpt lat="38.29609927105685" lon="16.188700443573193"><ele>616.0</ele><time>2026-04-06T10:55:06Z</time></trkpt><trkpt lat="38.29600504977312" lon="16.188735699338746"><ele>616.0</ele><time>2026-04-06T10:55:07Z</time></trkpt><trkpt lat="38.295914065792495" lon="16.188731389550625"><ele>616.0</ele><time>2026-04-06T10:55:08Z</time></trkpt><trkpt lat="38.29582929899322" lon="16.188654038908613"><ele>616.0</ele><time>2026-04-06T10:55:09Z</time></trkpt><trkpt lat="38.29576282077098" lon="16.188519110528933"><ele>616.0</ele><time>2026-04-06T10:55:10Z</time></trkpt><trkpt lat="38.295730273978336" lon="16.188334394554666"><ele>616.0</ele><time>2026-04-06T10:55:11Z</time></trkpt><trkpt lat="38.295736726922506" lon="16.188109701828008"><ele>616.0</ele><time>2026-04-06T10:55:12Z</time></trkpt><trkpt lat="38.29575363009752" lon="16.187877732111215"><ele>616.25</ele><time>2026-04-06T10:55:13Z</time></trkpt><trkpt lat="38.29575254405058" lon="16.18768099540183"><ele>616.5</ele><time>2026-04-06T10:55:14Z</time></trkpt><trkpt lat="38.295724066851115" lon="16.18750910989522"><ele>616.75</ele><time>2026-04-06T10:55:15Z</time></trkpt><trkpt lat="38.29568069156643" lon="16.18734129541612"><ele>617.0</ele><time>2026-04-06T10:55:16Z</time></trkpt><trkpt lat="38.29564572144491" lon="16.187194546060393"><ele>618.2</ele><time>2026-04-06T10:55:17Z</time></trkpt><trkpt lat="38.29561724047026" lon="16.187087646975353"><ele>619.4000000000001</ele><time>2026-04-06T10:55:18Z</time></trkpt><trkpt lat="38.29555534745209" lon="16.18700364235363"><ele>620.5999999999999</ele><time>2026-04-06T10:55:19Z</time></trkpt><trkpt lat="38.29545696062893" lon="16.18698946081892"><ele>621.8</ele><time>2026-04-06T10:55:20Z</time></trkpt><trkpt lat="38.295339218771126" lon="16.18704537991273"><ele>623.0</ele><time>2026-04-06T10:55:21Z</time></trkpt><trkpt lat="38.295208167175836" lon="16.187177138137862"><ele>618.3333333333333</ele><time>2026-04-06T10:55:22Z</time></trkpt><trkpt lat="38.29507695949957" lon="16.187345211806182"><ele>613.6666666666666</ele><time>2026-04-06T10:55:23Z</time></trkpt><trkpt lat="38.29495843895611" lon="16.187488428560062"><ele>609.0</ele><time>2026-04-06T10:55:24Z</time></trkpt><trkpt lat="38.29482326653942" lon="16.18756318329278"><ele>610.3333333333334</ele><time>2026-04-06T10:55:25Z</time></trkpt><trkpt lat="38.294679799342404" lon="16.18761768824219"><ele>611.6666666666667</ele><time>2026-04-06T10:55:26Z</time></trkpt><trkpt lat="38.2944958272831" lon="16.187633520858547"><ele>613.0</ele><time>2026-04-06T10:55:27Z</time></trkpt><trkpt lat="38.29429791601708" lon="16.187701098865542"><ele>613.0</ele><time>2026-04-06T10:55:28Z</time></trkpt><trkpt lat="38.2941267473155" lon="16.187787903588294"><ele>613.0</ele><time>2026-04-06T10:55:29Z</time></trkpt><trkpt lat="38.29398561935471" lon="16.187886137727247"><ele>613.0</ele><time>2026-04-06T10:55:30Z</time></trkpt><trkpt lat="38.29383850786934" lon="16.18790495819078"><ele>610.0</ele><time>2026-04-06T10:55:31Z</time></trkpt><trkpt lat="38.293678692437716" lon="16.187898949610723"><ele>607.0</ele><time>2026-04-06T10:55:32Z</time></trkpt><trkpt lat="38.293478020341965" lon="16.187885004163437"><ele>604.0</ele><time>2026-04-06T10:55:33Z</time></trkpt><trkpt lat="38.29327835007044" lon="16.187892600967764"><ele>604.0</ele><time>2026-04-06T10:55:34Z</time></trkpt><trkpt lat="38.29311553940442" lon="16.187883205842358"><ele>604.0</ele><time>2026-04-06T10:55:35Z</time></trkpt><trkpt lat="38.29298830411002" lon="16.18787180308"><ele>604.0</ele><time>2026-04-06T10:55:36Z</time></trkpt><trkpt lat="38.29288234226244" lon="16.18788743500452"><ele>604.0</ele><time>2026-04-06T10:55:37Z</time></trkpt><trkpt lat="38.292776580178256" lon="16.187956278132035"><ele>599.3333333333334</ele><time>2026-04-06T10:55:38Z</time></trkpt><trkpt lat="38.29267126531384" lon="16.188100650258708"><ele>594.6666666666666</ele><time>2026-04-06T10:55:39Z</time></trkpt><trkpt lat="38.29258386506675" lon="16.188306980017547"><ele>590.0</ele><time>2026-04-06T10:55:40Z</time></trkpt><trkpt lat="38.29250231877834" lon="16.1884459240332"><ele>589.4</ele><time>2026-04-06T10:55:41Z</time></trkpt><trkpt lat="38.29243167911406" lon="16.188539957736435"><ele>588.8</ele><time>2026-04-06T10:55:42Z</time></trkpt><trkpt lat="38.292345737251715" lon="16.188556829847368"><ele>588.2</ele><time>2026-04-06T10:55:43Z</time></trkpt><trkpt lat="38.29225847236548" lon="16.188501635925203"><ele>587.6</ele><time>2026-04-06T10:55:44Z</time></trkpt><trkpt lat="38.29219073977773" lon="16.188379724044164"><ele>587.0</ele><time>2026-04-06T10:55:45Z</time></trkpt><trkpt lat="38.29216127809489" lon="16.188205195470754"><ele>582.5</ele><time>2026-04-06T10:55:46Z</time></trkpt><trkpt lat="38.292058793464605" lon="16.18794958775758"><ele>578.0</ele><time>2026-04-06T10:55:47Z</time></trkpt><trkpt lat="38.29196530172509" lon="16.187685177238432"><ele>578.0</ele><time>2026-04-06T10:55:48Z</time></trkpt><trkpt lat="38.29189051643332" lon="16.187475413689146"><ele>578.0</ele><time>2026-04-06T10:55:49Z</time></trkpt><trkpt lat="38.291831914468005" lon="16.18728835642056"><ele>578.0</ele><time>2026-04-06T10:55:50Z</time></trkpt><trkpt lat="38.291775002858955" lon="16.187144054413668"><ele>576.6666666666666</ele><time>2026-04-06T10:55:51.001Z</time></trkpt><trkpt lat="38.29172928653431" lon="16.187028973074536"><ele>575.3333333333333</ele><time>2026-04-06T10:55:52.001Z</time></trkpt><trkpt lat="38.29169265420312" lon="16.186939805670566"><ele>574.0</ele><time>2026-04-06T10:55:53.001Z</time></trkpt><trkpt lat="38.29163526300034" lon="16.186886054288955"><ele>572.6666666666666</ele><time>2026-04-06T10:55:54.001Z</time></trkpt><trkpt lat="38.29157103767286" lon="16.186924128872917"><ele>571.3333333333334</ele><time>2026-04-06T10:55:55.001Z</time></trkpt><trkpt lat="38.29152032246507" lon="16.187047575533118"><ele>570.0</ele><time>2026-04-06T10:55:56.001Z</time></trkpt><trkpt lat="38.2914671699898" lon="16.18723478281721"><ele>568.25</ele><time>2026-04-06T10:55:57.001Z</time></trkpt><trkpt lat="38.29139744616772" lon="16.18742923338441"><ele>566.5</ele><time>2026-04-06T10:55:58.001Z</time></trkpt><trkpt lat="38.29135315635394" lon="16.187597824202083"><ele>564.75</ele><time>2026-04-06T10:55:59.001Z</time></trkpt><trkpt lat="38.29136510350987" lon="16.18773859847126"><ele>563.0</ele><time>2026-04-06T10:56:00.001Z</time></trkpt><trkpt lat="38.291434732816604" lon="16.18788772259848"><ele>565.5</ele><time>2026-04-06T10:56:01.001Z</time></trkpt><trkpt lat="38.291540863364155" lon="16.18802115216899"><ele>568.0</ele><time>2026-04-06T10:56:02.001Z</time></trkpt><trkpt lat="38.291588945873" lon="16.18817028046561"><ele>570.5</ele><time>2026-04-06T10:56:03.001Z</time></trkpt><trkpt lat="38.29159877489476" lon="16.188327280589988"><ele>573.0</ele><time>2026-04-06T10:56:04.001Z</time></trkpt><trkpt lat="38.29153462825522" lon="16.188475602636828"><ele>569.75</ele><time>2026-04-06T10:56:05.001Z</time></trkpt><trkpt lat="38.29141665300833" lon="16.18854584772265"><ele>566.5</ele><time>2026-04-06T10:56:06.001Z</time></trkpt><trkpt lat="38.2913167102835" lon="16.188657077050625"><ele>563.25</ele><time>2026-04-06T10:56:07.001Z</time></trkpt><trkpt lat="38.29122343918158" lon="16.188771645424207"><ele>560.0</ele><time>2026-04-06T10:56:08.001Z</time></trkpt><trkpt lat="38.29120633608669" lon="16.188949234602365"><ele>562.3333333333333</ele><time>2026-04-06T10:56:09.001Z</time></trkpt><trkpt lat="38.291257493351495" lon="16.189131081640973"><ele>564.6666666666666</ele><time>2026-04-06T10:56:10.001Z</time></trkpt><trkpt lat="38.29134053451122" lon="16.189310335724276"><ele>567.0</ele><time>2026-04-06T10:56:11.001Z</time></trkpt><trkpt lat="38.2914454598346" lon="16.189504072158492"><ele>567.0</ele><time>2026-04-06T10:56:12.001Z</time></trkpt><trkpt lat="38.29149479056929" lon="16.189691639621483"><ele>567.0</ele><time>2026-04-06T10:56:13.001Z</time></trkpt><trkpt lat="38.29153716173374" lon="16.189874114480574"><ele>567.0</ele><time>2026-04-06T10:56:14.001Z</time></trkpt><trkpt lat="38.29154662110383" lon="16.190063527822264"><ele>564.3333333333334</ele><time>2026-04-06T10:56:15.001Z</time></trkpt><trkpt lat="38.29154537689574" lon="16.190282855902634"><ele>561.6666666666667</ele><time>2026-04-06T10:56:16.001Z</time></trkpt><trkpt lat="38.291548916603496" lon="16.190493553763343"><ele>559.0</ele><time>2026-04-06T10:56:17.001Z</time></trkpt><trkpt lat="38.291511942886665" lon="16.190680557341526"><ele>554.6666666666667</ele><time>2026-04-06T10:56:18.001Z</time></trkpt><trkpt lat="38.291422250039055" lon="16.190843155532352"><ele>550.3333333333334</ele><time>2026-04-06T10:56:19.001Z</time></trkpt><trkpt lat="38.29131521717102" lon="16.191007277850673"><ele>546.0</ele><time>2026-04-06T10:56:20.001Z</time></trkpt><trkpt lat="38.2911794135247" lon="16.191166700636256"><ele>546.0</ele><time>2026-04-06T10:56:21.001Z</time></trkpt><trkpt lat="38.29102873182997" lon="16.191347456457727"><ele>546.0</ele><time>2026-04-06T10:56:22.001Z</time></trkpt><trkpt lat="38.29085629332173" lon="16.191521174989237"><ele>546.0</ele><time>2026-04-06T10:56:23.001Z</time></trkpt><trkpt lat="38.2906870409791" lon="16.19168894502939"><ele>541.6666666666666</ele><time>2026-04-06T10:56:24.001Z</time></trkpt><trkpt lat="38.2905337543911" lon="16.191849099882177"><ele>537.3333333333333</ele><time>2026-04-06T10:56:25.001Z</time></trkpt><trkpt lat="38.290388438087064" lon="16.192033157933853"><ele>533.0</ele><time>2026-04-06T10:56:26.001Z</time></trkpt><trkpt lat="38.29025492601901" lon="16.192271842027413"><ele>537.0</ele><time>2026-04-06T10:56:27.001Z</time></trkpt><trkpt lat="38.2901198765065" lon="16.192520940589862"><ele>541.0</ele><time>2026-04-06T10:56:28.001Z</time></trkpt><trkpt lat="38.28999994767983" lon="16.192751847880086"><ele>541.0</ele><time>2026-04-06T10:56:29.001Z</time></trkpt><trkpt lat="38.28989444780643" lon="16.19295387031279"><ele>541.0</ele><time>2026-04-06T10:56:30.001Z</time></trkpt><trkpt lat="38.28980945499332" lon="16.193142410528168"><ele>541.0</ele><time>2026-04-06T10:56:31.001Z</time></trkpt><trkpt lat="38.28974339332931" lon="16.193317482205096"><ele>538.25</ele><time>2026-04-06T10:56:32.001Z</time></trkpt><trkpt lat="38.28963961270177" lon="16.19345144926936"><ele>535.5</ele><time>2026-04-06T10:56:33.001Z</time></trkpt><trkpt lat="38.28954120608997" lon="16.193507889937656"><ele>532.75</ele><time>2026-04-06T10:56:34.001Z</time></trkpt><trkpt lat="38.28937682779986" lon="16.193603799208166"><ele>530.0</ele><time>2026-04-06T10:56:35.001Z</time></trkpt><trkpt lat="38.289175332500655" lon="16.1937275749185"><ele>530.0</ele><time>2026-04-06T10:56:36.001Z</time></trkpt><trkpt lat="38.28901064851241" lon="16.193822261613384"><ele>530.0</ele><time>2026-04-06T10:56:37.001Z</time></trkpt><trkpt lat="38.288874746145304" lon="16.19389460246278"><ele>530.0</ele><time>2026-04-06T10:56:38.001Z</time></trkpt><trkpt lat="38.28877564240771" lon="16.19395461244368"><ele>530.0</ele><time>2026-04-06T10:56:39.001Z</time></trkpt><trkpt lat="38.28871488816907" lon="16.194023547529643"><ele>525.5</ele><time>2026-04-06T10:56:39.999Z</time></trkpt><trkpt lat="38.28867848985712" lon="16.194156539426167"><ele>521.0</ele><time>2026-04-06T10:56:40.999Z</time></trkpt><trkpt lat="38.28866703206501" lon="16.19435460614015"><ele>516.5</ele><time>2026-04-06T10:56:41.999Z</time></trkpt><trkpt lat="38.28866601427111" lon="16.194534892186745"><ele>512.0</ele><time>2026-04-06T10:56:42.999Z</time></trkpt><trkpt lat="38.28860486663955" lon="16.194673024405656"><ele>512.0</ele><time>2026-04-06T10:56:43.999Z</time></trkpt><trkpt lat="38.288513628866326" lon="16.194786446440087"><ele>512.0</ele><time>2026-04-06T10:56:44.999Z</time></trkpt><trkpt lat="38.28838500426724" lon="16.194888947299408"><ele>512.0</ele><time>2026-04-06T10:56:45.999Z</time></trkpt><trkpt lat="38.2882356268111" lon="16.19498826486575"><ele>512.0</ele><time>2026-04-06T10:56:46.999Z</time></trkpt><trkpt lat="38.2880594276903" lon="16.19503859959274"><ele>512.0</ele><time>2026-04-06T10:56:47.999Z</time></trkpt><trkpt lat="38.2879021419573" lon="16.195083088939285"><ele>512.0</ele><time>2026-04-06T10:56:48.999Z</time></trkpt><trkpt lat="38.28778988986403" lon="16.195151022110476"><ele>512.0</ele><time>2026-04-06T10:56:49.999Z</time></trkpt><trkpt lat="38.287693362661265" lon="16.195269179896922"><ele>512.0</ele><time>2026-04-06T10:56:50.999Z</time></trkpt><trkpt lat="38.287614495289134" lon="16.19544383849956"><ele>512.0</ele><time>2026-04-06T10:56:51.999Z</time></trkpt><trkpt lat="38.2875364263147" lon="16.195632338521932"><ele>512.0</ele><time>2026-04-06T10:56:52.999Z</time></trkpt><trkpt lat="38.28747111819349" lon="16.19577615510868"><ele>512.0</ele><time>2026-04-06T10:56:53.999Z</time></trkpt><trkpt lat="38.28740667159994" lon="16.19586883803113"><ele>512.0</ele><time>2026-04-06T10:56:54.999Z</time></trkpt><trkpt lat="38.287329039588776" lon="16.19591266749591"><ele>515.0</ele><time>2026-04-06T10:56:55.999Z</time></trkpt><trkpt lat="38.287242778744336" lon="16.195878785641046"><ele>518.0</ele><time>2026-04-06T10:56:56.999Z</time></trkpt><trkpt lat="38.28717230342291" lon="16.195764346537675"><ele>521.0</ele><time>2026-04-06T10:56:57.999Z</time></trkpt><trkpt lat="38.287098927020416" lon="16.195694145213626"><ele>524.0</ele><time>2026-04-06T10:56:58.999Z</time></trkpt><trkpt lat="38.28703575069811" lon="16.195688166294346"><ele>527.0</ele><time>2026-04-06T10:56:59.999Z</time></trkpt><trkpt lat="38.28696853034802" lon="16.1957466647641"><ele>530.0</ele><time>2026-04-06T10:57:00.999Z</time></trkpt><trkpt lat="38.28691263968906" lon="16.195862744939195"><ele>530.0</ele><time>2026-04-06T10:57:01.999Z</time></trkpt><trkpt lat="38.286872273900585" lon="16.19595944062857"><ele>530.0</ele><time>2026-04-06T10:57:03Z</time></trkpt><trkpt lat="38.28680025581647" lon="16.195969224896523"><ele>530.0</ele><time>2026-04-06T10:57:04Z</time></trkpt><trkpt lat="38.286724071581155" lon="16.19590501974153"><ele>530.0</ele><time>2026-04-06T10:57:05Z</time></trkpt><trkpt lat="38.286691739105386" lon="16.195754351593536"><ele>530.0</ele><time>2026-04-06T10:57:06Z</time></trkpt><trkpt lat="38.28661431340148" lon="16.195591492972888"><ele>530.6</ele><time>2026-04-06T10:57:07Z</time></trkpt><trkpt lat="38.28652491961759" lon="16.19548430963514"><ele>531.2</ele><time>2026-04-06T10:57:08Z</time></trkpt><trkpt lat="38.286448984341924" lon="16.195427527505167"><ele>531.8</ele><time>2026-04-06T10:57:09Z</time></trkpt><trkpt lat="38.2863416213889" lon="16.1953869243207"><ele>532.4</ele><time>2026-04-06T10:57:10Z</time></trkpt><trkpt lat="38.2862638133036" lon="16.19530477373172"><ele>533.0</ele><time>2026-04-06T10:57:11Z</time></trkpt><trkpt lat="38.2862561386306" lon="16.195154324529803"><ele>533.0</ele><time>2026-04-06T10:57:12Z</time></trkpt><trkpt lat="38.286200458289095" lon="16.194979834605842"><ele>533.0</ele><time>2026-04-06T10:57:13Z</time></trkpt><trkpt lat="38.28612647831848" lon="16.19480213512789"><ele>533.0</ele><time>2026-04-06T10:57:14Z</time></trkpt><trkpt lat="38.28606591245919" lon="16.194657677778697"><ele>533.0</ele><time>2026-04-06T10:57:15Z</time></trkpt><trkpt lat="38.28599828533902" lon="16.1945282677161"><ele>528.6</ele><time>2026-04-06T10:57:16Z</time></trkpt><trkpt lat="38.28592605440284" lon="16.194428492021665"><ele>524.1999999999999</ele><time>2026-04-06T10:57:17Z</time></trkpt><trkpt lat="38.28583637915884" lon="16.194379021763122"><ele>519.8</ele><time>2026-04-06T10:57:18Z</time></trkpt><trkpt lat="38.285734882925944" lon="16.19438293294801"><ele>515.4</ele><time>2026-04-06T10:57:19Z</time></trkpt><trkpt lat="38.28562017230778" lon="16.19445573570034"><ele>511.0</ele><time>2026-04-06T10:57:20Z</time></trkpt><trkpt lat="38.285501369371545" lon="16.194506135310906"><ele>511.0</ele><time>2026-04-06T10:57:21Z</time></trkpt><trkpt lat="38.28540750208599" lon="16.194494989901077"><ele>511.0</ele><time>2026-04-06T10:57:22Z</time></trkpt><trkpt lat="38.285351966440544" lon="16.194403487319196"><ele>511.0</ele><time>2026-04-06T10:57:23Z</time></trkpt><trkpt lat="38.28534117515646" lon="16.194258844418435"><ele>511.0</ele><time>2026-04-06T10:57:24Z</time></trkpt><trkpt lat="38.28527895758316" lon="16.194103680199152"><ele>511.0</ele><time>2026-04-06T10:57:25Z</time></trkpt><trkpt lat="38.28520171617197" lon="16.19397408461206"><ele>501.0</ele><time>2026-04-06T10:57:26Z</time></trkpt><trkpt lat="38.28516266262118" lon="16.193868050038425"><ele>491.0</ele><time>2026-04-06T10:57:27Z</time></trkpt><trkpt lat="38.28507253904422" lon="16.193827305189743"><ele>481.0</ele><time>2026-04-06T10:57:28Z</time></trkpt><trkpt lat="38.28494926497327" lon="16.19380254962542"><ele>471.0</ele><time>2026-04-06T10:57:29Z</time></trkpt><trkpt lat="38.284783510101015" lon="16.193833080994352"><ele>471.5</ele><time>2026-04-06T10:57:30Z</time></trkpt><trkpt lat="38.28464650804578" lon="16.193816084978707"><ele>472.0</ele><time>2026-04-06T10:57:31Z</time></trkpt><trkpt lat="38.28453163512278" lon="16.193838455676566"><ele>472.5</ele><time>2026-04-06T10:57:32Z</time></trkpt><trkpt lat="38.28439886470449" lon="16.193918843394595"><ele>473.0</ele><time>2026-04-06T10:57:33Z</time></trkpt><trkpt lat="38.284243952899715" lon="16.194049207990886"><ele>481.25</ele><time>2026-04-06T10:57:34Z</time></trkpt><trkpt lat="38.28411437119646" lon="16.194155629766637"><ele>489.5</ele><time>2026-04-06T10:57:35Z</time></trkpt><trkpt lat="38.2839881238142" lon="16.19419170828253"><ele>497.75</ele><time>2026-04-06T10:57:36Z</time></trkpt><trkpt lat="38.28387824301096" lon="16.19417409128016"><ele>506.0</ele><time>2026-04-06T10:57:37Z</time></trkpt><trkpt lat="38.283783050248765" lon="16.194085557402282"><ele>502.8</ele><time>2026-04-06T10:57:38Z</time></trkpt><trkpt lat="38.283692503565774" lon="16.193994483700855"><ele>499.6</ele><time>2026-04-06T10:57:39Z</time></trkpt><trkpt lat="38.28364658360641" lon="16.193903120140828"><ele>496.4</ele><time>2026-04-06T10:57:40Z</time></trkpt><trkpt lat="38.28368496097186" lon="16.193790581944"><ele>493.2</ele><time>2026-04-06T10:57:41Z</time></trkpt><trkpt lat="38.28371396577784" lon="16.19362370785594"><ele>490.0</ele><time>2026-04-06T10:57:42Z</time></trkpt><trkpt lat="38.283712036213174" lon="16.193459057752385"><ele>490.0</ele><time>2026-04-06T10:57:43Z</time></trkpt><trkpt lat="38.283687812120355" lon="16.19333417977102"><ele>490.0</ele><time>2026-04-06T10:57:44Z</time></trkpt><trkpt lat="38.28361170665084" lon="16.193254707582355"><ele>490.0</ele><time>2026-04-06T10:57:45Z</time></trkpt><trkpt lat="38.28345432565254" lon="16.19317070288113"><ele>490.0</ele><time>2026-04-06T10:57:46Z</time></trkpt><trkpt lat="38.28332245964999" lon="16.19303713042635"><ele>484.5</ele><time>2026-04-06T10:57:47Z</time></trkpt><trkpt lat="38.28324239557999" lon="16.192885966653044"><ele>479.0</ele><time>2026-04-06T10:57:48Z</time></trkpt><trkpt lat="38.283150180770186" lon="16.192771151246355"><ele>473.5</ele><time>2026-04-06T10:57:49Z</time></trkpt><trkpt lat="38.28306435523331" lon="16.192694659648065"><ele>468.0</ele><time>2026-04-06T10:57:50Z</time></trkpt><trkpt lat="38.2829475980859" lon="16.192687081394816"><ele>468.0</ele><time>2026-04-06T10:57:51Z</time></trkpt><trkpt lat="38.28281655320904" lon="16.192722762965772"><ele>468.0</ele><time>2026-04-06T10:57:52Z</time></trkpt><trkpt lat="38.282699616375396" lon="16.192781178307378"><ele>468.0</ele><time>2026-04-06T10:57:53Z</time></trkpt><trkpt lat="38.28258283538967" lon="16.192822079504882"><ele>468.0</ele><time>2026-04-06T10:57:54Z</time></trkpt><trkpt lat="38.2824805253477" lon="16.192855640949823"><ele>468.0</ele><time>2026-04-06T10:57:55.001Z</time></trkpt><trkpt lat="38.28239153471915" lon="16.19291504799398"><ele>467.99999999999994</ele><time>2026-04-06T10:57:56.001Z</time></trkpt><trkpt lat="38.28230752883574" lon="16.192951551922594"><ele>467.99999999999994</ele><time>2026-04-06T10:57:57.001Z</time></trkpt><trkpt lat="38.282230843835585" lon="16.193014338574493"><ele>468.0</ele><time>2026-04-06T10:57:58.001Z</time></trkpt><trkpt lat="38.28215848348772" lon="16.19309285751607"><ele>468.0</ele><time>2026-04-06T10:57:59.001Z</time></trkpt><trkpt lat="38.28212316379972" lon="16.193226002918102"><ele>466.33333333333337</ele><time>2026-04-06T10:58:00.001Z</time></trkpt><trkpt lat="38.28209062321617" lon="16.193406561369184"><ele>464.6666666666667</ele><time>2026-04-06T10:58:01.001Z</time></trkpt><trkpt lat="38.28204984834679" lon="16.193623105484225"><ele>463.0</ele><time>2026-04-06T10:58:02.001Z</time></trkpt><trkpt lat="38.28202454327327" lon="16.193872990864673"><ele>465.0</ele><time>2026-04-06T10:58:03.001Z</time></trkpt><trkpt lat="38.28195389482323" lon="16.194098254670934"><ele>467.0</ele><time>2026-04-06T10:58:04.001Z</time></trkpt><trkpt lat="38.28188442644062" lon="16.194305924267983"><ele>469.0</ele><time>2026-04-06T10:58:05.001Z</time></trkpt><trkpt lat="38.281803552279904" lon="16.194464952131877"><ele>469.0</ele><time>2026-04-06T10:58:06.001Z</time></trkpt><trkpt lat="38.2816943393241" lon="16.194596297667395"><ele>469.0</ele><time>2026-04-06T10:58:07.001Z</time></trkpt><trkpt lat="38.28155545008886" lon="16.194709682720354"><ele>469.0</ele><time>2026-04-06T10:58:08.001Z</time></trkpt><trkpt lat="38.281401518031394" lon="16.19482958223657"><ele>466.5</ele><time>2026-04-06T10:58:09.001Z</time></trkpt><trkpt lat="38.281265646987194" lon="16.194931543104058"><ele>464.0</ele><time>2026-04-06T10:58:10.001Z</time></trkpt><trkpt lat="38.28115428585093" lon="16.19501861289982"><ele>461.5</ele><time>2026-04-06T10:58:11.001Z</time></trkpt><trkpt lat="38.28106670933786" lon="16.195084088844304"><ele>459.0</ele><time>2026-04-06T10:58:12.001Z</time></trkpt><trkpt lat="38.28099890287661" lon="16.19515291890364"><ele>459.0</ele><time>2026-04-06T10:58:13.001Z</time></trkpt><trkpt lat="38.280983203294724" lon="16.19525072591976"><ele>459.0</ele><time>2026-04-06T10:58:14.001Z</time></trkpt><trkpt lat="38.28098209455603" lon="16.19534424640729"><ele>459.0</ele><time>2026-04-06T10:58:15.001Z</time></trkpt><trkpt lat="38.281027342541975" lon="16.19543491558355"><ele>459.0</ele><time>2026-04-06T10:58:16.001Z</time></trkpt><trkpt lat="38.28118390538251" lon="16.195385116586507"><ele>459.0</ele><time>2026-04-06T10:58:17.001Z</time></trkpt><trkpt lat="38.281293763817594" lon="16.19534835127091"><ele>459.0</ele><time>2026-04-06T10:58:18.001Z</time></trkpt><trkpt lat="38.28139677832035" lon="16.195342250533862"><ele>459.0</ele><time>2026-04-06T10:58:19.001Z</time></trkpt><trkpt lat="38.28147686172824" lon="16.195382632754665"><ele>459.0</ele><time>2026-04-06T10:58:20.001Z</time></trkpt><trkpt lat="38.281530353596224" lon="16.195464821169452"><ele>459.0</ele><time>2026-04-06T10:58:21.001Z</time></trkpt><trkpt lat="38.28151311325423" lon="16.19559425812684"><ele>459.0</ele><time>2026-04-06T10:58:22.001Z</time></trkpt><trkpt lat="38.28151311756974" lon="16.195773329683774"><ele>461.5</ele><time>2026-04-06T10:58:23.001Z</time></trkpt><trkpt lat="38.28149738672683" lon="16.195976788795626"><ele>464.0</ele><time>2026-04-06T10:58:24.001Z</time></trkpt><trkpt lat="38.28149175010281" lon="16.196147149384686"><ele>466.5</ele><time>2026-04-06T10:58:25.001Z</time></trkpt><trkpt lat="38.28145198925567" lon="16.196260900569357"><ele>469.0</ele><time>2026-04-06T10:58:26.001Z</time></trkpt><trkpt lat="38.28137748949699" lon="16.196331250087255"><ele>463.4</ele><time>2026-04-06T10:58:27.001Z</time></trkpt><trkpt lat="38.28128224478706" lon="16.196404531662186"><ele>457.79999999999995</ele><time>2026-04-06T10:58:28.001Z</time></trkpt><trkpt lat="38.28120461481782" lon="16.196492215664144"><ele>452.20000000000005</ele><time>2026-04-06T10:58:29.001Z</time></trkpt><trkpt lat="38.2811914949329" lon="16.196617813752802"><ele>446.6</ele><time>2026-04-06T10:58:30.001Z</time></trkpt><trkpt lat="38.28123520719211" lon="16.196742737243916"><ele>441.0</ele><time>2026-04-06T10:58:31.001Z</time></trkpt><trkpt lat="38.28134746493458" lon="16.196858411470203"><ele>445.0</ele><time>2026-04-06T10:58:32.001Z</time></trkpt><trkpt lat="38.281471874655445" lon="16.196965511521125"><ele>449.0</ele><time>2026-04-06T10:58:33.001Z</time></trkpt><trkpt lat="38.281579573701826" lon="16.197034219488614"><ele>453.0</ele><time>2026-04-06T10:58:34.001Z</time></trkpt><trkpt lat="38.281649670323645" lon="16.197085055613446"><ele>457.0</ele><time>2026-04-06T10:58:35.001Z</time></trkpt><trkpt lat="38.28167196592635" lon="16.1971713479483"><ele>461.0</ele><time>2026-04-06T10:58:36.001Z</time></trkpt><trkpt lat="38.281645452680365" lon="16.19724831639063"><ele>461.0</ele><time>2026-04-06T10:58:37.001Z</time></trkpt><trkpt lat="38.281555945324605" lon="16.19727741149537"><ele>461.0</ele><time>2026-04-06T10:58:38.001Z</time></trkpt><trkpt lat="38.28142692165165" lon="16.197355467514686"><ele>461.0</ele><time>2026-04-06T10:58:39.001Z</time></trkpt><trkpt lat="38.281306818556054" lon="16.197438024366406"><ele>461.0</ele><time>2026-04-06T10:58:40.001Z</time></trkpt><trkpt lat="38.28124014081794" lon="16.197543545845107"><ele>449.25</ele><time>2026-04-06T10:58:41.001Z</time></trkpt><trkpt lat="38.28119427470007" lon="16.19765823171308"><ele>437.5</ele><time>2026-04-06T10:58:42.001Z</time></trkpt><trkpt lat="38.28122906432818" lon="16.197832698983863"><ele>425.75</ele><time>2026-04-06T10:58:43.001Z</time></trkpt><trkpt lat="38.28126210254792" lon="16.198022499026056"><ele>414.0</ele><time>2026-04-06T10:58:44.001Z</time></trkpt><trkpt lat="38.281329139576705" lon="16.198218133108675"><ele>412.2</ele><time>2026-04-06T10:58:45.001Z</time></trkpt><trkpt lat="38.28140610469174" lon="16.198380529120616"><ele>410.4</ele><time>2026-04-06T10:58:45.999Z</time></trkpt><trkpt lat="38.28147732546141" lon="16.198503124674257"><ele>408.6</ele><time>2026-04-06T10:58:46.999Z</time></trkpt><trkpt lat="38.28153897525064" lon="16.19859851671769"><ele>406.8</ele><time>2026-04-06T10:58:47.999Z</time></trkpt><trkpt lat="38.28160016236336" lon="16.198648478249112"><ele>405.0</ele><time>2026-04-06T10:58:48.999Z</time></trkpt><trkpt lat="38.2817850577436" lon="16.199086290777874"><ele>409.75</ele><time>2026-04-06T10:58:50.999Z</time></trkpt><trkpt lat="38.28184603569935" lon="16.199243402091874"><ele>414.5</ele><time>2026-04-06T10:58:51.999Z</time></trkpt><trkpt lat="38.281935921047285" lon="16.199347079768838"><ele>419.25</ele><time>2026-04-06T10:58:52.999Z</time></trkpt><trkpt lat="38.28200566081592" lon="16.199435484456234"><ele>424.0</ele><time>2026-04-06T10:58:54.999Z</time></trkpt><trkpt lat="38.28209232891472" lon="16.199353232023856"><ele>424.0</ele><time>2026-04-06T10:58:56Z</time></trkpt><trkpt lat="38.282173032070226" lon="16.199281391974285"><ele>424.0</ele><time>2026-04-06T10:58:57Z</time></trkpt><trkpt lat="38.282267903646996" lon="16.199210464453568"><ele>424.0</ele><time>2026-04-06T10:58:58Z</time></trkpt><trkpt lat="38.28243587651868" lon="16.199007253542653"><ele>424.0</ele><time>2026-04-06T10:58:59Z</time></trkpt><trkpt lat="38.282508205590524" lon="16.19897643418032"><ele>428.2</ele><time>2026-04-06T10:59:00Z</time></trkpt><trkpt lat="38.282595834927754" lon="16.199015895324603"><ele>432.4</ele><time>2026-04-06T10:59:01Z</time></trkpt><trkpt lat="38.282644478980345" lon="16.199100742654366"><ele>436.6</ele><time>2026-04-06T10:59:02Z</time></trkpt><trkpt lat="38.28262749615962" lon="16.199242118709424"><ele>440.8</ele><time>2026-04-06T10:59:03Z</time></trkpt><trkpt lat="38.28256409967055" lon="16.199358744044243"><ele>445.0</ele><time>2026-04-06T10:59:04Z</time></trkpt><trkpt lat="38.282484456058945" lon="16.199505056346197"><ele>445.0</ele><time>2026-04-06T10:59:05Z</time></trkpt><trkpt lat="38.28238768840133" lon="16.19967638747831"><ele>445.0</ele><time>2026-04-06T10:59:06Z</time></trkpt><trkpt lat="38.282353560428874" lon="16.19991115140285"><ele>445.0</ele><time>2026-04-06T10:59:07Z</time></trkpt><trkpt lat="38.28232467808066" lon="16.20011733721358"><ele>443.0</ele><time>2026-04-06T10:59:08Z</time></trkpt><trkpt lat="38.28232138307058" lon="16.200301267249355"><ele>441.0</ele><time>2026-04-06T10:59:09Z</time></trkpt><trkpt lat="38.282334549952566" lon="16.200449092126362"><ele>439.0</ele><time>2026-04-06T10:59:10Z</time></trkpt><trkpt lat="38.28232114023393" lon="16.20055816744375"><ele>437.0</ele><time>2026-04-06T10:59:11Z</time></trkpt><trkpt lat="38.28223671506414" lon="16.200600031629875"><ele>435.0</ele><time>2026-04-06T10:59:12Z</time></trkpt><trkpt lat="38.282135219533465" lon="16.200552129766514"><ele>428.0</ele><time>2026-04-06T10:59:13Z</time></trkpt><trkpt lat="38.281956842797136" lon="16.20047004326256"><ele>421.0</ele><time>2026-04-06T10:59:14Z</time></trkpt><trkpt lat="38.28180619421191" lon="16.20042699069882"><ele>414.0</ele><time>2026-04-06T10:59:15Z</time></trkpt><trkpt lat="38.281711299460035" lon="16.200410223241537"><ele>407.0</ele><time>2026-04-06T10:59:16Z</time></trkpt><trkpt lat="38.28160379784994" lon="16.200415598941976"><ele>407.0</ele><time>2026-04-06T10:59:17Z</time></trkpt><trkpt lat="38.28152496939893" lon="16.200495334533468"><ele>407.0</ele><time>2026-04-06T10:59:18Z</time></trkpt><trkpt lat="38.28146857047341" lon="16.20061535813555"><ele>407.0</ele><time>2026-04-06T10:59:19Z</time></trkpt><trkpt lat="38.28142802096823" lon="16.20080143293571"><ele>407.0</ele><time>2026-04-06T10:59:20Z</time></trkpt><trkpt lat="38.28140772133661" lon="16.201022720857335"><ele>395.5</ele><time>2026-04-06T10:59:21Z</time></trkpt><trkpt lat="38.281397217513444" lon="16.201325837019112"><ele>384.0</ele><time>2026-04-06T10:59:22Z</time></trkpt><trkpt lat="38.28138041851312" lon="16.20161043499338"><ele>384.0</ele><time>2026-04-06T10:59:23Z</time></trkpt><trkpt lat="38.28138323805321" lon="16.201870206038528"><ele>384.0</ele><time>2026-04-06T10:59:24Z</time></trkpt><trkpt lat="38.281381351897465" lon="16.202109705283164"><ele>384.0</ele><time>2026-04-06T10:59:25Z</time></trkpt><trkpt lat="38.28141538921378" lon="16.20233349890734"><ele>392.75</ele><time>2026-04-06T10:59:26Z</time></trkpt><trkpt lat="38.28145737021372" lon="16.202535163093334"><ele>401.5</ele><time>2026-04-06T10:59:27Z</time></trkpt><trkpt lat="38.28151914607819" lon="16.202699949161754"><ele>410.25</ele><time>2026-04-06T10:59:28Z</time></trkpt><trkpt lat="38.2815549469734" lon="16.20285532911499"><ele>419.0</ele><time>2026-04-06T10:59:29Z</time></trkpt><trkpt lat="38.28149493426951" lon="16.203013835214747"><ele>419.0</ele><time>2026-04-06T10:59:30Z</time></trkpt><trkpt lat="38.281513620134774" lon="16.203159006769486"><ele>419.0</ele><time>2026-04-06T10:59:31Z</time></trkpt><trkpt lat="38.28152561198585" lon="16.203326502486483"><ele>419.0</ele><time>2026-04-06T10:59:32Z</time></trkpt><trkpt lat="38.28159793026448" lon="16.203496428697886"><ele>419.0</ele><time>2026-04-06T10:59:33Z</time></trkpt><trkpt lat="38.281672658540415" lon="16.203652245539445"><ele>416.0</ele><time>2026-04-06T10:59:34Z</time></trkpt><trkpt lat="38.281769830389266" lon="16.20372685705093"><ele>413.0</ele><time>2026-04-06T10:59:35Z</time></trkpt><trkpt lat="38.281874873925204" lon="16.20374185142621"><ele>410.0</ele><time>2026-04-06T10:59:36Z</time></trkpt><trkpt lat="38.281961620259715" lon="16.203721452677797"><ele>407.0</ele><time>2026-04-06T10:59:37Z</time></trkpt><trkpt lat="38.282040281475034" lon="16.203725504836843"><ele>404.0</ele><time>2026-04-06T10:59:38Z</time></trkpt><trkpt lat="38.282022942536706" lon="16.203851487213438"><ele>404.0</ele><time>2026-04-06T10:59:40Z</time></trkpt><trkpt lat="38.281926581730694" lon="16.20388015319247"><ele>404.0</ele><time>2026-04-06T10:59:41Z</time></trkpt><trkpt lat="38.28180941757175" lon="16.203831134390764"><ele>404.0</ele><time>2026-04-06T10:59:42Z</time></trkpt><trkpt lat="38.28162324877598" lon="16.20379043570205"><ele>404.0</ele><time>2026-04-06T10:59:43Z</time></trkpt><trkpt lat="38.28150163254535" lon="16.20372589654373"><ele>396.66666666666663</ele><time>2026-04-06T10:59:44Z</time></trkpt><trkpt lat="38.28134899599155" lon="16.20357154550816"><ele>389.3333333333333</ele><time>2026-04-06T10:59:45Z</time></trkpt><trkpt lat="38.281200335360204" lon="16.20346755215509"><ele>382.0</ele><time>2026-04-06T10:59:46.001Z</time></trkpt><trkpt lat="38.28107789910916" lon="16.20337800511573"><ele>382.0</ele><time>2026-04-06T10:59:47.001Z</time></trkpt><trkpt lat="38.28099501405662" lon="16.203264307056692"><ele>382.0</ele><time>2026-04-06T10:59:48.001Z</time></trkpt><trkpt lat="38.28098648412046" lon="16.203146399853125"><ele>382.0</ele><time>2026-04-06T10:59:49.001Z</time></trkpt><trkpt lat="38.28096596514626" lon="16.20296604589375"><ele>382.0</ele><time>2026-04-06T10:59:50.001Z</time></trkpt><trkpt lat="38.280943197535066" lon="16.202737244407054"><ele>382.5</ele><time>2026-04-06T10:59:51.001Z</time></trkpt><trkpt lat="38.28096106775194" lon="16.202526964054364"><ele>383.0</ele><time>2026-04-06T10:59:52.001Z</time></trkpt><trkpt lat="38.281000938282496" lon="16.20237242804259"><ele>383.5</ele><time>2026-04-06T10:59:53.001Z</time></trkpt><trkpt lat="38.28103479781762" lon="16.202289639714802"><ele>384.0</ele><time>2026-04-06T10:59:54.001Z</time></trkpt><trkpt lat="38.28096635991926" lon="16.202174997461423"><ele>384.0</ele><time>2026-04-06T10:59:56.001Z</time></trkpt><trkpt lat="38.28084627652007" lon="16.202209919709723"><ele>384.0</ele><time>2026-04-06T10:59:57.001Z</time></trkpt><trkpt lat="38.280799470793085" lon="16.202364638725875"><ele>384.0</ele><time>2026-04-06T10:59:58.001Z</time></trkpt><trkpt lat="38.280772027797454" lon="16.20255375553915"><ele>384.0</ele><time>2026-04-06T10:59:59.001Z</time></trkpt><trkpt lat="38.28072154004978" lon="16.20280182693389"><ele>384.0</ele><time>2026-04-06T11:00:00.001Z</time></trkpt><trkpt lat="38.28066129650283" lon="16.203043973860897"><ele>384.0</ele><time>2026-04-06T11:00:01.001Z</time></trkpt><trkpt lat="38.28062519288387" lon="16.203241194993183"><ele>384.0</ele><time>2026-04-06T11:00:02.001Z</time></trkpt><trkpt lat="38.28061893990666" lon="16.2034369413851"><ele>383.3333333333333</ele><time>2026-04-06T11:00:03.001Z</time></trkpt><trkpt lat="38.28064180576985" lon="16.203642199426934"><ele>382.66666666666663</ele><time>2026-04-06T11:00:04.001Z</time></trkpt><trkpt lat="38.28069175521434" lon="16.203864287261933"><ele>382.0</ele><time>2026-04-06T11:00:05.001Z</time></trkpt><trkpt lat="38.28074201552741" lon="16.20406050967652"><ele>380.75</ele><time>2026-04-06T11:00:06.001Z</time></trkpt><trkpt lat="38.28071846900531" lon="16.2042313002868"><ele>379.5</ele><time>2026-04-06T11:00:07.001Z</time></trkpt><trkpt lat="38.28069366094766" lon="16.204393618385847"><ele>378.25</ele><time>2026-04-06T11:00:08.001Z</time></trkpt><trkpt lat="38.28059261853546" lon="16.20450786696425"><ele>377.0</ele><time>2026-04-06T11:00:09.001Z</time></trkpt><trkpt lat="38.280488836133415" lon="16.204687560053944"><ele>373.6666666666667</ele><time>2026-04-06T11:00:10.001Z</time></trkpt><trkpt lat="38.28034294694382" lon="16.20488438855513"><ele>370.3333333333333</ele><time>2026-04-06T11:00:11.001Z</time></trkpt><trkpt lat="38.28023188382381" lon="16.20508359676042"><ele>367.0</ele><time>2026-04-06T11:00:12.001Z</time></trkpt><trkpt lat="38.28014203491881" lon="16.20531517118579"><ele>367.0</ele><time>2026-04-06T11:00:13.001Z</time></trkpt><trkpt lat="38.28007056228194" lon="16.205607825320378"><ele>367.0</ele><time>2026-04-06T11:00:14.001Z</time></trkpt><trkpt lat="38.2799989117276" lon="16.20592775454711"><ele>366.5</ele><time>2026-04-06T11:00:15.001Z</time></trkpt><trkpt lat="38.279906114670574" lon="16.206275424909673"><ele>366.0</ele><time>2026-04-06T11:00:16.001Z</time></trkpt><trkpt lat="38.27981345289073" lon="16.20660389044522"><ele>360.0</ele><time>2026-04-06T11:00:17.001Z</time></trkpt><trkpt lat="38.279728502196804" lon="16.20689240429862"><ele>354.0</ele><time>2026-04-06T11:00:18.001Z</time></trkpt><trkpt lat="38.279638007498605" lon="16.207171811780793"><ele>358.0</ele><time>2026-04-06T11:00:19.001Z</time></trkpt><trkpt lat="38.279527969113765" lon="16.20742281194849"><ele>362.0</ele><time>2026-04-06T11:00:20.001Z</time></trkpt><trkpt lat="38.2793785377451" lon="16.207671049423716"><ele>362.0</ele><time>2026-04-06T11:00:21.001Z</time></trkpt><trkpt lat="38.27921982623363" lon="16.207941930772403"><ele>362.0</ele><time>2026-04-06T11:00:22.001Z</time></trkpt><trkpt lat="38.279040317072564" lon="16.20822997978564"><ele>362.5</ele><time>2026-04-06T11:00:23.001Z</time></trkpt><trkpt lat="38.27883780080672" lon="16.208491720633653"><ele>363.0</ele><time>2026-04-06T11:00:24.001Z</time></trkpt><trkpt lat="38.278667877455916" lon="16.208726128551653"><ele>363.0</ele><time>2026-04-06T11:00:25.001Z</time></trkpt><trkpt lat="38.27849740488544" lon="16.20895787952724"><ele>363.0</ele><time>2026-04-06T11:00:26.001Z</time></trkpt><trkpt lat="38.278333357147936" lon="16.20920685910111"><ele>365.0</ele><time>2026-04-06T11:00:27.001Z</time></trkpt><trkpt lat="38.27816926760723" lon="16.209486706357332"><ele>367.0</ele><time>2026-04-06T11:00:28.001Z</time></trkpt><trkpt lat="38.27801215296979" lon="16.209814345282968"><ele>365.5</ele><time>2026-04-06T11:00:29.001Z</time></trkpt><trkpt lat="38.27785350198694" lon="16.210106363288705"><ele>364.0</ele><time>2026-04-06T11:00:30.001Z</time></trkpt><trkpt lat="38.27770352450248" lon="16.210360425367295"><ele>364.0</ele><time>2026-04-06T11:00:31.001Z</time></trkpt><trkpt lat="38.277572556479015" lon="16.210590496036694"><ele>364.0</ele><time>2026-04-06T11:00:32.001Z</time></trkpt><trkpt lat="38.27746384486495" lon="16.210810389182395"><ele>364.0</ele><time>2026-04-06T11:00:33.001Z</time></trkpt><trkpt lat="38.27734708074683" lon="16.211012463129492"><ele>367.66666666666663</ele><time>2026-04-06T11:00:34.001Z</time></trkpt><trkpt lat="38.27721932261346" lon="16.21116489988602"><ele>371.3333333333333</ele><time>2026-04-06T11:00:35.001Z</time></trkpt><trkpt lat="38.27707426109449" lon="16.211285868746792"><ele>375.0</ele><time>2026-04-06T11:00:36.001Z</time></trkpt><trkpt lat="38.276942716063445" lon="16.211392296706876"><ele>382.0</ele><time>2026-04-06T11:00:37.001Z</time></trkpt><trkpt lat="38.27684879270871" lon="16.211541676888494"><ele>389.0</ele><time>2026-04-06T11:00:38.001Z</time></trkpt><trkpt lat="38.27680190596728" lon="16.21174260243316"><ele>396.0</ele><time>2026-04-06T11:00:39.001Z</time></trkpt><trkpt lat="38.27679802190905" lon="16.211974241202785"><ele>396.0</ele><time>2026-04-06T11:00:40.001Z</time></trkpt><trkpt lat="38.27682591214584" lon="16.212219015746562"><ele>396.0</ele><time>2026-04-06T11:00:41.001Z</time></trkpt><trkpt lat="38.27690242765221" lon="16.21251489851379"><ele>396.0</ele><time>2026-04-06T11:00:42.001Z</time></trkpt><trkpt lat="38.276948680718" lon="16.212783487355495"><ele>396.25</ele><time>2026-04-06T11:00:43.001Z</time></trkpt><trkpt lat="38.276972663211936" lon="16.213001933161387"><ele>396.5</ele><time>2026-04-06T11:00:44.001Z</time></trkpt><trkpt lat="38.27696642326467" lon="16.213177776427678"><ele>396.75</ele><time>2026-04-06T11:00:45.001Z</time></trkpt><trkpt lat="38.27691697059644" lon="16.21331723588049"><ele>397.0</ele><time>2026-04-06T11:00:46.001Z</time></trkpt><trkpt lat="38.276799969083" lon="16.213424472917918"><ele>394.6666666666667</ele><time>2026-04-06T11:00:47.001Z</time></trkpt><trkpt lat="38.276650399205074" lon="16.21357000999273"><ele>392.33333333333337</ele><time>2026-04-06T11:00:48.001Z</time></trkpt><trkpt lat="38.276449977289126" lon="16.213713333373722"><ele>390.0</ele><time>2026-04-06T11:00:49.002Z</time></trkpt><trkpt lat="38.276247672738265" lon="16.21384556529236"><ele>386.0</ele><time>2026-04-06T11:00:50.002Z</time></trkpt><trkpt lat="38.276003390405684" lon="16.21396071937343"><ele>382.0</ele><time>2026-04-06T11:00:51.002Z</time></trkpt><trkpt lat="38.275805680484886" lon="16.214057453417386"><ele>382.0</ele><time>2026-04-06T11:00:51.999Z</time></trkpt><trkpt lat="38.27561247294366" lon="16.214174884082027"><ele>382.0</ele><time>2026-04-06T11:00:52.999Z</time></trkpt><trkpt lat="38.275419124515466" lon="16.214344820481166"><ele>382.0</ele><time>2026-04-06T11:00:53.999Z</time></trkpt><trkpt lat="38.27522601876059" lon="16.214558517285614"><ele>382.5</ele><time>2026-04-06T11:00:54.999Z</time></trkpt><trkpt lat="38.275024523072624" lon="16.21479244624559"><ele>383.0</ele><time>2026-04-06T11:00:55.999Z</time></trkpt><trkpt lat="38.27482061272422" lon="16.215003580789183"><ele>399.33333333333337</ele><time>2026-04-06T11:00:56.999Z</time></trkpt><trkpt lat="38.2746898009213" lon="16.21515591738872"><ele>415.6666666666667</ele><time>2026-04-06T11:00:57.999Z</time></trkpt><trkpt lat="38.27455993585366" lon="16.215296599762492"><ele>432.0</ele><time>2026-04-06T11:00:58.999Z</time></trkpt><trkpt lat="38.27444563297083" lon="16.21545007163804"><ele>432.0</ele><time>2026-04-06T11:01:00Z</time></trkpt><trkpt lat="38.27438956479413" lon="16.21563250139557"><ele>432.0</ele><time>2026-04-06T11:01:01Z</time></trkpt><trkpt lat="38.27436979383424" lon="16.215860309918906"><ele>432.0</ele><time>2026-04-06T11:01:02Z</time></trkpt><trkpt lat="38.274376911198694" lon="16.21609026199689"><ele>432.5</ele><time>2026-04-06T11:01:03Z</time></trkpt><trkpt lat="38.27435006091207" lon="16.216317328592808"><ele>433.0</ele><time>2026-04-06T11:01:04Z</time></trkpt><trkpt lat="38.27451751426651" lon="16.21658624774253"><ele>433.0</ele><time>2026-04-06T11:01:05Z</time></trkpt><trkpt lat="38.27462114175656" lon="16.216849362743673"><ele>433.0</ele><time>2026-04-06T11:01:06Z</time></trkpt><trkpt lat="38.27469490381902" lon="16.217052033850212"><ele>433.0</ele><time>2026-04-06T11:01:07Z</time></trkpt><trkpt lat="38.27470919092031" lon="16.217276643973225"><ele>437.5</ele><time>2026-04-06T11:01:08Z</time></trkpt><trkpt lat="38.274706313153416" lon="16.21755723466355"><ele>442.0</ele><time>2026-04-06T11:01:09Z</time></trkpt><trkpt lat="38.27470389873042" lon="16.21785061938772"><ele>442.0</ele><time>2026-04-06T11:01:10Z</time></trkpt><trkpt lat="38.274702146395455" lon="16.218087886117253"><ele>442.0</ele><time>2026-04-06T11:01:11Z</time></trkpt><trkpt lat="38.274687019803764" lon="16.218307415528535"><ele>442.0</ele><time>2026-04-06T11:01:12Z</time></trkpt><trkpt lat="38.27464924468428" lon="16.218514163329466"><ele>440.75</ele><time>2026-04-06T11:01:13Z</time></trkpt><trkpt lat="38.27460421419267" lon="16.218679983480786"><ele>439.5</ele><time>2026-04-06T11:01:14Z</time></trkpt><trkpt lat="38.27454561378087" lon="16.21883136934764"><ele>438.25</ele><time>2026-04-06T11:01:15Z</time></trkpt><trkpt lat="38.274490274919025" lon="16.218979033109303"><ele>437.0</ele><time>2026-04-06T11:01:16Z</time></trkpt><trkpt lat="38.27443340995228" lon="16.21910527496431"><ele>431.20000000000005</ele><time>2026-04-06T11:01:17Z</time></trkpt><trkpt lat="38.27437970903135" lon="16.219224359776632"><ele>425.40000000000003</ele><time>2026-04-06T11:01:18Z</time></trkpt><trkpt lat="38.27434330204813" lon="16.219338023624314"><ele>419.6</ele><time>2026-04-06T11:01:19Z</time></trkpt><trkpt lat="38.27430441516183" lon="16.21944350093171"><ele>413.79999999999995</ele><time>2026-04-06T11:01:20Z</time></trkpt><trkpt lat="38.27424487877104" lon="16.219558798566194"><ele>408.0</ele><time>2026-04-06T11:01:21Z</time></trkpt><trkpt lat="38.27420715116678" lon="16.219658178406984"><ele>408.0</ele><time>2026-04-06T11:01:22Z</time></trkpt><trkpt lat="38.274147917986994" lon="16.21978136975464"><ele>408.0</ele><time>2026-04-06T11:01:23Z</time></trkpt><trkpt lat="38.27407322624867" lon="16.21987358012413"><ele>408.0</ele><time>2026-04-06T11:01:24Z</time></trkpt><trkpt lat="38.27399543166493" lon="16.219989072016954"><ele>408.0</ele><time>2026-04-06T11:01:25Z</time></trkpt><trkpt lat="38.27393121206888" lon="16.220089899605817"><ele>408.0</ele><time>2026-04-06T11:01:26Z</time></trkpt><trkpt lat="38.27388790061672" lon="16.22020549947504"><ele>409.2</ele><time>2026-04-06T11:01:27Z</time></trkpt><trkpt lat="38.27383836889738" lon="16.220293801783775"><ele>410.4</ele><time>2026-04-06T11:01:28Z</time></trkpt><trkpt lat="38.27380962186459" lon="16.22041439752885"><ele>411.59999999999997</ele><time>2026-04-06T11:01:29Z</time></trkpt><trkpt lat="38.27377387833405" lon="16.220537172704784"><ele>412.79999999999995</ele><time>2026-04-06T11:01:30Z</time></trkpt><trkpt lat="38.273732993391846" lon="16.220677552175847"><ele>414.0</ele><time>2026-04-06T11:01:31Z</time></trkpt><trkpt lat="38.2736871361342" lon="16.22083426275623"><ele>406.66666666666663</ele><time>2026-04-06T11:01:32Z</time></trkpt><trkpt lat="38.273638064229964" lon="16.22100440454181"><ele>399.3333333333333</ele><time>2026-04-06T11:01:33Z</time></trkpt><trkpt lat="38.27356888361878" lon="16.22120634891075"><ele>392.0</ele><time>2026-04-06T11:01:34Z</time></trkpt><trkpt lat="38.273494578583104" lon="16.221432352900056"><ele>386.66666666666663</ele><time>2026-04-06T11:01:35Z</time></trkpt><trkpt lat="38.27341888875337" lon="16.221650552650274"><ele>381.3333333333333</ele><time>2026-04-06T11:01:36Z</time></trkpt><trkpt lat="38.273354040862" lon="16.22183984336123"><ele>376.0</ele><time>2026-04-06T11:01:37Z</time></trkpt><trkpt lat="38.27328908466465" lon="16.222005784290946"><ele>376.0</ele><time>2026-04-06T11:01:38Z</time></trkpt><trkpt lat="38.27320093291239" lon="16.222157380831714"><ele>376.0</ele><time>2026-04-06T11:01:39Z</time></trkpt><trkpt lat="38.27308125842074" lon="16.222280139766617"><ele>376.0</ele><time>2026-04-06T11:01:40Z</time></trkpt><trkpt lat="38.27295012819191" lon="16.22238710218246"><ele>370.75</ele><time>2026-04-06T11:01:41Z</time></trkpt><trkpt lat="38.27279929493085" lon="16.222473652791017"><ele>365.5</ele><time>2026-04-06T11:01:42Z</time></trkpt><trkpt lat="38.27265630560033" lon="16.222529915214217"><ele>360.25</ele><time>2026-04-06T11:01:43Z</time></trkpt><trkpt lat="38.27254222048016" lon="16.222544623395677"><ele>355.0</ele><time>2026-04-06T11:01:44Z</time></trkpt><trkpt lat="38.27241588875574" lon="16.22247552970242"><ele>355.0</ele><time>2026-04-06T11:01:45Z</time></trkpt><trkpt lat="38.27227917476284" lon="16.222429038503126"><ele>355.0</ele><time>2026-04-06T11:01:46.001Z</time></trkpt><trkpt lat="38.27215297274267" lon="16.222358809759655"><ele>355.0</ele><time>2026-04-06T11:01:47.001Z</time></trkpt><trkpt lat="38.27202491030748" lon="16.22230901291955"><ele>355.0</ele><time>2026-04-06T11:01:48.001Z</time></trkpt><trkpt lat="38.27191505512502" lon="16.222271029562265"><ele>354.0</ele><time>2026-04-06T11:01:49.001Z</time></trkpt><trkpt lat="38.27180210162558" lon="16.222261217527095"><ele>353.0</ele><time>2026-04-06T11:01:50.001Z</time></trkpt><trkpt lat="38.27169933814495" lon="16.222278523066496"><ele>352.0</ele><time>2026-04-06T11:01:51.001Z</time></trkpt><trkpt lat="38.27156987081101" lon="16.222309785104997"><ele>351.0</ele><time>2026-04-06T11:01:52.001Z</time></trkpt><trkpt lat="38.27145578113783" lon="16.22233918615223"><ele>348.5</ele><time>2026-04-06T11:01:53.001Z</time></trkpt><trkpt lat="38.27132334040582" lon="16.22236161496737"><ele>346.0</ele><time>2026-04-06T11:01:54.001Z</time></trkpt><trkpt lat="38.27120953634176" lon="16.222389505941525"><ele>343.5</ele><time>2026-04-06T11:01:55.001Z</time></trkpt><trkpt lat="38.27110058434474" lon="16.222400480374176"><ele>341.0</ele><time>2026-04-06T11:01:56.001Z</time></trkpt><trkpt lat="38.27099681335927" lon="16.222376296089934"><ele>343.75</ele><time>2026-04-06T11:01:57.001Z</time></trkpt><trkpt lat="38.27089658792841" lon="16.222289440062095"><ele>346.5</ele><time>2026-04-06T11:01:58.001Z</time></trkpt><trkpt lat="38.27076717324861" lon="16.222218457151556"><ele>349.25</ele><time>2026-04-06T11:01:59.001Z</time></trkpt><trkpt lat="38.270626874503044" lon="16.222107310757337"><ele>352.0</ele><time>2026-04-06T11:02:00.001Z</time></trkpt><trkpt lat="38.27048734292073" lon="16.222052602728443"><ele>352.0</ele><time>2026-04-06T11:02:01.001Z</time></trkpt><trkpt lat="38.27036645612105" lon="16.22199406351765"><ele>352.0</ele><time>2026-04-06T11:02:02.001Z</time></trkpt><trkpt lat="38.27026090898739" lon="16.221938770988718"><ele>352.0</ele><time>2026-04-06T11:02:03.001Z</time></trkpt><trkpt lat="38.27015815321476" lon="16.221888981192947"><ele>352.0</ele><time>2026-04-06T11:02:04.001Z</time></trkpt><trkpt lat="38.270062826057654" lon="16.221845537981476"><ele>352.0</ele><time>2026-04-06T11:02:05.001Z</time></trkpt><trkpt lat="38.26996923180159" lon="16.22179887747745"><ele>352.0</ele><time>2026-04-06T11:02:06.001Z</time></trkpt><trkpt lat="38.26987410240514" lon="16.221750072886692"><ele>352.0</ele><time>2026-04-06T11:02:07.001Z</time></trkpt><trkpt lat="38.269783157133965" lon="16.22169188505268"><ele>352.0</ele><time>2026-04-06T11:02:08.001Z</time></trkpt><trkpt lat="38.26969217569075" lon="16.22160486159058"><ele>352.0</ele><time>2026-04-06T11:02:09.001Z</time></trkpt><trkpt lat="38.26961564048258" lon="16.221558736950797"><ele>350.75</ele><time>2026-04-06T11:02:10.001Z</time></trkpt><trkpt lat="38.26953433429554" lon="16.22152331440367"><ele>349.5</ele><time>2026-04-06T11:02:11.001Z</time></trkpt><trkpt lat="38.26944177732346" lon="16.221467323879384"><ele>348.25</ele><time>2026-04-06T11:02:13.001Z</time></trkpt><trkpt lat="38.26937948264155" lon="16.221451438256832"><ele>347.0</ele><time>2026-04-06T11:02:15.001Z</time></trkpt><trkpt lat="38.26918743726668" lon="16.22135696033674"><ele>347.0</ele><time>2026-04-06T11:02:16.001Z</time></trkpt><trkpt lat="38.269073653842035" lon="16.221308111204802"><ele>347.0</ele><time>2026-04-06T11:02:18.001Z</time></trkpt><trkpt lat="38.26898152993107" lon="16.221314356386614"><ele>347.0</ele><time>2026-04-06T11:02:20.001Z</time></trkpt><trkpt lat="38.26890204202356" lon="16.221169610832707"><ele>347.0</ele><time>2026-04-06T11:02:22.001Z</time></trkpt><trkpt lat="38.26883314872597" lon="16.22105629547559"><ele>344.6</ele><time>2026-04-06T11:02:23.001Z</time></trkpt><trkpt lat="38.26888114672215" lon="16.220930360200754"><ele>342.20000000000005</ele><time>2026-04-06T11:02:24.001Z</time></trkpt><trkpt lat="38.26883594471033" lon="16.22081671547036"><ele>339.8</ele><time>2026-04-06T11:02:25.001Z</time></trkpt><trkpt lat="38.26879954660647" lon="16.220723463242262"><ele>337.4</ele><time>2026-04-06T11:02:26.001Z</time></trkpt><trkpt lat="38.2687525636777" lon="16.220640476595676"><ele>335.0</ele><time>2026-04-06T11:02:27.001Z</time></trkpt><trkpt lat="38.26871484036105" lon="16.220537628732536"><ele>333.4285714285714</ele><time>2026-04-06T11:02:28.001Z</time></trkpt><trkpt lat="38.26868034236293" lon="16.22044733031183"><ele>331.85714285714283</ele><time>2026-04-06T11:02:29.001Z</time></trkpt><trkpt lat="38.26863936133146" lon="16.220364474327475"><ele>330.2857142857143</ele><time>2026-04-06T11:02:30.001Z</time></trkpt><trkpt lat="38.26858773767681" lon="16.220299981140094"><ele>328.71428571428567</ele><time>2026-04-06T11:02:31.001Z</time></trkpt><trkpt lat="38.26851738786954" lon="16.220281337217326"><ele>327.1428571428571</ele><time>2026-04-06T11:02:32.001Z</time></trkpt><trkpt lat="38.26845015949907" lon="16.22032264859521"><ele>325.57142857142856</ele><time>2026-04-06T11:02:33.001Z</time></trkpt><trkpt lat="38.26839222308266" lon="16.220354875986843"><ele>324.0</ele><time>2026-04-06T11:02:34.001Z</time></trkpt><trkpt lat="38.268286759722024" lon="16.22040134659042"><ele>324.0</ele><time>2026-04-06T11:02:36.001Z</time></trkpt><trkpt lat="38.26817025596694" lon="16.22048602636732"><ele>324.0</ele><time>2026-04-06T11:02:38.001Z</time></trkpt><trkpt lat="38.26811496382335" lon="16.22055751253777"><ele>324.0</ele><time>2026-04-06T11:02:39.001Z</time></trkpt><trkpt lat="38.268045204431985" lon="16.220615689394858"><ele>324.0</ele><time>2026-04-06T11:02:40.001Z</time></trkpt><trkpt lat="38.26798179836558" lon="16.220656458975274"><ele>324.0</ele><time>2026-04-06T11:02:41.001Z</time></trkpt><trkpt lat="38.267912207041846" lon="16.220706961510977"><ele>324.0</ele><time>2026-04-06T11:02:42.001Z</time></trkpt><trkpt lat="38.26785092120981" lon="16.220765313718573"><ele>324.1666666666667</ele><time>2026-04-06T11:02:43.001Z</time></trkpt><trkpt lat="38.26778032833549" lon="16.22080934143956"><ele>324.3333333333333</ele><time>2026-04-06T11:02:44.002Z</time></trkpt><trkpt lat="38.26770256315054" lon="16.220841064290347"><ele>324.5</ele><time>2026-04-06T11:02:45.002Z</time></trkpt><trkpt lat="38.26762383082981" lon="16.22088733088247"><ele>324.66666666666663</ele><time>2026-04-06T11:02:46.002Z</time></trkpt><trkpt lat="38.26755274614043" lon="16.220930792208236"><ele>324.8333333333333</ele><time>2026-04-06T11:02:47.002Z</time></trkpt><trkpt lat="38.26747346694068" lon="16.22097220537223"><ele>325.0</ele><time>2026-04-06T11:02:48.002Z</time></trkpt><trkpt lat="38.2673942011599" lon="16.220999502957657"><ele>325.0</ele><time>2026-04-06T11:02:49.002Z</time></trkpt><trkpt lat="38.26731732098472" lon="16.221034135701505"><ele>325.0</ele><time>2026-04-06T11:02:50.002Z</time></trkpt><trkpt lat="38.267247760359346" lon="16.221060497175323"><ele>325.0</ele><time>2026-04-06T11:02:51.002Z</time></trkpt><trkpt lat="38.267175288879535" lon="16.22108531616918"><ele>325.0</ele><time>2026-04-06T11:02:52.002Z</time></trkpt><trkpt lat="38.267098388568435" lon="16.221114929768724"><ele>325.0</ele><time>2026-04-06T11:02:53.002Z</time></trkpt><trkpt lat="38.26702843790959" lon="16.22112853237352"><ele>325.0</ele><time>2026-04-06T11:02:54.002Z</time></trkpt><trkpt lat="38.266954552623176" lon="16.221140613985447"><ele>322.8333333333333</ele><time>2026-04-06T11:02:55.002Z</time></trkpt><trkpt lat="38.2668845750663" lon="16.221127401426173"><ele>320.66666666666663</ele><time>2026-04-06T11:02:56.002Z</time></trkpt><trkpt lat="38.26681466550417" lon="16.221098672748077"><ele>318.5</ele><time>2026-04-06T11:02:57.002Z</time></trkpt><trkpt lat="38.2667372110599" lon="16.221064459247838"><ele>316.3333333333333</ele><time>2026-04-06T11:02:58Z</time></trkpt><trkpt lat="38.266661356573444" lon="16.22104240664019"><ele>314.1666666666667</ele><time>2026-04-06T11:02:59Z</time></trkpt><trkpt lat="38.26658275534846" lon="16.221012316868528"><ele>312.0</ele><time>2026-04-06T11:03:00Z</time></trkpt><trkpt lat="38.26650058613367" lon="16.22098342844901"><ele>312.0</ele><time>2026-04-06T11:03:01Z</time></trkpt><trkpt lat="38.266420081206775" lon="16.22095942313632"><ele>312.0</ele><time>2026-04-06T11:03:02Z</time></trkpt><trkpt lat="38.266341794423816" lon="16.220929449103743"><ele>312.0</ele><time>2026-04-06T11:03:03Z</time></trkpt><trkpt lat="38.26626527935083" lon="16.2208970728808"><ele>312.0</ele><time>2026-04-06T11:03:04Z</time></trkpt><trkpt lat="38.26618648671715" lon="16.22087263586213"><ele>312.0</ele><time>2026-04-06T11:03:05Z</time></trkpt><trkpt lat="38.26611647141621" lon="16.22085054022746"><ele>312.0</ele><time>2026-04-06T11:03:06Z</time></trkpt><trkpt lat="38.26604652083947" lon="16.2208293865435"><ele>312.0</ele><time>2026-04-06T11:03:07Z</time></trkpt><trkpt lat="38.26598164131813" lon="16.220824756782694"><ele>312.0</ele><time>2026-04-06T11:03:08Z</time></trkpt><trkpt lat="38.26586654280357" lon="16.220829526300193"><ele>312.0</ele><time>2026-04-06T11:03:10Z</time></trkpt><trkpt lat="38.265756572473435" lon="16.22085906043423"><ele>312.0</ele><time>2026-04-06T11:03:12Z</time></trkpt><trkpt lat="38.26569361607833" lon="16.220846831945085"><ele>312.0</ele><time>2026-04-06T11:03:13Z</time></trkpt><trkpt lat="38.26563390009134" lon="16.22087886117295"><ele>312.0</ele><time>2026-04-06T11:03:14Z</time></trkpt><trkpt lat="38.26556715092468" lon="16.22089236540364"><ele>312.8333333333333</ele><time>2026-04-06T11:03:15Z</time></trkpt><trkpt lat="38.26550052566715" lon="16.220908895658482"><ele>313.6666666666667</ele><time>2026-04-06T11:03:16Z</time></trkpt><trkpt lat="38.26541502163029" lon="16.22092812034689"><ele>314.5</ele><time>2026-04-06T11:03:17Z</time></trkpt><trkpt lat="38.2653376186359" lon="16.22095154804339"><ele>315.33333333333337</ele><time>2026-04-06T11:03:18Z</time></trkpt><trkpt lat="38.26525353930382" lon="16.220978018142425"><ele>316.1666666666667</ele><time>2026-04-06T11:03:19Z</time></trkpt><trkpt lat="38.26515682073429" lon="16.22101183997517"><ele>317.0</ele><time>2026-04-06T11:03:20Z</time></trkpt><trkpt lat="38.26507908804708" lon="16.221044897898903"><ele>317.0</ele><time>2026-04-06T11:03:21Z</time></trkpt><trkpt lat="38.26498681449817" lon="16.221082351483297"><ele>317.0</ele><time>2026-04-06T11:03:22Z</time></trkpt><trkpt lat="38.26491828403307" lon="16.22109918341099"><ele>317.0</ele><time>2026-04-06T11:03:23Z</time></trkpt><trkpt lat="38.26483542726172" lon="16.22112211083318"><ele>317.0</ele><time>2026-04-06T11:03:24Z</time></trkpt><trkpt lat="38.26470884621175" lon="16.221207590863564"><ele>317.0</ele><time>2026-04-06T11:03:25Z</time></trkpt><trkpt lat="38.26460764141978" lon="16.221268578259"><ele>318.0</ele><time>2026-04-06T11:03:26Z</time></trkpt><trkpt lat="38.26450772382968" lon="16.22134432603216"><ele>319.0</ele><time>2026-04-06T11:03:27Z</time></trkpt><trkpt lat="38.2643904399321" lon="16.221445950253912"><ele>320.0</ele><time>2026-04-06T11:03:28Z</time></trkpt><trkpt lat="38.26428137137495" lon="16.221552770696753"><ele>321.0</ele><time>2026-04-06T11:03:29Z</time></trkpt><trkpt lat="38.264177204449155" lon="16.22166623712671"><ele>317.5</ele><time>2026-04-06T11:03:30Z</time></trkpt><trkpt lat="38.26407385718601" lon="16.221804120721668"><ele>314.0</ele><time>2026-04-06T11:03:31Z</time></trkpt><trkpt lat="38.26397034645002" lon="16.221902616267425"><ele>310.5</ele><time>2026-04-06T11:03:32Z</time></trkpt><trkpt lat="38.26386812707405" lon="16.22198015523208"><ele>307.0</ele><time>2026-04-06T11:03:33Z</time></trkpt><trkpt lat="38.26375805490634" lon="16.222006564866177"><ele>304.3333333333333</ele><time>2026-04-06T11:03:34Z</time></trkpt><trkpt lat="38.263645696213196" lon="16.221957249351828"><ele>301.6666666666667</ele><time>2026-04-06T11:03:35Z</time></trkpt><trkpt lat="38.263506574508405" lon="16.22185763600727"><ele>299.0</ele><time>2026-04-06T11:03:36Z</time></trkpt><trkpt lat="38.26338327370112" lon="16.22165642894326"><ele>303.0</ele><time>2026-04-06T11:03:37Z</time></trkpt><trkpt lat="38.26326962429077" lon="16.221416087004968"><ele>307.0</ele><time>2026-04-06T11:03:38Z</time></trkpt><trkpt lat="38.26312463355185" lon="16.22114783927519"><ele>301.66666666666663</ele><time>2026-04-06T11:03:39Z</time></trkpt><trkpt lat="38.262999544906855" lon="16.220908249373544"><ele>296.3333333333333</ele><time>2026-04-06T11:03:40Z</time></trkpt><trkpt lat="38.262883073030004" lon="16.220713892274386"><ele>291.0</ele><time>2026-04-06T11:03:41Z</time></trkpt><trkpt lat="38.262795355286215" lon="16.22053150998177"><ele>291.0</ele><time>2026-04-06T11:03:42Z</time></trkpt><trkpt lat="38.262727073413835" lon="16.220381551026527"><ele>291.0</ele><time>2026-04-06T11:03:43Z</time></trkpt><trkpt lat="38.26268681700025" lon="16.22021245200183"><ele>291.0</ele><time>2026-04-06T11:03:44Z</time></trkpt><trkpt lat="38.26266479935874" lon="16.220037070490367"><ele>291.0</ele><time>2026-04-06T11:03:45Z</time></trkpt><trkpt lat="38.262651439980544" lon="16.219855005593878"><ele>288.0</ele><time>2026-04-06T11:03:46Z</time></trkpt><trkpt lat="38.262678350848695" lon="16.21970167127346"><ele>285.0</ele><time>2026-04-06T11:03:47Z</time></trkpt><trkpt lat="38.262751223257595" lon="16.21959147425099"><ele>282.0</ele><time>2026-04-06T11:03:48Z</time></trkpt><trkpt lat="38.262823951995" lon="16.219435070565783"><ele>279.0</ele><time>2026-04-06T11:03:49.001Z</time></trkpt><trkpt lat="38.262901917153606" lon="16.219273561765654"><ele>279.0</ele><time>2026-04-06T11:03:50.001Z</time></trkpt><trkpt lat="38.26295296309815" lon="16.219161146805693"><ele>279.0</ele><time>2026-04-06T11:03:51.001Z</time></trkpt><trkpt lat="38.26295008837407" lon="16.219066344696103"><ele>279.0</ele><time>2026-04-06T11:03:52.001Z</time></trkpt><trkpt lat="38.26294230098966" lon="16.21896353457963"><ele>279.0</ele><time>2026-04-06T11:03:53.001Z</time></trkpt><trkpt lat="38.26286109446136" lon="16.218918712029215"><ele>279.0</ele><time>2026-04-06T11:03:54.001Z</time></trkpt><trkpt lat="38.26275138516114" lon="16.218931320780776"><ele>279.0</ele><time>2026-04-06T11:03:55.001Z</time></trkpt><trkpt lat="38.26266320721952" lon="16.219122277385985"><ele>279.0</ele><time>2026-04-06T11:03:56.001Z</time></trkpt><trkpt lat="38.26255392394657" lon="16.219329981701005"><ele>279.0</ele><time>2026-04-06T11:03:57.001Z</time></trkpt><trkpt lat="38.26241692663594" lon="16.219559225928858"><ele>276.5</ele><time>2026-04-06T11:03:58.001Z</time></trkpt><trkpt lat="38.262243220521775" lon="16.219788392367683"><ele>274.0</ele><time>2026-04-06T11:03:59.001Z</time></trkpt><trkpt lat="38.26208565305955" lon="16.220051441283736"><ele>274.0</ele><time>2026-04-06T11:04:00.001Z</time></trkpt><trkpt lat="38.26194360212503" lon="16.220263633870434"><ele>274.0</ele><time>2026-04-06T11:04:01.001Z</time></trkpt><trkpt lat="38.261821515345964" lon="16.220442782290895"><ele>274.0</ele><time>2026-04-06T11:04:02.001Z</time></trkpt><trkpt lat="38.26171874363643" lon="16.220602027122087"><ele>275.3333333333333</ele><time>2026-04-06T11:04:03.001Z</time></trkpt><trkpt lat="38.26162084538553" lon="16.220754537406897"><ele>276.6666666666667</ele><time>2026-04-06T11:04:04.001Z</time></trkpt><trkpt lat="38.26154621112722" lon="16.22092189020726"><ele>278.0</ele><time>2026-04-06T11:04:05.001Z</time></trkpt><trkpt lat="38.26151603816337" lon="16.221135596313182"><ele>278.0</ele><time>2026-04-06T11:04:06.001Z</time></trkpt><trkpt lat="38.26151275828248" lon="16.22140732289809"><ele>278.0</ele><time>2026-04-06T11:04:07.001Z</time></trkpt><trkpt lat="38.26149674314778" lon="16.221742751545456"><ele>277.6666666666667</ele><time>2026-04-06T11:04:08.001Z</time></trkpt><trkpt lat="38.26147905736732" lon="16.222056237941"><ele>277.3333333333333</ele><time>2026-04-06T11:04:09.001Z</time></trkpt><trkpt lat="38.26146589125158" lon="16.222308444589068"><ele>277.0</ele><time>2026-04-06T11:04:10.001Z</time></trkpt><trkpt lat="38.261452681759714" lon="16.222467376788458"><ele>275.6</ele><time>2026-04-06T11:04:11.001Z</time></trkpt><trkpt lat="38.26143704123286" lon="16.22254696622694"><ele>274.2</ele><time>2026-04-06T11:04:12.001Z</time></trkpt><trkpt lat="38.26133919981272" lon="16.222616240626326"><ele>272.8</ele><time>2026-04-06T11:04:14.001Z</time></trkpt><trkpt lat="38.2612643421466" lon="16.222529600484492"><ele>271.4</ele><time>2026-04-06T11:04:15.001Z</time></trkpt><trkpt lat="38.26122846880558" lon="16.22239990568172"><ele>270.0</ele><time>2026-04-06T11:04:16.001Z</time></trkpt><trkpt lat="38.261280445209195" lon="16.222270762607767"><ele>270.0</ele><time>2026-04-06T11:04:17.001Z</time></trkpt><trkpt lat="38.26132493672934" lon="16.22210387896918"><ele>270.0</ele><time>2026-04-06T11:04:18.001Z</time></trkpt><trkpt lat="38.26134565116845" lon="16.221958927031434"><ele>270.0</ele><time>2026-04-06T11:04:19.001Z</time></trkpt><trkpt lat="38.26131444630839" lon="16.221865390854592"><ele>270.0</ele><time>2026-04-06T11:04:20.001Z</time></trkpt><trkpt lat="38.26122051361809" lon="16.221824124041422"><ele>270.0</ele><time>2026-04-06T11:04:21.001Z</time></trkpt><trkpt lat="38.26112279466495" lon="16.22185557197655"><ele>270.0</ele><time>2026-04-06T11:04:22.001Z</time></trkpt><trkpt lat="38.26103454199596" lon="16.221933883416877"><ele>270.0</ele><time>2026-04-06T11:04:23.001Z</time></trkpt><trkpt lat="38.260981192904055" lon="16.222126461423354"><ele>270.0</ele><time>2026-04-06T11:04:24.001Z</time></trkpt><trkpt lat="38.260907202722386" lon="16.22228471876816"><ele>270.0</ele><time>2026-04-06T11:04:25.001Z</time></trkpt><trkpt lat="38.26082027196932" lon="16.222388381547123"><ele>268.6666666666667</ele><time>2026-04-06T11:04:26.001Z</time></trkpt><trkpt lat="38.260677993388754" lon="16.22242649356968"><ele>267.33333333333337</ele><time>2026-04-06T11:04:27.001Z</time></trkpt><trkpt lat="38.26055390268773" lon="16.222532298615864"><ele>266.0</ele><time>2026-04-06T11:04:28.001Z</time></trkpt><trkpt lat="38.26041476906143" lon="16.222682611665682"><ele>266.0</ele><time>2026-04-06T11:04:29.001Z</time></trkpt><trkpt lat="38.260315814468235" lon="16.22288272117812"><ele>266.0</ele><time>2026-04-06T11:04:30.001Z</time></trkpt><trkpt lat="38.26023341569229" lon="16.22312966093181"><ele>266.0</ele><time>2026-04-06T11:04:31.001Z</time></trkpt><trkpt lat="38.26015986310891" lon="16.22337877517151"><ele>263.6666666666667</ele><time>2026-04-06T11:04:32.001Z</time></trkpt><trkpt lat="38.26003811292203" lon="16.223554615027712"><ele>261.3333333333333</ele><time>2026-04-06T11:04:33.001Z</time></trkpt><trkpt lat="38.259939858348865" lon="16.223722992938203"><ele>259.0</ele><time>2026-04-06T11:04:34.001Z</time></trkpt><trkpt lat="38.259820320387945" lon="16.22385499506107"><ele>259.66666666666663</ele><time>2026-04-06T11:04:35.001Z</time></trkpt><trkpt lat="38.259686060111854" lon="16.223966665140118"><ele>260.3333333333333</ele><time>2026-04-06T11:04:36.001Z</time></trkpt><trkpt lat="38.259548942638034" lon="16.22409073845172"><ele>261.0</ele><time>2026-04-06T11:04:37.001Z</time></trkpt><trkpt lat="38.25940168262804" lon="16.224222458176534"><ele>258.6666666666667</ele><time>2026-04-06T11:04:38.001Z</time></trkpt><trkpt lat="38.25923373682617" lon="16.224353150757867"><ele>256.33333333333337</ele><time>2026-04-06T11:04:39.001Z</time></trkpt><trkpt lat="38.25905270051609" lon="16.22446755397336"><ele>254.0</ele><time>2026-04-06T11:04:40.001Z</time></trkpt><trkpt lat="38.258893808431196" lon="16.224545016772122"><ele>252.5</ele><time>2026-04-06T11:04:41.001Z</time></trkpt><trkpt lat="38.25876136075918" lon="16.224591032387078"><ele>251.0</ele><time>2026-04-06T11:04:42.001Z</time></trkpt><trkpt lat="38.25867841273013" lon="16.224690033811523"><ele>249.5</ele><time>2026-04-06T11:04:43.002Z</time></trkpt><trkpt lat="38.25863413788011" lon="16.224833031836784"><ele>248.0</ele><time>2026-04-06T11:04:44.002Z</time></trkpt><trkpt lat="38.25862022668036" lon="16.22502554234527"><ele>247.0</ele><time>2026-04-06T11:04:45.002Z</time></trkpt><trkpt lat="38.2586152672857" lon="16.22524221743765"><ele>246.0</ele><time>2026-04-06T11:04:46.002Z</time></trkpt><trkpt lat="38.25861528451195" lon="16.225470589253003"><ele>245.0</ele><time>2026-04-06T11:04:47.002Z</time></trkpt><trkpt lat="38.2586051801359" lon="16.225630766083746"><ele>245.0</ele><time>2026-04-06T11:04:48.002Z</time></trkpt><trkpt lat="38.25855183016983" lon="16.225693920060813"><ele>245.0</ele><time>2026-04-06T11:04:49.002Z</time></trkpt><trkpt lat="38.25846572751598" lon="16.2257247833084"><ele>245.0</ele><time>2026-04-06T11:04:50.002Z</time></trkpt><trkpt lat="38.258364535542874" lon="16.22571671674379"><ele>245.0</ele><time>2026-04-06T11:04:51.002Z</time></trkpt><trkpt lat="38.258257086377625" lon="16.225636065869605"><ele>245.0</ele><time>2026-04-06T11:04:52.002Z</time></trkpt><trkpt lat="38.25811253684968" lon="16.225504981142347"><ele>237.66666666666669</ele><time>2026-04-06T11:04:53.002Z</time></trkpt><trkpt lat="38.257969732865604" lon="16.225323662419292"><ele>230.33333333333331</ele><time>2026-04-06T11:04:54.002Z</time></trkpt><trkpt lat="38.25785232258748" lon="16.22521803351595"><ele>223.0</ele><time>2026-04-06T11:04:55.002Z</time></trkpt><trkpt lat="38.25775272437962" lon="16.225104595182195"><ele>223.0</ele><time>2026-04-06T11:04:56.002Z</time></trkpt><trkpt lat="38.25768086799799" lon="16.22496999830109"><ele>223.0</ele><time>2026-04-06T11:04:57.002Z</time></trkpt><trkpt lat="38.25765486114899" lon="16.22481190015915"><ele>223.0</ele><time>2026-04-06T11:04:58.002Z</time></trkpt><trkpt lat="38.25766976012868" lon="16.224621315713133"><ele>223.0</ele><time>2026-04-06T11:04:59.002Z</time></trkpt><trkpt lat="38.25770627548876" lon="16.22441268744094"><ele>224.66666666666666</ele><time>2026-04-06T11:05:00.002Z</time></trkpt><trkpt lat="38.2576956873855" lon="16.22419253205865"><ele>226.33333333333331</ele><time>2026-04-06T11:05:01.002Z</time></trkpt><trkpt lat="38.25766179101066" lon="16.223980722361727"><ele>228.0</ele><time>2026-04-06T11:05:02.002Z</time></trkpt><trkpt lat="38.25762223770092" lon="16.223787136566084"><ele>230.33333333333331</ele><time>2026-04-06T11:05:03.002Z</time></trkpt><trkpt lat="38.25756070922943" lon="16.22358404863579"><ele>232.66666666666666</ele><time>2026-04-06T11:05:03.999Z</time></trkpt><trkpt lat="38.25745138512371" lon="16.223403310856053"><ele>235.0</ele><time>2026-04-06T11:05:04.999Z</time></trkpt><trkpt lat="38.25727397851895" lon="16.223342276224095"><ele>233.0</ele><time>2026-04-06T11:05:05.999Z</time></trkpt><trkpt lat="38.25708376371066" lon="16.223214703154014"><ele>231.0</ele><time>2026-04-06T11:05:06.999Z</time></trkpt><trkpt lat="38.25707669134803" lon="16.223305124748972"><ele>229.0</ele><time>2026-04-06T11:05:07.999Z</time></trkpt><trkpt lat="38.25698415337602" lon="16.223211245304984"><ele>227.0</ele><time>2026-04-06T11:05:08.999Z</time></trkpt><trkpt lat="38.2569912789662" lon="16.22303878687355"><ele>227.0</ele><time>2026-04-06T11:05:09.999Z</time></trkpt><trkpt lat="38.25694351042589" lon="16.22282773901535"><ele>227.0</ele><time>2026-04-06T11:05:10.999Z</time></trkpt><trkpt lat="38.25690898001477" lon="16.22265855527065"><ele>227.0</ele><time>2026-04-06T11:05:12Z</time></trkpt><trkpt lat="38.25684680186018" lon="16.22252976821341"><ele>227.0</ele><time>2026-04-06T11:05:13Z</time></trkpt><trkpt lat="38.256718256122994" lon="16.222497173656013"><ele>227.0</ele><time>2026-04-06T11:05:13.999Z</time></trkpt><trkpt lat="38.256574206041876" lon="16.2224950931293"><ele>227.0</ele><time>2026-04-06T11:05:15Z</time></trkpt><trkpt lat="38.25639393448206" lon="16.222567962500793"><ele>227.0</ele><time>2026-04-06T11:05:16Z</time></trkpt><trkpt lat="38.25620614298375" lon="16.22267951023364"><ele>226.0</ele><time>2026-04-06T11:05:17Z</time></trkpt><trkpt lat="38.2560395985895" lon="16.22280912802755"><ele>225.0</ele><time>2026-04-06T11:05:18Z</time></trkpt><trkpt lat="38.255897654238716" lon="16.222986065976826"><ele>224.0</ele><time>2026-04-06T11:05:19Z</time></trkpt><trkpt lat="38.25578162498902" lon="16.223210472052433"><ele>224.0</ele><time>2026-04-06T11:05:20Z</time></trkpt><trkpt lat="38.25566369514291" lon="16.223506874894703"><ele>224.0</ele><time>2026-04-06T11:05:21Z</time></trkpt><trkpt lat="38.25553330459986" lon="16.223827076779486"><ele>221.33333333333334</ele><time>2026-04-06T11:05:22Z</time></trkpt><trkpt lat="38.255403741369065" lon="16.224085075644304"><ele>218.66666666666669</ele><time>2026-04-06T11:05:23Z</time></trkpt><trkpt lat="38.25529419069694" lon="16.224295846663573"><ele>216.0</ele><time>2026-04-06T11:05:24Z</time></trkpt><trkpt lat="38.255195813434256" lon="16.224497132744183"><ele>216.0</ele><time>2026-04-06T11:05:25Z</time></trkpt><trkpt lat="38.25509156154725" lon="16.224651682900895"><ele>216.0</ele><time>2026-04-06T11:05:26Z</time></trkpt><trkpt lat="38.254968614758674" lon="16.224770129226442"><ele>216.0</ele><time>2026-04-06T11:05:27Z</time></trkpt><trkpt lat="38.25480742841802" lon="16.224824337582948"><ele>212.33333333333331</ele><time>2026-04-06T11:05:28Z</time></trkpt><trkpt lat="38.2546191191071" lon="16.224916532033227"><ele>208.66666666666666</ele><time>2026-04-06T11:05:29Z</time></trkpt><trkpt lat="38.254444633903" lon="16.22501020589889"><ele>205.0</ele><time>2026-04-06T11:05:30Z</time></trkpt><trkpt lat="38.254327770422705" lon="16.225081123952364"><ele>205.0</ele><time>2026-04-06T11:05:31Z</time></trkpt><trkpt lat="38.25426464849605" lon="16.225181148987264"><ele>205.0</ele><time>2026-04-06T11:05:32Z</time></trkpt><trkpt lat="38.25423299651282" lon="16.225349510111144"><ele>205.0</ele><time>2026-04-06T11:05:33Z</time></trkpt><trkpt lat="38.25422370393015" lon="16.225580655587695"><ele>205.0</ele><time>2026-04-06T11:05:34Z</time></trkpt><trkpt lat="38.254213657536646" lon="16.225832101497495"><ele>203.33333333333331</ele><time>2026-04-06T11:05:35Z</time></trkpt><trkpt lat="38.25417472665275" lon="16.226088511408022"><ele>201.66666666666669</ele><time>2026-04-06T11:05:36Z</time></trkpt><trkpt lat="38.25409580564269" lon="16.226271610861875"><ele>200.0</ele><time>2026-04-06T11:05:37Z</time></trkpt><trkpt lat="38.254004084184075" lon="16.2264449171205"><ele>199.33333333333334</ele><time>2026-04-06T11:05:38Z</time></trkpt><trkpt lat="38.253895051227175" lon="16.226601056104965"><ele>198.66666666666669</ele><time>2026-04-06T11:05:39Z</time></trkpt><trkpt lat="38.2537430950208" lon="16.226794769161557"><ele>198.0</ele><time>2026-04-06T11:05:40Z</time></trkpt><trkpt lat="38.25356758414955" lon="16.227000254743974"><ele>198.0</ele><time>2026-04-06T11:05:41Z</time></trkpt><trkpt lat="38.253462169011954" lon="16.22724871875521"><ele>198.0</ele><time>2026-04-06T11:05:42Z</time></trkpt><trkpt lat="38.25335034586498" lon="16.227503532657195"><ele>197.0</ele><time>2026-04-06T11:05:43Z</time></trkpt><trkpt lat="38.25319660831215" lon="16.22771154104501"><ele>196.0</ele><time>2026-04-06T11:05:44Z</time></trkpt><trkpt lat="38.25305394739541" lon="16.227951739181357"><ele>195.33333333333331</ele><time>2026-04-06T11:05:45Z</time></trkpt><trkpt lat="38.25291588679201" lon="16.228155800789363"><ele>194.66666666666669</ele><time>2026-04-06T11:05:46Z</time></trkpt><trkpt lat="38.25278869153075" lon="16.228348703488873"><ele>194.0</ele><time>2026-04-06T11:05:47Z</time></trkpt><trkpt lat="38.2526792661046" lon="16.228545803430777"><ele>194.0</ele><time>2026-04-06T11:05:48Z</time></trkpt><trkpt lat="38.25259303738675" lon="16.22875375432269"><ele>194.0</ele><time>2026-04-06T11:05:49Z</time></trkpt><trkpt lat="38.25254720691616" lon="16.228947437333524"><ele>194.0</ele><time>2026-04-06T11:05:50Z</time></trkpt><trkpt lat="38.252536627199056" lon="16.22915370838858"><ele>192.0</ele><time>2026-04-06T11:05:51Z</time></trkpt><trkpt lat="38.252540137286616" lon="16.229339829514423"><ele>190.0</ele><time>2026-04-06T11:05:52Z</time></trkpt><trkpt lat="38.252538369962934" lon="16.229511313819625"><ele>188.0</ele><time>2026-04-06T11:05:53Z</time></trkpt><trkpt lat="38.25252982414517" lon="16.22965711436849"><ele>186.0</ele><time>2026-04-06T11:05:54Z</time></trkpt><trkpt lat="38.25249733765887" lon="16.229754386588482"><ele>186.0</ele><time>2026-04-06T11:05:55Z</time></trkpt><trkpt lat="38.25242413845322" lon="16.22979605732328"><ele>186.0</ele><time>2026-04-06T11:05:56.001Z</time></trkpt><trkpt lat="38.25231782040044" lon="16.229765738442417"><ele>186.0</ele><time>2026-04-06T11:05:57.001Z</time></trkpt><trkpt lat="38.25220995998548" lon="16.229672226634413"><ele>186.0</ele><time>2026-04-06T11:05:58.001Z</time></trkpt><trkpt lat="38.252046362855936" lon="16.229559402794624"><ele>182.66666666666666</ele><time>2026-04-06T11:05:59.001Z</time></trkpt><trkpt lat="38.25187565736265" lon="16.229444896839308"><ele>179.33333333333331</ele><time>2026-04-06T11:06:00.001Z</time></trkpt><trkpt lat="38.251737626634586" lon="16.229356058440146"><ele>176.0</ele><time>2026-04-06T11:06:01.001Z</time></trkpt><trkpt lat="38.25164956601946" lon="16.229276097571248"><ele>176.0</ele><time>2026-04-06T11:06:02.001Z</time></trkpt><trkpt lat="38.2515993195868" lon="16.2291704297931"><ele>176.0</ele><time>2026-04-06T11:06:03.001Z</time></trkpt><trkpt lat="38.25158688213418" lon="16.229037449076586"><ele>176.0</ele><time>2026-04-06T11:06:04.001Z</time></trkpt><trkpt lat="38.25164909819831" lon="16.228892785460726"><ele>176.0</ele><time>2026-04-06T11:06:05.001Z</time></trkpt><trkpt lat="38.25175028060561" lon="16.22878644157101"><ele>176.0</ele><time>2026-04-06T11:06:06.001Z</time></trkpt><trkpt lat="38.25185301046825" lon="16.228678224864854"><ele>176.0</ele><time>2026-04-06T11:06:07.001Z</time></trkpt><trkpt lat="38.251951504938965" lon="16.228541462848284"><ele>176.0</ele><time>2026-04-06T11:06:08.001Z</time></trkpt><trkpt lat="38.25195921860378" lon="16.228383307354015"><ele>176.0</ele><time>2026-04-06T11:06:09.001Z</time></trkpt><trkpt lat="38.25190522235184" lon="16.22819548915797"><ele>173.75</ele><time>2026-04-06T11:06:10.001Z</time></trkpt><trkpt lat="38.251832985116124" lon="16.228008095415447"><ele>171.5</ele><time>2026-04-06T11:06:11.001Z</time></trkpt><trkpt lat="38.25176180352959" lon="16.22786323936386"><ele>169.25</ele><time>2026-04-06T11:06:12.001Z</time></trkpt><trkpt lat="38.25164120575216" lon="16.22776294229012"><ele>167.0</ele><time>2026-04-06T11:06:13.001Z</time></trkpt><trkpt lat="38.25146288058394" lon="16.227686285807135"><ele>164.0</ele><time>2026-04-06T11:06:14.001Z</time></trkpt><trkpt lat="38.251305310514745" lon="16.227639621264256"><ele>161.0</ele><time>2026-04-06T11:06:15.001Z</time></trkpt><trkpt lat="38.25115093637209" lon="16.227605745998417"><ele>158.0</ele><time>2026-04-06T11:06:16.001Z</time></trkpt><trkpt lat="38.250971580385055" lon="16.22763396985014"><ele>158.0</ele><time>2026-04-06T11:06:17.001Z</time></trkpt><trkpt lat="38.25077660558229" lon="16.227706169827556"><ele>158.0</ele><time>2026-04-06T11:06:18.001Z</time></trkpt><trkpt lat="38.25060378623582" lon="16.227774648717368"><ele>158.0</ele><time>2026-04-06T11:06:19.001Z</time></trkpt><trkpt lat="38.250452656713016" lon="16.227793261629163"><ele>157.66666666666666</ele><time>2026-04-06T11:06:20.001Z</time></trkpt><trkpt lat="38.25029594481988" lon="16.22775532089717"><ele>157.33333333333334</ele><time>2026-04-06T11:06:21.001Z</time></trkpt><trkpt lat="38.250136939835045" lon="16.2276885905608"><ele>157.0</ele><time>2026-04-06T11:06:22.001Z</time></trkpt><trkpt lat="38.24999978970678" lon="16.227647131951226"><ele>157.0</ele><time>2026-04-06T11:06:23.001Z</time></trkpt><trkpt lat="38.249839718123496" lon="16.22765298669448"><ele>157.0</ele><time>2026-04-06T11:06:24.001Z</time></trkpt><trkpt lat="38.24964578904745" lon="16.22771429348234"><ele>157.0</ele><time>2026-04-06T11:06:25.001Z</time></trkpt><trkpt lat="38.24946346648273" lon="16.227758826629824"><ele>157.33333333333334</ele><time>2026-04-06T11:06:26.001Z</time></trkpt><trkpt lat="38.249269873387426" lon="16.227766043054896"><ele>157.66666666666666</ele><time>2026-04-06T11:06:27.001Z</time></trkpt><trkpt lat="38.249070618514274" lon="16.227727623740666"><ele>158.0</ele><time>2026-04-06T11:06:28.001Z</time></trkpt><trkpt lat="38.248851730155216" lon="16.227746017609057"><ele>155.33333333333331</ele><time>2026-04-06T11:06:29.001Z</time></trkpt><trkpt lat="38.24868708945723" lon="16.227779009550936"><ele>152.66666666666666</ele><time>2026-04-06T11:06:30.001Z</time></trkpt><trkpt lat="38.248514195110644" lon="16.22777528844222"><ele>150.0</ele><time>2026-04-06T11:06:31.001Z</time></trkpt><trkpt lat="38.24835406451939" lon="16.227748883604242"><ele>150.0</ele><time>2026-04-06T11:06:32.001Z</time></trkpt><trkpt lat="38.248253712542116" lon="16.227720093194748"><ele>150.0</ele><time>2026-04-06T11:06:33.001Z</time></trkpt><trkpt lat="38.248148710521974" lon="16.227746337420548"><ele>150.0</ele><time>2026-04-06T11:06:34.001Z</time></trkpt><trkpt lat="38.24807070976336" lon="16.22784298100329"><ele>150.0</ele><time>2026-04-06T11:06:35.001Z</time></trkpt><trkpt lat="38.24804052933833" lon="16.227960502860824"><ele>150.0</ele><time>2026-04-06T11:06:36.001Z</time></trkpt><trkpt lat="38.248048711482255" lon="16.228097287361507"><ele>152.16666666666666</ele><time>2026-04-06T11:06:37.001Z</time></trkpt><trkpt lat="38.24812817541561" lon="16.228214640863396"><ele>154.33333333333334</ele><time>2026-04-06T11:06:38.001Z</time></trkpt><trkpt lat="38.2481749940296" lon="16.228302000421117"><ele>156.5</ele><time>2026-04-06T11:06:39.001Z</time></trkpt><trkpt lat="38.248176576732824" lon="16.22838923444473"><ele>158.66666666666669</ele><time>2026-04-06T11:06:40.001Z</time></trkpt><trkpt lat="38.248125336565025" lon="16.228477441211282"><ele>160.83333333333334</ele><time>2026-04-06T11:06:41.001Z</time></trkpt><trkpt lat="38.248116005618755" lon="16.228572579338806"><ele>163.0</ele><time>2026-04-06T11:06:42.001Z</time></trkpt><trkpt lat="38.248104015082156" lon="16.228676051284726"><ele>163.0</ele><time>2026-04-06T11:06:43.001Z</time></trkpt><trkpt lat="38.248111593807295" lon="16.228791002193027"><ele>163.0</ele><time>2026-04-06T11:06:44.001Z</time></trkpt><trkpt lat="38.24814948406494" lon="16.228913092061976"><ele>163.0</ele><time>2026-04-06T11:06:45.001Z</time></trkpt><trkpt lat="38.248197009940355" lon="16.229022815332304"><ele>163.0</ele><time>2026-04-06T11:06:46.002Z</time></trkpt><trkpt lat="38.248225859983336" lon="16.229122066110854"><ele>163.0</ele><time>2026-04-06T11:06:47.002Z</time></trkpt><trkpt lat="38.24824225925038" lon="16.229212615915806"><ele>163.0</ele><time>2026-04-06T11:06:48.002Z</time></trkpt><trkpt lat="38.248238834927555" lon="16.22930697685009"><ele>161.6</ele><time>2026-04-06T11:06:49.002Z</time></trkpt><trkpt lat="38.248249185605076" lon="16.229398537432587"><ele>160.20000000000002</ele><time>2026-04-06T11:06:50.002Z</time></trkpt><trkpt lat="38.24826716665209" lon="16.229499422308365"><ele>158.8</ele><time>2026-04-06T11:06:51.002Z</time></trkpt><trkpt lat="38.24822327137085" lon="16.229610619620537"><ele>157.4</ele><time>2026-04-06T11:06:52.002Z</time></trkpt><trkpt lat="38.24814052057606" lon="16.229687233622105"><ele>156.0</ele><time>2026-04-06T11:06:53.002Z</time></trkpt><trkpt lat="38.248052842296005" lon="16.229741739517884"><ele>151.83333333333334</ele><time>2026-04-06T11:06:54.002Z</time></trkpt><trkpt lat="38.24795709186557" lon="16.229765081803176"><ele>147.66666666666666</ele><time>2026-04-06T11:06:55.002Z</time></trkpt><trkpt lat="38.2478630093279" lon="16.229753765234605"><ele>143.5</ele><time>2026-04-06T11:06:56.002Z</time></trkpt><trkpt lat="38.247782499948755" lon="16.22975553107506"><ele>139.33333333333331</ele><time>2026-04-06T11:06:57.002Z</time></trkpt><trkpt lat="38.24770695541026" lon="16.229713905172922"><ele>135.16666666666666</ele><time>2026-04-06T11:06:58.002Z</time></trkpt><trkpt lat="38.24762763158093" lon="16.229656129450056"><ele>131.0</ele><time>2026-04-06T11:06:59.002Z</time></trkpt><trkpt lat="38.24754540365812" lon="16.229619749218227"><ele>131.0</ele><time>2026-04-06T11:07:00.002Z</time></trkpt><trkpt lat="38.247445120220014" lon="16.229642165705872"><ele>131.0</ele><time>2026-04-06T11:07:01.002Z</time></trkpt><trkpt lat="38.24731853035042" lon="16.229720462168352"><ele>131.0</ele><time>2026-04-06T11:07:02.002Z</time></trkpt><trkpt lat="38.24717015175587" lon="16.229797022831892"><ele>131.0</ele><time>2026-04-06T11:07:03.002Z</time></trkpt><trkpt lat="38.247040030523536" lon="16.229853603277547"><ele>133.0</ele><time>2026-04-06T11:07:04.002Z</time></trkpt><trkpt lat="38.2469165416227" lon="16.22983642800621"><ele>135.0</ele><time>2026-04-06T11:07:05.002Z</time></trkpt><trkpt lat="38.24679855585594" lon="16.229860671517848"><ele>137.0</ele><time>2026-04-06T11:07:06.002Z</time></trkpt><trkpt lat="38.246685421787326" lon="16.22988876864015"><ele>139.0</ele><time>2026-04-06T11:07:07.002Z</time></trkpt><trkpt lat="38.246566309669454" lon="16.230004905190732"><ele>132.75</ele><time>2026-04-06T11:07:08.002Z</time></trkpt><trkpt lat="38.24645768474512" lon="16.230177921608124"><ele>126.5</ele><time>2026-04-06T11:07:09.002Z</time></trkpt><trkpt lat="38.24637541013223" lon="16.23030761362592"><ele>120.25</ele><time>2026-04-06T11:07:09.999Z</time></trkpt><trkpt lat="38.24631396283616" lon="16.2303973917242"><ele>114.0</ele><time>2026-04-06T11:07:10.999Z</time></trkpt><trkpt lat="38.246259409163265" lon="16.230475606909344"><ele>114.0</ele><time>2026-04-06T11:07:11.999Z</time></trkpt><trkpt lat="38.24619786677928" lon="16.230566563222666"><ele>114.0</ele><time>2026-04-06T11:07:12.999Z</time></trkpt><trkpt lat="38.24614358855793" lon="16.23066263102936"><ele>114.0</ele><time>2026-04-06T11:07:13.999Z</time></trkpt><trkpt lat="38.246095469656225" lon="16.230778275677274"><ele>114.0</ele><time>2026-04-06T11:07:15.999Z</time></trkpt><trkpt lat="38.246092622856224" lon="16.230875075531685"><ele>114.0</ele><time>2026-04-06T11:07:16.999Z</time></trkpt><trkpt lat="38.24615219615083" lon="16.230970358734318"><ele>117.33333333333333</ele><time>2026-04-06T11:07:17.999Z</time></trkpt><trkpt lat="38.24620902359121" lon="16.23103574469444"><ele>120.66666666666666</ele><time>2026-04-06T11:07:18.999Z</time></trkpt><trkpt lat="38.246304138345245" lon="16.231046072952118"><ele>124.0</ele><time>2026-04-06T11:07:19.999Z</time></trkpt><trkpt lat="38.24639201135937" lon="16.231025941506488"><ele>127.33333333333333</ele><time>2026-04-06T11:07:20.999Z</time></trkpt><trkpt lat="38.24646334132885" lon="16.231041780651775"><ele>130.66666666666666</ele><time>2026-04-06T11:07:21.999Z</time></trkpt><trkpt lat="38.246538515398726" lon="16.23105227888924"><ele>134.0</ele><time>2026-04-06T11:07:22.999Z</time></trkpt><trkpt lat="38.2465942244554" lon="16.231109308517837"><ele>134.4</ele><time>2026-04-06T11:07:23.999Z</time></trkpt><trkpt lat="38.24662803170764" lon="16.231205229874192"><ele>134.8</ele><time>2026-04-06T11:07:25Z</time></trkpt><trkpt lat="38.24665531081604" lon="16.23133001472726"><ele>135.2</ele><time>2026-04-06T11:07:26Z</time></trkpt><trkpt lat="38.24662406843601" lon="16.23144986769273"><ele>135.6</ele><time>2026-04-06T11:07:27Z</time></trkpt><trkpt lat="38.246575164672656" lon="16.23159121331038"><ele>136.0</ele><time>2026-04-06T11:07:28Z</time></trkpt><trkpt lat="38.24651257328048" lon="16.231799851384167"><ele>134.66666666666669</ele><time>2026-04-06T11:07:29Z</time></trkpt><trkpt lat="38.246440657753546" lon="16.232051689861525"><ele>133.33333333333334</ele><time>2026-04-06T11:07:30Z</time></trkpt><trkpt lat="38.246350738863136" lon="16.23230647441452"><ele>132.0</ele><time>2026-04-06T11:07:31Z</time></trkpt><trkpt lat="38.24624147676024" lon="16.232511934086965"><ele>129.66666666666666</ele><time>2026-04-06T11:07:32Z</time></trkpt><trkpt lat="38.246117544349765" lon="16.232670057522544"><ele>127.33333333333333</ele><time>2026-04-06T11:07:33Z</time></trkpt><trkpt lat="38.24598488799362" lon="16.232833776363307"><ele>125.0</ele><time>2026-04-06T11:07:34Z</time></trkpt><trkpt lat="38.245797223334314" lon="16.23293670264388"><ele>123.75</ele><time>2026-04-06T11:07:35Z</time></trkpt><trkpt lat="38.24562024941763" lon="16.233009989035317"><ele>122.5</ele><time>2026-04-06T11:07:36Z</time></trkpt><trkpt lat="38.24549505936333" lon="16.23308081864092"><ele>121.25</ele><time>2026-04-06T11:07:37Z</time></trkpt><trkpt lat="38.24540663367901" lon="16.233155641882384"><ele>120.0</ele><time>2026-04-06T11:07:38Z</time></trkpt><trkpt lat="38.24536274410021" lon="16.233252396054453"><ele>120.0</ele><time>2026-04-06T11:07:39Z</time></trkpt><trkpt lat="38.24536031336635" lon="16.233367352920208"><ele>120.0</ele><time>2026-04-06T11:07:40Z</time></trkpt><trkpt lat="38.245418067927474" lon="16.233475794858737"><ele>120.0</ele><time>2026-04-06T11:07:41Z</time></trkpt><trkpt lat="38.2455641799911" lon="16.233497843518286"><ele>120.0</ele><time>2026-04-06T11:07:42Z</time></trkpt><trkpt lat="38.245638591512645" lon="16.233579729011794"><ele>120.0</ele><time>2026-04-06T11:07:43Z</time></trkpt><trkpt lat="38.24568634272881" lon="16.233670465998635"><ele>120.0</ele><time>2026-04-06T11:07:44Z</time></trkpt><trkpt lat="38.245680880050706" lon="16.233800913029622"><ele>120.0</ele><time>2026-04-06T11:07:45Z</time></trkpt><trkpt lat="38.245611186415" lon="16.233954750899976"><ele>120.0</ele><time>2026-04-06T11:07:46Z</time></trkpt><trkpt lat="38.2455303064041" lon="16.234142825345824"><ele>120.0</ele><time>2026-04-06T11:07:47Z</time></trkpt><trkpt lat="38.24546040549846" lon="16.234259140827493"><ele>122.5</ele><time>2026-04-06T11:07:48Z</time></trkpt><trkpt lat="38.24537895002827" lon="16.234323677511068"><ele>125.0</ele><time>2026-04-06T11:07:49Z</time></trkpt><trkpt lat="38.24526975624935" lon="16.234304345514968"><ele>127.5</ele><time>2026-04-06T11:07:50Z</time></trkpt><trkpt lat="38.2451123373561" lon="16.234233210258562"><ele>130.0</ele><time>2026-04-06T11:07:51Z</time></trkpt><trkpt lat="38.244939252745425" lon="16.234131665600106"><ele>131.0</ele><time>2026-04-06T11:07:52Z</time></trkpt><trkpt lat="38.24473935175377" lon="16.2340149250596"><ele>132.0</ele><time>2026-04-06T11:07:53Z</time></trkpt><trkpt lat="38.24455742441353" lon="16.233918772692455"><ele>133.0</ele><time>2026-04-06T11:07:54Z</time></trkpt><trkpt lat="38.24441281684136" lon="16.23384515592107"><ele>125.33333333333334</ele><time>2026-04-06T11:07:55Z</time></trkpt><trkpt lat="38.24427327994369" lon="16.233810760828575"><ele>117.66666666666666</ele><time>2026-04-06T11:07:56Z</time></trkpt><trkpt lat="38.24410811942764" lon="16.23383035050316"><ele>110.0</ele><time>2026-04-06T11:07:57Z</time></trkpt><trkpt lat="38.24396384426672" lon="16.233839973282645"><ele>109.5</ele><time>2026-04-06T11:07:58Z</time></trkpt><trkpt lat="38.24387461807671" lon="16.233719975480664"><ele>109.0</ele><time>2026-04-06T11:07:59Z</time></trkpt><trkpt lat="38.24374926260038" lon="16.233620159966726"><ele>108.5</ele><time>2026-04-06T11:08:00Z</time></trkpt><trkpt lat="38.24362992230232" lon="16.23357605449956"><ele>108.0</ele><time>2026-04-06T11:08:01.001Z</time></trkpt><trkpt lat="38.24348452384626" lon="16.23359537582516"><ele>108.0</ele><time>2026-04-06T11:08:02.001Z</time></trkpt><trkpt lat="38.24335791448151" lon="16.233691558885575"><ele>108.0</ele><time>2026-04-06T11:08:03.001Z</time></trkpt><trkpt lat="38.24319610525526" lon="16.23385393589682"><ele>108.0</ele><time>2026-04-06T11:08:04.001Z</time></trkpt><trkpt lat="38.24300500053287" lon="16.234012084177692"><ele>107.5</ele><time>2026-04-06T11:08:05.001Z</time></trkpt><trkpt lat="38.24280974353338" lon="16.234204360272525"><ele>107.0</ele><time>2026-04-06T11:08:06.001Z</time></trkpt><trkpt lat="38.24263124773156" lon="16.234352853447863"><ele>107.0</ele><time>2026-04-06T11:08:07.001Z</time></trkpt><trkpt lat="38.24247130920277" lon="16.23449667162467"><ele>107.0</ele><time>2026-04-06T11:08:08.001Z</time></trkpt><trkpt lat="38.2423192140891" lon="16.234634115831756"><ele>107.0</ele><time>2026-04-06T11:08:09.001Z</time></trkpt><trkpt lat="38.242182326451044" lon="16.234770072189562"><ele>107.33333333333333</ele><time>2026-04-06T11:08:10.001Z</time></trkpt><trkpt lat="38.24205400209177" lon="16.234944900344587"><ele>107.66666666666666</ele><time>2026-04-06T11:08:11.001Z</time></trkpt><trkpt lat="38.24193691919011" lon="16.23515048659806"><ele>108.0</ele><time>2026-04-06T11:08:12.001Z</time></trkpt><trkpt lat="38.24184023974084" lon="16.235338166953053"><ele>108.0</ele><time>2026-04-06T11:08:13.001Z</time></trkpt><trkpt lat="38.24174611736872" lon="16.235502488070935"><ele>108.0</ele><time>2026-04-06T11:08:14.001Z</time></trkpt><trkpt lat="38.24163130424652" lon="16.235608089685776"><ele>108.0</ele><time>2026-04-06T11:08:15.001Z</time></trkpt><trkpt lat="38.24152944264638" lon="16.235714891957123"><ele>108.0</ele><time>2026-04-06T11:08:16.001Z</time></trkpt><trkpt lat="38.24144020742654" lon="16.23579476236754"><ele>107.75</ele><time>2026-04-06T11:08:17.001Z</time></trkpt><trkpt lat="38.24139284198677" lon="16.235900337977395"><ele>107.5</ele><time>2026-04-06T11:08:18.001Z</time></trkpt><trkpt lat="38.241359012452854" lon="16.236043243311734"><ele>107.25</ele><time>2026-04-06T11:08:19.001Z</time></trkpt><trkpt lat="38.24143997676312" lon="16.236194336829914"><ele>107.0</ele><time>2026-04-06T11:08:20.001Z</time></trkpt><trkpt lat="38.241523844042455" lon="16.23630487412806"><ele>106.99999999999999</ele><time>2026-04-06T11:08:21.001Z</time></trkpt><trkpt lat="38.24157978273419" lon="16.236343671073765"><ele>107.0</ele><time>2026-04-06T11:08:22.001Z</time></trkpt><trkpt lat="38.24164580844684" lon="16.236337976611036"><ele>107.0</ele><time>2026-04-06T11:08:24.001Z</time></trkpt><trkpt lat="38.24173327562333" lon="16.236328505498243"><ele>107.0</ele><time>2026-04-06T11:08:26.001Z</time></trkpt><trkpt lat="38.2418540883945" lon="16.236299195600274"><ele>106.99999999999999</ele><time>2026-04-06T11:08:28.001Z</time></trkpt><trkpt lat="38.24193831643253" lon="16.23632452057569"><ele>107.0</ele><time>2026-04-06T11:08:29.001Z</time></trkpt><trkpt lat="38.242029619936496" lon="16.23639946314008"><ele>107.33333333333333</ele><time>2026-04-06T11:08:30.001Z</time></trkpt><trkpt lat="38.24210843919053" lon="16.23654060310208"><ele>107.66666666666666</ele><time>2026-04-06T11:08:31.001Z</time></trkpt><trkpt lat="38.24220115351155" lon="16.23672371333641"><ele>108.0</ele><time>2026-04-06T11:08:32.001Z</time></trkpt><trkpt lat="38.24230932915115" lon="16.236931477169442"><ele>108.0</ele><time>2026-04-06T11:08:33.001Z</time></trkpt><trkpt lat="38.24243750519532" lon="16.237166687657496"><ele>108.0</ele><time>2026-04-06T11:08:34.001Z</time></trkpt><trkpt lat="38.242573193715124" lon="16.23741170418389"><ele>101.5</ele><time>2026-04-06T11:08:35.001Z</time></trkpt><trkpt lat="38.24270950533214" lon="16.237659954883544"><ele>95.0</ele><time>2026-04-06T11:08:36.001Z</time></trkpt><trkpt lat="38.242825461856455" lon="16.237888917036827"><ele>95.0</ele><time>2026-04-06T11:08:37.001Z</time></trkpt><trkpt lat="38.242901787423804" lon="16.23807512913151"><ele>95.0</ele><time>2026-04-06T11:08:38.001Z</time></trkpt><trkpt lat="38.242951933383495" lon="16.23824162464095"><ele>95.0</ele><time>2026-04-06T11:08:39.001Z</time></trkpt><trkpt lat="38.242958886330634" lon="16.238378570934138"><ele>95.0</ele><time>2026-04-06T11:08:40.001Z</time></trkpt><trkpt lat="38.24292230318481" lon="16.238499321334864"><ele>92.0</ele><time>2026-04-06T11:08:41.001Z</time></trkpt><trkpt lat="38.24285281578544" lon="16.238598558306332"><ele>89.0</ele><time>2026-04-06T11:08:42.001Z</time></trkpt><trkpt lat="38.242732721123005" lon="16.238746731058264"><ele>86.0</ele><time>2026-04-06T11:08:43.001Z</time></trkpt><trkpt lat="38.24256716611526" lon="16.23894700786668"><ele>84.0</ele><time>2026-04-06T11:08:44.001Z</time></trkpt><trkpt lat="38.242377748250604" lon="16.239177455912927"><ele>82.0</ele><time>2026-04-06T11:08:45.001Z</time></trkpt><trkpt lat="38.24217656694553" lon="16.23943974686855"><ele>81.0</ele><time>2026-04-06T11:08:46.002Z</time></trkpt><trkpt lat="38.24196264687226" lon="16.2397228778463"><ele>80.0</ele><time>2026-04-06T11:08:47.002Z</time></trkpt><trkpt lat="38.24174602851468" lon="16.240011757008872"><ele>79.5</ele><time>2026-04-06T11:08:48.002Z</time></trkpt><trkpt lat="38.24151219167645" lon="16.240326863624926"><ele>79.0</ele><time>2026-04-06T11:08:49.002Z</time></trkpt><trkpt lat="38.24128068580989" lon="16.240638999191567"><ele>74.0</ele><time>2026-04-06T11:08:50.002Z</time></trkpt><trkpt lat="38.24106291539888" lon="16.240923424951806"><ele>69.0</ele><time>2026-04-06T11:08:51.002Z</time></trkpt><trkpt lat="38.24086024309505" lon="16.241143338426596"><ele>69.0</ele><time>2026-04-06T11:08:52.002Z</time></trkpt><trkpt lat="38.24067950351317" lon="16.24133620632115"><ele>69.0</ele><time>2026-04-06T11:08:53.002Z</time></trkpt><trkpt lat="38.24053794665603" lon="16.24147753991848"><ele>69.0</ele><time>2026-04-06T11:08:54.002Z</time></trkpt><trkpt lat="38.24040046472992" lon="16.24158131223234"><ele>68.0</ele><time>2026-04-06T11:08:55.002Z</time></trkpt><trkpt lat="38.240254244317406" lon="16.2416465097736"><ele>67.0</ele><time>2026-04-06T11:08:56.002Z</time></trkpt><trkpt lat="38.24009676551851" lon="16.241668736085852"><ele>66.0</ele><time>2026-04-06T11:08:57.002Z</time></trkpt><trkpt lat="38.23987904288016" lon="16.241691897607176"><ele>65.66666666666667</ele><time>2026-04-06T11:08:58.002Z</time></trkpt><trkpt lat="38.23967074052193" lon="16.241720890103093"><ele>65.33333333333334</ele><time>2026-04-06T11:08:59.002Z</time></trkpt><trkpt lat="38.239466875115944" lon="16.241772057431465"><ele>65.0</ele><time>2026-04-06T11:09:00.002Z</time></trkpt><trkpt lat="38.23925421455307" lon="16.241876606632477"><ele>65.0</ele><time>2026-04-06T11:09:01.002Z</time></trkpt><trkpt lat="38.23905437271076" lon="16.242014566103023"><ele>65.0</ele><time>2026-04-06T11:09:02.002Z</time></trkpt><trkpt lat="38.23888003504818" lon="16.242160070410456"><ele>65.0</ele><time>2026-04-06T11:09:03.002Z</time></trkpt><trkpt lat="38.238729494449814" lon="16.242243139089"><ele>64.0</ele><time>2026-04-06T11:09:04.002Z</time></trkpt><trkpt lat="38.238598666864966" lon="16.242310949222563"><ele>63.0</ele><time>2026-04-06T11:09:05.002Z</time></trkpt><trkpt lat="38.23847466979205" lon="16.24228817171375"><ele>62.0</ele><time>2026-04-06T11:09:06.002Z</time></trkpt><trkpt lat="38.23834287562813" lon="16.242211842841524"><ele>61.0</ele><time>2026-04-06T11:09:07.002Z</time></trkpt><trkpt lat="38.2381684556879" lon="16.242085259810707"><ele>59.666666666666664</ele><time>2026-04-06T11:09:08.002Z</time></trkpt><trkpt lat="38.238006375863414" lon="16.24195488009111"><ele>58.33333333333333</ele><time>2026-04-06T11:09:09.002Z</time></trkpt><trkpt lat="38.2378851890179" lon="16.241859130083466"><ele>57.0</ele><time>2026-04-06T11:09:10.002Z</time></trkpt><trkpt lat="38.2377692904533" lon="16.24181716420301"><ele>57.0</ele><time>2026-04-06T11:09:11.002Z</time></trkpt><trkpt lat="38.23765926012834" lon="16.24184630953712"><ele>57.0</ele><time>2026-04-06T11:09:12.002Z</time></trkpt><trkpt lat="38.23753074404523" lon="16.241955468374293"><ele>57.0</ele><time>2026-04-06T11:09:13.002Z</time></trkpt><trkpt lat="38.23737184540708" lon="16.242084968292147"><ele>57.0</ele><time>2026-04-06T11:09:14.002Z</time></trkpt><trkpt lat="38.237226395508586" lon="16.24221293051656"><ele>57.0</ele><time>2026-04-06T11:09:15.002Z</time></trkpt><trkpt lat="38.237062921455504" lon="16.24235076629817"><ele>57.0</ele><time>2026-04-06T11:09:15.999Z</time></trkpt><trkpt lat="38.23692260852828" lon="16.242426423184483"><ele>57.0</ele><time>2026-04-06T11:09:16.999Z</time></trkpt><trkpt lat="38.23677604534723" lon="16.242442642413888"><ele>57.0</ele><time>2026-04-06T11:09:17.999Z</time></trkpt><trkpt lat="38.236603219402355" lon="16.24242899663283"><ele>57.0</ele><time>2026-04-06T11:09:18.999Z</time></trkpt><trkpt lat="38.236423705362306" lon="16.24241488697795"><ele>54.66666666666667</ele><time>2026-04-06T11:09:19.999Z</time></trkpt><trkpt lat="38.236253240332445" lon="16.24239119635018"><ele>52.333333333333336</ele><time>2026-04-06T11:09:20.999Z</time></trkpt><trkpt lat="38.23610060299368" lon="16.24237735263297"><ele>50.0</ele><time>2026-04-06T11:09:21.999Z</time></trkpt><trkpt lat="38.235973819104686" lon="16.242389080300665"><ele>50.0</ele><time>2026-04-06T11:09:22.999Z</time></trkpt><trkpt lat="38.235839992946694" lon="16.242457241182095"><ele>50.0</ele><time>2026-04-06T11:09:23.999Z</time></trkpt><trkpt lat="38.2357199707102" lon="16.242588307463503"><ele>50.0</ele><time>2026-04-06T11:09:24.999Z</time></trkpt><trkpt lat="38.235604195421395" lon="16.242774038461913"><ele>48.0</ele><time>2026-04-06T11:09:25.999Z</time></trkpt><trkpt lat="38.23548988436415" lon="16.242978801556887"><ele>46.0</ele><time>2026-04-06T11:09:26.999Z</time></trkpt><trkpt lat="38.23538460444795" lon="16.243161502296015"><ele>44.0</ele><time>2026-04-06T11:09:27.999Z</time></trkpt><trkpt lat="38.235308747947485" lon="16.243333298675104"><ele>44.0</ele><time>2026-04-06T11:09:28.999Z</time></trkpt><trkpt lat="38.23525129901505" lon="16.24350150589441"><ele>44.0</ele><time>2026-04-06T11:09:29.999Z</time></trkpt><trkpt lat="38.23518562815379" lon="16.243666984181715"><ele>44.0</ele><time>2026-04-06T11:09:31Z</time></trkpt><trkpt lat="38.235135882087" lon="16.2438176804502"><ele>44.0</ele><time>2026-04-06T11:09:32Z</time></trkpt><trkpt lat="38.235089933602275" lon="16.24396330592684"><ele>43.6</ele><time>2026-04-06T11:09:33Z</time></trkpt><trkpt lat="38.23504912029915" lon="16.24409566434421"><ele>43.2</ele><time>2026-04-06T11:09:34Z</time></trkpt><trkpt lat="38.23499124950644" lon="16.24425501514259"><ele>42.800000000000004</ele><time>2026-04-06T11:09:35Z</time></trkpt><trkpt lat="38.23497696290682" lon="16.244348961125407"><ele>42.400000000000006</ele><time>2026-04-06T11:09:36Z</time></trkpt><trkpt lat="38.23494729190092" lon="16.244466757474655"><ele>42.0</ele><time>2026-04-06T11:09:37Z</time></trkpt><trkpt lat="38.234923311655145" lon="16.244576229353882"><ele>42.0</ele><time>2026-04-06T11:09:38Z</time></trkpt><trkpt lat="38.2349032574299" lon="16.244682054925004"><ele>42.0</ele><time>2026-04-06T11:09:39Z</time></trkpt><trkpt lat="38.23488455414081" lon="16.244788128856875"><ele>42.0</ele><time>2026-04-06T11:09:40Z</time></trkpt><trkpt lat="38.23487007216501" lon="16.244878344994046"><ele>42.0</ele><time>2026-04-06T11:09:41Z</time></trkpt><trkpt lat="38.23485166097166" lon="16.244993027989405"><ele>42.0</ele><time>2026-04-06T11:09:42Z</time></trkpt><trkpt lat="38.234831039668535" lon="16.2451417709894"><ele>41.8</ele><time>2026-04-06T11:09:44Z</time></trkpt><trkpt lat="38.234819090715945" lon="16.245251995390923"><ele>41.6</ele><time>2026-04-06T11:09:45Z</time></trkpt><trkpt lat="38.23480959535207" lon="16.24535614283061"><ele>41.4</ele><time>2026-04-06T11:09:46Z</time></trkpt><trkpt lat="38.23477458956461" lon="16.245487897961837"><ele>41.199999999999996</ele><time>2026-04-06T11:09:47Z</time></trkpt><trkpt lat="38.23475643809412" lon="16.245605082584813"><ele>41.0</ele><time>2026-04-06T11:09:48Z</time></trkpt><trkpt lat="38.23474018790387" lon="16.24572010365463"><ele>41.0</ele><time>2026-04-06T11:09:49Z</time></trkpt><trkpt lat="38.23474332472646" lon="16.24581819250521"><ele>41.0</ele><time>2026-04-06T11:09:50Z</time></trkpt><trkpt lat="38.23473003357751" lon="16.245900999196394"><ele>41.0</ele><time>2026-04-06T11:09:51Z</time></trkpt><trkpt lat="38.234897483084545" lon="16.245832151711635"><ele>41.0</ele><time>2026-04-06T11:09:56Z</time></trkpt><trkpt lat="38.23494403486598" lon="16.245735455518844"><ele>41.0</ele><time>2026-04-06T11:09:58Z</time></trkpt><trkpt lat="38.23501772789472" lon="16.245627752378482"><ele>41.0</ele><time>2026-04-06T11:10:00Z</time></trkpt><trkpt lat="38.235101521363624" lon="16.24552980521137"><ele>41.0</ele><time>2026-04-06T11:10:02Z</time></trkpt><trkpt lat="38.23518888185086" lon="16.245442712893652"><ele>41.0</ele><time>2026-04-06T11:10:04.001Z</time></trkpt><trkpt lat="38.23527218389291" lon="16.24534252189493"><ele>41.0</ele><time>2026-04-06T11:10:06.001Z</time></trkpt><trkpt lat="38.235325025776575" lon="16.24529869449493"><ele>41.0</ele><time>2026-04-06T11:10:07.001Z</time></trkpt><trkpt lat="38.235416088469805" lon="16.245228600712814"><ele>41.0</ele><time>2026-04-06T11:10:09.001Z</time></trkpt><trkpt lat="38.23550863368438" lon="16.245140560924753"><ele>41.0</ele><time>2026-04-06T11:10:11.001Z</time></trkpt><trkpt lat="38.23560910792263" lon="16.24506540725173"><ele>41.0</ele><time>2026-04-06T11:10:13.001Z</time></trkpt><trkpt lat="38.23572005308015" lon="16.244996329360298"><ele>41.0</ele><time>2026-04-06T11:10:15.001Z</time></trkpt><trkpt lat="38.23577165507908" lon="16.244947426545387"><ele>41.0</ele><time>2026-04-06T11:10:16.001Z</time></trkpt><trkpt lat="38.23581286194027" lon="16.244880902321803"><ele>55.0</ele><time>2026-04-06T11:10:17.001Z</time></trkpt><trkpt lat="38.23586640287001" lon="16.244829691013166"><ele>55.0</ele><time>2026-04-06T11:10:18.001Z</time></trkpt></trkseg></trk></gpx>